<?xml version='1.0' encoding='UTF-8'?><gpx version="1.1" creator="JPX - https://github.com/jenetics/jpx" xmlns="http://www.topografix.com/GPX/1/1"><trk><trkseg><trkpt lat="38.18023893642914" lon="-2.256887913397124"><ele>953.0</ele><time>2026-04-20T12:53:05Z</time></trkpt><trkpt lat="38.180158916794674" lon="-2.256897579062641"><ele>953.0</ele><time>2026-04-20T12:53:07Z</time></trkpt><trkpt lat="38.180064103966906" lon="-2.256957122438971"><ele>953.0</ele><time>2026-04-20T12:53:09Z</time></trkpt><trkpt lat="38.17998953584968" lon="-2.2570119291325623"><ele>953.0</ele><time>2026-04-20T12:53:11Z</time></trkpt><trkpt lat="38.179901832577265" lon="-2.2570245604657146"><ele>953.0</ele><time>2026-04-20T12:53:13Z</time></trkpt><trkpt lat="38.17982136102073" lon="-2.2569603143802603"><ele>955.75</ele><time>2026-04-20T12:53:15Z</time></trkpt><trkpt lat="38.17974794171547" lon="-2.2567749578409937"><ele>958.5</ele><time>2026-04-20T12:53:17Z</time></trkpt><trkpt lat="38.17965494499397" lon="-2.2567134371119244"><ele>961.25</ele><time>2026-04-20T12:53:18Z</time></trkpt><trkpt lat="38.17955775129581" lon="-2.2567483426089185"><ele>964.0</ele><time>2026-04-20T12:53:20Z</time></trkpt><trkpt lat="38.17947687752708" lon="-2.2567853130325193"><ele>963.9999999999999</ele><time>2026-04-20T12:53:21Z</time></trkpt><trkpt lat="38.17940494350094" lon="-2.2567955206916097"><ele>964.0</ele><time>2026-04-20T12:53:22Z</time></trkpt><trkpt lat="38.17931510613783" lon="-2.2567848502862424"><ele>964.0</ele><time>2026-04-20T12:53:24Z</time></trkpt><trkpt lat="38.17927676455575" lon="-2.2568696491096887"><ele>964.0</ele><time>2026-04-20T12:53:26Z</time></trkpt><trkpt lat="38.1791978325427" lon="-2.256965868795835"><ele>963.9999999999999</ele><time>2026-04-20T12:53:28Z</time></trkpt><trkpt lat="38.179116699754005" lon="-2.257029148450583"><ele>964.0</ele><time>2026-04-20T12:53:30Z</time></trkpt><trkpt lat="38.17904446328096" lon="-2.2570815822127472"><ele>964.9999999999999</ele><time>2026-04-20T12:53:32Z</time></trkpt><trkpt lat="38.17897167184202" lon="-2.2571165739804786"><ele>966.0</ele><time>2026-04-20T12:53:35Z</time></trkpt><trkpt lat="38.178962295265514" lon="-2.2572489503052124"><ele>967.0</ele><time>2026-04-20T12:53:58Z</time></trkpt><trkpt lat="38.178929455927644" lon="-2.2573227374392064"><ele>968.0</ele><time>2026-04-20T12:53:59Z</time></trkpt><trkpt lat="38.17888235942033" lon="-2.257405102629763"><ele>968.9999999999999</ele><time>2026-04-20T12:54:00Z</time></trkpt><trkpt lat="38.17883360549233" lon="-2.2574856369698812"><ele>970.0</ele><time>2026-04-20T12:54:01Z</time></trkpt><trkpt lat="38.17878292144066" lon="-2.257552531794781"><ele>970.0</ele><time>2026-04-20T12:54:02Z</time></trkpt><trkpt lat="38.178733750348286" lon="-2.2576209152366737"><ele>970.0</ele><time>2026-04-20T12:54:03Z</time></trkpt><trkpt lat="38.17868346720443" lon="-2.2576893844901407"><ele>970.0</ele><time>2026-04-20T12:54:04Z</time></trkpt><trkpt lat="38.17863994613017" lon="-2.257749136764629"><ele>970.0</ele><time>2026-04-20T12:54:05Z</time></trkpt><trkpt lat="38.17855977683418" lon="-2.2578558279583545"><ele>970.0</ele><time>2026-04-20T12:54:07Z</time></trkpt><trkpt lat="38.178469041628475" lon="-2.2579663321619634"><ele>970.0000000000001</ele><time>2026-04-20T12:54:09Z</time></trkpt><trkpt lat="38.17843600493903" lon="-2.2580415415976"><ele>970.0</ele><time>2026-04-20T12:54:10Z</time></trkpt><trkpt lat="38.178392967901154" lon="-2.2581025894439613"><ele>970.0000000000001</ele><time>2026-04-20T12:54:11Z</time></trkpt><trkpt lat="38.17834846923591" lon="-2.2581664417960656"><ele>970.0000000000001</ele><time>2026-04-20T12:54:12Z</time></trkpt><trkpt lat="38.17829707237659" lon="-2.258233435151783"><ele>970.0</ele><time>2026-04-20T12:54:13Z</time></trkpt><trkpt lat="38.17824163075864" lon="-2.2583010132652963"><ele>970.0000000000001</ele><time>2026-04-20T12:54:14Z</time></trkpt><trkpt lat="38.17816866280451" lon="-2.258372266047909"><ele>970.0000000000001</ele><time>2026-04-20T12:54:15Z</time></trkpt><trkpt lat="38.178087649284684" lon="-2.2584173598161197"><ele>969.3333333333333</ele><time>2026-04-20T12:54:16Z</time></trkpt><trkpt lat="38.178006165980364" lon="-2.2584392710384957"><ele>968.6666666666666</ele><time>2026-04-20T12:54:17Z</time></trkpt><trkpt lat="38.177923994505235" lon="-2.2584433609925885"><ele>968.0</ele><time>2026-04-20T12:54:18Z</time></trkpt><trkpt lat="38.17783925522518" lon="-2.2584755667817253"><ele>967.3333333333333</ele><time>2026-04-20T12:54:19Z</time></trkpt><trkpt lat="38.17774762249915" lon="-2.2584651782078735"><ele>966.6666666666666</ele><time>2026-04-20T12:54:20Z</time></trkpt><trkpt lat="38.1776583911872" lon="-2.2584770211231846"><ele>966.0</ele><time>2026-04-20T12:54:21Z</time></trkpt><trkpt lat="38.17756485021202" lon="-2.2585154266627714"><ele>966.0</ele><time>2026-04-20T12:54:22Z</time></trkpt><trkpt lat="38.17747615056269" lon="-2.258514107031701"><ele>966.0</ele><time>2026-04-20T12:54:23Z</time></trkpt><trkpt lat="38.17741605080503" lon="-2.258571689804167"><ele>966.0</ele><time>2026-04-20T12:54:24Z</time></trkpt><trkpt lat="38.1773281145039" lon="-2.258674976408294"><ele>966.0</ele><time>2026-04-20T12:54:25Z</time></trkpt><trkpt lat="38.17725295412882" lon="-2.2586964786559407"><ele>966.0</ele><time>2026-04-20T12:54:26Z</time></trkpt><trkpt lat="38.17717892725725" lon="-2.2587176229360835"><ele>966.0</ele><time>2026-04-20T12:54:27Z</time></trkpt><trkpt lat="38.17710220716171" lon="-2.2587628859628825"><ele>967.25</ele><time>2026-04-20T12:54:28Z</time></trkpt><trkpt lat="38.17701368150732" lon="-2.258786600551478"><ele>968.5</ele><time>2026-04-20T12:54:29Z</time></trkpt><trkpt lat="38.17686766608003" lon="-2.2588079405148416"><ele>969.75</ele><time>2026-04-20T12:54:30Z</time></trkpt><trkpt lat="38.17673412160658" lon="-2.2587992693025822"><ele>971.0</ele><time>2026-04-20T12:54:31Z</time></trkpt><trkpt lat="38.176611038542525" lon="-2.2588119102107127"><ele>971.5999999999999</ele><time>2026-04-20T12:54:31.999Z</time></trkpt><trkpt lat="38.17650150796988" lon="-2.258801870976052"><ele>972.1999999999999</ele><time>2026-04-20T12:54:32.999Z</time></trkpt><trkpt lat="38.17640468709882" lon="-2.258797202823063"><ele>972.8000000000001</ele><time>2026-04-20T12:54:33.999Z</time></trkpt><trkpt lat="38.176316478127404" lon="-2.2587977380800104"><ele>973.4000000000001</ele><time>2026-04-20T12:54:34.999Z</time></trkpt><trkpt lat="38.17623105232743" lon="-2.2587981118989577"><ele>974.0</ele><time>2026-04-20T12:54:35.999Z</time></trkpt><trkpt lat="38.17613834781324" lon="-2.258801669924085"><ele>974.0</ele><time>2026-04-20T12:54:36.999Z</time></trkpt><trkpt lat="38.17604053014174" lon="-2.2588082984422715"><ele>974.0000000000001</ele><time>2026-04-20T12:54:37.999Z</time></trkpt><trkpt lat="38.17594611283076" lon="-2.2588212256877163"><ele>974.0000000000001</ele><time>2026-04-20T12:54:38.999Z</time></trkpt><trkpt lat="38.17585594848188" lon="-2.258830375754505"><ele>974.0</ele><time>2026-04-20T12:54:39.999Z</time></trkpt><trkpt lat="38.17577366121348" lon="-2.2588765020023334"><ele>974.0</ele><time>2026-04-20T12:54:40.999Z</time></trkpt><trkpt lat="38.17568310996072" lon="-2.258915294646569"><ele>974.5000000000001</ele><time>2026-04-20T12:54:41.999Z</time></trkpt><trkpt lat="38.17559532283422" lon="-2.2589478597460064"><ele>975.0</ele><time>2026-04-20T12:54:42.999Z</time></trkpt><trkpt lat="38.1755080314994" lon="-2.258964620816494"><ele>975.5</ele><time>2026-04-20T12:54:43.999Z</time></trkpt><trkpt lat="38.17542757537407" lon="-2.258972770505362"><ele>976.0</ele><time>2026-04-20T12:54:44.999Z</time></trkpt><trkpt lat="38.1753525103839" lon="-2.2590025073954716"><ele>976.5000000000001</ele><time>2026-04-20T12:54:45.999Z</time></trkpt><trkpt lat="38.17527829753617" lon="-2.259031535975307"><ele>977.0</ele><time>2026-04-20T12:54:46.999Z</time></trkpt><trkpt lat="38.17520239268931" lon="-2.2590563313486083"><ele>977.0000000000001</ele><time>2026-04-20T12:54:47.999Z</time></trkpt><trkpt lat="38.17512914249201" lon="-2.2590960771600614"><ele>977.0</ele><time>2026-04-20T12:54:48.999Z</time></trkpt><trkpt lat="38.17505468499475" lon="-2.259131956469367"><ele>977.0000000000001</ele><time>2026-04-20T12:54:49.999Z</time></trkpt><trkpt lat="38.174984987477444" lon="-2.2591608929517633"><ele>977.0000000000001</ele><time>2026-04-20T12:54:50.999Z</time></trkpt><trkpt lat="38.17491778180447" lon="-2.2591902866620326"><ele>977.0</ele><time>2026-04-20T12:54:51.999Z</time></trkpt><trkpt lat="38.17485258894646" lon="-2.259227064186312"><ele>977.0000000000001</ele><time>2026-04-20T12:54:52.999Z</time></trkpt><trkpt lat="38.17479206550139" lon="-2.259262777018599"><ele>977.0000000000001</ele><time>2026-04-20T12:54:53.999Z</time></trkpt><trkpt lat="38.17468368363143" lon="-2.25933395067068"><ele>977.0000000000001</ele><time>2026-04-20T12:54:55.999Z</time></trkpt><trkpt lat="38.17462400339414" lon="-2.2593737294788316"><ele>977.0</ele><time>2026-04-20T12:54:56.999Z</time></trkpt><trkpt lat="38.17456429116723" lon="-2.259414242326562"><ele>977.0000000000001</ele><time>2026-04-20T12:54:57.999Z</time></trkpt><trkpt lat="38.17450229748392" lon="-2.25946074333486"><ele>977.0000000000001</ele><time>2026-04-20T12:54:58.999Z</time></trkpt><trkpt lat="38.17443972394415" lon="-2.2595089169946574"><ele>977.0</ele><time>2026-04-20T12:54:59.999Z</time></trkpt><trkpt lat="38.17437465598922" lon="-2.2595573506848976"><ele>977.0000000000001</ele><time>2026-04-20T12:55:00.999Z</time></trkpt><trkpt lat="38.174308471508795" lon="-2.2596145326317627"><ele>977.0000000000001</ele><time>2026-04-20T12:55:01.999Z</time></trkpt><trkpt lat="38.174240180364826" lon="-2.259673436127283"><ele>977.0</ele><time>2026-04-20T12:55:02.999Z</time></trkpt><trkpt lat="38.174171414719964" lon="-2.2597322858329925"><ele>977.0</ele><time>2026-04-20T12:55:03.999Z</time></trkpt><trkpt lat="38.17410336804461" lon="-2.259797372932165"><ele>977.0</ele><time>2026-04-20T12:55:05Z</time></trkpt><trkpt lat="38.17402140321168" lon="-2.2598480865920063"><ele>977.0</ele><time>2026-04-20T12:55:06Z</time></trkpt><trkpt lat="38.173933132072584" lon="-2.259909556508464"><ele>977.0</ele><time>2026-04-20T12:55:07Z</time></trkpt><trkpt lat="38.173837139609034" lon="-2.260002516739557"><ele>979.3333333333334</ele><time>2026-04-20T12:55:08Z</time></trkpt><trkpt lat="38.173745093432714" lon="-2.2601757182359727"><ele>981.6666666666667</ele><time>2026-04-20T12:55:09Z</time></trkpt><trkpt lat="38.17366882268883" lon="-2.2603953419001632"><ele>984.0</ele><time>2026-04-20T12:55:10Z</time></trkpt><trkpt lat="38.173555170492016" lon="-2.2607036125486877"><ele>986.0</ele><time>2026-04-20T12:55:11Z</time></trkpt><trkpt lat="38.17336087665266" lon="-2.260976258843734"><ele>988.0</ele><time>2026-04-20T12:55:12Z</time></trkpt><trkpt lat="38.17313746829713" lon="-2.2612420239830673"><ele>987.0</ele><time>2026-04-20T12:55:13Z</time></trkpt><trkpt lat="38.1729844356784" lon="-2.261600759780789"><ele>986.0</ele><time>2026-04-20T12:55:14Z</time></trkpt><trkpt lat="38.172901320869336" lon="-2.261942678903461"><ele>986.0</ele><time>2026-04-20T12:55:15Z</time></trkpt><trkpt lat="38.17280159307191" lon="-2.262245834391163"><ele>986.0</ele><time>2026-04-20T12:55:16Z</time></trkpt><trkpt lat="38.17269458636429" lon="-2.2625131552080537"><ele>982.3333333333334</ele><time>2026-04-20T12:55:17Z</time></trkpt><trkpt lat="38.17259519027856" lon="-2.262753027009461"><ele>978.6666666666667</ele><time>2026-04-20T12:55:18Z</time></trkpt><trkpt lat="38.17249272788337" lon="-2.2629700315920553"><ele>975.0</ele><time>2026-04-20T12:55:19Z</time></trkpt><trkpt lat="38.17242812832419" lon="-2.2631824491828225"><ele>976.0</ele><time>2026-04-20T12:55:20Z</time></trkpt><trkpt lat="38.1723543976241" lon="-2.263359377229774"><ele>977.0</ele><time>2026-04-20T12:55:21Z</time></trkpt><trkpt lat="38.172268696429185" lon="-2.263530034474301"><ele>978.0</ele><time>2026-04-20T12:55:22Z</time></trkpt><trkpt lat="38.17211221672581" lon="-2.2636894770709914"><ele>978.0</ele><time>2026-04-20T12:55:23Z</time></trkpt><trkpt lat="38.171894409542645" lon="-2.2638174456079683"><ele>978.0</ele><time>2026-04-20T12:55:24Z</time></trkpt><trkpt lat="38.17164764302097" lon="-2.263958997401431"><ele>976.0</ele><time>2026-04-20T12:55:25Z</time></trkpt><trkpt lat="38.17138494258294" lon="-2.264109689265478"><ele>974.0</ele><time>2026-04-20T12:55:26Z</time></trkpt><trkpt lat="38.171119329571894" lon="-2.264264152938622"><ele>974.0</ele><time>2026-04-20T12:55:27Z</time></trkpt><trkpt lat="38.17085178648161" lon="-2.2644273722874613"><ele>974.0</ele><time>2026-04-20T12:55:28Z</time></trkpt><trkpt lat="38.170633501543" lon="-2.264712395898798"><ele>974.0</ele><time>2026-04-20T12:55:29Z</time></trkpt><trkpt lat="38.17043311267818" lon="-2.2650707274555364"><ele>974.0</ele><time>2026-04-20T12:55:30Z</time></trkpt><trkpt lat="38.170211156138755" lon="-2.265416535049572"><ele>972.5</ele><time>2026-04-20T12:55:31Z</time></trkpt><trkpt lat="38.17001107842949" lon="-2.265734720809561"><ele>971.0</ele><time>2026-04-20T12:55:32Z</time></trkpt><trkpt lat="38.16983169085362" lon="-2.2660300486128198"><ele>975.0</ele><time>2026-04-20T12:55:33Z</time></trkpt><trkpt lat="38.16966527021711" lon="-2.2663093701909887"><ele>979.0</ele><time>2026-04-20T12:55:34Z</time></trkpt><trkpt lat="38.16951240915923" lon="-2.266570683356548"><ele>979.0</ele><time>2026-04-20T12:55:35Z</time></trkpt><trkpt lat="38.16933953611748" lon="-2.26679411633548"><ele>979.0</ele><time>2026-04-20T12:55:36Z</time></trkpt><trkpt lat="38.16921344093844" lon="-2.267041322295137"><ele>979.0</ele><time>2026-04-20T12:55:37Z</time></trkpt><trkpt lat="38.16909604943112" lon="-2.2672716868833263"><ele>979.0</ele><time>2026-04-20T12:55:38Z</time></trkpt><trkpt lat="38.16898196025151" lon="-2.2674658834902393"><ele>979.0</ele><time>2026-04-20T12:55:39Z</time></trkpt><trkpt lat="38.16889513424252" lon="-2.2676661855846936"><ele>982.6666666666666</ele><time>2026-04-20T12:55:40Z</time></trkpt><trkpt lat="38.16877649063081" lon="-2.2678274891175523"><ele>986.3333333333333</ele><time>2026-04-20T12:55:41Z</time></trkpt><trkpt lat="38.16867203035535" lon="-2.26797245724679"><ele>990.0</ele><time>2026-04-20T12:55:42Z</time></trkpt><trkpt lat="38.16858163590435" lon="-2.2681060764620042"><ele>987.8</ele><time>2026-04-20T12:55:43Z</time></trkpt><trkpt lat="38.16850565125476" lon="-2.268232079121694"><ele>985.6</ele><time>2026-04-20T12:55:44Z</time></trkpt><trkpt lat="38.1684386192229" lon="-2.268347816783625"><ele>983.4000000000001</ele><time>2026-04-20T12:55:45Z</time></trkpt><trkpt lat="38.1683765662617" lon="-2.2684575438621346"><ele>981.2</ele><time>2026-04-20T12:55:46Z</time></trkpt><trkpt lat="38.16831782987608" lon="-2.268559610592128"><ele>979.0</ele><time>2026-04-20T12:55:47Z</time></trkpt><trkpt lat="38.168261863807125" lon="-2.2686496786722494"><ele>978.9999999999999</ele><time>2026-04-20T12:55:48Z</time></trkpt><trkpt lat="38.168205381912195" lon="-2.2687340977152273"><ele>979.0</ele><time>2026-04-20T12:55:49Z</time></trkpt><trkpt lat="38.16814397251335" lon="-2.268825881645978"><ele>979.0</ele><time>2026-04-20T12:55:50Z</time></trkpt><trkpt lat="38.16808855948556" lon="-2.2689087033489708"><ele>979.0</ele><time>2026-04-20T12:55:51Z</time></trkpt><trkpt lat="38.16804085517291" lon="-2.2689774281823816"><ele>978.9999999999999</ele><time>2026-04-20T12:55:52Z</time></trkpt><trkpt lat="38.16799486762501" lon="-2.269041443712488"><ele>979.0</ele><time>2026-04-20T12:55:53Z</time></trkpt><trkpt lat="38.16793940649167" lon="-2.269110029264987"><ele>979.1428571428571</ele><time>2026-04-20T12:55:54Z</time></trkpt><trkpt lat="38.16788508227306" lon="-2.2691738352063027"><ele>979.2857142857143</ele><time>2026-04-20T12:55:55Z</time></trkpt><trkpt lat="38.16783079868058" lon="-2.269237223680436"><ele>979.4285714285714</ele><time>2026-04-20T12:55:56Z</time></trkpt><trkpt lat="38.1677756899034" lon="-2.2693000544369264"><ele>979.5714285714286</ele><time>2026-04-20T12:55:57Z</time></trkpt><trkpt lat="38.167720475666414" lon="-2.2693591232813537"><ele>979.7142857142858</ele><time>2026-04-20T12:55:58Z</time></trkpt><trkpt lat="38.1676612341209" lon="-2.2694004774918057"><ele>979.8571428571429</ele><time>2026-04-20T12:55:59Z</time></trkpt><trkpt lat="38.16761494021239" lon="-2.26945486573223"><ele>980.0</ele><time>2026-04-20T12:56:00Z</time></trkpt><trkpt lat="38.16756913295721" lon="-2.269516763868305"><ele>980.0000000000001</ele><time>2026-04-20T12:56:01Z</time></trkpt><trkpt lat="38.167547647194354" lon="-2.26959939008051"><ele>980.0</ele><time>2026-04-20T12:56:02Z</time></trkpt><trkpt lat="38.16750997113554" lon="-2.2696785661838987"><ele>980.0</ele><time>2026-04-20T12:56:03Z</time></trkpt><trkpt lat="38.16744816825905" lon="-2.2697441520057455"><ele>980.0</ele><time>2026-04-20T12:56:04Z</time></trkpt><trkpt lat="38.16739370438238" lon="-2.2698269437470198"><ele>980.0000000000001</ele><time>2026-04-20T12:56:05Z</time></trkpt><trkpt lat="38.167328384445426" lon="-2.269898037298884"><ele>980.0</ele><time>2026-04-20T12:56:06Z</time></trkpt><trkpt lat="38.16726142042228" lon="-2.2699582220393584"><ele>982.0</ele><time>2026-04-20T12:56:07Z</time></trkpt><trkpt lat="38.16718527291432" lon="-2.2700014204034105"><ele>984.0</ele><time>2026-04-20T12:56:08Z</time></trkpt><trkpt lat="38.16710507474224" lon="-2.2700614132400427"><ele>986.0</ele><time>2026-04-20T12:56:09Z</time></trkpt><trkpt lat="38.16703679824886" lon="-2.2701590078184934"><ele>988.0</ele><time>2026-04-20T12:56:10Z</time></trkpt><trkpt lat="38.1669603891113" lon="-2.2702491898851624"><ele>990.0</ele><time>2026-04-20T12:56:11Z</time></trkpt><trkpt lat="38.166898903773756" lon="-2.270354287996839"><ele>990.0</ele><time>2026-04-20T12:56:12Z</time></trkpt><trkpt lat="38.16685067302916" lon="-2.270475837684175"><ele>990.0</ele><time>2026-04-20T12:56:13Z</time></trkpt><trkpt lat="38.166805662866686" lon="-2.2706160421206465"><ele>990.0</ele><time>2026-04-20T12:56:14Z</time></trkpt><trkpt lat="38.16675896396207" lon="-2.2707654471797323"><ele>990.0</ele><time>2026-04-20T12:56:15Z</time></trkpt><trkpt lat="38.166711543453324" lon="-2.270910097353399"><ele>988.75</ele><time>2026-04-20T12:56:16Z</time></trkpt><trkpt lat="38.16665451844354" lon="-2.271058546464114"><ele>987.5</ele><time>2026-04-20T12:56:17Z</time></trkpt><trkpt lat="38.16659712969214" lon="-2.2712088150024337"><ele>986.25</ele><time>2026-04-20T12:56:18Z</time></trkpt><trkpt lat="38.16653754326193" lon="-2.271365380944838"><ele>985.0</ele><time>2026-04-20T12:56:19Z</time></trkpt><trkpt lat="38.16647634871702" lon="-2.271530129740649"><ele>990.3333333333333</ele><time>2026-04-20T12:56:20Z</time></trkpt><trkpt lat="38.16642763169255" lon="-2.271711260253782"><ele>995.6666666666667</ele><time>2026-04-20T12:56:21Z</time></trkpt><trkpt lat="38.166346420780094" lon="-2.271916927517384"><ele>1001.0</ele><time>2026-04-20T12:56:22Z</time></trkpt><trkpt lat="38.16630070125173" lon="-2.2721391132855495"><ele>999.3333333333334</ele><time>2026-04-20T12:56:23Z</time></trkpt><trkpt lat="38.16623081169765" lon="-2.272340275938309"><ele>997.6666666666667</ele><time>2026-04-20T12:56:24Z</time></trkpt><trkpt lat="38.166191250548096" lon="-2.272560847740194"><ele>996.0</ele><time>2026-04-20T12:56:25Z</time></trkpt><trkpt lat="38.166163280712055" lon="-2.272788545745648"><ele>996.0</ele><time>2026-04-20T12:56:26Z</time></trkpt><trkpt lat="38.166147670695324" lon="-2.2730180975662906"><ele>996.0</ele><time>2026-04-20T12:56:27Z</time></trkpt><trkpt lat="38.166146867997675" lon="-2.2732568712625025"><ele>996.0</ele><time>2026-04-20T12:56:28Z</time></trkpt><trkpt lat="38.16616782794258" lon="-2.2735086682690544"><ele>1000.3333333333333</ele><time>2026-04-20T12:56:29Z</time></trkpt><trkpt lat="38.1662082053905" lon="-2.2737645952491072"><ele>1004.6666666666666</ele><time>2026-04-20T12:56:30Z</time></trkpt><trkpt lat="38.16625253643851" lon="-2.2740236013193074"><ele>1009.0</ele><time>2026-04-20T12:56:31Z</time></trkpt><trkpt lat="38.16629592006843" lon="-2.2742800670250514"><ele>1011.6666666666666</ele><time>2026-04-20T12:56:32Z</time></trkpt><trkpt lat="38.16632460688957" lon="-2.2745423724065126"><ele>1014.3333333333333</ele><time>2026-04-20T12:56:33Z</time></trkpt><trkpt lat="38.16632700913883" lon="-2.274813023143594"><ele>1017.0</ele><time>2026-04-20T12:56:34Z</time></trkpt><trkpt lat="38.166314262589815" lon="-2.275089868385788"><ele>1017.0</ele><time>2026-04-20T12:56:35Z</time></trkpt><trkpt lat="38.166301504241666" lon="-2.2753660584662483"><ele>1017.0</ele><time>2026-04-20T12:56:36Z</time></trkpt><trkpt lat="38.16631347358101" lon="-2.2756482864285905"><ele>1017.0</ele><time>2026-04-20T12:56:37Z</time></trkpt><trkpt lat="38.16629638149094" lon="-2.2759302560317223"><ele>1015.6666666666667</ele><time>2026-04-20T12:56:37.998Z</time></trkpt><trkpt lat="38.16626635260417" lon="-2.276204179991986"><ele>1014.3333333333334</ele><time>2026-04-20T12:56:38.998Z</time></trkpt><trkpt lat="38.166265809067355" lon="-2.2764771702524023"><ele>1013.0</ele><time>2026-04-20T12:56:39.998Z</time></trkpt><trkpt lat="38.166278841654645" lon="-2.276733613821127"><ele>1013.0</ele><time>2026-04-20T12:56:40.998Z</time></trkpt><trkpt lat="38.16632739360968" lon="-2.2769590444776773"><ele>1013.0</ele><time>2026-04-20T12:56:41.998Z</time></trkpt><trkpt lat="38.166370545255425" lon="-2.2771735739758383"><ele>1013.0</ele><time>2026-04-20T12:56:42.999Z</time></trkpt><trkpt lat="38.16639473650956" lon="-2.2773644892490705"><ele>1013.25</ele><time>2026-04-20T12:56:43.999Z</time></trkpt><trkpt lat="38.16642719600299" lon="-2.2775166432562663"><ele>1013.5</ele><time>2026-04-20T12:56:44.999Z</time></trkpt><trkpt lat="38.16646003546075" lon="-2.277644282371761"><ele>1013.75</ele><time>2026-04-20T12:56:45.999Z</time></trkpt><trkpt lat="38.16646611309449" lon="-2.277786392201226"><ele>1014.0</ele><time>2026-04-20T12:56:46.999Z</time></trkpt><trkpt lat="38.166415347443454" lon="-2.277977770393718"><ele>1014.0</ele><time>2026-04-20T12:56:47.999Z</time></trkpt><trkpt lat="38.16622062339535" lon="-2.2780935512981406"><ele>1014.0</ele><time>2026-04-20T12:56:48.999Z</time></trkpt><trkpt lat="38.166044224469424" lon="-2.278009263001425"><ele>1014.0</ele><time>2026-04-20T12:56:49.999Z</time></trkpt><trkpt lat="38.16593149604575" lon="-2.2779039816842714"><ele>1014.0</ele><time>2026-04-20T12:56:50.999Z</time></trkpt><trkpt lat="38.165842198620986" lon="-2.27777500546971"><ele>1014.0</ele><time>2026-04-20T12:56:51.999Z</time></trkpt><trkpt lat="38.16578913987093" lon="-2.2775888113235014"><ele>1014.0</ele><time>2026-04-20T12:56:52.999Z</time></trkpt><trkpt lat="38.165755804101" lon="-2.2773547870494975"><ele>1013.6666666666667</ele><time>2026-04-20T12:56:53.999Z</time></trkpt><trkpt lat="38.16572822353323" lon="-2.2770800463566037"><ele>1013.3333333333334</ele><time>2026-04-20T12:56:54.999Z</time></trkpt><trkpt lat="38.165680549068014" lon="-2.2767930426758274"><ele>1013.0</ele><time>2026-04-20T12:56:55.999Z</time></trkpt><trkpt lat="38.16563726269949" lon="-2.2764907362044084"><ele>1026.0</ele><time>2026-04-20T12:56:56.999Z</time></trkpt><trkpt lat="38.165641661293854" lon="-2.2762025856945414"><ele>1039.0</ele><time>2026-04-20T12:56:57.999Z</time></trkpt><trkpt lat="38.16565689226607" lon="-2.2759143712187617"><ele>1039.0</ele><time>2026-04-20T12:56:58.999Z</time></trkpt><trkpt lat="38.16566843968807" lon="-2.2756274994789982"><ele>1039.0</ele><time>2026-04-20T12:56:59.999Z</time></trkpt><trkpt lat="38.16567239760944" lon="-2.2753294238763115"><ele>1040.5</ele><time>2026-04-20T12:57:00.999Z</time></trkpt><trkpt lat="38.165678097935405" lon="-2.2750348030076126"><ele>1042.0</ele><time>2026-04-20T12:57:01.999Z</time></trkpt><trkpt lat="38.165671756074765" lon="-2.2747443776986316"><ele>1044.0</ele><time>2026-04-20T12:57:02.999Z</time></trkpt><trkpt lat="38.165641266893935" lon="-2.2744531815126696"><ele>1046.0</ele><time>2026-04-20T12:57:03.999Z</time></trkpt><trkpt lat="38.16558026048516" lon="-2.2741569851936725"><ele>1047.0</ele><time>2026-04-20T12:57:04.999Z</time></trkpt><trkpt lat="38.165497354038564" lon="-2.2738676881149926"><ele>1048.0</ele><time>2026-04-20T12:57:05.999Z</time></trkpt><trkpt lat="38.16539474960843" lon="-2.273581351132528"><ele>1048.0</ele><time>2026-04-20T12:57:06.999Z</time></trkpt><trkpt lat="38.16528956135153" lon="-2.2732994269862377"><ele>1048.0</ele><time>2026-04-20T12:57:07.999Z</time></trkpt><trkpt lat="38.16517889623808" lon="-2.2730294602864247"><ele>1044.6666666666665</ele><time>2026-04-20T12:57:08.999Z</time></trkpt><trkpt lat="38.165071360447826" lon="-2.2727888498842606"><ele>1041.3333333333333</ele><time>2026-04-20T12:57:09.999Z</time></trkpt><trkpt lat="38.1649796372549" lon="-2.2725674879990723"><ele>1038.0</ele><time>2026-04-20T12:57:10.999Z</time></trkpt><trkpt lat="38.16488876397669" lon="-2.272370585474846"><ele>1040.3333333333333</ele><time>2026-04-20T12:57:11.999Z</time></trkpt><trkpt lat="38.16477718695156" lon="-2.2722235438038987"><ele>1042.6666666666665</ele><time>2026-04-20T12:57:12.999Z</time></trkpt><trkpt lat="38.16463791842736" lon="-2.272134981280804"><ele>1045.0</ele><time>2026-04-20T12:57:13.999Z</time></trkpt><trkpt lat="38.16447286686361" lon="-2.2721137182162345"><ele>1045.0</ele><time>2026-04-20T12:57:14.999Z</time></trkpt><trkpt lat="38.164301416597546" lon="-2.2721181397978167"><ele>1045.0</ele><time>2026-04-20T12:57:15.999Z</time></trkpt><trkpt lat="38.16415358723357" lon="-2.272075264417736"><ele>1045.0</ele><time>2026-04-20T12:57:16.999Z</time></trkpt><trkpt lat="38.16401936996794" lon="-2.2719505622024054"><ele>1051.6666666666665</ele><time>2026-04-20T12:57:17.999Z</time></trkpt><trkpt lat="38.16390192128205" lon="-2.2717859097580786"><ele>1058.3333333333333</ele><time>2026-04-20T12:57:18.999Z</time></trkpt><trkpt lat="38.16380535691693" lon="-2.2715962440174184"><ele>1065.0</ele><time>2026-04-20T12:57:19.999Z</time></trkpt><trkpt lat="38.16372462320999" lon="-2.2713833071176937"><ele>1065.0</ele><time>2026-04-20T12:57:21Z</time></trkpt><trkpt lat="38.16365712358761" lon="-2.2711486462653663"><ele>1065.0</ele><time>2026-04-20T12:57:22Z</time></trkpt><trkpt lat="38.1636180225219" lon="-2.2708918413388988"><ele>1065.0</ele><time>2026-04-20T12:57:23Z</time></trkpt><trkpt lat="38.16359096501174" lon="-2.270629137722186"><ele>1067.3333333333333</ele><time>2026-04-20T12:57:24Z</time></trkpt><trkpt lat="38.16356083861257" lon="-2.270356645801456"><ele>1069.6666666666665</ele><time>2026-04-20T12:57:25Z</time></trkpt><trkpt lat="38.16353147818317" lon="-2.2700911161829"><ele>1072.0</ele><time>2026-04-20T12:57:26Z</time></trkpt><trkpt lat="38.16351421709116" lon="-2.2698494791802437"><ele>1072.3333333333333</ele><time>2026-04-20T12:57:27Z</time></trkpt><trkpt lat="38.1635126899592" lon="-2.2696263089700834"><ele>1072.6666666666667</ele><time>2026-04-20T12:57:28Z</time></trkpt><trkpt lat="38.16353971197015" lon="-2.269432834976462"><ele>1073.0</ele><time>2026-04-20T12:57:29Z</time></trkpt><trkpt lat="38.16359121387375" lon="-2.26926460205798"><ele>1073.0</ele><time>2026-04-20T12:57:30Z</time></trkpt><trkpt lat="38.16362376747924" lon="-2.2691247260483434"><ele>1073.0</ele><time>2026-04-20T12:57:31Z</time></trkpt><trkpt lat="38.16360742630033" lon="-2.269009495950224"><ele>1073.0</ele><time>2026-04-20T12:57:32Z</time></trkpt><trkpt lat="38.16354695521862" lon="-2.2689278416563217"><ele>1073.0</ele><time>2026-04-20T12:57:33Z</time></trkpt><trkpt lat="38.16343808940226" lon="-2.268958696687723"><ele>1073.0</ele><time>2026-04-20T12:57:34Z</time></trkpt><trkpt lat="38.163375337729335" lon="-2.26905397379153"><ele>1073.0</ele><time>2026-04-20T12:57:35Z</time></trkpt><trkpt lat="38.163348974295225" lon="-2.2691996680998674"><ele>1073.0</ele><time>2026-04-20T12:57:36Z</time></trkpt><trkpt lat="38.16330807993478" lon="-2.2693708104254404"><ele>1073.0</ele><time>2026-04-20T12:57:37Z</time></trkpt><trkpt lat="38.163244025084055" lon="-2.2695529774810876"><ele>1073.0</ele><time>2026-04-20T12:57:38Z</time></trkpt><trkpt lat="38.16321333560917" lon="-2.269760699570101"><ele>1082.6666666666667</ele><time>2026-04-20T12:57:39Z</time></trkpt><trkpt lat="38.16316325779496" lon="-2.2699824034588176"><ele>1092.3333333333333</ele><time>2026-04-20T12:57:40Z</time></trkpt><trkpt lat="38.16310985606803" lon="-2.2702109856422847"><ele>1102.0</ele><time>2026-04-20T12:57:41Z</time></trkpt><trkpt lat="38.16305361191469" lon="-2.2704463277654767"><ele>1100.3333333333333</ele><time>2026-04-20T12:57:42Z</time></trkpt><trkpt lat="38.162997730184635" lon="-2.270691913164189"><ele>1098.6666666666667</ele><time>2026-04-20T12:57:43Z</time></trkpt><trkpt lat="38.162940577484626" lon="-2.270929778914629"><ele>1097.0</ele><time>2026-04-20T12:57:44Z</time></trkpt><trkpt lat="38.16288880166214" lon="-2.271159144079456"><ele>1097.0</ele><time>2026-04-20T12:57:45Z</time></trkpt><trkpt lat="38.16284570666891" lon="-2.271398214155204"><ele>1097.0</ele><time>2026-04-20T12:57:46Z</time></trkpt><trkpt lat="38.16283600663844" lon="-2.2716371209167496"><ele>1097.0</ele><time>2026-04-20T12:57:47Z</time></trkpt><trkpt lat="38.16286511686298" lon="-2.2718835726188926"><ele>1097.6666666666667</ele><time>2026-04-20T12:57:48Z</time></trkpt><trkpt lat="38.16290273063305" lon="-2.2721343658499724"><ele>1098.3333333333333</ele><time>2026-04-20T12:57:49Z</time></trkpt><trkpt lat="38.16294825060893" lon="-2.2723885686816994"><ele>1099.0</ele><time>2026-04-20T12:57:50Z</time></trkpt><trkpt lat="38.163015408309164" lon="-2.2726351339689623"><ele>1095.6666666666665</ele><time>2026-04-20T12:57:51Z</time></trkpt><trkpt lat="38.16306957528048" lon="-2.272893515401099"><ele>1092.3333333333333</ele><time>2026-04-20T12:57:52Z</time></trkpt><trkpt lat="38.16313386311398" lon="-2.2731211288741804"><ele>1089.0</ele><time>2026-04-20T12:57:53Z</time></trkpt><trkpt lat="38.1631987506705" lon="-2.2733166929630375"><ele>1089.0</ele><time>2026-04-20T12:57:54Z</time></trkpt><trkpt lat="38.163222448168774" lon="-2.2734981610682774"><ele>1089.0</ele><time>2026-04-20T12:57:55Z</time></trkpt><trkpt lat="38.163211439269304" lon="-2.2736728015521317"><ele>1089.0</ele><time>2026-04-20T12:57:56Z</time></trkpt><trkpt lat="38.16317067562281" lon="-2.2738180534988692"><ele>1089.0</ele><time>2026-04-20T12:57:57Z</time></trkpt><trkpt lat="38.16312547198443" lon="-2.2739648401769745"><ele>1100.0</ele><time>2026-04-20T12:57:58Z</time></trkpt><trkpt lat="38.16298341058281" lon="-2.2740889792287104"><ele>1111.0</ele><time>2026-04-20T12:57:59Z</time></trkpt><trkpt lat="38.16279037829439" lon="-2.2739983699712494"><ele>1122.0</ele><time>2026-04-20T12:58:00Z</time></trkpt><trkpt lat="38.162815277541306" lon="-2.2736788530131418"><ele>1122.0</ele><time>2026-04-20T12:58:02Z</time></trkpt><trkpt lat="38.16282480486073" lon="-2.273486486833113"><ele>1122.0</ele><time>2026-04-20T12:58:03Z</time></trkpt><trkpt lat="38.16282778150766" lon="-2.2732552368560777"><ele>1122.0</ele><time>2026-04-20T12:58:04Z</time></trkpt><trkpt lat="38.16276173441157" lon="-2.2730153894854985"><ele>1118.3333333333333</ele><time>2026-04-20T12:58:05Z</time></trkpt><trkpt lat="38.16264477236924" lon="-2.2727833340777273"><ele>1114.6666666666665</ele><time>2026-04-20T12:58:06Z</time></trkpt><trkpt lat="38.16252080915465" lon="-2.2725544637984623"><ele>1111.0</ele><time>2026-04-20T12:58:07Z</time></trkpt><trkpt lat="38.16239283986789" lon="-2.272321025940195"><ele>1117.6666666666665</ele><time>2026-04-20T12:58:08Z</time></trkpt><trkpt lat="38.16226855776705" lon="-2.2720903578405"><ele>1124.3333333333333</ele><time>2026-04-20T12:58:09Z</time></trkpt><trkpt lat="38.162150832293754" lon="-2.2718520744935033"><ele>1131.0</ele><time>2026-04-20T12:58:10Z</time></trkpt><trkpt lat="38.16204712647452" lon="-2.2716236704304222"><ele>1126.6666666666667</ele><time>2026-04-20T12:58:11Z</time></trkpt><trkpt lat="38.16195946903247" lon="-2.271419943158395"><ele>1122.3333333333335</ele><time>2026-04-20T12:58:12Z</time></trkpt><trkpt lat="38.161866694607646" lon="-2.2712507480954773"><ele>1118.0</ele><time>2026-04-20T12:58:13Z</time></trkpt><trkpt lat="38.16175410118017" lon="-2.271139443634613"><ele>1118.0</ele><time>2026-04-20T12:58:14Z</time></trkpt><trkpt lat="38.161655587892476" lon="-2.270978753241778"><ele>1118.0</ele><time>2026-04-20T12:58:15Z</time></trkpt><trkpt lat="38.16143863655049" lon="-2.2709056377017145"><ele>1118.0</ele><time>2026-04-20T12:58:16Z</time></trkpt><trkpt lat="38.16126829948031" lon="-2.271061497445386"><ele>1115.0</ele><time>2026-04-20T12:58:17Z</time></trkpt><trkpt lat="38.16114344544616" lon="-2.271196348971167"><ele>1112.0</ele><time>2026-04-20T12:58:18Z</time></trkpt><trkpt lat="38.16099883612002" lon="-2.2713479980498876"><ele>1109.0</ele><time>2026-04-20T12:58:19Z</time></trkpt><trkpt lat="38.16085972501086" lon="-2.271522918693598"><ele>1106.6666666666667</ele><time>2026-04-20T12:58:20Z</time></trkpt><trkpt lat="38.16073386159701" lon="-2.2717144381736603"><ele>1104.3333333333333</ele><time>2026-04-20T12:58:21Z</time></trkpt><trkpt lat="38.160606461466564" lon="-2.271915649621898"><ele>1102.0</ele><time>2026-04-20T12:58:22Z</time></trkpt><trkpt lat="38.16047498609798" lon="-2.2721113939189364"><ele>1107.6666666666665</ele><time>2026-04-20T12:58:23Z</time></trkpt><trkpt lat="38.16032362415964" lon="-2.2722998550614015"><ele>1113.3333333333333</ele><time>2026-04-20T12:58:24Z</time></trkpt><trkpt lat="38.16018016662537" lon="-2.272492276126338"><ele>1119.0</ele><time>2026-04-20T12:58:25Z</time></trkpt><trkpt lat="38.160015610128625" lon="-2.272651826512326"><ele>1114.0</ele><time>2026-04-20T12:58:26Z</time></trkpt><trkpt lat="38.15985771690087" lon="-2.2727773750484537"><ele>1109.0</ele><time>2026-04-20T12:58:27Z</time></trkpt><trkpt lat="38.1597095410691" lon="-2.272870819154704"><ele>1104.0</ele><time>2026-04-20T12:58:28Z</time></trkpt><trkpt lat="38.159575298893046" lon="-2.272954786228539"><ele>1104.0</ele><time>2026-04-20T12:58:29Z</time></trkpt><trkpt lat="38.159453663721976" lon="-2.273036985945174"><ele>1104.0</ele><time>2026-04-20T12:58:30Z</time></trkpt><trkpt lat="38.159346710484265" lon="-2.2731201021861476"><ele>1104.0</ele><time>2026-04-20T12:58:31Z</time></trkpt><trkpt lat="38.1592510121752" lon="-2.2732100288142028"><ele>1104.0</ele><time>2026-04-20T12:58:32Z</time></trkpt><trkpt lat="38.15916282474952" lon="-2.2732999152775184"><ele>1103.6000000000001</ele><time>2026-04-20T12:58:33Z</time></trkpt><trkpt lat="38.15908234086865" lon="-2.2733849064491527"><ele>1103.2</ele><time>2026-04-20T12:58:34Z</time></trkpt><trkpt lat="38.159010474440606" lon="-2.2734658890309456"><ele>1102.8000000000002</ele><time>2026-04-20T12:58:35Z</time></trkpt><trkpt lat="38.158941920146454" lon="-2.273539948045622"><ele>1102.4</ele><time>2026-04-20T12:58:36Z</time></trkpt><trkpt lat="38.15887639385739" lon="-2.2736088799278957"><ele>1102.0</ele><time>2026-04-20T12:58:37Z</time></trkpt><trkpt lat="38.158816873326096" lon="-2.2736726508097846"><ele>1102.0</ele><time>2026-04-20T12:58:38Z</time></trkpt><trkpt lat="38.15876329368738" lon="-2.2737311864186833"><ele>1102.0</ele><time>2026-04-20T12:58:39Z</time></trkpt><trkpt lat="38.15871896665464" lon="-2.2737908579822665"><ele>1102.0</ele><time>2026-04-20T12:58:40Z</time></trkpt><trkpt lat="38.15863151342889" lon="-2.273912787968389"><ele>1102.0</ele><time>2026-04-20T12:58:42Z</time></trkpt><trkpt lat="38.15859027504388" lon="-2.273981251409566"><ele>1102.0</ele><time>2026-04-20T12:58:43Z</time></trkpt><trkpt lat="38.15855101363891" lon="-2.274053980370999"><ele>1102.0</ele><time>2026-04-20T12:58:43.999Z</time></trkpt><trkpt lat="38.15850525600582" lon="-2.274127090337253"><ele>1100.3333333333333</ele><time>2026-04-20T12:58:44.999Z</time></trkpt><trkpt lat="38.15845570626287" lon="-2.2742026649890676"><ele>1098.6666666666665</ele><time>2026-04-20T12:58:45.999Z</time></trkpt><trkpt lat="38.15840568445348" lon="-2.2742867076448254"><ele>1097.0</ele><time>2026-04-20T12:58:46.999Z</time></trkpt><trkpt lat="38.15835214881283" lon="-2.274371588195175"><ele>1095.3333333333333</ele><time>2026-04-20T12:58:47.999Z</time></trkpt><trkpt lat="38.158296429554156" lon="-2.2744657865351"><ele>1093.6666666666667</ele><time>2026-04-20T12:58:49Z</time></trkpt><trkpt lat="38.15824139982227" lon="-2.2745586998022866"><ele>1092.0</ele><time>2026-04-20T12:58:50Z</time></trkpt><trkpt lat="38.1581906189362" lon="-2.2746565373631973"><ele>1092.0</ele><time>2026-04-20T12:58:51Z</time></trkpt><trkpt lat="38.15813543668941" lon="-2.2747454186187754"><ele>1092.0</ele><time>2026-04-20T12:58:52Z</time></trkpt><trkpt lat="38.15808674666504" lon="-2.274834487045719"><ele>1092.0</ele><time>2026-04-20T12:58:53Z</time></trkpt><trkpt lat="38.15804329549808" lon="-2.2749293894362137"><ele>1092.0</ele><time>2026-04-20T12:58:54Z</time></trkpt><trkpt lat="38.15799719923908" lon="-2.275020424013181"><ele>1092.0</ele><time>2026-04-20T12:58:55Z</time></trkpt><trkpt lat="38.15795280508129" lon="-2.275113975178067"><ele>1092.0</ele><time>2026-04-20T12:58:56Z</time></trkpt><trkpt lat="38.157911574940314" lon="-2.2752199993747086"><ele>1095.0</ele><time>2026-04-20T12:58:57Z</time></trkpt><trkpt lat="38.15786610272157" lon="-2.2753254649985934"><ele>1098.0</ele><time>2026-04-20T12:58:58Z</time></trkpt><trkpt lat="38.15781461868946" lon="-2.275436490340003"><ele>1101.0</ele><time>2026-04-20T12:58:59Z</time></trkpt><trkpt lat="38.15775676765126" lon="-2.2755464133767123"><ele>1104.0</ele><time>2026-04-20T12:59:00Z</time></trkpt><trkpt lat="38.15770011447972" lon="-2.275670167340096"><ele>1107.0</ele><time>2026-04-20T12:59:01Z</time></trkpt><trkpt lat="38.15764106153559" lon="-2.2758049720641504"><ele>1110.0</ele><time>2026-04-20T12:59:02Z</time></trkpt><trkpt lat="38.15758143028657" lon="-2.275932722454492"><ele>1113.0</ele><time>2026-04-20T12:59:03Z</time></trkpt><trkpt lat="38.15752961947501" lon="-2.2760697188158003"><ele>1116.0</ele><time>2026-04-20T12:59:04Z</time></trkpt><trkpt lat="38.15748221878531" lon="-2.276228532362065"><ele>1119.0</ele><time>2026-04-20T12:59:05Z</time></trkpt><trkpt lat="38.15744519691147" lon="-2.2763985610544717"><ele>1120.75</ele><time>2026-04-20T12:59:06Z</time></trkpt><trkpt lat="38.15741531006754" lon="-2.276572590264503"><ele>1122.5</ele><time>2026-04-20T12:59:07Z</time></trkpt><trkpt lat="38.15739126251692" lon="-2.276739343255703"><ele>1124.25</ele><time>2026-04-20T12:59:08Z</time></trkpt><trkpt lat="38.15736763651023" lon="-2.2768995621940595"><ele>1126.0</ele><time>2026-04-20T12:59:09Z</time></trkpt><trkpt lat="38.15734374807302" lon="-2.277071907256157"><ele>1119.75</ele><time>2026-04-20T12:59:10Z</time></trkpt><trkpt lat="38.157319145409666" lon="-2.2772443398938123"><ele>1113.5</ele><time>2026-04-20T12:59:11Z</time></trkpt><trkpt lat="38.15728969157725" lon="-2.2774223612779134"><ele>1107.25</ele><time>2026-04-20T12:59:12Z</time></trkpt><trkpt lat="38.157254305868044" lon="-2.2776000894877892"><ele>1101.0</ele><time>2026-04-20T12:59:13Z</time></trkpt><trkpt lat="38.157216387759384" lon="-2.2777723884561163"><ele>1101.0</ele><time>2026-04-20T12:59:14Z</time></trkpt><trkpt lat="38.1571817697427" lon="-2.277943329264529"><ele>1101.0</ele><time>2026-04-20T12:59:15Z</time></trkpt><trkpt lat="38.15714768942022" lon="-2.278111209525125"><ele>1101.0</ele><time>2026-04-20T12:59:16Z</time></trkpt><trkpt lat="38.157110889468136" lon="-2.2782804413253075"><ele>1101.0</ele><time>2026-04-20T12:59:17Z</time></trkpt><trkpt lat="38.15707593172642" lon="-2.278450804597665"><ele>1101.75</ele><time>2026-04-20T12:59:18Z</time></trkpt><trkpt lat="38.15703958179326" lon="-2.278620401377551"><ele>1102.5</ele><time>2026-04-20T12:59:19Z</time></trkpt><trkpt lat="38.1570041748006" lon="-2.278788700445636"><ele>1103.25</ele><time>2026-04-20T12:59:20Z</time></trkpt><trkpt lat="38.15696151897869" lon="-2.27895781609597"><ele>1104.0</ele><time>2026-04-20T12:59:21Z</time></trkpt><trkpt lat="38.156921368875636" lon="-2.2791257954371704"><ele>1105.5</ele><time>2026-04-20T12:59:22Z</time></trkpt><trkpt lat="38.156877329446544" lon="-2.2792941835369653"><ele>1107.0</ele><time>2026-04-20T12:59:23Z</time></trkpt><trkpt lat="38.1568290380332" lon="-2.279462101139873"><ele>1108.5</ele><time>2026-04-20T12:59:24Z</time></trkpt><trkpt lat="38.15678149139035" lon="-2.279625435400245"><ele>1110.0</ele><time>2026-04-20T12:59:25Z</time></trkpt><trkpt lat="38.15672782637693" lon="-2.27979263326819"><ele>1111.5</ele><time>2026-04-20T12:59:26Z</time></trkpt><trkpt lat="38.156679596117456" lon="-2.279960390168772"><ele>1113.0</ele><time>2026-04-20T12:59:27Z</time></trkpt><trkpt lat="38.15663231267412" lon="-2.280129924072917"><ele>1114.5</ele><time>2026-04-20T12:59:28Z</time></trkpt><trkpt lat="38.15658767512686" lon="-2.2802971856557086"><ele>1116.0</ele><time>2026-04-20T12:59:29Z</time></trkpt><trkpt lat="38.15654573556688" lon="-2.280467803051813"><ele>1113.0</ele><time>2026-04-20T12:59:30Z</time></trkpt><trkpt lat="38.15649475603361" lon="-2.280647541002596"><ele>1110.0</ele><time>2026-04-20T12:59:31Z</time></trkpt><trkpt lat="38.156440361866196" lon="-2.2808346205534353"><ele>1107.0</ele><time>2026-04-20T12:59:32Z</time></trkpt><trkpt lat="38.15638124518834" lon="-2.281023635295669"><ele>1107.0</ele><time>2026-04-20T12:59:33Z</time></trkpt><trkpt lat="38.15631022912526" lon="-2.281207929624743"><ele>1107.0</ele><time>2026-04-20T12:59:34Z</time></trkpt><trkpt lat="38.15621321406569" lon="-2.2813818581285092"><ele>1107.0</ele><time>2026-04-20T12:59:35Z</time></trkpt><trkpt lat="38.15609764312155" lon="-2.2815406522204205"><ele>1108.0</ele><time>2026-04-20T12:59:36Z</time></trkpt><trkpt lat="38.155971142386754" lon="-2.281704519960733"><ele>1109.0</ele><time>2026-04-20T12:59:37Z</time></trkpt><trkpt lat="38.15585154718772" lon="-2.2818621171268902"><ele>1110.0</ele><time>2026-04-20T12:59:38Z</time></trkpt><trkpt lat="38.15575072680744" lon="-2.2820353949547645"><ele>1114.6666666666667</ele><time>2026-04-20T12:59:39Z</time></trkpt><trkpt lat="38.155691967267025" lon="-2.2822498904490875"><ele>1119.3333333333335</ele><time>2026-04-20T12:59:40Z</time></trkpt><trkpt lat="38.155643954569584" lon="-2.2824660812898574"><ele>1124.0</ele><time>2026-04-20T12:59:41Z</time></trkpt><trkpt lat="38.15562099621395" lon="-2.2826823766320437"><ele>1125.0</ele><time>2026-04-20T12:59:42Z</time></trkpt><trkpt lat="38.155595117140244" lon="-2.282873569531591"><ele>1126.0</ele><time>2026-04-20T12:59:43Z</time></trkpt><trkpt lat="38.15549013002718" lon="-2.2832638073769083"><ele>1126.0</ele><time>2026-04-20T12:59:45Z</time></trkpt><trkpt lat="38.15542701257413" lon="-2.2834494613731975"><ele>1126.0</ele><time>2026-04-20T12:59:46Z</time></trkpt><trkpt lat="38.15536267976358" lon="-2.2836414622452357"><ele>1126.0</ele><time>2026-04-20T12:59:47Z</time></trkpt><trkpt lat="38.1553062670947" lon="-2.2838382071510015"><ele>1125.3333333333333</ele><time>2026-04-20T12:59:48Z</time></trkpt><trkpt lat="38.155251909840935" lon="-2.2840447899191596"><ele>1124.6666666666667</ele><time>2026-04-20T12:59:49Z</time></trkpt><trkpt lat="38.155188199008826" lon="-2.284254460269729"><ele>1124.0</ele><time>2026-04-20T12:59:50Z</time></trkpt><trkpt lat="38.1551246922598" lon="-2.28445508683001"><ele>1124.0</ele><time>2026-04-20T12:59:51Z</time></trkpt><trkpt lat="38.155056098424325" lon="-2.2846312383223886"><ele>1124.0</ele><time>2026-04-20T12:59:52Z</time></trkpt><trkpt lat="38.15496140818403" lon="-2.2847890051791344"><ele>1124.0</ele><time>2026-04-20T12:59:53Z</time></trkpt><trkpt lat="38.154844277967" lon="-2.284922077112422"><ele>1123.0</ele><time>2026-04-20T12:59:54Z</time></trkpt><trkpt lat="38.154707677590096" lon="-2.2850162567162675"><ele>1122.0</ele><time>2026-04-20T12:59:55Z</time></trkpt><trkpt lat="38.15455700364581" lon="-2.285058015555411"><ele>1121.0</ele><time>2026-04-20T12:59:56Z</time></trkpt><trkpt lat="38.15440538900022" lon="-2.2850403088390387"><ele>1121.0</ele><time>2026-04-20T12:59:57Z</time></trkpt><trkpt lat="38.1542473558158" lon="-2.2849815578108426"><ele>1121.0</ele><time>2026-04-20T12:59:58Z</time></trkpt><trkpt lat="38.15408408245946" lon="-2.284906772464833"><ele>1121.0</ele><time>2026-04-20T12:59:59Z</time></trkpt><trkpt lat="38.15393210864799" lon="-2.2848569003907113"><ele>1124.6666666666667</ele><time>2026-04-20T13:00:00Z</time></trkpt><trkpt lat="38.153789429300765" lon="-2.2848550624446484"><ele>1128.3333333333333</ele><time>2026-04-20T13:00:01Z</time></trkpt><trkpt lat="38.153658497134366" lon="-2.2849616896335543"><ele>1132.0</ele><time>2026-04-20T13:00:02Z</time></trkpt><trkpt lat="38.15351938578291" lon="-2.2851080679716236"><ele>1132.0</ele><time>2026-04-20T13:00:03Z</time></trkpt><trkpt lat="38.15338097610596" lon="-2.285267655330602"><ele>1132.0</ele><time>2026-04-20T13:00:04Z</time></trkpt><trkpt lat="38.15325590490008" lon="-2.28545598887859"><ele>1132.0</ele><time>2026-04-20T13:00:05Z</time></trkpt><trkpt lat="38.15314078053924" lon="-2.285656580137871"><ele>1136.0</ele><time>2026-04-20T13:00:06Z</time></trkpt><trkpt lat="38.15305429850472" lon="-2.2858653734882695"><ele>1140.0</ele><time>2026-04-20T13:00:07Z</time></trkpt><trkpt lat="38.153033334406175" lon="-2.2860717235603105"><ele>1144.0</ele><time>2026-04-20T13:00:08Z</time></trkpt><trkpt lat="38.1529978014086" lon="-2.286242551031597"><ele>1144.0</ele><time>2026-04-20T13:00:09Z</time></trkpt><trkpt lat="38.15295098361841" lon="-2.2863849470630666"><ele>1144.0</ele><time>2026-04-20T13:00:10Z</time></trkpt><trkpt lat="38.15284960552698" lon="-2.2864942121435576"><ele>1144.0</ele><time>2026-04-20T13:00:11Z</time></trkpt><trkpt lat="38.15270730761835" lon="-2.2865683081971797"><ele>1144.0</ele><time>2026-04-20T13:00:12Z</time></trkpt><trkpt lat="38.15253963667736" lon="-2.2866027452589313"><ele>1146.0</ele><time>2026-04-20T13:00:13.001Z</time></trkpt><trkpt lat="38.15237585511988" lon="-2.286666926349052"><ele>1148.0</ele><time>2026-04-20T13:00:14.001Z</time></trkpt><trkpt lat="38.15226400327231" lon="-2.286824449368875"><ele>1150.0</ele><time>2026-04-20T13:00:15.001Z</time></trkpt><trkpt lat="38.15221944151205" lon="-2.28701508438034"><ele>1150.0</ele><time>2026-04-20T13:00:16.001Z</time></trkpt><trkpt lat="38.1521926044869" lon="-2.2872452752215517"><ele>1150.0</ele><time>2026-04-20T13:00:17.001Z</time></trkpt><trkpt lat="38.15216602172092" lon="-2.287497193236424"><ele>1150.0</ele><time>2026-04-20T13:00:18.001Z</time></trkpt><trkpt lat="38.152124116614" lon="-2.287740091146568"><ele>1149.3333333333333</ele><time>2026-04-20T13:00:19.001Z</time></trkpt><trkpt lat="38.15205495744446" lon="-2.2879710894915632"><ele>1148.6666666666667</ele><time>2026-04-20T13:00:20.001Z</time></trkpt><trkpt lat="38.15195889323336" lon="-2.2882026274883644"><ele>1148.0</ele><time>2026-04-20T13:00:21.001Z</time></trkpt><trkpt lat="38.1518934357823" lon="-2.288449688845034"><ele>1146.6666666666667</ele><time>2026-04-20T13:00:22.001Z</time></trkpt><trkpt lat="38.1518518956284" lon="-2.288715955819836"><ele>1145.3333333333333</ele><time>2026-04-20T13:00:23.001Z</time></trkpt><trkpt lat="38.1518099269849" lon="-2.288983245355615"><ele>1144.0</ele><time>2026-04-20T13:00:24.001Z</time></trkpt><trkpt lat="38.151776824450145" lon="-2.2892521724210555"><ele>1144.0</ele><time>2026-04-20T13:00:25.001Z</time></trkpt><trkpt lat="38.151739304330405" lon="-2.289514372175821"><ele>1144.0</ele><time>2026-04-20T13:00:26.001Z</time></trkpt><trkpt lat="38.15171975106175" lon="-2.2897740530140216"><ele>1144.0</ele><time>2026-04-20T13:00:27.001Z</time></trkpt><trkpt lat="38.15172420031483" lon="-2.290040775902081"><ele>1144.3333333333333</ele><time>2026-04-20T13:00:28.001Z</time></trkpt><trkpt lat="38.15174295611613" lon="-2.2903138613919376"><ele>1144.6666666666667</ele><time>2026-04-20T13:00:29.001Z</time></trkpt><trkpt lat="38.151757669457936" lon="-2.2905948836054653"><ele>1145.0</ele><time>2026-04-20T13:00:30.001Z</time></trkpt><trkpt lat="38.151769878058786" lon="-2.2908621212488853"><ele>1144.3333333333335</ele><time>2026-04-20T13:00:31.001Z</time></trkpt><trkpt lat="38.1517794228363" lon="-2.2911099781769138"><ele>1143.6666666666667</ele><time>2026-04-20T13:00:32.001Z</time></trkpt><trkpt lat="38.15179178708217" lon="-2.291341788662432"><ele>1143.0</ele><time>2026-04-20T13:00:33.001Z</time></trkpt><trkpt lat="38.151800464220045" lon="-2.2915493697921363"><ele>1141.25</ele><time>2026-04-20T13:00:34.001Z</time></trkpt><trkpt lat="38.15179996994059" lon="-2.2917284237500657"><ele>1139.5</ele><time>2026-04-20T13:00:35.001Z</time></trkpt><trkpt lat="38.15176558592474" lon="-2.2918953015301406"><ele>1137.75</ele><time>2026-04-20T13:00:36.001Z</time></trkpt><trkpt lat="38.1516823371449" lon="-2.29204937411098"><ele>1136.0</ele><time>2026-04-20T13:00:37.001Z</time></trkpt><trkpt lat="38.15155856942231" lon="-2.292199111555004"><ele>1135.0</ele><time>2026-04-20T13:00:38.001Z</time></trkpt><trkpt lat="38.15143309363835" lon="-2.2923348515369693"><ele>1134.0</ele><time>2026-04-20T13:00:39.001Z</time></trkpt><trkpt lat="38.151324233376855" lon="-2.292473805745636"><ele>1133.0</ele><time>2026-04-20T13:00:40.001Z</time></trkpt><trkpt lat="38.1512309356898" lon="-2.292612349912007"><ele>1133.0</ele><time>2026-04-20T13:00:41.001Z</time></trkpt><trkpt lat="38.15116913593075" lon="-2.292769084025551"><ele>1133.0</ele><time>2026-04-20T13:00:42.001Z</time></trkpt><trkpt lat="38.15110892228632" lon="-2.292924890966501"><ele>1133.0</ele><time>2026-04-20T13:00:43.001Z</time></trkpt><trkpt lat="38.15112668912828" lon="-2.293108781355345"><ele>1133.0</ele><time>2026-04-20T13:00:44.001Z</time></trkpt><trkpt lat="38.151169208983795" lon="-2.2932859889805486"><ele>1132.0</ele><time>2026-04-20T13:00:45.001Z</time></trkpt><trkpt lat="38.151214430502314" lon="-2.293455417737685"><ele>1131.0</ele><time>2026-04-20T13:00:46.001Z</time></trkpt><trkpt lat="38.15127310868514" lon="-2.293610236238774"><ele>1130.0</ele><time>2026-04-20T13:00:47.001Z</time></trkpt><trkpt lat="38.15131797790636" lon="-2.2937674848123906"><ele>1129.0</ele><time>2026-04-20T13:00:48.001Z</time></trkpt><trkpt lat="38.15134462245758" lon="-2.293940487170048"><ele>1128.6666666666665</ele><time>2026-04-20T13:00:49.001Z</time></trkpt><trkpt lat="38.15133768988129" lon="-2.2941390056863082"><ele>1128.3333333333333</ele><time>2026-04-20T13:00:50Z</time></trkpt><trkpt lat="38.151290251478564" lon="-2.2943494066200105"><ele>1128.0</ele><time>2026-04-20T13:00:51Z</time></trkpt><trkpt lat="38.15123653209648" lon="-2.294545244704454"><ele>1128.0</ele><time>2026-04-20T13:00:52Z</time></trkpt><trkpt lat="38.151160660257396" lon="-2.294725296677778"><ele>1128.0</ele><time>2026-04-20T13:00:53Z</time></trkpt><trkpt lat="38.151048661966115" lon="-2.2948967666355258"><ele>1128.0</ele><time>2026-04-20T13:00:54Z</time></trkpt><trkpt lat="38.150911105054846" lon="-2.2950428175811366"><ele>1127.0</ele><time>2026-04-20T13:00:55Z</time></trkpt><trkpt lat="38.1507697409041" lon="-2.295173083862356"><ele>1126.0</ele><time>2026-04-20T13:00:56Z</time></trkpt><trkpt lat="38.15064292629446" lon="-2.2953239745478915"><ele>1125.0</ele><time>2026-04-20T13:00:57Z</time></trkpt><trkpt lat="38.150537587168316" lon="-2.295496779941951"><ele>1120.3333333333333</ele><time>2026-04-20T13:00:58Z</time></trkpt><trkpt lat="38.150447851595395" lon="-2.295661157036626"><ele>1115.6666666666665</ele><time>2026-04-20T13:00:59Z</time></trkpt><trkpt lat="38.150341971161694" lon="-2.295794764437334"><ele>1111.0</ele><time>2026-04-20T13:01:00Z</time></trkpt><trkpt lat="38.150214359917555" lon="-2.2958877882622857"><ele>1111.0</ele><time>2026-04-20T13:01:01Z</time></trkpt><trkpt lat="38.15005937771531" lon="-2.295944142859824"><ele>1111.0</ele><time>2026-04-20T13:01:02Z</time></trkpt><trkpt lat="38.14990313715365" lon="-2.295978771564383"><ele>1111.0</ele><time>2026-04-20T13:01:03Z</time></trkpt><trkpt lat="38.14974154119827" lon="-2.296037454645467"><ele>1111.6666666666665</ele><time>2026-04-20T13:01:04Z</time></trkpt><trkpt lat="38.14957041653418" lon="-2.2960803960184393"><ele>1112.3333333333333</ele><time>2026-04-20T13:01:05Z</time></trkpt><trkpt lat="38.14941089191892" lon="-2.29610165626223"><ele>1113.0</ele><time>2026-04-20T13:01:06Z</time></trkpt><trkpt lat="38.14924348189472" lon="-2.2961469721854364"><ele>1113.0</ele><time>2026-04-20T13:01:07Z</time></trkpt><trkpt lat="38.14908206633109" lon="-2.2961916661959223"><ele>1113.0</ele><time>2026-04-20T13:01:08Z</time></trkpt><trkpt lat="38.14892593305768" lon="-2.296238531703793"><ele>1113.0</ele><time>2026-04-20T13:01:09Z</time></trkpt><trkpt lat="38.14877726903056" lon="-2.296281147725418"><ele>1114.25</ele><time>2026-04-20T13:01:10Z</time></trkpt><trkpt lat="38.148622944032674" lon="-2.2963300733563097"><ele>1115.5</ele><time>2026-04-20T13:01:11Z</time></trkpt><trkpt lat="38.148487278027844" lon="-2.296384567221766"><ele>1116.75</ele><time>2026-04-20T13:01:12Z</time></trkpt><trkpt lat="38.14836809388215" lon="-2.2964544149591863"><ele>1118.0</ele><time>2026-04-20T13:01:13Z</time></trkpt><trkpt lat="38.148265947849346" lon="-2.2965380127318484"><ele>1119.0</ele><time>2026-04-20T13:01:14Z</time></trkpt><trkpt lat="38.14818625401349" lon="-2.2966257809583834"><ele>1120.0</ele><time>2026-04-20T13:01:15Z</time></trkpt><trkpt lat="38.148132590385934" lon="-2.296707931940807"><ele>1121.0</ele><time>2026-04-20T13:01:16Z</time></trkpt><trkpt lat="38.14810262111577" lon="-2.2968109912390773"><ele>1122.0</ele><time>2026-04-20T13:01:18Z</time></trkpt><trkpt lat="38.148170210047404" lon="-2.296922997421684"><ele>1123.0</ele><time>2026-04-20T13:01:21Z</time></trkpt><trkpt lat="38.14823099335843" lon="-2.297037633530706"><ele>1119.4</ele><time>2026-04-20T13:01:23Z</time></trkpt><trkpt lat="38.14827236241513" lon="-2.297101102505398"><ele>1115.8</ele><time>2026-04-20T13:01:24Z</time></trkpt><trkpt lat="38.14833213748941" lon="-2.29715678291943"><ele>1112.2</ele><time>2026-04-20T13:01:25Z</time></trkpt><trkpt lat="38.14838374187483" lon="-2.297268904167862"><ele>1108.6</ele><time>2026-04-20T13:01:26Z</time></trkpt><trkpt lat="38.14846641709841" lon="-2.2973574333352107"><ele>1105.0</ele><time>2026-04-20T13:01:27Z</time></trkpt><trkpt lat="38.1485579400795" lon="-2.2974271860437523"><ele>1104.0</ele><time>2026-04-20T13:01:28Z</time></trkpt><trkpt lat="38.1486628374146" lon="-2.2974903293589364"><ele>1103.0</ele><time>2026-04-20T13:01:29Z</time></trkpt><trkpt lat="38.14860158094343" lon="-2.297579564876206"><ele>1102.0</ele><time>2026-04-20T13:01:30Z</time></trkpt><trkpt lat="38.14867674663932" lon="-2.297672215866824"><ele>1101.0</ele><time>2026-04-20T13:01:31Z</time></trkpt><trkpt lat="38.148743849895794" lon="-2.2977704371846865"><ele>1100.0</ele><time>2026-04-20T13:01:32Z</time></trkpt><trkpt lat="38.148808144534186" lon="-2.297864368468191"><ele>1100.0</ele><time>2026-04-20T13:01:33Z</time></trkpt><trkpt lat="38.14885947741391" lon="-2.2979652326776074"><ele>1100.0</ele><time>2026-04-20T13:01:34Z</time></trkpt><trkpt lat="38.14888891965536" lon="-2.2980784004979338"><ele>1100.0</ele><time>2026-04-20T13:01:35Z</time></trkpt><trkpt lat="38.14890015628121" lon="-2.2982097560028873"><ele>1100.0</ele><time>2026-04-20T13:01:36Z</time></trkpt><trkpt lat="38.14889815418299" lon="-2.29833988900899"><ele>1100.0</ele><time>2026-04-20T13:01:37Z</time></trkpt><trkpt lat="38.148885722192134" lon="-2.2984740406317754"><ele>1099.0</ele><time>2026-04-20T13:01:38Z</time></trkpt><trkpt lat="38.1488720662335" lon="-2.2986068894928886"><ele>1098.0</ele><time>2026-04-20T13:01:39Z</time></trkpt><trkpt lat="38.14881877927846" lon="-2.298722873517747"><ele>1097.0</ele><time>2026-04-20T13:01:40Z</time></trkpt><trkpt lat="38.148762042516516" lon="-2.2988487857929405"><ele>1096.0</ele><time>2026-04-20T13:01:41Z</time></trkpt><trkpt lat="38.148714261795455" lon="-2.298983550335382"><ele>1095.0</ele><time>2026-04-20T13:01:42Z</time></trkpt><trkpt lat="38.14864474726725" lon="-2.299092789705707"><ele>1093.6</ele><time>2026-04-20T13:01:43Z</time></trkpt><trkpt lat="38.148585328101284" lon="-2.2992105922265034"><ele>1092.2</ele><time>2026-04-20T13:01:44Z</time></trkpt><trkpt lat="38.14852879880671" lon="-2.2993155378894756"><ele>1090.8</ele><time>2026-04-20T13:01:45Z</time></trkpt><trkpt lat="38.14847717874818" lon="-2.2994162718873956"><ele>1089.4</ele><time>2026-04-20T13:01:46Z</time></trkpt><trkpt lat="38.148417050990076" lon="-2.299522465262743"><ele>1088.0</ele><time>2026-04-20T13:01:47Z</time></trkpt><trkpt lat="38.14836353115241" lon="-2.2996324484058963"><ele>1088.0</ele><time>2026-04-20T13:01:48Z</time></trkpt><trkpt lat="38.1483004270973" lon="-2.2997466851914714"><ele>1088.0</ele><time>2026-04-20T13:01:49Z</time></trkpt><trkpt lat="38.148246192150566" lon="-2.299859193395668"><ele>1088.0</ele><time>2026-04-20T13:01:50Z</time></trkpt><trkpt lat="38.148184388221594" lon="-2.299973019590578"><ele>1088.0</ele><time>2026-04-20T13:01:51Z</time></trkpt><trkpt lat="38.14812672014258" lon="-2.300088848135614"><ele>1088.0</ele><time>2026-04-20T13:01:52Z</time></trkpt><trkpt lat="38.14806840944076" lon="-2.3001905002812286"><ele>1087.6</ele><time>2026-04-20T13:01:53Z</time></trkpt><trkpt lat="38.14802434846769" lon="-2.3003106525178407"><ele>1087.1999999999998</ele><time>2026-04-20T13:01:54Z</time></trkpt><trkpt lat="38.14796773914117" lon="-2.3004216914769664"><ele>1086.8</ele><time>2026-04-20T13:01:55Z</time></trkpt><trkpt lat="38.14791520252327" lon="-2.3005247418385975"><ele>1086.3999999999999</ele><time>2026-04-20T13:01:56Z</time></trkpt><trkpt lat="38.14786272539512" lon="-2.3006276755001904"><ele>1086.0</ele><time>2026-04-20T13:01:57Z</time></trkpt><trkpt lat="38.14780968858378" lon="-2.3007317069816344"><ele>1086.0</ele><time>2026-04-20T13:01:58Z</time></trkpt><trkpt lat="38.14776094167877" lon="-2.3008273230426375"><ele>1086.0</ele><time>2026-04-20T13:01:59Z</time></trkpt><trkpt lat="38.14771885950928" lon="-2.300915545612364"><ele>1086.0</ele><time>2026-04-20T13:02:00Z</time></trkpt><trkpt lat="38.147684940861964" lon="-2.3009907313322553"><ele>1086.0</ele><time>2026-04-20T13:02:01Z</time></trkpt><trkpt lat="38.14765605034697" lon="-2.3010662025536983"><ele>1086.0</ele><time>2026-04-20T13:02:02Z</time></trkpt><trkpt lat="38.14764108213328" lon="-2.301211088949278"><ele>1086.0</ele><time>2026-04-20T13:02:04.001Z</time></trkpt><trkpt lat="38.14769380333904" lon="-2.3012791083083184"><ele>1086.0</ele><time>2026-04-20T13:02:05.001Z</time></trkpt><trkpt lat="38.147705491822336" lon="-2.301363584434695"><ele>1086.0</ele><time>2026-04-20T13:02:06.001Z</time></trkpt><trkpt lat="38.14775455402056" lon="-2.301494893754294"><ele>1086.0</ele><time>2026-04-20T13:02:08.001Z</time></trkpt><trkpt lat="38.14778178692409" lon="-2.301568079620928"><ele>1086.0</ele><time>2026-04-20T13:02:09.001Z</time></trkpt><trkpt lat="38.147805066114614" lon="-2.3016519226585426"><ele>1086.0</ele><time>2026-04-20T13:02:10.001Z</time></trkpt><trkpt lat="38.14785118173206" lon="-2.30178732403457"><ele>1086.0</ele><time>2026-04-20T13:02:12.001Z</time></trkpt><trkpt lat="38.14788348388682" lon="-2.301884909260309"><ele>1084.3999999999999</ele><time>2026-04-20T13:02:14.001Z</time></trkpt><trkpt lat="38.14789393670393" lon="-2.3019766055693207"><ele>1082.8</ele><time>2026-04-20T13:02:19.001Z</time></trkpt><trkpt lat="38.14777543919768" lon="-2.302028682113344"><ele>1081.1999999999998</ele><time>2026-04-20T13:02:21.001Z</time></trkpt><trkpt lat="38.14768799660914" lon="-2.302012759577078"><ele>1079.6</ele><time>2026-04-20T13:02:23.001Z</time></trkpt><trkpt lat="38.14758877362156" lon="-2.302005171182336"><ele>1078.0</ele><time>2026-04-20T13:02:25.001Z</time></trkpt><trkpt lat="38.14747491752617" lon="-2.302046107927536"><ele>1078.8333333333333</ele><time>2026-04-20T13:02:27.001Z</time></trkpt><trkpt lat="38.147356039181375" lon="-2.302119672792032"><ele>1079.6666666666665</ele><time>2026-04-20T13:02:29.001Z</time></trkpt><trkpt lat="38.147298117749514" lon="-2.3021717842252882"><ele>1080.5</ele><time>2026-04-20T13:02:30.001Z</time></trkpt><trkpt lat="38.14723639048237" lon="-2.302225119364882"><ele>1081.3333333333333</ele><time>2026-04-20T13:02:31.001Z</time></trkpt><trkpt lat="38.1471727048734" lon="-2.3022774829165735"><ele>1082.1666666666667</ele><time>2026-04-20T13:02:32.001Z</time></trkpt><trkpt lat="38.14709742505603" lon="-2.3023125654813343"><ele>1083.0</ele><time>2026-04-20T13:02:33.001Z</time></trkpt><trkpt lat="38.14703758750393" lon="-2.3023566151480885"><ele>1083.4</ele><time>2026-04-20T13:02:34.001Z</time></trkpt><trkpt lat="38.146986835077826" lon="-2.3024260578966107"><ele>1083.8</ele><time>2026-04-20T13:02:35.001Z</time></trkpt><trkpt lat="38.146946087701856" lon="-2.302507529019455"><ele>1084.2</ele><time>2026-04-20T13:02:36.001Z</time></trkpt><trkpt lat="38.14690749280524" lon="-2.3026052884616477"><ele>1084.6</ele><time>2026-04-20T13:02:37.001Z</time></trkpt><trkpt lat="38.14687263169589" lon="-2.3027455813215556"><ele>1085.0</ele><time>2026-04-20T13:02:38.001Z</time></trkpt><trkpt lat="38.1468254537714" lon="-2.302879304215181"><ele>1085.0</ele><time>2026-04-20T13:02:39.001Z</time></trkpt><trkpt lat="38.146791012218955" lon="-2.3029852404049485"><ele>1085.0</ele><time>2026-04-20T13:02:40.001Z</time></trkpt><trkpt lat="38.14675838141613" lon="-2.3030693451369313"><ele>1085.0</ele><time>2026-04-20T13:02:41.001Z</time></trkpt><trkpt lat="38.14672655676827" lon="-2.3031500523339803"><ele>1085.0</ele><time>2026-04-20T13:02:42.001Z</time></trkpt><trkpt lat="38.146709109772" lon="-2.303239056038994"><ele>1085.0</ele><time>2026-04-20T13:02:43.001Z</time></trkpt><trkpt lat="38.14668498433489" lon="-2.3033634014360134"><ele>1085.0</ele><time>2026-04-20T13:02:45.001Z</time></trkpt><trkpt lat="38.1465701093354" lon="-2.3034156597246844"><ele>1087.0</ele><time>2026-04-20T13:02:47.001Z</time></trkpt><trkpt lat="38.146505091108246" lon="-2.30343845366993"><ele>1089.0</ele><time>2026-04-20T13:02:48.001Z</time></trkpt><trkpt lat="38.14639827688324" lon="-2.3035299489466796"><ele>1091.0</ele><time>2026-04-20T13:02:50.001Z</time></trkpt><trkpt lat="38.14632047138296" lon="-2.3035997842885214"><ele>1093.0</ele><time>2026-04-20T13:02:52.001Z</time></trkpt><trkpt lat="38.14626068491103" lon="-2.3036985607899862"><ele>1095.0</ele><time>2026-04-20T13:02:54.001Z</time></trkpt><trkpt lat="38.14627152660314" lon="-2.3037791970068433"><ele>1094.9999999999998</ele><time>2026-04-20T13:02:55.001Z</time></trkpt><trkpt lat="38.146253907226416" lon="-2.303869029338089"><ele>1095.0</ele><time>2026-04-20T13:02:56Z</time></trkpt><trkpt lat="38.14626511083672" lon="-2.3039658901536457"><ele>1095.0</ele><time>2026-04-20T13:02:57Z</time></trkpt><trkpt lat="38.14626884676779" lon="-2.3040572366246534"><ele>1095.0</ele><time>2026-04-20T13:02:58Z</time></trkpt><trkpt lat="38.146243825189" lon="-2.304142555571016"><ele>1095.0</ele><time>2026-04-20T13:02:59Z</time></trkpt><trkpt lat="38.146207819711975" lon="-2.3042122824820757"><ele>1094.9999999999998</ele><time>2026-04-20T13:03:00Z</time></trkpt><trkpt lat="38.146132135830435" lon="-2.304259686304809"><ele>1095.0</ele><time>2026-04-20T13:03:01Z</time></trkpt><trkpt lat="38.14604108724372" lon="-2.304339145454397"><ele>1094.0</ele><time>2026-04-20T13:03:02Z</time></trkpt><trkpt lat="38.14594857491083" lon="-2.304410975470272"><ele>1093.0</ele><time>2026-04-20T13:03:03Z</time></trkpt><trkpt lat="38.14587181773407" lon="-2.3044847005126203"><ele>1092.0</ele><time>2026-04-20T13:03:04Z</time></trkpt><trkpt lat="38.145810046045234" lon="-2.3045678708351334"><ele>1091.0</ele><time>2026-04-20T13:03:05Z</time></trkpt><trkpt lat="38.14577339397485" lon="-2.3046670018119513"><ele>1090.0</ele><time>2026-04-20T13:03:06Z</time></trkpt><trkpt lat="38.14573193434086" lon="-2.304758650199645"><ele>1088.6666666666665</ele><time>2026-04-20T13:03:07Z</time></trkpt><trkpt lat="38.14573138432816" lon="-2.3048688721062134"><ele>1087.3333333333333</ele><time>2026-04-20T13:03:08Z</time></trkpt><trkpt lat="38.14574246810285" lon="-2.3049859398916612"><ele>1086.0</ele><time>2026-04-20T13:03:09Z</time></trkpt><trkpt lat="38.14575016260203" lon="-2.305091325878753"><ele>1084.6666666666667</ele><time>2026-04-20T13:03:10Z</time></trkpt><trkpt lat="38.14575822361085" lon="-2.3051866343228182"><ele>1083.3333333333335</ele><time>2026-04-20T13:03:11Z</time></trkpt><trkpt lat="38.14575531106826" lon="-2.3052725950594093"><ele>1082.0</ele><time>2026-04-20T13:03:12Z</time></trkpt><trkpt lat="38.145740626508264" lon="-2.30540511618517"><ele>1082.0</ele><time>2026-04-20T13:03:14Z</time></trkpt><trkpt lat="38.145770032151134" lon="-2.3055638665162985"><ele>1082.0</ele><time>2026-04-20T13:03:16Z</time></trkpt><trkpt lat="38.145775349525415" lon="-2.3056610672274327"><ele>1082.0</ele><time>2026-04-20T13:03:17Z</time></trkpt><trkpt lat="38.14577239965601" lon="-2.305761589779373"><ele>1082.0</ele><time>2026-04-20T13:03:18Z</time></trkpt><trkpt lat="38.14576510716092" lon="-2.305878727952959"><ele>1082.0</ele><time>2026-04-20T13:03:19Z</time></trkpt><trkpt lat="38.14575131335526" lon="-2.305997456277696"><ele>1082.0</ele><time>2026-04-20T13:03:20Z</time></trkpt><trkpt lat="38.145724128110466" lon="-2.3061338693933515"><ele>1082.0</ele><time>2026-04-20T13:03:21Z</time></trkpt><trkpt lat="38.14568709942405" lon="-2.306283429079754"><ele>1082.0</ele><time>2026-04-20T13:03:22Z</time></trkpt><trkpt lat="38.14564725804451" lon="-2.3064358536000076"><ele>1082.0</ele><time>2026-04-20T13:03:23Z</time></trkpt><trkpt lat="38.14560637668907" lon="-2.30658795752923"><ele>1086.5</ele><time>2026-04-20T13:03:24Z</time></trkpt><trkpt lat="38.14556103893363" lon="-2.3067425124666565"><ele>1091.0</ele><time>2026-04-20T13:03:25Z</time></trkpt><trkpt lat="38.14553063426175" lon="-2.306890547424249"><ele>1095.5</ele><time>2026-04-20T13:03:26Z</time></trkpt><trkpt lat="38.14552189004964" lon="-2.3070497803209378"><ele>1100.0</ele><time>2026-04-20T13:03:27Z</time></trkpt><trkpt lat="38.14557988151948" lon="-2.3072035273015583"><ele>1100.5</ele><time>2026-04-20T13:03:28Z</time></trkpt><trkpt lat="38.14564264048787" lon="-2.307365953212753"><ele>1101.0</ele><time>2026-04-20T13:03:29Z</time></trkpt><trkpt lat="38.14569022791424" lon="-2.3075202745426604"><ele>1101.5</ele><time>2026-04-20T13:03:30Z</time></trkpt><trkpt lat="38.14576067958735" lon="-2.3076635104922643"><ele>1102.0</ele><time>2026-04-20T13:03:31Z</time></trkpt><trkpt lat="38.14584842839642" lon="-2.3078051730081612"><ele>1098.25</ele><time>2026-04-20T13:03:32Z</time></trkpt><trkpt lat="38.14595862846088" lon="-2.3079433021000475"><ele>1094.5</ele><time>2026-04-20T13:03:33Z</time></trkpt><trkpt lat="38.146061691995165" lon="-2.308074226697765"><ele>1090.75</ele><time>2026-04-20T13:03:34Z</time></trkpt><trkpt lat="38.146148594728324" lon="-2.308199904053007"><ele>1087.0</ele><time>2026-04-20T13:03:35Z</time></trkpt><trkpt lat="38.14620760515532" lon="-2.3083541578644855"><ele>1087.0</ele><time>2026-04-20T13:03:36Z</time></trkpt><trkpt lat="38.146252349007824" lon="-2.308544306884805"><ele>1087.0</ele><time>2026-04-20T13:03:37Z</time></trkpt><trkpt lat="38.14628442508085" lon="-2.308748860969596"><ele>1087.0</ele><time>2026-04-20T13:03:38Z</time></trkpt><trkpt lat="38.14633435983448" lon="-2.308941086961597"><ele>1086.6666666666665</ele><time>2026-04-20T13:03:39Z</time></trkpt><trkpt lat="38.146428495579414" lon="-2.309093177575284"><ele>1086.3333333333333</ele><time>2026-04-20T13:03:40Z</time></trkpt><trkpt lat="38.14651879641234" lon="-2.3092565354542116"><ele>1086.0</ele><time>2026-04-20T13:03:41Z</time></trkpt><trkpt lat="38.14664509775588" lon="-2.309388613900158"><ele>1083.3333333333333</ele><time>2026-04-20T13:03:42Z</time></trkpt><trkpt lat="38.14679733838063" lon="-2.309476132278196"><ele>1080.6666666666665</ele><time>2026-04-20T13:03:43Z</time></trkpt><trkpt lat="38.14692574706326" lon="-2.309611040037232"><ele>1078.0</ele><time>2026-04-20T13:03:44Z</time></trkpt><trkpt lat="38.14705525574832" lon="-2.309749708904815"><ele>1078.0</ele><time>2026-04-20T13:03:45Z</time></trkpt><trkpt lat="38.147163598983944" lon="-2.309905948458016"><ele>1078.0</ele><time>2026-04-20T13:03:46Z</time></trkpt><trkpt lat="38.14726868702385" lon="-2.310065696855203"><ele>1078.0</ele><time>2026-04-20T13:03:47Z</time></trkpt><trkpt lat="38.14735873383591" lon="-2.310231095197864"><ele>1081.6666666666665</ele><time>2026-04-20T13:03:48Z</time></trkpt><trkpt lat="38.147430331353476" lon="-2.310424973798241"><ele>1085.3333333333333</ele><time>2026-04-20T13:03:49Z</time></trkpt><trkpt lat="38.14745830437341" lon="-2.310646244144764"><ele>1089.0</ele><time>2026-04-20T13:03:50Z</time></trkpt><trkpt lat="38.14749203654381" lon="-2.310864165081906"><ele>1089.25</ele><time>2026-04-20T13:03:51Z</time></trkpt><trkpt lat="38.147503484753194" lon="-2.3110790779241595"><ele>1089.5</ele><time>2026-04-20T13:03:52Z</time></trkpt><trkpt lat="38.1475076922366" lon="-2.3112555108738477"><ele>1089.75</ele><time>2026-04-20T13:03:53Z</time></trkpt><trkpt lat="38.14750912189127" lon="-2.3114170314285976"><ele>1090.0</ele><time>2026-04-20T13:03:54Z</time></trkpt><trkpt lat="38.14751006556232" lon="-2.3115496900410353"><ele>1090.0</ele><time>2026-04-20T13:03:55Z</time></trkpt><trkpt lat="38.147522713183015" lon="-2.3116627454523475"><ele>1090.0</ele><time>2026-04-20T13:03:56.001Z</time></trkpt><trkpt lat="38.14756623655296" lon="-2.311749637029259"><ele>1090.0</ele><time>2026-04-20T13:03:57.001Z</time></trkpt><trkpt lat="38.14762864719394" lon="-2.3118265597561245"><ele>1090.0</ele><time>2026-04-20T13:03:58.001Z</time></trkpt><trkpt lat="38.147667994661816" lon="-2.3119108057070448"><ele>1090.0</ele><time>2026-04-20T13:03:59.001Z</time></trkpt><trkpt lat="38.14765937183311" lon="-2.3120096076695806"><ele>1090.0</ele><time>2026-04-20T13:04:00.001Z</time></trkpt><trkpt lat="38.14761756490754" lon="-2.3121045361490054"><ele>1090.0</ele><time>2026-04-20T13:04:01.001Z</time></trkpt><trkpt lat="38.147545622759985" lon="-2.3121659592895893"><ele>1090.0</ele><time>2026-04-20T13:04:02.001Z</time></trkpt><trkpt lat="38.147450111944515" lon="-2.312175064156875"><ele>1090.0</ele><time>2026-04-20T13:04:03.001Z</time></trkpt><trkpt lat="38.14740321362712" lon="-2.3124151830683473"><ele>1090.0</ele><time>2026-04-20T13:04:05.001Z</time></trkpt><trkpt lat="38.14738835493017" lon="-2.3125547278466088"><ele>1088.25</ele><time>2026-04-20T13:04:06.001Z</time></trkpt><trkpt lat="38.147364851681075" lon="-2.312686614594372"><ele>1086.5</ele><time>2026-04-20T13:04:07.001Z</time></trkpt><trkpt lat="38.14733714464245" lon="-2.3128248877218627"><ele>1084.75</ele><time>2026-04-20T13:04:08.001Z</time></trkpt><trkpt lat="38.147315793514" lon="-2.3129700498322983"><ele>1083.0</ele><time>2026-04-20T13:04:09.001Z</time></trkpt><trkpt lat="38.14729503258959" lon="-2.31312341663727"><ele>1083.0</ele><time>2026-04-20T13:04:10.001Z</time></trkpt><trkpt lat="38.147272826145716" lon="-2.313286637158173"><ele>1083.0</ele><time>2026-04-20T13:04:11.001Z</time></trkpt><trkpt lat="38.14724892356157" lon="-2.3134621663643"><ele>1083.0</ele><time>2026-04-20T13:04:12.001Z</time></trkpt><trkpt lat="38.14722089954719" lon="-2.3136500494308447"><ele>1083.0</ele><time>2026-04-20T13:04:13.001Z</time></trkpt><trkpt lat="38.147186536746" lon="-2.313844466716982"><ele>1083.3333333333333</ele><time>2026-04-20T13:04:14.001Z</time></trkpt><trkpt lat="38.1471296197405" lon="-2.314027849900553"><ele>1083.6666666666665</ele><time>2026-04-20T13:04:15.001Z</time></trkpt><trkpt lat="38.14706386945752" lon="-2.3142070194290554"><ele>1084.0</ele><time>2026-04-20T13:04:16.001Z</time></trkpt><trkpt lat="38.14698750524873" lon="-2.314375080117486"><ele>1084.0</ele><time>2026-04-20T13:04:17.001Z</time></trkpt><trkpt lat="38.146921135721804" lon="-2.314534376451746"><ele>1084.0</ele><time>2026-04-20T13:04:18.001Z</time></trkpt><trkpt lat="38.14687579502873" lon="-2.3146984011846032"><ele>1084.0</ele><time>2026-04-20T13:04:19.001Z</time></trkpt><trkpt lat="38.14685752511028" lon="-2.3148730854211252"><ele>1084.0</ele><time>2026-04-20T13:04:20.001Z</time></trkpt><trkpt lat="38.14689763145293" lon="-2.3150574093905782"><ele>1085.0</ele><time>2026-04-20T13:04:21.001Z</time></trkpt><trkpt lat="38.14695849159345" lon="-2.3152369777263972"><ele>1086.0</ele><time>2026-04-20T13:04:22.001Z</time></trkpt><trkpt lat="38.14701268712998" lon="-2.3154205018456846"><ele>1087.0</ele><time>2026-04-20T13:04:23.001Z</time></trkpt><trkpt lat="38.14706900377852" lon="-2.3156087817061692"><ele>1087.3333333333333</ele><time>2026-04-20T13:04:24.001Z</time></trkpt><trkpt lat="38.14713433095717" lon="-2.315790420239135"><ele>1087.6666666666667</ele><time>2026-04-20T13:04:25.001Z</time></trkpt><trkpt lat="38.147190144993495" lon="-2.3159760178945827"><ele>1088.0</ele><time>2026-04-20T13:04:26.001Z</time></trkpt><trkpt lat="38.14720854969394" lon="-2.31617992026381"><ele>1088.0</ele><time>2026-04-20T13:04:27.001Z</time></trkpt><trkpt lat="38.147218330724264" lon="-2.316368981414082"><ele>1088.0</ele><time>2026-04-20T13:04:28.001Z</time></trkpt><trkpt lat="38.14719890596739" lon="-2.3165889592353652"><ele>1088.0</ele><time>2026-04-20T13:04:29.001Z</time></trkpt><trkpt lat="38.14715207453495" lon="-2.316809305204834"><ele>1088.0</ele><time>2026-04-20T13:04:30.001Z</time></trkpt><trkpt lat="38.14711028291756" lon="-2.3170364699125634"><ele>1088.0</ele><time>2026-04-20T13:04:31.001Z</time></trkpt><trkpt lat="38.147076144155434" lon="-2.317266152806519"><ele>1088.0</ele><time>2026-04-20T13:04:32.001Z</time></trkpt><trkpt lat="38.14705735978098" lon="-2.317505211740748"><ele>1088.3333333333335</ele><time>2026-04-20T13:04:33.001Z</time></trkpt><trkpt lat="38.147051934556586" lon="-2.317756733879031"><ele>1088.6666666666667</ele><time>2026-04-20T13:04:34.001Z</time></trkpt><trkpt lat="38.14705169173353" lon="-2.318013902877324"><ele>1089.0</ele><time>2026-04-20T13:04:35.001Z</time></trkpt><trkpt lat="38.147049768627134" lon="-2.318283280826195"><ele>1089.6666666666667</ele><time>2026-04-20T13:04:36.001Z</time></trkpt><trkpt lat="38.14704304422147" lon="-2.318536422641935"><ele>1090.3333333333335</ele><time>2026-04-20T13:04:37.001Z</time></trkpt><trkpt lat="38.147036385345885" lon="-2.318791638639089"><ele>1091.0</ele><time>2026-04-20T13:04:38.001Z</time></trkpt><trkpt lat="38.14703470243928" lon="-2.31903980125832"><ele>1092.0</ele><time>2026-04-20T13:04:39.001Z</time></trkpt><trkpt lat="38.14703837635563" lon="-2.31928896316212"><ele>1093.0</ele><time>2026-04-20T13:04:40.001Z</time></trkpt><trkpt lat="38.14706222460607" lon="-2.3195193262907403"><ele>1094.0</ele><time>2026-04-20T13:04:41.001Z</time></trkpt><trkpt lat="38.1470909037712" lon="-2.31973067918747"><ele>1094.0</ele><time>2026-04-20T13:04:42.001Z</time></trkpt><trkpt lat="38.14712211829389" lon="-2.319936784502703"><ele>1094.0</ele><time>2026-04-20T13:04:43.001Z</time></trkpt><trkpt lat="38.14709870848125" lon="-2.3201385480038113"><ele>1094.0</ele><time>2026-04-20T13:04:44.001Z</time></trkpt><trkpt lat="38.14707376703394" lon="-2.3203499518520188"><ele>1094.0</ele><time>2026-04-20T13:04:45.001Z</time></trkpt><trkpt lat="38.14704491197388" lon="-2.3205412206224314"><ele>1094.0</ele><time>2026-04-20T13:04:46.001Z</time></trkpt><trkpt lat="38.147099361912105" lon="-2.3207356440486833"><ele>1094.0</ele><time>2026-04-20T13:04:47.001Z</time></trkpt><trkpt lat="38.147146721046326" lon="-2.3209521577564955"><ele>1095.0</ele><time>2026-04-20T13:04:48.001Z</time></trkpt><trkpt lat="38.147178947861434" lon="-2.3211812610882263"><ele>1096.0</ele><time>2026-04-20T13:04:49.001Z</time></trkpt><trkpt lat="38.14720171548218" lon="-2.321412266355067"><ele>1097.0</ele><time>2026-04-20T13:04:50.001Z</time></trkpt><trkpt lat="38.14717828310002" lon="-2.321644399252303"><ele>1097.6666666666667</ele><time>2026-04-20T13:04:51.001Z</time></trkpt><trkpt lat="38.14713130143257" lon="-2.32187875954909"><ele>1098.3333333333333</ele><time>2026-04-20T13:04:52.001Z</time></trkpt><trkpt lat="38.14706576573003" lon="-2.32210093991379"><ele>1099.0</ele><time>2026-04-20T13:04:53.001Z</time></trkpt><trkpt lat="38.146992372561456" lon="-2.3223126526882267"><ele>1101.3333333333333</ele><time>2026-04-20T13:04:54.001Z</time></trkpt><trkpt lat="38.146904846450425" lon="-2.3225156367684234"><ele>1103.6666666666667</ele><time>2026-04-20T13:04:55.001Z</time></trkpt><trkpt lat="38.14681342080929" lon="-2.3227037844160727"><ele>1106.0</ele><time>2026-04-20T13:04:56.001Z</time></trkpt><trkpt lat="38.14668996638377" lon="-2.322878965385984"><ele>1106.0</ele><time>2026-04-20T13:04:57.001Z</time></trkpt><trkpt lat="38.14656391810973" lon="-2.323037009835269"><ele>1106.0</ele><time>2026-04-20T13:04:58.001Z</time></trkpt><trkpt lat="38.146450007755305" lon="-2.323183873197441"><ele>1106.0</ele><time>2026-04-20T13:04:59.001Z</time></trkpt><trkpt lat="38.14634304124099" lon="-2.32331871809152"><ele>1105.3333333333335</ele><time>2026-04-20T13:05:00.001Z</time></trkpt><trkpt lat="38.14624049317024" lon="-2.3234506205805134"><ele>1104.6666666666667</ele><time>2026-04-20T13:05:01.001Z</time></trkpt><trkpt lat="38.14611879700379" lon="-2.323573287179968"><ele>1104.0</ele><time>2026-04-20T13:05:02Z</time></trkpt><trkpt lat="38.145973013575315" lon="-2.323644479784748"><ele>1104.0</ele><time>2026-04-20T13:05:03Z</time></trkpt><trkpt lat="38.14582888848477" lon="-2.3237218763929155"><ele>1104.0</ele><time>2026-04-20T13:05:04Z</time></trkpt><trkpt lat="38.14566886124228" lon="-2.323746091059418"><ele>1104.0</ele><time>2026-04-20T13:05:05Z</time></trkpt><trkpt lat="38.145507145415166" lon="-2.3237686144135594"><ele>1104.0</ele><time>2026-04-20T13:05:06Z</time></trkpt><trkpt lat="38.145342797075756" lon="-2.3237635873047946"><ele>1104.0</ele><time>2026-04-20T13:05:07Z</time></trkpt><trkpt lat="38.14519241884403" lon="-2.3237212346736675"><ele>1104.0</ele><time>2026-04-20T13:05:08Z</time></trkpt><trkpt lat="38.14502052215936" lon="-2.323667887211892"><ele>1103.0</ele><time>2026-04-20T13:05:09Z</time></trkpt><trkpt lat="38.14483707446261" lon="-2.323630448570746"><ele>1102.0</ele><time>2026-04-20T13:05:10Z</time></trkpt><trkpt lat="38.1446586784111" lon="-2.323599128890726"><ele>1101.0</ele><time>2026-04-20T13:05:11Z</time></trkpt><trkpt lat="38.14449125694529" lon="-2.3235499597783043"><ele>1101.0</ele><time>2026-04-20T13:05:12Z</time></trkpt><trkpt lat="38.14431987016488" lon="-2.3234671796032598"><ele>1101.0</ele><time>2026-04-20T13:05:13Z</time></trkpt><trkpt lat="38.14415836373336" lon="-2.3234127819120705"><ele>1101.0</ele><time>2026-04-20T13:05:14Z</time></trkpt><trkpt lat="38.14399581848561" lon="-2.323373354680537"><ele>1101.0</ele><time>2026-04-20T13:05:15Z</time></trkpt><trkpt lat="38.143869207727164" lon="-2.323368295908737"><ele>1101.0</ele><time>2026-04-20T13:05:16Z</time></trkpt><trkpt lat="38.143754913401935" lon="-2.323372101848151"><ele>1101.0</ele><time>2026-04-20T13:05:17Z</time></trkpt><trkpt lat="38.1436756465278" lon="-2.3234640395192243"><ele>1101.0</ele><time>2026-04-20T13:05:18Z</time></trkpt><trkpt lat="38.14361435927867" lon="-2.32363096303997"><ele>1101.0</ele><time>2026-04-20T13:05:19Z</time></trkpt><trkpt lat="38.14357604526623" lon="-2.3238330869995445"><ele>1101.0</ele><time>2026-04-20T13:05:20Z</time></trkpt><trkpt lat="38.143555541421186" lon="-2.3240271287533365"><ele>1101.0</ele><time>2026-04-20T13:05:21Z</time></trkpt><trkpt lat="38.14354940500568" lon="-2.324195632784104"><ele>1102.6666666666667</ele><time>2026-04-20T13:05:22Z</time></trkpt><trkpt lat="38.14360568318607" lon="-2.3243912073046378"><ele>1104.3333333333335</ele><time>2026-04-20T13:05:23Z</time></trkpt><trkpt lat="38.14366899737397" lon="-2.32458803619773"><ele>1106.0</ele><time>2026-04-20T13:05:24Z</time></trkpt><trkpt lat="38.14374628769889" lon="-2.32480682596798"><ele>1107.6666666666667</ele><time>2026-04-20T13:05:25Z</time></trkpt><trkpt lat="38.14383855660342" lon="-2.3249865175628717"><ele>1109.3333333333333</ele><time>2026-04-20T13:05:26Z</time></trkpt><trkpt lat="38.143899999986374" lon="-2.325188701487622"><ele>1111.0</ele><time>2026-04-20T13:05:27Z</time></trkpt><trkpt lat="38.1439592344672" lon="-2.3253781885575564"><ele>1111.0</ele><time>2026-04-20T13:05:28Z</time></trkpt><trkpt lat="38.14403843305952" lon="-2.325476322889561"><ele>1111.0</ele><time>2026-04-20T13:05:29Z</time></trkpt><trkpt lat="38.144102171923045" lon="-2.3255381397440265"><ele>1111.0</ele><time>2026-04-20T13:05:30Z</time></trkpt><trkpt lat="38.14430258947657" lon="-2.325836682697685"><ele>1113.3333333333333</ele><time>2026-04-20T13:05:31Z</time></trkpt><trkpt lat="38.14438343182261" lon="-2.326029006502682"><ele>1115.6666666666667</ele><time>2026-04-20T13:05:32Z</time></trkpt><trkpt lat="38.14441846402443" lon="-2.326255350780436"><ele>1118.0</ele><time>2026-04-20T13:05:33Z</time></trkpt><trkpt lat="38.14445605244243" lon="-2.3264788998953394"><ele>1118.0</ele><time>2026-04-20T13:05:34Z</time></trkpt><trkpt lat="38.144458641460425" lon="-2.3267143443742553"><ele>1118.0</ele><time>2026-04-20T13:05:35Z</time></trkpt><trkpt lat="38.144436830747615" lon="-2.326948285783292"><ele>1118.0</ele><time>2026-04-20T13:05:36Z</time></trkpt><trkpt lat="38.14440588196625" lon="-2.327153245412223"><ele>1116.0</ele><time>2026-04-20T13:05:37Z</time></trkpt><trkpt lat="38.14439777397456" lon="-2.3273255227867864"><ele>1114.0</ele><time>2026-04-20T13:05:38Z</time></trkpt><trkpt lat="38.14447768728957" lon="-2.3274622710072257"><ele>1112.0</ele><time>2026-04-20T13:05:39Z</time></trkpt><trkpt lat="38.144579436723966" lon="-2.3275862506208833"><ele>1110.0</ele><time>2026-04-20T13:05:40Z</time></trkpt><trkpt lat="38.14468697526808" lon="-2.3277429126478517"><ele>1110.0</ele><time>2026-04-20T13:05:41Z</time></trkpt><trkpt lat="38.144814506335656" lon="-2.32788505207086"><ele>1110.0</ele><time>2026-04-20T13:05:42Z</time></trkpt><trkpt lat="38.14492989049344" lon="-2.3280303581629926"><ele>1110.0</ele><time>2026-04-20T13:05:43Z</time></trkpt><trkpt lat="38.145023850710466" lon="-2.3281755956635837"><ele>1118.6666666666667</ele><time>2026-04-20T13:05:44Z</time></trkpt><trkpt lat="38.14509379716359" lon="-2.328353744476695"><ele>1127.3333333333335</ele><time>2026-04-20T13:05:45Z</time></trkpt><trkpt lat="38.145097373484916" lon="-2.328573009777837"><ele>1136.0</ele><time>2026-04-20T13:05:46Z</time></trkpt><trkpt lat="38.14508932307723" lon="-2.328811190867618"><ele>1133.3333333333335</ele><time>2026-04-20T13:05:47Z</time></trkpt><trkpt lat="38.145084516228756" lon="-2.329060667020448"><ele>1130.6666666666667</ele><time>2026-04-20T13:05:48Z</time></trkpt><trkpt lat="38.145066372263656" lon="-2.329309725821802"><ele>1128.0</ele><time>2026-04-20T13:05:49Z</time></trkpt><trkpt lat="38.1450444477093" lon="-2.329564339831838"><ele>1126.6666666666667</ele><time>2026-04-20T13:05:50Z</time></trkpt><trkpt lat="38.14502407521281" lon="-2.3298237259092387"><ele>1125.3333333333335</ele><time>2026-04-20T13:05:51Z</time></trkpt><trkpt lat="38.14500064853528" lon="-2.330085282062369"><ele>1124.0</ele><time>2026-04-20T13:05:52Z</time></trkpt><trkpt lat="38.14497839402773" lon="-2.3303467235802744"><ele>1123.6666666666667</ele><time>2026-04-20T13:05:53Z</time></trkpt><trkpt lat="38.144955059124904" lon="-2.3306021374395183"><ele>1123.3333333333333</ele><time>2026-04-20T13:05:54Z</time></trkpt><trkpt lat="38.144928200829504" lon="-2.3308415111842757"><ele>1123.0</ele><time>2026-04-20T13:05:55Z</time></trkpt><trkpt lat="38.14491416434949" lon="-2.331055544912103"><ele>1123.0</ele><time>2026-04-20T13:05:56Z</time></trkpt><trkpt lat="38.14495997795553" lon="-2.331263186318124"><ele>1123.0</ele><time>2026-04-20T13:05:57Z</time></trkpt><trkpt lat="38.14503303033687" lon="-2.331447721218178"><ele>1123.0</ele><time>2026-04-20T13:05:58Z</time></trkpt><trkpt lat="38.14514607141599" lon="-2.3316002731049115"><ele>1120.3333333333333</ele><time>2026-04-20T13:05:59Z</time></trkpt><trkpt lat="38.145275194508336" lon="-2.331769524005199"><ele>1117.6666666666667</ele><time>2026-04-20T13:06:00Z</time></trkpt><trkpt lat="38.14541241332517" lon="-2.331963368559666"><ele>1115.0</ele><time>2026-04-20T13:06:01Z</time></trkpt><trkpt lat="38.14554735169548" lon="-2.3321431219759927"><ele>1113.6666666666667</ele><time>2026-04-20T13:06:02Z</time></trkpt><trkpt lat="38.145680080624345" lon="-2.3323195051866166"><ele>1112.3333333333333</ele><time>2026-04-20T13:06:03.001Z</time></trkpt><trkpt lat="38.14580656659149" lon="-2.332487386260432"><ele>1111.0</ele><time>2026-04-20T13:06:04.001Z</time></trkpt><trkpt lat="38.14593071837632" lon="-2.332652351756435"><ele>1113.3333333333333</ele><time>2026-04-20T13:06:05.001Z</time></trkpt><trkpt lat="38.14605132283771" lon="-2.3328221413151957"><ele>1115.6666666666667</ele><time>2026-04-20T13:06:06.001Z</time></trkpt><trkpt lat="38.14615888190291" lon="-2.3330183744800395"><ele>1118.0</ele><time>2026-04-20T13:06:07.001Z</time></trkpt><trkpt lat="38.1462409390173" lon="-2.3332445221408404"><ele>1118.0</ele><time>2026-04-20T13:06:08.001Z</time></trkpt><trkpt lat="38.146299843901105" lon="-2.3334802956878766"><ele>1118.0</ele><time>2026-04-20T13:06:09.001Z</time></trkpt><trkpt lat="38.146357276563535" lon="-2.3337234645268827"><ele>1118.0</ele><time>2026-04-20T13:06:10.001Z</time></trkpt><trkpt lat="38.146427427918134" lon="-2.3339603738241412"><ele>1117.0</ele><time>2026-04-20T13:06:11.001Z</time></trkpt><trkpt lat="38.14652941576835" lon="-2.334174748360363"><ele>1116.0</ele><time>2026-04-20T13:06:12.001Z</time></trkpt><trkpt lat="38.146642442727966" lon="-2.334381193852474"><ele>1115.0</ele><time>2026-04-20T13:06:13.001Z</time></trkpt><trkpt lat="38.14675020380957" lon="-2.334597935996971"><ele>1117.0</ele><time>2026-04-20T13:06:14.001Z</time></trkpt><trkpt lat="38.146879415282356" lon="-2.3347946798973296"><ele>1119.0</ele><time>2026-04-20T13:06:15.001Z</time></trkpt><trkpt lat="38.147009106969165" lon="-2.334998803156696"><ele>1121.0</ele><time>2026-04-20T13:06:16.001Z</time></trkpt><trkpt lat="38.14713715377783" lon="-2.3352033658049467"><ele>1121.0</ele><time>2026-04-20T13:06:17.001Z</time></trkpt><trkpt lat="38.14726038068491" lon="-2.3354001681975136"><ele>1121.0</ele><time>2026-04-20T13:06:18.001Z</time></trkpt><trkpt lat="38.147377375920726" lon="-2.3356097434703718"><ele>1121.0</ele><time>2026-04-20T13:06:19.001Z</time></trkpt><trkpt lat="38.14746549185211" lon="-2.335847526146891"><ele>1122.0</ele><time>2026-04-20T13:06:20.001Z</time></trkpt><trkpt lat="38.14753150206259" lon="-2.336106215857807"><ele>1123.0</ele><time>2026-04-20T13:06:21.001Z</time></trkpt><trkpt lat="38.1476005523958" lon="-2.336346828499096"><ele>1124.0</ele><time>2026-04-20T13:06:22.001Z</time></trkpt><trkpt lat="38.14768308323123" lon="-2.3365608629239376"><ele>1124.0</ele><time>2026-04-20T13:06:23.001Z</time></trkpt><trkpt lat="38.14777921571511" lon="-2.3367537714456867"><ele>1124.0</ele><time>2026-04-20T13:06:24.001Z</time></trkpt><trkpt lat="38.147903485263335" lon="-2.3369342738550163"><ele>1124.0</ele><time>2026-04-20T13:06:25.001Z</time></trkpt><trkpt lat="38.148014313317404" lon="-2.3371226536404848"><ele>1123.3333333333335</ele><time>2026-04-20T13:06:26.001Z</time></trkpt><trkpt lat="38.14814166213453" lon="-2.3373097586288027"><ele>1122.6666666666667</ele><time>2026-04-20T13:06:27.001Z</time></trkpt><trkpt lat="38.14823587620438" lon="-2.337539982177561"><ele>1122.0</ele><time>2026-04-20T13:06:28.001Z</time></trkpt><trkpt lat="38.148298185504714" lon="-2.337792313848048"><ele>1125.6666666666667</ele><time>2026-04-20T13:06:29.001Z</time></trkpt><trkpt lat="38.14834131582779" lon="-2.3380595552564767"><ele>1129.3333333333335</ele><time>2026-04-20T13:06:30.001Z</time></trkpt><trkpt lat="38.148377312951105" lon="-2.338321059254889"><ele>1133.0</ele><time>2026-04-20T13:06:31.001Z</time></trkpt><trkpt lat="38.14839617012599" lon="-2.3385829540400933"><ele>1133.0</ele><time>2026-04-20T13:06:32.001Z</time></trkpt><trkpt lat="38.1483999455194" lon="-2.3388419414911836"><ele>1133.0</ele><time>2026-04-20T13:06:33.001Z</time></trkpt><trkpt lat="38.14840538205529" lon="-2.3390956248505503"><ele>1133.0</ele><time>2026-04-20T13:06:34.001Z</time></trkpt><trkpt lat="38.1484129882702" lon="-2.339349173782174"><ele>1132.0</ele><time>2026-04-20T13:06:35.001Z</time></trkpt><trkpt lat="38.14843043977686" lon="-2.339605509870927"><ele>1131.0</ele><time>2026-04-20T13:06:36.001Z</time></trkpt><trkpt lat="38.14846105034454" lon="-2.3398583235230688"><ele>1130.0</ele><time>2026-04-20T13:06:37.001Z</time></trkpt><trkpt lat="38.14849650232108" lon="-2.3401125710450756"><ele>1130.3333333333335</ele><time>2026-04-20T13:06:38.001Z</time></trkpt><trkpt lat="38.148519981949086" lon="-2.340369314113192"><ele>1130.6666666666667</ele><time>2026-04-20T13:06:39.001Z</time></trkpt><trkpt lat="38.148527897996985" lon="-2.3406314967206825"><ele>1131.0</ele><time>2026-04-20T13:06:40.001Z</time></trkpt><trkpt lat="38.14851901668105" lon="-2.340895887918143"><ele>1131.0</ele><time>2026-04-20T13:06:41.001Z</time></trkpt><trkpt lat="38.14849019860288" lon="-2.3411662680495686"><ele>1131.0</ele><time>2026-04-20T13:06:42.001Z</time></trkpt><trkpt lat="38.148461068925435" lon="-2.3414225949448224"><ele>1131.0</ele><time>2026-04-20T13:06:43.001Z</time></trkpt><trkpt lat="38.1484366865634" lon="-2.341664248856532"><ele>1131.6666666666667</ele><time>2026-04-20T13:06:44.001Z</time></trkpt><trkpt lat="38.14840938710655" lon="-2.3418910835043527"><ele>1132.3333333333335</ele><time>2026-04-20T13:06:45.001Z</time></trkpt><trkpt lat="38.148404293069355" lon="-2.3421190620156573"><ele>1133.0</ele><time>2026-04-20T13:06:46.001Z</time></trkpt><trkpt lat="38.148443146653555" lon="-2.3423468240806877"><ele>1133.0</ele><time>2026-04-20T13:06:47.001Z</time></trkpt><trkpt lat="38.14847542951657" lon="-2.3425896913315145"><ele>1133.0</ele><time>2026-04-20T13:06:48.001Z</time></trkpt><trkpt lat="38.14853070099855" lon="-2.3428203396712535"><ele>1133.0</ele><time>2026-04-20T13:06:49.001Z</time></trkpt><trkpt lat="38.14858896733676" lon="-2.3430544760866954"><ele>1132.3333333333335</ele><time>2026-04-20T13:06:50.001Z</time></trkpt><trkpt lat="38.148660737029324" lon="-2.3432902498357175"><ele>1131.6666666666667</ele><time>2026-04-20T13:06:51.001Z</time></trkpt><trkpt lat="38.148751421080924" lon="-2.3435244626355147"><ele>1131.0</ele><time>2026-04-20T13:06:52.001Z</time></trkpt><trkpt lat="38.14883735091993" lon="-2.34376756072513"><ele>1130.0</ele><time>2026-04-20T13:06:53.001Z</time></trkpt><trkpt lat="38.14890070056517" lon="-2.3440230418056043"><ele>1129.0</ele><time>2026-04-20T13:06:54.001Z</time></trkpt><trkpt lat="38.14895375934836" lon="-2.344285270803207"><ele>1128.0</ele><time>2026-04-20T13:06:55.001Z</time></trkpt><trkpt lat="38.14902148695531" lon="-2.3445340320961248"><ele>1133.0</ele><time>2026-04-20T13:06:56.001Z</time></trkpt><trkpt lat="38.149119482753356" lon="-2.344780077468244"><ele>1138.0</ele><time>2026-04-20T13:06:57.001Z</time></trkpt><trkpt lat="38.14922643047958" lon="-2.345019415755905"><ele>1143.0</ele><time>2026-04-20T13:06:58.001Z</time></trkpt><trkpt lat="38.149337356662485" lon="-2.345256555061869"><ele>1143.0</ele><time>2026-04-20T13:06:59.001Z</time></trkpt><trkpt lat="38.149459442914974" lon="-2.345485916313191"><ele>1143.0</ele><time>2026-04-20T13:07:00.001Z</time></trkpt><trkpt lat="38.149573333315146" lon="-2.3457198468411615"><ele>1143.0</ele><time>2026-04-20T13:07:01.001Z</time></trkpt><trkpt lat="38.14968212350827" lon="-2.345958800958883"><ele>1143.3333333333333</ele><time>2026-04-20T13:07:02.001Z</time></trkpt><trkpt lat="38.14978547154301" lon="-2.346198925407839"><ele>1143.6666666666665</ele><time>2026-04-20T13:07:03.001Z</time></trkpt><trkpt lat="38.14989070672142" lon="-2.3464300680735652"><ele>1144.0</ele><time>2026-04-20T13:07:04.001Z</time></trkpt><trkpt lat="38.150007236784624" lon="-2.3466520663937245"><ele>1144.0</ele><time>2026-04-20T13:07:05.001Z</time></trkpt><trkpt lat="38.150146051188564" lon="-2.3468603020634773"><ele>1144.0</ele><time>2026-04-20T13:07:06.001Z</time></trkpt><trkpt lat="38.15029351802976" lon="-2.3470423867263785"><ele>1144.0</ele><time>2026-04-20T13:07:07.001Z</time></trkpt><trkpt lat="38.15043465951969" lon="-2.347188245322507"><ele>1144.0</ele><time>2026-04-20T13:07:08Z</time></trkpt><trkpt lat="38.1505581143208" lon="-2.347303993519594"><ele>1144.0</ele><time>2026-04-20T13:07:09Z</time></trkpt><trkpt lat="38.15065646572254" lon="-2.347400253517808"><ele>1144.0</ele><time>2026-04-20T13:07:10Z</time></trkpt><trkpt lat="38.150718717871285" lon="-2.347506178978905"><ele>1144.0</ele><time>2026-04-20T13:07:11Z</time></trkpt><trkpt lat="38.150737383552375" lon="-2.3476491232568746"><ele>1144.0</ele><time>2026-04-20T13:07:12Z</time></trkpt><trkpt lat="38.150716559325915" lon="-2.3478219174275154"><ele>1144.0</ele><time>2026-04-20T13:07:13Z</time></trkpt><trkpt lat="38.150652626356155" lon="-2.3479771626194434"><ele>1144.0</ele><time>2026-04-20T13:07:14Z</time></trkpt><trkpt lat="38.150537525230185" lon="-2.348087287358687"><ele>1144.0</ele><time>2026-04-20T13:07:15Z</time></trkpt><trkpt lat="38.15038889691854" lon="-2.3481334093286805"><ele>1145.3333333333333</ele><time>2026-04-20T13:07:16Z</time></trkpt><trkpt lat="38.15021333670254" lon="-2.348150112747608"><ele>1146.6666666666667</ele><time>2026-04-20T13:07:17Z</time></trkpt><trkpt lat="38.150025155872086" lon="-2.348149957189709"><ele>1148.0</ele><time>2026-04-20T13:07:18Z</time></trkpt><trkpt lat="38.14982183062937" lon="-2.3481578570426764"><ele>1148.0</ele><time>2026-04-20T13:07:19Z</time></trkpt><trkpt lat="38.1496203137952" lon="-2.348167849039246"><ele>1148.0</ele><time>2026-04-20T13:07:20Z</time></trkpt><trkpt lat="38.149426164564574" lon="-2.3481807010506817"><ele>1148.0</ele><time>2026-04-20T13:07:21Z</time></trkpt><trkpt lat="38.14925103794755" lon="-2.3481841366560183"><ele>1148.0</ele><time>2026-04-20T13:07:22Z</time></trkpt><trkpt lat="38.14910740303626" lon="-2.3481767715380504"><ele>1148.0</ele><time>2026-04-20T13:07:23Z</time></trkpt><trkpt lat="38.14898650515499" lon="-2.3481944516224025"><ele>1148.0</ele><time>2026-04-20T13:07:24Z</time></trkpt><trkpt lat="38.148874175863035" lon="-2.34828757656535"><ele>1148.0</ele><time>2026-04-20T13:07:25Z</time></trkpt><trkpt lat="38.14877194623235" lon="-2.3484390318499724"><ele>1150.0</ele><time>2026-04-20T13:07:26Z</time></trkpt><trkpt lat="38.14865772330619" lon="-2.3486231690200325"><ele>1152.0</ele><time>2026-04-20T13:07:27Z</time></trkpt><trkpt lat="38.14854946422631" lon="-2.3488214400194796"><ele>1154.0</ele><time>2026-04-20T13:07:28Z</time></trkpt><trkpt lat="38.14845678509203" lon="-2.349032644598404"><ele>1154.0</ele><time>2026-04-20T13:07:29Z</time></trkpt><trkpt lat="38.148380746148966" lon="-2.3492272701517614"><ele>1154.0</ele><time>2026-04-20T13:07:30Z</time></trkpt><trkpt lat="38.14828864988988" lon="-2.3494104642649116"><ele>1154.0</ele><time>2026-04-20T13:07:31Z</time></trkpt><trkpt lat="38.14814501564179" lon="-2.34955854957822"><ele>1153.3333333333335</ele><time>2026-04-20T13:07:32Z</time></trkpt><trkpt lat="38.147977165072874" lon="-2.349702562545686"><ele>1152.6666666666667</ele><time>2026-04-20T13:07:33Z</time></trkpt><trkpt lat="38.14781888470371" lon="-2.3498396513298725"><ele>1152.0</ele><time>2026-04-20T13:07:34Z</time></trkpt><trkpt lat="38.14766325308724" lon="-2.3499606710405607"><ele>1152.0</ele><time>2026-04-20T13:07:35Z</time></trkpt><trkpt lat="38.14749853180858" lon="-2.350072568483098"><ele>1152.0</ele><time>2026-04-20T13:07:36Z</time></trkpt><trkpt lat="38.14731955193988" lon="-2.350141764736633"><ele>1152.0</ele><time>2026-04-20T13:07:37Z</time></trkpt><trkpt lat="38.14712527979736" lon="-2.3501760684566397"><ele>1149.3333333333333</ele><time>2026-04-20T13:07:38Z</time></trkpt><trkpt lat="38.146927458375345" lon="-2.3501857394547163"><ele>1146.6666666666665</ele><time>2026-04-20T13:07:39Z</time></trkpt><trkpt lat="38.14672853376486" lon="-2.3501998933863093"><ele>1144.0</ele><time>2026-04-20T13:07:40Z</time></trkpt><trkpt lat="38.14652876709647" lon="-2.3502217568539017"><ele>1144.0</ele><time>2026-04-20T13:07:41Z</time></trkpt><trkpt lat="38.146333269920426" lon="-2.350264464814032"><ele>1144.0</ele><time>2026-04-20T13:07:42Z</time></trkpt><trkpt lat="38.14614553758417" lon="-2.350336688046323"><ele>1144.0</ele><time>2026-04-20T13:07:43Z</time></trkpt><trkpt lat="38.14598094260512" lon="-2.350397344788922"><ele>1144.0</ele><time>2026-04-20T13:07:44Z</time></trkpt><trkpt lat="38.14581629256412" lon="-2.350439004256579"><ele>1144.0</ele><time>2026-04-20T13:07:45Z</time></trkpt><trkpt lat="38.14566087100265" lon="-2.350451264520248"><ele>1144.0</ele><time>2026-04-20T13:07:46Z</time></trkpt><trkpt lat="38.14550720899813" lon="-2.3504290745017244"><ele>1143.6666666666665</ele><time>2026-04-20T13:07:47Z</time></trkpt><trkpt lat="38.14534190627723" lon="-2.3503724659815872"><ele>1143.3333333333333</ele><time>2026-04-20T13:07:48Z</time></trkpt><trkpt lat="38.14519206049216" lon="-2.3502883431582724"><ele>1143.0</ele><time>2026-04-20T13:07:49Z</time></trkpt><trkpt lat="38.14505789915021" lon="-2.350239265949506"><ele>1143.0</ele><time>2026-04-20T13:07:50Z</time></trkpt><trkpt lat="38.14490749159267" lon="-2.3502782271873777"><ele>1143.0</ele><time>2026-04-20T13:07:51Z</time></trkpt><trkpt lat="38.14472992102717" lon="-2.3503037815728427"><ele>1143.0</ele><time>2026-04-20T13:07:52Z</time></trkpt><trkpt lat="38.14455265037933" lon="-2.350382689228487"><ele>1141.3333333333333</ele><time>2026-04-20T13:07:53Z</time></trkpt><trkpt lat="38.144383316260445" lon="-2.3504933879823207"><ele>1139.6666666666665</ele><time>2026-04-20T13:07:54Z</time></trkpt><trkpt lat="38.14422134163322" lon="-2.350633607093625"><ele>1138.0</ele><time>2026-04-20T13:07:55Z</time></trkpt><trkpt lat="38.144073106000185" lon="-2.350782647635295"><ele>1139.0</ele><time>2026-04-20T13:07:56Z</time></trkpt><trkpt lat="38.143936097963866" lon="-2.3509215621711044"><ele>1140.0</ele><time>2026-04-20T13:07:57Z</time></trkpt><trkpt lat="38.143803934029584" lon="-2.351056152903579"><ele>1141.0</ele><time>2026-04-20T13:07:58Z</time></trkpt><trkpt lat="38.14368471462972" lon="-2.351213874845146"><ele>1144.3333333333333</ele><time>2026-04-20T13:07:59Z</time></trkpt><trkpt lat="38.143584063471295" lon="-2.3514056691744947"><ele>1147.6666666666667</ele><time>2026-04-20T13:08:00.001Z</time></trkpt><trkpt lat="38.143491165743555" lon="-2.351620457967855"><ele>1151.0</ele><time>2026-04-20T13:08:01.001Z</time></trkpt><trkpt lat="38.14340600081665" lon="-2.3518460157355334"><ele>1151.0</ele><time>2026-04-20T13:08:02.001Z</time></trkpt><trkpt lat="38.143325203956245" lon="-2.352068959392938"><ele>1151.0</ele><time>2026-04-20T13:08:03.001Z</time></trkpt><trkpt lat="38.143239064051514" lon="-2.3522944977923226"><ele>1151.0</ele><time>2026-04-20T13:08:04.001Z</time></trkpt><trkpt lat="38.14314489713021" lon="-2.352518576308083"><ele>1151.6666666666667</ele><time>2026-04-20T13:08:05.001Z</time></trkpt><trkpt lat="38.14304576942263" lon="-2.352738056869531"><ele>1152.3333333333333</ele><time>2026-04-20T13:08:06.001Z</time></trkpt><trkpt lat="38.142940791571775" lon="-2.3529477459756833"><ele>1153.0</ele><time>2026-04-20T13:08:07.001Z</time></trkpt><trkpt lat="38.142833868521116" lon="-2.3531537652095866"><ele>1153.0</ele><time>2026-04-20T13:08:08.001Z</time></trkpt><trkpt lat="38.14272285939109" lon="-2.353350162489468"><ele>1153.0</ele><time>2026-04-20T13:08:09.001Z</time></trkpt><trkpt lat="38.14261189104274" lon="-2.3535449250398925"><ele>1153.0</ele><time>2026-04-20T13:08:10.001Z</time></trkpt><trkpt lat="38.14250958496082" lon="-2.353742983454645"><ele>1151.0</ele><time>2026-04-20T13:08:11.001Z</time></trkpt><trkpt lat="38.142416437667315" lon="-2.3539504510595854"><ele>1149.0</ele><time>2026-04-20T13:08:12.001Z</time></trkpt><trkpt lat="38.14234132308949" lon="-2.3541781982681047"><ele>1147.0</ele><time>2026-04-20T13:08:13.001Z</time></trkpt><trkpt lat="38.14228409930581" lon="-2.354418397209933"><ele>1147.0</ele><time>2026-04-20T13:08:14.001Z</time></trkpt><trkpt lat="38.142235803517686" lon="-2.3546549446562364"><ele>1147.0</ele><time>2026-04-20T13:08:15.001Z</time></trkpt><trkpt lat="38.14220415026824" lon="-2.3548827061613076"><ele>1147.0</ele><time>2026-04-20T13:08:16.001Z</time></trkpt><trkpt lat="38.14219650045638" lon="-2.3551326564626724"><ele>1148.0</ele><time>2026-04-20T13:08:17.001Z</time></trkpt><trkpt lat="38.142212400202446" lon="-2.355389493746021"><ele>1149.0</ele><time>2026-04-20T13:08:18.001Z</time></trkpt><trkpt lat="38.14222733630446" lon="-2.3556481368887123"><ele>1150.0</ele><time>2026-04-20T13:08:19.001Z</time></trkpt><trkpt lat="38.14223299201192" lon="-2.355902971442478"><ele>1151.0</ele><time>2026-04-20T13:08:20.001Z</time></trkpt><trkpt lat="38.14224415520963" lon="-2.3561607446166666"><ele>1152.0</ele><time>2026-04-20T13:08:21.001Z</time></trkpt><trkpt lat="38.142253316593454" lon="-2.35640720395709"><ele>1153.0</ele><time>2026-04-20T13:08:22.001Z</time></trkpt><trkpt lat="38.14226033216097" lon="-2.3566521357226873"><ele>1154.6666666666665</ele><time>2026-04-20T13:08:23.001Z</time></trkpt><trkpt lat="38.14226537609194" lon="-2.3568945881316923"><ele>1156.3333333333333</ele><time>2026-04-20T13:08:24.001Z</time></trkpt><trkpt lat="38.1422695674733" lon="-2.357135157784557"><ele>1158.0</ele><time>2026-04-20T13:08:25.001Z</time></trkpt><trkpt lat="38.1422846746554" lon="-2.3573748784525184"><ele>1160.3333333333333</ele><time>2026-04-20T13:08:26.001Z</time></trkpt><trkpt lat="38.14232718833418" lon="-2.357613189954822"><ele>1162.6666666666665</ele><time>2026-04-20T13:08:27.001Z</time></trkpt><trkpt lat="38.142390934805256" lon="-2.3578167572499606"><ele>1165.0</ele><time>2026-04-20T13:08:28.001Z</time></trkpt><trkpt lat="38.142466638959654" lon="-2.3580108339564783"><ele>1163.0</ele><time>2026-04-20T13:08:29.001Z</time></trkpt><trkpt lat="38.14257100422632" lon="-2.358194123871676"><ele>1161.0</ele><time>2026-04-20T13:08:30.001Z</time></trkpt><trkpt lat="38.14269352862247" lon="-2.3583647607876723"><ele>1159.0</ele><time>2026-04-20T13:08:31.001Z</time></trkpt><trkpt lat="38.1428117264145" lon="-2.3585563304506296"><ele>1159.0</ele><time>2026-04-20T13:08:32.001Z</time></trkpt><trkpt lat="38.14288897423277" lon="-2.3587794766057946"><ele>1159.0</ele><time>2026-04-20T13:08:33.001Z</time></trkpt><trkpt lat="38.14293860798921" lon="-2.3590254952874967"><ele>1159.0</ele><time>2026-04-20T13:08:34.001Z</time></trkpt><trkpt lat="38.14299276283947" lon="-2.3592805930514844"><ele>1157.6666666666665</ele><time>2026-04-20T13:08:35.001Z</time></trkpt><trkpt lat="38.143043005982676" lon="-2.359539570486725"><ele>1156.3333333333333</ele><time>2026-04-20T13:08:36.001Z</time></trkpt><trkpt lat="38.14307287581223" lon="-2.3598125541713273"><ele>1155.0</ele><time>2026-04-20T13:08:37.001Z</time></trkpt><trkpt lat="38.14308749901802" lon="-2.360000549782475"><ele>1155.0</ele><time>2026-04-20T13:08:38.001Z</time></trkpt><trkpt lat="38.1430766903614" lon="-2.3602622129208277"><ele>1155.0</ele><time>2026-04-20T13:08:39.001Z</time></trkpt><trkpt lat="38.14306286454774" lon="-2.3605270570881984"><ele>1155.0</ele><time>2026-04-20T13:08:40.001Z</time></trkpt><trkpt lat="38.14305866814654" lon="-2.3607983559963954"><ele>1156.0</ele><time>2026-04-20T13:08:41.001Z</time></trkpt><trkpt lat="38.1430359004669" lon="-2.3610651388591593"><ele>1157.0</ele><time>2026-04-20T13:08:42.001Z</time></trkpt><trkpt lat="38.14301602045409" lon="-2.3613366106214233"><ele>1158.0</ele><time>2026-04-20T13:08:43.001Z</time></trkpt><trkpt lat="38.14299160403812" lon="-2.3616053631931337"><ele>1158.6666666666667</ele><time>2026-04-20T13:08:44.001Z</time></trkpt><trkpt lat="38.14294548303917" lon="-2.361844410123825"><ele>1159.3333333333335</ele><time>2026-04-20T13:08:45.001Z</time></trkpt><trkpt lat="38.14289903599294" lon="-2.3620842177298846"><ele>1160.0</ele><time>2026-04-20T13:08:46.001Z</time></trkpt><trkpt lat="38.142830307698716" lon="-2.3623181219617364"><ele>1162.3333333333335</ele><time>2026-04-20T13:08:47.001Z</time></trkpt><trkpt lat="38.14274403145052" lon="-2.362546028147073"><ele>1164.6666666666667</ele><time>2026-04-20T13:08:48.001Z</time></trkpt><trkpt lat="38.142640329731115" lon="-2.362769526209133"><ele>1167.0</ele><time>2026-04-20T13:08:49.001Z</time></trkpt><trkpt lat="38.14252337343153" lon="-2.3629870167650364"><ele>1164.6666666666667</ele><time>2026-04-20T13:08:50.001Z</time></trkpt><trkpt lat="38.142419002602225" lon="-2.3632071379941597"><ele>1162.3333333333335</ele><time>2026-04-20T13:08:51.001Z</time></trkpt><trkpt lat="38.14230031308228" lon="-2.3633995446439497"><ele>1160.0</ele><time>2026-04-20T13:08:52.001Z</time></trkpt><trkpt lat="38.14219389632569" lon="-2.363575567857796"><ele>1160.0</ele><time>2026-04-20T13:08:53.001Z</time></trkpt><trkpt lat="38.14207820052311" lon="-2.3637338934454086"><ele>1160.0</ele><time>2026-04-20T13:08:54.001Z</time></trkpt><trkpt lat="38.14196161384294" lon="-2.363888458522299"><ele>1160.0</ele><time>2026-04-20T13:08:55.001Z</time></trkpt><trkpt lat="38.14191543777041" lon="-2.364096803131297"><ele>1162.0</ele><time>2026-04-20T13:08:56.001Z</time></trkpt><trkpt lat="38.141862097143694" lon="-2.3643242554918826"><ele>1164.0</ele><time>2026-04-20T13:08:57.001Z</time></trkpt><trkpt lat="38.14181346277524" lon="-2.3645630455504443"><ele>1166.0</ele><time>2026-04-20T13:08:58.001Z</time></trkpt><trkpt lat="38.14176713391395" lon="-2.3647949980832177"><ele>1169.0</ele><time>2026-04-20T13:08:59.001Z</time></trkpt><trkpt lat="38.141709552684645" lon="-2.3650111581795237"><ele>1172.0</ele><time>2026-04-20T13:09:00.001Z</time></trkpt><trkpt lat="38.14168238603302" lon="-2.365208600224183"><ele>1175.0</ele><time>2026-04-20T13:09:01.001Z</time></trkpt><trkpt lat="38.141633302231185" lon="-2.3654076171697196"><ele>1176.6666666666667</ele><time>2026-04-20T13:09:02.001Z</time></trkpt><trkpt lat="38.14158781226023" lon="-2.365618416554211"><ele>1178.3333333333333</ele><time>2026-04-20T13:09:03.001Z</time></trkpt><trkpt lat="38.141558006532755" lon="-2.36581165930837"><ele>1180.0</ele><time>2026-04-20T13:09:04.001Z</time></trkpt><trkpt lat="38.14154878690497" lon="-2.3660043117569214"><ele>1180.0</ele><time>2026-04-20T13:09:05.001Z</time></trkpt><trkpt lat="38.14156246396263" lon="-2.3662154014620387"><ele>1180.0</ele><time>2026-04-20T13:09:06.001Z</time></trkpt><trkpt lat="38.14159163714466" lon="-2.366431739901643"><ele>1180.0</ele><time>2026-04-20T13:09:07.001Z</time></trkpt><trkpt lat="38.141632529288266" lon="-2.366659842954164"><ele>1179.6666666666665</ele><time>2026-04-20T13:09:08.001Z</time></trkpt><trkpt lat="38.14167713619505" lon="-2.3668878279125125"><ele>1179.3333333333333</ele><time>2026-04-20T13:09:09.001Z</time></trkpt><trkpt lat="38.14171438589137" lon="-2.367129209305326"><ele>1179.0</ele><time>2026-04-20T13:09:10.001Z</time></trkpt><trkpt lat="38.14173810381617" lon="-2.367373516521054"><ele>1179.0</ele><time>2026-04-20T13:09:11.001Z</time></trkpt><trkpt lat="38.14175357647242" lon="-2.3676208881184517"><ele>1179.0</ele><time>2026-04-20T13:09:12.001Z</time></trkpt><trkpt lat="38.141738726609155" lon="-2.3678712200138"><ele>1179.0</ele><time>2026-04-20T13:09:13.001Z</time></trkpt><trkpt lat="38.14170760877966" lon="-2.368122534407252"><ele>1180.3333333333333</ele><time>2026-04-20T13:09:14Z</time></trkpt><trkpt lat="38.14168108100109" lon="-2.368369763195395"><ele>1181.6666666666665</ele><time>2026-04-20T13:09:15Z</time></trkpt><trkpt lat="38.141702203302216" lon="-2.3685992933813163"><ele>1183.0</ele><time>2026-04-20T13:09:16Z</time></trkpt><trkpt lat="38.14171768564573" lon="-2.368832918415386"><ele>1188.3333333333333</ele><time>2026-04-20T13:09:17Z</time></trkpt><trkpt lat="38.14174540440396" lon="-2.3690462867393434"><ele>1193.6666666666667</ele><time>2026-04-20T13:09:18Z</time></trkpt><trkpt lat="38.141743954379265" lon="-2.3692422545659824"><ele>1199.0</ele><time>2026-04-20T13:09:19Z</time></trkpt><trkpt lat="38.141735149154144" lon="-2.3694080713942602"><ele>1199.0</ele><time>2026-04-20T13:09:20Z</time></trkpt><trkpt lat="38.14175132810819" lon="-2.3695606329445345"><ele>1199.0</ele><time>2026-04-20T13:09:21Z</time></trkpt><trkpt lat="38.14181255739392" lon="-2.369710735421649"><ele>1199.0</ele><time>2026-04-20T13:09:22Z</time></trkpt><trkpt lat="38.14191705871988" lon="-2.3698609715675745"><ele>1199.0</ele><time>2026-04-20T13:09:23Z</time></trkpt><trkpt lat="38.142019913175496" lon="-2.3700062848483734"><ele>1192.6666666666667</ele><time>2026-04-20T13:09:24Z</time></trkpt><trkpt lat="38.142100689896765" lon="-2.370154512063794"><ele>1186.3333333333333</ele><time>2026-04-20T13:09:25Z</time></trkpt><trkpt lat="38.142124154135196" lon="-2.370340552551934"><ele>1180.0</ele><time>2026-04-20T13:09:26Z</time></trkpt><trkpt lat="38.142149224152064" lon="-2.3705460294732217"><ele>1177.6666666666665</ele><time>2026-04-20T13:09:27Z</time></trkpt><trkpt lat="38.14215633659412" lon="-2.370759916373045"><ele>1175.3333333333333</ele><time>2026-04-20T13:09:28Z</time></trkpt><trkpt lat="38.14215793071876" lon="-2.3709548925438577"><ele>1173.0</ele><time>2026-04-20T13:09:29Z</time></trkpt><trkpt lat="38.14212099590002" lon="-2.3711407191567444"><ele>1173.0</ele><time>2026-04-20T13:09:30Z</time></trkpt><trkpt lat="38.142038840368336" lon="-2.3713162077166454"><ele>1173.0</ele><time>2026-04-20T13:09:31Z</time></trkpt><trkpt lat="38.14192404462735" lon="-2.3714754263244067"><ele>1173.0</ele><time>2026-04-20T13:09:32Z</time></trkpt><trkpt lat="38.14182631395847" lon="-2.3716420851652007"><ele>1176.0</ele><time>2026-04-20T13:09:33Z</time></trkpt><trkpt lat="38.141753918625355" lon="-2.3718142744494903"><ele>1179.0</ele><time>2026-04-20T13:09:34Z</time></trkpt><trkpt lat="38.141700540836794" lon="-2.371976019806457"><ele>1182.0</ele><time>2026-04-20T13:09:35Z</time></trkpt><trkpt lat="38.14165097017874" lon="-2.3721196749618723"><ele>1185.0</ele><time>2026-04-20T13:09:36Z</time></trkpt><trkpt lat="38.141590333356866" lon="-2.3722324668956536"><ele>1183.8</ele><time>2026-04-20T13:09:37Z</time></trkpt><trkpt lat="38.14150979939707" lon="-2.3723109699855573"><ele>1182.6</ele><time>2026-04-20T13:09:38Z</time></trkpt><trkpt lat="38.14141778510485" lon="-2.37233528691099"><ele>1181.4</ele><time>2026-04-20T13:09:39Z</time></trkpt><trkpt lat="38.14132273041633" lon="-2.372281313863822"><ele>1180.2</ele><time>2026-04-20T13:09:40Z</time></trkpt><trkpt lat="38.14124115376572" lon="-2.372170912211682"><ele>1179.0</ele><time>2026-04-20T13:09:41Z</time></trkpt><trkpt lat="38.14115402804377" lon="-2.372061955085652"><ele>1179.0</ele><time>2026-04-20T13:09:42Z</time></trkpt><trkpt lat="38.14104672013722" lon="-2.371994584332954"><ele>1179.0</ele><time>2026-04-20T13:09:43Z</time></trkpt><trkpt lat="38.14093080141374" lon="-2.3719857926612344"><ele>1179.0</ele><time>2026-04-20T13:09:44Z</time></trkpt><trkpt lat="38.140807474906346" lon="-2.372055596054164"><ele>1179.0</ele><time>2026-04-20T13:09:45Z</time></trkpt><trkpt lat="38.1406916769547" lon="-2.3722127459697093"><ele>1179.0</ele><time>2026-04-20T13:09:46Z</time></trkpt><trkpt lat="38.140553735848584" lon="-2.3723762898707745"><ele>1179.0</ele><time>2026-04-20T13:09:47Z</time></trkpt><trkpt lat="38.14040902494167" lon="-2.372552299781738"><ele>1179.0</ele><time>2026-04-20T13:09:48Z</time></trkpt><trkpt lat="38.14022678487038" lon="-2.372713219156213"><ele>1179.0</ele><time>2026-04-20T13:09:49Z</time></trkpt><trkpt lat="38.14002823157388" lon="-2.3728477031695565"><ele>1179.0</ele><time>2026-04-20T13:09:50Z</time></trkpt><trkpt lat="38.139850471451865" lon="-2.3729438075130207"><ele>1179.0</ele><time>2026-04-20T13:09:51Z</time></trkpt><trkpt lat="38.13968669107501" lon="-2.373033657333539"><ele>1179.3333333333333</ele><time>2026-04-20T13:09:52Z</time></trkpt><trkpt lat="38.13955211252079" lon="-2.373168909203671"><ele>1179.6666666666665</ele><time>2026-04-20T13:09:53Z</time></trkpt><trkpt lat="38.13942001084538" lon="-2.3733321973721195"><ele>1180.0</ele><time>2026-04-20T13:09:54Z</time></trkpt><trkpt lat="38.13929806758632" lon="-2.373528934706036"><ele>1180.0</ele><time>2026-04-20T13:09:55Z</time></trkpt><trkpt lat="38.13918411946999" lon="-2.373752445416714"><ele>1180.0</ele><time>2026-04-20T13:09:56Z</time></trkpt><trkpt lat="38.13907556400272" lon="-2.3739923561638343"><ele>1180.0</ele><time>2026-04-20T13:09:57Z</time></trkpt><trkpt lat="38.1389706164331" lon="-2.3742221946476203"><ele>1184.6666666666665</ele><time>2026-04-20T13:09:58.001Z</time></trkpt><trkpt lat="38.138923275344936" lon="-2.3744786919098453"><ele>1189.3333333333333</ele><time>2026-04-20T13:09:59.001Z</time></trkpt><trkpt lat="38.13889217081986" lon="-2.374733161461195"><ele>1194.0</ele><time>2026-04-20T13:10:00.001Z</time></trkpt><trkpt lat="38.138872326742245" lon="-2.374983657042683"><ele>1194.0</ele><time>2026-04-20T13:10:01.001Z</time></trkpt><trkpt lat="38.13884431736985" lon="-2.3752105816158275"><ele>1194.0</ele><time>2026-04-20T13:10:02.001Z</time></trkpt><trkpt lat="38.13882430059594" lon="-2.3754332463888717"><ele>1194.0</ele><time>2026-04-20T13:10:03.001Z</time></trkpt><trkpt lat="38.13885311023155" lon="-2.3756695380049155"><ele>1193.0</ele><time>2026-04-20T13:10:04.001Z</time></trkpt><trkpt lat="38.13888522207202" lon="-2.3759232965405466"><ele>1192.0</ele><time>2026-04-20T13:10:05.001Z</time></trkpt><trkpt lat="38.13889862212109" lon="-2.376168709432696"><ele>1191.0</ele><time>2026-04-20T13:10:06.001Z</time></trkpt><trkpt lat="38.1388846654937" lon="-2.376402190137241"><ele>1187.6666666666667</ele><time>2026-04-20T13:10:07.001Z</time></trkpt><trkpt lat="38.138906274182034" lon="-2.376624150903086"><ele>1184.3333333333335</ele><time>2026-04-20T13:10:08.001Z</time></trkpt><trkpt lat="38.13896196297552" lon="-2.376808890184392"><ele>1181.0</ele><time>2026-04-20T13:10:09.001Z</time></trkpt><trkpt lat="38.138986463773215" lon="-2.3769873214917174"><ele>1181.0</ele><time>2026-04-20T13:10:10.001Z</time></trkpt><trkpt lat="38.13898228757248" lon="-2.377185083127096"><ele>1181.0</ele><time>2026-04-20T13:10:11.001Z</time></trkpt><trkpt lat="38.13892158539638" lon="-2.3774070811367656"><ele>1181.0</ele><time>2026-04-20T13:10:12.001Z</time></trkpt><trkpt lat="38.13884125662631" lon="-2.377633714816558"><ele>1180.6666666666667</ele><time>2026-04-20T13:10:13.001Z</time></trkpt><trkpt lat="38.13878151416563" lon="-2.377871908253875"><ele>1180.3333333333333</ele><time>2026-04-20T13:10:14.001Z</time></trkpt><trkpt lat="38.138761427792275" lon="-2.3781227659719515"><ele>1180.0</ele><time>2026-04-20T13:10:15.001Z</time></trkpt><trkpt lat="38.13874136604273" lon="-2.378376713769348"><ele>1181.0</ele><time>2026-04-20T13:10:16.001Z</time></trkpt><trkpt lat="38.13871692346068" lon="-2.37862858228573"><ele>1182.0</ele><time>2026-04-20T13:10:17.001Z</time></trkpt><trkpt lat="38.13870569158352" lon="-2.378885411589939"><ele>1183.0</ele><time>2026-04-20T13:10:18.001Z</time></trkpt><trkpt lat="38.13873292883468" lon="-2.3791337973869444"><ele>1183.0</ele><time>2026-04-20T13:10:19.001Z</time></trkpt><trkpt lat="38.138734281356285" lon="-2.379382841516683"><ele>1183.0</ele><time>2026-04-20T13:10:20.001Z</time></trkpt><trkpt lat="38.13872257119402" lon="-2.3796174422058223"><ele>1183.0</ele><time>2026-04-20T13:10:21.001Z</time></trkpt><trkpt lat="38.13866361419146" lon="-2.379854633506835"><ele>1186.3333333333333</ele><time>2026-04-20T13:10:22.001Z</time></trkpt><trkpt lat="38.138553916751775" lon="-2.380078791129791"><ele>1189.6666666666667</ele><time>2026-04-20T13:10:23.001Z</time></trkpt><trkpt lat="38.13844914566949" lon="-2.3802964813915817"><ele>1193.0</ele><time>2026-04-20T13:10:24.001Z</time></trkpt><trkpt lat="38.13838695861371" lon="-2.3805013831426436"><ele>1194.5</ele><time>2026-04-20T13:10:25.001Z</time></trkpt><trkpt lat="38.13830859969501" lon="-2.380671774121532"><ele>1196.0</ele><time>2026-04-20T13:10:26.001Z</time></trkpt><trkpt lat="38.13829192075758" lon="-2.3808409920023887"><ele>1197.5</ele><time>2026-04-20T13:10:27.001Z</time></trkpt><trkpt lat="38.13828036159476" lon="-2.380985249320888"><ele>1199.0</ele><time>2026-04-20T13:10:28.001Z</time></trkpt><trkpt lat="38.13826815030241" lon="-2.3811149385868142"><ele>1199.0</ele><time>2026-04-20T13:10:29.001Z</time></trkpt><trkpt lat="38.1382805981212" lon="-2.3812519039071898"><ele>1199.0</ele><time>2026-04-20T13:10:30.001Z</time></trkpt><trkpt lat="38.13836823948653" lon="-2.3814096647042184"><ele>1199.0</ele><time>2026-04-20T13:10:31.001Z</time></trkpt><trkpt lat="38.13838143583553" lon="-2.381589144571733"><ele>1199.0</ele><time>2026-04-20T13:10:32.001Z</time></trkpt><trkpt lat="38.13840979879465" lon="-2.3817798283011262"><ele>1199.6666666666667</ele><time>2026-04-20T13:10:33.001Z</time></trkpt><trkpt lat="38.138435322359754" lon="-2.381969311975875"><ele>1200.3333333333333</ele><time>2026-04-20T13:10:34.001Z</time></trkpt><trkpt lat="38.13845770586885" lon="-2.382157316320447"><ele>1201.0</ele><time>2026-04-20T13:10:35.001Z</time></trkpt><trkpt lat="38.13847804054948" lon="-2.3823471679067567"><ele>1203.3333333333333</ele><time>2026-04-20T13:10:36.001Z</time></trkpt><trkpt lat="38.13850062197012" lon="-2.382542665002643"><ele>1205.6666666666667</ele><time>2026-04-20T13:10:37.001Z</time></trkpt><trkpt lat="38.1385214138801" lon="-2.382738054790925"><ele>1208.0</ele><time>2026-04-20T13:10:38.001Z</time></trkpt><trkpt lat="38.13854556796748" lon="-2.3829410270416846"><ele>1210.3333333333335</ele><time>2026-04-20T13:10:39.001Z</time></trkpt><trkpt lat="38.138567754315915" lon="-2.3831408979393998"><ele>1212.6666666666667</ele><time>2026-04-20T13:10:40.001Z</time></trkpt><trkpt lat="38.13859124399447" lon="-2.383339539027679"><ele>1215.0</ele><time>2026-04-20T13:10:41.001Z</time></trkpt><trkpt lat="38.1386091475772" lon="-2.38352237089069"><ele>1215.0</ele><time>2026-04-20T13:10:42.001Z</time></trkpt><trkpt lat="38.1386266851684" lon="-2.383695190926735"><ele>1215.0</ele><time>2026-04-20T13:10:43.001Z</time></trkpt><trkpt lat="38.13864094134023" lon="-2.3838560977641445"><ele>1215.0</ele><time>2026-04-20T13:10:44.001Z</time></trkpt><trkpt lat="38.13866953505319" lon="-2.383986796398489"><ele>1215.0</ele><time>2026-04-20T13:10:45.001Z</time></trkpt><trkpt lat="38.13866854196322" lon="-2.384087027692118"><ele>1215.6</ele><time>2026-04-20T13:10:46.001Z</time></trkpt><trkpt lat="38.1387238389488" lon="-2.3841713987178053"><ele>1216.2</ele><time>2026-04-20T13:10:49.001Z</time></trkpt><trkpt lat="38.13883922779687" lon="-2.3842508066505657"><ele>1216.8</ele><time>2026-04-20T13:10:52.001Z</time></trkpt><trkpt lat="38.13894087993577" lon="-2.384343559048251"><ele>1217.4</ele><time>2026-04-20T13:10:54.001Z</time></trkpt><trkpt lat="38.13900485659858" lon="-2.3844002672638474"><ele>1218.0</ele><time>2026-04-20T13:10:55.001Z</time></trkpt><trkpt lat="38.139081335620915" lon="-2.384459904061435"><ele>1219.5</ele><time>2026-04-20T13:10:56.001Z</time></trkpt><trkpt lat="38.13916893057564" lon="-2.384507576719222"><ele>1221.0</ele><time>2026-04-20T13:10:57.001Z</time></trkpt><trkpt lat="38.13927596037319" lon="-2.3845361681793666"><ele>1222.5</ele><time>2026-04-20T13:10:58.001Z</time></trkpt><trkpt lat="38.139396132053456" lon="-2.384544785882169"><ele>1224.0</ele><time>2026-04-20T13:10:59.001Z</time></trkpt><trkpt lat="38.13952704287658" lon="-2.3845307463648595"><ele>1224.0</ele><time>2026-04-20T13:11:00.001Z</time></trkpt><trkpt lat="38.13966334977065" lon="-2.384510423005496"><ele>1224.0</ele><time>2026-04-20T13:11:01.001Z</time></trkpt><trkpt lat="38.139794942054074" lon="-2.3844920901066247"><ele>1224.0</ele><time>2026-04-20T13:11:02.001Z</time></trkpt><trkpt lat="38.139926526807024" lon="-2.384486511815271"><ele>1224.0</ele><time>2026-04-20T13:11:03.001Z</time></trkpt><trkpt lat="38.14006424852202" lon="-2.3844903047255195"><ele>1225.25</ele><time>2026-04-20T13:11:04.001Z</time></trkpt><trkpt lat="38.140192675840154" lon="-2.3845179146901745"><ele>1226.5</ele><time>2026-04-20T13:11:05.001Z</time></trkpt><trkpt lat="38.14031803098127" lon="-2.3845664100509025"><ele>1227.75</ele><time>2026-04-20T13:11:06.001Z</time></trkpt><trkpt lat="38.14044787719408" lon="-2.384628700040177"><ele>1229.0</ele><time>2026-04-20T13:11:07.001Z</time></trkpt><trkpt lat="38.14057090803322" lon="-2.384687716541918"><ele>1231.8</ele><time>2026-04-20T13:11:08.001Z</time></trkpt><trkpt lat="38.14067455353319" lon="-2.3847523703373863"><ele>1234.6000000000001</ele><time>2026-04-20T13:11:09.001Z</time></trkpt><trkpt lat="38.14075613045153" lon="-2.384826459417284"><ele>1237.4</ele><time>2026-04-20T13:11:10.001Z</time></trkpt><trkpt lat="38.140840719925535" lon="-2.3849028216033825"><ele>1240.2</ele><time>2026-04-20T13:11:11.001Z</time></trkpt><trkpt lat="38.14085578761447" lon="-2.385052113411223"><ele>1243.0</ele><time>2026-04-20T13:11:12.001Z</time></trkpt><trkpt lat="38.14089366381947" lon="-2.3852094173047744"><ele>1243.0</ele><time>2026-04-20T13:11:13.001Z</time></trkpt><trkpt lat="38.14094337866717" lon="-2.3853469249092227"><ele>1243.0</ele><time>2026-04-20T13:11:14.001Z</time></trkpt><trkpt lat="38.1410495560825" lon="-2.3854132352647426"><ele>1243.0</ele><time>2026-04-20T13:11:15.001Z</time></trkpt><trkpt lat="38.14116453442906" lon="-2.385443882654156"><ele>1243.0</ele><time>2026-04-20T13:11:16.001Z</time></trkpt><trkpt lat="38.14130001897355" lon="-2.3854507731746963"><ele>1243.0</ele><time>2026-04-20T13:11:17.001Z</time></trkpt><trkpt lat="38.14144541531114" lon="-2.3854688095552663"><ele>1243.0</ele><time>2026-04-20T13:11:18.001Z</time></trkpt><trkpt lat="38.141574736013645" lon="-2.3854658824702994"><ele>1243.0</ele><time>2026-04-20T13:11:19.001Z</time></trkpt><trkpt lat="38.14166759592163" lon="-2.3854838471576243"><ele>1243.0</ele><time>2026-04-20T13:11:20.001Z</time></trkpt><trkpt lat="38.14174224548672" lon="-2.385517419176241"><ele>1243.0</ele><time>2026-04-20T13:11:21.001Z</time></trkpt><trkpt lat="38.14177819020591" lon="-2.38565774107823"><ele>1244.25</ele><time>2026-04-20T13:11:22.001Z</time></trkpt><trkpt lat="38.14177340246675" lon="-2.3857950849918703"><ele>1245.5</ele><time>2026-04-20T13:11:23.001Z</time></trkpt><trkpt lat="38.14172834463872" lon="-2.3859481230702326"><ele>1246.75</ele><time>2026-04-20T13:11:24.001Z</time></trkpt><trkpt lat="38.14165972633685" lon="-2.3861130327191415"><ele>1248.0</ele><time>2026-04-20T13:11:25.001Z</time></trkpt><trkpt lat="38.1415937856566" lon="-2.3863006027231006"><ele>1249.0</ele><time>2026-04-20T13:11:26.001Z</time></trkpt><trkpt lat="38.1415244165027" lon="-2.386490823498044"><ele>1250.0</ele><time>2026-04-20T13:11:27.001Z</time></trkpt><trkpt lat="38.14151113531232" lon="-2.386660752677647"><ele>1251.0</ele><time>2026-04-20T13:11:28.001Z</time></trkpt><trkpt lat="38.14153865892487" lon="-2.386806015931779"><ele>1252.0</ele><time>2026-04-20T13:11:29.001Z</time></trkpt><trkpt lat="38.14158451302226" lon="-2.386954324446711"><ele>1252.0</ele><time>2026-04-20T13:11:30.001Z</time></trkpt><trkpt lat="38.14167142373453" lon="-2.3870617278322777"><ele>1252.0</ele><time>2026-04-20T13:11:31.001Z</time></trkpt><trkpt lat="38.14178232038484" lon="-2.387153478580298"><ele>1252.0</ele><time>2026-04-20T13:11:32.001Z</time></trkpt><trkpt lat="38.141897720902854" lon="-2.3872389688783335"><ele>1252.0</ele><time>2026-04-20T13:11:33.001Z</time></trkpt><trkpt lat="38.141999021034046" lon="-2.3873336089520807"><ele>1253.5</ele><time>2026-04-20T13:11:34Z</time></trkpt><trkpt lat="38.142057051471966" lon="-2.3874447594618995"><ele>1255.0</ele><time>2026-04-20T13:11:35Z</time></trkpt><trkpt lat="38.14208779862525" lon="-2.387610710819274"><ele>1256.5</ele><time>2026-04-20T13:11:36Z</time></trkpt><trkpt lat="38.14213664282998" lon="-2.387789202173619"><ele>1258.0</ele><time>2026-04-20T13:11:37Z</time></trkpt><trkpt lat="38.14220509839344" lon="-2.387957704191212"><ele>1257.6666666666665</ele><time>2026-04-20T13:11:38Z</time></trkpt><trkpt lat="38.14228565760277" lon="-2.3881383049813296"><ele>1257.3333333333333</ele><time>2026-04-20T13:11:39Z</time></trkpt><trkpt lat="38.14236836215202" lon="-2.388317985417854"><ele>1257.0</ele><time>2026-04-20T13:11:40Z</time></trkpt><trkpt lat="38.14244604431438" lon="-2.3884670903665683"><ele>1255.75</ele><time>2026-04-20T13:11:41Z</time></trkpt><trkpt lat="38.14252944733125" lon="-2.3886001843824176"><ele>1254.5</ele><time>2026-04-20T13:11:42Z</time></trkpt><trkpt lat="38.14262234450491" lon="-2.3887292860502543"><ele>1253.25</ele><time>2026-04-20T13:11:43Z</time></trkpt><trkpt lat="38.14274887775363" lon="-2.38878165311717"><ele>1252.0</ele><time>2026-04-20T13:11:44Z</time></trkpt><trkpt lat="38.142872541675025" lon="-2.38883055539037"><ele>1252.0</ele><time>2026-04-20T13:11:45Z</time></trkpt><trkpt lat="38.143024198272435" lon="-2.3888322014807484"><ele>1252.0</ele><time>2026-04-20T13:11:46Z</time></trkpt><trkpt lat="38.14318022103238" lon="-2.3888248562616465"><ele>1252.0</ele><time>2026-04-20T13:11:47Z</time></trkpt><trkpt lat="38.14334067046482" lon="-2.3888178484802682"><ele>1253.25</ele><time>2026-04-20T13:11:48Z</time></trkpt><trkpt lat="38.14348664245099" lon="-2.388817715080331"><ele>1254.5</ele><time>2026-04-20T13:11:49Z</time></trkpt><trkpt lat="38.14363005168029" lon="-2.388836296126227"><ele>1255.75</ele><time>2026-04-20T13:11:50Z</time></trkpt><trkpt lat="38.14378381286063" lon="-2.388887164800011"><ele>1257.0</ele><time>2026-04-20T13:11:51Z</time></trkpt><trkpt lat="38.1439458684213" lon="-2.388965234504496"><ele>1262.0</ele><time>2026-04-20T13:11:52Z</time></trkpt><trkpt lat="38.144113288348834" lon="-2.3890506782747916"><ele>1267.0</ele><time>2026-04-20T13:11:53Z</time></trkpt><trkpt lat="38.14427346157049" lon="-2.389125254953158"><ele>1272.0</ele><time>2026-04-20T13:11:54Z</time></trkpt><trkpt lat="38.144408262931506" lon="-2.389198695117769"><ele>1272.0</ele><time>2026-04-20T13:11:55Z</time></trkpt><trkpt lat="38.14452042664349" lon="-2.389257137419204"><ele>1272.0</ele><time>2026-04-20T13:11:56Z</time></trkpt><trkpt lat="38.14462399081602" lon="-2.389266333471788"><ele>1272.0</ele><time>2026-04-20T13:11:57Z</time></trkpt><trkpt lat="38.14471920692715" lon="-2.389190420128013"><ele>1272.0</ele><time>2026-04-20T13:11:58Z</time></trkpt><trkpt lat="38.14484002292213" lon="-2.389128350821412"><ele>1275.25</ele><time>2026-04-20T13:11:59Z</time></trkpt><trkpt lat="38.14496617122906" lon="-2.3890610250981923"><ele>1278.5</ele><time>2026-04-20T13:12:00Z</time></trkpt><trkpt lat="38.14510270273318" lon="-2.3890343208463296"><ele>1281.75</ele><time>2026-04-20T13:12:01Z</time></trkpt><trkpt lat="38.145248755519304" lon="-2.3890402016794967"><ele>1285.0</ele><time>2026-04-20T13:12:02Z</time></trkpt><trkpt lat="38.145399758176396" lon="-2.3890656202762677"><ele>1285.0</ele><time>2026-04-20T13:12:03Z</time></trkpt><trkpt lat="38.14554900314578" lon="-2.3890936436546397"><ele>1285.0</ele><time>2026-04-20T13:12:04Z</time></trkpt><trkpt lat="38.145694062813" lon="-2.389113133003318"><ele>1285.0</ele><time>2026-04-20T13:12:05Z</time></trkpt><trkpt lat="38.145830703516445" lon="-2.389093805071343"><ele>1285.0</ele><time>2026-04-20T13:12:06Z</time></trkpt><trkpt lat="38.14596093302078" lon="-2.3890262691391"><ele>1289.0</ele><time>2026-04-20T13:12:07Z</time></trkpt><trkpt lat="38.146102162392935" lon="-2.388965859511095"><ele>1293.0</ele><time>2026-04-20T13:12:08Z</time></trkpt><trkpt lat="38.146255460460345" lon="-2.388955791520967"><ele>1297.0</ele><time>2026-04-20T13:12:09Z</time></trkpt><trkpt lat="38.1464268324617" lon="-2.3889769260088176"><ele>1300.3333333333333</ele><time>2026-04-20T13:12:10.001Z</time></trkpt><trkpt lat="38.14660774157627" lon="-2.3890062729328148"><ele>1303.6666666666667</ele><time>2026-04-20T13:12:11.001Z</time></trkpt><trkpt lat="38.14676936367272" lon="-2.3890268702847437"><ele>1307.0</ele><time>2026-04-20T13:12:12.001Z</time></trkpt><trkpt lat="38.14690433095154" lon="-2.389038470165642"><ele>1307.0</ele><time>2026-04-20T13:12:13.001Z</time></trkpt><trkpt lat="38.14703588548042" lon="-2.389055505992676"><ele>1307.0</ele><time>2026-04-20T13:12:14.001Z</time></trkpt><trkpt lat="38.147162813245195" lon="-2.3890883367974847"><ele>1307.0</ele><time>2026-04-20T13:12:15.001Z</time></trkpt><trkpt lat="38.147274663978116" lon="-2.389147785561675"><ele>1307.0</ele><time>2026-04-20T13:12:16.001Z</time></trkpt><trkpt lat="38.14736178520826" lon="-2.389229722322683"><ele>1308.0</ele><time>2026-04-20T13:12:17.001Z</time></trkpt><trkpt lat="38.147438339488936" lon="-2.389352367630099"><ele>1309.0</ele><time>2026-04-20T13:12:18.001Z</time></trkpt><trkpt lat="38.147507424949886" lon="-2.389510712755962"><ele>1310.0</ele><time>2026-04-20T13:12:19.001Z</time></trkpt><trkpt lat="38.14755458267608" lon="-2.3897047700996668"><ele>1311.0</ele><time>2026-04-20T13:12:20.001Z</time></trkpt><trkpt lat="38.14758756430596" lon="-2.389910959135224"><ele>1314.3333333333333</ele><time>2026-04-20T13:12:21.001Z</time></trkpt><trkpt lat="38.147611522412255" lon="-2.3901160424449643"><ele>1317.6666666666665</ele><time>2026-04-20T13:12:22.001Z</time></trkpt><trkpt lat="38.14762735909898" lon="-2.3903129670298475"><ele>1321.0</ele><time>2026-04-20T13:12:23.001Z</time></trkpt><trkpt lat="38.14766273705253" lon="-2.390494080048698"><ele>1324.3333333333333</ele><time>2026-04-20T13:12:24.001Z</time></trkpt><trkpt lat="38.14774822363488" lon="-2.3906537839756252"><ele>1327.6666666666667</ele><time>2026-04-20T13:12:25.001Z</time></trkpt><trkpt lat="38.14780845448842" lon="-2.390840731455978"><ele>1331.0</ele><time>2026-04-20T13:12:26.001Z</time></trkpt><trkpt lat="38.1478754386561" lon="-2.391036269129338"><ele>1331.0</ele><time>2026-04-20T13:12:27.001Z</time></trkpt><trkpt lat="38.14795623384192" lon="-2.3912251161882803"><ele>1331.0</ele><time>2026-04-20T13:12:28.001Z</time></trkpt><trkpt lat="38.14803820354341" lon="-2.391407366060498"><ele>1331.0</ele><time>2026-04-20T13:12:29.001Z</time></trkpt><trkpt lat="38.148104627399995" lon="-2.3915738932729997"><ele>1329.0</ele><time>2026-04-20T13:12:30.001Z</time></trkpt><trkpt lat="38.148175227390965" lon="-2.3917252566745715"><ele>1327.0</ele><time>2026-04-20T13:12:31.001Z</time></trkpt><trkpt lat="38.148223881350184" lon="-2.3918784965090696"><ele>1325.0</ele><time>2026-04-20T13:12:32.001Z</time></trkpt><trkpt lat="38.14824645794668" lon="-2.392056845221732"><ele>1323.0</ele><time>2026-04-20T13:12:33.001Z</time></trkpt><trkpt lat="38.14823467293962" lon="-2.3922501671946517"><ele>1329.3333333333333</ele><time>2026-04-20T13:12:34.001Z</time></trkpt><trkpt lat="38.14820573008543" lon="-2.3924549442314174"><ele>1335.6666666666665</ele><time>2026-04-20T13:12:35.001Z</time></trkpt><trkpt lat="38.148176361895956" lon="-2.3926584014280774"><ele>1342.0</ele><time>2026-04-20T13:12:36.001Z</time></trkpt><trkpt lat="38.14813350311544" lon="-2.3928674756576362"><ele>1341.6666666666665</ele><time>2026-04-20T13:12:37.001Z</time></trkpt><trkpt lat="38.1480893559652" lon="-2.3930617403927106"><ele>1341.3333333333333</ele><time>2026-04-20T13:12:38.001Z</time></trkpt><trkpt lat="38.148073049813746" lon="-2.393251815272302"><ele>1341.0</ele><time>2026-04-20T13:12:39.001Z</time></trkpt><trkpt lat="38.14807163039025" lon="-2.393445879613116"><ele>1341.0</ele><time>2026-04-20T13:12:40.001Z</time></trkpt><trkpt lat="38.148081558485906" lon="-2.393632772748744"><ele>1341.0</ele><time>2026-04-20T13:12:41.001Z</time></trkpt><trkpt lat="38.14809168075032" lon="-2.393782843350544"><ele>1341.0</ele><time>2026-04-20T13:12:42.001Z</time></trkpt><trkpt lat="38.14811174383832" lon="-2.3938887242116493"><ele>1341.0</ele><time>2026-04-20T13:12:43.001Z</time></trkpt><trkpt lat="38.148152770007925" lon="-2.393973651751516"><ele>1341.0</ele><time>2026-04-20T13:12:44.001Z</time></trkpt><trkpt lat="38.14823666255526" lon="-2.3939976398584855"><ele>1340.0</ele><time>2026-04-20T13:12:45.001Z</time></trkpt><trkpt lat="38.14833869324938" lon="-2.3940262952177354"><ele>1339.0</ele><time>2026-04-20T13:12:46.001Z</time></trkpt><trkpt lat="38.14845087257643" lon="-2.3940426056326194"><ele>1338.0</ele><time>2026-04-20T13:12:47.001Z</time></trkpt><trkpt lat="38.14855171093719" lon="-2.3940369584418084"><ele>1337.0</ele><time>2026-04-20T13:12:48.001Z</time></trkpt><trkpt lat="38.14864852792085" lon="-2.3940462935899607"><ele>1336.0</ele><time>2026-04-20T13:12:49.001Z</time></trkpt><trkpt lat="38.14874722113446" lon="-2.3940274911896373"><ele>1336.0</ele><time>2026-04-20T13:12:50.001Z</time></trkpt><trkpt lat="38.14883470016812" lon="-2.394004142545902"><ele>1336.0</ele><time>2026-04-20T13:12:51.001Z</time></trkpt><trkpt lat="38.14891661996749" lon="-2.3939879609521557"><ele>1336.0</ele><time>2026-04-20T13:12:52.001Z</time></trkpt><trkpt lat="38.148999617374244" lon="-2.3939832913294166"><ele>1336.0</ele><time>2026-04-20T13:12:53.001Z</time></trkpt><trkpt lat="38.14908658697753" lon="-2.393986012734656"><ele>1336.0</ele><time>2026-04-20T13:12:54.001Z</time></trkpt><trkpt lat="38.149156584816126" lon="-2.394033974730119"><ele>1336.0</ele><time>2026-04-20T13:12:55.001Z</time></trkpt><trkpt lat="38.14920732428119" lon="-2.3941238800348543"><ele>1336.25</ele><time>2026-04-20T13:12:56.001Z</time></trkpt><trkpt lat="38.149232814827386" lon="-2.3942521114998385"><ele>1336.5</ele><time>2026-04-20T13:12:57.001Z</time></trkpt><trkpt lat="38.14924267965938" lon="-2.3944005369230945"><ele>1336.75</ele><time>2026-04-20T13:12:58.001Z</time></trkpt><trkpt lat="38.149247625190974" lon="-2.3945544469453104"><ele>1337.0</ele><time>2026-04-20T13:12:59.001Z</time></trkpt><trkpt lat="38.14924338337398" lon="-2.3947061278484614"><ele>1337.0</ele><time>2026-04-20T13:13:00.001Z</time></trkpt><trkpt lat="38.149225900959394" lon="-2.3948498319050273"><ele>1337.0</ele><time>2026-04-20T13:13:01.001Z</time></trkpt><trkpt lat="38.149184907466484" lon="-2.3949893621491523"><ele>1337.0</ele><time>2026-04-20T13:13:02.001Z</time></trkpt><trkpt lat="38.14913663881049" lon="-2.3951351478380447"><ele>1337.0</ele><time>2026-04-20T13:13:03.001Z</time></trkpt><trkpt lat="38.14908395274204" lon="-2.395283150753924"><ele>1339.75</ele><time>2026-04-20T13:13:04.001Z</time></trkpt><trkpt lat="38.149020833668914" lon="-2.3954302858194385"><ele>1342.5</ele><time>2026-04-20T13:13:05.001Z</time></trkpt><trkpt lat="38.14895113888247" lon="-2.3955667738761135"><ele>1345.25</ele><time>2026-04-20T13:13:06.001Z</time></trkpt><trkpt lat="38.14887409790828" lon="-2.3956916527175434"><ele>1348.0</ele><time>2026-04-20T13:13:07.001Z</time></trkpt><trkpt lat="38.148817237587956" lon="-2.3958218500207384"><ele>1348.75</ele><time>2026-04-20T13:13:08.001Z</time></trkpt><trkpt lat="38.14874992443294" lon="-2.3959439080483063"><ele>1349.5</ele><time>2026-04-20T13:13:09.001Z</time></trkpt><trkpt lat="38.14868714136301" lon="-2.396068232334733"><ele>1350.25</ele><time>2026-04-20T13:13:10.001Z</time></trkpt><trkpt lat="38.14862869136242" lon="-2.396190370400221"><ele>1351.0</ele><time>2026-04-20T13:13:11.001Z</time></trkpt><trkpt lat="38.14857198803696" lon="-2.3963132719744373"><ele>1350.75</ele><time>2026-04-20T13:13:12.001Z</time></trkpt><trkpt lat="38.14849278654639" lon="-2.396435825570711"><ele>1350.5</ele><time>2026-04-20T13:13:13.001Z</time></trkpt><trkpt lat="38.14840127491325" lon="-2.3965726345101928"><ele>1350.25</ele><time>2026-04-20T13:13:14.001Z</time></trkpt><trkpt lat="38.148296063876856" lon="-2.396687253309711"><ele>1350.0</ele><time>2026-04-20T13:13:15.001Z</time></trkpt><trkpt lat="38.14820713806689" lon="-2.396791712445633"><ele>1349.5</ele><time>2026-04-20T13:13:16.001Z</time></trkpt><trkpt lat="38.14814694720832" lon="-2.3969387747569857"><ele>1349.0</ele><time>2026-04-20T13:13:17.001Z</time></trkpt><trkpt lat="38.148162122389365" lon="-2.39711992949265"><ele>1348.5</ele><time>2026-04-20T13:13:18.001Z</time></trkpt><trkpt lat="38.1481676829915" lon="-2.3973001333828083"><ele>1348.0</ele><time>2026-04-20T13:13:19.001Z</time></trkpt><trkpt lat="38.14815745996183" lon="-2.3974795140969447"><ele>1345.75</ele><time>2026-04-20T13:13:20.001Z</time></trkpt><trkpt lat="38.148157600752086" lon="-2.3976497735833115"><ele>1343.5</ele><time>2026-04-20T13:13:21.001Z</time></trkpt><trkpt lat="38.148142553495255" lon="-2.3978173502875713"><ele>1341.25</ele><time>2026-04-20T13:13:22.001Z</time></trkpt><trkpt lat="38.14811960133554" lon="-2.3979838168099126"><ele>1339.0</ele><time>2026-04-20T13:13:23.001Z</time></trkpt><trkpt lat="38.1480869675421" lon="-2.3981501496609545"><ele>1338.75</ele><time>2026-04-20T13:13:24.001Z</time></trkpt><trkpt lat="38.148059226014304" lon="-2.3983151258208695"><ele>1338.5</ele><time>2026-04-20T13:13:25.001Z</time></trkpt><trkpt lat="38.14803693989992" lon="-2.398479131336714"><ele>1338.25</ele><time>2026-04-20T13:13:26.001Z</time></trkpt><trkpt lat="38.148047504362175" lon="-2.398642858439049"><ele>1338.0</ele><time>2026-04-20T13:13:27.001Z</time></trkpt><trkpt lat="38.148038085887606" lon="-2.3988078042638032"><ele>1337.5</ele><time>2026-04-20T13:13:28.001Z</time></trkpt><trkpt lat="38.14805658593561" lon="-2.3989695848334267"><ele>1337.0</ele><time>2026-04-20T13:13:29.001Z</time></trkpt><trkpt lat="38.14807606440362" lon="-2.399136846337268"><ele>1336.5</ele><time>2026-04-20T13:13:30.001Z</time></trkpt><trkpt lat="38.148088106380484" lon="-2.3993001606087403"><ele>1336.0</ele><time>2026-04-20T13:13:31.001Z</time></trkpt><trkpt lat="38.14809580908331" lon="-2.399459041380679"><ele>1336.0</ele><time>2026-04-20T13:13:32.001Z</time></trkpt><trkpt lat="38.148092922106" lon="-2.3996190980405676"><ele>1336.0</ele><time>2026-04-20T13:13:33.001Z</time></trkpt><trkpt lat="38.148101631361705" lon="-2.399778513779903"><ele>1336.0</ele><time>2026-04-20T13:13:34.001Z</time></trkpt><trkpt lat="38.1481069941879" lon="-2.399936317385241"><ele>1336.0</ele><time>2026-04-20T13:13:35Z</time></trkpt><trkpt lat="38.14811358441389" lon="-2.4000982829720625"><ele>1336.75</ele><time>2026-04-20T13:13:36Z</time></trkpt><trkpt lat="38.148120276770726" lon="-2.4002593104916436"><ele>1337.5</ele><time>2026-04-20T13:13:37Z</time></trkpt><trkpt lat="38.14811534719328" lon="-2.400419738800723"><ele>1338.25</ele><time>2026-04-20T13:13:38Z</time></trkpt><trkpt lat="38.14812517384114" lon="-2.4005817828457867"><ele>1339.0</ele><time>2026-04-20T13:13:39Z</time></trkpt><trkpt lat="38.14813261508871" lon="-2.4007446817676135"><ele>1339.5</ele><time>2026-04-20T13:13:40Z</time></trkpt><trkpt lat="38.148149523779146" lon="-2.400907102542413"><ele>1340.0</ele><time>2026-04-20T13:13:41Z</time></trkpt><trkpt lat="38.14815449417476" lon="-2.4010715844213975"><ele>1340.5</ele><time>2026-04-20T13:13:42Z</time></trkpt><trkpt lat="38.14816582473555" lon="-2.4012336442410542"><ele>1341.0</ele><time>2026-04-20T13:13:43Z</time></trkpt><trkpt lat="38.148181167014926" lon="-2.4013893938571504"><ele>1342.75</ele><time>2026-04-20T13:13:44Z</time></trkpt><trkpt lat="38.14819810002316" lon="-2.401562258255862"><ele>1344.5</ele><time>2026-04-20T13:13:45Z</time></trkpt><trkpt lat="38.14820629844093" lon="-2.401745287769654"><ele>1346.25</ele><time>2026-04-20T13:13:46Z</time></trkpt><trkpt lat="38.14821217711919" lon="-2.4019340877769495"><ele>1348.0</ele><time>2026-04-20T13:13:47Z</time></trkpt><trkpt lat="38.14822918622025" lon="-2.4021262277670186"><ele>1350.0</ele><time>2026-04-20T13:13:48Z</time></trkpt><trkpt lat="38.148217589076545" lon="-2.4023145636842846"><ele>1352.0</ele><time>2026-04-20T13:13:49Z</time></trkpt><trkpt lat="38.14820821439142" lon="-2.402500930742962"><ele>1354.0</ele><time>2026-04-20T13:13:50Z</time></trkpt><trkpt lat="38.14817765764514" lon="-2.402679448333065"><ele>1356.0</ele><time>2026-04-20T13:13:51Z</time></trkpt><trkpt lat="38.148152861068645" lon="-2.402858882835237"><ele>1357.25</ele><time>2026-04-20T13:13:52Z</time></trkpt><trkpt lat="38.14808891011012" lon="-2.4030306191321418"><ele>1358.5</ele><time>2026-04-20T13:13:53Z</time></trkpt><trkpt lat="38.14804197476838" lon="-2.403198696836533"><ele>1359.75</ele><time>2026-04-20T13:13:54Z</time></trkpt><trkpt lat="38.148004455846724" lon="-2.4033530989166123"><ele>1361.0</ele><time>2026-04-20T13:13:55Z</time></trkpt><trkpt lat="38.14797181472647" lon="-2.403503560680512"><ele>1361.0</ele><time>2026-04-20T13:13:56Z</time></trkpt><trkpt lat="38.14794323796783" lon="-2.4036618531816774"><ele>1361.0</ele><time>2026-04-20T13:13:57Z</time></trkpt><trkpt lat="38.14793739889126" lon="-2.403837242398026"><ele>1361.0</ele><time>2026-04-20T13:13:58Z</time></trkpt><trkpt lat="38.147923475018985" lon="-2.404018574439574"><ele>1361.0</ele><time>2026-04-20T13:13:59Z</time></trkpt><trkpt lat="38.14791300273582" lon="-2.4042104618459117"><ele>1361.0</ele><time>2026-04-20T13:14:00Z</time></trkpt><trkpt lat="38.1478897922783" lon="-2.4044042543744637"><ele>1361.0</ele><time>2026-04-20T13:14:01Z</time></trkpt><trkpt lat="38.14789145435346" lon="-2.4046076175052846"><ele>1361.0</ele><time>2026-04-20T13:14:02Z</time></trkpt><trkpt lat="38.14788054518266" lon="-2.4048025597005953"><ele>1361.0</ele><time>2026-04-20T13:14:03Z</time></trkpt><trkpt lat="38.14787151826104" lon="-2.4049799744541294"><ele>1361.0</ele><time>2026-04-20T13:14:04Z</time></trkpt><trkpt lat="38.14786297935842" lon="-2.405155451401129"><ele>1361.0</ele><time>2026-04-20T13:14:05Z</time></trkpt><trkpt lat="38.14785569011914" lon="-2.4053383428588058"><ele>1361.0</ele><time>2026-04-20T13:14:06Z</time></trkpt><trkpt lat="38.14784898958203" lon="-2.405520847331727"><ele>1360.75</ele><time>2026-04-20T13:14:07Z</time></trkpt><trkpt lat="38.14784249256599" lon="-2.40569780847452"><ele>1360.5</ele><time>2026-04-20T13:14:08Z</time></trkpt><trkpt lat="38.14783589367536" lon="-2.405877544270912"><ele>1360.25</ele><time>2026-04-20T13:14:09Z</time></trkpt><trkpt lat="38.14782946123556" lon="-2.4060682532668065"><ele>1360.0</ele><time>2026-04-20T13:14:10Z</time></trkpt><trkpt lat="38.147824053802" lon="-2.4062651977110696"><ele>1359.75</ele><time>2026-04-20T13:14:11Z</time></trkpt><trkpt lat="38.14781791774537" lon="-2.406454775505307"><ele>1359.5</ele><time>2026-04-20T13:14:12Z</time></trkpt><trkpt lat="38.147810912673634" lon="-2.4066462697009263"><ele>1359.25</ele><time>2026-04-20T13:14:13Z</time></trkpt><trkpt lat="38.14780448741842" lon="-2.406821913271599"><ele>1359.0</ele><time>2026-04-20T13:14:14Z</time></trkpt><trkpt lat="38.14779705132782" lon="-2.4069927729259755"><ele>1359.0</ele><time>2026-04-20T13:14:15Z</time></trkpt><trkpt lat="38.147788138305685" lon="-2.4071535114266216"><ele>1359.0</ele><time>2026-04-20T13:14:16Z</time></trkpt><trkpt lat="38.14776579008751" lon="-2.4072921366304354"><ele>1359.0</ele><time>2026-04-20T13:14:17Z</time></trkpt><trkpt lat="38.14776576542055" lon="-2.4074262549660648"><ele>1359.0</ele><time>2026-04-20T13:14:18Z</time></trkpt><trkpt lat="38.147755572985155" lon="-2.4075639902135713"><ele>1360.2</ele><time>2026-04-20T13:14:19Z</time></trkpt><trkpt lat="38.14774879429739" lon="-2.407704532775452"><ele>1361.4</ele><time>2026-04-20T13:14:20Z</time></trkpt><trkpt lat="38.14775886488943" lon="-2.4078484776619677"><ele>1362.6</ele><time>2026-04-20T13:14:21Z</time></trkpt><trkpt lat="38.14773998947121" lon="-2.4079865188207905"><ele>1363.8</ele><time>2026-04-20T13:14:22Z</time></trkpt><trkpt lat="38.147742399873984" lon="-2.4081298298553473"><ele>1365.0</ele><time>2026-04-20T13:14:23Z</time></trkpt><trkpt lat="38.147747592072584" lon="-2.4082685610201175"><ele>1365.5</ele><time>2026-04-20T13:14:24Z</time></trkpt><trkpt lat="38.147789492898525" lon="-2.4083993302762887"><ele>1366.0</ele><time>2026-04-20T13:14:25Z</time></trkpt><trkpt lat="38.14782333707483" lon="-2.4085433214205625"><ele>1366.5</ele><time>2026-04-20T13:14:26Z</time></trkpt><trkpt lat="38.14790370233527" lon="-2.408665369914523"><ele>1367.0</ele><time>2026-04-20T13:14:27Z</time></trkpt><trkpt lat="38.147981026830784" lon="-2.408800579460251"><ele>1366.25</ele><time>2026-04-20T13:14:28Z</time></trkpt><trkpt lat="38.14805650859369" lon="-2.408950251279528"><ele>1365.5</ele><time>2026-04-20T13:14:29Z</time></trkpt><trkpt lat="38.14814140300939" lon="-2.409096076428167"><ele>1364.75</ele><time>2026-04-20T13:14:30Z</time></trkpt><trkpt lat="38.14823809989564" lon="-2.409227607493574"><ele>1364.0</ele><time>2026-04-20T13:14:31Z</time></trkpt><trkpt lat="38.148352436704215" lon="-2.4093547655312917"><ele>1366.3333333333335</ele><time>2026-04-20T13:14:32Z</time></trkpt><trkpt lat="38.14847376340968" lon="-2.4094744862175546"><ele>1368.6666666666667</ele><time>2026-04-20T13:14:33Z</time></trkpt><trkpt lat="38.1485929467174" lon="-2.4095942600708176"><ele>1371.0</ele><time>2026-04-20T13:14:34Z</time></trkpt><trkpt lat="38.148703109749825" lon="-2.409715054957183"><ele>1371.0</ele><time>2026-04-20T13:14:35Z</time></trkpt><trkpt lat="38.148816464184605" lon="-2.4098377998878564"><ele>1371.0</ele><time>2026-04-20T13:14:36Z</time></trkpt><trkpt lat="38.14892957722671" lon="-2.409952550655956"><ele>1371.0</ele><time>2026-04-20T13:14:37Z</time></trkpt><trkpt lat="38.14903250498154" lon="-2.410064310482509"><ele>1371.0</ele><time>2026-04-20T13:14:38Z</time></trkpt><trkpt lat="38.149110931101866" lon="-2.410175220303603"><ele>1372.75</ele><time>2026-04-20T13:14:39Z</time></trkpt><trkpt lat="38.14917526570267" lon="-2.4103125084286408"><ele>1374.5</ele><time>2026-04-20T13:14:40Z</time></trkpt><trkpt lat="38.149214589936676" lon="-2.4104773293633133"><ele>1376.25</ele><time>2026-04-20T13:14:41Z</time></trkpt><trkpt lat="38.14923692119013" lon="-2.4106579055078"><ele>1378.0</ele><time>2026-04-20T13:14:42Z</time></trkpt><trkpt lat="38.149250272644835" lon="-2.410846969202086"><ele>1378.0</ele><time>2026-04-20T13:14:43Z</time></trkpt><trkpt lat="38.14926494810319" lon="-2.4110427567905566"><ele>1378.0</ele><time>2026-04-20T13:14:44Z</time></trkpt><trkpt lat="38.14928307145968" lon="-2.411241884151077"><ele>1378.0</ele><time>2026-04-20T13:14:45Z</time></trkpt><trkpt lat="38.149307838834645" lon="-2.4114509657450878"><ele>1379.6666666666665</ele><time>2026-04-20T13:14:46Z</time></trkpt><trkpt lat="38.149331516971834" lon="-2.411658080979842"><ele>1381.3333333333333</ele><time>2026-04-20T13:14:47Z</time></trkpt><trkpt lat="38.14935114165961" lon="-2.4118666570797256"><ele>1383.0</ele><time>2026-04-20T13:14:48Z</time></trkpt><trkpt lat="38.14937107054404" lon="-2.4120736708921524"><ele>1383.75</ele><time>2026-04-20T13:14:49Z</time></trkpt><trkpt lat="38.149390641569546" lon="-2.412274608128474"><ele>1384.5</ele><time>2026-04-20T13:14:50Z</time></trkpt><trkpt lat="38.1494033403707" lon="-2.412456959482549"><ele>1385.25</ele><time>2026-04-20T13:14:51Z</time></trkpt><trkpt lat="38.149415579751306" lon="-2.412640776760361"><ele>1386.0</ele><time>2026-04-20T13:14:52Z</time></trkpt><trkpt lat="38.14943343385734" lon="-2.4128269294698637"><ele>1386.75</ele><time>2026-04-20T13:14:53Z</time></trkpt><trkpt lat="38.14944914857809" lon="-2.41300218638095"><ele>1387.5</ele><time>2026-04-20T13:14:54Z</time></trkpt><trkpt lat="38.14946865909764" lon="-2.413152352392537"><ele>1388.25</ele><time>2026-04-20T13:14:55Z</time></trkpt><trkpt lat="38.14947896120371" lon="-2.4132903778262946"><ele>1389.0</ele><time>2026-04-20T13:14:56Z</time></trkpt><trkpt lat="38.14948803827301" lon="-2.413426593490481"><ele>1389.0</ele><time>2026-04-20T13:14:57.001Z</time></trkpt><trkpt lat="38.14950428933028" lon="-2.413563765497353"><ele>1389.0</ele><time>2026-04-20T13:14:58.001Z</time></trkpt><trkpt lat="38.14952610865546" lon="-2.4136973007344715"><ele>1389.0</ele><time>2026-04-20T13:14:59.001Z</time></trkpt><trkpt lat="38.14957937933957" lon="-2.4138055322275527"><ele>1389.0</ele><time>2026-04-20T13:15:00.001Z</time></trkpt><trkpt lat="38.149672736019035" lon="-2.4138668787468056"><ele>1389.0</ele><time>2026-04-20T13:15:01.001Z</time></trkpt><trkpt lat="38.14977532408512" lon="-2.4138271990254885"><ele>1389.0</ele><time>2026-04-20T13:15:02.001Z</time></trkpt><trkpt lat="38.14986791837849" lon="-2.4137521856410133"><ele>1389.0</ele><time>2026-04-20T13:15:03.001Z</time></trkpt><trkpt lat="38.14996127592024" lon="-2.4136578575904015"><ele>1389.0</ele><time>2026-04-20T13:15:04.001Z</time></trkpt><trkpt lat="38.150031238924235" lon="-2.4135289263434694"><ele>1389.0</ele><time>2026-04-20T13:15:05.001Z</time></trkpt><trkpt lat="38.15010281694687" lon="-2.4134069813907746"><ele>1391.4</ele><time>2026-04-20T13:15:06.001Z</time></trkpt><trkpt lat="38.150173668475645" lon="-2.4133109905908805"><ele>1393.8000000000002</ele><time>2026-04-20T13:15:07.001Z</time></trkpt><trkpt lat="38.15027005632223" lon="-2.4132699602418444"><ele>1396.1999999999998</ele><time>2026-04-20T13:15:08.001Z</time></trkpt><trkpt lat="38.150379268603366" lon="-2.4132450031840085"><ele>1398.6</ele><time>2026-04-20T13:15:09.001Z</time></trkpt><trkpt lat="38.15050102079344" lon="-2.413265602947244"><ele>1401.0</ele><time>2026-04-20T13:15:10.001Z</time></trkpt><trkpt lat="38.1506246023182" lon="-2.4132837035573775"><ele>1403.5</ele><time>2026-04-20T13:15:11.001Z</time></trkpt><trkpt lat="38.15074430548291" lon="-2.4132954446282318"><ele>1406.0</ele><time>2026-04-20T13:15:12.001Z</time></trkpt><trkpt lat="38.15085231635539" lon="-2.4133170903622716"><ele>1408.5</ele><time>2026-04-20T13:15:13.001Z</time></trkpt><trkpt lat="38.150944678372475" lon="-2.41337791948017"><ele>1411.0</ele><time>2026-04-20T13:15:14.001Z</time></trkpt><trkpt lat="38.15102194271859" lon="-2.4134881468207854"><ele>1411.0</ele><time>2026-04-20T13:15:15.001Z</time></trkpt><trkpt lat="38.15107978205855" lon="-2.4136345190455066"><ele>1411.0</ele><time>2026-04-20T13:15:16.001Z</time></trkpt><trkpt lat="38.151152894592876" lon="-2.413789073866565"><ele>1411.0</ele><time>2026-04-20T13:15:17.001Z</time></trkpt><trkpt lat="38.15124330505575" lon="-2.4139247878999583"><ele>1411.0</ele><time>2026-04-20T13:15:18.001Z</time></trkpt><trkpt lat="38.15135753064771" lon="-2.4140446860369633"><ele>1411.0</ele><time>2026-04-20T13:15:19.001Z</time></trkpt><trkpt lat="38.15147807832061" lon="-2.414166963041262"><ele>1411.0</ele><time>2026-04-20T13:15:20.001Z</time></trkpt><trkpt lat="38.15158018756607" lon="-2.4142776205948255"><ele>1411.0</ele><time>2026-04-20T13:15:21.001Z</time></trkpt><trkpt lat="38.15167471309979" lon="-2.4143748380572596"><ele>1411.0</ele><time>2026-04-20T13:15:22.001Z</time></trkpt><trkpt lat="38.15176416814613" lon="-2.4144473292479414"><ele>1412.8</ele><time>2026-04-20T13:15:23.001Z</time></trkpt><trkpt lat="38.15183544427668" lon="-2.4145164594945285"><ele>1414.6</ele><time>2026-04-20T13:15:24.001Z</time></trkpt><trkpt lat="38.151868773231854" lon="-2.4146017928643717"><ele>1416.4</ele><time>2026-04-20T13:15:25.001Z</time></trkpt><trkpt lat="38.15186061119439" lon="-2.414721762301832"><ele>1418.2</ele><time>2026-04-20T13:15:26.001Z</time></trkpt><trkpt lat="38.15180110243683" lon="-2.414846259734884"><ele>1420.0</ele><time>2026-04-20T13:15:27.001Z</time></trkpt><trkpt lat="38.15174843504666" lon="-2.4149657693877336"><ele>1420.0</ele><time>2026-04-20T13:15:28.001Z</time></trkpt><trkpt lat="38.15171040604481" lon="-2.415067996019545"><ele>1420.0</ele><time>2026-04-20T13:15:29.001Z</time></trkpt><trkpt lat="38.15169285916563" lon="-2.415176618987804"><ele>1420.0</ele><time>2026-04-20T13:15:30.001Z</time></trkpt><trkpt lat="38.15170986956205" lon="-2.415284562596782"><ele>1420.0</ele><time>2026-04-20T13:15:31.001Z</time></trkpt><trkpt lat="38.15176779207262" lon="-2.415376720157755"><ele>1420.0</ele><time>2026-04-20T13:15:32.001Z</time></trkpt><trkpt lat="38.151858077124956" lon="-2.415444914333266"><ele>1422.25</ele><time>2026-04-20T13:15:33.001Z</time></trkpt><trkpt lat="38.151961648686104" lon="-2.4155188464484527"><ele>1424.5</ele><time>2026-04-20T13:15:34.001Z</time></trkpt><trkpt lat="38.152069193051446" lon="-2.4156225659174946"><ele>1426.75</ele><time>2026-04-20T13:15:35.001Z</time></trkpt><trkpt lat="38.15217053376795" lon="-2.41574005983908"><ele>1429.0</ele><time>2026-04-20T13:15:36.001Z</time></trkpt><trkpt lat="38.15226141854039" lon="-2.415865994308209"><ele>1429.0</ele><time>2026-04-20T13:15:37.001Z</time></trkpt><trkpt lat="38.15234702462425" lon="-2.4159974423124932"><ele>1429.0</ele><time>2026-04-20T13:15:38.001Z</time></trkpt><trkpt lat="38.152429455409646" lon="-2.4161303243699077"><ele>1429.0</ele><time>2026-04-20T13:15:39.001Z</time></trkpt><trkpt lat="38.15251600232458" lon="-2.4162642718427225"><ele>1429.0</ele><time>2026-04-20T13:15:40.001Z</time></trkpt><trkpt lat="38.15260133614758" lon="-2.4163897713902625"><ele>1428.5</ele><time>2026-04-20T13:15:41.001Z</time></trkpt><trkpt lat="38.1526872127194" lon="-2.4165074368073145"><ele>1428.0</ele><time>2026-04-20T13:15:42.001Z</time></trkpt><trkpt lat="38.152777437726726" lon="-2.4166125652871373"><ele>1427.5</ele><time>2026-04-20T13:15:43.001Z</time></trkpt><trkpt lat="38.15286909751794" lon="-2.416702688866611"><ele>1427.0</ele><time>2026-04-20T13:15:44.001Z</time></trkpt><trkpt lat="38.15295869082884" lon="-2.4167891245010074"><ele>1427.0</ele><time>2026-04-20T13:15:45.001Z</time></trkpt><trkpt lat="38.15304604161029" lon="-2.4168755508893334"><ele>1427.0</ele><time>2026-04-20T13:15:46.001Z</time></trkpt><trkpt lat="38.15313049597579" lon="-2.4169622134031767"><ele>1427.0</ele><time>2026-04-20T13:15:47Z</time></trkpt><trkpt lat="38.15321134406548" lon="-2.4170636979830737"><ele>1427.0</ele><time>2026-04-20T13:15:48Z</time></trkpt><trkpt lat="38.15328577129766" lon="-2.417173574613903"><ele>1427.0</ele><time>2026-04-20T13:15:49Z</time></trkpt><trkpt lat="38.153354128056506" lon="-2.4172992756716325"><ele>1425.0</ele><time>2026-04-20T13:15:50Z</time></trkpt><trkpt lat="38.15340225241405" lon="-2.417431057339517"><ele>1423.0</ele><time>2026-04-20T13:15:51Z</time></trkpt><trkpt lat="38.15346009180582" lon="-2.417542911284176"><ele>1421.0</ele><time>2026-04-20T13:15:52Z</time></trkpt><trkpt lat="38.153513614412105" lon="-2.4176305477975686"><ele>1419.0</ele><time>2026-04-20T13:15:53Z</time></trkpt><trkpt lat="38.153554621598786" lon="-2.4177159284871568"><ele>1417.0</ele><time>2026-04-20T13:15:54Z</time></trkpt><trkpt lat="38.15360193657754" lon="-2.4177859641645605"><ele>1417.0</ele><time>2026-04-20T13:15:55Z</time></trkpt><trkpt lat="38.15366698908215" lon="-2.4178221312393378"><ele>1417.0</ele><time>2026-04-20T13:15:57Z</time></trkpt><trkpt lat="38.15375365477144" lon="-2.417939171061301"><ele>1417.0</ele><time>2026-04-20T13:16:07Z</time></trkpt><trkpt lat="38.15380516346997" lon="-2.418013206590087"><ele>1417.0</ele><time>2026-04-20T13:16:08Z</time></trkpt><trkpt lat="38.15386329530931" lon="-2.4181016583051815"><ele>1417.0</ele><time>2026-04-20T13:16:09Z</time></trkpt><trkpt lat="38.153921707002446" lon="-2.4181801642611185"><ele>1417.1999999999998</ele><time>2026-04-20T13:16:10Z</time></trkpt><trkpt lat="38.15396979876366" lon="-2.4182619231012006"><ele>1417.4</ele><time>2026-04-20T13:16:11Z</time></trkpt><trkpt lat="38.15402579657477" lon="-2.41833728101654"><ele>1417.6</ele><time>2026-04-20T13:16:12Z</time></trkpt><trkpt lat="38.154096290006486" lon="-2.418425373908887"><ele>1417.8000000000002</ele><time>2026-04-20T13:16:13Z</time></trkpt><trkpt lat="38.15416330898633" lon="-2.4185291047996937"><ele>1418.0</ele><time>2026-04-20T13:16:14Z</time></trkpt><trkpt lat="38.154225852359495" lon="-2.4186330660655417"><ele>1416.25</ele><time>2026-04-20T13:16:15Z</time></trkpt><trkpt lat="38.15428713295059" lon="-2.4187463880559696"><ele>1414.5</ele><time>2026-04-20T13:16:16Z</time></trkpt><trkpt lat="38.15433625174988" lon="-2.4188746047132423"><ele>1412.75</ele><time>2026-04-20T13:16:17Z</time></trkpt><trkpt lat="38.15437590209824" lon="-2.419015086542289"><ele>1411.0</ele><time>2026-04-20T13:16:18Z</time></trkpt><trkpt lat="38.15440721831211" lon="-2.4191665223859906"><ele>1409.0</ele><time>2026-04-20T13:16:19Z</time></trkpt><trkpt lat="38.15443251881408" lon="-2.419319508131268"><ele>1407.0</ele><time>2026-04-20T13:16:20Z</time></trkpt><trkpt lat="38.15445618457466" lon="-2.4194652152132705"><ele>1405.0</ele><time>2026-04-20T13:16:21Z</time></trkpt><trkpt lat="38.15447986471701" lon="-2.4196031291226254"><ele>1403.0</ele><time>2026-04-20T13:16:22Z</time></trkpt><trkpt lat="38.15450372399484" lon="-2.4197409894559665"><ele>1401.8000000000002</ele><time>2026-04-20T13:16:23Z</time></trkpt><trkpt lat="38.15453600021842" lon="-2.4198736164002086"><ele>1400.6</ele><time>2026-04-20T13:16:24Z</time></trkpt><trkpt lat="38.15456861043545" lon="-2.419999385315476"><ele>1399.4</ele><time>2026-04-20T13:16:25Z</time></trkpt><trkpt lat="38.154612052773366" lon="-2.4201192328263907"><ele>1398.1999999999998</ele><time>2026-04-20T13:16:26Z</time></trkpt><trkpt lat="38.154664668574995" lon="-2.420228688805693"><ele>1397.0</ele><time>2026-04-20T13:16:27Z</time></trkpt><trkpt lat="38.15473322508084" lon="-2.420327498498016"><ele>1397.0</ele><time>2026-04-20T13:16:28Z</time></trkpt><trkpt lat="38.15482789018685" lon="-2.4204055828585496"><ele>1397.0</ele><time>2026-04-20T13:16:29Z</time></trkpt><trkpt lat="38.154942799269094" lon="-2.4204664899326516"><ele>1397.0</ele><time>2026-04-20T13:16:30Z</time></trkpt><trkpt lat="38.15505026495575" lon="-2.420526540480186"><ele>1397.0</ele><time>2026-04-20T13:16:31Z</time></trkpt><trkpt lat="38.15515178051521" lon="-2.420596185483815"><ele>1393.0</ele><time>2026-04-20T13:16:32Z</time></trkpt><trkpt lat="38.155261454751724" lon="-2.4206595844311294"><ele>1389.0</ele><time>2026-04-20T13:16:33Z</time></trkpt><trkpt lat="38.1553642355525" lon="-2.4207310445916987"><ele>1385.0</ele><time>2026-04-20T13:16:34Z</time></trkpt><trkpt lat="38.15546204491267" lon="-2.4207947399998377"><ele>1381.0</ele><time>2026-04-20T13:16:35Z</time></trkpt><trkpt lat="38.155565848479604" lon="-2.420844319037643"><ele>1381.0</ele><time>2026-04-20T13:16:36Z</time></trkpt><trkpt lat="38.15566762660318" lon="-2.4208896639680395"><ele>1381.0</ele><time>2026-04-20T13:16:37Z</time></trkpt><trkpt lat="38.155779053501426" lon="-2.420925018452944"><ele>1381.0</ele><time>2026-04-20T13:16:38Z</time></trkpt><trkpt lat="38.155903700397225" lon="-2.4209499389409674"><ele>1381.0</ele><time>2026-04-20T13:16:39Z</time></trkpt><trkpt lat="38.15603594437117" lon="-2.4209610100777916"><ele>1380.0</ele><time>2026-04-20T13:16:40Z</time></trkpt><trkpt lat="38.156163342188435" lon="-2.420970210803733"><ele>1379.0</ele><time>2026-04-20T13:16:41Z</time></trkpt><trkpt lat="38.15628244059196" lon="-2.4209821623344565"><ele>1378.0</ele><time>2026-04-20T13:16:42Z</time></trkpt><trkpt lat="38.156401030697545" lon="-2.42099239941291"><ele>1377.0</ele><time>2026-04-20T13:16:43Z</time></trkpt><trkpt lat="38.156523419230886" lon="-2.4210109656057424"><ele>1376.0</ele><time>2026-04-20T13:16:44Z</time></trkpt><trkpt lat="38.15664097906109" lon="-2.421039190539697"><ele>1375.0</ele><time>2026-04-20T13:16:45Z</time></trkpt><trkpt lat="38.15676171621854" lon="-2.4210570706341077"><ele>1374.0</ele><time>2026-04-20T13:16:46Z</time></trkpt><trkpt lat="38.156883937754365" lon="-2.421053628099035"><ele>1373.0</ele><time>2026-04-20T13:16:47Z</time></trkpt><trkpt lat="38.15701652368849" lon="-2.4210281592838188"><ele>1373.0</ele><time>2026-04-20T13:16:48Z</time></trkpt><trkpt lat="38.15714787847952" lon="-2.4209929478864765"><ele>1373.0</ele><time>2026-04-20T13:16:49Z</time></trkpt><trkpt lat="38.157278390603494" lon="-2.4209511182255468"><ele>1373.0</ele><time>2026-04-20T13:16:50Z</time></trkpt><trkpt lat="38.15740611873407" lon="-2.420910328759948"><ele>1373.0</ele><time>2026-04-20T13:16:51Z</time></trkpt><trkpt lat="38.157528346877925" lon="-2.4208750452042613"><ele>1370.75</ele><time>2026-04-20T13:16:52Z</time></trkpt><trkpt lat="38.157640398398456" lon="-2.4208374121432072"><ele>1368.5</ele><time>2026-04-20T13:16:53Z</time></trkpt><trkpt lat="38.157749411114914" lon="-2.420810891579201"><ele>1366.25</ele><time>2026-04-20T13:16:54Z</time></trkpt><trkpt lat="38.15786416565179" lon="-2.4207749346994527"><ele>1364.0</ele><time>2026-04-20T13:16:55Z</time></trkpt><trkpt lat="38.15797899984475" lon="-2.420765907686699"><ele>1364.0</ele><time>2026-04-20T13:16:56Z</time></trkpt><trkpt lat="38.158099120174036" lon="-2.4207828221421774"><ele>1364.0</ele><time>2026-04-20T13:16:57Z</time></trkpt><trkpt lat="38.15822392817282" lon="-2.4208217903157743"><ele>1364.0</ele><time>2026-04-20T13:16:58Z</time></trkpt><trkpt lat="38.15835291492277" lon="-2.4208737207100577"><ele>1364.0</ele><time>2026-04-20T13:16:59Z</time></trkpt><trkpt lat="38.15848712129312" lon="-2.4209336556846663"><ele>1362.0</ele><time>2026-04-20T13:17:00Z</time></trkpt><trkpt lat="38.15862051722599" lon="-2.420995069999074"><ele>1360.0</ele><time>2026-04-20T13:17:01Z</time></trkpt><trkpt lat="38.15874756394473" lon="-2.421069692546184"><ele>1358.0</ele><time>2026-04-20T13:17:02Z</time></trkpt><trkpt lat="38.15887194217526" lon="-2.4211596443587817"><ele>1356.0</ele><time>2026-04-20T13:17:03Z</time></trkpt><trkpt lat="38.1589987366471" lon="-2.421258683348396"><ele>1353.6666666666667</ele><time>2026-04-20T13:17:04Z</time></trkpt><trkpt lat="38.15911898500813" lon="-2.421366607822631"><ele>1351.3333333333335</ele><time>2026-04-20T13:17:05Z</time></trkpt><trkpt lat="38.159231007411194" lon="-2.421494227341196"><ele>1349.0</ele><time>2026-04-20T13:17:06.001Z</time></trkpt><trkpt lat="38.159337450212234" lon="-2.421634431989598"><ele>1349.0</ele><time>2026-04-20T13:17:07.001Z</time></trkpt><trkpt lat="38.15944798603503" lon="-2.4217577033802336"><ele>1349.0</ele><time>2026-04-20T13:17:08.001Z</time></trkpt><trkpt lat="38.15957044601507" lon="-2.421855188360374"><ele>1349.0</ele><time>2026-04-20T13:17:09.001Z</time></trkpt><trkpt lat="38.15970363572471" lon="-2.4219445672212347"><ele>1349.0</ele><time>2026-04-20T13:17:10.001Z</time></trkpt><trkpt lat="38.15984140001071" lon="-2.422011531896933"><ele>1349.5</ele><time>2026-04-20T13:17:11.001Z</time></trkpt><trkpt lat="38.15998529004623" lon="-2.422056280798803"><ele>1350.0</ele><time>2026-04-20T13:17:12.001Z</time></trkpt><trkpt lat="38.16013329991115" lon="-2.4220987767593996"><ele>1350.5</ele><time>2026-04-20T13:17:13.001Z</time></trkpt><trkpt lat="38.16027291859748" lon="-2.4221492884745386"><ele>1351.0</ele><time>2026-04-20T13:17:14.001Z</time></trkpt><trkpt lat="38.16040349900988" lon="-2.4222255812603435"><ele>1349.25</ele><time>2026-04-20T13:17:15.001Z</time></trkpt><trkpt lat="38.160528271702965" lon="-2.4223228215203076"><ele>1347.5</ele><time>2026-04-20T13:17:16.001Z</time></trkpt><trkpt lat="38.160619657523505" lon="-2.4224598376694684"><ele>1345.75</ele><time>2026-04-20T13:17:17.001Z</time></trkpt><trkpt lat="38.16071293287431" lon="-2.422582861562961"><ele>1344.0</ele><time>2026-04-20T13:17:18.001Z</time></trkpt><trkpt lat="38.160832042352595" lon="-2.422664263745364"><ele>1343.5</ele><time>2026-04-20T13:17:19.001Z</time></trkpt><trkpt lat="38.16096401053915" lon="-2.4227277693127522"><ele>1343.0</ele><time>2026-04-20T13:17:20.001Z</time></trkpt><trkpt lat="38.161087591139136" lon="-2.422814200496782"><ele>1342.5</ele><time>2026-04-20T13:17:21.001Z</time></trkpt><trkpt lat="38.16120207201342" lon="-2.4229099884854133"><ele>1342.0</ele><time>2026-04-20T13:17:22.001Z</time></trkpt><trkpt lat="38.16132108518357" lon="-2.4229755015011785"><ele>1340.25</ele><time>2026-04-20T13:17:23.001Z</time></trkpt><trkpt lat="38.161436522429064" lon="-2.4230181073199635"><ele>1338.5</ele><time>2026-04-20T13:17:24.001Z</time></trkpt><trkpt lat="38.16154428060407" lon="-2.4230535754911378"><ele>1336.75</ele><time>2026-04-20T13:17:25.001Z</time></trkpt><trkpt lat="38.161648691248374" lon="-2.423079009100844"><ele>1335.0</ele><time>2026-04-20T13:17:26.001Z</time></trkpt><trkpt lat="38.16176510538938" lon="-2.423098866273204"><ele>1335.0</ele><time>2026-04-20T13:17:27.001Z</time></trkpt><trkpt lat="38.16189182323603" lon="-2.423106254631509"><ele>1335.0</ele><time>2026-04-20T13:17:28.001Z</time></trkpt><trkpt lat="38.16202306462633" lon="-2.4230990266122525"><ele>1335.0</ele><time>2026-04-20T13:17:29.001Z</time></trkpt><trkpt lat="38.162146274441554" lon="-2.423084350735252"><ele>1335.0</ele><time>2026-04-20T13:17:30.001Z</time></trkpt><trkpt lat="38.162262807047846" lon="-2.423069388164357"><ele>1334.5</ele><time>2026-04-20T13:17:31.001Z</time></trkpt><trkpt lat="38.16238590051602" lon="-2.423060903893503"><ele>1334.0</ele><time>2026-04-20T13:17:32.001Z</time></trkpt><trkpt lat="38.16250509015073" lon="-2.423061808711388"><ele>1333.5</ele><time>2026-04-20T13:17:33.001Z</time></trkpt><trkpt lat="38.162626341408675" lon="-2.423073894487703"><ele>1333.0</ele><time>2026-04-20T13:17:34.001Z</time></trkpt><trkpt lat="38.16274559006932" lon="-2.423096333049638"><ele>1333.0</ele><time>2026-04-20T13:17:35.001Z</time></trkpt><trkpt lat="38.162867266975894" lon="-2.423123706177043"><ele>1333.0</ele><time>2026-04-20T13:17:36.001Z</time></trkpt><trkpt lat="38.16298107449149" lon="-2.423145124510258"><ele>1333.0</ele><time>2026-04-20T13:17:37.001Z</time></trkpt><trkpt lat="38.16308907432128" lon="-2.4231699788959333"><ele>1333.0</ele><time>2026-04-20T13:17:38Z</time></trkpt><trkpt lat="38.16319932451432" lon="-2.4231833843072166"><ele>1334.0</ele><time>2026-04-20T13:17:39Z</time></trkpt><trkpt lat="38.16331525930404" lon="-2.4231824497395915"><ele>1335.0</ele><time>2026-04-20T13:17:40Z</time></trkpt><trkpt lat="38.16342821701265" lon="-2.4231744725426076"><ele>1336.0</ele><time>2026-04-20T13:17:41Z</time></trkpt><trkpt lat="38.163545629692436" lon="-2.423165254819881"><ele>1337.0</ele><time>2026-04-20T13:17:42Z</time></trkpt><trkpt lat="38.163669702821096" lon="-2.423154335583449"><ele>1337.0</ele><time>2026-04-20T13:17:43Z</time></trkpt><trkpt lat="38.16379015268523" lon="-2.4231307090084244"><ele>1337.0</ele><time>2026-04-20T13:17:44Z</time></trkpt><trkpt lat="38.16390284167559" lon="-2.423078028139576"><ele>1337.0</ele><time>2026-04-20T13:17:45Z</time></trkpt><trkpt lat="38.164035359299156" lon="-2.422998460997572"><ele>1337.0</ele><time>2026-04-20T13:17:46Z</time></trkpt><trkpt lat="38.16413738091238" lon="-2.4229152400104663"><ele>1339.0</ele><time>2026-04-20T13:17:47Z</time></trkpt><trkpt lat="38.164240669977126" lon="-2.4228379826686712"><ele>1341.0</ele><time>2026-04-20T13:17:48Z</time></trkpt><trkpt lat="38.16433436719171" lon="-2.4227632343697327"><ele>1343.0</ele><time>2026-04-20T13:17:49Z</time></trkpt><trkpt lat="38.16441808153853" lon="-2.4227186222809216"><ele>1345.0</ele><time>2026-04-20T13:17:50Z</time></trkpt><trkpt lat="38.16450447326098" lon="-2.422704027594974"><ele>1347.0</ele><time>2026-04-20T13:17:51Z</time></trkpt><trkpt lat="38.1645855316645" lon="-2.4227306351834086"><ele>1347.0</ele><time>2026-04-20T13:17:52Z</time></trkpt><trkpt lat="38.164663957282265" lon="-2.4228002234649253"><ele>1347.0</ele><time>2026-04-20T13:17:53Z</time></trkpt><trkpt lat="38.16472918827277" lon="-2.42290785102495"><ele>1347.0</ele><time>2026-04-20T13:17:54Z</time></trkpt><trkpt lat="38.16477611728295" lon="-2.423036590612252"><ele>1347.0</ele><time>2026-04-20T13:17:55Z</time></trkpt><trkpt lat="38.16481462923863" lon="-2.4231752368498265"><ele>1347.0</ele><time>2026-04-20T13:17:56Z</time></trkpt><trkpt lat="38.1648614503337" lon="-2.423305120624678"><ele>1346.1999999999998</ele><time>2026-04-20T13:17:57Z</time></trkpt><trkpt lat="38.164912637789136" lon="-2.4234208238716177"><ele>1345.4</ele><time>2026-04-20T13:17:58Z</time></trkpt><trkpt lat="38.16496868588845" lon="-2.4235199369652065"><ele>1344.6</ele><time>2026-04-20T13:17:59Z</time></trkpt><trkpt lat="38.16503800931083" lon="-2.423607421325716"><ele>1343.8000000000002</ele><time>2026-04-20T13:18:00Z</time></trkpt><trkpt lat="38.16512625806708" lon="-2.4236753448899693"><ele>1343.0</ele><time>2026-04-20T13:18:01Z</time></trkpt><trkpt lat="38.16522577010227" lon="-2.4237335822592563"><ele>1343.0</ele><time>2026-04-20T13:18:02Z</time></trkpt><trkpt lat="38.165322358889235" lon="-2.4237860113137604"><ele>1343.0</ele><time>2026-04-20T13:18:03Z</time></trkpt><trkpt lat="38.16541385671834" lon="-2.423830270560787"><ele>1343.0</ele><time>2026-04-20T13:18:04Z</time></trkpt><trkpt lat="38.1655002551985" lon="-2.4238551722452226"><ele>1343.0</ele><time>2026-04-20T13:18:05Z</time></trkpt><trkpt lat="38.16558094232644" lon="-2.42385404263387"><ele>1343.0</ele><time>2026-04-20T13:18:06Z</time></trkpt><trkpt lat="38.16564707198349" lon="-2.4238261423259257"><ele>1343.0</ele><time>2026-04-20T13:18:07Z</time></trkpt><trkpt lat="38.16571623171563" lon="-2.4237870896110425"><ele>1342.2</ele><time>2026-04-20T13:18:08Z</time></trkpt><trkpt lat="38.16579527818478" lon="-2.4237464409566223"><ele>1341.4</ele><time>2026-04-20T13:18:09Z</time></trkpt><trkpt lat="38.165880419906976" lon="-2.423710055298321"><ele>1340.6000000000001</ele><time>2026-04-20T13:18:10Z</time></trkpt><trkpt lat="38.165965730492566" lon="-2.4236794788724927"><ele>1339.8000000000002</ele><time>2026-04-20T13:18:11Z</time></trkpt><trkpt lat="38.16605688751647" lon="-2.423637057304977"><ele>1339.0</ele><time>2026-04-20T13:18:12Z</time></trkpt><trkpt lat="38.16615265898257" lon="-2.4235911144661513"><ele>1339.0</ele><time>2026-04-20T13:18:13Z</time></trkpt><trkpt lat="38.16625615529525" lon="-2.4235468404574307"><ele>1339.0</ele><time>2026-04-20T13:18:14Z</time></trkpt><trkpt lat="38.166369715095314" lon="-2.4235075387291922"><ele>1339.0</ele><time>2026-04-20T13:18:15Z</time></trkpt><trkpt lat="38.16648313299568" lon="-2.4234569098911494"><ele>1339.0</ele><time>2026-04-20T13:18:16Z</time></trkpt><trkpt lat="38.1665995596596" lon="-2.4234023068326933"><ele>1335.75</ele><time>2026-04-20T13:18:17Z</time></trkpt><trkpt lat="38.16672431637801" lon="-2.4233510249197003"><ele>1332.5</ele><time>2026-04-20T13:18:18Z</time></trkpt><trkpt lat="38.166850094192206" lon="-2.423299410584296"><ele>1329.25</ele><time>2026-04-20T13:18:19Z</time></trkpt><trkpt lat="38.16697528307031" lon="-2.4232398071805985"><ele>1326.0</ele><time>2026-04-20T13:18:20Z</time></trkpt><trkpt lat="38.16708748534011" lon="-2.4231795412006623"><ele>1326.0</ele><time>2026-04-20T13:18:21Z</time></trkpt><trkpt lat="38.16718327751371" lon="-2.423133608915885"><ele>1326.0</ele><time>2026-04-20T13:18:22Z</time></trkpt><trkpt lat="38.167258068875356" lon="-2.4230999635112744"><ele>1326.0</ele><time>2026-04-20T13:18:23Z</time></trkpt><trkpt lat="38.16735697035626" lon="-2.423066170118925"><ele>1326.0</ele><time>2026-04-20T13:18:25Z</time></trkpt><trkpt lat="38.16747027094916" lon="-2.423080153563012"><ele>1326.0</ele><time>2026-04-20T13:18:49Z</time></trkpt><trkpt lat="38.16755354860255" lon="-2.4230718640311006"><ele>1323.8</ele><time>2026-04-20T13:18:50Z</time></trkpt><trkpt lat="38.16765226945875" lon="-2.4230769115012287"><ele>1321.6</ele><time>2026-04-20T13:18:51Z</time></trkpt><trkpt lat="38.167768889470786" lon="-2.4230946779144498"><ele>1319.4</ele><time>2026-04-20T13:18:52Z</time></trkpt><trkpt lat="38.16787967380715" lon="-2.423132642834857"><ele>1317.2</ele><time>2026-04-20T13:18:53Z</time></trkpt><trkpt lat="38.16798228401088" lon="-2.423186840792153"><ele>1315.0</ele><time>2026-04-20T13:18:54Z</time></trkpt><trkpt lat="38.168079416423225" lon="-2.42324800883796"><ele>1315.0</ele><time>2026-04-20T13:18:55Z</time></trkpt><trkpt lat="38.168167210098254" lon="-2.423312807953091"><ele>1315.0</ele><time>2026-04-20T13:18:56Z</time></trkpt><trkpt lat="38.16823354380103" lon="-2.4233715189636773"><ele>1315.0</ele><time>2026-04-20T13:18:57Z</time></trkpt><trkpt lat="38.16834009545821" lon="-2.423372822361744"><ele>1315.0</ele><time>2026-04-20T13:18:59Z</time></trkpt><trkpt lat="38.16833877321979" lon="-2.4232233979376163"><ele>1315.0</ele><time>2026-04-20T13:19:01Z</time></trkpt><trkpt lat="38.16816788929799" lon="-2.423098575780293"><ele>1315.0</ele><time>2026-04-20T13:19:03Z</time></trkpt><trkpt lat="38.168064964883776" lon="-2.4230115530034197"><ele>1315.0</ele><time>2026-04-20T13:19:04Z</time></trkpt><trkpt lat="38.16795104948301" lon="-2.4229229414781486"><ele>1315.0</ele><time>2026-04-20T13:19:05Z</time></trkpt><trkpt lat="38.16783879051741" lon="-2.4228409849260952"><ele>1315.0</ele><time>2026-04-20T13:19:06Z</time></trkpt><trkpt lat="38.16773818367918" lon="-2.422771193006664"><ele>1313.5</ele><time>2026-04-20T13:19:07Z</time></trkpt><trkpt lat="38.16765305837698" lon="-2.4227012325101636"><ele>1312.0</ele><time>2026-04-20T13:19:08Z</time></trkpt><trkpt lat="38.16758448660573" lon="-2.4226394689428457"><ele>1310.5</ele><time>2026-04-20T13:19:09Z</time></trkpt><trkpt lat="38.16752647080278" lon="-2.4225890482483403"><ele>1309.0</ele><time>2026-04-20T13:19:10Z</time></trkpt><trkpt lat="38.16751925781884" lon="-2.4224952065696597"><ele>1307.5</ele><time>2026-04-20T13:19:11Z</time></trkpt><trkpt lat="38.16756388199626" lon="-2.422373170430619"><ele>1306.0</ele><time>2026-04-20T13:19:12Z</time></trkpt><trkpt lat="38.16761591210866" lon="-2.422270762346866"><ele>1306.0</ele><time>2026-04-20T13:19:13Z</time></trkpt><trkpt lat="38.16769560174594" lon="-2.4222129880641066"><ele>1306.0</ele><time>2026-04-20T13:19:14Z</time></trkpt><trkpt lat="38.16780207691054" lon="-2.4221823295996248"><ele>1306.0</ele><time>2026-04-20T13:19:15Z</time></trkpt><trkpt lat="38.16792129025433" lon="-2.422184346151561"><ele>1306.0</ele><time>2026-04-20T13:19:16Z</time></trkpt><trkpt lat="38.16806601011493" lon="-2.422200871598771"><ele>1303.6666666666665</ele><time>2026-04-20T13:19:17Z</time></trkpt><trkpt lat="38.168213833580936" lon="-2.4222277267140364"><ele>1301.3333333333333</ele><time>2026-04-20T13:19:18Z</time></trkpt><trkpt lat="38.168369556773214" lon="-2.4222674286507506"><ele>1299.0</ele><time>2026-04-20T13:19:19Z</time></trkpt><trkpt lat="38.16852092465337" lon="-2.422298136177972"><ele>1299.0</ele><time>2026-04-20T13:19:20Z</time></trkpt><trkpt lat="38.168673839419014" lon="-2.4223217880774772"><ele>1299.0</ele><time>2026-04-20T13:19:21Z</time></trkpt><trkpt lat="38.16882875861336" lon="-2.422369584335712"><ele>1299.0</ele><time>2026-04-20T13:19:22Z</time></trkpt><trkpt lat="38.168963093444525" lon="-2.4224196058340497"><ele>1297.75</ele><time>2026-04-20T13:19:23Z</time></trkpt><trkpt lat="38.169085621845745" lon="-2.4224787158880976"><ele>1296.5</ele><time>2026-04-20T13:19:24Z</time></trkpt><trkpt lat="38.16921088625792" lon="-2.4225357801905347"><ele>1295.25</ele><time>2026-04-20T13:19:25Z</time></trkpt><trkpt lat="38.169340420112796" lon="-2.422516254205657"><ele>1294.0</ele><time>2026-04-20T13:19:26Z</time></trkpt><trkpt lat="38.16948087310736" lon="-2.4224825568213055"><ele>1294.0</ele><time>2026-04-20T13:19:27Z</time></trkpt><trkpt lat="38.16963067763049" lon="-2.4224389816575718"><ele>1294.0</ele><time>2026-04-20T13:19:28Z</time></trkpt><trkpt lat="38.16978587330254" lon="-2.4223788445199506"><ele>1294.0</ele><time>2026-04-20T13:19:29Z</time></trkpt><trkpt lat="38.16994448299306" lon="-2.422304955158835"><ele>1291.6666666666665</ele><time>2026-04-20T13:19:30Z</time></trkpt><trkpt lat="38.17009800606746" lon="-2.422228667519982"><ele>1289.3333333333333</ele><time>2026-04-20T13:19:31Z</time></trkpt><trkpt lat="38.170242278463874" lon="-2.4221798975050075"><ele>1287.0</ele><time>2026-04-20T13:19:32Z</time></trkpt><trkpt lat="38.17037129632303" lon="-2.4221176639086512"><ele>1288.75</ele><time>2026-04-20T13:19:33Z</time></trkpt><trkpt lat="38.17050451979496" lon="-2.4220455910172993"><ele>1290.5</ele><time>2026-04-20T13:19:34Z</time></trkpt><trkpt lat="38.17064635476879" lon="-2.421969768720104"><ele>1292.25</ele><time>2026-04-20T13:19:35Z</time></trkpt><trkpt lat="38.17077292066892" lon="-2.4218719366702666"><ele>1294.0</ele><time>2026-04-20T13:19:36Z</time></trkpt><trkpt lat="38.1708924515056" lon="-2.421792743679437"><ele>1294.0</ele><time>2026-04-20T13:19:37Z</time></trkpt><trkpt lat="38.17100656582285" lon="-2.421690528496768"><ele>1294.0</ele><time>2026-04-20T13:19:38Z</time></trkpt><trkpt lat="38.17111043664525" lon="-2.421554877878281"><ele>1294.0</ele><time>2026-04-20T13:19:39Z</time></trkpt><trkpt lat="38.171224992168696" lon="-2.421424504014512"><ele>1294.0</ele><time>2026-04-20T13:19:40Z</time></trkpt><trkpt lat="38.171321326602545" lon="-2.4213031107937617"><ele>1293.75</ele><time>2026-04-20T13:19:41Z</time></trkpt><trkpt lat="38.17142264849123" lon="-2.4212113825885653"><ele>1293.5</ele><time>2026-04-20T13:19:42Z</time></trkpt><trkpt lat="38.171542702620684" lon="-2.42116014440979"><ele>1293.25</ele><time>2026-04-20T13:19:43Z</time></trkpt><trkpt lat="38.171673459824575" lon="-2.4211427074140746"><ele>1293.0</ele><time>2026-04-20T13:19:44Z</time></trkpt><trkpt lat="38.17180374669339" lon="-2.4211416172235505"><ele>1293.0</ele><time>2026-04-20T13:19:45Z</time></trkpt><trkpt lat="38.171917086117915" lon="-2.421086110798254"><ele>1293.0</ele><time>2026-04-20T13:19:46Z</time></trkpt><trkpt lat="38.172036316908795" lon="-2.4210231148840466"><ele>1293.0</ele><time>2026-04-20T13:19:47Z</time></trkpt><trkpt lat="38.17209811513833" lon="-2.420865366086906"><ele>1293.0</ele><time>2026-04-20T13:19:48Z</time></trkpt><trkpt lat="38.172180454335155" lon="-2.420720163702278"><ele>1293.0</ele><time>2026-04-20T13:19:49Z</time></trkpt><trkpt lat="38.17226622257775" lon="-2.4205995293908815"><ele>1293.0</ele><time>2026-04-20T13:19:50Z</time></trkpt><trkpt lat="38.17235303374222" lon="-2.420494563249734"><ele>1293.0</ele><time>2026-04-20T13:19:51Z</time></trkpt><trkpt lat="38.17246463391771" lon="-2.4204204643416762"><ele>1293.0</ele><time>2026-04-20T13:19:52Z</time></trkpt><trkpt lat="38.17261952698713" lon="-2.4204058966471163"><ele>1291.6666666666667</ele><time>2026-04-20T13:19:53Z</time></trkpt><trkpt lat="38.17276303609046" lon="-2.420374719167127"><ele>1290.3333333333335</ele><time>2026-04-20T13:19:54Z</time></trkpt><trkpt lat="38.17290004935764" lon="-2.420293273305347"><ele>1289.0</ele><time>2026-04-20T13:19:55Z</time></trkpt><trkpt lat="38.17302567494071" lon="-2.42016216189078"><ele>1289.0</ele><time>2026-04-20T13:19:56Z</time></trkpt><trkpt lat="38.173143532222035" lon="-2.420019452513853"><ele>1289.0</ele><time>2026-04-20T13:19:57Z</time></trkpt><trkpt lat="38.17328561812826" lon="-2.4199015814966134"><ele>1289.0</ele><time>2026-04-20T13:19:58Z</time></trkpt><trkpt lat="38.173435652150225" lon="-2.4198072414373324"><ele>1289.3333333333335</ele><time>2026-04-20T13:19:59Z</time></trkpt><trkpt lat="38.17357674976869" lon="-2.419720145052748"><ele>1289.6666666666667</ele><time>2026-04-20T13:20:00Z</time></trkpt><trkpt lat="38.17369545231461" lon="-2.419577495241743"><ele>1290.0</ele><time>2026-04-20T13:20:01Z</time></trkpt><trkpt lat="38.17381771223812" lon="-2.4194221485065905"><ele>1290.0</ele><time>2026-04-20T13:20:02Z</time></trkpt><trkpt lat="38.1739776388563" lon="-2.4192666222223447"><ele>1290.0</ele><time>2026-04-20T13:20:03Z</time></trkpt><trkpt lat="38.174125568115436" lon="-2.4191173209090544"><ele>1290.0</ele><time>2026-04-20T13:20:04Z</time></trkpt><trkpt lat="38.17425694093591" lon="-2.4189757191945604"><ele>1288.3333333333333</ele><time>2026-04-20T13:20:05Z</time></trkpt><trkpt lat="38.17435755081187" lon="-2.418808266555602"><ele>1286.6666666666665</ele><time>2026-04-20T13:20:06Z</time></trkpt><trkpt lat="38.17444941277695" lon="-2.4186457346654593"><ele>1285.0</ele><time>2026-04-20T13:20:07Z</time></trkpt><trkpt lat="38.17452874617159" lon="-2.418478925825813"><ele>1285.0</ele><time>2026-04-20T13:20:08Z</time></trkpt><trkpt lat="38.17459499401382" lon="-2.4182987214389478"><ele>1285.0</ele><time>2026-04-20T13:20:09Z</time></trkpt><trkpt lat="38.17463215356662" lon="-2.4181069632285888"><ele>1285.0</ele><time>2026-04-20T13:20:10Z</time></trkpt><trkpt lat="38.174650570565305" lon="-2.4179117696604524"><ele>1286.75</ele><time>2026-04-20T13:20:11Z</time></trkpt><trkpt lat="38.1746502366525" lon="-2.417740343508528"><ele>1288.5</ele><time>2026-04-20T13:20:12Z</time></trkpt><trkpt lat="38.17461903864629" lon="-2.41763682553339"><ele>1290.25</ele><time>2026-04-20T13:20:13Z</time></trkpt><trkpt lat="38.17454008655862" lon="-2.417560003264419"><ele>1292.0</ele><time>2026-04-20T13:20:14Z</time></trkpt><trkpt lat="38.17446053918286" lon="-2.4174167408067375"><ele>1292.0</ele><time>2026-04-20T13:20:15Z</time></trkpt><trkpt lat="38.17442475856403" lon="-2.4172643404824283"><ele>1292.0</ele><time>2026-04-20T13:20:16Z</time></trkpt><trkpt lat="38.17438972949812" lon="-2.417145496507591"><ele>1292.0</ele><time>2026-04-20T13:20:17Z</time></trkpt><trkpt lat="38.17436010569539" lon="-2.4170284394570376"><ele>1292.0</ele><time>2026-04-20T13:20:18Z</time></trkpt><trkpt lat="38.17435050159055" lon="-2.4169139244670035"><ele>1292.0</ele><time>2026-04-20T13:20:19Z</time></trkpt><trkpt lat="38.17431925666579" lon="-2.4168119758597135"><ele>1291.6</ele><time>2026-04-20T13:20:20Z</time></trkpt><trkpt lat="38.17429870244178" lon="-2.416700176537734"><ele>1291.1999999999998</ele><time>2026-04-20T13:20:21Z</time></trkpt><trkpt lat="38.17435504186334" lon="-2.416568837675811"><ele>1290.8</ele><time>2026-04-20T13:20:22Z</time></trkpt><trkpt lat="38.17436638685605" lon="-2.416452350806191"><ele>1290.4</ele><time>2026-04-20T13:20:23Z</time></trkpt><trkpt lat="38.17438193336384" lon="-2.4163546126407964"><ele>1290.0</ele><time>2026-04-20T13:20:24Z</time></trkpt><trkpt lat="38.17439618948853" lon="-2.4162509638044485"><ele>1290.0</ele><time>2026-04-20T13:20:25Z</time></trkpt><trkpt lat="38.17441400383932" lon="-2.4161643716687102"><ele>1290.0</ele><time>2026-04-20T13:20:26Z</time></trkpt><trkpt lat="38.17444986300123" lon="-2.416078217027287"><ele>1290.0</ele><time>2026-04-20T13:20:27Z</time></trkpt><trkpt lat="38.174505298257735" lon="-2.416003539270799"><ele>1290.0</ele><time>2026-04-20T13:20:28Z</time></trkpt><trkpt lat="38.174581328738064" lon="-2.41596298420856"><ele>1290.0</ele><time>2026-04-20T13:20:29Z</time></trkpt><trkpt lat="38.17466638593192" lon="-2.4159470756043544"><ele>1290.0</ele><time>2026-04-20T13:20:30Z</time></trkpt><trkpt lat="38.174748400709284" lon="-2.4159491327572824"><ele>1290.0</ele><time>2026-04-20T13:20:31Z</time></trkpt><trkpt lat="38.17482317601988" lon="-2.415950768947022"><ele>1290.0</ele><time>2026-04-20T13:20:32Z</time></trkpt><trkpt lat="38.17489031989807" lon="-2.4159362336375185"><ele>1290.0</ele><time>2026-04-20T13:20:33Z</time></trkpt><trkpt lat="38.174936638210504" lon="-2.4158757937466677"><ele>1290.0</ele><time>2026-04-20T13:20:34Z</time></trkpt><trkpt lat="38.175000410197555" lon="-2.4158306733903254"><ele>1290.0</ele><time>2026-04-20T13:20:35Z</time></trkpt><trkpt lat="38.17503542560544" lon="-2.4157355685077246"><ele>1290.0</ele><time>2026-04-20T13:20:36Z</time></trkpt><trkpt lat="38.17507755383938" lon="-2.4156387626665183"><ele>1290.0</ele><time>2026-04-20T13:20:37Z</time></trkpt><trkpt lat="38.175114736740746" lon="-2.4155233536546854"><ele>1290.0</ele><time>2026-04-20T13:20:38Z</time></trkpt><trkpt lat="38.17514863367685" lon="-2.415391322735743"><ele>1290.0</ele><time>2026-04-20T13:20:39Z</time></trkpt><trkpt lat="38.17518231646354" lon="-2.4152533425287483"><ele>1290.0</ele><time>2026-04-20T13:20:40Z</time></trkpt><trkpt lat="38.175216105626376" lon="-2.4151196288270964"><ele>1290.0</ele><time>2026-04-20T13:20:41Z</time></trkpt><trkpt lat="38.17524891970317" lon="-2.4149990550225238"><ele>1290.0</ele><time>2026-04-20T13:20:42Z</time></trkpt><trkpt lat="38.17528270295342" lon="-2.414878106022327"><ele>1290.0</ele><time>2026-04-20T13:20:43Z</time></trkpt><trkpt lat="38.17531589748551" lon="-2.41475926474899"><ele>1290.0</ele><time>2026-04-20T13:20:44Z</time></trkpt><trkpt lat="38.17534811553105" lon="-2.414643919403354"><ele>1290.0</ele><time>2026-04-20T13:20:45Z</time></trkpt><trkpt lat="38.175378275257835" lon="-2.4145253375953875"><ele>1290.0</ele><time>2026-04-20T13:20:46Z</time></trkpt><trkpt lat="38.1754125139935" lon="-2.4143809077665965"><ele>1293.0</ele><time>2026-04-20T13:20:47Z</time></trkpt><trkpt lat="38.1754522753085" lon="-2.414213182005999"><ele>1296.0</ele><time>2026-04-20T13:20:48Z</time></trkpt><trkpt lat="38.17550820133484" lon="-2.414048430273598"><ele>1299.0</ele><time>2026-04-20T13:20:49Z</time></trkpt><trkpt lat="38.17554673564882" lon="-2.4138656286880305"><ele>1302.0</ele><time>2026-04-20T13:20:50Z</time></trkpt><trkpt lat="38.17559382576496" lon="-2.4136782150830385"><ele>1301.0</ele><time>2026-04-20T13:20:51Z</time></trkpt><trkpt lat="38.175637955200884" lon="-2.4134902247825716"><ele>1300.0</ele><time>2026-04-20T13:20:52Z</time></trkpt><trkpt lat="38.175682386781105" lon="-2.413319416557765"><ele>1299.0</ele><time>2026-04-20T13:20:53Z</time></trkpt><trkpt lat="38.1757295097031" lon="-2.4131608753200102"><ele>1298.0</ele><time>2026-04-20T13:20:54Z</time></trkpt><trkpt lat="38.17578071805303" lon="-2.413010024473228"><ele>1298.75</ele><time>2026-04-20T13:20:55Z</time></trkpt><trkpt lat="38.175830360184115" lon="-2.412861692436612"><ele>1299.5</ele><time>2026-04-20T13:20:56Z</time></trkpt><trkpt lat="38.17587814448472" lon="-2.4127080729561277"><ele>1300.25</ele><time>2026-04-20T13:20:57Z</time></trkpt><trkpt lat="38.17592768408814" lon="-2.412560995720433"><ele>1301.0</ele><time>2026-04-20T13:20:58Z</time></trkpt><trkpt lat="38.17595984245064" lon="-2.4124070672574076"><ele>1301.0</ele><time>2026-04-20T13:20:59Z</time></trkpt><trkpt lat="38.17598083369056" lon="-2.4122512453217118"><ele>1301.0</ele><time>2026-04-20T13:21:00Z</time></trkpt><trkpt lat="38.17598144247728" lon="-2.412093313405468"><ele>1301.0</ele><time>2026-04-20T13:21:01Z</time></trkpt><trkpt lat="38.17596421886261" lon="-2.4119360476046676"><ele>1301.0</ele><time>2026-04-20T13:21:02Z</time></trkpt><trkpt lat="38.17593750686101" lon="-2.411800825227946"><ele>1301.8</ele><time>2026-04-20T13:21:03Z</time></trkpt><trkpt lat="38.17587856323166" lon="-2.411674855649058"><ele>1302.6</ele><time>2026-04-20T13:21:04Z</time></trkpt><trkpt lat="38.175817548176774" lon="-2.4115681677318648"><ele>1303.4</ele><time>2026-04-20T13:21:05Z</time></trkpt><trkpt lat="38.175760088698105" lon="-2.411481984765881"><ele>1304.2</ele><time>2026-04-20T13:21:06Z</time></trkpt><trkpt lat="38.17571870879777" lon="-2.4114177160272483"><ele>1305.0</ele><time>2026-04-20T13:21:07Z</time></trkpt><trkpt lat="38.17568393553661" lon="-2.411279640624979"><ele>1305.0</ele><time>2026-04-20T13:21:09Z</time></trkpt><trkpt lat="38.1757731720711" lon="-2.4111860248787007"><ele>1305.0</ele><time>2026-04-20T13:21:11Z</time></trkpt><trkpt lat="38.17585100280282" lon="-2.4111862543214655"><ele>1305.0</ele><time>2026-04-20T13:21:12Z</time></trkpt><trkpt lat="38.17593898456761" lon="-2.411288924792287"><ele>1305.0</ele><time>2026-04-20T13:21:13Z</time></trkpt><trkpt lat="38.17599612888366" lon="-2.4113604755624785"><ele>1305.0</ele><time>2026-04-20T13:21:14Z</time></trkpt><trkpt lat="38.17608551264493" lon="-2.411471878114333"><ele>1305.0</ele><time>2026-04-20T13:21:15Z</time></trkpt><trkpt lat="38.17617760593205" lon="-2.4116090936159407"><ele>1305.0</ele><time>2026-04-20T13:21:16Z</time></trkpt><trkpt lat="38.17626594124478" lon="-2.411730440034351"><ele>1305.0</ele><time>2026-04-20T13:21:17Z</time></trkpt><trkpt lat="38.17634186141567" lon="-2.41188184767379"><ele>1305.0</ele><time>2026-04-20T13:21:18Z</time></trkpt><trkpt lat="38.17637609622754" lon="-2.4119573453519116"><ele>1305.0</ele><time>2026-04-20T13:21:20Z</time></trkpt><trkpt lat="38.1764190441815" lon="-2.4120656618815417"><ele>1305.0</ele><time>2026-04-20T13:21:21Z</time></trkpt><trkpt lat="38.1764541433039" lon="-2.412167268360016"><ele>1305.0</ele><time>2026-04-20T13:21:22Z</time></trkpt><trkpt lat="38.17648371418266" lon="-2.4122723471894316"><ele>1305.0</ele><time>2026-04-20T13:21:23Z</time></trkpt><trkpt lat="38.17649109571433" lon="-2.4123780436334226"><ele>1305.0</ele><time>2026-04-20T13:21:24Z</time></trkpt><trkpt lat="38.176510227219204" lon="-2.4124802782115933"><ele>1305.0</ele><time>2026-04-20T13:21:25Z</time></trkpt><trkpt lat="38.176533895384225" lon="-2.4125937154423376"><ele>1304.3333333333333</ele><time>2026-04-20T13:21:26Z</time></trkpt><trkpt lat="38.17651915625325" lon="-2.412725360198987"><ele>1303.6666666666667</ele><time>2026-04-20T13:21:27Z</time></trkpt><trkpt lat="38.17649788374637" lon="-2.4128416207507986"><ele>1303.0</ele><time>2026-04-20T13:21:28Z</time></trkpt><trkpt lat="38.17645325198316" lon="-2.4129292073958823"><ele>1302.3333333333335</ele><time>2026-04-20T13:21:29Z</time></trkpt><trkpt lat="38.1764491701244" lon="-2.413022706381509"><ele>1301.6666666666667</ele><time>2026-04-20T13:21:30Z</time></trkpt><trkpt lat="38.17647075011487" lon="-2.4131380417834793"><ele>1301.0</ele><time>2026-04-20T13:21:32Z</time></trkpt><trkpt lat="38.17653361228334" lon="-2.4131871712312836"><ele>1302.6</ele><time>2026-04-20T13:21:35Z</time></trkpt><trkpt lat="38.176633998502425" lon="-2.41326341773377"><ele>1304.1999999999998</ele><time>2026-04-20T13:21:37Z</time></trkpt><trkpt lat="38.176761009240636" lon="-2.413292688023302"><ele>1305.8000000000002</ele><time>2026-04-20T13:21:39Z</time></trkpt><trkpt lat="38.17684032952222" lon="-2.4132603001082806"><ele>1307.4</ele><time>2026-04-20T13:21:40Z</time></trkpt><trkpt lat="38.176924389440465" lon="-2.4132375495318104"><ele>1309.0</ele><time>2026-04-20T13:21:41Z</time></trkpt><trkpt lat="38.176999761239536" lon="-2.4132117287687933"><ele>1309.0</ele><time>2026-04-20T13:21:42Z</time></trkpt><trkpt lat="38.17710630432985" lon="-2.413170334541986"><ele>1309.0</ele><time>2026-04-20T13:21:44Z</time></trkpt><trkpt lat="38.1771806946897" lon="-2.4131417309269723"><ele>1309.0</ele><time>2026-04-20T13:21:45Z</time></trkpt><trkpt lat="38.17726725968469" lon="-2.4131114869040524"><ele>1309.0</ele><time>2026-04-20T13:21:46Z</time></trkpt><trkpt lat="38.177350724310884" lon="-2.413083574887244"><ele>1309.0</ele><time>2026-04-20T13:21:47Z</time></trkpt><trkpt lat="38.177427254928" lon="-2.413070820359419"><ele>1309.0</ele><time>2026-04-20T13:21:48Z</time></trkpt><trkpt lat="38.17749904544693" lon="-2.4130283473500818"><ele>1309.8333333333333</ele><time>2026-04-20T13:21:49Z</time></trkpt><trkpt lat="38.17757539025169" lon="-2.4129969429158926"><ele>1310.6666666666665</ele><time>2026-04-20T13:21:50Z</time></trkpt><trkpt lat="38.17765244750895" lon="-2.4129652454131287"><ele>1311.5</ele><time>2026-04-20T13:21:51Z</time></trkpt><trkpt lat="38.177734708240365" lon="-2.412953003441307"><ele>1312.3333333333333</ele><time>2026-04-20T13:21:52Z</time></trkpt><trkpt lat="38.17781291362159" lon="-2.4129215496375878"><ele>1313.1666666666667</ele><time>2026-04-20T13:21:53Z</time></trkpt><trkpt lat="38.17788132515945" lon="-2.4129072713479918"><ele>1314.0</ele><time>2026-04-20T13:21:54Z</time></trkpt><trkpt lat="38.178013347257355" lon="-2.4129306223301104"><ele>1314.0</ele><time>2026-04-20T13:21:56Z</time></trkpt><trkpt lat="38.17808824546532" lon="-2.412976316184935"><ele>1314.0</ele><time>2026-04-20T13:21:57Z</time></trkpt><trkpt lat="38.17816746965653" lon="-2.4130343033142867"><ele>1314.0</ele><time>2026-04-20T13:21:58Z</time></trkpt><trkpt lat="38.17824728180164" lon="-2.4130957749065223"><ele>1314.0</ele><time>2026-04-20T13:21:59Z</time></trkpt><trkpt lat="38.17832897023077" lon="-2.413153196624038"><ele>1314.0</ele><time>2026-04-20T13:22:00Z</time></trkpt><trkpt lat="38.17841304418812" lon="-2.4132124764695324"><ele>1314.0</ele><time>2026-04-20T13:22:01Z</time></trkpt><trkpt lat="38.17849784935645" lon="-2.4132756284006116"><ele>1314.0</ele><time>2026-04-20T13:22:02Z</time></trkpt><trkpt lat="38.178578723049654" lon="-2.4133543906185624"><ele>1314.0</ele><time>2026-04-20T13:22:03Z</time></trkpt><trkpt lat="38.178654615554315" lon="-2.4134497670296673"><ele>1314.0</ele><time>2026-04-20T13:22:04Z</time></trkpt><trkpt lat="38.178730016438024" lon="-2.413536585282828"><ele>1314.0</ele><time>2026-04-20T13:22:05Z</time></trkpt><trkpt lat="38.17880104998331" lon="-2.4136125630276015"><ele>1314.0</ele><time>2026-04-20T13:22:06Z</time></trkpt><trkpt lat="38.17888144354613" lon="-2.4136861423444467"><ele>1314.0</ele><time>2026-04-20T13:22:07Z</time></trkpt><trkpt lat="38.1789770005156" lon="-2.4137512653596915"><ele>1314.0</ele><time>2026-04-20T13:22:08Z</time></trkpt><trkpt lat="38.17908628749539" lon="-2.413808166776387"><ele>1314.0</ele><time>2026-04-20T13:22:09Z</time></trkpt><trkpt lat="38.179195841384185" lon="-2.413859514750706"><ele>1314.0</ele><time>2026-04-20T13:22:10Z</time></trkpt><trkpt lat="38.17931078370895" lon="-2.413904237903437"><ele>1311.5</ele><time>2026-04-20T13:22:11Z</time></trkpt><trkpt lat="38.179423953793716" lon="-2.4139500655738098"><ele>1309.0</ele><time>2026-04-20T13:22:12Z</time></trkpt><trkpt lat="38.17953332841455" lon="-2.4139984459338324"><ele>1306.5</ele><time>2026-04-20T13:22:13Z</time></trkpt><trkpt lat="38.17964442237723" lon="-2.4140386381247367"><ele>1304.0</ele><time>2026-04-20T13:22:14Z</time></trkpt><trkpt lat="38.17976430907201" lon="-2.4140766309864676"><ele>1304.0</ele><time>2026-04-20T13:22:15Z</time></trkpt><trkpt lat="38.179878808132464" lon="-2.414119009138215"><ele>1304.0</ele><time>2026-04-20T13:22:16Z</time></trkpt><trkpt lat="38.179989191126914" lon="-2.414165511470236"><ele>1304.0</ele><time>2026-04-20T13:22:17Z</time></trkpt><trkpt lat="38.180097278464544" lon="-2.414216622230588"><ele>1304.0</ele><time>2026-04-20T13:22:18Z</time></trkpt><trkpt lat="38.18019679085495" lon="-2.4142676107151892"><ele>1304.0</ele><time>2026-04-20T13:22:19Z</time></trkpt><trkpt lat="38.180292734455165" lon="-2.414311863577348"><ele>1304.0</ele><time>2026-04-20T13:22:20Z</time></trkpt><trkpt lat="38.18038143631851" lon="-2.414359581698961"><ele>1304.0</ele><time>2026-04-20T13:22:21Z</time></trkpt><trkpt lat="38.18044932747252" lon="-2.4144096495867404"><ele>1304.0</ele><time>2026-04-20T13:22:22Z</time></trkpt><trkpt lat="38.18051974247737" lon="-2.414520038492254"><ele>1304.0</ele><time>2026-04-20T13:22:24Z</time></trkpt><trkpt lat="38.180502778894784" lon="-2.414693425876073"><ele>1302.25</ele><time>2026-04-20T13:22:26Z</time></trkpt><trkpt lat="38.180464077981156" lon="-2.41480788189587"><ele>1300.5</ele><time>2026-04-20T13:22:27Z</time></trkpt><trkpt lat="38.180414731529055" lon="-2.4149427077126657"><ele>1298.75</ele><time>2026-04-20T13:22:28Z</time></trkpt><trkpt lat="38.18036287656929" lon="-2.4150887863237074"><ele>1297.0</ele><time>2026-04-20T13:22:29Z</time></trkpt><trkpt lat="38.18031734021377" lon="-2.415219604480727"><ele>1297.0</ele><time>2026-04-20T13:22:30Z</time></trkpt><trkpt lat="38.180282568093105" lon="-2.415332962571217"><ele>1297.0</ele><time>2026-04-20T13:22:31Z</time></trkpt><trkpt lat="38.18025651389906" lon="-2.4154445714582184"><ele>1297.0</ele><time>2026-04-20T13:22:32Z</time></trkpt><trkpt lat="38.180244220511256" lon="-2.4155513736423906"><ele>1297.0</ele><time>2026-04-20T13:22:33Z</time></trkpt><trkpt lat="38.1802485025046" lon="-2.415661075498366"><ele>1297.0</ele><time>2026-04-20T13:22:34Z</time></trkpt><trkpt lat="38.18027213652197" lon="-2.415780185970933"><ele>1296.5</ele><time>2026-04-20T13:22:35Z</time></trkpt><trkpt lat="38.18031771579896" lon="-2.415903575875435"><ele>1296.0</ele><time>2026-04-20T13:22:36Z</time></trkpt><trkpt lat="38.18037859188601" lon="-2.4160302012864574"><ele>1295.5</ele><time>2026-04-20T13:22:37Z</time></trkpt><trkpt lat="38.18044426168485" lon="-2.4161702879852838"><ele>1295.0</ele><time>2026-04-20T13:22:38Z</time></trkpt><trkpt lat="38.18051443131409" lon="-2.4163117683831143"><ele>1295.25</ele><time>2026-04-20T13:22:39Z</time></trkpt><trkpt lat="38.18058272437083" lon="-2.4164631576697"><ele>1295.5</ele><time>2026-04-20T13:22:40Z</time></trkpt><trkpt lat="38.18064548716239" lon="-2.4166182665285363"><ele>1295.75</ele><time>2026-04-20T13:22:41Z</time></trkpt><trkpt lat="38.180698562299895" lon="-2.4167828356715035"><ele>1296.0</ele><time>2026-04-20T13:22:42Z</time></trkpt><trkpt lat="38.18075024497517" lon="-2.416948478574224"><ele>1296.0</ele><time>2026-04-20T13:22:43Z</time></trkpt><trkpt lat="38.18080053570552" lon="-2.417111605315457"><ele>1296.0</ele><time>2026-04-20T13:22:44Z</time></trkpt><trkpt lat="38.18084495689667" lon="-2.4172651458915206"><ele>1296.0</ele><time>2026-04-20T13:22:45Z</time></trkpt><trkpt lat="38.18088074616459" lon="-2.4174093829635983"><ele>1296.0</ele><time>2026-04-20T13:22:46Z</time></trkpt><trkpt lat="38.1809263410603" lon="-2.4175368602248932"><ele>1295.5</ele><time>2026-04-20T13:22:47Z</time></trkpt><trkpt lat="38.180988197784714" lon="-2.4176591148315576"><ele>1295.0</ele><time>2026-04-20T13:22:48Z</time></trkpt><trkpt lat="38.181065283467056" lon="-2.4177743716506632"><ele>1294.5</ele><time>2026-04-20T13:22:49Z</time></trkpt><trkpt lat="38.181157680182785" lon="-2.4178838547256416"><ele>1294.0</ele><time>2026-04-20T13:22:50Z</time></trkpt><trkpt lat="38.18125447804065" lon="-2.417996092132924"><ele>1293.75</ele><time>2026-04-20T13:22:51Z</time></trkpt><trkpt lat="38.181347750367756" lon="-2.418110516044645"><ele>1293.5</ele><time>2026-04-20T13:22:52Z</time></trkpt><trkpt lat="38.1814332946162" lon="-2.418218470529878"><ele>1293.25</ele><time>2026-04-20T13:22:53Z</time></trkpt><trkpt lat="38.18152429786808" lon="-2.4183257484693454"><ele>1293.0</ele><time>2026-04-20T13:22:54Z</time></trkpt><trkpt lat="38.1816252458085" lon="-2.4184203613002357"><ele>1293.0</ele><time>2026-04-20T13:22:55Z</time></trkpt><trkpt lat="38.18172566497926" lon="-2.418512784295417"><ele>1293.0</ele><time>2026-04-20T13:22:56Z</time></trkpt><trkpt lat="38.18182472381809" lon="-2.418595719555986"><ele>1293.0</ele><time>2026-04-20T13:22:57Z</time></trkpt><trkpt lat="38.18192320750487" lon="-2.4186735188508273"><ele>1293.0</ele><time>2026-04-20T13:22:58Z</time></trkpt><trkpt lat="38.18202348730327" lon="-2.4187567308095095"><ele>1292.5</ele><time>2026-04-20T13:22:59Z</time></trkpt><trkpt lat="38.18211839312126" lon="-2.418844316799375"><ele>1292.0</ele><time>2026-04-20T13:23:00Z</time></trkpt><trkpt lat="38.182210956282354" lon="-2.4189311166417973"><ele>1291.5</ele><time>2026-04-20T13:23:01Z</time></trkpt><trkpt lat="38.18229996070938" lon="-2.419023055088029"><ele>1291.0</ele><time>2026-04-20T13:23:02Z</time></trkpt><trkpt lat="38.182378264265935" lon="-2.419126465868072"><ele>1291.0</ele><time>2026-04-20T13:23:03Z</time></trkpt><trkpt lat="38.18244168745104" lon="-2.419227483811475"><ele>1291.0</ele><time>2026-04-20T13:23:04Z</time></trkpt><trkpt lat="38.182497148368476" lon="-2.4193439162307437"><ele>1291.0</ele><time>2026-04-20T13:23:05Z</time></trkpt><trkpt lat="38.1825565977965" lon="-2.419461081185845"><ele>1291.0</ele><time>2026-04-20T13:23:06Z</time></trkpt><trkpt lat="38.18262770238581" lon="-2.41957622686115"><ele>1291.0</ele><time>2026-04-20T13:23:07Z</time></trkpt><trkpt lat="38.18270833519112" lon="-2.4196822482593783"><ele>1290.1999999999998</ele><time>2026-04-20T13:23:08Z</time></trkpt><trkpt lat="38.18278359213549" lon="-2.419790253292857"><ele>1289.3999999999999</ele><time>2026-04-20T13:23:09Z</time></trkpt><trkpt lat="38.18284821796618" lon="-2.4198997662605315"><ele>1288.6</ele><time>2026-04-20T13:23:10Z</time></trkpt><trkpt lat="38.18291108817014" lon="-2.4200110045541785"><ele>1287.8</ele><time>2026-04-20T13:23:11Z</time></trkpt><trkpt lat="38.18296960783149" lon="-2.420121244517116"><ele>1287.0</ele><time>2026-04-20T13:23:12Z</time></trkpt><trkpt lat="38.18303582794686" lon="-2.420236479931121"><ele>1287.0</ele><time>2026-04-20T13:23:13Z</time></trkpt><trkpt lat="38.183105647165306" lon="-2.420356872004306"><ele>1287.0</ele><time>2026-04-20T13:23:14Z</time></trkpt><trkpt lat="38.18317774263981" lon="-2.4204797956543973"><ele>1287.0</ele><time>2026-04-20T13:23:15Z</time></trkpt><trkpt lat="38.18326023022994" lon="-2.4206021604743864"><ele>1287.0</ele><time>2026-04-20T13:23:16Z</time></trkpt><trkpt lat="38.183347641859626" lon="-2.420727205227405"><ele>1287.1999999999998</ele><time>2026-04-20T13:23:17Z</time></trkpt><trkpt lat="38.18343098661003" lon="-2.420844828717745"><ele>1287.4</ele><time>2026-04-20T13:23:18Z</time></trkpt><trkpt lat="38.18350776056456" lon="-2.4209497843991388"><ele>1287.6</ele><time>2026-04-20T13:23:19Z</time></trkpt><trkpt lat="38.18357742952979" lon="-2.4210439459616175"><ele>1287.8000000000002</ele><time>2026-04-20T13:23:20Z</time></trkpt><trkpt lat="38.18364032707923" lon="-2.4211239383393464"><ele>1288.0</ele><time>2026-04-20T13:23:21Z</time></trkpt><trkpt lat="38.183715891413755" lon="-2.421181784318623"><ele>1288.0</ele><time>2026-04-20T13:23:22Z</time></trkpt><trkpt lat="38.183805122568344" lon="-2.4212180328232895"><ele>1288.0</ele><time>2026-04-20T13:23:23Z</time></trkpt><trkpt lat="38.183908316729685" lon="-2.421229533265131"><ele>1288.0</ele><time>2026-04-20T13:23:24Z</time></trkpt><trkpt lat="38.184021291969714" lon="-2.421215249928935"><ele>1288.0</ele><time>2026-04-20T13:23:25Z</time></trkpt><trkpt lat="38.18414408891755" lon="-2.421198690401423"><ele>1288.0</ele><time>2026-04-20T13:23:26Z</time></trkpt><trkpt lat="38.18427698427241" lon="-2.421176631602073"><ele>1288.0</ele><time>2026-04-20T13:23:27Z</time></trkpt><trkpt lat="38.18441505790816" lon="-2.4211503974907465"><ele>1288.0</ele><time>2026-04-20T13:23:28Z</time></trkpt><trkpt lat="38.184556823545535" lon="-2.4211262601505235"><ele>1288.0</ele><time>2026-04-20T13:23:29Z</time></trkpt><trkpt lat="38.1846992579685" lon="-2.4210927120072023"><ele>1288.0</ele><time>2026-04-20T13:23:30Z</time></trkpt><trkpt lat="38.18483497475946" lon="-2.421079448373248"><ele>1286.25</ele><time>2026-04-20T13:23:31Z</time></trkpt><trkpt lat="38.184977261426674" lon="-2.4210450052984935"><ele>1284.5</ele><time>2026-04-20T13:23:32Z</time></trkpt><trkpt lat="38.1851237111238" lon="-2.42102984936047"><ele>1282.75</ele><time>2026-04-20T13:23:33Z</time></trkpt><trkpt lat="38.18526162966589" lon="-2.421009074160521"><ele>1281.0</ele><time>2026-04-20T13:23:34Z</time></trkpt><trkpt lat="38.18540014870847" lon="-2.4209895226503444"><ele>1281.0</ele><time>2026-04-20T13:23:35Z</time></trkpt><trkpt lat="38.18553746176391" lon="-2.4209736842683838"><ele>1281.0</ele><time>2026-04-20T13:23:36Z</time></trkpt><trkpt lat="38.185680678807906" lon="-2.4209560036612205"><ele>1281.0</ele><time>2026-04-20T13:23:37Z</time></trkpt><trkpt lat="38.18582530670719" lon="-2.4209361894879953"><ele>1281.0</ele><time>2026-04-20T13:23:38Z</time></trkpt><trkpt lat="38.18595960247532" lon="-2.4209205385723553"><ele>1279.25</ele><time>2026-04-20T13:23:39Z</time></trkpt><trkpt lat="38.18608427912484" lon="-2.4209050392893294"><ele>1277.5</ele><time>2026-04-20T13:23:40Z</time></trkpt><trkpt lat="38.186205282226446" lon="-2.4208898014413935"><ele>1275.75</ele><time>2026-04-20T13:23:41Z</time></trkpt><trkpt lat="38.18633206839156" lon="-2.4208708680734947"><ele>1274.0</ele><time>2026-04-20T13:23:42Z</time></trkpt><trkpt lat="38.186460775049966" lon="-2.4208508492588336"><ele>1273.5</ele><time>2026-04-20T13:23:43Z</time></trkpt><trkpt lat="38.186597480884366" lon="-2.4208202145725077"><ele>1273.0</ele><time>2026-04-20T13:23:44Z</time></trkpt><trkpt lat="38.18672766526065" lon="-2.4207972285938064"><ele>1272.5</ele><time>2026-04-20T13:23:45Z</time></trkpt><trkpt lat="38.18684849786425" lon="-2.4207858070044006"><ele>1272.0</ele><time>2026-04-20T13:23:46Z</time></trkpt><trkpt lat="38.18696311008526" lon="-2.420771597241457"><ele>1272.0</ele><time>2026-04-20T13:23:47Z</time></trkpt><trkpt lat="38.18707405196318" lon="-2.4207489319370947"><ele>1272.0</ele><time>2026-04-20T13:23:48Z</time></trkpt><trkpt lat="38.187176789593494" lon="-2.4207143658105545"><ele>1272.0</ele><time>2026-04-20T13:23:49Z</time></trkpt><trkpt lat="38.1872666492033" lon="-2.4206497176488813"><ele>1272.0</ele><time>2026-04-20T13:23:50Z</time></trkpt><trkpt lat="38.187367667096325" lon="-2.4205835099568915"><ele>1272.0</ele><time>2026-04-20T13:23:51Z</time></trkpt><trkpt lat="38.18747782477389" lon="-2.4205013836896647"><ele>1271.75</ele><time>2026-04-20T13:23:52Z</time></trkpt><trkpt lat="38.18759555980246" lon="-2.420412208264556"><ele>1271.5</ele><time>2026-04-20T13:23:53Z</time></trkpt><trkpt lat="38.18771776362627" lon="-2.4203358739828214"><ele>1271.25</ele><time>2026-04-20T13:23:54Z</time></trkpt><trkpt lat="38.18783707026277" lon="-2.4202531437257484"><ele>1271.0</ele><time>2026-04-20T13:23:55Z</time></trkpt><trkpt lat="38.187948470562254" lon="-2.4201698810238668"><ele>1271.0</ele><time>2026-04-20T13:23:56Z</time></trkpt><trkpt lat="38.18805672478047" lon="-2.42008973164709"><ele>1271.0</ele><time>2026-04-20T13:23:57Z</time></trkpt><trkpt lat="38.18816580375908" lon="-2.4200028905282904"><ele>1271.0</ele><time>2026-04-20T13:23:58Z</time></trkpt><trkpt lat="38.18827540357881" lon="-2.419904005813387"><ele>1271.0</ele><time>2026-04-20T13:23:59Z</time></trkpt><trkpt lat="38.18838358368744" lon="-2.4197984230042966"><ele>1270.25</ele><time>2026-04-20T13:24:00Z</time></trkpt><trkpt lat="38.18849779949433" lon="-2.4196842283931823"><ele>1269.5</ele><time>2026-04-20T13:24:01Z</time></trkpt><trkpt lat="38.188607748125804" lon="-2.419573762561525"><ele>1268.75</ele><time>2026-04-20T13:24:02Z</time></trkpt><trkpt lat="38.188714997075884" lon="-2.419466969467161"><ele>1268.0</ele><time>2026-04-20T13:24:03Z</time></trkpt><trkpt lat="38.18882773842195" lon="-2.419362355844657"><ele>1268.0</ele><time>2026-04-20T13:24:04Z</time></trkpt><trkpt lat="38.18893366769208" lon="-2.4192555489049496"><ele>1268.0</ele><time>2026-04-20T13:24:05Z</time></trkpt><trkpt lat="38.18903030868119" lon="-2.419165138453643"><ele>1268.0</ele><time>2026-04-20T13:24:06Z</time></trkpt><trkpt lat="38.18912311066935" lon="-2.4190797153006556"><ele>1268.0</ele><time>2026-04-20T13:24:07Z</time></trkpt><trkpt lat="38.189208227533754" lon="-2.4190074144741485"><ele>1266.2</ele><time>2026-04-20T13:24:08Z</time></trkpt><trkpt lat="38.189300015870586" lon="-2.418956405783278"><ele>1264.4</ele><time>2026-04-20T13:24:09Z</time></trkpt><trkpt lat="38.18940216135006" lon="-2.418910057248425"><ele>1262.6000000000001</ele><time>2026-04-20T13:24:10Z</time></trkpt><trkpt lat="38.18951101322317" lon="-2.418874304008376"><ele>1260.8</ele><time>2026-04-20T13:24:11Z</time></trkpt><trkpt lat="38.18962949845132" lon="-2.418844135630988"><ele>1259.0</ele><time>2026-04-20T13:24:12Z</time></trkpt><trkpt lat="38.18974737156222" lon="-2.418823021008065"><ele>1259.8</ele><time>2026-04-20T13:24:13Z</time></trkpt><trkpt lat="38.18986290176444" lon="-2.418798472774454"><ele>1260.6000000000001</ele><time>2026-04-20T13:24:14Z</time></trkpt><trkpt lat="38.18997369243498" lon="-2.418770180440308"><ele>1261.4</ele><time>2026-04-20T13:24:15Z</time></trkpt><trkpt lat="38.19007519754854" lon="-2.4187384376738224"><ele>1262.2</ele><time>2026-04-20T13:24:16Z</time></trkpt><trkpt lat="38.19016477453005" lon="-2.4187156508225103"><ele>1263.0</ele><time>2026-04-20T13:24:17Z</time></trkpt><trkpt lat="38.19025191502236" lon="-2.4186828706236083"><ele>1263.0</ele><time>2026-04-20T13:24:18Z</time></trkpt><trkpt lat="38.190341896607016" lon="-2.4186366979775125"><ele>1263.0</ele><time>2026-04-20T13:24:19Z</time></trkpt><trkpt lat="38.19041214586374" lon="-2.4185490084614685"><ele>1263.0</ele><time>2026-04-20T13:24:20Z</time></trkpt><trkpt lat="38.190497536025795" lon="-2.4184604961897396"><ele>1263.0</ele><time>2026-04-20T13:24:21Z</time></trkpt><trkpt lat="38.19058680889248" lon="-2.4183598088579417"><ele>1263.0</ele><time>2026-04-20T13:24:22Z</time></trkpt><trkpt lat="38.19068170020971" lon="-2.4182502556674637"><ele>1261.0</ele><time>2026-04-20T13:24:23Z</time></trkpt><trkpt lat="38.190777262217345" lon="-2.4181406624997814"><ele>1259.0</ele><time>2026-04-20T13:24:24Z</time></trkpt><trkpt lat="38.19087631779465" lon="-2.4180270637341073"><ele>1257.0</ele><time>2026-04-20T13:24:25Z</time></trkpt><trkpt lat="38.19098032463104" lon="-2.417909012768098"><ele>1255.0</ele><time>2026-04-20T13:24:26Z</time></trkpt><trkpt lat="38.19108743731833" lon="-2.4177878584139116"><ele>1255.0</ele><time>2026-04-20T13:24:27Z</time></trkpt><trkpt lat="38.191192757111025" lon="-2.4176687314907404"><ele>1255.0</ele><time>2026-04-20T13:24:28Z</time></trkpt><trkpt lat="38.19129309629088" lon="-2.41755523803321"><ele>1255.0</ele><time>2026-04-20T13:24:29Z</time></trkpt><trkpt lat="38.19140314631856" lon="-2.417457912609425"><ele>1255.0</ele><time>2026-04-20T13:24:30Z</time></trkpt><trkpt lat="38.19149153050306" lon="-2.4173307901697276"><ele>1254.0</ele><time>2026-04-20T13:24:31Z</time></trkpt><trkpt lat="38.19159098239739" lon="-2.417218300794204"><ele>1253.0</ele><time>2026-04-20T13:24:32Z</time></trkpt><trkpt lat="38.19168721239233" lon="-2.417109455531856"><ele>1252.0</ele><time>2026-04-20T13:24:33Z</time></trkpt><trkpt lat="38.19179213734162" lon="-2.417009694333208"><ele>1251.0</ele><time>2026-04-20T13:24:34Z</time></trkpt><trkpt lat="38.19189293129123" lon="-2.416899485511202"><ele>1250.5</ele><time>2026-04-20T13:24:35Z</time></trkpt><trkpt lat="38.19199166387757" lon="-2.4167843675342056"><ele>1250.0</ele><time>2026-04-20T13:24:36Z</time></trkpt><trkpt lat="38.192077160158036" lon="-2.4166691056517187"><ele>1249.5</ele><time>2026-04-20T13:24:37Z</time></trkpt><trkpt lat="38.19216979401426" lon="-2.4165820914933374"><ele>1249.0</ele><time>2026-04-20T13:24:38Z</time></trkpt><trkpt lat="38.192248236469524" lon="-2.4164848655668036"><ele>1249.0</ele><time>2026-04-20T13:24:39Z</time></trkpt><trkpt lat="38.192323865276485" lon="-2.4164043594739013"><ele>1249.0</ele><time>2026-04-20T13:24:40Z</time></trkpt><trkpt lat="38.19240997395572" lon="-2.4163407928995255"><ele>1249.0</ele><time>2026-04-20T13:24:41Z</time></trkpt><trkpt lat="38.192498275682865" lon="-2.416298540288227"><ele>1249.0</ele><time>2026-04-20T13:24:42Z</time></trkpt><trkpt lat="38.19258795106402" lon="-2.4162732496136266"><ele>1249.0</ele><time>2026-04-20T13:24:43Z</time></trkpt><trkpt lat="38.19267781619464" lon="-2.416271370380201"><ele>1248.4</ele><time>2026-04-20T13:24:44Z</time></trkpt><trkpt lat="38.1927784348367" lon="-2.4162897741000586"><ele>1247.8000000000002</ele><time>2026-04-20T13:24:45Z</time></trkpt><trkpt lat="38.192878728291376" lon="-2.416334066038678"><ele>1247.1999999999998</ele><time>2026-04-20T13:24:46Z</time></trkpt><trkpt lat="38.19298350025444" lon="-2.4163885084612087"><ele>1246.6</ele><time>2026-04-20T13:24:47Z</time></trkpt><trkpt lat="38.19308966656554" lon="-2.41645067747201"><ele>1246.0</ele><time>2026-04-20T13:24:48Z</time></trkpt><trkpt lat="38.19319412197108" lon="-2.416508687508909"><ele>1246.0</ele><time>2026-04-20T13:24:49Z</time></trkpt><trkpt lat="38.19328388005477" lon="-2.4165797828107696"><ele>1246.0</ele><time>2026-04-20T13:24:50Z</time></trkpt><trkpt lat="38.19336676973086" lon="-2.416660342827082"><ele>1246.0</ele><time>2026-04-20T13:24:51Z</time></trkpt><trkpt lat="38.19344360551465" lon="-2.41675227175222"><ele>1246.0</ele><time>2026-04-20T13:24:52Z</time></trkpt><trkpt lat="38.19351614358676" lon="-2.4168494260244073"><ele>1246.0</ele><time>2026-04-20T13:24:53Z</time></trkpt><trkpt lat="38.193580736250205" lon="-2.416952162014509"><ele>1246.0</ele><time>2026-04-20T13:24:54Z</time></trkpt><trkpt lat="38.193636731709404" lon="-2.417064360031087"><ele>1246.0</ele><time>2026-04-20T13:24:55Z</time></trkpt><trkpt lat="38.19368150072588" lon="-2.4171833726352205"><ele>1246.0</ele><time>2026-04-20T13:24:56Z</time></trkpt><trkpt lat="38.19371495168851" lon="-2.4173247106057896"><ele>1246.0</ele><time>2026-04-20T13:24:57Z</time></trkpt><trkpt lat="38.19373932497614" lon="-2.417477542198119"><ele>1246.0</ele><time>2026-04-20T13:24:58Z</time></trkpt><trkpt lat="38.19374991533992" lon="-2.4176447935105925"><ele>1245.25</ele><time>2026-04-20T13:24:59Z</time></trkpt><trkpt lat="38.19375085243793" lon="-2.417827267915587"><ele>1244.5</ele><time>2026-04-20T13:25:00Z</time></trkpt><trkpt lat="38.19374932374048" lon="-2.4180180322369433"><ele>1243.75</ele><time>2026-04-20T13:25:01Z</time></trkpt><trkpt lat="38.193755198029145" lon="-2.418215359199751"><ele>1243.0</ele><time>2026-04-20T13:25:02Z</time></trkpt><trkpt lat="38.1937630622151" lon="-2.418408707551746"><ele>1243.0</ele><time>2026-04-20T13:25:03Z</time></trkpt><trkpt lat="38.193762574731814" lon="-2.418581598600641"><ele>1243.0</ele><time>2026-04-20T13:25:04Z</time></trkpt><trkpt lat="38.1937560693359" lon="-2.4187319474632747"><ele>1243.0</ele><time>2026-04-20T13:25:05Z</time></trkpt><trkpt lat="38.19374803815421" lon="-2.4188822973921216"><ele>1243.0</ele><time>2026-04-20T13:25:06Z</time></trkpt><trkpt lat="38.1937341851158" lon="-2.41904474601852"><ele>1243.0</ele><time>2026-04-20T13:25:07Z</time></trkpt><trkpt lat="38.19371782992975" lon="-2.419201044491472"><ele>1243.0</ele><time>2026-04-20T13:25:08Z</time></trkpt><trkpt lat="38.19370018942791" lon="-2.4193464552878523"><ele>1243.0</ele><time>2026-04-20T13:25:09Z</time></trkpt><trkpt lat="38.193688275748976" lon="-2.4194745366743846"><ele>1243.0</ele><time>2026-04-20T13:25:10Z</time></trkpt><trkpt lat="38.193678306886255" lon="-2.419582198751885"><ele>1243.0</ele><time>2026-04-20T13:25:11Z</time></trkpt><trkpt lat="38.19366748419153" lon="-2.419669703506146"><ele>1243.2</ele><time>2026-04-20T13:25:12Z</time></trkpt><trkpt lat="38.19364653279676" lon="-2.4197630463151256"><ele>1243.4</ele><time>2026-04-20T13:25:13Z</time></trkpt><trkpt lat="38.19361983538476" lon="-2.419871375230815"><ele>1243.6000000000001</ele><time>2026-04-20T13:25:14Z</time></trkpt><trkpt lat="38.19359386103692" lon="-2.419985200102612"><ele>1243.8</ele><time>2026-04-20T13:25:15Z</time></trkpt><trkpt lat="38.19355479796401" lon="-2.4201117173093167"><ele>1244.0</ele><time>2026-04-20T13:25:16Z</time></trkpt><trkpt lat="38.19350466589634" lon="-2.420240139727244"><ele>1244.0</ele><time>2026-04-20T13:25:17Z</time></trkpt><trkpt lat="38.19345031069514" lon="-2.420362522093782"><ele>1244.0</ele><time>2026-04-20T13:25:18Z</time></trkpt><trkpt lat="38.193395621273375" lon="-2.420486149478781"><ele>1244.0</ele><time>2026-04-20T13:25:19Z</time></trkpt><trkpt lat="38.19334291157706" lon="-2.4206148170064536"><ele>1244.0</ele><time>2026-04-20T13:25:20Z</time></trkpt><trkpt lat="38.193290332056534" lon="-2.420736658071614"><ele>1244.0</ele><time>2026-04-20T13:25:21Z</time></trkpt><trkpt lat="38.1932393372634" lon="-2.42085088455966"><ele>1243.2</ele><time>2026-04-20T13:25:22Z</time></trkpt><trkpt lat="38.19319202619398" lon="-2.420966781265873"><ele>1242.4</ele><time>2026-04-20T13:25:23Z</time></trkpt><trkpt lat="38.1931428719461" lon="-2.4210804935665893"><ele>1241.6</ele><time>2026-04-20T13:25:24Z</time></trkpt><trkpt lat="38.19309597932346" lon="-2.4211920257017097"><ele>1240.8</ele><time>2026-04-20T13:25:25Z</time></trkpt><trkpt lat="38.19304707544143" lon="-2.4213004879413154"><ele>1240.0</ele><time>2026-04-20T13:25:26Z</time></trkpt><trkpt lat="38.1929880876275" lon="-2.421404036307787"><ele>1241.8</ele><time>2026-04-20T13:25:27Z</time></trkpt><trkpt lat="38.19292654221508" lon="-2.421506924991197"><ele>1243.6</ele><time>2026-04-20T13:25:28Z</time></trkpt><trkpt lat="38.192872576748194" lon="-2.4216178817341953"><ele>1245.4</ele><time>2026-04-20T13:25:29Z</time></trkpt><trkpt lat="38.19281497297485" lon="-2.421725205052091"><ele>1247.2</ele><time>2026-04-20T13:25:30Z</time></trkpt><trkpt lat="38.19275777058954" lon="-2.4218249146368156"><ele>1249.0</ele><time>2026-04-20T13:25:31Z</time></trkpt><trkpt lat="38.192704996127446" lon="-2.4219291037010033"><ele>1249.0</ele><time>2026-04-20T13:25:32Z</time></trkpt><trkpt lat="38.192673268737884" lon="-2.4220452994529973"><ele>1249.0</ele><time>2026-04-20T13:25:33Z</time></trkpt><trkpt lat="38.19265230136472" lon="-2.422167354912521"><ele>1249.0</ele><time>2026-04-20T13:25:34Z</time></trkpt><trkpt lat="38.19263064793448" lon="-2.422297001291534"><ele>1249.0</ele><time>2026-04-20T13:25:35Z</time></trkpt><trkpt lat="38.19260603615776" lon="-2.4224273420456495"><ele>1249.0</ele><time>2026-04-20T13:25:36Z</time></trkpt><trkpt lat="38.192576760955326" lon="-2.422561087621613"><ele>1252.0</ele><time>2026-04-20T13:25:37Z</time></trkpt><trkpt lat="38.192545272024276" lon="-2.4226959018431633"><ele>1255.0</ele><time>2026-04-20T13:25:38Z</time></trkpt><trkpt lat="38.19251396575515" lon="-2.42283857574613"><ele>1258.0</ele><time>2026-04-20T13:25:39Z</time></trkpt><trkpt lat="38.19247571256473" lon="-2.422977688573901"><ele>1261.0</ele><time>2026-04-20T13:25:40Z</time></trkpt><trkpt lat="38.19243998807594" lon="-2.4231232215656777"><ele>1264.25</ele><time>2026-04-20T13:25:41Z</time></trkpt><trkpt lat="38.19240068784995" lon="-2.4232711120383352"><ele>1267.5</ele><time>2026-04-20T13:25:42Z</time></trkpt><trkpt lat="38.19236405488042" lon="-2.423419703796243"><ele>1270.75</ele><time>2026-04-20T13:25:43Z</time></trkpt><trkpt lat="38.19232958348192" lon="-2.423568546247948"><ele>1274.0</ele><time>2026-04-20T13:25:44Z</time></trkpt><trkpt lat="38.1922947611587" lon="-2.4237091599676233"><ele>1267.75</ele><time>2026-04-20T13:25:45Z</time></trkpt><trkpt lat="38.192257460403276" lon="-2.4238447157445466"><ele>1261.5</ele><time>2026-04-20T13:25:46Z</time></trkpt><trkpt lat="38.19222402928534" lon="-2.4239824288560836"><ele>1255.25</ele><time>2026-04-20T13:25:47Z</time></trkpt><trkpt lat="38.19219381182524" lon="-2.4241283900544954"><ele>1249.0</ele><time>2026-04-20T13:25:48Z</time></trkpt><trkpt lat="38.192166242385255" lon="-2.4242719733163143"><ele>1249.0</ele><time>2026-04-20T13:25:49Z</time></trkpt><trkpt lat="38.19213998088502" lon="-2.4244141812304085"><ele>1249.0</ele><time>2026-04-20T13:25:50Z</time></trkpt><trkpt lat="38.192118834616444" lon="-2.42455540385038"><ele>1249.0</ele><time>2026-04-20T13:25:51Z</time></trkpt><trkpt lat="38.19210195864765" lon="-2.424696556338856"><ele>1249.0</ele><time>2026-04-20T13:25:52Z</time></trkpt><trkpt lat="38.19210093263326" lon="-2.4248466687913743"><ele>1250.5</ele><time>2026-04-20T13:25:53Z</time></trkpt><trkpt lat="38.1921075350296" lon="-2.425001571490263"><ele>1252.0</ele><time>2026-04-20T13:25:54Z</time></trkpt><trkpt lat="38.19211837487536" lon="-2.425158405760816"><ele>1253.5</ele><time>2026-04-20T13:25:55Z</time></trkpt><trkpt lat="38.19212808667452" lon="-2.425315933284924"><ele>1255.0</ele><time>2026-04-20T13:25:56Z</time></trkpt><trkpt lat="38.19213588171769" lon="-2.425478594358776"><ele>1255.5</ele><time>2026-04-20T13:25:57Z</time></trkpt><trkpt lat="38.19215810328247" lon="-2.4256433421788755"><ele>1256.0</ele><time>2026-04-20T13:25:58Z</time></trkpt><trkpt lat="38.19218836317629" lon="-2.4258030156985058"><ele>1256.5</ele><time>2026-04-20T13:25:59Z</time></trkpt><trkpt lat="38.1922283025491" lon="-2.4259360057956756"><ele>1257.0</ele><time>2026-04-20T13:26:00Z</time></trkpt><trkpt lat="38.19227886494221" lon="-2.4260408803894955"><ele>1261.0</ele><time>2026-04-20T13:26:01Z</time></trkpt><trkpt lat="38.19235008759967" lon="-2.4261416082359695"><ele>1265.0</ele><time>2026-04-20T13:26:02Z</time></trkpt><trkpt lat="38.19244938755693" lon="-2.426226265367248"><ele>1269.0</ele><time>2026-04-20T13:26:03Z</time></trkpt><trkpt lat="38.19255951509023" lon="-2.42630509360284"><ele>1273.0</ele><time>2026-04-20T13:26:04Z</time></trkpt><trkpt lat="38.19268629193741" lon="-2.426381021028579"><ele>1273.0</ele><time>2026-04-20T13:26:05Z</time></trkpt><trkpt lat="38.19283724534" lon="-2.426461952513337"><ele>1273.0</ele><time>2026-04-20T13:26:06Z</time></trkpt><trkpt lat="38.19300199992545" lon="-2.426547809390727"><ele>1273.0</ele><time>2026-04-20T13:26:07Z</time></trkpt><trkpt lat="38.19317075180628" lon="-2.426641472942374"><ele>1276.3333333333333</ele><time>2026-04-20T13:26:08Z</time></trkpt><trkpt lat="38.19334023409256" lon="-2.4267306571926643"><ele>1279.6666666666667</ele><time>2026-04-20T13:26:09Z</time></trkpt><trkpt lat="38.19348229570332" lon="-2.426811356762508"><ele>1283.0</ele><time>2026-04-20T13:26:10Z</time></trkpt><trkpt lat="38.1936101158106" lon="-2.4268779149512825"><ele>1283.0</ele><time>2026-04-20T13:26:11Z</time></trkpt><trkpt lat="38.19373577723342" lon="-2.426929006731428"><ele>1283.0</ele><time>2026-04-20T13:26:12Z</time></trkpt><trkpt lat="38.193869651648996" lon="-2.426965579014215"><ele>1283.0</ele><time>2026-04-20T13:26:13Z</time></trkpt><trkpt lat="38.1940040757102" lon="-2.4269875191403036"><ele>1283.0</ele><time>2026-04-20T13:26:14Z</time></trkpt><trkpt lat="38.19413353213623" lon="-2.4269532942848153"><ele>1284.75</ele><time>2026-04-20T13:26:15Z</time></trkpt><trkpt lat="38.19425552075185" lon="-2.4269007326924386"><ele>1286.5</ele><time>2026-04-20T13:26:16Z</time></trkpt><trkpt lat="38.19437537035557" lon="-2.4268365037119923"><ele>1288.25</ele><time>2026-04-20T13:26:17Z</time></trkpt><trkpt lat="38.19449521136698" lon="-2.426762850410719"><ele>1290.0</ele><time>2026-04-20T13:26:18Z</time></trkpt><trkpt lat="38.194615024209334" lon="-2.4266847977140653"><ele>1290.0</ele><time>2026-04-20T13:26:19Z</time></trkpt><trkpt lat="38.194744763167016" lon="-2.426611447949114"><ele>1290.0</ele><time>2026-04-20T13:26:20Z</time></trkpt><trkpt lat="38.19486135077368" lon="-2.4265096831883435"><ele>1290.0</ele><time>2026-04-20T13:26:21Z</time></trkpt><trkpt lat="38.19498758507963" lon="-2.426414399145568"><ele>1290.0</ele><time>2026-04-20T13:26:22Z</time></trkpt><trkpt lat="38.195113361437976" lon="-2.4263182474315754"><ele>1292.0</ele><time>2026-04-20T13:26:23Z</time></trkpt><trkpt lat="38.19523455324913" lon="-2.4262234907963376"><ele>1294.0</ele><time>2026-04-20T13:26:24Z</time></trkpt><trkpt lat="38.19534127302894" lon="-2.426132301190514"><ele>1296.0</ele><time>2026-04-20T13:26:25Z</time></trkpt><trkpt lat="38.19543775153247" lon="-2.4260423007068557"><ele>1298.0</ele><time>2026-04-20T13:26:26Z</time></trkpt><trkpt lat="38.19552235130792" lon="-2.425960172124522"><ele>1298.0</ele><time>2026-04-20T13:26:27Z</time></trkpt><trkpt lat="38.19559536286234" lon="-2.4258841973548293"><ele>1298.0</ele><time>2026-04-20T13:26:28Z</time></trkpt><trkpt lat="38.19567093863494" lon="-2.4258021534851224"><ele>1298.0</ele><time>2026-04-20T13:26:29Z</time></trkpt><trkpt lat="38.19577003087945" lon="-2.425719944732216"><ele>1298.0</ele><time>2026-04-20T13:26:30Z</time></trkpt><trkpt lat="38.19585548839344" lon="-2.425605012644821"><ele>1298.0</ele><time>2026-04-20T13:26:31Z</time></trkpt><trkpt lat="38.19595573544873" lon="-2.4254988347630415"><ele>1299.25</ele><time>2026-04-20T13:26:32Z</time></trkpt><trkpt lat="38.196048751206924" lon="-2.425388481234595"><ele>1300.5</ele><time>2026-04-20T13:26:33Z</time></trkpt><trkpt lat="38.196145539399126" lon="-2.4252791839220023"><ele>1301.75</ele><time>2026-04-20T13:26:34Z</time></trkpt><trkpt lat="38.196238823265375" lon="-2.4251817978480714"><ele>1303.0</ele><time>2026-04-20T13:26:35Z</time></trkpt><trkpt lat="38.19634062911238" lon="-2.4250920132654543"><ele>1303.0</ele><time>2026-04-20T13:26:36Z</time></trkpt><trkpt lat="38.1964583320677" lon="-2.4250006568552993"><ele>1303.0</ele><time>2026-04-20T13:26:37Z</time></trkpt><trkpt lat="38.19657852097166" lon="-2.4249085237149193"><ele>1303.0</ele><time>2026-04-20T13:26:38Z</time></trkpt><trkpt lat="38.19670813606192" lon="-2.424796528773403"><ele>1303.0</ele><time>2026-04-20T13:26:39Z</time></trkpt><trkpt lat="38.19684776212627" lon="-2.424689230894248"><ele>1304.25</ele><time>2026-04-20T13:26:40Z</time></trkpt><trkpt lat="38.19697974412786" lon="-2.4245758532604635"><ele>1305.5</ele><time>2026-04-20T13:26:41Z</time></trkpt><trkpt lat="38.19709525302244" lon="-2.4244735630164476"><ele>1306.75</ele><time>2026-04-20T13:26:42Z</time></trkpt><trkpt lat="38.19721032228703" lon="-2.4243796384913052"><ele>1308.0</ele><time>2026-04-20T13:26:43Z</time></trkpt><trkpt lat="38.1973416941835" lon="-2.424295424824255"><ele>1304.3333333333333</ele><time>2026-04-20T13:26:44Z</time></trkpt><trkpt lat="38.19746935671304" lon="-2.424186447944974"><ele>1300.6666666666665</ele><time>2026-04-20T13:26:45Z</time></trkpt><trkpt lat="38.197600746746204" lon="-2.424079614129307"><ele>1297.0</ele><time>2026-04-20T13:26:46Z</time></trkpt><trkpt lat="38.197724687543904" lon="-2.423978006355141"><ele>1297.0</ele><time>2026-04-20T13:26:47Z</time></trkpt><trkpt lat="38.197841200966735" lon="-2.4238736174192725"><ele>1297.0</ele><time>2026-04-20T13:26:48Z</time></trkpt><trkpt lat="38.19795850502444" lon="-2.4237675891358506"><ele>1297.0</ele><time>2026-04-20T13:26:49Z</time></trkpt><trkpt lat="38.198069627915416" lon="-2.4236745302596083"><ele>1297.0</ele><time>2026-04-20T13:26:50Z</time></trkpt><trkpt lat="38.19816965205712" lon="-2.4235912104998643"><ele>1298.8</ele><time>2026-04-20T13:26:51Z</time></trkpt><trkpt lat="38.19826190935464" lon="-2.4235301027135905"><ele>1300.6</ele><time>2026-04-20T13:26:52Z</time></trkpt><trkpt lat="38.19835102044573" lon="-2.423503753745053"><ele>1302.3999999999999</ele><time>2026-04-20T13:26:53Z</time></trkpt><trkpt lat="38.19843595590591" lon="-2.423513730901713"><ele>1304.1999999999998</ele><time>2026-04-20T13:26:54Z</time></trkpt><trkpt lat="38.198518437089234" lon="-2.4235629773182037"><ele>1306.0</ele><time>2026-04-20T13:26:55Z</time></trkpt><trkpt lat="38.19858934139467" lon="-2.4236466039839186"><ele>1306.0</ele><time>2026-04-20T13:26:56Z</time></trkpt><trkpt lat="38.19864726232894" lon="-2.4237665057287696"><ele>1306.0</ele><time>2026-04-20T13:26:57Z</time></trkpt><trkpt lat="38.19870105191811" lon="-2.423909365028612"><ele>1306.0</ele><time>2026-04-20T13:26:58Z</time></trkpt><trkpt lat="38.19875470249808" lon="-2.4240658485965354"><ele>1306.0</ele><time>2026-04-20T13:26:59Z</time></trkpt><trkpt lat="38.19880031986939" lon="-2.4242338337776603"><ele>1304.0</ele><time>2026-04-20T13:27:00Z</time></trkpt><trkpt lat="38.19883121198188" lon="-2.4244078402803035"><ele>1302.0</ele><time>2026-04-20T13:27:01Z</time></trkpt><trkpt lat="38.19885003005898" lon="-2.4245991693467035"><ele>1300.0</ele><time>2026-04-20T13:27:02Z</time></trkpt><trkpt lat="38.19885439205291" lon="-2.4247940425102303"><ele>1298.0</ele><time>2026-04-20T13:27:03Z</time></trkpt><trkpt lat="38.198861895273616" lon="-2.42496317192034"><ele>1297.5</ele><time>2026-04-20T13:27:04Z</time></trkpt><trkpt lat="38.198882191611105" lon="-2.4251129501399604"><ele>1297.0</ele><time>2026-04-20T13:27:05Z</time></trkpt><trkpt lat="38.19891367935146" lon="-2.4252517507364946"><ele>1296.5</ele><time>2026-04-20T13:27:06Z</time></trkpt><trkpt lat="38.19896594048545" lon="-2.425388721036525"><ele>1296.0</ele><time>2026-04-20T13:27:07Z</time></trkpt><trkpt lat="38.199047691596896" lon="-2.4255242737227753"><ele>1297.75</ele><time>2026-04-20T13:27:08Z</time></trkpt><trkpt lat="38.1991527784461" lon="-2.4256502177424117"><ele>1299.5</ele><time>2026-04-20T13:27:09Z</time></trkpt><trkpt lat="38.19925866734233" lon="-2.4257643163830958"><ele>1301.25</ele><time>2026-04-20T13:27:10Z</time></trkpt><trkpt lat="38.199369523036744" lon="-2.425876393242216"><ele>1303.0</ele><time>2026-04-20T13:27:11Z</time></trkpt><trkpt lat="38.19949331677269" lon="-2.425985906235124"><ele>1303.0</ele><time>2026-04-20T13:27:12Z</time></trkpt><trkpt lat="38.199621775937764" lon="-2.4260856480775725"><ele>1303.0</ele><time>2026-04-20T13:27:13Z</time></trkpt><trkpt lat="38.19974554504374" lon="-2.4261808083353245"><ele>1303.0</ele><time>2026-04-20T13:27:14Z</time></trkpt><trkpt lat="38.19986408837075" lon="-2.42627365969133"><ele>1303.0</ele><time>2026-04-20T13:27:15Z</time></trkpt><trkpt lat="38.19998327388131" lon="-2.426360298872954"><ele>1300.5</ele><time>2026-04-20T13:27:16Z</time></trkpt><trkpt lat="38.200099121060106" lon="-2.42643993774396"><ele>1298.0</ele><time>2026-04-20T13:27:17Z</time></trkpt><trkpt lat="38.20021810380354" lon="-2.4265032481167665"><ele>1295.5</ele><time>2026-04-20T13:27:18Z</time></trkpt><trkpt lat="38.20034111670679" lon="-2.4265573914319463"><ele>1293.0</ele><time>2026-04-20T13:27:19Z</time></trkpt><trkpt lat="38.20047703757529" lon="-2.4265902494208906"><ele>1293.0</ele><time>2026-04-20T13:27:20Z</time></trkpt><trkpt lat="38.20062135686995" lon="-2.4266045056110506"><ele>1293.0</ele><time>2026-04-20T13:27:21Z</time></trkpt><trkpt lat="38.20077082886957" lon="-2.426616122849274"><ele>1293.0</ele><time>2026-04-20T13:27:22Z</time></trkpt><trkpt lat="38.20092323852611" lon="-2.4266235289321436"><ele>1293.0</ele><time>2026-04-20T13:27:23Z</time></trkpt><trkpt lat="38.201078686368945" lon="-2.4266256537696047"><ele>1293.0</ele><time>2026-04-20T13:27:24Z</time></trkpt><trkpt lat="38.20123099405174" lon="-2.426624181228442"><ele>1293.0</ele><time>2026-04-20T13:27:25Z</time></trkpt><trkpt lat="38.20138287310539" lon="-2.426593012252971"><ele>1293.0</ele><time>2026-04-20T13:27:26Z</time></trkpt><trkpt lat="38.201538387989956" lon="-2.4265925724969066"><ele>1292.3333333333333</ele><time>2026-04-20T13:27:27Z</time></trkpt><trkpt lat="38.201696510493214" lon="-2.426571913971646"><ele>1291.6666666666665</ele><time>2026-04-20T13:27:28Z</time></trkpt><trkpt lat="38.20184900357534" lon="-2.4265541402507167"><ele>1291.0</ele><time>2026-04-20T13:27:29Z</time></trkpt><trkpt lat="38.20200359016708" lon="-2.4265338743933613"><ele>1291.0</ele><time>2026-04-20T13:27:30Z</time></trkpt><trkpt lat="38.20216109537263" lon="-2.4265123008381866"><ele>1291.0</ele><time>2026-04-20T13:27:31Z</time></trkpt><trkpt lat="38.20231750525074" lon="-2.426480438285594"><ele>1291.0</ele><time>2026-04-20T13:27:32Z</time></trkpt><trkpt lat="38.202479275957884" lon="-2.4264440669378216"><ele>1290.6666666666665</ele><time>2026-04-20T13:27:33Z</time></trkpt><trkpt lat="38.20264123983631" lon="-2.4264153301050713"><ele>1290.3333333333333</ele><time>2026-04-20T13:27:34Z</time></trkpt><trkpt lat="38.20280512863729" lon="-2.426390882257533"><ele>1290.0</ele><time>2026-04-20T13:27:35Z</time></trkpt><trkpt lat="38.20296951586235" lon="-2.426373910379412"><ele>1290.0</ele><time>2026-04-20T13:27:36Z</time></trkpt><trkpt lat="38.20313431139273" lon="-2.42635826653154"><ele>1290.0</ele><time>2026-04-20T13:27:37Z</time></trkpt><trkpt lat="38.20330561783149" lon="-2.4263411192504565"><ele>1290.0</ele><time>2026-04-20T13:27:38Z</time></trkpt><trkpt lat="38.203466846979055" lon="-2.4263296862384713"><ele>1290.5</ele><time>2026-04-20T13:27:39Z</time></trkpt><trkpt lat="38.20360853820966" lon="-2.426327905726885"><ele>1291.0</ele><time>2026-04-20T13:27:40Z</time></trkpt><trkpt lat="38.20374296636412" lon="-2.4263227716752582"><ele>1291.5</ele><time>2026-04-20T13:27:41Z</time></trkpt><trkpt lat="38.20385979733283" lon="-2.4263070036101033"><ele>1292.0</ele><time>2026-04-20T13:27:42Z</time></trkpt><trkpt lat="38.20396821752182" lon="-2.4262549356853356"><ele>1291.3999999999999</ele><time>2026-04-20T13:27:43Z</time></trkpt><trkpt lat="38.204061777848146" lon="-2.4262077528785944"><ele>1290.8</ele><time>2026-04-20T13:27:44Z</time></trkpt><trkpt lat="38.20414183590962" lon="-2.4261667630139976"><ele>1290.2</ele><time>2026-04-20T13:27:45Z</time></trkpt><trkpt lat="38.20415393446242" lon="-2.426026817574297"><ele>1289.6</ele><time>2026-04-20T13:27:46Z</time></trkpt><trkpt lat="38.204208659579926" lon="-2.42588120143685"><ele>1289.0</ele><time>2026-04-20T13:27:47Z</time></trkpt><trkpt lat="38.204278114852016" lon="-2.425728218078564"><ele>1289.0</ele><time>2026-04-20T13:27:48Z</time></trkpt><trkpt lat="38.20436334684072" lon="-2.4255801949676767"><ele>1289.0</ele><time>2026-04-20T13:27:49Z</time></trkpt><trkpt lat="38.204442191254905" lon="-2.4254330914163127"><ele>1289.0</ele><time>2026-04-20T13:27:50Z</time></trkpt><trkpt lat="38.20453080035363" lon="-2.425290024974576"><ele>1289.0</ele><time>2026-04-20T13:27:51Z</time></trkpt><trkpt lat="38.20462385064318" lon="-2.425161115931956"><ele>1292.0</ele><time>2026-04-20T13:27:52Z</time></trkpt><trkpt lat="38.20472035436472" lon="-2.4250385616683285"><ele>1295.0</ele><time>2026-04-20T13:27:53Z</time></trkpt><trkpt lat="38.2048223462921" lon="-2.4249187231421887"><ele>1298.0</ele><time>2026-04-20T13:27:54Z</time></trkpt><trkpt lat="38.204924927867744" lon="-2.4247978548102336"><ele>1301.0</ele><time>2026-04-20T13:27:55Z</time></trkpt><trkpt lat="38.205006895688534" lon="-2.4247011023279015"><ele>1298.75</ele><time>2026-04-20T13:27:56Z</time></trkpt><trkpt lat="38.205080802697324" lon="-2.4246131726134315"><ele>1296.5</ele><time>2026-04-20T13:27:57Z</time></trkpt><trkpt lat="38.205156920166125" lon="-2.424525432921411"><ele>1294.25</ele><time>2026-04-20T13:27:58Z</time></trkpt><trkpt lat="38.20524056446263" lon="-2.424420573884602"><ele>1292.0</ele><time>2026-04-20T13:27:59Z</time></trkpt><trkpt lat="38.20534822513589" lon="-2.424319938487211"><ele>1292.0</ele><time>2026-04-20T13:28:00Z</time></trkpt><trkpt lat="38.20545702655612" lon="-2.4242267729920397"><ele>1292.0</ele><time>2026-04-20T13:28:01Z</time></trkpt><trkpt lat="38.20556810610465" lon="-2.4241381762560263"><ele>1292.0</ele><time>2026-04-20T13:28:02Z</time></trkpt><trkpt lat="38.20567334193621" lon="-2.4240553398015106"><ele>1292.0</ele><time>2026-04-20T13:28:03Z</time></trkpt><trkpt lat="38.20577092829929" lon="-2.423979696909501"><ele>1289.3333333333335</ele><time>2026-04-20T13:28:04Z</time></trkpt><trkpt lat="38.20585941972657" lon="-2.423907047659202"><ele>1286.6666666666667</ele><time>2026-04-20T13:28:05Z</time></trkpt><trkpt lat="38.20593814276779" lon="-2.4238480086096317"><ele>1284.0</ele><time>2026-04-20T13:28:06Z</time></trkpt><trkpt lat="38.20600411311651" lon="-2.423836322558596"><ele>1281.3333333333333</ele><time>2026-04-20T13:28:07Z</time></trkpt><trkpt lat="38.206065710980766" lon="-2.4238672575812177"><ele>1278.6666666666665</ele><time>2026-04-20T13:28:08Z</time></trkpt><trkpt lat="38.20610771838617" lon="-2.423928654606115"><ele>1276.0</ele><time>2026-04-20T13:28:09Z</time></trkpt><trkpt lat="38.20614337001486" lon="-2.423997674780606"><ele>1276.0</ele><time>2026-04-20T13:28:10Z</time></trkpt><trkpt lat="38.206173951303775" lon="-2.4240720721623035"><ele>1276.0</ele><time>2026-04-20T13:28:11Z</time></trkpt><trkpt lat="38.20618187724321" lon="-2.4241557325663945"><ele>1276.0</ele><time>2026-04-20T13:28:12Z</time></trkpt><trkpt lat="38.20615428001173" lon="-2.4242503403637397"><ele>1276.0</ele><time>2026-04-20T13:28:13Z</time></trkpt><trkpt lat="38.20609810158867" lon="-2.4243486301951727"><ele>1276.0</ele><time>2026-04-20T13:28:14Z</time></trkpt><trkpt lat="38.206020498844445" lon="-2.424468252064418"><ele>1276.0</ele><time>2026-04-20T13:28:15Z</time></trkpt><trkpt lat="38.20593718950921" lon="-2.4246076803089567"><ele>1276.5</ele><time>2026-04-20T13:28:16Z</time></trkpt><trkpt lat="38.205862486498575" lon="-2.4247549751217505"><ele>1277.0</ele><time>2026-04-20T13:28:17Z</time></trkpt><trkpt lat="38.20580848227656" lon="-2.424907403907414"><ele>1277.5</ele><time>2026-04-20T13:28:18Z</time></trkpt><trkpt lat="38.2057815517005" lon="-2.425074291750236"><ele>1278.0</ele><time>2026-04-20T13:28:19Z</time></trkpt><trkpt lat="38.20576740664404" lon="-2.425209905353971"><ele>1278.0</ele><time>2026-04-20T13:28:20Z</time></trkpt><trkpt lat="38.20575821046842" lon="-2.4253122783723406"><ele>1278.0</ele><time>2026-04-20T13:28:21Z</time></trkpt><trkpt lat="38.205762890662605" lon="-2.425392214710929"><ele>1278.0</ele><time>2026-04-20T13:28:22Z</time></trkpt><trkpt lat="38.20581961201599" lon="-2.4255588704544704"><ele>1278.0</ele><time>2026-04-20T13:28:24Z</time></trkpt><trkpt lat="38.205875026290826" lon="-2.425660998250808"><ele>1278.0</ele><time>2026-04-20T13:28:25Z</time></trkpt><trkpt lat="38.20596559538756" lon="-2.425732524266499"><ele>1276.25</ele><time>2026-04-20T13:28:26Z</time></trkpt><trkpt lat="38.20608314640571" lon="-2.4257784457311193"><ele>1274.5</ele><time>2026-04-20T13:28:27Z</time></trkpt><trkpt lat="38.20621020768637" lon="-2.4258063835570036"><ele>1272.75</ele><time>2026-04-20T13:28:28Z</time></trkpt><trkpt lat="38.20632249571009" lon="-2.4258219695426115"><ele>1271.0</ele><time>2026-04-20T13:28:29Z</time></trkpt><trkpt lat="38.20643191118337" lon="-2.4258073946356196"><ele>1272.5</ele><time>2026-04-20T13:28:30Z</time></trkpt><trkpt lat="38.2065528941677" lon="-2.4257953926916382"><ele>1274.0</ele><time>2026-04-20T13:28:31Z</time></trkpt><trkpt lat="38.2066862774238" lon="-2.4257886478921136"><ele>1275.5</ele><time>2026-04-20T13:28:32Z</time></trkpt><trkpt lat="38.20681826875931" lon="-2.425755341572516"><ele>1277.0</ele><time>2026-04-20T13:28:33Z</time></trkpt><trkpt lat="38.206944201641754" lon="-2.425710424005126"><ele>1277.0</ele><time>2026-04-20T13:28:34Z</time></trkpt><trkpt lat="38.207066929509956" lon="-2.425655616314937"><ele>1277.0</ele><time>2026-04-20T13:28:35Z</time></trkpt><trkpt lat="38.2071942814268" lon="-2.4256055956555844"><ele>1277.0</ele><time>2026-04-20T13:28:36Z</time></trkpt><trkpt lat="38.20731420516058" lon="-2.425583923353918"><ele>1277.0</ele><time>2026-04-20T13:28:37Z</time></trkpt><trkpt lat="38.207430203742526" lon="-2.4256028463603077"><ele>1277.75</ele><time>2026-04-20T13:28:38Z</time></trkpt><trkpt lat="38.20756077947598" lon="-2.425637894678397"><ele>1278.5</ele><time>2026-04-20T13:28:39Z</time></trkpt><trkpt lat="38.20769636226857" lon="-2.4256755353552686"><ele>1279.25</ele><time>2026-04-20T13:28:40Z</time></trkpt><trkpt lat="38.207833312542164" lon="-2.425731091066132"><ele>1280.0</ele><time>2026-04-20T13:28:41Z</time></trkpt><trkpt lat="38.20794426535317" lon="-2.425803679234445"><ele>1280.0</ele><time>2026-04-20T13:28:42Z</time></trkpt><trkpt lat="38.20803457899464" lon="-2.425890350707663"><ele>1280.0</ele><time>2026-04-20T13:28:43Z</time></trkpt><trkpt lat="38.20810827978533" lon="-2.4259811003095075"><ele>1280.0</ele><time>2026-04-20T13:28:44Z</time></trkpt><trkpt lat="38.20818092172366" lon="-2.4260454252522505"><ele>1280.0</ele><time>2026-04-20T13:28:45Z</time></trkpt><trkpt lat="38.20826035034186" lon="-2.426072773170965"><ele>1280.0</ele><time>2026-04-20T13:28:46Z</time></trkpt><trkpt lat="38.20836586087817" lon="-2.4260612359328184"><ele>1281.0</ele><time>2026-04-20T13:28:47Z</time></trkpt><trkpt lat="38.20849021981256" lon="-2.42602686313683"><ele>1282.0</ele><time>2026-04-20T13:28:48Z</time></trkpt><trkpt lat="38.20862848419893" lon="-2.425978616664132"><ele>1283.0</ele><time>2026-04-20T13:28:49Z</time></trkpt><trkpt lat="38.20877105499243" lon="-2.425933989333052"><ele>1284.0</ele><time>2026-04-20T13:28:50Z</time></trkpt><trkpt lat="38.20891683623261" lon="-2.4258983185177576"><ele>1282.0</ele><time>2026-04-20T13:28:51Z</time></trkpt><trkpt lat="38.20906463481818" lon="-2.4258853954745763"><ele>1280.0</ele><time>2026-04-20T13:28:52Z</time></trkpt><trkpt lat="38.20920954839987" lon="-2.4258879024713105"><ele>1278.0</ele><time>2026-04-20T13:28:53Z</time></trkpt><trkpt lat="38.20934137593807" lon="-2.4258967546146444"><ele>1276.0</ele><time>2026-04-20T13:28:54Z</time></trkpt><trkpt lat="38.20945671295983" lon="-2.42590158872364"><ele>1276.0</ele><time>2026-04-20T13:28:55Z</time></trkpt><trkpt lat="38.20956797721093" lon="-2.425890923506397"><ele>1276.0</ele><time>2026-04-20T13:28:56Z</time></trkpt><trkpt lat="38.20968241875625" lon="-2.4258380904766486"><ele>1276.0</ele><time>2026-04-20T13:28:57Z</time></trkpt><trkpt lat="38.2097901660481" lon="-2.4257356654500435"><ele>1276.0</ele><time>2026-04-20T13:28:58Z</time></trkpt><trkpt lat="38.209888961877674" lon="-2.4256468934673205"><ele>1275.0</ele><time>2026-04-20T13:28:59Z</time></trkpt><trkpt lat="38.20996941774512" lon="-2.4255532433497637"><ele>1274.0</ele><time>2026-04-20T13:29:00Z</time></trkpt><trkpt lat="38.210025647260245" lon="-2.4254423908961513"><ele>1273.0</ele><time>2026-04-20T13:29:01Z</time></trkpt><trkpt lat="38.2100769454611" lon="-2.425318723228035"><ele>1272.0</ele><time>2026-04-20T13:29:02Z</time></trkpt><trkpt lat="38.21012756443016" lon="-2.4251800102621677"><ele>1271.0</ele><time>2026-04-20T13:29:03Z</time></trkpt><trkpt lat="38.210172237693854" lon="-2.425044979571829"><ele>1273.0</ele><time>2026-04-20T13:29:04Z</time></trkpt><trkpt lat="38.21021414712755" lon="-2.42491887848424"><ele>1275.0</ele><time>2026-04-20T13:29:05Z</time></trkpt><trkpt lat="38.210256708761165" lon="-2.424811448478858"><ele>1277.0</ele><time>2026-04-20T13:29:06Z</time></trkpt><trkpt lat="38.21033080105891" lon="-2.4247415415071165"><ele>1279.0</ele><time>2026-04-20T13:29:07Z</time></trkpt><trkpt lat="38.210395579817614" lon="-2.424692512261249"><ele>1281.0</ele><time>2026-04-20T13:29:08Z</time></trkpt><trkpt lat="38.21048185846424" lon="-2.4246682848256653"><ele>1281.0</ele><time>2026-04-20T13:29:09Z</time></trkpt><trkpt lat="38.210580333571635" lon="-2.424686839430465"><ele>1281.0</ele><time>2026-04-20T13:29:10Z</time></trkpt><trkpt lat="38.210675881619544" lon="-2.4247289158571155"><ele>1281.0</ele><time>2026-04-20T13:29:11Z</time></trkpt><trkpt lat="38.21074895241624" lon="-2.42480597040843"><ele>1281.0</ele><time>2026-04-20T13:29:12Z</time></trkpt><trkpt lat="38.210824907536605" lon="-2.4249041069908355"><ele>1281.0</ele><time>2026-04-20T13:29:13Z</time></trkpt><trkpt lat="38.210914234012535" lon="-2.4249934853849364"><ele>1280.5</ele><time>2026-04-20T13:29:14Z</time></trkpt><trkpt lat="38.21103160411234" lon="-2.4250505823871937"><ele>1280.0</ele><time>2026-04-20T13:29:15Z</time></trkpt><trkpt lat="38.21115060539023" lon="-2.4250802066807267"><ele>1279.5</ele><time>2026-04-20T13:29:16Z</time></trkpt><trkpt lat="38.211258803791274" lon="-2.425102375840964"><ele>1279.0</ele><time>2026-04-20T13:29:17Z</time></trkpt><trkpt lat="38.21136278150758" lon="-2.4251087529447637"><ele>1279.0</ele><time>2026-04-20T13:29:18Z</time></trkpt><trkpt lat="38.211468444659594" lon="-2.425087761407342"><ele>1279.0</ele><time>2026-04-20T13:29:19Z</time></trkpt><trkpt lat="38.21158316034558" lon="-2.425052974795237"><ele>1279.0</ele><time>2026-04-20T13:29:20Z</time></trkpt><trkpt lat="38.21170353763443" lon="-2.425027379664008"><ele>1279.0</ele><time>2026-04-20T13:29:21Z</time></trkpt><trkpt lat="38.21184347705728" lon="-2.4250049741450885"><ele>1279.0</ele><time>2026-04-20T13:29:22Z</time></trkpt><trkpt lat="38.21199147534794" lon="-2.424987259239922"><ele>1279.0</ele><time>2026-04-20T13:29:23Z</time></trkpt><trkpt lat="38.21213769543454" lon="-2.424967535606565"><ele>1279.0</ele><time>2026-04-20T13:29:24Z</time></trkpt><trkpt lat="38.21229002250419" lon="-2.42494787713893"><ele>1279.0</ele><time>2026-04-20T13:29:25Z</time></trkpt><trkpt lat="38.21244722962574" lon="-2.424929502363702"><ele>1279.0</ele><time>2026-04-20T13:29:26Z</time></trkpt><trkpt lat="38.21260741811651" lon="-2.4249179589564083"><ele>1279.0</ele><time>2026-04-20T13:29:27Z</time></trkpt><trkpt lat="38.21275147661067" lon="-2.424910516059847"><ele>1279.0</ele><time>2026-04-20T13:29:28Z</time></trkpt><trkpt lat="38.21288491957199" lon="-2.4249013725778514"><ele>1279.0</ele><time>2026-04-20T13:29:29Z</time></trkpt><trkpt lat="38.213002814860864" lon="-2.4248896435950527"><ele>1279.0</ele><time>2026-04-20T13:29:30Z</time></trkpt><trkpt lat="38.213097416365336" lon="-2.4248915092537007"><ele>1279.0</ele><time>2026-04-20T13:29:31Z</time></trkpt><trkpt lat="38.213174902039164" lon="-2.4249111619985078"><ele>1279.0</ele><time>2026-04-20T13:29:32Z</time></trkpt><trkpt lat="38.2132408564138" lon="-2.4249683316451547"><ele>1279.0</ele><time>2026-04-20T13:29:33Z</time></trkpt><trkpt lat="38.21329131314422" lon="-2.4250253466784573"><ele>1279.0</ele><time>2026-04-20T13:29:34Z</time></trkpt><trkpt lat="38.2133384289732" lon="-2.425164936334111"><ele>1279.0</ele><time>2026-04-20T13:29:36Z</time></trkpt><trkpt lat="38.213317999711286" lon="-2.4253062323917693"><ele>1279.0</ele><time>2026-04-20T13:29:38Z</time></trkpt><trkpt lat="38.213262952339605" lon="-2.425359895245174"><ele>1279.0</ele><time>2026-04-20T13:29:39Z</time></trkpt><trkpt lat="38.213184252807416" lon="-2.425416828584433"><ele>1279.0</ele><time>2026-04-20T13:29:40Z</time></trkpt><trkpt lat="38.213101346643775" lon="-2.425507005435849"><ele>1279.0</ele><time>2026-04-20T13:29:41Z</time></trkpt><trkpt lat="38.21298142722415" lon="-2.425586447765088"><ele>1279.0</ele><time>2026-04-20T13:29:42Z</time></trkpt><trkpt lat="38.212871478954995" lon="-2.425697069116738"><ele>1279.0</ele><time>2026-04-20T13:29:43Z</time></trkpt><trkpt lat="38.212759946270836" lon="-2.42580945784123"><ele>1279.0</ele><time>2026-04-20T13:29:44Z</time></trkpt><trkpt lat="38.212639320834136" lon="-2.425934372246837"><ele>1279.0</ele><time>2026-04-20T13:29:45Z</time></trkpt><trkpt lat="38.212504718370404" lon="-2.426074371122881"><ele>1279.0</ele><time>2026-04-20T13:29:46Z</time></trkpt><trkpt lat="38.21236368893556" lon="-2.4262290490715435"><ele>1279.0</ele><time>2026-04-20T13:29:47Z</time></trkpt><trkpt lat="38.21222407040992" lon="-2.4263805459425596"><ele>1279.0</ele><time>2026-04-20T13:29:48Z</time></trkpt><trkpt lat="38.21209948020175" lon="-2.4265249333645476"><ele>1279.0</ele><time>2026-04-20T13:29:49Z</time></trkpt><trkpt lat="38.211982454988004" lon="-2.426661056179874"><ele>1279.0</ele><time>2026-04-20T13:29:50Z</time></trkpt><trkpt lat="38.211862553590244" lon="-2.42679450581351"><ele>1279.0</ele><time>2026-04-20T13:29:51Z</time></trkpt><trkpt lat="38.211744682282365" lon="-2.4269371912229585"><ele>1279.0</ele><time>2026-04-20T13:29:52Z</time></trkpt><trkpt lat="38.211628665483396" lon="-2.427081664978116"><ele>1279.0</ele><time>2026-04-20T13:29:53Z</time></trkpt><trkpt lat="38.21151563429856" lon="-2.427227877583816"><ele>1279.0</ele><time>2026-04-20T13:29:54Z</time></trkpt><trkpt lat="38.211401986994844" lon="-2.427376675061811"><ele>1280.3333333333333</ele><time>2026-04-20T13:29:55Z</time></trkpt><trkpt lat="38.211285917101954" lon="-2.4275132575229383"><ele>1281.6666666666667</ele><time>2026-04-20T13:29:56Z</time></trkpt><trkpt lat="38.211178103248066" lon="-2.4276442145618455"><ele>1283.0</ele><time>2026-04-20T13:29:57Z</time></trkpt><trkpt lat="38.21107051355782" lon="-2.4277697952500352"><ele>1283.0</ele><time>2026-04-20T13:29:58Z</time></trkpt><trkpt lat="38.21096314901372" lon="-2.427897639261482"><ele>1283.0</ele><time>2026-04-20T13:29:59Z</time></trkpt><trkpt lat="38.21085034104246" lon="-2.428009416725653"><ele>1283.0</ele><time>2026-04-20T13:30:00Z</time></trkpt><trkpt lat="38.21073838715605" lon="-2.428125816413892"><ele>1283.0</ele><time>2026-04-20T13:30:01Z</time></trkpt><trkpt lat="38.21063816466163" lon="-2.4282621552663954"><ele>1283.5</ele><time>2026-04-20T13:30:02Z</time></trkpt><trkpt lat="38.210550730662725" lon="-2.428420440788391"><ele>1284.0</ele><time>2026-04-20T13:30:03Z</time></trkpt><trkpt lat="38.210468118962396" lon="-2.428566900036372"><ele>1284.5</ele><time>2026-04-20T13:30:04Z</time></trkpt><trkpt lat="38.2103798937123" lon="-2.4287068036171813"><ele>1285.0</ele><time>2026-04-20T13:30:05Z</time></trkpt><trkpt lat="38.21029649300882" lon="-2.428857162256198"><ele>1287.75</ele><time>2026-04-20T13:30:06Z</time></trkpt><trkpt lat="38.21022470054686" lon="-2.4290011146579413"><ele>1290.5</ele><time>2026-04-20T13:30:07Z</time></trkpt><trkpt lat="38.210159612466654" lon="-2.4291274113190364"><ele>1293.25</ele><time>2026-04-20T13:30:08Z</time></trkpt><trkpt lat="38.210085725265444" lon="-2.4292158964866295"><ele>1296.0</ele><time>2026-04-20T13:30:09Z</time></trkpt><trkpt lat="38.209992634351416" lon="-2.4292979467702596"><ele>1296.0</ele><time>2026-04-20T13:30:10Z</time></trkpt><trkpt lat="38.20988896637958" lon="-2.429389810507639"><ele>1296.0</ele><time>2026-04-20T13:30:11Z</time></trkpt><trkpt lat="38.20979575341077" lon="-2.429477008545785"><ele>1296.0</ele><time>2026-04-20T13:30:12Z</time></trkpt><trkpt lat="38.20971045263159" lon="-2.4295585254791843"><ele>1296.0</ele><time>2026-04-20T13:30:13Z</time></trkpt><trkpt lat="38.209629105900085" lon="-2.4296376122356955"><ele>1294.5</ele><time>2026-04-20T13:30:14Z</time></trkpt><trkpt lat="38.20955681306186" lon="-2.4297068830099113"><ele>1293.0</ele><time>2026-04-20T13:30:15Z</time></trkpt><trkpt lat="38.20949471437845" lon="-2.42977103062811"><ele>1291.5</ele><time>2026-04-20T13:30:16Z</time></trkpt><trkpt lat="38.209450261498816" lon="-2.4298387273151496"><ele>1290.0</ele><time>2026-04-20T13:30:17Z</time></trkpt><trkpt lat="38.209436843697944" lon="-2.4299238321609002"><ele>1288.5</ele><time>2026-04-20T13:30:18Z</time></trkpt><trkpt lat="38.2094704571725" lon="-2.4300132956819334"><ele>1287.0</ele><time>2026-04-20T13:30:19Z</time></trkpt><trkpt lat="38.20955073414304" lon="-2.430062689041833"><ele>1287.0</ele><time>2026-04-20T13:30:20Z</time></trkpt><trkpt lat="38.20963569217239" lon="-2.43012600419662"><ele>1287.0</ele><time>2026-04-20T13:30:21Z</time></trkpt><trkpt lat="38.20973773534849" lon="-2.430180288062761"><ele>1287.0</ele><time>2026-04-20T13:30:22Z</time></trkpt><trkpt lat="38.20983515388375" lon="-2.4302834648309934"><ele>1287.0</ele><time>2026-04-20T13:30:23Z</time></trkpt><trkpt lat="38.20991625427633" lon="-2.430425521884895"><ele>1285.25</ele><time>2026-04-20T13:30:24Z</time></trkpt><trkpt lat="38.20999596705527" lon="-2.430581656317148"><ele>1283.5</ele><time>2026-04-20T13:30:25Z</time></trkpt><trkpt lat="38.210077484114144" lon="-2.430729784220686"><ele>1281.75</ele><time>2026-04-20T13:30:26Z</time></trkpt><trkpt lat="38.210166881241996" lon="-2.4308601919674215"><ele>1280.0</ele><time>2026-04-20T13:30:27Z</time></trkpt><trkpt lat="38.21026393017305" lon="-2.4309712969828734"><ele>1280.0</ele><time>2026-04-20T13:30:28Z</time></trkpt><trkpt lat="38.21037794735942" lon="-2.43104401082274"><ele>1280.0</ele><time>2026-04-20T13:30:29Z</time></trkpt><trkpt lat="38.2104998910998" lon="-2.431119999494209"><ele>1280.0</ele><time>2026-04-20T13:30:30Z</time></trkpt><trkpt lat="38.21063462347614" lon="-2.4311675263632657"><ele>1280.0</ele><time>2026-04-20T13:30:31Z</time></trkpt><trkpt lat="38.21078165837763" lon="-2.431212056172021"><ele>1280.3333333333335</ele><time>2026-04-20T13:30:32Z</time></trkpt><trkpt lat="38.21093822286801" lon="-2.4312558771024424"><ele>1280.6666666666667</ele><time>2026-04-20T13:30:33Z</time></trkpt><trkpt lat="38.211098111668164" lon="-2.4312919234548707"><ele>1281.0</ele><time>2026-04-20T13:30:34Z</time></trkpt><trkpt lat="38.211253044726654" lon="-2.4313241951861206"><ele>1278.0</ele><time>2026-04-20T13:30:35Z</time></trkpt><trkpt lat="38.21139656547742" lon="-2.4313543239861866"><ele>1275.0</ele><time>2026-04-20T13:30:36Z</time></trkpt><trkpt lat="38.21153282040531" lon="-2.4313835212285477"><ele>1272.0</ele><time>2026-04-20T13:30:37Z</time></trkpt><trkpt lat="38.21165343004377" lon="-2.431417977986517"><ele>1269.0</ele><time>2026-04-20T13:30:38Z</time></trkpt><trkpt lat="38.21175129814323" lon="-2.4314416993085786"><ele>1269.0</ele><time>2026-04-20T13:30:39Z</time></trkpt><trkpt lat="38.21183276299601" lon="-2.4314739954633944"><ele>1269.0</ele><time>2026-04-20T13:30:40Z</time></trkpt><trkpt lat="38.21189371759213" lon="-2.4315308417028194"><ele>1269.0</ele><time>2026-04-20T13:30:41Z</time></trkpt><trkpt lat="38.21193253261327" lon="-2.431625095327574"><ele>1269.0</ele><time>2026-04-20T13:30:42Z</time></trkpt><trkpt lat="38.21195115944302" lon="-2.431751482086243"><ele>1269.0</ele><time>2026-04-20T13:30:43Z</time></trkpt><trkpt lat="38.21195233693952" lon="-2.4319036265872036"><ele>1269.0</ele><time>2026-04-20T13:30:44Z</time></trkpt><trkpt lat="38.21195800104232" lon="-2.432088469567558"><ele>1269.0</ele><time>2026-04-20T13:30:45Z</time></trkpt><trkpt lat="38.21196936435811" lon="-2.4322946728560253"><ele>1269.0</ele><time>2026-04-20T13:30:46Z</time></trkpt><trkpt lat="38.211988871589234" lon="-2.432512097373868"><ele>1265.3333333333333</ele><time>2026-04-20T13:30:47Z</time></trkpt><trkpt lat="38.21200170242499" lon="-2.432727321251474"><ele>1261.6666666666665</ele><time>2026-04-20T13:30:48Z</time></trkpt><trkpt lat="38.212005161890765" lon="-2.432940485893072"><ele>1258.0</ele><time>2026-04-20T13:30:49Z</time></trkpt><trkpt lat="38.212001222941566" lon="-2.4331595728498034"><ele>1256.0</ele><time>2026-04-20T13:30:50Z</time></trkpt><trkpt lat="38.211985885035915" lon="-2.433367386502223"><ele>1254.0</ele><time>2026-04-20T13:30:51Z</time></trkpt><trkpt lat="38.21196319506742" lon="-2.433564518338974"><ele>1252.0</ele><time>2026-04-20T13:30:52Z</time></trkpt><trkpt lat="38.21193904637658" lon="-2.4337380336283903"><ele>1251.0</ele><time>2026-04-20T13:30:53Z</time></trkpt><trkpt lat="38.211921500442564" lon="-2.433897349325546"><ele>1250.0</ele><time>2026-04-20T13:30:54Z</time></trkpt><trkpt lat="38.21191150335455" lon="-2.4340308287138623"><ele>1249.0</ele><time>2026-04-20T13:30:55Z</time></trkpt><trkpt lat="38.21191773147313" lon="-2.434145517363241"><ele>1248.0</ele><time>2026-04-20T13:30:56Z</time></trkpt><trkpt lat="38.21196257061236" lon="-2.4342477104550904"><ele>1247.0</ele><time>2026-04-20T13:30:57Z</time></trkpt><trkpt lat="38.21204439107898" lon="-2.4343474486733254"><ele>1247.0</ele><time>2026-04-20T13:30:58Z</time></trkpt><trkpt lat="38.212148568569056" lon="-2.434441647542858"><ele>1247.0</ele><time>2026-04-20T13:30:59Z</time></trkpt><trkpt lat="38.21226960208566" lon="-2.4345289002569057"><ele>1247.0</ele><time>2026-04-20T13:31:00Z</time></trkpt><trkpt lat="38.21240242295494" lon="-2.434622144682331"><ele>1247.0</ele><time>2026-04-20T13:31:01Z</time></trkpt><trkpt lat="38.21252599423879" lon="-2.434727261829977"><ele>1245.75</ele><time>2026-04-20T13:31:02Z</time></trkpt><trkpt lat="38.212642941546235" lon="-2.434838663484194"><ele>1244.5</ele><time>2026-04-20T13:31:03Z</time></trkpt><trkpt lat="38.21276703374005" lon="-2.434950121766966"><ele>1243.25</ele><time>2026-04-20T13:31:04Z</time></trkpt><trkpt lat="38.21289594902934" lon="-2.4350486046091757"><ele>1242.0</ele><time>2026-04-20T13:31:05Z</time></trkpt><trkpt lat="38.21302250312834" lon="-2.435135566235646"><ele>1242.0</ele><time>2026-04-20T13:31:06Z</time></trkpt><trkpt lat="38.213149580253564" lon="-2.4352127830712114"><ele>1242.0</ele><time>2026-04-20T13:31:07Z</time></trkpt><trkpt lat="38.21327586614467" lon="-2.4352839079107693"><ele>1242.0</ele><time>2026-04-20T13:31:08Z</time></trkpt><trkpt lat="38.213398517523196" lon="-2.43532007211139"><ele>1242.0</ele><time>2026-04-20T13:31:09Z</time></trkpt><trkpt lat="38.21350268529273" lon="-2.4353278232050757"><ele>1241.4</ele><time>2026-04-20T13:31:10Z</time></trkpt><trkpt lat="38.213593916167945" lon="-2.435319347303421"><ele>1240.8000000000002</ele><time>2026-04-20T13:31:11Z</time></trkpt><trkpt lat="38.21368427516016" lon="-2.4352657726012024"><ele>1240.2</ele><time>2026-04-20T13:31:12Z</time></trkpt><trkpt lat="38.21375366597716" lon="-2.4351788141699857"><ele>1239.6000000000001</ele><time>2026-04-20T13:31:13Z</time></trkpt><trkpt lat="38.21382575728568" lon="-2.435057616994033"><ele>1239.0</ele><time>2026-04-20T13:31:14Z</time></trkpt><trkpt lat="38.213920225252906" lon="-2.4349276657289693"><ele>1238.0</ele><time>2026-04-20T13:31:15Z</time></trkpt><trkpt lat="38.21403896752819" lon="-2.4348259795054283"><ele>1237.0</ele><time>2026-04-20T13:31:16Z</time></trkpt><trkpt lat="38.214152065656336" lon="-2.4347191286729712"><ele>1236.0</ele><time>2026-04-20T13:31:17Z</time></trkpt><trkpt lat="38.21426259908655" lon="-2.4346148795576643"><ele>1235.0</ele><time>2026-04-20T13:31:18Z</time></trkpt><trkpt lat="38.21437037887337" lon="-2.434512311253835"><ele>1235.0</ele><time>2026-04-20T13:31:19Z</time></trkpt><trkpt lat="38.21446940769549" lon="-2.434427372396315"><ele>1235.0</ele><time>2026-04-20T13:31:20Z</time></trkpt><trkpt lat="38.21456172560143" lon="-2.434347274436822"><ele>1235.0</ele><time>2026-04-20T13:31:21Z</time></trkpt><trkpt lat="38.21463082792033" lon="-2.4342479931400893"><ele>1235.0</ele><time>2026-04-20T13:31:22Z</time></trkpt><trkpt lat="38.21467837664434" lon="-2.434146467924031"><ele>1235.0</ele><time>2026-04-20T13:31:23Z</time></trkpt><trkpt lat="38.21468701757306" lon="-2.434026296276416"><ele>1235.0</ele><time>2026-04-20T13:31:24Z</time></trkpt><trkpt lat="38.214694123092094" lon="-2.43389156848306"><ele>1235.0</ele><time>2026-04-20T13:31:25Z</time></trkpt><trkpt lat="38.21472546902901" lon="-2.433739013981893"><ele>1235.0</ele><time>2026-04-20T13:31:26Z</time></trkpt><trkpt lat="38.214771588220565" lon="-2.4335982150807527"><ele>1235.0</ele><time>2026-04-20T13:31:27Z</time></trkpt><trkpt lat="38.21482620191819" lon="-2.433456041399819"><ele>1230.5</ele><time>2026-04-20T13:31:28Z</time></trkpt><trkpt lat="38.21489463532966" lon="-2.4333236552296054"><ele>1226.0</ele><time>2026-04-20T13:31:29Z</time></trkpt><trkpt lat="38.21496314669775" lon="-2.433208355941947"><ele>1221.5</ele><time>2026-04-20T13:31:30Z</time></trkpt><trkpt lat="38.215037197002005" lon="-2.433113664678501"><ele>1217.0</ele><time>2026-04-20T13:31:31Z</time></trkpt><trkpt lat="38.215130659439644" lon="-2.433035987458521"><ele>1217.0</ele><time>2026-04-20T13:31:32Z</time></trkpt><trkpt lat="38.21523712556535" lon="-2.4329836143085415"><ele>1217.0</ele><time>2026-04-20T13:31:33Z</time></trkpt><trkpt lat="38.215344415787044" lon="-2.4329512588536875"><ele>1217.0</ele><time>2026-04-20T13:31:34Z</time></trkpt><trkpt lat="38.21544499136937" lon="-2.4329155485486162"><ele>1217.0</ele><time>2026-04-20T13:31:35Z</time></trkpt><trkpt lat="38.21552936674319" lon="-2.4328710789611114"><ele>1217.0</ele><time>2026-04-20T13:31:36Z</time></trkpt><trkpt lat="38.21561348176028" lon="-2.4328207012213445"><ele>1214.4</ele><time>2026-04-20T13:31:37Z</time></trkpt><trkpt lat="38.215692402283345" lon="-2.432752633604448"><ele>1211.8000000000002</ele><time>2026-04-20T13:31:38Z</time></trkpt><trkpt lat="38.21576778370017" lon="-2.4326819398560717"><ele>1209.2</ele><time>2026-04-20T13:31:39Z</time></trkpt><trkpt lat="38.21584690732496" lon="-2.4325934747263527"><ele>1206.6000000000001</ele><time>2026-04-20T13:31:40Z</time></trkpt><trkpt lat="38.21590532298648" lon="-2.4324898732896716"><ele>1204.0</ele><time>2026-04-20T13:31:41Z</time></trkpt><trkpt lat="38.21594672385731" lon="-2.4323741075372713"><ele>1204.0</ele><time>2026-04-20T13:31:42Z</time></trkpt><trkpt lat="38.21598235056392" lon="-2.432264970258149"><ele>1204.0</ele><time>2026-04-20T13:31:43Z</time></trkpt><trkpt lat="38.2159935818196" lon="-2.432149122362292"><ele>1204.0</ele><time>2026-04-20T13:31:44Z</time></trkpt><trkpt lat="38.21603810149619" lon="-2.432045711404768"><ele>1204.0</ele><time>2026-04-20T13:31:45Z</time></trkpt><trkpt lat="38.216090625192415" lon="-2.43194517550076"><ele>1204.0</ele><time>2026-04-20T13:31:46Z</time></trkpt><trkpt lat="38.21615562970453" lon="-2.431840314930181"><ele>1207.4</ele><time>2026-04-20T13:31:47Z</time></trkpt><trkpt lat="38.21623781085891" lon="-2.431746551255613"><ele>1210.8000000000002</ele><time>2026-04-20T13:31:48Z</time></trkpt><trkpt lat="38.216317842719825" lon="-2.4316507426046767"><ele>1214.1999999999998</ele><time>2026-04-20T13:31:49Z</time></trkpt><trkpt lat="38.21639928040003" lon="-2.43155938534616"><ele>1217.6</ele><time>2026-04-20T13:31:50Z</time></trkpt><trkpt lat="38.216467417083514" lon="-2.431463106083943"><ele>1221.0</ele><time>2026-04-20T13:31:51Z</time></trkpt><trkpt lat="38.21652912760585" lon="-2.4313658981965993"><ele>1220.6</ele><time>2026-04-20T13:31:52Z</time></trkpt><trkpt lat="38.216584134849846" lon="-2.431264336598744"><ele>1220.1999999999998</ele><time>2026-04-20T13:31:53Z</time></trkpt><trkpt lat="38.21663856116477" lon="-2.4311627134460805"><ele>1219.8000000000002</ele><time>2026-04-20T13:31:54Z</time></trkpt><trkpt lat="38.21671604107634" lon="-2.4310975856053902"><ele>1219.4</ele><time>2026-04-20T13:31:55Z</time></trkpt><trkpt lat="38.216820028590455" lon="-2.4310744171772547"><ele>1219.0</ele><time>2026-04-20T13:31:56Z</time></trkpt><trkpt lat="38.21693431366565" lon="-2.431085258351501"><ele>1219.0</ele><time>2026-04-20T13:31:57Z</time></trkpt><trkpt lat="38.21704941919715" lon="-2.4310883161116426"><ele>1219.0</ele><time>2026-04-20T13:31:58Z</time></trkpt><trkpt lat="38.21716840831973" lon="-2.4310740952389276"><ele>1219.0</ele><time>2026-04-20T13:31:59Z</time></trkpt><trkpt lat="38.21730036347373" lon="-2.4310287340332386"><ele>1219.0</ele><time>2026-04-20T13:32:00Z</time></trkpt><trkpt lat="38.2174384114213" lon="-2.4309682655998377"><ele>1215.75</ele><time>2026-04-20T13:32:01Z</time></trkpt><trkpt lat="38.21758129987211" lon="-2.4309057257939983"><ele>1212.5</ele><time>2026-04-20T13:32:02Z</time></trkpt><trkpt lat="38.217716504508395" lon="-2.430856048164033"><ele>1209.25</ele><time>2026-04-20T13:32:03Z</time></trkpt><trkpt lat="38.21785047522305" lon="-2.4308074642594293"><ele>1206.0</ele><time>2026-04-20T13:32:04Z</time></trkpt><trkpt lat="38.21797997975659" lon="-2.430760052698445"><ele>1206.0</ele><time>2026-04-20T13:32:05Z</time></trkpt><trkpt lat="38.218101508559506" lon="-2.430687755112959"><ele>1206.0</ele><time>2026-04-20T13:32:06Z</time></trkpt><trkpt lat="38.21823458736821" lon="-2.4306431512682565"><ele>1206.0</ele><time>2026-04-20T13:32:07Z</time></trkpt><trkpt lat="38.21837901107397" lon="-2.4306094542873486"><ele>1206.0</ele><time>2026-04-20T13:32:08Z</time></trkpt><trkpt lat="38.218537990096536" lon="-2.4305947621198962"><ele>1199.0</ele><time>2026-04-20T13:32:09Z</time></trkpt><trkpt lat="38.218697950932885" lon="-2.430617718881828"><ele>1192.0</ele><time>2026-04-20T13:32:10Z</time></trkpt><trkpt lat="38.21884760856131" lon="-2.4306394163124274"><ele>1185.0</ele><time>2026-04-20T13:32:11Z</time></trkpt><trkpt lat="38.219003598351044" lon="-2.4306411901631737"><ele>1174.6666666666667</ele><time>2026-04-20T13:32:12Z</time></trkpt><trkpt lat="38.219150733100854" lon="-2.430632986068107"><ele>1164.3333333333335</ele><time>2026-04-20T13:32:13Z</time></trkpt><trkpt lat="38.21930291490828" lon="-2.4306243099189606"><ele>1154.0</ele><time>2026-04-20T13:32:14Z</time></trkpt><trkpt lat="38.219455222035556" lon="-2.430620493475125"><ele>1154.0</ele><time>2026-04-20T13:32:15Z</time></trkpt><trkpt lat="38.219600592693595" lon="-2.430612422845135"><ele>1154.0</ele><time>2026-04-20T13:32:16Z</time></trkpt><trkpt lat="38.21975429402467" lon="-2.43062262242311"><ele>1154.0</ele><time>2026-04-20T13:32:17Z</time></trkpt><trkpt lat="38.219906018008636" lon="-2.4306291691722213"><ele>1152.25</ele><time>2026-04-20T13:32:18Z</time></trkpt><trkpt lat="38.22004068241475" lon="-2.4306481968604103"><ele>1150.5</ele><time>2026-04-20T13:32:19Z</time></trkpt><trkpt lat="38.22017042178106" lon="-2.430678714676158"><ele>1148.75</ele><time>2026-04-20T13:32:20Z</time></trkpt><trkpt lat="38.220304564465444" lon="-2.4306899752015645"><ele>1147.0</ele><time>2026-04-20T13:32:21Z</time></trkpt><trkpt lat="38.22043411289374" lon="-2.4306679709395027"><ele>1147.0</ele><time>2026-04-20T13:32:22Z</time></trkpt><trkpt lat="38.220562599764804" lon="-2.4306223642925513"><ele>1147.0</ele><time>2026-04-20T13:32:23Z</time></trkpt><trkpt lat="38.220687233577046" lon="-2.4305732749199414"><ele>1147.0</ele><time>2026-04-20T13:32:24Z</time></trkpt><trkpt lat="38.220795811307106" lon="-2.4305238078317584"><ele>1147.0</ele><time>2026-04-20T13:32:25Z</time></trkpt><trkpt lat="38.220918196449375" lon="-2.4304978827833943"><ele>1144.5</ele><time>2026-04-20T13:32:26Z</time></trkpt><trkpt lat="38.22104081607767" lon="-2.430475199810623"><ele>1142.0</ele><time>2026-04-20T13:32:27Z</time></trkpt><trkpt lat="38.221159821720626" lon="-2.4304788393262924"><ele>1139.5</ele><time>2026-04-20T13:32:28Z</time></trkpt><trkpt lat="38.221268081563416" lon="-2.430515017057323"><ele>1137.0</ele><time>2026-04-20T13:32:29Z</time></trkpt><trkpt lat="38.221360434328375" lon="-2.430594253476932"><ele>1137.0</ele><time>2026-04-20T13:32:30Z</time></trkpt><trkpt lat="38.22145046427575" lon="-2.4306868253882072"><ele>1137.0</ele><time>2026-04-20T13:32:31Z</time></trkpt><trkpt lat="38.22151813618783" lon="-2.430768465990108"><ele>1137.0</ele><time>2026-04-20T13:32:32Z</time></trkpt><trkpt lat="38.22158458571431" lon="-2.430819127773957"><ele>1137.0</ele><time>2026-04-20T13:32:33Z</time></trkpt><trkpt lat="38.221664588837" lon="-2.430815543405167"><ele>1137.0</ele><time>2026-04-20T13:32:34Z</time></trkpt><trkpt lat="38.22175591374315" lon="-2.43076257041887"><ele>1136.2</ele><time>2026-04-20T13:32:35Z</time></trkpt><trkpt lat="38.22181831881487" lon="-2.4306472606129694"><ele>1135.4</ele><time>2026-04-20T13:32:36Z</time></trkpt><trkpt lat="38.22190662755411" lon="-2.4305771131018012"><ele>1134.6</ele><time>2026-04-20T13:32:37Z</time></trkpt><trkpt lat="38.22196594133117" lon="-2.430498893632409"><ele>1133.8</ele><time>2026-04-20T13:32:38Z</time></trkpt><trkpt lat="38.22202304737482" lon="-2.430456873596336"><ele>1133.0</ele><time>2026-04-20T13:32:39Z</time></trkpt><trkpt lat="38.22214556811457" lon="-2.4304805998707812"><ele>1133.0</ele><time>2026-04-20T13:32:41Z</time></trkpt><trkpt lat="38.222190197021504" lon="-2.430553850573881"><ele>1133.0</ele><time>2026-04-20T13:32:42Z</time></trkpt><trkpt lat="38.22221607620859" lon="-2.4306596768649262"><ele>1133.0</ele><time>2026-04-20T13:32:43Z</time></trkpt><trkpt lat="38.22223222186901" lon="-2.4307879868381086"><ele>1133.0</ele><time>2026-04-20T13:32:44Z</time></trkpt><trkpt lat="38.22224872077936" lon="-2.4309183943268953"><ele>1133.0</ele><time>2026-04-20T13:32:45Z</time></trkpt><trkpt lat="38.22224138851254" lon="-2.431034795326171"><ele>1133.0</ele><time>2026-04-20T13:32:46Z</time></trkpt><trkpt lat="38.222227837418195" lon="-2.4311479630767656"><ele>1133.0</ele><time>2026-04-20T13:32:47Z</time></trkpt><trkpt lat="38.222199942366274" lon="-2.4312636699149346"><ele>1133.0</ele><time>2026-04-20T13:32:48Z</time></trkpt><trkpt lat="38.222159216627034" lon="-2.431370539183929"><ele>1133.0</ele><time>2026-04-20T13:32:49Z</time></trkpt><trkpt lat="38.22210999309367" lon="-2.431478216179343"><ele>1133.0</ele><time>2026-04-20T13:32:50Z</time></trkpt><trkpt lat="38.22205314072201" lon="-2.431575191573602"><ele>1130.0</ele><time>2026-04-20T13:32:51Z</time></trkpt><trkpt lat="38.222000399261105" lon="-2.431674439290096"><ele>1127.0</ele><time>2026-04-20T13:32:52Z</time></trkpt><trkpt lat="38.221939524608615" lon="-2.4317758630249835"><ele>1124.0</ele><time>2026-04-20T13:32:53Z</time></trkpt><trkpt lat="38.221880720976685" lon="-2.4318779322515014"><ele>1121.0</ele><time>2026-04-20T13:32:54Z</time></trkpt><trkpt lat="38.22183116539444" lon="-2.431959013603197"><ele>1118.0</ele><time>2026-04-20T13:32:55Z</time></trkpt><trkpt lat="38.221780865052814" lon="-2.4320251432000934"><ele>1115.0</ele><time>2026-04-20T13:32:56Z</time></trkpt><trkpt lat="38.22169526585573" lon="-2.432053222878241"><ele>1115.0</ele><time>2026-04-20T13:32:57Z</time></trkpt><trkpt lat="38.2216172140318" lon="-2.432024282748151"><ele>1115.0</ele><time>2026-04-20T13:32:58Z</time></trkpt><trkpt lat="38.22153175176703" lon="-2.431957371968295"><ele>1115.0</ele><time>2026-04-20T13:32:59Z</time></trkpt><trkpt lat="38.2214474799453" lon="-2.431900307632278"><ele>1115.0</ele><time>2026-04-20T13:33:00Z</time></trkpt><trkpt lat="38.22136647398821" lon="-2.4318635916728413"><ele>1115.0</ele><time>2026-04-20T13:33:01Z</time></trkpt><trkpt lat="38.221281792491595" lon="-2.431870081626252"><ele>1115.0</ele><time>2026-04-20T13:33:02Z</time></trkpt><trkpt lat="38.221222391994246" lon="-2.431954245198841"><ele>1115.0</ele><time>2026-04-20T13:33:03Z</time></trkpt><trkpt lat="38.221117541603" lon="-2.432031630013163"><ele>1115.0</ele><time>2026-04-20T13:33:04Z</time></trkpt><trkpt lat="38.22102079764591" lon="-2.432136784102083"><ele>1115.0</ele><time>2026-04-20T13:33:05Z</time></trkpt><trkpt lat="38.22091262839724" lon="-2.4322127478857"><ele>1115.0</ele><time>2026-04-20T13:33:06Z</time></trkpt><trkpt lat="38.22078359790314" lon="-2.4322640860485896"><ele>1110.5</ele><time>2026-04-20T13:33:07Z</time></trkpt><trkpt lat="38.22065703894636" lon="-2.4323009737309857"><ele>1106.0</ele><time>2026-04-20T13:33:08Z</time></trkpt><trkpt lat="38.22053418597594" lon="-2.43233945245815"><ele>1101.5</ele><time>2026-04-20T13:33:09Z</time></trkpt><trkpt lat="38.220410037514" lon="-2.4323691602010373"><ele>1097.0</ele><time>2026-04-20T13:33:10Z</time></trkpt><trkpt lat="38.220283299536725" lon="-2.4324210048498767"><ele>1097.0</ele><time>2026-04-20T13:33:11Z</time></trkpt><trkpt lat="38.22015325681951" lon="-2.4324728831916844"><ele>1097.0</ele><time>2026-04-20T13:33:12Z</time></trkpt><trkpt lat="38.220027440429575" lon="-2.432525999810844"><ele>1097.0</ele><time>2026-04-20T13:33:13Z</time></trkpt><trkpt lat="38.219914421101954" lon="-2.432611653679405"><ele>1097.0</ele><time>2026-04-20T13:33:14Z</time></trkpt><trkpt lat="38.21982134024802" lon="-2.4326929473671184"><ele>1095.8333333333335</ele><time>2026-04-20T13:33:15Z</time></trkpt><trkpt lat="38.21975291995401" lon="-2.43275887277164"><ele>1094.6666666666667</ele><time>2026-04-20T13:33:16Z</time></trkpt><trkpt lat="38.2196847154534" lon="-2.4328169598347436"><ele>1093.5</ele><time>2026-04-20T13:33:17Z</time></trkpt><trkpt lat="38.21964605610273" lon="-2.4328936816425433"><ele>1092.3333333333333</ele><time>2026-04-20T13:33:18Z</time></trkpt><trkpt lat="38.21968698554756" lon="-2.4330512622787763"><ele>1091.1666666666665</ele><time>2026-04-20T13:33:20Z</time></trkpt><trkpt lat="38.21972249370816" lon="-2.4331209533531872"><ele>1090.0</ele><time>2026-04-20T13:33:21Z</time></trkpt><trkpt lat="38.219844760147204" lon="-2.433044053649558"><ele>1089.2</ele><time>2026-04-20T13:33:22Z</time></trkpt><trkpt lat="38.21993894303705" lon="-2.433011650477404"><ele>1088.4</ele><time>2026-04-20T13:33:23Z</time></trkpt><trkpt lat="38.220012631658555" lon="-2.432958921422674"><ele>1087.6</ele><time>2026-04-20T13:33:24Z</time></trkpt><trkpt lat="38.22011163839864" lon="-2.432951774278466"><ele>1086.8</ele><time>2026-04-20T13:33:25Z</time></trkpt><trkpt lat="38.220199309506384" lon="-2.433001797929"><ele>1086.0</ele><time>2026-04-20T13:33:26Z</time></trkpt><trkpt lat="38.22029596678784" lon="-2.43308926433375"><ele>1086.0</ele><time>2026-04-20T13:33:27Z</time></trkpt><trkpt lat="38.220383204652535" lon="-2.433177540779031"><ele>1086.0</ele><time>2026-04-20T13:33:28Z</time></trkpt><trkpt lat="38.22045916170531" lon="-2.433267148831509"><ele>1086.0</ele><time>2026-04-20T13:33:29Z</time></trkpt><trkpt lat="38.2205522385057" lon="-2.433344255322274"><ele>1086.0</ele><time>2026-04-20T13:33:30Z</time></trkpt><trkpt lat="38.2206349670474" lon="-2.4334032051442858"><ele>1086.0</ele><time>2026-04-20T13:33:31Z</time></trkpt><trkpt lat="38.22071796186321" lon="-2.433458835155984"><ele>1085.3999999999999</ele><time>2026-04-20T13:33:32Z</time></trkpt><trkpt lat="38.22080404795563" lon="-2.433515430699263"><ele>1084.8</ele><time>2026-04-20T13:33:33Z</time></trkpt><trkpt lat="38.220888154669474" lon="-2.4335599586115704"><ele>1084.1999999999998</ele><time>2026-04-20T13:33:34Z</time></trkpt><trkpt lat="38.22098212643841" lon="-2.433591804501712"><ele>1083.6</ele><time>2026-04-20T13:33:35Z</time></trkpt><trkpt lat="38.22107772846421" lon="-2.433604553353471"><ele>1083.0</ele><time>2026-04-20T13:33:36Z</time></trkpt><trkpt lat="38.22117505519566" lon="-2.4336084927640025"><ele>1083.0</ele><time>2026-04-20T13:33:37Z</time></trkpt><trkpt lat="38.221268500079866" lon="-2.433586553807517"><ele>1083.0</ele><time>2026-04-20T13:33:38Z</time></trkpt><trkpt lat="38.22135643348055" lon="-2.4335127958183334"><ele>1083.0</ele><time>2026-04-20T13:33:39Z</time></trkpt><trkpt lat="38.22144330901743" lon="-2.4334222921279345"><ele>1083.0</ele><time>2026-04-20T13:33:40Z</time></trkpt><trkpt lat="38.22154257002837" lon="-2.4333519242100947"><ele>1083.0</ele><time>2026-04-20T13:33:41Z</time></trkpt><trkpt lat="38.22163466611915" lon="-2.4332800956720853"><ele>1082.0</ele><time>2026-04-20T13:33:42Z</time></trkpt><trkpt lat="38.22174569469533" lon="-2.4332305414227657"><ele>1081.0</ele><time>2026-04-20T13:33:43Z</time></trkpt><trkpt lat="38.22186761970076" lon="-2.4332189195039198"><ele>1080.0</ele><time>2026-04-20T13:33:44Z</time></trkpt><trkpt lat="38.22200750273419" lon="-2.433237127187023"><ele>1079.0</ele><time>2026-04-20T13:33:45Z</time></trkpt><trkpt lat="38.222148440080126" lon="-2.4332587020405865"><ele>1079.0</ele><time>2026-04-20T13:33:46Z</time></trkpt><trkpt lat="38.22228674753089" lon="-2.433242973897402"><ele>1079.0</ele><time>2026-04-20T13:33:47Z</time></trkpt><trkpt lat="38.22242150050513" lon="-2.4332146296264443"><ele>1079.0</ele><time>2026-04-20T13:33:48Z</time></trkpt><trkpt lat="38.22253833928578" lon="-2.4331856971407655"><ele>1079.0</ele><time>2026-04-20T13:33:49Z</time></trkpt><trkpt lat="38.2226315075776" lon="-2.4331937491353375"><ele>1077.8333333333335</ele><time>2026-04-20T13:33:50Z</time></trkpt><trkpt lat="38.22270716268046" lon="-2.433196909169064"><ele>1076.6666666666667</ele><time>2026-04-20T13:33:51Z</time></trkpt><trkpt lat="38.222771158589154" lon="-2.433162648469253"><ele>1075.5</ele><time>2026-04-20T13:33:52Z</time></trkpt><trkpt lat="38.222827881227325" lon="-2.4330777605769827"><ele>1074.3333333333333</ele><time>2026-04-20T13:33:53Z</time></trkpt><trkpt lat="38.2228234642119" lon="-2.43294642589965"><ele>1073.1666666666665</ele><time>2026-04-20T13:33:54Z</time></trkpt><trkpt lat="38.22285418849104" lon="-2.4328329617215845"><ele>1072.0</ele><time>2026-04-20T13:33:55Z</time></trkpt><trkpt lat="38.22289140284188" lon="-2.4327140783365686"><ele>1071.0</ele><time>2026-04-20T13:33:56Z</time></trkpt><trkpt lat="38.22296430375372" lon="-2.432607586852858"><ele>1070.0</ele><time>2026-04-20T13:33:57Z</time></trkpt><trkpt lat="38.22308128980096" lon="-2.4325261143455723"><ele>1069.0</ele><time>2026-04-20T13:33:58Z</time></trkpt><trkpt lat="38.22319461587791" lon="-2.432450561944293"><ele>1068.0</ele><time>2026-04-20T13:33:59Z</time></trkpt><trkpt lat="38.223316195621116" lon="-2.4323803205916046"><ele>1068.0</ele><time>2026-04-20T13:34:00Z</time></trkpt><trkpt lat="38.223434843125524" lon="-2.432339234067735"><ele>1068.0</ele><time>2026-04-20T13:34:01Z</time></trkpt><trkpt lat="38.22353994265011" lon="-2.432290417162369"><ele>1068.0</ele><time>2026-04-20T13:34:02Z</time></trkpt><trkpt lat="38.22362907463785" lon="-2.4322190484323887"><ele>1068.0</ele><time>2026-04-20T13:34:03Z</time></trkpt><trkpt lat="38.22371241293173" lon="-2.4321194027367867"><ele>1069.75</ele><time>2026-04-20T13:34:04Z</time></trkpt><trkpt lat="38.223797868894124" lon="-2.431995074408655"><ele>1071.5</ele><time>2026-04-20T13:34:05Z</time></trkpt><trkpt lat="38.223882788172475" lon="-2.4318584456826087"><ele>1073.25</ele><time>2026-04-20T13:34:06Z</time></trkpt><trkpt lat="38.22397411403872" lon="-2.431719806174014"><ele>1075.0</ele><time>2026-04-20T13:34:07Z</time></trkpt><trkpt lat="38.224074445422715" lon="-2.4315984687020706"><ele>1073.5</ele><time>2026-04-20T13:34:08Z</time></trkpt><trkpt lat="38.22417126153564" lon="-2.431488342701307"><ele>1072.0</ele><time>2026-04-20T13:34:09Z</time></trkpt><trkpt lat="38.224260101370774" lon="-2.4313823296878296"><ele>1070.5</ele><time>2026-04-20T13:34:10Z</time></trkpt><trkpt lat="38.224334152314114" lon="-2.431282409770348"><ele>1069.0</ele><time>2026-04-20T13:34:11Z</time></trkpt><trkpt lat="38.22440649146897" lon="-2.431175573568331"><ele>1069.0</ele><time>2026-04-20T13:34:12Z</time></trkpt><trkpt lat="38.22448678998925" lon="-2.4310728190849824"><ele>1069.0</ele><time>2026-04-20T13:34:13Z</time></trkpt><trkpt lat="38.224580944777344" lon="-2.430979148232274"><ele>1069.0</ele><time>2026-04-20T13:34:14Z</time></trkpt><trkpt lat="38.22468109631288" lon="-2.4308997125097163"><ele>1069.0</ele><time>2026-04-20T13:34:15Z</time></trkpt><trkpt lat="38.22476203737353" lon="-2.430852220004689"><ele>1069.0</ele><time>2026-04-20T13:34:16Z</time></trkpt><trkpt lat="38.224828397093184" lon="-2.430788701406848"><ele>1064.1666666666665</ele><time>2026-04-20T13:34:17Z</time></trkpt><trkpt lat="38.22487650516523" lon="-2.4307119673676088"><ele>1059.3333333333333</ele><time>2026-04-20T13:34:18Z</time></trkpt><trkpt lat="38.224879069419345" lon="-2.4306113542751806"><ele>1054.5</ele><time>2026-04-20T13:34:19Z</time></trkpt><trkpt lat="38.224861011434896" lon="-2.4305244422432057"><ele>1049.6666666666667</ele><time>2026-04-20T13:34:20Z</time></trkpt><trkpt lat="38.22482610016289" lon="-2.4304037196737203"><ele>1044.8333333333335</ele><time>2026-04-20T13:34:21Z</time></trkpt><trkpt lat="38.224816948516136" lon="-2.430293742053311"><ele>1040.0</ele><time>2026-04-20T13:34:22Z</time></trkpt><trkpt lat="38.224840653866835" lon="-2.4301712897173635"><ele>1040.0</ele><time>2026-04-20T13:34:23Z</time></trkpt><trkpt lat="38.22488250188338" lon="-2.4300704580249115"><ele>1040.0</ele><time>2026-04-20T13:34:24Z</time></trkpt><trkpt lat="38.224914161275535" lon="-2.4299648624901113"><ele>1040.0</ele><time>2026-04-20T13:34:25Z</time></trkpt><trkpt lat="38.224955128818934" lon="-2.429863867594041"><ele>1040.0</ele><time>2026-04-20T13:34:26Z</time></trkpt><trkpt lat="38.22500903893353" lon="-2.4297613736843124"><ele>1040.0</ele><time>2026-04-20T13:34:27Z</time></trkpt><trkpt lat="38.225078329764834" lon="-2.429644911663084"><ele>1042.6</ele><time>2026-04-20T13:34:28Z</time></trkpt><trkpt lat="38.22515186600069" lon="-2.4295336001507293"><ele>1045.2</ele><time>2026-04-20T13:34:29Z</time></trkpt><trkpt lat="38.22522219262563" lon="-2.4294280013503333"><ele>1047.8</ele><time>2026-04-20T13:34:30Z</time></trkpt><trkpt lat="38.225290440108076" lon="-2.42935084526708"><ele>1050.4</ele><time>2026-04-20T13:34:31Z</time></trkpt><trkpt lat="38.22536145457901" lon="-2.429276496612806"><ele>1053.0</ele><time>2026-04-20T13:34:32Z</time></trkpt><trkpt lat="38.22542767913392" lon="-2.4292017270662174"><ele>1053.0</ele><time>2026-04-20T13:34:33Z</time></trkpt><trkpt lat="38.22550547785816" lon="-2.429133833098193"><ele>1053.0</ele><time>2026-04-20T13:34:34Z</time></trkpt><trkpt lat="38.22559384870872" lon="-2.4290676767633745"><ele>1053.0</ele><time>2026-04-20T13:34:35Z</time></trkpt><trkpt lat="38.225669886166614" lon="-2.4289949864080973"><ele>1053.0</ele><time>2026-04-20T13:34:36Z</time></trkpt><trkpt lat="38.22573567338384" lon="-2.4289074728723374"><ele>1053.0</ele><time>2026-04-20T13:34:37Z</time></trkpt><trkpt lat="38.22578919227734" lon="-2.428823369897978"><ele>1049.6</ele><time>2026-04-20T13:34:38Z</time></trkpt><trkpt lat="38.22585010292944" lon="-2.4287522140856574"><ele>1046.1999999999998</ele><time>2026-04-20T13:34:39Z</time></trkpt><trkpt lat="38.22592059774337" lon="-2.4286699513954098"><ele>1042.8</ele><time>2026-04-20T13:34:40Z</time></trkpt><trkpt lat="38.22598167243693" lon="-2.428587541415235"><ele>1039.3999999999999</ele><time>2026-04-20T13:34:41Z</time></trkpt><trkpt lat="38.226044049984715" lon="-2.428496734932009"><ele>1036.0</ele><time>2026-04-20T13:34:42Z</time></trkpt><trkpt lat="38.22610108069259" lon="-2.42841021673576"><ele>1036.0</ele><time>2026-04-20T13:34:43Z</time></trkpt><trkpt lat="38.2261526659955" lon="-2.428303933880418"><ele>1036.0</ele><time>2026-04-20T13:34:44Z</time></trkpt><trkpt lat="38.226194608071836" lon="-2.428185324427528"><ele>1036.0</ele><time>2026-04-20T13:34:45Z</time></trkpt><trkpt lat="38.22620980952832" lon="-2.428046615333037"><ele>1036.0</ele><time>2026-04-20T13:34:46Z</time></trkpt><trkpt lat="38.226243730993616" lon="-2.42791426225565"><ele>1036.0</ele><time>2026-04-20T13:34:47Z</time></trkpt><trkpt lat="38.22630869598557" lon="-2.427794457522569"><ele>1029.25</ele><time>2026-04-20T13:34:48Z</time></trkpt><trkpt lat="38.226372475696614" lon="-2.4276719115150667"><ele>1022.5</ele><time>2026-04-20T13:34:49Z</time></trkpt><trkpt lat="38.226442585916665" lon="-2.427551951040919"><ele>1015.75</ele><time>2026-04-20T13:34:50Z</time></trkpt><trkpt lat="38.22652494921428" lon="-2.427436127798993"><ele>1009.0</ele><time>2026-04-20T13:34:51Z</time></trkpt><trkpt lat="38.226598786283425" lon="-2.427321881248631"><ele>1008.9999999999999</ele><time>2026-04-20T13:34:52Z</time></trkpt><trkpt lat="38.22666957121608" lon="-2.427228249201682"><ele>1009.0</ele><time>2026-04-20T13:34:53Z</time></trkpt><trkpt lat="38.22672495465159" lon="-2.427142916405599"><ele>1009.0</ele><time>2026-04-20T13:34:54Z</time></trkpt><trkpt lat="38.22677733957434" lon="-2.4270649769506893"><ele>1009.0</ele><time>2026-04-20T13:34:55Z</time></trkpt><trkpt lat="38.226831838757775" lon="-2.4270019362096726"><ele>1008.9999999999999</ele><time>2026-04-20T13:34:56Z</time></trkpt><trkpt lat="38.22689552593202" lon="-2.426968922063519"><ele>1009.0</ele><time>2026-04-20T13:34:57Z</time></trkpt><trkpt lat="38.22696804188725" lon="-2.426965929174384"><ele>1009.0</ele><time>2026-04-20T13:34:58Z</time></trkpt><trkpt lat="38.22705039433091" lon="-2.427039316219307"><ele>1009.0</ele><time>2026-04-20T13:34:59Z</time></trkpt><trkpt lat="38.22714855431302" lon="-2.427091040844586"><ele>1009.0</ele><time>2026-04-20T13:35:00Z</time></trkpt><trkpt lat="38.22724184576772" lon="-2.427187485712562"><ele>1009.0</ele><time>2026-04-20T13:35:01Z</time></trkpt><trkpt lat="38.22735259375794" lon="-2.427270195302771"><ele>1008.0</ele><time>2026-04-20T13:35:02Z</time></trkpt><trkpt lat="38.22747859926653" lon="-2.4273602138557107"><ele>1007.0</ele><time>2026-04-20T13:35:03Z</time></trkpt><trkpt lat="38.22761448047898" lon="-2.42744458056626"><ele>1006.0</ele><time>2026-04-20T13:35:04Z</time></trkpt><trkpt lat="38.2277436833528" lon="-2.427546020648679"><ele>1005.0</ele><time>2026-04-20T13:35:05Z</time></trkpt><trkpt lat="38.22787433271474" lon="-2.427663159034298"><ele>1005.0</ele><time>2026-04-20T13:35:06Z</time></trkpt><trkpt lat="38.22798113404864" lon="-2.427793144562082"><ele>1005.0</ele><time>2026-04-20T13:35:07Z</time></trkpt><trkpt lat="38.22809530757124" lon="-2.427920968381786"><ele>1005.0</ele><time>2026-04-20T13:35:08Z</time></trkpt><trkpt lat="38.228197516755245" lon="-2.4280358483310094"><ele>1005.0</ele><time>2026-04-20T13:35:09Z</time></trkpt><trkpt lat="38.228293707682234" lon="-2.428125934517887"><ele>1001.75</ele><time>2026-04-20T13:35:10Z</time></trkpt><trkpt lat="38.22838857464571" lon="-2.428191638247027"><ele>998.5</ele><time>2026-04-20T13:35:11Z</time></trkpt><trkpt lat="38.22849259388181" lon="-2.428255942075269"><ele>995.25</ele><time>2026-04-20T13:35:12Z</time></trkpt><trkpt lat="38.22861077822782" lon="-2.4283233900602332"><ele>992.0</ele><time>2026-04-20T13:35:13Z</time></trkpt><trkpt lat="38.22876239345672" lon="-2.4282451803431218"><ele>992.0</ele><time>2026-04-20T13:35:14Z</time></trkpt><trkpt lat="38.22888892655819" lon="-2.4282230040124007"><ele>992.0</ele><time>2026-04-20T13:35:15Z</time></trkpt><trkpt lat="38.22901447482777" lon="-2.428173028034686"><ele>992.0</ele><time>2026-04-20T13:35:16Z</time></trkpt><trkpt lat="38.22914754341263" lon="-2.428102652873944"><ele>992.0</ele><time>2026-04-20T13:35:17Z</time></trkpt><trkpt lat="38.229292238889265" lon="-2.428038828381581"><ele>990.6666666666667</ele><time>2026-04-20T13:35:18Z</time></trkpt><trkpt lat="38.22945228707891" lon="-2.4279933080904903"><ele>989.3333333333333</ele><time>2026-04-20T13:35:19Z</time></trkpt><trkpt lat="38.22960626412232" lon="-2.4280001549527004"><ele>988.0</ele><time>2026-04-20T13:35:20Z</time></trkpt><trkpt lat="38.22974184217995" lon="-2.4279982076260787"><ele>987.25</ele><time>2026-04-20T13:35:21Z</time></trkpt><trkpt lat="38.229875536824224" lon="-2.4279782992806376"><ele>986.5</ele><time>2026-04-20T13:35:22Z</time></trkpt><trkpt lat="38.23000019293328" lon="-2.4279755741370628"><ele>985.75</ele><time>2026-04-20T13:35:23Z</time></trkpt><trkpt lat="38.23012449363824" lon="-2.427963334061685"><ele>985.0</ele><time>2026-04-20T13:35:24Z</time></trkpt><trkpt lat="38.230243109040075" lon="-2.427935755845909"><ele>990.25</ele><time>2026-04-20T13:35:25Z</time></trkpt><trkpt lat="38.230359239150694" lon="-2.427887436379343"><ele>995.5</ele><time>2026-04-20T13:35:26Z</time></trkpt><trkpt lat="38.23048236933347" lon="-2.4278339059951746"><ele>1000.75</ele><time>2026-04-20T13:35:27Z</time></trkpt><trkpt lat="38.230609353205665" lon="-2.427800747763661"><ele>1006.0</ele><time>2026-04-20T13:35:28Z</time></trkpt><trkpt lat="38.23073106813826" lon="-2.4277440427138415"><ele>1006.0</ele><time>2026-04-20T13:35:29Z</time></trkpt><trkpt lat="38.2308544069995" lon="-2.427722217516907"><ele>1006.0</ele><time>2026-04-20T13:35:30Z</time></trkpt><trkpt lat="38.23096962621381" lon="-2.4277054433210674"><ele>1006.0</ele><time>2026-04-20T13:35:31Z</time></trkpt><trkpt lat="38.23108777760275" lon="-2.42769146547128"><ele>1006.0</ele><time>2026-04-20T13:35:32Z</time></trkpt><trkpt lat="38.231207057373474" lon="-2.427653903684574"><ele>1006.0</ele><time>2026-04-20T13:35:33Z</time></trkpt><trkpt lat="38.23131879386644" lon="-2.427630822491129"><ele>1005.9999999999999</ele><time>2026-04-20T13:35:34Z</time></trkpt><trkpt lat="38.23141390522452" lon="-2.427609496316387"><ele>1005.9999999999999</ele><time>2026-04-20T13:35:35Z</time></trkpt><trkpt lat="38.2315091409999" lon="-2.427588740731016"><ele>1006.0</ele><time>2026-04-20T13:35:36Z</time></trkpt><trkpt lat="38.23158769413603" lon="-2.427578752982199"><ele>1006.0</ele><time>2026-04-20T13:35:37Z</time></trkpt><trkpt lat="38.23169329645624" lon="-2.4276767516685487"><ele>1002.8</ele><time>2026-04-20T13:35:39Z</time></trkpt><trkpt lat="38.231730196098496" lon="-2.4277810142299447"><ele>999.5999999999999</ele><time>2026-04-20T13:35:40Z</time></trkpt><trkpt lat="38.231763546061046" lon="-2.42789727993173"><ele>996.4</ele><time>2026-04-20T13:35:41Z</time></trkpt><trkpt lat="38.23181016955383" lon="-2.4280173794964894"><ele>993.2</ele><time>2026-04-20T13:35:42Z</time></trkpt><trkpt lat="38.23187630794151" lon="-2.428136519945992"><ele>990.0</ele><time>2026-04-20T13:35:43Z</time></trkpt><trkpt lat="38.23194236168228" lon="-2.428246048171471"><ele>989.3333333333334</ele><time>2026-04-20T13:35:44Z</time></trkpt><trkpt lat="38.232020446396895" lon="-2.428333542478737"><ele>988.6666666666667</ele><time>2026-04-20T13:35:45Z</time></trkpt><trkpt lat="38.23210854440281" lon="-2.4283914043522143"><ele>988.0</ele><time>2026-04-20T13:35:46Z</time></trkpt><trkpt lat="38.2321870358183" lon="-2.428431642919964"><ele>987.3333333333334</ele><time>2026-04-20T13:35:47Z</time></trkpt><trkpt lat="38.23225943981816" lon="-2.428465521713408"><ele>986.6666666666667</ele><time>2026-04-20T13:35:48Z</time></trkpt><trkpt lat="38.23233711221903" lon="-2.4285013151412245"><ele>986.0</ele><time>2026-04-20T13:35:49Z</time></trkpt><trkpt lat="38.23241398828326" lon="-2.428541730604251"><ele>986.0</ele><time>2026-04-20T13:35:50Z</time></trkpt><trkpt lat="38.232482028662844" lon="-2.4285703263950023"><ele>985.9999999999999</ele><time>2026-04-20T13:35:51Z</time></trkpt><trkpt lat="38.232562348279416" lon="-2.4285790060575954"><ele>985.9999999999999</ele><time>2026-04-20T13:35:52Z</time></trkpt><trkpt lat="38.23264556626588" lon="-2.4285268269982394"><ele>986.0</ele><time>2026-04-20T13:35:53Z</time></trkpt><trkpt lat="38.23274343294702" lon="-2.428466536957724"><ele>986.0</ele><time>2026-04-20T13:35:54Z</time></trkpt><trkpt lat="38.232863570807375" lon="-2.428422740945841"><ele>986.0</ele><time>2026-04-20T13:35:55Z</time></trkpt><trkpt lat="38.23297116095133" lon="-2.4283602272303733"><ele>986.0</ele><time>2026-04-20T13:35:56Z</time></trkpt><trkpt lat="38.23307867227699" lon="-2.4283005904351853"><ele>986.0</ele><time>2026-04-20T13:35:57Z</time></trkpt><trkpt lat="38.23317236936416" lon="-2.4282084216735718"><ele>986.0</ele><time>2026-04-20T13:35:58Z</time></trkpt><trkpt lat="38.23326034799047" lon="-2.4281278588075947"><ele>984.8333333333334</ele><time>2026-04-20T13:35:59Z</time></trkpt><trkpt lat="38.23334222614804" lon="-2.428066358184937"><ele>983.6666666666667</ele><time>2026-04-20T13:36:00Z</time></trkpt><trkpt lat="38.23339602722311" lon="-2.427997201584449"><ele>982.5</ele><time>2026-04-20T13:36:01Z</time></trkpt><trkpt lat="38.23347112708875" lon="-2.4279524842929154"><ele>981.3333333333333</ele><time>2026-04-20T13:36:03Z</time></trkpt><trkpt lat="38.233547384730564" lon="-2.4279690598144414"><ele>980.1666666666666</ele><time>2026-04-20T13:36:05Z</time></trkpt><trkpt lat="38.23360535852315" lon="-2.4280008354635636"><ele>979.0</ele><time>2026-04-20T13:36:06Z</time></trkpt><trkpt lat="38.23366762002594" lon="-2.428052927205403"><ele>979.0</ele><time>2026-04-20T13:36:07Z</time></trkpt><trkpt lat="38.233720114854" lon="-2.428130041459875"><ele>979.0000000000001</ele><time>2026-04-20T13:36:08Z</time></trkpt><trkpt lat="38.23377205259709" lon="-2.428254044747149"><ele>979.0000000000001</ele><time>2026-04-20T13:36:09Z</time></trkpt><trkpt lat="38.23380149466105" lon="-2.4283953053155463"><ele>979.0</ele><time>2026-04-20T13:36:10Z</time></trkpt><trkpt lat="38.23383464041182" lon="-2.428536797311171"><ele>979.0</ele><time>2026-04-20T13:36:11Z</time></trkpt><trkpt lat="38.23387445073625" lon="-2.4286694186124302"><ele>979.0</ele><time>2026-04-20T13:36:12Z</time></trkpt><trkpt lat="38.23392865086014" lon="-2.428803862029706"><ele>979.0000000000001</ele><time>2026-04-20T13:36:13Z</time></trkpt><trkpt lat="38.23399481710933" lon="-2.4289253314925885"><ele>979.0000000000001</ele><time>2026-04-20T13:36:14Z</time></trkpt><trkpt lat="38.23406293710448" lon="-2.4290215644131252"><ele>979.0</ele><time>2026-04-20T13:36:15Z</time></trkpt><trkpt lat="38.23412805401508" lon="-2.4291133231350326"><ele>979.0</ele><time>2026-04-20T13:36:16Z</time></trkpt><trkpt lat="38.23418836732888" lon="-2.4292045229936527"><ele>978.6</ele><time>2026-04-20T13:36:17Z</time></trkpt><trkpt lat="38.23425678797774" lon="-2.4292846083039343"><ele>978.2</ele><time>2026-04-20T13:36:18Z</time></trkpt><trkpt lat="38.23433934491153" lon="-2.429357120943598"><ele>977.8000000000001</ele><time>2026-04-20T13:36:19Z</time></trkpt><trkpt lat="38.23443136484398" lon="-2.4294098944182316"><ele>977.4000000000001</ele><time>2026-04-20T13:36:20Z</time></trkpt><trkpt lat="38.23452627342971" lon="-2.42941850071748"><ele>977.0</ele><time>2026-04-20T13:36:21Z</time></trkpt><trkpt lat="38.234599617593446" lon="-2.4294660297872053"><ele>977.0000000000001</ele><time>2026-04-20T13:36:22Z</time></trkpt><trkpt lat="38.23466184649116" lon="-2.42951288225351"><ele>977.0</ele><time>2026-04-20T13:36:23Z</time></trkpt><trkpt lat="38.23470457913468" lon="-2.4296059747869734"><ele>977.0000000000001</ele><time>2026-04-20T13:36:24Z</time></trkpt><trkpt lat="38.23473193078519" lon="-2.4296896760450144"><ele>977.0000000000001</ele><time>2026-04-20T13:36:25Z</time></trkpt><trkpt lat="38.234735220537104" lon="-2.4297821566091984"><ele>977.0</ele><time>2026-04-20T13:36:26Z</time></trkpt><trkpt lat="38.234725289945274" lon="-2.429874783143249"><ele>977.0000000000001</ele><time>2026-04-20T13:36:27Z</time></trkpt><trkpt lat="38.23469367384056" lon="-2.4299605166934315"><ele>977.0000000000001</ele><time>2026-04-20T13:36:28Z</time></trkpt><trkpt lat="38.23465087628739" lon="-2.4300350916451623"><ele>975.1666666666667</ele><time>2026-04-20T13:36:29Z</time></trkpt><trkpt lat="38.23459531241307" lon="-2.43009757188925"><ele>973.3333333333334</ele><time>2026-04-20T13:36:30Z</time></trkpt><trkpt lat="38.23453706739197" lon="-2.430146675078949"><ele>971.5</ele><time>2026-04-20T13:36:31Z</time></trkpt><trkpt lat="38.23448813600788" lon="-2.4301976417917786"><ele>969.6666666666667</ele><time>2026-04-20T13:36:32Z</time></trkpt><trkpt lat="38.2344293867484" lon="-2.4303194455798907"><ele>967.8333333333334</ele><time>2026-04-20T13:36:34Z</time></trkpt><trkpt lat="38.2344223858643" lon="-2.430409903136359"><ele>966.0</ele><time>2026-04-20T13:36:35Z</time></trkpt><trkpt lat="38.234425811656806" lon="-2.4305095239430097"><ele>965.1666666666666</ele><time>2026-04-20T13:36:36Z</time></trkpt><trkpt lat="38.2344467794525" lon="-2.430599694256331"><ele>964.3333333333333</ele><time>2026-04-20T13:36:37Z</time></trkpt><trkpt lat="38.23448404278876" lon="-2.4307256909304"><ele>963.5</ele><time>2026-04-20T13:36:39Z</time></trkpt><trkpt lat="38.23448041801661" lon="-2.430829004387624"><ele>962.6666666666666</ele><time>2026-04-20T13:36:41Z</time></trkpt><trkpt lat="38.23449134142963" lon="-2.4309223339567345"><ele>961.8333333333333</ele><time>2026-04-20T13:36:44Z</time></trkpt><trkpt lat="38.23439448561691" lon="-2.4309370988460315"><ele>961.0</ele><time>2026-04-20T13:36:49Z</time></trkpt><trkpt lat="38.23435206424388" lon="-2.4308607222328056"><ele>961.0</ele><time>2026-04-20T13:36:50Z</time></trkpt><trkpt lat="38.234322619753435" lon="-2.430753322394754"><ele>960.9999999999999</ele><time>2026-04-20T13:36:51Z</time></trkpt><trkpt lat="38.23430133878782" lon="-2.430653776884533"><ele>960.9999999999999</ele><time>2026-04-20T13:36:52Z</time></trkpt><trkpt lat="38.23427769173012" lon="-2.430536895923763"><ele>961.0</ele><time>2026-04-20T13:36:53Z</time></trkpt><trkpt lat="38.234242021385256" lon="-2.430414093002413"><ele>961.0</ele><time>2026-04-20T13:36:54Z</time></trkpt><trkpt lat="38.23418481613815" lon="-2.4302931424862297"><ele>962.0</ele><time>2026-04-20T13:36:55Z</time></trkpt><trkpt lat="38.23412877046577" lon="-2.43017751882205"><ele>962.9999999999999</ele><time>2026-04-20T13:36:56Z</time></trkpt><trkpt lat="38.23406958887326" lon="-2.4300676721910306"><ele>963.9999999999999</ele><time>2026-04-20T13:36:57Z</time></trkpt><trkpt lat="38.23400255992743" lon="-2.4299615264911116"><ele>965.0</ele><time>2026-04-20T13:36:58Z</time></trkpt><trkpt lat="38.23392481118655" lon="-2.4298801018806113"><ele>966.0</ele><time>2026-04-20T13:36:59Z</time></trkpt><trkpt lat="38.23383381602702" lon="-2.4298123126318267"><ele>965.1999999999999</ele><time>2026-04-20T13:37:00Z</time></trkpt><trkpt lat="38.233743102539215" lon="-2.4297614795992315"><ele>964.3999999999999</ele><time>2026-04-20T13:37:01Z</time></trkpt><trkpt lat="38.23364985451569" lon="-2.4297167241280326"><ele>963.6</ele><time>2026-04-20T13:37:02Z</time></trkpt><trkpt lat="38.23356794085075" lon="-2.429679408809912"><ele>962.8</ele><time>2026-04-20T13:37:03Z</time></trkpt><trkpt lat="38.23349314260606" lon="-2.4296371461449504"><ele>962.0</ele><time>2026-04-20T13:37:04Z</time></trkpt><trkpt lat="38.23341917425476" lon="-2.429579976286491"><ele>962.0000000000001</ele><time>2026-04-20T13:37:05Z</time></trkpt><trkpt lat="38.233354327212716" lon="-2.4294844146723205"><ele>962.0</ele><time>2026-04-20T13:37:06Z</time></trkpt><trkpt lat="38.233304665453474" lon="-2.429426020871887"><ele>962.0</ele><time>2026-04-20T13:37:07Z</time></trkpt><trkpt lat="38.233245163511484" lon="-2.429377498971232"><ele>962.0</ele><time>2026-04-20T13:37:08Z</time></trkpt><trkpt lat="38.23317012873153" lon="-2.4293539128006407"><ele>962.0000000000001</ele><time>2026-04-20T13:37:09Z</time></trkpt><trkpt lat="38.23307485344209" lon="-2.429372685526904"><ele>962.0</ele><time>2026-04-20T13:37:10Z</time></trkpt><trkpt lat="38.232997552392476" lon="-2.4294470978561113"><ele>961.2</ele><time>2026-04-20T13:37:11Z</time></trkpt><trkpt lat="38.23293874973554" lon="-2.4295484937000724"><ele>960.4000000000001</ele><time>2026-04-20T13:37:12Z</time></trkpt><trkpt lat="38.23288490070659" lon="-2.429645142396545"><ele>959.5999999999999</ele><time>2026-04-20T13:37:13Z</time></trkpt><trkpt lat="38.23283062677281" lon="-2.429734660642434"><ele>958.8</ele><time>2026-04-20T13:37:14Z</time></trkpt><trkpt lat="38.23274966039349" lon="-2.429795234857252"><ele>958.0</ele><time>2026-04-20T13:37:15Z</time></trkpt><trkpt lat="38.23263912883926" lon="-2.4298159504930856"><ele>954.75</ele><time>2026-04-20T13:37:16Z</time></trkpt><trkpt lat="38.23252160671801" lon="-2.4298293765255212"><ele>951.5</ele><time>2026-04-20T13:37:17Z</time></trkpt><trkpt lat="38.232398366220835" lon="-2.4297706265721213"><ele>948.25</ele><time>2026-04-20T13:37:18Z</time></trkpt><trkpt lat="38.232281318166116" lon="-2.429696120426521"><ele>945.0</ele><time>2026-04-20T13:37:19Z</time></trkpt><trkpt lat="38.23217513289897" lon="-2.4296285580730927"><ele>945.0</ele><time>2026-04-20T13:37:20Z</time></trkpt><trkpt lat="38.23206120101449" lon="-2.429557148570272"><ele>945.0</ele><time>2026-04-20T13:37:21Z</time></trkpt><trkpt lat="38.2319615503618" lon="-2.429480451540302"><ele>945.0</ele><time>2026-04-20T13:37:22Z</time></trkpt><trkpt lat="38.231844330044524" lon="-2.429436505450772"><ele>945.0</ele><time>2026-04-20T13:37:23Z</time></trkpt><trkpt lat="38.23173182696836" lon="-2.4294054315456304"><ele>945.0</ele><time>2026-04-20T13:37:24Z</time></trkpt><trkpt lat="38.23162737263419" lon="-2.429356924457439"><ele>945.0</ele><time>2026-04-20T13:37:25Z</time></trkpt><trkpt lat="38.23152621631075" lon="-2.4292976615400983"><ele>945.0</ele><time>2026-04-20T13:37:26Z</time></trkpt><trkpt lat="38.231474648011186" lon="-2.429174178771168"><ele>945.0</ele><time>2026-04-20T13:37:27Z</time></trkpt><trkpt lat="38.23144382130008" lon="-2.4290523659385777"><ele>945.0</ele><time>2026-04-20T13:37:28Z</time></trkpt><trkpt lat="38.231434795526" lon="-2.4289041649663963"><ele>947.4</ele><time>2026-04-20T13:37:29Z</time></trkpt><trkpt lat="38.23144572666932" lon="-2.428760475053267"><ele>949.8</ele><time>2026-04-20T13:37:30Z</time></trkpt><trkpt lat="38.23140151240361" lon="-2.428651576542611"><ele>952.2</ele><time>2026-04-20T13:37:31Z</time></trkpt><trkpt lat="38.231337438063505" lon="-2.428573346213119"><ele>954.6</ele><time>2026-04-20T13:37:32Z</time></trkpt><trkpt lat="38.23125424639726" lon="-2.4285304196020663"><ele>957.0</ele><time>2026-04-20T13:37:33Z</time></trkpt><trkpt lat="38.23117217534156" lon="-2.428525006319451"><ele>957.0</ele><time>2026-04-20T13:37:34Z</time></trkpt><trkpt lat="38.23110514837457" lon="-2.428573600745654"><ele>957.0</ele><time>2026-04-20T13:37:35Z</time></trkpt><trkpt lat="38.23101968001949" lon="-2.428669178963451"><ele>957.0</ele><time>2026-04-20T13:37:36Z</time></trkpt><trkpt lat="38.2309261506792" lon="-2.42879208362498"><ele>957.0</ele><time>2026-04-20T13:37:37Z</time></trkpt><trkpt lat="38.230831372813014" lon="-2.4289442154787513"><ele>956.6666666666667</ele><time>2026-04-20T13:37:38Z</time></trkpt><trkpt lat="38.230732551548684" lon="-2.429117318267732"><ele>956.3333333333334</ele><time>2026-04-20T13:37:39Z</time></trkpt><trkpt lat="38.23062870647197" lon="-2.4292985491887342"><ele>956.0</ele><time>2026-04-20T13:37:40Z</time></trkpt><trkpt lat="38.23055482086031" lon="-2.429488883810609"><ele>946.6666666666667</ele><time>2026-04-20T13:37:41Z</time></trkpt><trkpt lat="38.230480594654985" lon="-2.429660641218088"><ele>937.3333333333333</ele><time>2026-04-20T13:37:42Z</time></trkpt><trkpt lat="38.23039782080448" lon="-2.429828168366523"><ele>928.0</ele><time>2026-04-20T13:37:43Z</time></trkpt><trkpt lat="38.23030873014389" lon="-2.4299872405620193"><ele>928.0</ele><time>2026-04-20T13:37:44Z</time></trkpt><trkpt lat="38.230194972500755" lon="-2.4301049549522817"><ele>928.0</ele><time>2026-04-20T13:37:45Z</time></trkpt><trkpt lat="38.23005537848788" lon="-2.430195007818989"><ele>928.0</ele><time>2026-04-20T13:37:46Z</time></trkpt><trkpt lat="38.22991117448448" lon="-2.43026746062358"><ele>929.25</ele><time>2026-04-20T13:37:47Z</time></trkpt><trkpt lat="38.22975747770043" lon="-2.4303271581149613"><ele>930.5</ele><time>2026-04-20T13:37:48Z</time></trkpt><trkpt lat="38.22962127041524" lon="-2.430371472793338"><ele>931.75</ele><time>2026-04-20T13:37:49Z</time></trkpt><trkpt lat="38.22949479657148" lon="-2.430414016336557"><ele>933.0</ele><time>2026-04-20T13:37:50Z</time></trkpt><trkpt lat="38.22935728716698" lon="-2.430436427000565"><ele>933.0</ele><time>2026-04-20T13:37:51Z</time></trkpt><trkpt lat="38.22922935792524" lon="-2.430423935344101"><ele>933.0</ele><time>2026-04-20T13:37:52Z</time></trkpt><trkpt lat="38.22910020312697" lon="-2.4303992406835353"><ele>933.0</ele><time>2026-04-20T13:37:53Z</time></trkpt><trkpt lat="38.22898813247505" lon="-2.4304112258842014"><ele>933.0</ele><time>2026-04-20T13:37:54Z</time></trkpt><trkpt lat="38.228875341987376" lon="-2.4304137462795756"><ele>933.5999999999999</ele><time>2026-04-20T13:37:55Z</time></trkpt><trkpt lat="38.22876044465548" lon="-2.4304188155281032"><ele>934.1999999999999</ele><time>2026-04-20T13:37:56Z</time></trkpt><trkpt lat="38.2286495664156" lon="-2.4304092808250597"><ele>934.8</ele><time>2026-04-20T13:37:57Z</time></trkpt><trkpt lat="38.22854680447667" lon="-2.4304267030697773"><ele>935.4</ele><time>2026-04-20T13:37:58Z</time></trkpt><trkpt lat="38.228450882608364" lon="-2.430442261029263"><ele>936.0</ele><time>2026-04-20T13:37:59Z</time></trkpt><trkpt lat="38.2283365581887" lon="-2.430431876882851"><ele>936.0</ele><time>2026-04-20T13:38:00Z</time></trkpt><trkpt lat="38.22820967920441" lon="-2.4304480132317487"><ele>936.0</ele><time>2026-04-20T13:38:01Z</time></trkpt><trkpt lat="38.22809103704907" lon="-2.4304832591909222"><ele>936.0</ele><time>2026-04-20T13:38:02Z</time></trkpt><trkpt lat="38.22798624649115" lon="-2.4305279738373917"><ele>936.0</ele><time>2026-04-20T13:38:03Z</time></trkpt><trkpt lat="38.22789330247782" lon="-2.4305803118587983"><ele>934.0</ele><time>2026-04-20T13:38:04Z</time></trkpt><trkpt lat="38.22782971183554" lon="-2.4306681081589465"><ele>931.9999999999999</ele><time>2026-04-20T13:38:05Z</time></trkpt><trkpt lat="38.22779448249083" lon="-2.4307851270499556"><ele>929.9999999999999</ele><time>2026-04-20T13:38:06Z</time></trkpt><trkpt lat="38.22775405553565" lon="-2.4309335644170633"><ele>928.0</ele><time>2026-04-20T13:38:07Z</time></trkpt><trkpt lat="38.227726638309704" lon="-2.431094835393783"><ele>926.0</ele><time>2026-04-20T13:38:08Z</time></trkpt><trkpt lat="38.22769762512341" lon="-2.4312560622441888"><ele>923.75</ele><time>2026-04-20T13:38:09Z</time></trkpt><trkpt lat="38.22766759054085" lon="-2.4314196832503328"><ele>921.5</ele><time>2026-04-20T13:38:10Z</time></trkpt><trkpt lat="38.22764569272795" lon="-2.4315866183674233"><ele>919.25</ele><time>2026-04-20T13:38:11Z</time></trkpt><trkpt lat="38.2276304743748" lon="-2.4317493011279154"><ele>917.0</ele><time>2026-04-20T13:38:12Z</time></trkpt><trkpt lat="38.22762662607146" lon="-2.4319177773426706"><ele>917.0</ele><time>2026-04-20T13:38:13Z</time></trkpt><trkpt lat="38.22762221471491" lon="-2.432096526589614"><ele>917.0</ele><time>2026-04-20T13:38:14Z</time></trkpt><trkpt lat="38.22761163176458" lon="-2.4322765370414112"><ele>917.0</ele><time>2026-04-20T13:38:15Z</time></trkpt><trkpt lat="38.227598612191045" lon="-2.4324610845761905"><ele>917.0</ele><time>2026-04-20T13:38:16Z</time></trkpt><trkpt lat="38.22758154104876" lon="-2.4326489961844557"><ele>914.0</ele><time>2026-04-20T13:38:17Z</time></trkpt><trkpt lat="38.227558374791286" lon="-2.432830413454869"><ele>911.0</ele><time>2026-04-20T13:38:18Z</time></trkpt><trkpt lat="38.22754676012673" lon="-2.4330075805821103"><ele>908.0</ele><time>2026-04-20T13:38:19Z</time></trkpt><trkpt lat="38.22756160218994" lon="-2.4331757173147484"><ele>905.0</ele><time>2026-04-20T13:38:20Z</time></trkpt><trkpt lat="38.22759470623425" lon="-2.4333423725936942"><ele>904.0</ele><time>2026-04-20T13:38:21Z</time></trkpt><trkpt lat="38.2276251735278" lon="-2.4334933216155337"><ele>903.0</ele><time>2026-04-20T13:38:22Z</time></trkpt><trkpt lat="38.227635508223" lon="-2.4336567117397134"><ele>902.0</ele><time>2026-04-20T13:38:23Z</time></trkpt><trkpt lat="38.22762533767068" lon="-2.4338349642931187"><ele>901.0</ele><time>2026-04-20T13:38:24Z</time></trkpt><trkpt lat="38.227609028911324" lon="-2.4340000669775925"><ele>901.0</ele><time>2026-04-20T13:38:25Z</time></trkpt><trkpt lat="38.22761263102282" lon="-2.4341405825606435"><ele>901.0</ele><time>2026-04-20T13:38:26Z</time></trkpt><trkpt lat="38.22767051466384" lon="-2.434284992057531"><ele>901.0</ele><time>2026-04-20T13:38:27Z</time></trkpt><trkpt lat="38.22776134804242" lon="-2.434424492759757"><ele>901.0</ele><time>2026-04-20T13:38:28Z</time></trkpt><trkpt lat="38.227838145730985" lon="-2.43457892556674"><ele>906.3333333333333</ele><time>2026-04-20T13:38:29Z</time></trkpt><trkpt lat="38.227884320773775" lon="-2.43477202156552"><ele>911.6666666666667</ele><time>2026-04-20T13:38:30Z</time></trkpt><trkpt lat="38.2279250134644" lon="-2.434958206491674"><ele>917.0</ele><time>2026-04-20T13:38:31Z</time></trkpt><trkpt lat="38.227949678957735" lon="-2.4351372226396184"><ele>917.0</ele><time>2026-04-20T13:38:32Z</time></trkpt><trkpt lat="38.227994470354766" lon="-2.435297934628419"><ele>917.0</ele><time>2026-04-20T13:38:33Z</time></trkpt><trkpt lat="38.228087314776474" lon="-2.435441958208764"><ele>917.0</ele><time>2026-04-20T13:38:34Z</time></trkpt><trkpt lat="38.22821159583531" lon="-2.435569995151281"><ele>917.0</ele><time>2026-04-20T13:38:35Z</time></trkpt><trkpt lat="38.228336234775064" lon="-2.435703503881553"><ele>908.5</ele><time>2026-04-20T13:38:36Z</time></trkpt><trkpt lat="38.22842586023548" lon="-2.4358666960188295"><ele>900.0</ele><time>2026-04-20T13:38:37Z</time></trkpt><trkpt lat="38.228502195231115" lon="-2.4360312580608996"><ele>891.5</ele><time>2026-04-20T13:38:38Z</time></trkpt><trkpt lat="38.22855608445136" lon="-2.436193696279439"><ele>883.0</ele><time>2026-04-20T13:38:39Z</time></trkpt><trkpt lat="38.22858575636898" lon="-2.436369060766671"><ele>883.0</ele><time>2026-04-20T13:38:40Z</time></trkpt><trkpt lat="38.228585031052" lon="-2.436566295023309"><ele>883.0</ele><time>2026-04-20T13:38:41Z</time></trkpt><trkpt lat="38.22854529407991" lon="-2.4367800218874476"><ele>883.0</ele><time>2026-04-20T13:38:42Z</time></trkpt><trkpt lat="38.228497324601435" lon="-2.4370041833003335"><ele>878.0</ele><time>2026-04-20T13:38:43Z</time></trkpt><trkpt lat="38.22843941518797" lon="-2.4372290153333602"><ele>873.0</ele><time>2026-04-20T13:38:44Z</time></trkpt><trkpt lat="38.228379253148525" lon="-2.437448283043267"><ele>868.0</ele><time>2026-04-20T13:38:45Z</time></trkpt><trkpt lat="38.22830931337728" lon="-2.4376529577033486"><ele>868.0</ele><time>2026-04-20T13:38:46Z</time></trkpt><trkpt lat="38.228244717899145" lon="-2.437827528048856"><ele>868.0</ele><time>2026-04-20T13:38:47Z</time></trkpt><trkpt lat="38.22818882623876" lon="-2.4379751036691744"><ele>868.0</ele><time>2026-04-20T13:38:48Z</time></trkpt><trkpt lat="38.22812638240172" lon="-2.438104518021462"><ele>868.0</ele><time>2026-04-20T13:38:49Z</time></trkpt><trkpt lat="38.228037345108646" lon="-2.43821992185177"><ele>868.5</ele><time>2026-04-20T13:38:50Z</time></trkpt><trkpt lat="38.227925758462504" lon="-2.438316050508545"><ele>869.0</ele><time>2026-04-20T13:38:51Z</time></trkpt><trkpt lat="38.227817321912774" lon="-2.4384208525705193"><ele>869.5</ele><time>2026-04-20T13:38:52Z</time></trkpt><trkpt lat="38.22774548026978" lon="-2.4385788127760204"><ele>870.0</ele><time>2026-04-20T13:38:53Z</time></trkpt><trkpt lat="38.22772009300581" lon="-2.4387635026360965"><ele>866.0</ele><time>2026-04-20T13:38:54Z</time></trkpt><trkpt lat="38.22772318808339" lon="-2.4389622572989884"><ele>862.0</ele><time>2026-04-20T13:38:55Z</time></trkpt><trkpt lat="38.227732378828875" lon="-2.439168677162712"><ele>858.0</ele><time>2026-04-20T13:38:56Z</time></trkpt><trkpt lat="38.22776621625176" lon="-2.4393427758097728"><ele>858.0</ele><time>2026-04-20T13:38:57Z</time></trkpt><trkpt lat="38.22777399940091" lon="-2.4395082389247937"><ele>858.0</ele><time>2026-04-20T13:38:58Z</time></trkpt><trkpt lat="38.2277488865358" lon="-2.4396749256136796"><ele>858.0</ele><time>2026-04-20T13:38:59Z</time></trkpt><trkpt lat="38.22769496517945" lon="-2.4398407667440893"><ele>858.0</ele><time>2026-04-20T13:39:00Z</time></trkpt><trkpt lat="38.227633394884975" lon="-2.4399974584760162"><ele>857.5</ele><time>2026-04-20T13:39:01Z</time></trkpt><trkpt lat="38.22760018524353" lon="-2.4401551690770575"><ele>857.0</ele><time>2026-04-20T13:39:02Z</time></trkpt><trkpt lat="38.227620790080074" lon="-2.4403302054204232"><ele>856.5</ele><time>2026-04-20T13:39:03Z</time></trkpt><trkpt lat="38.22768301263927" lon="-2.4405024120360794"><ele>856.0</ele><time>2026-04-20T13:39:04Z</time></trkpt><trkpt lat="38.2277398401126" lon="-2.4406713405277216"><ele>856.0</ele><time>2026-04-20T13:39:05Z</time></trkpt><trkpt lat="38.22777303702299" lon="-2.440833325974801"><ele>856.0</ele><time>2026-04-20T13:39:06Z</time></trkpt><trkpt lat="38.227788090600235" lon="-2.4410090067584176"><ele>856.0</ele><time>2026-04-20T13:39:07Z</time></trkpt><trkpt lat="38.227769486645634" lon="-2.441199790776999"><ele>856.0</ele><time>2026-04-20T13:39:08Z</time></trkpt><trkpt lat="38.22772901770458" lon="-2.441400813303684"><ele>852.6666666666666</ele><time>2026-04-20T13:39:09Z</time></trkpt><trkpt lat="38.22769250153906" lon="-2.4416130763116715"><ele>849.3333333333333</ele><time>2026-04-20T13:39:10Z</time></trkpt><trkpt lat="38.227655528990326" lon="-2.441819317865268"><ele>846.0</ele><time>2026-04-20T13:39:11Z</time></trkpt><trkpt lat="38.227617964530786" lon="-2.4420204470739315"><ele>842.0</ele><time>2026-04-20T13:39:12Z</time></trkpt><trkpt lat="38.2275806470944" lon="-2.442210766661166"><ele>838.0</ele><time>2026-04-20T13:39:13Z</time></trkpt><trkpt lat="38.22755229777188" lon="-2.442385079565987"><ele>834.0</ele><time>2026-04-20T13:39:14Z</time></trkpt><trkpt lat="38.22751051643417" lon="-2.442551452535618"><ele>830.0</ele><time>2026-04-20T13:39:15Z</time></trkpt><trkpt lat="38.22746805157709" lon="-2.4427140299647725"><ele>830.0</ele><time>2026-04-20T13:39:16Z</time></trkpt><trkpt lat="38.22738974642832" lon="-2.4428529351317407"><ele>830.0</ele><time>2026-04-20T13:39:17Z</time></trkpt><trkpt lat="38.22727992736748" lon="-2.4429720914649886"><ele>830.0</ele><time>2026-04-20T13:39:18Z</time></trkpt><trkpt lat="38.22713904810365" lon="-2.443066986590449"><ele>830.0</ele><time>2026-04-20T13:39:19Z</time></trkpt><trkpt lat="38.2269870367166" lon="-2.4431561801256163"><ele>831.3333333333334</ele><time>2026-04-20T13:39:20Z</time></trkpt><trkpt lat="38.2268534071973" lon="-2.4433033590275413"><ele>832.6666666666667</ele><time>2026-04-20T13:39:21Z</time></trkpt><trkpt lat="38.226723741668394" lon="-2.4434677240944453"><ele>834.0</ele><time>2026-04-20T13:39:22Z</time></trkpt><trkpt lat="38.22657569287358" lon="-2.443621969357773"><ele>838.3333333333333</ele><time>2026-04-20T13:39:23Z</time></trkpt><trkpt lat="38.2264268167631" lon="-2.4437624022540714"><ele>842.6666666666666</ele><time>2026-04-20T13:39:24Z</time></trkpt><trkpt lat="38.2262863551415" lon="-2.4438994046491826"><ele>847.0</ele><time>2026-04-20T13:39:25Z</time></trkpt><trkpt lat="38.22616088242476" lon="-2.444034434198625"><ele>839.0</ele><time>2026-04-20T13:39:26Z</time></trkpt><trkpt lat="38.22605041608649" lon="-2.4441730178061816"><ele>831.0</ele><time>2026-04-20T13:39:27Z</time></trkpt><trkpt lat="38.22594171044913" lon="-2.4442966269651003"><ele>823.0</ele><time>2026-04-20T13:39:28Z</time></trkpt><trkpt lat="38.22584762145843" lon="-2.444399353700492"><ele>815.0</ele><time>2026-04-20T13:39:29Z</time></trkpt><trkpt lat="38.22574636280503" lon="-2.44447163506829"><ele>816.25</ele><time>2026-04-20T13:39:30Z</time></trkpt><trkpt lat="38.22563311721571" lon="-2.444513112281298"><ele>817.5</ele><time>2026-04-20T13:39:31Z</time></trkpt><trkpt lat="38.225503185333494" lon="-2.4444775061750694"><ele>818.75</ele><time>2026-04-20T13:39:32Z</time></trkpt><trkpt lat="38.22536147305787" lon="-2.444380314611265"><ele>820.0</ele><time>2026-04-20T13:39:33Z</time></trkpt><trkpt lat="38.2252238610233" lon="-2.4442869224242743"><ele>820.0</ele><time>2026-04-20T13:39:34Z</time></trkpt><trkpt lat="38.22510890175096" lon="-2.444209730532363"><ele>820.0</ele><time>2026-04-20T13:39:35Z</time></trkpt><trkpt lat="38.225004168106075" lon="-2.4441578727380175"><ele>820.0</ele><time>2026-04-20T13:39:36Z</time></trkpt><trkpt lat="38.22491245218904" lon="-2.4441494252248073"><ele>820.0</ele><time>2026-04-20T13:39:37Z</time></trkpt><trkpt lat="38.224834534268034" lon="-2.444183534273103"><ele>820.0</ele><time>2026-04-20T13:39:38Z</time></trkpt><trkpt lat="38.224777163537645" lon="-2.4442699966284254"><ele>821.75</ele><time>2026-04-20T13:39:39Z</time></trkpt><trkpt lat="38.224748146803584" lon="-2.444407811835846"><ele>823.5</ele><time>2026-04-20T13:39:40Z</time></trkpt><trkpt lat="38.224758692199636" lon="-2.44459797835372"><ele>825.25</ele><time>2026-04-20T13:39:41Z</time></trkpt><trkpt lat="38.224717021578826" lon="-2.444775080632469"><ele>827.0</ele><time>2026-04-20T13:39:42Z</time></trkpt><trkpt lat="38.224639776385345" lon="-2.4449655247493496"><ele>827.0</ele><time>2026-04-20T13:39:43Z</time></trkpt><trkpt lat="38.224535463005544" lon="-2.445166158792079"><ele>827.0</ele><time>2026-04-20T13:39:44Z</time></trkpt><trkpt lat="38.22443888264854" lon="-2.445369188636164"><ele>827.0</ele><time>2026-04-20T13:39:45Z</time></trkpt><trkpt lat="38.224367894941814" lon="-2.4455771719255712"><ele>820.0</ele><time>2026-04-20T13:39:46Z</time></trkpt><trkpt lat="38.2243167971301" lon="-2.4457727572125543"><ele>813.0</ele><time>2026-04-20T13:39:47Z</time></trkpt><trkpt lat="38.22426227390249" lon="-2.445975264784833"><ele>806.0</ele><time>2026-04-20T13:39:48Z</time></trkpt><trkpt lat="38.22420352274218" lon="-2.446137477482507"><ele>806.0</ele><time>2026-04-20T13:39:49Z</time></trkpt><trkpt lat="38.224126149723936" lon="-2.446268167917278"><ele>806.0</ele><time>2026-04-20T13:39:50Z</time></trkpt><trkpt lat="38.224026422022966" lon="-2.4463820691878992"><ele>806.0</ele><time>2026-04-20T13:39:51Z</time></trkpt><trkpt lat="38.22387518406605" lon="-2.446462465474011"><ele>806.0</ele><time>2026-04-20T13:39:52Z</time></trkpt><trkpt lat="38.22371583873254" lon="-2.4465228685518343"><ele>800.25</ele><time>2026-04-20T13:39:53Z</time></trkpt><trkpt lat="38.22356913031691" lon="-2.446584842533123"><ele>794.5</ele><time>2026-04-20T13:39:54Z</time></trkpt><trkpt lat="38.22344869800603" lon="-2.446655077907783"><ele>788.75</ele><time>2026-04-20T13:39:55Z</time></trkpt><trkpt lat="38.22332020908611" lon="-2.446692825875957"><ele>783.0</ele><time>2026-04-20T13:39:56Z</time></trkpt><trkpt lat="38.223188786159184" lon="-2.446708898263376"><ele>783.4</ele><time>2026-04-20T13:39:57Z</time></trkpt><trkpt lat="38.223069130501386" lon="-2.446732396552504"><ele>783.8</ele><time>2026-04-20T13:39:58Z</time></trkpt><trkpt lat="38.22295715615235" lon="-2.4467509178619453"><ele>784.2</ele><time>2026-04-20T13:39:59Z</time></trkpt><trkpt lat="38.222856356573125" lon="-2.4467772654228446"><ele>784.6</ele><time>2026-04-20T13:40:00Z</time></trkpt><trkpt lat="38.222755393279506" lon="-2.4467634612012668"><ele>785.0</ele><time>2026-04-20T13:40:01Z</time></trkpt><trkpt lat="38.22265604089578" lon="-2.4466898618649062"><ele>785.0</ele><time>2026-04-20T13:40:02Z</time></trkpt><trkpt lat="38.2225641109796" lon="-2.446587894369295"><ele>785.0</ele><time>2026-04-20T13:40:03Z</time></trkpt><trkpt lat="38.22249007483542" lon="-2.44650843520662"><ele>785.0</ele><time>2026-04-20T13:40:04Z</time></trkpt><trkpt lat="38.222417550343195" lon="-2.44644193473168"><ele>785.0</ele><time>2026-04-20T13:40:05Z</time></trkpt><trkpt lat="38.222348577068104" lon="-2.446395484550042"><ele>785.0</ele><time>2026-04-20T13:40:06Z</time></trkpt><trkpt lat="38.222265997805124" lon="-2.4464181332364685"><ele>791.25</ele><time>2026-04-20T13:40:07Z</time></trkpt><trkpt lat="38.22220589927851" lon="-2.4464907102088986"><ele>797.5</ele><time>2026-04-20T13:40:08Z</time></trkpt><trkpt lat="38.22218445657217" lon="-2.4466242764558928"><ele>803.75</ele><time>2026-04-20T13:40:09Z</time></trkpt><trkpt lat="38.2221718563859" lon="-2.446775644339182"><ele>810.0</ele><time>2026-04-20T13:40:10Z</time></trkpt><trkpt lat="38.22211628407667" lon="-2.446951701797065"><ele>802.3333333333333</ele><time>2026-04-20T13:40:11Z</time></trkpt><trkpt lat="38.22202734008681" lon="-2.4471362470173905"><ele>794.6666666666666</ele><time>2026-04-20T13:40:12Z</time></trkpt><trkpt lat="38.22196014836854" lon="-2.4473251436998513"><ele>787.0</ele><time>2026-04-20T13:40:13Z</time></trkpt><trkpt lat="38.221862126176575" lon="-2.4474733974458003"><ele>787.0</ele><time>2026-04-20T13:40:14Z</time></trkpt><trkpt lat="38.221760037507664" lon="-2.447624699454933"><ele>787.0</ele><time>2026-04-20T13:40:15Z</time></trkpt><trkpt lat="38.22164307947218" lon="-2.447757147293532"><ele>787.0</ele><time>2026-04-20T13:40:16Z</time></trkpt><trkpt lat="38.22154039606891" lon="-2.447897787747556"><ele>785.5</ele><time>2026-04-20T13:40:17Z</time></trkpt><trkpt lat="38.22145656510216" lon="-2.448034810463842"><ele>784.0</ele><time>2026-04-20T13:40:18Z</time></trkpt><trkpt lat="38.22138109668643" lon="-2.4481730664728243"><ele>782.5</ele><time>2026-04-20T13:40:19Z</time></trkpt><trkpt lat="38.221287661608486" lon="-2.4482905503453023"><ele>781.0</ele><time>2026-04-20T13:40:20Z</time></trkpt><trkpt lat="38.221157360202156" lon="-2.448380217064075"><ele>781.0</ele><time>2026-04-20T13:40:21Z</time></trkpt><trkpt lat="38.221007615809654" lon="-2.448454642072052"><ele>781.0</ele><time>2026-04-20T13:40:22Z</time></trkpt><trkpt lat="38.22086005697644" lon="-2.448538042902783"><ele>781.0</ele><time>2026-04-20T13:40:23Z</time></trkpt><trkpt lat="38.220728274203616" lon="-2.4486373822998653"><ele>780.5</ele><time>2026-04-20T13:40:24Z</time></trkpt><trkpt lat="38.22061723654599" lon="-2.448758915324154"><ele>780.0</ele><time>2026-04-20T13:40:25Z</time></trkpt><trkpt lat="38.220516494457726" lon="-2.448885807130847"><ele>779.5</ele><time>2026-04-20T13:40:26Z</time></trkpt><trkpt lat="38.22041317990239" lon="-2.44899858745044"><ele>779.0</ele><time>2026-04-20T13:40:27Z</time></trkpt><trkpt lat="38.2203161835755" lon="-2.449105681906648"><ele>779.0</ele><time>2026-04-20T13:40:28Z</time></trkpt><trkpt lat="38.2202325195085" lon="-2.4492316013075306"><ele>779.0</ele><time>2026-04-20T13:40:29Z</time></trkpt><trkpt lat="38.220159203700476" lon="-2.449358192095726"><ele>779.0</ele><time>2026-04-20T13:40:30Z</time></trkpt><trkpt lat="38.22008538281524" lon="-2.4494832351721065"><ele>779.0</ele><time>2026-04-20T13:40:31Z</time></trkpt><trkpt lat="38.220014992415074" lon="-2.449600470603943"><ele>780.0</ele><time>2026-04-20T13:40:32Z</time></trkpt><trkpt lat="38.219934703629626" lon="-2.4497268582555263"><ele>781.0</ele><time>2026-04-20T13:40:33Z</time></trkpt><trkpt lat="38.21984298839997" lon="-2.449837653603979"><ele>782.0</ele><time>2026-04-20T13:40:34Z</time></trkpt><trkpt lat="38.21974558746474" lon="-2.449924567288935"><ele>783.0</ele><time>2026-04-20T13:40:35Z</time></trkpt><trkpt lat="38.219641743451184" lon="-2.4500053449557804"><ele>783.0</ele><time>2026-04-20T13:40:36Z</time></trkpt><trkpt lat="38.21955843029972" lon="-2.4501053926074365"><ele>783.0</ele><time>2026-04-20T13:40:37Z</time></trkpt><trkpt lat="38.21953033006365" lon="-2.4502607431894035"><ele>783.0</ele><time>2026-04-20T13:40:38Z</time></trkpt><trkpt lat="38.21950967503746" lon="-2.450424955973835"><ele>783.0</ele><time>2026-04-20T13:40:39Z</time></trkpt><trkpt lat="38.21948664861186" lon="-2.4506245766851955"><ele>779.3333333333333</ele><time>2026-04-20T13:40:40Z</time></trkpt><trkpt lat="38.219454912716984" lon="-2.450826544447544"><ele>775.6666666666666</ele><time>2026-04-20T13:40:41Z</time></trkpt><trkpt lat="38.21944481681597" lon="-2.4510257262198363"><ele>772.0</ele><time>2026-04-20T13:40:42Z</time></trkpt><trkpt lat="38.2194396816068" lon="-2.451212908376818"><ele>768.75</ele><time>2026-04-20T13:40:43Z</time></trkpt><trkpt lat="38.21943369952436" lon="-2.4513842381264013"><ele>765.5</ele><time>2026-04-20T13:40:44Z</time></trkpt><trkpt lat="38.21941440150514" lon="-2.4515478517472626"><ele>762.25</ele><time>2026-04-20T13:40:45Z</time></trkpt><trkpt lat="38.21935460892285" lon="-2.4517143595724926"><ele>759.0</ele><time>2026-04-20T13:40:46Z</time></trkpt><trkpt lat="38.21929524660119" lon="-2.4518925608091218"><ele>759.0</ele><time>2026-04-20T13:40:47Z</time></trkpt><trkpt lat="38.21924004646349" lon="-2.4520638806938897"><ele>759.0</ele><time>2026-04-20T13:40:48Z</time></trkpt><trkpt lat="38.21917110718196" lon="-2.4522205503907504"><ele>759.0</ele><time>2026-04-20T13:40:49Z</time></trkpt><trkpt lat="38.21908099612286" lon="-2.452360446261457"><ele>759.0</ele><time>2026-04-20T13:40:50Z</time></trkpt><trkpt lat="38.21895727532047" lon="-2.452467893328472"><ele>758.25</ele><time>2026-04-20T13:40:51Z</time></trkpt><trkpt lat="38.21883201171343" lon="-2.4525648891626375"><ele>757.5</ele><time>2026-04-20T13:40:52Z</time></trkpt><trkpt lat="38.2187370597314" lon="-2.452705326846214"><ele>756.75</ele><time>2026-04-20T13:40:53Z</time></trkpt><trkpt lat="38.218644522779435" lon="-2.452827846385985"><ele>756.0</ele><time>2026-04-20T13:40:54Z</time></trkpt><trkpt lat="38.21857219885428" lon="-2.4529619834627447"><ele>750.75</ele><time>2026-04-20T13:40:55Z</time></trkpt><trkpt lat="38.21848451240699" lon="-2.4530724468981164"><ele>745.5</ele><time>2026-04-20T13:40:56Z</time></trkpt><trkpt lat="38.21837513061973" lon="-2.453153489956803"><ele>740.25</ele><time>2026-04-20T13:40:57Z</time></trkpt><trkpt lat="38.218244760973896" lon="-2.4531939064101427"><ele>735.0</ele><time>2026-04-20T13:40:58Z</time></trkpt><trkpt lat="38.21810962217613" lon="-2.4532126112373978"><ele>735.0</ele><time>2026-04-20T13:40:59Z</time></trkpt><trkpt lat="38.217955478862294" lon="-2.4532027427490064"><ele>735.0</ele><time>2026-04-20T13:41:00Z</time></trkpt><trkpt lat="38.21780931727692" lon="-2.453202231029352"><ele>735.0</ele><time>2026-04-20T13:41:01Z</time></trkpt><trkpt lat="38.2176729317492" lon="-2.4532273577723958"><ele>735.0</ele><time>2026-04-20T13:41:02Z</time></trkpt><trkpt lat="38.21755417141605" lon="-2.4532764041818766"><ele>735.0</ele><time>2026-04-20T13:41:03Z</time></trkpt><trkpt lat="38.21744854940487" lon="-2.453330807927357"><ele>735.0</ele><time>2026-04-20T13:41:04Z</time></trkpt><trkpt lat="38.21734799454427" lon="-2.4534006420233436"><ele>735.0</ele><time>2026-04-20T13:41:05Z</time></trkpt><trkpt lat="38.217257605622464" lon="-2.453496478843376"><ele>735.0</ele><time>2026-04-20T13:41:06Z</time></trkpt><trkpt lat="38.217180217693624" lon="-2.4535906977691235"><ele>734.2</ele><time>2026-04-20T13:41:07Z</time></trkpt><trkpt lat="38.21709625555348" lon="-2.453666451256671"><ele>733.4</ele><time>2026-04-20T13:41:08Z</time></trkpt><trkpt lat="38.21702156723052" lon="-2.453746514736088"><ele>732.5999999999999</ele><time>2026-04-20T13:41:09Z</time></trkpt><trkpt lat="38.21695083608633" lon="-2.4538209429645494"><ele>731.8</ele><time>2026-04-20T13:41:10Z</time></trkpt><trkpt lat="38.21687551277352" lon="-2.4538792644794514"><ele>731.0</ele><time>2026-04-20T13:41:11Z</time></trkpt><trkpt lat="38.21679047335871" lon="-2.4539333751792367"><ele>731.0</ele><time>2026-04-20T13:41:12Z</time></trkpt><trkpt lat="38.2166992248605" lon="-2.4539630003953583"><ele>731.0</ele><time>2026-04-20T13:41:13Z</time></trkpt><trkpt lat="38.216616105927734" lon="-2.4540261859147"><ele>731.0</ele><time>2026-04-20T13:41:14Z</time></trkpt><trkpt lat="38.216548189490794" lon="-2.454110126459129"><ele>731.0</ele><time>2026-04-20T13:41:15Z</time></trkpt><trkpt lat="38.216497237034126" lon="-2.45421305854533"><ele>731.0</ele><time>2026-04-20T13:41:16Z</time></trkpt><trkpt lat="38.21644603490909" lon="-2.454281035700148"><ele>732.5</ele><time>2026-04-20T13:41:17Z</time></trkpt><trkpt lat="38.2163874951273" lon="-2.4543256586783575"><ele>734.0</ele><time>2026-04-20T13:41:18Z</time></trkpt><trkpt lat="38.21619668833496" lon="-2.4545993234519363"><ele>735.5</ele><time>2026-04-20T13:41:21Z</time></trkpt><trkpt lat="38.216237618728876" lon="-2.454697991961716"><ele>737.0</ele><time>2026-04-20T13:41:23Z</time></trkpt><trkpt lat="38.216377111513104" lon="-2.454683270928679"><ele>740.0</ele><time>2026-04-20T13:41:26Z</time></trkpt><trkpt lat="38.21630716880675" lon="-2.454720323979682"><ele>743.0</ele><time>2026-04-20T13:41:27Z</time></trkpt><trkpt lat="38.21623678680895" lon="-2.454766031992246"><ele>746.0</ele><time>2026-04-20T13:41:28Z</time></trkpt><trkpt lat="38.21617367370988" lon="-2.454803154686292"><ele>749.0</ele><time>2026-04-20T13:41:29Z</time></trkpt><trkpt lat="38.216116548384086" lon="-2.4548381846825844"><ele>752.0</ele><time>2026-04-20T13:41:30Z</time></trkpt><trkpt lat="38.216058852485844" lon="-2.4548709472722963"><ele>755.0</ele><time>2026-04-20T13:41:31Z</time></trkpt><trkpt lat="38.21594572626717" lon="-2.454946110427178"><ele>755.0</ele><time>2026-04-20T13:41:33Z</time></trkpt><trkpt lat="38.21582938922468" lon="-2.45500436935079"><ele>755.0</ele><time>2026-04-20T13:41:35Z</time></trkpt><trkpt lat="38.215715137819075" lon="-2.4550575837639137"><ele>755.0</ele><time>2026-04-20T13:41:37Z</time></trkpt><trkpt lat="38.21564865858073" lon="-2.4550747700034363"><ele>755.0</ele><time>2026-04-20T13:41:38Z</time></trkpt><trkpt lat="38.21558027196748" lon="-2.4550948519247617"><ele>755.0</ele><time>2026-04-20T13:41:39Z</time></trkpt><trkpt lat="38.21550445103699" lon="-2.455119569274763"><ele>752.3333333333333</ele><time>2026-04-20T13:41:40Z</time></trkpt><trkpt lat="38.21541640647883" lon="-2.4551092654478066"><ele>749.6666666666666</ele><time>2026-04-20T13:41:41Z</time></trkpt><trkpt lat="38.21532532652701" lon="-2.455095804828093"><ele>747.0</ele><time>2026-04-20T13:41:42Z</time></trkpt><trkpt lat="38.21524950562352" lon="-2.4550622794196757"><ele>744.3333333333334</ele><time>2026-04-20T13:41:43Z</time></trkpt><trkpt lat="38.21517850923261" lon="-2.4550278650616786"><ele>741.6666666666667</ele><time>2026-04-20T13:41:44Z</time></trkpt><trkpt lat="38.215101168548834" lon="-2.455009315520246"><ele>739.0</ele><time>2026-04-20T13:41:45Z</time></trkpt><trkpt lat="38.215012914760194" lon="-2.455003654457256"><ele>739.0</ele><time>2026-04-20T13:41:46Z</time></trkpt><trkpt lat="38.214918568408116" lon="-2.455009925966767"><ele>739.0</ele><time>2026-04-20T13:41:47Z</time></trkpt><trkpt lat="38.214824623577" lon="-2.4550250466892365"><ele>739.0</ele><time>2026-04-20T13:41:48Z</time></trkpt><trkpt lat="38.21471488148711" lon="-2.455038585971312"><ele>739.0</ele><time>2026-04-20T13:41:49Z</time></trkpt><trkpt lat="38.21460367922651" lon="-2.455039531483337"><ele>739.0</ele><time>2026-04-20T13:41:50Z</time></trkpt><trkpt lat="38.21449921410467" lon="-2.4550438501982"><ele>738.6</ele><time>2026-04-20T13:41:51Z</time></trkpt><trkpt lat="38.21439867529894" lon="-2.455041906825594"><ele>738.2</ele><time>2026-04-20T13:41:52Z</time></trkpt><trkpt lat="38.214307775772575" lon="-2.4550370871095195"><ele>737.8000000000001</ele><time>2026-04-20T13:41:53Z</time></trkpt><trkpt lat="38.21422050961137" lon="-2.4550196782930223"><ele>737.4000000000001</ele><time>2026-04-20T13:41:54Z</time></trkpt><trkpt lat="38.214118340150726" lon="-2.4549740163416924"><ele>737.0</ele><time>2026-04-20T13:41:55Z</time></trkpt><trkpt lat="38.21400383941118" lon="-2.4549288223532617"><ele>737.75</ele><time>2026-04-20T13:41:56Z</time></trkpt><trkpt lat="38.21390652552029" lon="-2.454849747139333"><ele>738.5</ele><time>2026-04-20T13:41:57Z</time></trkpt><trkpt lat="38.21380559418901" lon="-2.4547652381908214"><ele>739.25</ele><time>2026-04-20T13:41:58Z</time></trkpt><trkpt lat="38.2137182651385" lon="-2.454675265645069"><ele>740.0</ele><time>2026-04-20T13:41:59Z</time></trkpt><trkpt lat="38.21363429405484" lon="-2.4545844108072816"><ele>740.0</ele><time>2026-04-20T13:42:00Z</time></trkpt><trkpt lat="38.213549501926614" lon="-2.4545079315496303"><ele>740.0</ele><time>2026-04-20T13:42:01Z</time></trkpt><trkpt lat="38.21348046613847" lon="-2.454410187829929"><ele>740.0</ele><time>2026-04-20T13:42:02Z</time></trkpt><trkpt lat="38.21342900156946" lon="-2.454318144080644"><ele>740.0</ele><time>2026-04-20T13:42:03Z</time></trkpt><trkpt lat="38.21336523982489" lon="-2.454236668650187"><ele>740.0</ele><time>2026-04-20T13:42:04Z</time></trkpt><trkpt lat="38.2132981031707" lon="-2.454167993862588"><ele>740.0</ele><time>2026-04-20T13:42:05Z</time></trkpt><trkpt lat="38.21321129512365" lon="-2.454090937503606"><ele>740.0</ele><time>2026-04-20T13:42:06Z</time></trkpt><trkpt lat="38.21312549301213" lon="-2.4539972007460658"><ele>740.0</ele><time>2026-04-20T13:42:07Z</time></trkpt><trkpt lat="38.213045103105" lon="-2.453929511863192"><ele>740.0</ele><time>2026-04-20T13:42:08Z</time></trkpt><trkpt lat="38.21298398473113" lon="-2.453861091870513"><ele>740.0</ele><time>2026-04-20T13:42:09Z</time></trkpt><trkpt lat="38.212926967153805" lon="-2.453779000782524"><ele>740.9999999999999</ele><time>2026-04-20T13:42:10Z</time></trkpt><trkpt lat="38.2128587463183" lon="-2.4537158073137033"><ele>742.0</ele><time>2026-04-20T13:42:11Z</time></trkpt><trkpt lat="38.212784860224744" lon="-2.45370460370679"><ele>743.0</ele><time>2026-04-20T13:42:12Z</time></trkpt><trkpt lat="38.212718230119975" lon="-2.4536806896556116"><ele>744.0</ele><time>2026-04-20T13:42:13Z</time></trkpt><trkpt lat="38.21264875589239" lon="-2.453730794046412"><ele>745.0</ele><time>2026-04-20T13:42:14Z</time></trkpt><trkpt lat="38.21257998823906" lon="-2.453751899964022"><ele>745.9999999999999</ele><time>2026-04-20T13:42:15Z</time></trkpt><trkpt lat="38.21252486051247" lon="-2.4537989641375018"><ele>747.0</ele><time>2026-04-20T13:42:16Z</time></trkpt><trkpt lat="38.21242298668886" lon="-2.4538662725924834"><ele>747.0</ele><time>2026-04-20T13:42:18Z</time></trkpt><trkpt lat="38.212342782003425" lon="-2.4539015670832374"><ele>747.0</ele><time>2026-04-20T13:42:20Z</time></trkpt><trkpt lat="38.2122825201088" lon="-2.453862793968049"><ele>747.0</ele><time>2026-04-20T13:42:22Z</time></trkpt><trkpt lat="38.21221227556848" lon="-2.4538257649887965"><ele>747.0</ele><time>2026-04-20T13:42:26Z</time></trkpt><trkpt lat="38.212121630745" lon="-2.4537949102642926"><ele>747.0</ele><time>2026-04-20T13:42:28Z</time></trkpt><trkpt lat="38.212060227483306" lon="-2.453821390121051"><ele>747.0</ele><time>2026-04-20T13:42:29Z</time></trkpt><trkpt lat="38.212007654539555" lon="-2.4538935460073614"><ele>745.4000000000001</ele><time>2026-04-20T13:42:30Z</time></trkpt><trkpt lat="38.21197149254995" lon="-2.454012038132892"><ele>743.8000000000001</ele><time>2026-04-20T13:42:31Z</time></trkpt><trkpt lat="38.211928239345596" lon="-2.4541281636945773"><ele>742.2</ele><time>2026-04-20T13:42:32Z</time></trkpt><trkpt lat="38.21188732334527" lon="-2.454206566150941"><ele>740.6</ele><time>2026-04-20T13:42:33Z</time></trkpt><trkpt lat="38.21180955963575" lon="-2.4542799226919128"><ele>739.0</ele><time>2026-04-20T13:42:34Z</time></trkpt><trkpt lat="38.21173749283976" lon="-2.4543456490486477"><ele>739.0</ele><time>2026-04-20T13:42:35Z</time></trkpt><trkpt lat="38.21165041884295" lon="-2.454397944423144"><ele>739.0</ele><time>2026-04-20T13:42:36Z</time></trkpt><trkpt lat="38.21156853003964" lon="-2.454427101040322"><ele>739.0</ele><time>2026-04-20T13:42:37Z</time></trkpt><trkpt lat="38.211476172368855" lon="-2.454443419636874"><ele>739.0</ele><time>2026-04-20T13:42:38Z</time></trkpt><trkpt lat="38.211374878063125" lon="-2.454426852062512"><ele>739.0</ele><time>2026-04-20T13:42:39Z</time></trkpt><trkpt lat="38.21127842965666" lon="-2.4544255869798324"><ele>741.0</ele><time>2026-04-20T13:42:40Z</time></trkpt><trkpt lat="38.211182854645074" lon="-2.4543938348357157"><ele>743.0</ele><time>2026-04-20T13:42:41Z</time></trkpt><trkpt lat="38.21108411815089" lon="-2.4543640407792173"><ele>745.0</ele><time>2026-04-20T13:42:42Z</time></trkpt><trkpt lat="38.21098669462876" lon="-2.4543303327797394"><ele>747.0</ele><time>2026-04-20T13:42:43Z</time></trkpt><trkpt lat="38.21088339440067" lon="-2.4542902740800945"><ele>749.0</ele><time>2026-04-20T13:42:44Z</time></trkpt><trkpt lat="38.21077744418625" lon="-2.4542399667387675"><ele>749.0</ele><time>2026-04-20T13:42:45Z</time></trkpt><trkpt lat="38.210663401694234" lon="-2.454184695384313"><ele>749.0</ele><time>2026-04-20T13:42:46Z</time></trkpt><trkpt lat="38.21055133234809" lon="-2.454113146842181"><ele>749.0</ele><time>2026-04-20T13:42:47Z</time></trkpt><trkpt lat="38.210452613213945" lon="-2.4540125641842696"><ele>749.0</ele><time>2026-04-20T13:42:48Z</time></trkpt><trkpt lat="38.210346801550244" lon="-2.45394222329987"><ele>747.75</ele><time>2026-04-20T13:42:49Z</time></trkpt><trkpt lat="38.210244884778874" lon="-2.453839826222529"><ele>746.5</ele><time>2026-04-20T13:42:50Z</time></trkpt><trkpt lat="38.21012814710791" lon="-2.4537603777955472"><ele>745.25</ele><time>2026-04-20T13:42:51Z</time></trkpt><trkpt lat="38.21002043570915" lon="-2.453660136405656"><ele>744.0</ele><time>2026-04-20T13:42:52Z</time></trkpt><trkpt lat="38.20993068922897" lon="-2.4535339371032276"><ele>744.0</ele><time>2026-04-20T13:42:53Z</time></trkpt><trkpt lat="38.20984222995893" lon="-2.453397493128972"><ele>744.0</ele><time>2026-04-20T13:42:54Z</time></trkpt><trkpt lat="38.20974123129781" lon="-2.4532890341208065"><ele>744.0</ele><time>2026-04-20T13:42:55Z</time></trkpt><trkpt lat="38.20961177510612" lon="-2.453271686667833"><ele>744.0</ele><time>2026-04-20T13:42:56Z</time></trkpt><trkpt lat="38.20949626537576" lon="-2.4532117488041716"><ele>744.25</ele><time>2026-04-20T13:42:56.999Z</time></trkpt><trkpt lat="38.20937538534894" lon="-2.45313725132125"><ele>744.5</ele><time>2026-04-20T13:42:58Z</time></trkpt><trkpt lat="38.209272697128704" lon="-2.453016299568387"><ele>744.75</ele><time>2026-04-20T13:42:58.999Z</time></trkpt><trkpt lat="38.20917414139668" lon="-2.4528905742161977"><ele>745.0</ele><time>2026-04-20T13:42:59.999Z</time></trkpt><trkpt lat="38.209079805937044" lon="-2.4527718123772955"><ele>745.0</ele><time>2026-04-20T13:43:00.999Z</time></trkpt><trkpt lat="38.20900090580565" lon="-2.4526683555389823"><ele>745.0</ele><time>2026-04-20T13:43:01.999Z</time></trkpt><trkpt lat="38.20890541084293" lon="-2.4525913083470448"><ele>745.0</ele><time>2026-04-20T13:43:02.999Z</time></trkpt><trkpt lat="38.20880552992432" lon="-2.4525177174283357"><ele>745.0</ele><time>2026-04-20T13:43:04Z</time></trkpt><trkpt lat="38.208705893618905" lon="-2.452427085808997"><ele>748.25</ele><time>2026-04-20T13:43:05Z</time></trkpt><trkpt lat="38.20861029692029" lon="-2.4523360966527736"><ele>751.5</ele><time>2026-04-20T13:43:06Z</time></trkpt><trkpt lat="38.208514678097096" lon="-2.4522169645016225"><ele>754.75</ele><time>2026-04-20T13:43:07Z</time></trkpt><trkpt lat="38.20842262407867" lon="-2.4520864610347495"><ele>758.0</ele><time>2026-04-20T13:43:08Z</time></trkpt><trkpt lat="38.20834697521125" lon="-2.451956002834298"><ele>758.0</ele><time>2026-04-20T13:43:09Z</time></trkpt><trkpt lat="38.208260990546826" lon="-2.45184992651905"><ele>758.0</ele><time>2026-04-20T13:43:10Z</time></trkpt><trkpt lat="38.208189412045876" lon="-2.4517473378278214"><ele>758.0</ele><time>2026-04-20T13:43:11Z</time></trkpt><trkpt lat="38.20813425979624" lon="-2.4516409303477262"><ele>758.0</ele><time>2026-04-20T13:43:12Z</time></trkpt><trkpt lat="38.20809500612953" lon="-2.4515197472274846"><ele>758.0</ele><time>2026-04-20T13:43:13Z</time></trkpt><trkpt lat="38.2080870689645" lon="-2.451375075798272"><ele>766.25</ele><time>2026-04-20T13:43:14Z</time></trkpt><trkpt lat="38.20806812139805" lon="-2.451210916679179"><ele>774.5</ele><time>2026-04-20T13:43:15Z</time></trkpt><trkpt lat="38.20803259027126" lon="-2.451050341314384"><ele>782.75</ele><time>2026-04-20T13:43:16Z</time></trkpt><trkpt lat="38.207959156808556" lon="-2.4509043273560587"><ele>791.0</ele><time>2026-04-20T13:43:17Z</time></trkpt><trkpt lat="38.20788809509725" lon="-2.4507719588116883"><ele>791.0</ele><time>2026-04-20T13:43:18Z</time></trkpt><trkpt lat="38.20782787424314" lon="-2.4506601876218173"><ele>791.0</ele><time>2026-04-20T13:43:19Z</time></trkpt><trkpt lat="38.20777273101911" lon="-2.4505496592580625"><ele>791.0</ele><time>2026-04-20T13:43:20Z</time></trkpt><trkpt lat="38.20774172421727" lon="-2.4504143283175623"><ele>791.0</ele><time>2026-04-20T13:43:21Z</time></trkpt><trkpt lat="38.20769860666371" lon="-2.4502794858210986"><ele>791.0</ele><time>2026-04-20T13:43:22Z</time></trkpt><trkpt lat="38.20766707406738" lon="-2.4501321802424005"><ele>788.25</ele><time>2026-04-20T13:43:23Z</time></trkpt><trkpt lat="38.20763432336263" lon="-2.449979184290925"><ele>785.5</ele><time>2026-04-20T13:43:24Z</time></trkpt><trkpt lat="38.20761434290537" lon="-2.4498179257649464"><ele>782.75</ele><time>2026-04-20T13:43:25Z</time></trkpt><trkpt lat="38.20759591732928" lon="-2.449655086206173"><ele>780.0</ele><time>2026-04-20T13:43:26Z</time></trkpt><trkpt lat="38.20758997613805" lon="-2.449484497089719"><ele>780.0</ele><time>2026-04-20T13:43:27Z</time></trkpt><trkpt lat="38.20754157755051" lon="-2.44932807859472"><ele>780.0</ele><time>2026-04-20T13:43:28Z</time></trkpt><trkpt lat="38.20749863647958" lon="-2.449175677724577"><ele>780.0</ele><time>2026-04-20T13:43:29Z</time></trkpt><trkpt lat="38.20746516198419" lon="-2.4490374662824896"><ele>780.0</ele><time>2026-04-20T13:43:30Z</time></trkpt><trkpt lat="38.2074297090769" lon="-2.448904650077334"><ele>778.5</ele><time>2026-04-20T13:43:31Z</time></trkpt><trkpt lat="38.20739164515528" lon="-2.4487679153323723"><ele>777.0</ele><time>2026-04-20T13:43:32Z</time></trkpt><trkpt lat="38.20735780158331" lon="-2.4486283494473002"><ele>775.5</ele><time>2026-04-20T13:43:33Z</time></trkpt><trkpt lat="38.207311077952745" lon="-2.448496056407529"><ele>774.0</ele><time>2026-04-20T13:43:34Z</time></trkpt><trkpt lat="38.207258834443934" lon="-2.4483623856694763"><ele>777.5</ele><time>2026-04-20T13:43:35Z</time></trkpt><trkpt lat="38.207220378798894" lon="-2.448222477005328"><ele>781.0</ele><time>2026-04-20T13:43:36Z</time></trkpt><trkpt lat="38.207178023300486" lon="-2.448077995719686"><ele>784.5</ele><time>2026-04-20T13:43:37Z</time></trkpt><trkpt lat="38.20712524270956" lon="-2.4479345312520424"><ele>788.0</ele><time>2026-04-20T13:43:38Z</time></trkpt><trkpt lat="38.20706458848166" lon="-2.447832199176397"><ele>788.0</ele><time>2026-04-20T13:43:39Z</time></trkpt><trkpt lat="38.20697420215269" lon="-2.4477513365688917"><ele>788.0</ele><time>2026-04-20T13:43:40Z</time></trkpt><trkpt lat="38.20684892441962" lon="-2.447690589569513"><ele>788.0</ele><time>2026-04-20T13:43:41Z</time></trkpt><trkpt lat="38.20670973238503" lon="-2.4476082270673367"><ele>788.0</ele><time>2026-04-20T13:43:42Z</time></trkpt><trkpt lat="38.20658007776524" lon="-2.447504573845908"><ele>789.25</ele><time>2026-04-20T13:43:43Z</time></trkpt><trkpt lat="38.20648493297695" lon="-2.447371442028872"><ele>790.5</ele><time>2026-04-20T13:43:44Z</time></trkpt><trkpt lat="38.20639138263719" lon="-2.4472514068442632"><ele>791.75</ele><time>2026-04-20T13:43:45Z</time></trkpt><trkpt lat="38.206293248760154" lon="-2.4471655821152476"><ele>793.0</ele><time>2026-04-20T13:43:46Z</time></trkpt><trkpt lat="38.20619635386063" lon="-2.4471022122048423"><ele>793.0</ele><time>2026-04-20T13:43:47Z</time></trkpt><trkpt lat="38.20609797576808" lon="-2.4470586443417752"><ele>793.0</ele><time>2026-04-20T13:43:48Z</time></trkpt><trkpt lat="38.205995782498924" lon="-2.4470210593837876"><ele>793.0</ele><time>2026-04-20T13:43:49Z</time></trkpt><trkpt lat="38.20587515477889" lon="-2.4469852509092216"><ele>793.0</ele><time>2026-04-20T13:43:50Z</time></trkpt><trkpt lat="38.20577599244712" lon="-2.446960530428017"><ele>793.0</ele><time>2026-04-20T13:43:51Z</time></trkpt><trkpt lat="38.20566056199415" lon="-2.4469456194133032"><ele>796.5999999999999</ele><time>2026-04-20T13:43:52Z</time></trkpt><trkpt lat="38.205545622344644" lon="-2.446935021521445"><ele>800.1999999999999</ele><time>2026-04-20T13:43:53Z</time></trkpt><trkpt lat="38.205443858445754" lon="-2.446902992711128"><ele>803.8</ele><time>2026-04-20T13:43:54Z</time></trkpt><trkpt lat="38.20534543653546" lon="-2.4468601201983113"><ele>807.4</ele><time>2026-04-20T13:43:55Z</time></trkpt><trkpt lat="38.20524787832444" lon="-2.4468112592855724"><ele>811.0</ele><time>2026-04-20T13:43:56Z</time></trkpt><trkpt lat="38.20515650021338" lon="-2.4467417941645877"><ele>811.0</ele><time>2026-04-20T13:43:57Z</time></trkpt><trkpt lat="38.205062081922065" lon="-2.4466931732378843"><ele>811.0</ele><time>2026-04-20T13:43:58Z</time></trkpt><trkpt lat="38.20497330098973" lon="-2.446627488714116"><ele>811.0</ele><time>2026-04-20T13:43:59Z</time></trkpt><trkpt lat="38.20487186871215" lon="-2.4465772164791315"><ele>811.0</ele><time>2026-04-20T13:44:00Z</time></trkpt><trkpt lat="38.20475604327396" lon="-2.4465453540895457"><ele>811.0</ele><time>2026-04-20T13:44:01Z</time></trkpt><trkpt lat="38.20464106772948" lon="-2.4464949286755573"><ele>810.75</ele><time>2026-04-20T13:44:02Z</time></trkpt><trkpt lat="38.204525102905926" lon="-2.446489817463947"><ele>810.5</ele><time>2026-04-20T13:44:03Z</time></trkpt><trkpt lat="38.204416686057435" lon="-2.4465441630829976"><ele>810.25</ele><time>2026-04-20T13:44:04Z</time></trkpt><trkpt lat="38.20430545963157" lon="-2.446561953211089"><ele>810.0</ele><time>2026-04-20T13:44:05Z</time></trkpt><trkpt lat="38.204195659478955" lon="-2.446596580922702"><ele>810.0</ele><time>2026-04-20T13:44:06Z</time></trkpt><trkpt lat="38.20409083315762" lon="-2.4466220973816926"><ele>810.0</ele><time>2026-04-20T13:44:07Z</time></trkpt><trkpt lat="38.20399680572914" lon="-2.446652705300455"><ele>810.0</ele><time>2026-04-20T13:44:08Z</time></trkpt><trkpt lat="38.2039084803737" lon="-2.4466733293597"><ele>810.0</ele><time>2026-04-20T13:44:09Z</time></trkpt><trkpt lat="38.20382006867171" lon="-2.4466856138413995"><ele>810.0</ele><time>2026-04-20T13:44:10Z</time></trkpt><trkpt lat="38.203728790392006" lon="-2.4466881585562046"><ele>809.0</ele><time>2026-04-20T13:44:11Z</time></trkpt><trkpt lat="38.203638747464254" lon="-2.4466707309335054"><ele>808.0</ele><time>2026-04-20T13:44:12Z</time></trkpt><trkpt lat="38.203537311183865" lon="-2.446649500937958"><ele>807.0</ele><time>2026-04-20T13:44:13Z</time></trkpt><trkpt lat="38.20343969430584" lon="-2.4466541695871618"><ele>806.0</ele><time>2026-04-20T13:44:14Z</time></trkpt><trkpt lat="38.20334595874194" lon="-2.4466482163814454"><ele>805.0</ele><time>2026-04-20T13:44:15Z</time></trkpt><trkpt lat="38.20325209653206" lon="-2.446642414829527"><ele>807.2</ele><time>2026-04-20T13:44:16Z</time></trkpt><trkpt lat="38.20315355342969" lon="-2.446647306422323"><ele>809.4</ele><time>2026-04-20T13:44:17Z</time></trkpt><trkpt lat="38.203048204365246" lon="-2.4466383286132674"><ele>811.5999999999999</ele><time>2026-04-20T13:44:18Z</time></trkpt><trkpt lat="38.202937077308064" lon="-2.446608712668669"><ele>813.8</ele><time>2026-04-20T13:44:19Z</time></trkpt><trkpt lat="38.20283409890157" lon="-2.4465696628726654"><ele>816.0</ele><time>2026-04-20T13:44:20Z</time></trkpt><trkpt lat="38.20272879775584" lon="-2.44652615099505"><ele>816.0</ele><time>2026-04-20T13:44:21Z</time></trkpt><trkpt lat="38.202615735483796" lon="-2.4465346193869486"><ele>816.0</ele><time>2026-04-20T13:44:22Z</time></trkpt><trkpt lat="38.2025009785888" lon="-2.446522907553245"><ele>816.0</ele><time>2026-04-20T13:44:23Z</time></trkpt><trkpt lat="38.20238511826332" lon="-2.4465359386507286"><ele>816.0</ele><time>2026-04-20T13:44:24Z</time></trkpt><trkpt lat="38.20226047676696" lon="-2.4465459743194224"><ele>821.0</ele><time>2026-04-20T13:44:25Z</time></trkpt><trkpt lat="38.20213749493501" lon="-2.4465404030665665"><ele>826.0</ele><time>2026-04-20T13:44:26Z</time></trkpt><trkpt lat="38.202018166538544" lon="-2.446543691393721"><ele>831.0</ele><time>2026-04-20T13:44:27Z</time></trkpt><trkpt lat="38.20190903525724" lon="-2.446546453329344"><ele>836.0</ele><time>2026-04-20T13:44:28Z</time></trkpt><trkpt lat="38.20180978552148" lon="-2.446564490159275"><ele>836.0</ele><time>2026-04-20T13:44:29Z</time></trkpt><trkpt lat="38.20171973765152" lon="-2.446557833180167"><ele>836.0</ele><time>2026-04-20T13:44:30Z</time></trkpt><trkpt lat="38.20162460910431" lon="-2.4465549597968352"><ele>836.0</ele><time>2026-04-20T13:44:31Z</time></trkpt><trkpt lat="38.20152558848267" lon="-2.446558365278254"><ele>836.0</ele><time>2026-04-20T13:44:32Z</time></trkpt><trkpt lat="38.201427003439505" lon="-2.446583282858284"><ele>836.0</ele><time>2026-04-20T13:44:33Z</time></trkpt><trkpt lat="38.20135649291837" lon="-2.4465974738343395"><ele>835.3333333333334</ele><time>2026-04-20T13:44:34Z</time></trkpt><trkpt lat="38.20127776214404" lon="-2.4466165542739025"><ele>834.6666666666667</ele><time>2026-04-20T13:44:35Z</time></trkpt><trkpt lat="38.201184906003704" lon="-2.446605620649281"><ele>834.0</ele><time>2026-04-20T13:44:36Z</time></trkpt><trkpt lat="38.201093665904594" lon="-2.4465758102743433"><ele>833.3333333333333</ele><time>2026-04-20T13:44:37Z</time></trkpt><trkpt lat="38.20100570711588" lon="-2.4465367359721006"><ele>832.6666666666666</ele><time>2026-04-20T13:44:38Z</time></trkpt><trkpt lat="38.20093074751065" lon="-2.4465009640805135"><ele>832.0</ele><time>2026-04-20T13:44:39Z</time></trkpt><trkpt lat="38.2008544632584" lon="-2.4464797776154086"><ele>832.0</ele><time>2026-04-20T13:44:40Z</time></trkpt><trkpt lat="38.20077442820631" lon="-2.4464557553785116"><ele>832.0</ele><time>2026-04-20T13:44:41Z</time></trkpt><trkpt lat="38.200690276456676" lon="-2.4464181202501862"><ele>832.0</ele><time>2026-04-20T13:44:42Z</time></trkpt><trkpt lat="38.200596533017325" lon="-2.446419444051813"><ele>832.0</ele><time>2026-04-20T13:44:43Z</time></trkpt><trkpt lat="38.20050139718501" lon="-2.4463887425899635"><ele>832.0</ele><time>2026-04-20T13:44:44Z</time></trkpt><trkpt lat="38.20038005373552" lon="-2.4463506367025456"><ele>831.4000000000001</ele><time>2026-04-20T13:44:45Z</time></trkpt><trkpt lat="38.2002718570763" lon="-2.44632400993211"><ele>830.8000000000001</ele><time>2026-04-20T13:44:46Z</time></trkpt><trkpt lat="38.20015723314129" lon="-2.4463130957045847"><ele>830.2</ele><time>2026-04-20T13:44:47Z</time></trkpt><trkpt lat="38.20005184038781" lon="-2.4463006932714095"><ele>829.6</ele><time>2026-04-20T13:44:48Z</time></trkpt><trkpt lat="38.19995111461241" lon="-2.4463159465054836"><ele>829.0</ele><time>2026-04-20T13:44:49Z</time></trkpt><trkpt lat="38.19984569982271" lon="-2.4463307962944225"><ele>828.0</ele><time>2026-04-20T13:44:50Z</time></trkpt><trkpt lat="38.199743608287434" lon="-2.4463658541887883"><ele>827.0</ele><time>2026-04-20T13:44:51Z</time></trkpt><trkpt lat="38.19964333776424" lon="-2.4464156751127693"><ele>826.0</ele><time>2026-04-20T13:44:52Z</time></trkpt><trkpt lat="38.19952899769954" lon="-2.446465191337298"><ele>825.0</ele><time>2026-04-20T13:44:53Z</time></trkpt><trkpt lat="38.19942170702405" lon="-2.4465403788083093"><ele>825.0</ele><time>2026-04-20T13:44:54Z</time></trkpt><trkpt lat="38.19930879787587" lon="-2.44659587429001"><ele>825.0</ele><time>2026-04-20T13:44:55Z</time></trkpt><trkpt lat="38.19919144175905" lon="-2.4466205125983507"><ele>825.0</ele><time>2026-04-20T13:44:55.999Z</time></trkpt><trkpt lat="38.1990698804277" lon="-2.4466211935028688"><ele>825.0</ele><time>2026-04-20T13:44:56.999Z</time></trkpt><trkpt lat="38.19894144988652" lon="-2.446618525820302"><ele>822.25</ele><time>2026-04-20T13:44:57.999Z</time></trkpt><trkpt lat="38.198818649432745" lon="-2.4466101654280243"><ele>819.5</ele><time>2026-04-20T13:44:58.999Z</time></trkpt><trkpt lat="38.19870344774905" lon="-2.4466241427774604"><ele>816.75</ele><time>2026-04-20T13:44:59.999Z</time></trkpt><trkpt lat="38.1985917818588" lon="-2.4466731104276005"><ele>814.0</ele><time>2026-04-20T13:45:00.999Z</time></trkpt><trkpt lat="38.19849565003478" lon="-2.4467672134961354"><ele>814.0</ele><time>2026-04-20T13:45:01.999Z</time></trkpt><trkpt lat="38.19842177671674" lon="-2.4468886186919883"><ele>814.0</ele><time>2026-04-20T13:45:02.999Z</time></trkpt><trkpt lat="38.19833580528917" lon="-2.4469981327883166"><ele>814.0</ele><time>2026-04-20T13:45:03.999Z</time></trkpt><trkpt lat="38.198246144063525" lon="-2.447098181115566"><ele>814.0</ele><time>2026-04-20T13:45:04.999Z</time></trkpt><trkpt lat="38.19816077483927" lon="-2.4472047267676684"><ele>822.25</ele><time>2026-04-20T13:45:05.999Z</time></trkpt><trkpt lat="38.198055981723" lon="-2.4472925286447813"><ele>830.5</ele><time>2026-04-20T13:45:06.999Z</time></trkpt><trkpt lat="38.19793591641384" lon="-2.447352052805456"><ele>838.75</ele><time>2026-04-20T13:45:07.999Z</time></trkpt><trkpt lat="38.19780640423033" lon="-2.4473814997912404"><ele>847.0</ele><time>2026-04-20T13:45:08.999Z</time></trkpt><trkpt lat="38.19768096292915" lon="-2.44739933343579"><ele>847.0</ele><time>2026-04-20T13:45:09.999Z</time></trkpt><trkpt lat="38.19755901302831" lon="-2.4474192721287293"><ele>847.0</ele><time>2026-04-20T13:45:10.999Z</time></trkpt><trkpt lat="38.19744574461093" lon="-2.447444510319001"><ele>847.0</ele><time>2026-04-20T13:45:11.999Z</time></trkpt><trkpt lat="38.19733017962388" lon="-2.4474414658217816"><ele>847.0</ele><time>2026-04-20T13:45:12.999Z</time></trkpt><trkpt lat="38.19721104342316" lon="-2.4474191668232828"><ele>847.25</ele><time>2026-04-20T13:45:13.999Z</time></trkpt><trkpt lat="38.19709577771251" lon="-2.4473966827002216"><ele>847.5</ele><time>2026-04-20T13:45:14.999Z</time></trkpt><trkpt lat="38.19697076816632" lon="-2.44738895739479"><ele>847.75</ele><time>2026-04-20T13:45:15.999Z</time></trkpt><trkpt lat="38.19684813514043" lon="-2.447377268409427"><ele>848.0</ele><time>2026-04-20T13:45:16.999Z</time></trkpt><trkpt lat="38.19672674673331" lon="-2.447375242143553"><ele>848.0</ele><time>2026-04-20T13:45:17.999Z</time></trkpt><trkpt lat="38.19660348567223" lon="-2.4473531565868174"><ele>848.0</ele><time>2026-04-20T13:45:18.999Z</time></trkpt><trkpt lat="38.19648310209304" lon="-2.4473667027684627"><ele>848.0</ele><time>2026-04-20T13:45:19.999Z</time></trkpt><trkpt lat="38.19636065160197" lon="-2.4473853511705626"><ele>848.0</ele><time>2026-04-20T13:45:20.999Z</time></trkpt><trkpt lat="38.19624115845252" lon="-2.447416784766904"><ele>847.2</ele><time>2026-04-20T13:45:21.999Z</time></trkpt><trkpt lat="38.19613754036438" lon="-2.447508081670293"><ele>846.4</ele><time>2026-04-20T13:45:22.999Z</time></trkpt><trkpt lat="38.19604242782162" lon="-2.4475582089668246"><ele>845.6</ele><time>2026-04-20T13:45:24Z</time></trkpt><trkpt lat="38.195962286039354" lon="-2.4476097183100807"><ele>844.8000000000001</ele><time>2026-04-20T13:45:25Z</time></trkpt><trkpt lat="38.19589314900319" lon="-2.447633201592713"><ele>844.0</ele><time>2026-04-20T13:45:26Z</time></trkpt><trkpt lat="38.195830000257025" lon="-2.4476507726500056"><ele>843.9999999999999</ele><time>2026-04-20T13:45:27Z</time></trkpt><trkpt lat="38.19571967321146" lon="-2.447604974350135"><ele>844.0</ele><time>2026-04-20T13:45:29Z</time></trkpt><trkpt lat="38.195663945893926" lon="-2.4475654164126697"><ele>844.0</ele><time>2026-04-20T13:45:30Z</time></trkpt><trkpt lat="38.19556408397067" lon="-2.4475445486967202"><ele>844.0</ele><time>2026-04-20T13:45:32Z</time></trkpt><trkpt lat="38.1954900940629" lon="-2.447579970713126"><ele>843.9999999999999</ele><time>2026-04-20T13:45:34Z</time></trkpt><trkpt lat="38.19540984418946" lon="-2.447628970318835"><ele>844.0</ele><time>2026-04-20T13:45:37Z</time></trkpt><trkpt lat="38.19531074949542" lon="-2.4476523090604894"><ele>844.8571428571429</ele><time>2026-04-20T13:45:39Z</time></trkpt><trkpt lat="38.19524220302547" lon="-2.4476334157072013"><ele>845.7142857142858</ele><time>2026-04-20T13:45:40Z</time></trkpt><trkpt lat="38.195180412975866" lon="-2.447589883693734"><ele>846.5714285714286</ele><time>2026-04-20T13:45:41Z</time></trkpt><trkpt lat="38.19510852839353" lon="-2.4475532752119045"><ele>847.4285714285714</ele><time>2026-04-20T13:45:42Z</time></trkpt><trkpt lat="38.19506754299871" lon="-2.4474873655221865"><ele>848.2857142857142</ele><time>2026-04-20T13:45:43Z</time></trkpt><trkpt lat="38.195012354723914" lon="-2.4474311114904417"><ele>849.1428571428571</ele><time>2026-04-20T13:45:44Z</time></trkpt><trkpt lat="38.194941118260274" lon="-2.4474018233831227"><ele>850.0</ele><time>2026-04-20T13:45:45Z</time></trkpt><trkpt lat="38.19488456129597" lon="-2.4473504641676103"><ele>850.4285714285714</ele><time>2026-04-20T13:45:46Z</time></trkpt><trkpt lat="38.194833203087875" lon="-2.447298935069923"><ele>850.8571428571429</ele><time>2026-04-20T13:45:47Z</time></trkpt><trkpt lat="38.194781632955326" lon="-2.4472447748629524"><ele>851.2857142857142</ele><time>2026-04-20T13:45:48Z</time></trkpt><trkpt lat="38.19473182051414" lon="-2.447188958957838"><ele>851.7142857142858</ele><time>2026-04-20T13:45:49Z</time></trkpt><trkpt lat="38.1946791909263" lon="-2.4471230696180712"><ele>852.1428571428572</ele><time>2026-04-20T13:45:50Z</time></trkpt><trkpt lat="38.194638040538834" lon="-2.4470303653830237"><ele>852.5714285714286</ele><time>2026-04-20T13:45:51Z</time></trkpt><trkpt lat="38.19459195952159" lon="-2.4469526442932237"><ele>853.0</ele><time>2026-04-20T13:45:52Z</time></trkpt><trkpt lat="38.19455432113232" lon="-2.44688543480554"><ele>853.0</ele><time>2026-04-20T13:45:53Z</time></trkpt><trkpt lat="38.19449915362792" lon="-2.446757971380551"><ele>853.0</ele><time>2026-04-20T13:45:55Z</time></trkpt><trkpt lat="38.19445482003894" lon="-2.446694059039337"><ele>853.0</ele><time>2026-04-20T13:45:56Z</time></trkpt><trkpt lat="38.19439753294061" lon="-2.446624332249284"><ele>853.0</ele><time>2026-04-20T13:45:57Z</time></trkpt><trkpt lat="38.19432510238068" lon="-2.4465471129315146"><ele>853.0</ele><time>2026-04-20T13:45:58Z</time></trkpt><trkpt lat="38.194241436350566" lon="-2.446466214826114"><ele>853.0</ele><time>2026-04-20T13:45:59Z</time></trkpt><trkpt lat="38.194162295188235" lon="-2.446402962503185"><ele>853.0</ele><time>2026-04-20T13:46:00Z</time></trkpt><trkpt lat="38.1940735927717" lon="-2.446380654932956"><ele>853.0</ele><time>2026-04-20T13:46:01Z</time></trkpt><trkpt lat="38.19399337771997" lon="-2.4463474737951505"><ele>853.0</ele><time>2026-04-20T13:46:02Z</time></trkpt><trkpt lat="38.19390480376376" lon="-2.4462992087234325"><ele>853.0</ele><time>2026-04-20T13:46:03Z</time></trkpt><trkpt lat="38.193816528458186" lon="-2.446288819342326"><ele>855.4</ele><time>2026-04-20T13:46:04Z</time></trkpt><trkpt lat="38.193722517416354" lon="-2.446306182628301"><ele>857.8</ele><time>2026-04-20T13:46:05Z</time></trkpt><trkpt lat="38.193625987223925" lon="-2.446347105807667"><ele>860.2</ele><time>2026-04-20T13:46:06Z</time></trkpt><trkpt lat="38.193520396065566" lon="-2.4464053778679093"><ele>862.6</ele><time>2026-04-20T13:46:07Z</time></trkpt><trkpt lat="38.19342161593998" lon="-2.4464830253190972"><ele>865.0</ele><time>2026-04-20T13:46:08Z</time></trkpt><trkpt lat="38.1933219461128" lon="-2.446559813320064"><ele>865.0</ele><time>2026-04-20T13:46:09Z</time></trkpt><trkpt lat="38.193237236291395" lon="-2.446613534719782"><ele>865.0</ele><time>2026-04-20T13:46:10Z</time></trkpt><trkpt lat="38.193165503205506" lon="-2.446668184338402"><ele>865.0</ele><time>2026-04-20T13:46:11Z</time></trkpt><trkpt lat="38.1930824804337" lon="-2.4467267730393356"><ele>865.0</ele><time>2026-04-20T13:46:12Z</time></trkpt><trkpt lat="38.19299216612667" lon="-2.4467902465695923"><ele>865.0</ele><time>2026-04-20T13:46:13Z</time></trkpt><trkpt lat="38.19290847958733" lon="-2.446857487808202"><ele>870.6</ele><time>2026-04-20T13:46:14Z</time></trkpt><trkpt lat="38.192824493270116" lon="-2.4469249699265605"><ele>876.2</ele><time>2026-04-20T13:46:15Z</time></trkpt><trkpt lat="38.19274747010565" lon="-2.446971167292413"><ele>881.8</ele><time>2026-04-20T13:46:16Z</time></trkpt><trkpt lat="38.192648456493835" lon="-2.4470220074855673"><ele>887.4</ele><time>2026-04-20T13:46:17Z</time></trkpt><trkpt lat="38.19254796581732" lon="-2.447060565854425"><ele>893.0</ele><time>2026-04-20T13:46:18Z</time></trkpt><trkpt lat="38.19246228676463" lon="-2.4470878776562266"><ele>888.2</ele><time>2026-04-20T13:46:19Z</time></trkpt><trkpt lat="38.19239024543784" lon="-2.4471312092111615"><ele>883.4</ele><time>2026-04-20T13:46:20Z</time></trkpt><trkpt lat="38.192327368291416" lon="-2.44710916794142"><ele>878.6000000000001</ele><time>2026-04-20T13:46:21Z</time></trkpt><trkpt lat="38.19222964841087" lon="-2.44708760093447"><ele>873.8000000000001</ele><time>2026-04-20T13:46:23Z</time></trkpt><trkpt lat="38.19208677309003" lon="-2.447051632221576"><ele>869.0</ele><time>2026-04-20T13:46:25Z</time></trkpt><trkpt lat="38.19198000650876" lon="-2.4470638018609523"><ele>869.75</ele><time>2026-04-20T13:46:26Z</time></trkpt><trkpt lat="38.191859118525485" lon="-2.447127619843086"><ele>870.5</ele><time>2026-04-20T13:46:27Z</time></trkpt><trkpt lat="38.19175396897585" lon="-2.4472166223323355"><ele>871.25</ele><time>2026-04-20T13:46:28Z</time></trkpt><trkpt lat="38.19167069632065" lon="-2.447317547154763"><ele>872.0</ele><time>2026-04-20T13:46:29Z</time></trkpt><trkpt lat="38.19160151759759" lon="-2.447409249746373"><ele>872.0000000000001</ele><time>2026-04-20T13:46:30Z</time></trkpt><trkpt lat="38.19154620587196" lon="-2.4475018577751477"><ele>872.0</ele><time>2026-04-20T13:46:31Z</time></trkpt><trkpt lat="38.19147363664191" lon="-2.4475680033255856"><ele>872.0</ele><time>2026-04-20T13:46:32Z</time></trkpt><trkpt lat="38.19139745734199" lon="-2.4476259106994007"><ele>872.0</ele><time>2026-04-20T13:46:33Z</time></trkpt><trkpt lat="38.19130770275936" lon="-2.4476529648876832"><ele>872.0000000000001</ele><time>2026-04-20T13:46:34Z</time></trkpt><trkpt lat="38.19122343065821" lon="-2.447667718609683"><ele>872.0</ele><time>2026-04-20T13:46:35Z</time></trkpt><trkpt lat="38.19114387150213" lon="-2.4476607028661994"><ele>873.2</ele><time>2026-04-20T13:46:36Z</time></trkpt><trkpt lat="38.19106024527679" lon="-2.4476328543812595"><ele>874.4000000000001</ele><time>2026-04-20T13:46:37Z</time></trkpt><trkpt lat="38.190979679038186" lon="-2.4475636872277664"><ele>875.5999999999999</ele><time>2026-04-20T13:46:38Z</time></trkpt><trkpt lat="38.19090151141315" lon="-2.4474809041308823"><ele>876.8</ele><time>2026-04-20T13:46:39Z</time></trkpt><trkpt lat="38.1908136974286" lon="-2.447434457013938"><ele>878.0</ele><time>2026-04-20T13:46:40Z</time></trkpt><trkpt lat="38.19071218315471" lon="-2.4474298268248424"><ele>876.5999999999999</ele><time>2026-04-20T13:46:41Z</time></trkpt><trkpt lat="38.1906040092177" lon="-2.4474440097806687"><ele>875.1999999999999</ele><time>2026-04-20T13:46:42Z</time></trkpt><trkpt lat="38.19050187134297" lon="-2.4474580060385023"><ele>873.8</ele><time>2026-04-20T13:46:43Z</time></trkpt><trkpt lat="38.19040300597148" lon="-2.447477073653305"><ele>872.4</ele><time>2026-04-20T13:46:44Z</time></trkpt><trkpt lat="38.19030835713347" lon="-2.447495653033571"><ele>871.0</ele><time>2026-04-20T13:46:45Z</time></trkpt><trkpt lat="38.1902207039751" lon="-2.447499678952615"><ele>871.0</ele><time>2026-04-20T13:46:46Z</time></trkpt><trkpt lat="38.190135757952845" lon="-2.447460315520859"><ele>870.9999999999999</ele><time>2026-04-20T13:46:47Z</time></trkpt><trkpt lat="38.190064406739204" lon="-2.4473550511131092"><ele>870.9999999999999</ele><time>2026-04-20T13:46:48Z</time></trkpt><trkpt lat="38.18999308507508" lon="-2.447223901706842"><ele>871.0</ele><time>2026-04-20T13:46:49Z</time></trkpt><trkpt lat="38.18989513952256" lon="-2.4471453278043493"><ele>871.0</ele><time>2026-04-20T13:46:50Z</time></trkpt><trkpt lat="38.1897829518889" lon="-2.4470280112719824"><ele>872.5</ele><time>2026-04-20T13:46:51Z</time></trkpt><trkpt lat="38.18967431947825" lon="-2.4469250281583914"><ele>874.0</ele><time>2026-04-20T13:46:52Z</time></trkpt><trkpt lat="38.189580952651646" lon="-2.4468281993418004"><ele>875.5</ele><time>2026-04-20T13:46:53Z</time></trkpt><trkpt lat="38.18948269136409" lon="-2.4467514383723605"><ele>877.0</ele><time>2026-04-20T13:46:54Z</time></trkpt><trkpt lat="38.18938549847232" lon="-2.4466908921050776"><ele>877.0</ele><time>2026-04-20T13:46:55Z</time></trkpt><trkpt lat="38.189277643546355" lon="-2.4466565937567166"><ele>877.0</ele><time>2026-04-20T13:46:56Z</time></trkpt><trkpt lat="38.18915679185864" lon="-2.446615342410504"><ele>877.0</ele><time>2026-04-20T13:46:57Z</time></trkpt><trkpt lat="38.18904304897329" lon="-2.4465931529969387"><ele>877.0</ele><time>2026-04-20T13:46:58Z</time></trkpt><trkpt lat="38.188920757441174" lon="-2.446562758514974"><ele>878.3333333333333</ele><time>2026-04-20T13:46:59Z</time></trkpt><trkpt lat="38.188811989832764" lon="-2.4465397989541495"><ele>879.6666666666666</ele><time>2026-04-20T13:47:00Z</time></trkpt><trkpt lat="38.188733646401374" lon="-2.446521319778442"><ele>881.0</ele><time>2026-04-20T13:47:01Z</time></trkpt><trkpt lat="38.18866041690241" lon="-2.44650500509817"><ele>882.3333333333333</ele><time>2026-04-20T13:47:02Z</time></trkpt><trkpt lat="38.18859022062769" lon="-2.446489080619378"><ele>883.6666666666666</ele><time>2026-04-20T13:47:03Z</time></trkpt><trkpt lat="38.18851281375607" lon="-2.446478023166256"><ele>885.0</ele><time>2026-04-20T13:47:04Z</time></trkpt><trkpt lat="38.18842581043587" lon="-2.446461476734957"><ele>885.0</ele><time>2026-04-20T13:47:05Z</time></trkpt><trkpt lat="38.18832570254354" lon="-2.4464350496991925"><ele>885.0</ele><time>2026-04-20T13:47:06Z</time></trkpt><trkpt lat="38.18821503185873" lon="-2.4464080201509866"><ele>885.0</ele><time>2026-04-20T13:47:07Z</time></trkpt><trkpt lat="38.188102719157435" lon="-2.4463799418111773"><ele>885.0</ele><time>2026-04-20T13:47:08Z</time></trkpt><trkpt lat="38.18799421796577" lon="-2.446359534369187"><ele>885.0</ele><time>2026-04-20T13:47:09Z</time></trkpt><trkpt lat="38.187882022252" lon="-2.4463282134367867"><ele>886.25</ele><time>2026-04-20T13:47:10Z</time></trkpt><trkpt lat="38.18776200420015" lon="-2.4462959492919447"><ele>887.5</ele><time>2026-04-20T13:47:11Z</time></trkpt><trkpt lat="38.18763602434235" lon="-2.4462666505665043"><ele>888.75</ele><time>2026-04-20T13:47:12Z</time></trkpt><trkpt lat="38.18750512011888" lon="-2.446257220756916"><ele>890.0</ele><time>2026-04-20T13:47:13Z</time></trkpt><trkpt lat="38.18736890222717" lon="-2.4462461246109304"><ele>896.0</ele><time>2026-04-20T13:47:14Z</time></trkpt><trkpt lat="38.1872295912167" lon="-2.446221450719425"><ele>902.0</ele><time>2026-04-20T13:47:15Z</time></trkpt><trkpt lat="38.18708630758313" lon="-2.446194474243331"><ele>908.0</ele><time>2026-04-20T13:47:16Z</time></trkpt><trkpt lat="38.186958280702136" lon="-2.4461839948407187"><ele>914.0</ele><time>2026-04-20T13:47:17Z</time></trkpt><trkpt lat="38.18684132826206" lon="-2.44617549826868"><ele>914.0</ele><time>2026-04-20T13:47:18Z</time></trkpt><trkpt lat="38.186728216809705" lon="-2.4461669853559145"><ele>914.0</ele><time>2026-04-20T13:47:19Z</time></trkpt><trkpt lat="38.186607576550806" lon="-2.4461771843538425"><ele>914.0</ele><time>2026-04-20T13:47:20Z</time></trkpt><trkpt lat="38.1864825370148" lon="-2.4461965984218335"><ele>914.0</ele><time>2026-04-20T13:47:21Z</time></trkpt><trkpt lat="38.186365049485104" lon="-2.446223995556707"><ele>912.4000000000001</ele><time>2026-04-20T13:47:22Z</time></trkpt><trkpt lat="38.18625648616892" lon="-2.446242456114653"><ele>910.8000000000001</ele><time>2026-04-20T13:47:23Z</time></trkpt><trkpt lat="38.186153203595566" lon="-2.446262407362832"><ele>909.1999999999999</ele><time>2026-04-20T13:47:24Z</time></trkpt><trkpt lat="38.18605601991749" lon="-2.446288528211622"><ele>907.5999999999999</ele><time>2026-04-20T13:47:25Z</time></trkpt><trkpt lat="38.18597148848233" lon="-2.4463150592425422"><ele>906.0</ele><time>2026-04-20T13:47:26Z</time></trkpt><trkpt lat="38.185876898802455" lon="-2.4463258970958033"><ele>905.5999999999999</ele><time>2026-04-20T13:47:27Z</time></trkpt><trkpt lat="38.18577814530525" lon="-2.4463159356773216"><ele>905.1999999999999</ele><time>2026-04-20T13:47:28Z</time></trkpt><trkpt lat="38.18566622778456" lon="-2.4463060192668906"><ele>904.8000000000001</ele><time>2026-04-20T13:47:29Z</time></trkpt><trkpt lat="38.185564607460336" lon="-2.446275842593246"><ele>904.4000000000001</ele><time>2026-04-20T13:47:30Z</time></trkpt><trkpt lat="38.18545192560296" lon="-2.4462658958118633"><ele>904.0</ele><time>2026-04-20T13:47:31Z</time></trkpt><trkpt lat="38.18533408649982" lon="-2.446274226444372"><ele>904.0</ele><time>2026-04-20T13:47:32Z</time></trkpt><trkpt lat="38.18520872869545" lon="-2.4462700044056405"><ele>904.0</ele><time>2026-04-20T13:47:33Z</time></trkpt><trkpt lat="38.185093358166526" lon="-2.446276857533258"><ele>904.0</ele><time>2026-04-20T13:47:34Z</time></trkpt><trkpt lat="38.18496404579536" lon="-2.4462642682794318"><ele>904.0</ele><time>2026-04-20T13:47:35Z</time></trkpt><trkpt lat="38.18484625137114" lon="-2.446263764800551"><ele>903.2</ele><time>2026-04-20T13:47:36Z</time></trkpt><trkpt lat="38.18474689019909" lon="-2.4463191273290255"><ele>902.4000000000001</ele><time>2026-04-20T13:47:37Z</time></trkpt><trkpt lat="38.18465812906281" lon="-2.4463812631835284"><ele>901.6</ele><time>2026-04-20T13:47:38Z</time></trkpt><trkpt lat="38.18455687090685" lon="-2.446458737274835"><ele>900.8</ele><time>2026-04-20T13:47:39Z</time></trkpt><trkpt lat="38.18444326021713" lon="-2.446512384922929"><ele>900.0</ele><time>2026-04-20T13:47:40Z</time></trkpt><trkpt lat="38.184344383651506" lon="-2.4465738855872066"><ele>900.0</ele><time>2026-04-20T13:47:41Z</time></trkpt><trkpt lat="38.184261773421426" lon="-2.4466431741853523"><ele>900.0</ele><time>2026-04-20T13:47:42Z</time></trkpt><trkpt lat="38.184217161673466" lon="-2.4467478822034368"><ele>900.0</ele><time>2026-04-20T13:47:43Z</time></trkpt><trkpt lat="38.18416923321316" lon="-2.446858125094435"><ele>900.0</ele><time>2026-04-20T13:47:44Z</time></trkpt><trkpt lat="38.18411946625386" lon="-2.446963399411726"><ele>900.0</ele><time>2026-04-20T13:47:45Z</time></trkpt><trkpt lat="38.18405859377711" lon="-2.4470668270918297"><ele>897.4</ele><time>2026-04-20T13:47:46Z</time></trkpt><trkpt lat="38.18397550335212" lon="-2.4471429760417687"><ele>894.8</ele><time>2026-04-20T13:47:47Z</time></trkpt><trkpt lat="38.18389094935548" lon="-2.4472196269987667"><ele>892.2</ele><time>2026-04-20T13:47:48Z</time></trkpt><trkpt lat="38.18378977979175" lon="-2.447288932434326"><ele>889.6</ele><time>2026-04-20T13:47:49Z</time></trkpt><trkpt lat="38.183677055420105" lon="-2.447352486753339"><ele>887.0</ele><time>2026-04-20T13:47:50Z</time></trkpt><trkpt lat="38.183558944118026" lon="-2.447429827529558"><ele>887.0</ele><time>2026-04-20T13:47:51Z</time></trkpt><trkpt lat="38.18341143570136" lon="-2.447451428491966"><ele>887.0</ele><time>2026-04-20T13:47:52Z</time></trkpt><trkpt lat="38.183278336117255" lon="-2.4475305779403986"><ele>887.0</ele><time>2026-04-20T13:47:53Z</time></trkpt><trkpt lat="38.18315089238378" lon="-2.447632849964009"><ele>887.0</ele><time>2026-04-20T13:47:54Z</time></trkpt><trkpt lat="38.18303776002271" lon="-2.4477563443079307"><ele>892.6666666666667</ele><time>2026-04-20T13:47:55Z</time></trkpt><trkpt lat="38.18293715926296" lon="-2.447897665337703"><ele>898.3333333333333</ele><time>2026-04-20T13:47:56Z</time></trkpt><trkpt lat="38.18284379189931" lon="-2.4480569728898294"><ele>904.0</ele><time>2026-04-20T13:47:57Z</time></trkpt><trkpt lat="38.182749649087974" lon="-2.4482178145848543"><ele>904.0</ele><time>2026-04-20T13:47:58Z</time></trkpt><trkpt lat="38.182683853813174" lon="-2.4483787672700377"><ele>904.0</ele><time>2026-04-20T13:47:59Z</time></trkpt><trkpt lat="38.18261724077213" lon="-2.4485085503209447"><ele>904.0</ele><time>2026-04-20T13:48:00Z</time></trkpt><trkpt lat="38.182545233216864" lon="-2.4486104149707772"><ele>904.0</ele><time>2026-04-20T13:48:01Z</time></trkpt><trkpt lat="38.18244478296987" lon="-2.4486792855875925"><ele>907.5</ele><time>2026-04-20T13:48:02Z</time></trkpt><trkpt lat="38.1823073785486" lon="-2.4487285862305366"><ele>911.0</ele><time>2026-04-20T13:48:03Z</time></trkpt><trkpt lat="38.182174092049074" lon="-2.4487831909917794"><ele>914.5</ele><time>2026-04-20T13:48:04Z</time></trkpt><trkpt lat="38.18205862117524" lon="-2.448875620404444"><ele>918.0</ele><time>2026-04-20T13:48:05Z</time></trkpt><trkpt lat="38.18196453837545" lon="-2.449004266460262"><ele>918.0</ele><time>2026-04-20T13:48:06Z</time></trkpt><trkpt lat="38.1818878589943" lon="-2.4491459886959235"><ele>918.0</ele><time>2026-04-20T13:48:07Z</time></trkpt><trkpt lat="38.18181805932608" lon="-2.4492950152818493"><ele>918.0</ele><time>2026-04-20T13:48:08Z</time></trkpt><trkpt lat="38.18176831836019" lon="-2.449446302692225"><ele>918.0</ele><time>2026-04-20T13:48:09Z</time></trkpt><trkpt lat="38.18174866439193" lon="-2.449584450906771"><ele>914.0</ele><time>2026-04-20T13:48:10Z</time></trkpt><trkpt lat="38.18177669736471" lon="-2.449703233231893"><ele>910.0</ele><time>2026-04-20T13:48:11Z</time></trkpt><trkpt lat="38.18181867741324" lon="-2.4497969512571762"><ele>906.0</ele><time>2026-04-20T13:48:12Z</time></trkpt><trkpt lat="38.18181844476144" lon="-2.449899437513424"><ele>902.0</ele><time>2026-04-20T13:48:13Z</time></trkpt><trkpt lat="38.181760092444954" lon="-2.4499908573916853"><ele>898.0</ele><time>2026-04-20T13:48:14Z</time></trkpt><trkpt lat="38.1816579173918" lon="-2.4500533095334207"><ele>898.0</ele><time>2026-04-20T13:48:15Z</time></trkpt><trkpt lat="38.181548419908076" lon="-2.4500787759607094"><ele>898.0</ele><time>2026-04-20T13:48:16Z</time></trkpt><trkpt lat="38.181428907490236" lon="-2.450060735109194"><ele>898.0</ele><time>2026-04-20T13:48:17Z</time></trkpt><trkpt lat="38.18131145857081" lon="-2.4500399229621075"><ele>898.0</ele><time>2026-04-20T13:48:18Z</time></trkpt><trkpt lat="38.18119636212721" lon="-2.4500156817779377"><ele>902.5999999999999</ele><time>2026-04-20T13:48:19Z</time></trkpt><trkpt lat="38.181103449389724" lon="-2.4500125120075094"><ele>907.1999999999999</ele><time>2026-04-20T13:48:20Z</time></trkpt><trkpt lat="38.181015411808445" lon="-2.4500136166931537"><ele>911.8</ele><time>2026-04-20T13:48:21Z</time></trkpt><trkpt lat="38.18092511739375" lon="-2.450061876569218"><ele>916.4</ele><time>2026-04-20T13:48:22Z</time></trkpt><trkpt lat="38.18083676211989" lon="-2.450147041004713"><ele>921.0</ele><time>2026-04-20T13:48:23Z</time></trkpt><trkpt lat="38.18075453322383" lon="-2.450253832072383"><ele>921.0</ele><time>2026-04-20T13:48:24Z</time></trkpt><trkpt lat="38.18068930253172" lon="-2.450381746922804"><ele>921.0</ele><time>2026-04-20T13:48:25Z</time></trkpt><trkpt lat="38.180636247789124" lon="-2.4505119776930013"><ele>921.0</ele><time>2026-04-20T13:48:26Z</time></trkpt><trkpt lat="38.18058530685916" lon="-2.450657541058047"><ele>921.0</ele><time>2026-04-20T13:48:27Z</time></trkpt><trkpt lat="38.18051318905435" lon="-2.450789167642188"><ele>925.0</ele><time>2026-04-20T13:48:28Z</time></trkpt><trkpt lat="38.18042548305567" lon="-2.450908371400081"><ele>929.0</ele><time>2026-04-20T13:48:29Z</time></trkpt><trkpt lat="38.180338962026426" lon="-2.451024464051348"><ele>933.0</ele><time>2026-04-20T13:48:30Z</time></trkpt><trkpt lat="38.1802751720782" lon="-2.451156672409448"><ele>937.0</ele><time>2026-04-20T13:48:31Z</time></trkpt><trkpt lat="38.1802432735891" lon="-2.4513111562808243"><ele>937.0</ele><time>2026-04-20T13:48:32Z</time></trkpt><trkpt lat="38.180244921340076" lon="-2.4514782725625035"><ele>937.0</ele><time>2026-04-20T13:48:33Z</time></trkpt><trkpt lat="38.180250036620826" lon="-2.451624718445819"><ele>937.0</ele><time>2026-04-20T13:48:34Z</time></trkpt><trkpt lat="38.180233975461164" lon="-2.451753325950135"><ele>937.0</ele><time>2026-04-20T13:48:35Z</time></trkpt><trkpt lat="38.18017839675686" lon="-2.451881645207065"><ele>937.0</ele><time>2026-04-20T13:48:36Z</time></trkpt><trkpt lat="38.18010936735128" lon="-2.4520173427771894"><ele>937.0</ele><time>2026-04-20T13:48:37Z</time></trkpt><trkpt lat="38.180039243507515" lon="-2.4521445661149155"><ele>937.0</ele><time>2026-04-20T13:48:38Z</time></trkpt><trkpt lat="38.17999263706879" lon="-2.4522736365833113"><ele>937.0</ele><time>2026-04-20T13:48:39Z</time></trkpt><trkpt lat="38.179971370593215" lon="-2.452397508963862"><ele>934.4000000000001</ele><time>2026-04-20T13:48:40Z</time></trkpt><trkpt lat="38.180004117760014" lon="-2.452507531140445"><ele>931.8000000000001</ele><time>2026-04-20T13:48:41Z</time></trkpt><trkpt lat="38.179991052535065" lon="-2.452588408875426"><ele>929.2</ele><time>2026-04-20T13:48:42Z</time></trkpt><trkpt lat="38.17999431173928" lon="-2.4526707457159596"><ele>926.6</ele><time>2026-04-20T13:48:43Z</time></trkpt><trkpt lat="38.179932402026104" lon="-2.452772228110165"><ele>924.0</ele><time>2026-04-20T13:48:44Z</time></trkpt><trkpt lat="38.17979504134179" lon="-2.452821111927384"><ele>931.0</ele><time>2026-04-20T13:48:45Z</time></trkpt><trkpt lat="38.17969824852385" lon="-2.4528125403773684"><ele>938.0000000000001</ele><time>2026-04-20T13:48:46Z</time></trkpt><trkpt lat="38.17961176625627" lon="-2.4528111401071415"><ele>945.0000000000001</ele><time>2026-04-20T13:48:47Z</time></trkpt><trkpt lat="38.17952875425451" lon="-2.4528268150877963"><ele>952.0</ele><time>2026-04-20T13:48:48Z</time></trkpt><trkpt lat="38.179432629222845" lon="-2.452852456609885"><ele>959.0</ele><time>2026-04-20T13:48:49Z</time></trkpt><trkpt lat="38.17934224040243" lon="-2.4528821339275404"><ele>959.0</ele><time>2026-04-20T13:48:50Z</time></trkpt><trkpt lat="38.17927040309289" lon="-2.4529228202773945"><ele>959.0000000000001</ele><time>2026-04-20T13:48:51Z</time></trkpt><trkpt lat="38.17920028376402" lon="-2.453041813568489"><ele>959.0000000000001</ele><time>2026-04-20T13:48:53Z</time></trkpt><trkpt lat="38.17918143416074" lon="-2.4531504360560032"><ele>959.0</ele><time>2026-04-20T13:48:54Z</time></trkpt><trkpt lat="38.17920956730122" lon="-2.453299465783372"><ele>959.0</ele><time>2026-04-20T13:48:55Z</time></trkpt><trkpt lat="38.179230182624075" lon="-2.4534539296139295"><ele>954.5</ele><time>2026-04-20T13:48:56Z</time></trkpt><trkpt lat="38.17923627770638" lon="-2.453608143330942"><ele>950.0</ele><time>2026-04-20T13:48:57Z</time></trkpt><trkpt lat="38.17923313334146" lon="-2.4537580796043716"><ele>945.5</ele><time>2026-04-20T13:48:58Z</time></trkpt><trkpt lat="38.17922307515537" lon="-2.453910603138256"><ele>941.0</ele><time>2026-04-20T13:48:59Z</time></trkpt><trkpt lat="38.179212337638894" lon="-2.4540675093793243"><ele>940.25</ele><time>2026-04-20T13:49:00Z</time></trkpt><trkpt lat="38.179205394145335" lon="-2.4542340203730006"><ele>939.5</ele><time>2026-04-20T13:49:01.001Z</time></trkpt><trkpt lat="38.17921112498166" lon="-2.4544032634846134"><ele>938.75</ele><time>2026-04-20T13:49:02.001Z</time></trkpt><trkpt lat="38.179228905824985" lon="-2.4545622857745153"><ele>938.0</ele><time>2026-04-20T13:49:03.001Z</time></trkpt><trkpt lat="38.17924867793805" lon="-2.454706266737827"><ele>937.3333333333334</ele><time>2026-04-20T13:49:04.001Z</time></trkpt><trkpt lat="38.17925970349273" lon="-2.4548346457380745"><ele>936.6666666666667</ele><time>2026-04-20T13:49:05.001Z</time></trkpt><trkpt lat="38.179273938473585" lon="-2.4549450303279094"><ele>936.0</ele><time>2026-04-20T13:49:06.001Z</time></trkpt><trkpt lat="38.17928521322693" lon="-2.455035915874374"><ele>935.3333333333333</ele><time>2026-04-20T13:49:07.001Z</time></trkpt><trkpt lat="38.179274869321134" lon="-2.455115551768335"><ele>934.6666666666666</ele><time>2026-04-20T13:49:08Z</time></trkpt><trkpt lat="38.17923895646251" lon="-2.455186425623503"><ele>934.0</ele><time>2026-04-20T13:49:09Z</time></trkpt><trkpt lat="38.17917930326447" lon="-2.4552498185652833"><ele>934.0</ele><time>2026-04-20T13:49:10Z</time></trkpt><trkpt lat="38.179092536177734" lon="-2.4552908799034565"><ele>934.0</ele><time>2026-04-20T13:49:11Z</time></trkpt><trkpt lat="38.178989614853755" lon="-2.4553080771872215"><ele>934.0</ele><time>2026-04-20T13:49:12Z</time></trkpt><trkpt lat="38.1788589860726" lon="-2.455338503067326"><ele>934.0</ele><time>2026-04-20T13:49:13Z</time></trkpt><trkpt lat="38.17872079260699" lon="-2.4553746543795985"><ele>931.8000000000001</ele><time>2026-04-20T13:49:14Z</time></trkpt><trkpt lat="38.17860677568593" lon="-2.455422757140762"><ele>929.6000000000001</ele><time>2026-04-20T13:49:15Z</time></trkpt><trkpt lat="38.178505074510284" lon="-2.455477367696502"><ele>927.4</ele><time>2026-04-20T13:49:16Z</time></trkpt><trkpt lat="38.178420789796476" lon="-2.4555630539341418"><ele>925.2</ele><time>2026-04-20T13:49:17Z</time></trkpt><trkpt lat="38.17834384162342" lon="-2.4556019293642795"><ele>923.0</ele><time>2026-04-20T13:49:18Z</time></trkpt><trkpt lat="38.17828059966308" lon="-2.455642698970902"><ele>923.0000000000001</ele><time>2026-04-20T13:49:19Z</time></trkpt><trkpt lat="38.17822016661333" lon="-2.4556778865851725"><ele>923.0</ele><time>2026-04-20T13:49:20Z</time></trkpt><trkpt lat="38.1781469323436" lon="-2.4557175599857977"><ele>923.0</ele><time>2026-04-20T13:49:21Z</time></trkpt><trkpt lat="38.17807525315227" lon="-2.455761913552777"><ele>923.0</ele><time>2026-04-20T13:49:22Z</time></trkpt><trkpt lat="38.17800679100925" lon="-2.4558144577144896"><ele>923.0000000000001</ele><time>2026-04-20T13:49:23Z</time></trkpt><trkpt lat="38.17795240722046" lon="-2.455861481460006"><ele>923.0</ele><time>2026-04-20T13:49:24Z</time></trkpt><trkpt lat="38.17788063620295" lon="-2.4559365555932477"><ele>930.2</ele><time>2026-04-20T13:49:26Z</time></trkpt><trkpt lat="38.177809333362354" lon="-2.455988672179748"><ele>937.4</ele><time>2026-04-20T13:49:28Z</time></trkpt><trkpt lat="38.17774521367987" lon="-2.456030638516299"><ele>944.6000000000001</ele><time>2026-04-20T13:49:30Z</time></trkpt><trkpt lat="38.17781719270328" lon="-2.4559535812720013"><ele>951.8000000000001</ele><time>2026-04-20T13:49:55Z</time></trkpt><trkpt lat="38.177906042535184" lon="-2.455910689124549"><ele>959.0</ele><time>2026-04-20T13:49:56Z</time></trkpt><trkpt lat="38.17801012347773" lon="-2.4558009844401143"><ele>959.0000000000001</ele><time>2026-04-20T13:49:57Z</time></trkpt><trkpt lat="38.17807742583576" lon="-2.455741895812512"><ele>959.0</ele><time>2026-04-20T13:49:58Z</time></trkpt><trkpt lat="38.17817137185053" lon="-2.455677817825166"><ele>959.0</ele><time>2026-04-20T13:50:00Z</time></trkpt><trkpt lat="38.1781739036179" lon="-2.4557845043518345"><ele>959.0</ele><time>2026-04-20T13:50:05Z</time></trkpt><trkpt lat="38.17808778814727" lon="-2.455825459890599"><ele>959.0000000000001</ele><time>2026-04-20T13:50:06Z</time></trkpt><trkpt lat="38.17802907405066" lon="-2.4558827987429632"><ele>959.0</ele><time>2026-04-20T13:50:07Z</time></trkpt><trkpt lat="38.17797779880175" lon="-2.4559478063443696"><ele>959.0</ele><time>2026-04-20T13:50:08Z</time></trkpt><trkpt lat="38.17793253587873" lon="-2.45600656280348"><ele>959.0000000000001</ele><time>2026-04-20T13:50:09Z</time></trkpt><trkpt lat="38.177850623824774" lon="-2.456125104047399"><ele>959.0000000000001</ele><time>2026-04-20T13:50:11Z</time></trkpt><trkpt lat="38.17774830613766" lon="-2.456216073722607"><ele>959.0</ele><time>2026-04-20T13:50:13Z</time></trkpt><trkpt lat="38.17767048906432" lon="-2.456214322573429"><ele>959.0</ele><time>2026-04-20T13:50:14Z</time></trkpt><trkpt lat="38.17759305755675" lon="-2.4562246707407835"><ele>959.0000000000001</ele><time>2026-04-20T13:50:15Z</time></trkpt><trkpt lat="38.177515399291664" lon="-2.456275527521589"><ele>959.0</ele><time>2026-04-20T13:50:16Z</time></trkpt><trkpt lat="38.17746295485836" lon="-2.4563673645628454"><ele>959.0</ele><time>2026-04-20T13:50:17Z</time></trkpt><trkpt lat="38.17742915294992" lon="-2.4564673582874246"><ele>959.0</ele><time>2026-04-20T13:50:18Z</time></trkpt><trkpt lat="38.17739143055186" lon="-2.456555034008104"><ele>959.0000000000001</ele><time>2026-04-20T13:50:19Z</time></trkpt><trkpt lat="38.177344367817376" lon="-2.4566269879496687"><ele>959.0</ele><time>2026-04-20T13:50:20Z</time></trkpt><trkpt lat="38.17722839970764" lon="-2.456649701069964"><ele>956.0</ele><time>2026-04-20T13:50:22Z</time></trkpt><trkpt lat="38.17714095862201" lon="-2.456635920448325"><ele>953.0000000000001</ele><time>2026-04-20T13:50:24Z</time></trkpt><trkpt lat="38.17721570426747" lon="-2.456630644442767"><ele>950.0000000000001</ele><time>2026-04-20T13:50:34Z</time></trkpt><trkpt lat="38.17720512980226" lon="-2.4565499089577716"><ele>947.0</ele><time>2026-04-20T13:50:36Z</time></trkpt><trkpt lat="38.17735356835132" lon="-2.456665507544388"><ele>944.0</ele><time>2026-04-20T13:50:37Z</time></trkpt><trkpt lat="38.17740369503592" lon="-2.456533963593206"><ele>946.5000000000001</ele><time>2026-04-20T13:50:38Z</time></trkpt><trkpt lat="38.17743631382545" lon="-2.456440337570463"><ele>949.0</ele><time>2026-04-20T13:50:39Z</time></trkpt><trkpt lat="38.17746876899861" lon="-2.4563545005630667"><ele>951.5</ele><time>2026-04-20T13:50:40Z</time></trkpt><trkpt lat="38.177516761169215" lon="-2.4562719199142355"><ele>954.0</ele><time>2026-04-20T13:50:41Z</time></trkpt><trkpt lat="38.177577409517255" lon="-2.4562134484675817"><ele>956.5000000000001</ele><time>2026-04-20T13:50:42Z</time></trkpt><trkpt lat="38.17764924912689" lon="-2.4561877054294006"><ele>959.0</ele><time>2026-04-20T13:50:43Z</time></trkpt><trkpt lat="38.17772462603003" lon="-2.4561932989469693"><ele>959.0000000000001</ele><time>2026-04-20T13:50:44Z</time></trkpt><trkpt lat="38.17778863472528" lon="-2.4561877541346764"><ele>959.0</ele><time>2026-04-20T13:50:45Z</time></trkpt><trkpt lat="38.17784965959714" lon="-2.456146236560176"><ele>959.0</ele><time>2026-04-20T13:50:46Z</time></trkpt><trkpt lat="38.177899541200986" lon="-2.4560690690325058"><ele>959.0</ele><time>2026-04-20T13:50:47Z</time></trkpt><trkpt lat="38.17796092939282" lon="-2.4559727483273686"><ele>959.0000000000001</ele><time>2026-04-20T13:50:48Z</time></trkpt><trkpt lat="38.17803365973578" lon="-2.455878635331732"><ele>959.0</ele><time>2026-04-20T13:50:49Z</time></trkpt><trkpt lat="38.17810386843382" lon="-2.455802119840692"><ele>959.0000000000001</ele><time>2026-04-20T13:50:50Z</time></trkpt><trkpt lat="38.17817172524136" lon="-2.4557489326211903"><ele>959.0</ele><time>2026-04-20T13:50:51Z</time></trkpt><trkpt lat="38.17824033194349" lon="-2.4556999246996156"><ele>959.0</ele><time>2026-04-20T13:50:53Z</time></trkpt><trkpt lat="38.17817028480419" lon="-2.455666587338992"><ele>959.0</ele><time>2026-04-20T13:50:56.001Z</time></trkpt><trkpt lat="38.1781151125574" lon="-2.4557501099070103"><ele>959.0000000000001</ele><time>2026-04-20T13:51:07.001Z</time></trkpt><trkpt lat="38.17801793066825" lon="-2.4558050543250785"><ele>959.0</ele><time>2026-04-20T13:53:01Z</time></trkpt><trkpt lat="38.17791312156742" lon="-2.455909773337261"><ele>959.0</ele><time>2026-04-20T13:53:03Z</time></trkpt><trkpt lat="38.17784787558122" lon="-2.455972676999268"><ele>959.0000000000001</ele><time>2026-04-20T13:53:04Z</time></trkpt><trkpt lat="38.17776794699106" lon="-2.4560261849915603"><ele>959.0000000000001</ele><time>2026-04-20T13:53:05Z</time></trkpt><trkpt lat="38.17767035001567" lon="-2.456064742418467"><ele>959.0</ele><time>2026-04-20T13:53:06Z</time></trkpt><trkpt lat="38.17755706907739" lon="-2.4560748998993582"><ele>959.0</ele><time>2026-04-20T13:53:07Z</time></trkpt><trkpt lat="38.177451800886864" lon="-2.4561081393210826"><ele>959.0</ele><time>2026-04-20T13:53:08Z</time></trkpt><trkpt lat="38.17735639514614" lon="-2.4561930554511724"><ele>959.0</ele><time>2026-04-20T13:53:09Z</time></trkpt><trkpt lat="38.17726258940777" lon="-2.456281988981654"><ele>959.0</ele><time>2026-04-20T13:53:10.001Z</time></trkpt><trkpt lat="38.177154641827634" lon="-2.4563454380734804"><ele>959.0</ele><time>2026-04-20T13:53:11.001Z</time></trkpt><trkpt lat="38.17704114436955" lon="-2.4563882908424737"><ele>956.0</ele><time>2026-04-20T13:53:12.001Z</time></trkpt><trkpt lat="38.17691876356451" lon="-2.456414478300313"><ele>953.0000000000001</ele><time>2026-04-20T13:53:13.001Z</time></trkpt><trkpt lat="38.17680010813689" lon="-2.4564252236898887"><ele>950.0000000000001</ele><time>2026-04-20T13:53:14.001Z</time></trkpt><trkpt lat="38.17669580670657" lon="-2.456426788118664"><ele>947.0</ele><time>2026-04-20T13:53:15.001Z</time></trkpt><trkpt lat="38.17660393704405" lon="-2.4564412743532733"><ele>944.0</ele><time>2026-04-20T13:53:16.001Z</time></trkpt><trkpt lat="38.17652699530102" lon="-2.4564855922306035"><ele>946.3333333333334</ele><time>2026-04-20T13:53:17.001Z</time></trkpt><trkpt lat="38.17647346010185" lon="-2.4565571018764656"><ele>948.6666666666667</ele><time>2026-04-20T13:53:18.001Z</time></trkpt><trkpt lat="38.17645965069904" lon="-2.4566634534688743"><ele>951.0</ele><time>2026-04-20T13:53:19.001Z</time></trkpt><trkpt lat="38.17643615727324" lon="-2.4567545833925966"><ele>953.3333333333333</ele><time>2026-04-20T13:53:19.999Z</time></trkpt><trkpt lat="38.17638249368331" lon="-2.4568102716439904"><ele>955.6666666666666</ele><time>2026-04-20T13:53:20.999Z</time></trkpt><trkpt lat="38.17631472614067" lon="-2.456838691501864"><ele>958.0</ele><time>2026-04-20T13:53:21.999Z</time></trkpt><trkpt lat="38.17623099412211" lon="-2.4568140336313897"><ele>958.0</ele><time>2026-04-20T13:53:22.999Z</time></trkpt><trkpt lat="38.17614037947061" lon="-2.4567718945490205"><ele>958.0</ele><time>2026-04-20T13:53:23.999Z</time></trkpt><trkpt lat="38.176064289123055" lon="-2.456671532386278"><ele>958.0</ele><time>2026-04-20T13:53:24.999Z</time></trkpt><trkpt lat="38.17599418733929" lon="-2.456579820603804"><ele>958.0</ele><time>2026-04-20T13:53:25.999Z</time></trkpt><trkpt lat="38.17592142579056" lon="-2.4564892332527157"><ele>958.0</ele><time>2026-04-20T13:53:26.999Z</time></trkpt><trkpt lat="38.17585843452926" lon="-2.4564213387233864"><ele>958.0</ele><time>2026-04-20T13:53:27.999Z</time></trkpt><trkpt lat="38.17580751683141" lon="-2.456371473097038"><ele>958.0</ele><time>2026-04-20T13:53:28.999Z</time></trkpt><trkpt lat="38.17574138822473" lon="-2.4563766458587084"><ele>958.0</ele><time>2026-04-20T13:53:29.999Z</time></trkpt><trkpt lat="38.175648184093276" lon="-2.4564520836857366"><ele>958.0</ele><time>2026-04-20T13:53:31.999Z</time></trkpt><trkpt lat="38.17536873880212" lon="-2.456637385290218"><ele>961.25</ele><time>2026-04-20T13:53:33.999Z</time></trkpt><trkpt lat="38.17538831723198" lon="-2.456759388438635"><ele>964.5</ele><time>2026-04-20T13:53:34.999Z</time></trkpt><trkpt lat="38.17535387488355" lon="-2.456888494984492"><ele>967.75</ele><time>2026-04-20T13:53:36Z</time></trkpt><trkpt lat="38.17529337264804" lon="-2.4570194139471315"><ele>971.0</ele><time>2026-04-20T13:53:37Z</time></trkpt><trkpt lat="38.175232322791835" lon="-2.4571695596648224"><ele>971.0</ele><time>2026-04-20T13:53:38Z</time></trkpt><trkpt lat="38.175162530623915" lon="-2.457305616074075"><ele>971.0</ele><time>2026-04-20T13:53:39Z</time></trkpt><trkpt lat="38.175098342459606" lon="-2.457440390912365"><ele>971.0</ele><time>2026-04-20T13:53:40Z</time></trkpt><trkpt lat="38.175097282184915" lon="-2.457568706751015"><ele>971.0</ele><time>2026-04-20T13:53:41Z</time></trkpt><trkpt lat="38.17509386006593" lon="-2.457698959282309"><ele>971.0000000000001</ele><time>2026-04-20T13:53:42Z</time></trkpt><trkpt lat="38.175091731042336" lon="-2.457811895897527"><ele>971.0</ele><time>2026-04-20T13:53:43Z</time></trkpt><trkpt lat="38.17503720059346" lon="-2.4578893982611425"><ele>971.0</ele><time>2026-04-20T13:53:44Z</time></trkpt><trkpt lat="38.174991491122235" lon="-2.457954132076397"><ele>971.0</ele><time>2026-04-20T13:53:45Z</time></trkpt><trkpt lat="38.17491509986685" lon="-2.457977739637262"><ele>971.0000000000001</ele><time>2026-04-20T13:53:46Z</time></trkpt><trkpt lat="38.17481891137227" lon="-2.4579765842638284"><ele>971.0</ele><time>2026-04-20T13:53:47Z</time></trkpt><trkpt lat="38.17471227922938" lon="-2.4579783432432727"><ele>970.0</ele><time>2026-04-20T13:53:48Z</time></trkpt><trkpt lat="38.17458861811523" lon="-2.457978953067353"><ele>969.0</ele><time>2026-04-20T13:53:49Z</time></trkpt><trkpt lat="38.17444650770884" lon="-2.4579791286398103"><ele>968.0</ele><time>2026-04-20T13:53:50Z</time></trkpt><trkpt lat="38.174304080054185" lon="-2.4579795396314146"><ele>967.0</ele><time>2026-04-20T13:53:51Z</time></trkpt><trkpt lat="38.17417039779347" lon="-2.457975231353903"><ele>967.0</ele><time>2026-04-20T13:53:52Z</time></trkpt><trkpt lat="38.174042601276106" lon="-2.45800647574625"><ele>967.0</ele><time>2026-04-20T13:53:53Z</time></trkpt><trkpt lat="38.17392981125782" lon="-2.458019336263989"><ele>967.0</ele><time>2026-04-20T13:53:54Z</time></trkpt><trkpt lat="38.17382347265568" lon="-2.458025938647702"><ele>967.0</ele><time>2026-04-20T13:53:55Z</time></trkpt><trkpt lat="38.17372045883044" lon="-2.4580684838313056"><ele>984.0</ele><time>2026-04-20T13:53:56Z</time></trkpt><trkpt lat="38.173616631610464" lon="-2.458088300104613"><ele>984.0</ele><time>2026-04-20T13:53:57Z</time></trkpt><trkpt lat="38.17351677031714" lon="-2.4581152641903277"><ele>984.0</ele><time>2026-04-20T13:53:58Z</time></trkpt><trkpt lat="38.173435195584965" lon="-2.4581310769105924"><ele>984.0</ele><time>2026-04-20T13:53:59Z</time></trkpt><trkpt lat="38.17337146744736" lon="-2.458142142031327"><ele>984.0</ele><time>2026-04-20T13:54:00Z</time></trkpt><trkpt lat="38.1732966145121" lon="-2.4581698297806787"><ele>984.0</ele><time>2026-04-20T13:54:02Z</time></trkpt></trkseg><trkseg><trkpt lat="38.173218042086866" lon="-2.4581347630865396"><ele>987.1666666666666</ele><time>2026-04-20T14:29:08Z</time></trkpt><trkpt lat="38.173133386796636" lon="-2.4581736072808926"><ele>990.3333333333333</ele><time>2026-04-20T14:29:48.999Z</time></trkpt><trkpt lat="38.17305953401772" lon="-2.4581890840547485"><ele>993.5</ele><time>2026-04-20T14:29:50.999Z</time></trkpt><trkpt lat="38.17296776726657" lon="-2.4582188325052825"><ele>996.6666666666666</ele><time>2026-04-20T14:29:52.999Z</time></trkpt><trkpt lat="38.17290223596541" lon="-2.4582451893335358"><ele>999.8333333333333</ele><time>2026-04-20T14:29:53.999Z</time></trkpt><trkpt lat="38.172836622605075" lon="-2.4582892658494666"><ele>1003.0</ele><time>2026-04-20T14:29:54.999Z</time></trkpt><trkpt lat="38.172772440003754" lon="-2.458348756175364"><ele>1002.9999999999999</ele><time>2026-04-20T14:29:55.999Z</time></trkpt><trkpt lat="38.172722754788126" lon="-2.4584264201599537"><ele>1003.0</ele><time>2026-04-20T14:29:56.999Z</time></trkpt><trkpt lat="38.17270768344576" lon="-2.4585333881431537"><ele>1003.0</ele><time>2026-04-20T14:29:57.999Z</time></trkpt><trkpt lat="38.172693066912096" lon="-2.458640145148473"><ele>1003.0</ele><time>2026-04-20T14:29:58.999Z</time></trkpt><trkpt lat="38.17267897345721" lon="-2.458756574113848"><ele>1002.9999999999999</ele><time>2026-04-20T14:29:59.999Z</time></trkpt><trkpt lat="38.17265091037263" lon="-2.4588672047859226"><ele>1003.0</ele><time>2026-04-20T14:30:00.999Z</time></trkpt><trkpt lat="38.17261628799327" lon="-2.458979209810948"><ele>1001.5999999999999</ele><time>2026-04-20T14:30:01.999Z</time></trkpt><trkpt lat="38.1725767967232" lon="-2.4590909765398457"><ele>1000.1999999999999</ele><time>2026-04-20T14:30:02.999Z</time></trkpt><trkpt lat="38.17251313889557" lon="-2.4591923738273693"><ele>998.8</ele><time>2026-04-20T14:30:03.999Z</time></trkpt><trkpt lat="38.17245161058867" lon="-2.459291759780856"><ele>997.4</ele><time>2026-04-20T14:30:04.999Z</time></trkpt><trkpt lat="38.17238665346883" lon="-2.4593807458850887"><ele>996.0</ele><time>2026-04-20T14:30:05.999Z</time></trkpt><trkpt lat="38.172352190956296" lon="-2.4594852835871337"><ele>995.5</ele><time>2026-04-20T14:30:06.999Z</time></trkpt><trkpt lat="38.17233674304131" lon="-2.459598396749325"><ele>995.0</ele><time>2026-04-20T14:30:07.999Z</time></trkpt><trkpt lat="38.17235931842328" lon="-2.459714603201432"><ele>994.5</ele><time>2026-04-20T14:30:08.999Z</time></trkpt><trkpt lat="38.17235967453262" lon="-2.4598275335240545"><ele>994.0</ele><time>2026-04-20T14:30:09.999Z</time></trkpt><trkpt lat="38.17237685204735" lon="-2.459931856441106"><ele>993.5</ele><time>2026-04-20T14:30:10.999Z</time></trkpt><trkpt lat="38.17238020920136" lon="-2.460032794347869"><ele>993.0</ele><time>2026-04-20T14:30:11.999Z</time></trkpt><trkpt lat="38.172386164821795" lon="-2.4601385099041924"><ele>998.0</ele><time>2026-04-20T14:30:12.999Z</time></trkpt><trkpt lat="38.172350790393175" lon="-2.4602458167761405"><ele>1003.0</ele><time>2026-04-20T14:30:13.999Z</time></trkpt><trkpt lat="38.17227063309736" lon="-2.4603182559118935"><ele>1008.0</ele><time>2026-04-20T14:30:14.999Z</time></trkpt><trkpt lat="38.17220614017317" lon="-2.4603933756151823"><ele>1013.0</ele><time>2026-04-20T14:30:15.999Z</time></trkpt><trkpt lat="38.17214168966285" lon="-2.4604670800263575"><ele>1018.0</ele><time>2026-04-20T14:30:16.999Z</time></trkpt><trkpt lat="38.172110698513535" lon="-2.460571927749886"><ele>1018.0</ele><time>2026-04-20T14:30:17.999Z</time></trkpt><trkpt lat="38.17206853585735" lon="-2.4606761766784477"><ele>1018.0</ele><time>2026-04-20T14:30:18.999Z</time></trkpt><trkpt lat="38.172010933001836" lon="-2.4607928521808"><ele>1018.0</ele><time>2026-04-20T14:30:19.999Z</time></trkpt><trkpt lat="38.17196638139459" lon="-2.4609351607498797"><ele>1018.0</ele><time>2026-04-20T14:30:20.999Z</time></trkpt><trkpt lat="38.17191719272323" lon="-2.4610856050301733"><ele>1018.0</ele><time>2026-04-20T14:30:21.999Z</time></trkpt><trkpt lat="38.17187730856253" lon="-2.4612266766670254"><ele>1014.5</ele><time>2026-04-20T14:30:22.999Z</time></trkpt><trkpt lat="38.17182653661558" lon="-2.461346118332712"><ele>1011.0</ele><time>2026-04-20T14:30:23.999Z</time></trkpt><trkpt lat="38.171754297611116" lon="-2.461462182042837"><ele>1007.5</ele><time>2026-04-20T14:30:24.999Z</time></trkpt><trkpt lat="38.17166332470885" lon="-2.461571015349475"><ele>1004.0</ele><time>2026-04-20T14:30:25.999Z</time></trkpt><trkpt lat="38.17156965040315" lon="-2.4616699830940103"><ele>1009.8000000000001</ele><time>2026-04-20T14:30:26.999Z</time></trkpt><trkpt lat="38.17148496252799" lon="-2.4617538245876425"><ele>1015.6000000000001</ele><time>2026-04-20T14:30:27.999Z</time></trkpt><trkpt lat="38.171410485823955" lon="-2.4618436429571564"><ele>1021.4</ele><time>2026-04-20T14:30:28.999Z</time></trkpt><trkpt lat="38.17135307352671" lon="-2.461944181342565"><ele>1027.2</ele><time>2026-04-20T14:30:29.999Z</time></trkpt><trkpt lat="38.17130777527391" lon="-2.4620479353080116"><ele>1033.0</ele><time>2026-04-20T14:30:30.999Z</time></trkpt><trkpt lat="38.171266236538095" lon="-2.462160639678293"><ele>1033.0</ele><time>2026-04-20T14:30:31.999Z</time></trkpt><trkpt lat="38.171277627119615" lon="-2.462285050444157"><ele>1033.0</ele><time>2026-04-20T14:30:32.999Z</time></trkpt><trkpt lat="38.171257565943826" lon="-2.4624284141222876"><ele>1033.0</ele><time>2026-04-20T14:30:33.999Z</time></trkpt><trkpt lat="38.17122185215512" lon="-2.4625769818891063"><ele>1033.0</ele><time>2026-04-20T14:30:34.999Z</time></trkpt><trkpt lat="38.171188815153634" lon="-2.462729577746376"><ele>1033.0</ele><time>2026-04-20T14:30:35.999Z</time></trkpt><trkpt lat="38.17115070033743" lon="-2.4628866812632517"><ele>1033.0</ele><time>2026-04-20T14:30:36.999Z</time></trkpt><trkpt lat="38.171109913322134" lon="-2.4630473853809858"><ele>1033.0</ele><time>2026-04-20T14:30:37.999Z</time></trkpt><trkpt lat="38.17108114939959" lon="-2.4632084003691412"><ele>1033.0</ele><time>2026-04-20T14:30:38.999Z</time></trkpt><trkpt lat="38.17106112323879" lon="-2.4633711144080315"><ele>1028.5</ele><time>2026-04-20T14:30:39.999Z</time></trkpt><trkpt lat="38.17104085481677" lon="-2.463538253729484"><ele>1024.0</ele><time>2026-04-20T14:30:40.999Z</time></trkpt><trkpt lat="38.17102419682261" lon="-2.463704070416545"><ele>1019.5</ele><time>2026-04-20T14:30:41.999Z</time></trkpt><trkpt lat="38.17100575052688" lon="-2.463865917669279"><ele>1015.0</ele><time>2026-04-20T14:30:42.999Z</time></trkpt><trkpt lat="38.17099287959728" lon="-2.4640209482892614"><ele>1014.2</ele><time>2026-04-20T14:30:43.999Z</time></trkpt><trkpt lat="38.170991942908245" lon="-2.464178641175481"><ele>1013.4</ele><time>2026-04-20T14:30:44.999Z</time></trkpt><trkpt lat="38.17098508987962" lon="-2.464327687037379"><ele>1012.5999999999999</ele><time>2026-04-20T14:30:45.999Z</time></trkpt><trkpt lat="38.17098085081335" lon="-2.4644644740912587"><ele>1011.8</ele><time>2026-04-20T14:30:46.999Z</time></trkpt><trkpt lat="38.17097135808971" lon="-2.464584833174104"><ele>1011.0</ele><time>2026-04-20T14:30:47.999Z</time></trkpt><trkpt lat="38.170948615404406" lon="-2.4646948918705998"><ele>1011.0</ele><time>2026-04-20T14:30:48.999Z</time></trkpt><trkpt lat="38.17091021233312" lon="-2.464802453086922"><ele>1010.9999999999999</ele><time>2026-04-20T14:30:49.999Z</time></trkpt><trkpt lat="38.17083921652989" lon="-2.4649015978176396"><ele>1010.9999999999999</ele><time>2026-04-20T14:30:50.999Z</time></trkpt><trkpt lat="38.170746435590786" lon="-2.4649849417857936"><ele>1011.0</ele><time>2026-04-20T14:30:51.999Z</time></trkpt><trkpt lat="38.170640592202446" lon="-2.4650631426339142"><ele>1011.0</ele><time>2026-04-20T14:30:52.999Z</time></trkpt><trkpt lat="38.170536785332246" lon="-2.4651559790168838"><ele>1011.0</ele><time>2026-04-20T14:30:53.999Z</time></trkpt><trkpt lat="38.170434029116485" lon="-2.465248629057532"><ele>1011.0</ele><time>2026-04-20T14:30:54.999Z</time></trkpt><trkpt lat="38.170331260164275" lon="-2.4653267086726314"><ele>1011.0</ele><time>2026-04-20T14:30:55.999Z</time></trkpt><trkpt lat="38.17023181398421" lon="-2.465393429379107"><ele>1011.0</ele><time>2026-04-20T14:30:56.999Z</time></trkpt><trkpt lat="38.170134771462735" lon="-2.465448029101952"><ele>1008.5</ele><time>2026-04-20T14:30:57.999Z</time></trkpt><trkpt lat="38.17002972194588" lon="-2.465468771120685"><ele>1006.0</ele><time>2026-04-20T14:30:58.999Z</time></trkpt><trkpt lat="38.16991905706041" lon="-2.4654496217682214"><ele>1003.5</ele><time>2026-04-20T14:30:59.999Z</time></trkpt><trkpt lat="38.16980620349104" lon="-2.4653995733053686"><ele>1001.0</ele><time>2026-04-20T14:31:00.999Z</time></trkpt><trkpt lat="38.16969107618867" lon="-2.465374140838568"><ele>1001.0</ele><time>2026-04-20T14:31:01.999Z</time></trkpt><trkpt lat="38.16958012888942" lon="-2.465378221323556"><ele>1000.9999999999999</ele><time>2026-04-20T14:31:02.999Z</time></trkpt><trkpt lat="38.169476261786876" lon="-2.465407302242258"><ele>1000.9999999999999</ele><time>2026-04-20T14:31:03.999Z</time></trkpt><trkpt lat="38.16937734130096" lon="-2.4654384192540535"><ele>1001.0</ele><time>2026-04-20T14:31:04.999Z</time></trkpt><trkpt lat="38.16929876058338" lon="-2.4654292814377654"><ele>1001.0</ele><time>2026-04-20T14:31:05.999Z</time></trkpt><trkpt lat="38.16922784419713" lon="-2.465359060191073"><ele>1001.0</ele><time>2026-04-20T14:31:06.999Z</time></trkpt><trkpt lat="38.16917272213679" lon="-2.465258916378485"><ele>1000.9999999999999</ele><time>2026-04-20T14:31:07.999Z</time></trkpt><trkpt lat="38.16910692944859" lon="-2.4651962956672744"><ele>1000.9999999999999</ele><time>2026-04-20T14:31:08.999Z</time></trkpt><trkpt lat="38.169030618471574" lon="-2.4651839010329804"><ele>1001.0</ele><time>2026-04-20T14:31:09.999Z</time></trkpt><trkpt lat="38.168960668138354" lon="-2.465279402184479"><ele>1001.0</ele><time>2026-04-20T14:31:10.999Z</time></trkpt><trkpt lat="38.16886642250794" lon="-2.4652977303627335"><ele>1002.25</ele><time>2026-04-20T14:31:11.999Z</time></trkpt><trkpt lat="38.16875552792361" lon="-2.465327380561185"><ele>1003.5</ele><time>2026-04-20T14:31:12.999Z</time></trkpt><trkpt lat="38.16863664362389" lon="-2.465335080469644"><ele>1004.75</ele><time>2026-04-20T14:31:13.999Z</time></trkpt><trkpt lat="38.16851899174201" lon="-2.46533933330845"><ele>1006.0</ele><time>2026-04-20T14:31:14.999Z</time></trkpt><trkpt lat="38.16841041892293" lon="-2.465391624269145"><ele>1006.0</ele><time>2026-04-20T14:31:15.999Z</time></trkpt><trkpt lat="38.168283237168865" lon="-2.4654237483950268"><ele>1006.0</ele><time>2026-04-20T14:31:16.999Z</time></trkpt><trkpt lat="38.16816133084766" lon="-2.465446364343548"><ele>1006.0</ele><time>2026-04-20T14:31:17.999Z</time></trkpt><trkpt lat="38.16803098617955" lon="-2.465464042131284"><ele>1006.0</ele><time>2026-04-20T14:31:18.999Z</time></trkpt><trkpt lat="38.16790927081086" lon="-2.4654976813635447"><ele>997.25</ele><time>2026-04-20T14:31:19.999Z</time></trkpt><trkpt lat="38.167792817094686" lon="-2.465538835100063"><ele>988.5</ele><time>2026-04-20T14:31:20.999Z</time></trkpt><trkpt lat="38.167677836994805" lon="-2.465563383226633"><ele>979.75</ele><time>2026-04-20T14:31:21.999Z</time></trkpt><trkpt lat="38.16755924088883" lon="-2.4655602311641105"><ele>971.0</ele><time>2026-04-20T14:31:22.999Z</time></trkpt><trkpt lat="38.167440350518596" lon="-2.465519403845953"><ele>974.1999999999999</ele><time>2026-04-20T14:31:23.999Z</time></trkpt><trkpt lat="38.16732298830516" lon="-2.4654588335890244"><ele>977.3999999999999</ele><time>2026-04-20T14:31:24.999Z</time></trkpt><trkpt lat="38.16721922921898" lon="-2.465387893426078"><ele>980.6</ele><time>2026-04-20T14:31:25.999Z</time></trkpt><trkpt lat="38.16712569529514" lon="-2.465333779908531"><ele>983.8</ele><time>2026-04-20T14:31:26.999Z</time></trkpt><trkpt lat="38.167036519894076" lon="-2.465305005752565"><ele>987.0</ele><time>2026-04-20T14:31:27.999Z</time></trkpt><trkpt lat="38.166948906564265" lon="-2.4653208110118476"><ele>987.0</ele><time>2026-04-20T14:31:28.999Z</time></trkpt><trkpt lat="38.16688742984606" lon="-2.4654139557863917"><ele>987.0</ele><time>2026-04-20T14:31:29.999Z</time></trkpt><trkpt lat="38.16689725872643" lon="-2.465518626640489"><ele>987.0</ele><time>2026-04-20T14:31:30.999Z</time></trkpt><trkpt lat="38.16687197734519" lon="-2.4656288438653164"><ele>987.0</ele><time>2026-04-20T14:31:31.999Z</time></trkpt><trkpt lat="38.166852278450705" lon="-2.465779913392408"><ele>987.0</ele><time>2026-04-20T14:31:32.999Z</time></trkpt><trkpt lat="38.166844740325196" lon="-2.4659264141231096"><ele>987.0</ele><time>2026-04-20T14:31:33.999Z</time></trkpt><trkpt lat="38.166856053867875" lon="-2.466056178278701"><ele>987.0</ele><time>2026-04-20T14:31:34.999Z</time></trkpt><trkpt lat="38.166896795823185" lon="-2.466170314531157"><ele>987.0</ele><time>2026-04-20T14:31:35.999Z</time></trkpt><trkpt lat="38.16693631539368" lon="-2.46629812912786"><ele>987.0</ele><time>2026-04-20T14:31:36.999Z</time></trkpt><trkpt lat="38.16697247309641" lon="-2.466412810999711"><ele>987.0</ele><time>2026-04-20T14:31:37.999Z</time></trkpt><trkpt lat="38.1670004887944" lon="-2.4665271309526795"><ele>985.25</ele><time>2026-04-20T14:31:38.999Z</time></trkpt><trkpt lat="38.167007354073114" lon="-2.4666564487458813"><ele>983.5</ele><time>2026-04-20T14:31:39.999Z</time></trkpt><trkpt lat="38.16696890191201" lon="-2.4667893749527403"><ele>981.75</ele><time>2026-04-20T14:31:40.999Z</time></trkpt><trkpt lat="38.16693317894418" lon="-2.4669309280053424"><ele>980.0</ele><time>2026-04-20T14:31:41.999Z</time></trkpt><trkpt lat="38.166913085467" lon="-2.4670857339999013"><ele>978.0</ele><time>2026-04-20T14:31:42.999Z</time></trkpt><trkpt lat="38.16689121573786" lon="-2.467231315039457"><ele>976.0</ele><time>2026-04-20T14:31:43.999Z</time></trkpt><trkpt lat="38.16687666644434" lon="-2.4673823354587823"><ele>974.0</ele><time>2026-04-20T14:31:44.999Z</time></trkpt><trkpt lat="38.1668437127326" lon="-2.4675230533836734"><ele>972.0</ele><time>2026-04-20T14:31:45.999Z</time></trkpt><trkpt lat="38.166827344195106" lon="-2.4676613520244257"><ele>972.0</ele><time>2026-04-20T14:31:46.999Z</time></trkpt><trkpt lat="38.166776647351426" lon="-2.4678055486595807"><ele>972.0</ele><time>2026-04-20T14:31:47.999Z</time></trkpt><trkpt lat="38.16668742098495" lon="-2.46794766010497"><ele>972.0</ele><time>2026-04-20T14:31:48.999Z</time></trkpt><trkpt lat="38.16658744206693" lon="-2.4680860248121714"><ele>972.0</ele><time>2026-04-20T14:31:49.999Z</time></trkpt><trkpt lat="38.16649366194854" lon="-2.468227491666995"><ele>972.2</ele><time>2026-04-20T14:31:50.999Z</time></trkpt><trkpt lat="38.166407497483846" lon="-2.468349342460524"><ele>972.4000000000001</ele><time>2026-04-20T14:31:51.999Z</time></trkpt><trkpt lat="38.16634330295103" lon="-2.4684598796189268"><ele>972.5999999999999</ele><time>2026-04-20T14:31:52.999Z</time></trkpt><trkpt lat="38.16628310495393" lon="-2.4685454128053665"><ele>972.8</ele><time>2026-04-20T14:31:53.999Z</time></trkpt><trkpt lat="38.16620761160014" lon="-2.4685958825590504"><ele>973.0</ele><time>2026-04-20T14:31:54.999Z</time></trkpt><trkpt lat="38.16610725361162" lon="-2.4686044068849156"><ele>973.0</ele><time>2026-04-20T14:31:55.999Z</time></trkpt><trkpt lat="38.16599557401107" lon="-2.4685860779308864"><ele>973.0</ele><time>2026-04-20T14:31:56.999Z</time></trkpt><trkpt lat="38.16587278513275" lon="-2.4685365239113137"><ele>973.0</ele><time>2026-04-20T14:31:57.999Z</time></trkpt><trkpt lat="38.16574177658065" lon="-2.4685407702185587"><ele>973.0</ele><time>2026-04-20T14:31:58.999Z</time></trkpt><trkpt lat="38.16560440010856" lon="-2.4685730398885997"><ele>976.0</ele><time>2026-04-20T14:31:59.999Z</time></trkpt><trkpt lat="38.16547343675621" lon="-2.4686333764799127"><ele>979.0</ele><time>2026-04-20T14:32:00.999Z</time></trkpt><trkpt lat="38.165360546119445" lon="-2.468739531318236"><ele>982.0</ele><time>2026-04-20T14:32:01.997Z</time></trkpt><trkpt lat="38.16525656856492" lon="-2.4688064965812986"><ele>985.0</ele><time>2026-04-20T14:32:02.997Z</time></trkpt><trkpt lat="38.16514511167816" lon="-2.468834747745438"><ele>980.0</ele><time>2026-04-20T14:32:03.997Z</time></trkpt><trkpt lat="38.16503040722647" lon="-2.4688100801947"><ele>975.0</ele><time>2026-04-20T14:32:04.997Z</time></trkpt><trkpt lat="38.164932640913946" lon="-2.4688268340053448"><ele>970.0</ele><time>2026-04-20T14:32:05.997Z</time></trkpt><trkpt lat="38.16483151571041" lon="-2.468843977967738"><ele>965.0</ele><time>2026-04-20T14:32:06.997Z</time></trkpt><trkpt lat="38.16474906447456" lon="-2.468943923141038"><ele>960.0</ele><time>2026-04-20T14:32:07.997Z</time></trkpt><trkpt lat="38.16466033710973" lon="-2.4690133183140524"><ele>960.0</ele><time>2026-04-20T14:32:08.997Z</time></trkpt><trkpt lat="38.164574666138655" lon="-2.469089920200928"><ele>960.0</ele><time>2026-04-20T14:32:09.997Z</time></trkpt><trkpt lat="38.1644858451223" lon="-2.4691532871865123"><ele>960.0</ele><time>2026-04-20T14:32:10.998Z</time></trkpt><trkpt lat="38.16439880058321" lon="-2.469189388909512"><ele>960.0</ele><time>2026-04-20T14:32:11.998Z</time></trkpt><trkpt lat="38.16428958624137" lon="-2.4692189787318455"><ele>960.0</ele><time>2026-04-20T14:32:12.998Z</time></trkpt><trkpt lat="38.16417226898255" lon="-2.469234118672011"><ele>960.0</ele><time>2026-04-20T14:32:13.998Z</time></trkpt><trkpt lat="38.16405793502251" lon="-2.4692735584084815"><ele>960.0</ele><time>2026-04-20T14:32:14.998Z</time></trkpt><trkpt lat="38.16394918466649" lon="-2.469330964502514"><ele>960.0</ele><time>2026-04-20T14:32:15.998Z</time></trkpt><trkpt lat="38.16386336107606" lon="-2.469429748639348"><ele>960.0</ele><time>2026-04-20T14:32:16.998Z</time></trkpt><trkpt lat="38.163764204670436" lon="-2.469490284883105"><ele>959.25</ele><time>2026-04-20T14:32:17.998Z</time></trkpt><trkpt lat="38.163666286379566" lon="-2.4695732284877785"><ele>958.5</ele><time>2026-04-20T14:32:18.998Z</time></trkpt><trkpt lat="38.163572213916076" lon="-2.4696769883168606"><ele>957.75</ele><time>2026-04-20T14:32:19.998Z</time></trkpt><trkpt lat="38.16349555348105" lon="-2.469793521439832"><ele>957.0</ele><time>2026-04-20T14:32:20.998Z</time></trkpt><trkpt lat="38.16340122391032" lon="-2.4699149709093713"><ele>957.0</ele><time>2026-04-20T14:32:21.998Z</time></trkpt><trkpt lat="38.16331141414272" lon="-2.4700399602191965"><ele>957.0</ele><time>2026-04-20T14:32:22.998Z</time></trkpt><trkpt lat="38.163214432286985" lon="-2.470159707422509"><ele>957.0</ele><time>2026-04-20T14:32:23.998Z</time></trkpt><trkpt lat="38.16311634593845" lon="-2.4702613940056573"><ele>957.0</ele><time>2026-04-20T14:32:24.998Z</time></trkpt><trkpt lat="38.16302285454333" lon="-2.4703402947590574"><ele>957.4000000000001</ele><time>2026-04-20T14:32:25.998Z</time></trkpt><trkpt lat="38.162919986421194" lon="-2.470392126863306"><ele>957.8000000000001</ele><time>2026-04-20T14:32:26.998Z</time></trkpt><trkpt lat="38.16282452362448" lon="-2.470441174429393"><ele>958.2</ele><time>2026-04-20T14:32:27.998Z</time></trkpt><trkpt lat="38.1627458528898" lon="-2.4705180851858755"><ele>958.6</ele><time>2026-04-20T14:32:28.999Z</time></trkpt><trkpt lat="38.162688459506974" lon="-2.470646951254104"><ele>959.0</ele><time>2026-04-20T14:32:29.999Z</time></trkpt><trkpt lat="38.16261706510129" lon="-2.470786053065286"><ele>959.0</ele><time>2026-04-20T14:32:30.999Z</time></trkpt><trkpt lat="38.162527504254804" lon="-2.470885346126328"><ele>959.0</ele><time>2026-04-20T14:32:31.999Z</time></trkpt><trkpt lat="38.16242484217741" lon="-2.470985959780284"><ele>959.0</ele><time>2026-04-20T14:32:32.999Z</time></trkpt><trkpt lat="38.162343339756575" lon="-2.4711164135506305"><ele>959.0</ele><time>2026-04-20T14:32:33.999Z</time></trkpt><trkpt lat="38.16225659652943" lon="-2.4712253098196526"><ele>962.6</ele><time>2026-04-20T14:32:34.999Z</time></trkpt><trkpt lat="38.16217330917309" lon="-2.471328676545447"><ele>966.2</ele><time>2026-04-20T14:32:35.999Z</time></trkpt><trkpt lat="38.16209646148907" lon="-2.4714263343999376"><ele>969.8000000000001</ele><time>2026-04-20T14:32:36.999Z</time></trkpt><trkpt lat="38.16204294987991" lon="-2.471544550844556"><ele>973.4000000000001</ele><time>2026-04-20T14:32:37.999Z</time></trkpt><trkpt lat="38.16198687873487" lon="-2.4716744275481832"><ele>977.0</ele><time>2026-04-20T14:32:38.999Z</time></trkpt><trkpt lat="38.16195167905609" lon="-2.4718172426409293"><ele>977.0</ele><time>2026-04-20T14:32:39.999Z</time></trkpt><trkpt lat="38.161891248543334" lon="-2.4719348942028523"><ele>977.0</ele><time>2026-04-20T14:32:40.999Z</time></trkpt><trkpt lat="38.16185762643589" lon="-2.4720567862573954"><ele>977.0</ele><time>2026-04-20T14:32:41.999Z</time></trkpt><trkpt lat="38.161818064409864" lon="-2.472165107235971"><ele>977.0</ele><time>2026-04-20T14:32:42.999Z</time></trkpt><trkpt lat="38.16180552332422" lon="-2.4722756146471228"><ele>977.0</ele><time>2026-04-20T14:32:43.999Z</time></trkpt><trkpt lat="38.161822162157094" lon="-2.472378969239322"><ele>972.6</ele><time>2026-04-20T14:32:44.999Z</time></trkpt><trkpt lat="38.161866453256295" lon="-2.4724701101519257"><ele>968.2</ele><time>2026-04-20T14:32:45.999Z</time></trkpt><trkpt lat="38.161961291016965" lon="-2.472505476158982"><ele>963.8</ele><time>2026-04-20T14:32:46.999Z</time></trkpt><trkpt lat="38.16206258012373" lon="-2.472538707308429"><ele>959.4</ele><time>2026-04-20T14:32:47.999Z</time></trkpt><trkpt lat="38.162168061464634" lon="-2.4725791359078144"><ele>955.0</ele><time>2026-04-20T14:32:48.999Z</time></trkpt><trkpt lat="38.162270931783425" lon="-2.4726317040554218"><ele>955.0</ele><time>2026-04-20T14:32:49.999Z</time></trkpt><trkpt lat="38.16235844079548" lon="-2.472668154837724"><ele>955.0</ele><time>2026-04-20T14:32:50.999Z</time></trkpt><trkpt lat="38.162431361341916" lon="-2.4726891244223705"><ele>955.0</ele><time>2026-04-20T14:32:51.999Z</time></trkpt><trkpt lat="38.162579461776126" lon="-2.4726101427676324"><ele>955.0</ele><time>2026-04-20T14:32:53.999Z</time></trkpt><trkpt lat="38.16265801988518" lon="-2.4725236689031496"><ele>955.0</ele><time>2026-04-20T14:32:54.999Z</time></trkpt><trkpt lat="38.16274638950036" lon="-2.4724260961202202"><ele>955.25</ele><time>2026-04-20T14:32:55.999Z</time></trkpt><trkpt lat="38.16284266731198" lon="-2.47231476589"><ele>955.5</ele><time>2026-04-20T14:32:56.999Z</time></trkpt><trkpt lat="38.162944509034986" lon="-2.4722009966803564"><ele>955.75</ele><time>2026-04-20T14:32:57.999Z</time></trkpt><trkpt lat="38.163040117692724" lon="-2.4720901410576284"><ele>956.0</ele><time>2026-04-20T14:32:58.999Z</time></trkpt><trkpt lat="38.16314162587491" lon="-2.4719808398583383"><ele>957.5</ele><time>2026-04-20T14:32:59.999Z</time></trkpt><trkpt lat="38.1632485304279" lon="-2.471875148982887"><ele>959.0</ele><time>2026-04-20T14:33:00.999Z</time></trkpt><trkpt lat="38.16336241782545" lon="-2.471767230415752"><ele>960.5</ele><time>2026-04-20T14:33:01.999Z</time></trkpt><trkpt lat="38.16348597006249" lon="-2.471666860637827"><ele>962.0</ele><time>2026-04-20T14:33:02.999Z</time></trkpt><trkpt lat="38.16361429498184" lon="-2.47157522803764"><ele>962.0</ele><time>2026-04-20T14:33:03.999Z</time></trkpt><trkpt lat="38.163746667850816" lon="-2.4714778414528342"><ele>962.0</ele><time>2026-04-20T14:33:04.999Z</time></trkpt><trkpt lat="38.16387549838555" lon="-2.47137093480933"><ele>962.0</ele><time>2026-04-20T14:33:05.999Z</time></trkpt><trkpt lat="38.164003352055104" lon="-2.471259526385461"><ele>961.6666666666667</ele><time>2026-04-20T14:33:06.999Z</time></trkpt><trkpt lat="38.16413345581856" lon="-2.4711527694759625"><ele>961.3333333333333</ele><time>2026-04-20T14:33:07.999Z</time></trkpt><trkpt lat="38.16427454823601" lon="-2.4710539490525965"><ele>961.0</ele><time>2026-04-20T14:33:08.999Z</time></trkpt><trkpt lat="38.16441143708231" lon="-2.4709596111532357"><ele>961.0</ele><time>2026-04-20T14:33:09.999Z</time></trkpt><trkpt lat="38.164540192820446" lon="-2.4708686781982556"><ele>961.0</ele><time>2026-04-20T14:33:10.999Z</time></trkpt><trkpt lat="38.164664376879486" lon="-2.470772453851822"><ele>961.0</ele><time>2026-04-20T14:33:11.999Z</time></trkpt><trkpt lat="38.164786635099595" lon="-2.470681163420403"><ele>961.0</ele><time>2026-04-20T14:33:12.999Z</time></trkpt><trkpt lat="38.164931982533545" lon="-2.470624517815357"><ele>966.75</ele><time>2026-04-20T14:33:13.999Z</time></trkpt><trkpt lat="38.165073864255234" lon="-2.470586833471904"><ele>972.5</ele><time>2026-04-20T14:33:14.999Z</time></trkpt><trkpt lat="38.1652161051937" lon="-2.470531535226634"><ele>978.25</ele><time>2026-04-20T14:33:15.999Z</time></trkpt><trkpt lat="38.165369138871455" lon="-2.470503643896607"><ele>984.0</ele><time>2026-04-20T14:33:16.999Z</time></trkpt><trkpt lat="38.165518658119524" lon="-2.4704872839425893"><ele>984.0</ele><time>2026-04-20T14:33:17.999Z</time></trkpt><trkpt lat="38.16567335657146" lon="-2.4704876649412215"><ele>984.0</ele><time>2026-04-20T14:33:18.999Z</time></trkpt><trkpt lat="38.165829943499304" lon="-2.470494951038458"><ele>984.0</ele><time>2026-04-20T14:33:19.999Z</time></trkpt><trkpt lat="38.165988697799186" lon="-2.4705112679586927"><ele>989.6666666666667</ele><time>2026-04-20T14:33:20.999Z</time></trkpt><trkpt lat="38.166138927178636" lon="-2.4705336075143847"><ele>995.3333333333334</ele><time>2026-04-20T14:33:21.999Z</time></trkpt><trkpt lat="38.16628766548523" lon="-2.470593667691437"><ele>1001.0</ele><time>2026-04-20T14:33:22.999Z</time></trkpt><trkpt lat="38.166426921882646" lon="-2.470661078883327"><ele>1000.0</ele><time>2026-04-20T14:33:23.999Z</time></trkpt><trkpt lat="38.166578657259265" lon="-2.4707107045944943"><ele>999.0</ele><time>2026-04-20T14:33:24.999Z</time></trkpt><trkpt lat="38.166721265104265" lon="-2.470739562895942"><ele>998.0</ele><time>2026-04-20T14:33:25.999Z</time></trkpt><trkpt lat="38.16685585550024" lon="-2.4707385334540204"><ele>997.0</ele><time>2026-04-20T14:33:26.999Z</time></trkpt><trkpt lat="38.16699679156374" lon="-2.4707172160831665"><ele>997.0</ele><time>2026-04-20T14:33:27.999Z</time></trkpt><trkpt lat="38.167120221459435" lon="-2.470678426845099"><ele>997.0</ele><time>2026-04-20T14:33:28.999Z</time></trkpt><trkpt lat="38.16723226416766" lon="-2.4706216790184095"><ele>997.0</ele><time>2026-04-20T14:33:29.999Z</time></trkpt><trkpt lat="38.16731539978607" lon="-2.470522381321475"><ele>997.0</ele><time>2026-04-20T14:33:30.999Z</time></trkpt><trkpt lat="38.16738630847442" lon="-2.470395318516389"><ele>994.0</ele><time>2026-04-20T14:33:31.999Z</time></trkpt><trkpt lat="38.16745895193148" lon="-2.4702371672296253"><ele>991.0</ele><time>2026-04-20T14:33:32.999Z</time></trkpt><trkpt lat="38.16756026238277" lon="-2.470108098013504"><ele>988.0</ele><time>2026-04-20T14:33:33.999Z</time></trkpt><trkpt lat="38.16766198095562" lon="-2.469971437628124"><ele>985.0</ele><time>2026-04-20T14:33:34.999Z</time></trkpt><trkpt lat="38.167767867921135" lon="-2.4698304920933936"><ele>985.0</ele><time>2026-04-20T14:33:35.999Z</time></trkpt><trkpt lat="38.16786271175303" lon="-2.469676965859997"><ele>985.0</ele><time>2026-04-20T14:33:36.999Z</time></trkpt><trkpt lat="38.167939003607195" lon="-2.4695285415523696"><ele>985.0</ele><time>2026-04-20T14:33:37.999Z</time></trkpt><trkpt lat="38.16800583220697" lon="-2.4694021822392744"><ele>985.0</ele><time>2026-04-20T14:33:38.999Z</time></trkpt><trkpt lat="38.16806825746508" lon="-2.4692886475636766"><ele>985.8</ele><time>2026-04-20T14:33:39.999Z</time></trkpt><trkpt lat="38.16814204669758" lon="-2.4692102546060055"><ele>986.6</ele><time>2026-04-20T14:33:40.999Z</time></trkpt><trkpt lat="38.168236937603325" lon="-2.4691893845960933"><ele>987.4000000000001</ele><time>2026-04-20T14:33:41.999Z</time></trkpt><trkpt lat="38.168351735293506" lon="-2.469196570417971"><ele>988.2</ele><time>2026-04-20T14:33:42.999Z</time></trkpt><trkpt lat="38.16846740621117" lon="-2.469241026365699"><ele>989.0</ele><time>2026-04-20T14:33:43.999Z</time></trkpt><trkpt lat="38.168583309863656" lon="-2.4693097265728903"><ele>989.0</ele><time>2026-04-20T14:33:44.999Z</time></trkpt><trkpt lat="38.1686876121959" lon="-2.4693981622218355"><ele>989.0</ele><time>2026-04-20T14:33:45.999Z</time></trkpt><trkpt lat="38.1687642497034" lon="-2.469536241677358"><ele>989.0</ele><time>2026-04-20T14:33:46.999Z</time></trkpt><trkpt lat="38.1688449714883" lon="-2.469680396656064"><ele>989.0</ele><time>2026-04-20T14:33:47.999Z</time></trkpt><trkpt lat="38.16892036014212" lon="-2.469826713117805"><ele>992.5</ele><time>2026-04-20T14:33:48.999Z</time></trkpt><trkpt lat="38.169014750963086" lon="-2.469982009601894"><ele>996.0</ele><time>2026-04-20T14:33:49.999Z</time></trkpt><trkpt lat="38.16910152194248" lon="-2.4701273977206437"><ele>999.5</ele><time>2026-04-20T14:33:50.999Z</time></trkpt><trkpt lat="38.16918285094909" lon="-2.4702445860902387"><ele>1003.0</ele><time>2026-04-20T14:33:51.999Z</time></trkpt><trkpt lat="38.16926731862705" lon="-2.470352903192596"><ele>1003.0</ele><time>2026-04-20T14:33:52.999Z</time></trkpt><trkpt lat="38.16938844580673" lon="-2.4704206009532337"><ele>1003.0</ele><time>2026-04-20T14:33:53.999Z</time></trkpt><trkpt lat="38.169530242077066" lon="-2.4704134753085745"><ele>1003.0</ele><time>2026-04-20T14:33:54.999Z</time></trkpt><trkpt lat="38.169657733719106" lon="-2.4703432423374077"><ele>1003.0</ele><time>2026-04-20T14:33:55.999Z</time></trkpt><trkpt lat="38.16977167859676" lon="-2.470263821692173"><ele>1003.2</ele><time>2026-04-20T14:33:56.999Z</time></trkpt><trkpt lat="38.16986406091079" lon="-2.4702026405514967"><ele>1003.4</ele><time>2026-04-20T14:33:57.999Z</time></trkpt><trkpt lat="38.16995412215537" lon="-2.4701865871967517"><ele>1003.6000000000001</ele><time>2026-04-20T14:33:58.999Z</time></trkpt><trkpt lat="38.17004751176223" lon="-2.4702114328228078"><ele>1003.8000000000001</ele><time>2026-04-20T14:33:59.999Z</time></trkpt><trkpt lat="38.170128339173566" lon="-2.470277268193275"><ele>1004.0</ele><time>2026-04-20T14:34:00.999Z</time></trkpt><trkpt lat="38.17017698589683" lon="-2.470389274429163"><ele>1007.75</ele><time>2026-04-20T14:34:01.999Z</time></trkpt><trkpt lat="38.17019476489838" lon="-2.4705134519367093"><ele>1011.5</ele><time>2026-04-20T14:34:02.999Z</time></trkpt><trkpt lat="38.17018015058769" lon="-2.470637618164727"><ele>1015.25</ele><time>2026-04-20T14:34:03.999Z</time></trkpt><trkpt lat="38.17014382170978" lon="-2.470772878189851"><ele>1019.0</ele><time>2026-04-20T14:34:04.999Z</time></trkpt><trkpt lat="38.17000991967768" lon="-2.4708642340735927"><ele>1022.6666666666667</ele><time>2026-04-20T14:34:05.999Z</time></trkpt><trkpt lat="38.16985739873947" lon="-2.470911697065651"><ele>1026.3333333333333</ele><time>2026-04-20T14:34:06.999Z</time></trkpt><trkpt lat="38.16971288482616" lon="-2.47089780646774"><ele>1030.0</ele><time>2026-04-20T14:34:07.998Z</time></trkpt><trkpt lat="38.169553964969" lon="-2.4708788339779955"><ele>1030.0</ele><time>2026-04-20T14:34:08.998Z</time></trkpt><trkpt lat="38.16939552168278" lon="-2.470864291254142"><ele>1030.0</ele><time>2026-04-20T14:34:09.998Z</time></trkpt><trkpt lat="38.16921246950451" lon="-2.4708472327302053"><ele>1030.0</ele><time>2026-04-20T14:34:10.998Z</time></trkpt><trkpt lat="38.169056646100294" lon="-2.4708114866777544"><ele>1029.0</ele><time>2026-04-20T14:34:11.998Z</time></trkpt><trkpt lat="38.16892493230597" lon="-2.4706399594523587"><ele>1028.0</ele><time>2026-04-20T14:34:12.999Z</time></trkpt><trkpt lat="38.16884159919764" lon="-2.4704881359559865"><ele>1027.0</ele><time>2026-04-20T14:34:13.999Z</time></trkpt><trkpt lat="38.16874511637777" lon="-2.4703750200005916"><ele>1027.0</ele><time>2026-04-20T14:34:14.999Z</time></trkpt><trkpt lat="38.1686515884766" lon="-2.470280467359179"><ele>1027.0</ele><time>2026-04-20T14:34:15.999Z</time></trkpt><trkpt lat="38.168572384492414" lon="-2.470230556047387"><ele>1027.0</ele><time>2026-04-20T14:34:16.999Z</time></trkpt><trkpt lat="38.16846919193683" lon="-2.4702798793910943"><ele>1027.0</ele><time>2026-04-20T14:34:18.999Z</time></trkpt><trkpt lat="38.16846797262074" lon="-2.470415852799009"><ele>1027.0</ele><time>2026-04-20T14:34:19.999Z</time></trkpt><trkpt lat="38.16845346761132" lon="-2.470557241954086"><ele>1027.0</ele><time>2026-04-20T14:34:20.999Z</time></trkpt><trkpt lat="38.16841217922575" lon="-2.47070457960838"><ele>1027.0</ele><time>2026-04-20T14:34:21.999Z</time></trkpt><trkpt lat="38.16835325925157" lon="-2.470858412319563"><ele>1027.0</ele><time>2026-04-20T14:34:22.999Z</time></trkpt><trkpt lat="38.168278316186495" lon="-2.4710143688992914"><ele>1027.0</ele><time>2026-04-20T14:34:23.999Z</time></trkpt><trkpt lat="38.168176119782316" lon="-2.47116577773952"><ele>1026.6666666666665</ele><time>2026-04-20T14:34:24.999Z</time></trkpt><trkpt lat="38.16807249713678" lon="-2.471309749247224"><ele>1026.3333333333333</ele><time>2026-04-20T14:34:25.999Z</time></trkpt><trkpt lat="38.16796788346817" lon="-2.4714732376235298"><ele>1026.0</ele><time>2026-04-20T14:34:26.999Z</time></trkpt><trkpt lat="38.16786788279285" lon="-2.471637652737088"><ele>1026.0</ele><time>2026-04-20T14:34:27.999Z</time></trkpt><trkpt lat="38.167753895628955" lon="-2.4717919479041077"><ele>1026.0</ele><time>2026-04-20T14:34:28.999Z</time></trkpt><trkpt lat="38.16763188802521" lon="-2.4719160867940606"><ele>1026.0</ele><time>2026-04-20T14:34:29.999Z</time></trkpt><trkpt lat="38.167530938599214" lon="-2.4720201682304346"><ele>1026.0</ele><time>2026-04-20T14:34:30.999Z</time></trkpt><trkpt lat="38.167416134519506" lon="-2.47209493398654"><ele>1026.0</ele><time>2026-04-20T14:34:31.999Z</time></trkpt><trkpt lat="38.16729582473031" lon="-2.4721227800723065"><ele>1026.0</ele><time>2026-04-20T14:34:32.999Z</time></trkpt><trkpt lat="38.167149036188746" lon="-2.4720664887749355"><ele>1026.0</ele><time>2026-04-20T14:34:33.999Z</time></trkpt><trkpt lat="38.16699987678054" lon="-2.472022970548035"><ele>1026.6666666666667</ele><time>2026-04-20T14:34:34.999Z</time></trkpt><trkpt lat="38.16684274980935" lon="-2.4719885837579634"><ele>1027.3333333333335</ele><time>2026-04-20T14:34:35.999Z</time></trkpt><trkpt lat="38.16668791858479" lon="-2.4719134929082314"><ele>1028.0</ele><time>2026-04-20T14:34:36.999Z</time></trkpt><trkpt lat="38.16653031920318" lon="-2.4718387807595086"><ele>1029.25</ele><time>2026-04-20T14:34:37.999Z</time></trkpt><trkpt lat="38.16637873210207" lon="-2.471796328808376"><ele>1030.5</ele><time>2026-04-20T14:34:38.999Z</time></trkpt><trkpt lat="38.166251908453575" lon="-2.4717630864883464"><ele>1031.75</ele><time>2026-04-20T14:34:39.999Z</time></trkpt><trkpt lat="38.16614975671055" lon="-2.471742367707158"><ele>1033.0</ele><time>2026-04-20T14:34:40.999Z</time></trkpt><trkpt lat="38.16606399298256" lon="-2.4717379205378704"><ele>1033.0</ele><time>2026-04-20T14:34:42Z</time></trkpt><trkpt lat="38.16599803052498" lon="-2.471743318541406"><ele>1033.0</ele><time>2026-04-20T14:34:43Z</time></trkpt><trkpt lat="38.16593816335538" lon="-2.471804756083905"><ele>1033.0</ele><time>2026-04-20T14:34:44Z</time></trkpt><trkpt lat="38.16587364113942" lon="-2.4718917239344105"><ele>1033.0</ele><time>2026-04-20T14:34:45Z</time></trkpt><trkpt lat="38.165836630811974" lon="-2.472019083798227"><ele>1033.0</ele><time>2026-04-20T14:34:46Z</time></trkpt><trkpt lat="38.16579546547562" lon="-2.472142732061359"><ele>1033.0</ele><time>2026-04-20T14:34:47Z</time></trkpt><trkpt lat="38.165777666019224" lon="-2.4722822774877447"><ele>1035.5</ele><time>2026-04-20T14:34:48Z</time></trkpt><trkpt lat="38.16578543532306" lon="-2.4724323404309905"><ele>1038.0</ele><time>2026-04-20T14:34:49Z</time></trkpt><trkpt lat="38.165794384509454" lon="-2.4725922737504495"><ele>1040.5</ele><time>2026-04-20T14:34:50Z</time></trkpt><trkpt lat="38.165794771500565" lon="-2.4727490502801435"><ele>1043.0</ele><time>2026-04-20T14:34:51Z</time></trkpt><trkpt lat="38.16578505568147" lon="-2.472898519426497"><ele>1042.5</ele><time>2026-04-20T14:34:52Z</time></trkpt><trkpt lat="38.16574992804391" lon="-2.4730584291832907"><ele>1042.0</ele><time>2026-04-20T14:34:53Z</time></trkpt><trkpt lat="38.16567840412634" lon="-2.473212066910665"><ele>1041.5</ele><time>2026-04-20T14:34:54Z</time></trkpt><trkpt lat="38.16560146004501" lon="-2.4733668604080816"><ele>1041.0</ele><time>2026-04-20T14:34:55Z</time></trkpt><trkpt lat="38.16550979722898" lon="-2.4735295250529727"><ele>1041.0</ele><time>2026-04-20T14:34:56Z</time></trkpt><trkpt lat="38.165404101943636" lon="-2.4736765874059414"><ele>1041.0</ele><time>2026-04-20T14:34:57Z</time></trkpt><trkpt lat="38.16529959616691" lon="-2.473828483022657"><ele>1041.0</ele><time>2026-04-20T14:34:58Z</time></trkpt><trkpt lat="38.16517859089521" lon="-2.473963429385176"><ele>1040.6666666666667</ele><time>2026-04-20T14:34:59Z</time></trkpt><trkpt lat="38.165053754800184" lon="-2.4740755527660916"><ele>1040.3333333333335</ele><time>2026-04-20T14:35:00Z</time></trkpt><trkpt lat="38.16493807625317" lon="-2.474203341171718"><ele>1040.0</ele><time>2026-04-20T14:35:01Z</time></trkpt><trkpt lat="38.16482311903822" lon="-2.4743171541167155"><ele>1040.0</ele><time>2026-04-20T14:35:02Z</time></trkpt><trkpt lat="38.16472032163153" lon="-2.4744475940388613"><ele>1040.0</ele><time>2026-04-20T14:35:03Z</time></trkpt><trkpt lat="38.164619170582796" lon="-2.4745930106316143"><ele>1040.0</ele><time>2026-04-20T14:35:04Z</time></trkpt><trkpt lat="38.16451706018886" lon="-2.474742867513169"><ele>1042.75</ele><time>2026-04-20T14:35:05Z</time></trkpt><trkpt lat="38.16440565801445" lon="-2.474879192424837"><ele>1045.5</ele><time>2026-04-20T14:35:06Z</time></trkpt><trkpt lat="38.164311782548964" lon="-2.4750091857694176"><ele>1048.25</ele><time>2026-04-20T14:35:07Z</time></trkpt><trkpt lat="38.1642171675949" lon="-2.475122074963242"><ele>1051.0</ele><time>2026-04-20T14:35:08Z</time></trkpt><trkpt lat="38.164082025720845" lon="-2.4751763482167934"><ele>1052.0</ele><time>2026-04-20T14:35:09Z</time></trkpt><trkpt lat="38.16395887055853" lon="-2.475237440001627"><ele>1053.0</ele><time>2026-04-20T14:35:10Z</time></trkpt><trkpt lat="38.16387546068328" lon="-2.4753419514289288"><ele>1054.0</ele><time>2026-04-20T14:35:11Z</time></trkpt><trkpt lat="38.163808904664506" lon="-2.4754586831336245"><ele>1055.0</ele><time>2026-04-20T14:35:12Z</time></trkpt><trkpt lat="38.16374178266392" lon="-2.4755888139487596"><ele>1055.0</ele><time>2026-04-20T14:35:13Z</time></trkpt><trkpt lat="38.16368120926474" lon="-2.4757094320462003"><ele>1055.0</ele><time>2026-04-20T14:35:14Z</time></trkpt><trkpt lat="38.16363487906375" lon="-2.475808620435229"><ele>1055.0</ele><time>2026-04-20T14:35:15Z</time></trkpt><trkpt lat="38.16360324679842" lon="-2.475883096036347"><ele>1055.0</ele><time>2026-04-20T14:35:16Z</time></trkpt><trkpt lat="38.16369382188757" lon="-2.4759468170850587"><ele>1055.0</ele><time>2026-04-20T14:35:20Z</time></trkpt><trkpt lat="38.16375820075938" lon="-2.475895528975174"><ele>1055.0</ele><time>2026-04-20T14:35:21Z</time></trkpt><trkpt lat="38.16383249133312" lon="-2.475833398744744"><ele>1055.0</ele><time>2026-04-20T14:35:22Z</time></trkpt><trkpt lat="38.16391123587173" lon="-2.475779826598441"><ele>1055.0</ele><time>2026-04-20T14:35:23Z</time></trkpt><trkpt lat="38.16398664680145" lon="-2.47573978416495"><ele>1055.0</ele><time>2026-04-20T14:35:24Z</time></trkpt><trkpt lat="38.16405134347294" lon="-2.475730681976051"><ele>1055.0</ele><time>2026-04-20T14:35:25Z</time></trkpt><trkpt lat="38.16411756937966" lon="-2.475759882332614"><ele>1055.0</ele><time>2026-04-20T14:35:26Z</time></trkpt><trkpt lat="38.16417281899015" lon="-2.4758092750248553"><ele>1055.0</ele><time>2026-04-20T14:35:27Z</time></trkpt><trkpt lat="38.16418717588002" lon="-2.4759243391167467"><ele>1056.0</ele><time>2026-04-20T14:35:28Z</time></trkpt><trkpt lat="38.1641532460438" lon="-2.4760464175751187"><ele>1057.0</ele><time>2026-04-20T14:35:29Z</time></trkpt><trkpt lat="38.16415236507084" lon="-2.476173370478551"><ele>1058.0</ele><time>2026-04-20T14:35:30Z</time></trkpt><trkpt lat="38.16412871341462" lon="-2.4763089390615654"><ele>1059.0</ele><time>2026-04-20T14:35:31Z</time></trkpt><trkpt lat="38.16407342846642" lon="-2.476432632224491"><ele>1060.0</ele><time>2026-04-20T14:35:32Z</time></trkpt><trkpt lat="38.16407657128294" lon="-2.4765709022532745"><ele>1061.6</ele><time>2026-04-20T14:35:33Z</time></trkpt><trkpt lat="38.16406750231465" lon="-2.4766901711610902"><ele>1063.2</ele><time>2026-04-20T14:35:34Z</time></trkpt><trkpt lat="38.16410658809271" lon="-2.476794787907069"><ele>1064.8</ele><time>2026-04-20T14:35:35Z</time></trkpt><trkpt lat="38.164149904375094" lon="-2.476898127275901"><ele>1066.4</ele><time>2026-04-20T14:35:36Z</time></trkpt><trkpt lat="38.164211539588784" lon="-2.476987762215163"><ele>1068.0</ele><time>2026-04-20T14:35:37Z</time></trkpt><trkpt lat="38.16429494894294" lon="-2.477055066680165"><ele>1070.25</ele><time>2026-04-20T14:35:38Z</time></trkpt><trkpt lat="38.16438799136612" lon="-2.477138455589825"><ele>1072.5</ele><time>2026-04-20T14:35:39Z</time></trkpt><trkpt lat="38.164501266060064" lon="-2.4771875088984747"><ele>1074.75</ele><time>2026-04-20T14:35:40Z</time></trkpt><trkpt lat="38.1646243437253" lon="-2.477220499069748"><ele>1077.0</ele><time>2026-04-20T14:35:41Z</time></trkpt><trkpt lat="38.16474748179801" lon="-2.4772326780341802"><ele>1079.0</ele><time>2026-04-20T14:35:42Z</time></trkpt><trkpt lat="38.1648797574734" lon="-2.477223253084782"><ele>1081.0</ele><time>2026-04-20T14:35:43Z</time></trkpt><trkpt lat="38.16502152198593" lon="-2.4772158231854156"><ele>1083.0</ele><time>2026-04-20T14:35:44Z</time></trkpt><trkpt lat="38.16515797287474" lon="-2.4772001656692377"><ele>1085.0</ele><time>2026-04-20T14:35:45Z</time></trkpt><trkpt lat="38.16528692630951" lon="-2.4771815947919613"><ele>1085.0</ele><time>2026-04-20T14:35:46Z</time></trkpt><trkpt lat="38.16539631501657" lon="-2.477169486883639"><ele>1085.0</ele><time>2026-04-20T14:35:47Z</time></trkpt><trkpt lat="38.165491157042574" lon="-2.477161483556225"><ele>1085.0</ele><time>2026-04-20T14:35:48Z</time></trkpt><trkpt lat="38.16555822228587" lon="-2.477130047282208"><ele>1085.0</ele><time>2026-04-20T14:35:49Z</time></trkpt><trkpt lat="38.16559949622243" lon="-2.477024749386961"><ele>1085.0</ele><time>2026-04-20T14:35:50Z</time></trkpt><trkpt lat="38.16563709190242" lon="-2.4768977383867505"><ele>1085.5</ele><time>2026-04-20T14:35:51Z</time></trkpt><trkpt lat="38.16569051585019" lon="-2.4767689413300364"><ele>1086.0</ele><time>2026-04-20T14:35:52Z</time></trkpt><trkpt lat="38.16574201762261" lon="-2.4766249703307377"><ele>1086.5</ele><time>2026-04-20T14:35:53Z</time></trkpt><trkpt lat="38.16582622633085" lon="-2.476499552979523"><ele>1087.0</ele><time>2026-04-20T14:35:54Z</time></trkpt><trkpt lat="38.165924156662946" lon="-2.4763805318608845"><ele>1084.75</ele><time>2026-04-20T14:35:55Z</time></trkpt><trkpt lat="38.1660278901206" lon="-2.4762670698621467"><ele>1082.5</ele><time>2026-04-20T14:35:56Z</time></trkpt><trkpt lat="38.1661328907339" lon="-2.4761553022405436"><ele>1080.25</ele><time>2026-04-20T14:35:57Z</time></trkpt><trkpt lat="38.16620954891852" lon="-2.476047886464752"><ele>1078.0</ele><time>2026-04-20T14:35:58Z</time></trkpt><trkpt lat="38.166249882541585" lon="-2.475963189168228"><ele>1078.0</ele><time>2026-04-20T14:35:59Z</time></trkpt><trkpt lat="38.166350192965" lon="-2.4759160741202155"><ele>1078.0</ele><time>2026-04-20T14:36:01Z</time></trkpt><trkpt lat="38.16641965885597" lon="-2.475995872572158"><ele>1078.0</ele><time>2026-04-20T14:36:02Z</time></trkpt><trkpt lat="38.16644206047682" lon="-2.476124832200166"><ele>1078.0</ele><time>2026-04-20T14:36:03Z</time></trkpt><trkpt lat="38.166436554071204" lon="-2.4762576495442983"><ele>1078.0</ele><time>2026-04-20T14:36:04Z</time></trkpt><trkpt lat="38.166431253385355" lon="-2.4764034305625393"><ele>1080.25</ele><time>2026-04-20T14:36:05Z</time></trkpt><trkpt lat="38.166365224031985" lon="-2.4765442586887065"><ele>1082.5</ele><time>2026-04-20T14:36:06Z</time></trkpt><trkpt lat="38.166322961021095" lon="-2.4766951094829404"><ele>1084.75</ele><time>2026-04-20T14:36:07Z</time></trkpt><trkpt lat="38.166282983469195" lon="-2.476838829873266"><ele>1087.0</ele><time>2026-04-20T14:36:08Z</time></trkpt><trkpt lat="38.16624751293788" lon="-2.4769939427985443"><ele>1089.5</ele><time>2026-04-20T14:36:09Z</time></trkpt><trkpt lat="38.16623253686658" lon="-2.4771508617589575"><ele>1092.0</ele><time>2026-04-20T14:36:10Z</time></trkpt><trkpt lat="38.166225538300715" lon="-2.47732313508321"><ele>1094.5</ele><time>2026-04-20T14:36:11Z</time></trkpt><trkpt lat="38.16620996134405" lon="-2.4774929233925644"><ele>1097.0</ele><time>2026-04-20T14:36:12Z</time></trkpt><trkpt lat="38.16618202820247" lon="-2.4776408369215384"><ele>1097.0</ele><time>2026-04-20T14:36:13Z</time></trkpt><trkpt lat="38.16613300326856" lon="-2.477771078596799"><ele>1097.0</ele><time>2026-04-20T14:36:14Z</time></trkpt><trkpt lat="38.166072059914576" lon="-2.4778892276749365"><ele>1097.0</ele><time>2026-04-20T14:36:15Z</time></trkpt><trkpt lat="38.16597434835074" lon="-2.478004565221297"><ele>1097.0</ele><time>2026-04-20T14:36:16Z</time></trkpt><trkpt lat="38.165860243567906" lon="-2.47810330164506"><ele>1097.0</ele><time>2026-04-20T14:36:17Z</time></trkpt><trkpt lat="38.1657459444226" lon="-2.4781832130405395"><ele>1097.0</ele><time>2026-04-20T14:36:18Z</time></trkpt><trkpt lat="38.16564063224079" lon="-2.4782452687994723"><ele>1097.0</ele><time>2026-04-20T14:36:19Z</time></trkpt><trkpt lat="38.16555980714665" lon="-2.4783099595620066"><ele>1097.0</ele><time>2026-04-20T14:36:20Z</time></trkpt><trkpt lat="38.16547474927761" lon="-2.4783893742723855"><ele>1097.0</ele><time>2026-04-20T14:36:21Z</time></trkpt><trkpt lat="38.165394301147884" lon="-2.4784790926050264"><ele>1097.0</ele><time>2026-04-20T14:36:22Z</time></trkpt><trkpt lat="38.165337332472056" lon="-2.47857926077823"><ele>1097.0</ele><time>2026-04-20T14:36:23Z</time></trkpt><trkpt lat="38.165282312658555" lon="-2.4786960176327444"><ele>1097.0</ele><time>2026-04-20T14:36:24Z</time></trkpt><trkpt lat="38.165227148122334" lon="-2.478809509437222"><ele>1097.0</ele><time>2026-04-20T14:36:25Z</time></trkpt><trkpt lat="38.16517734567582" lon="-2.4789163322847325"><ele>1097.0</ele><time>2026-04-20T14:36:26Z</time></trkpt><trkpt lat="38.16514662234143" lon="-2.4790049490524804"><ele>1099.2</ele><time>2026-04-20T14:36:27Z</time></trkpt><trkpt lat="38.1651562637931" lon="-2.4790942025200478"><ele>1101.4</ele><time>2026-04-20T14:36:28Z</time></trkpt><trkpt lat="38.16519162197033" lon="-2.479191801031065"><ele>1103.6</ele><time>2026-04-20T14:36:29Z</time></trkpt><trkpt lat="38.1652542373888" lon="-2.479296435601908"><ele>1105.8</ele><time>2026-04-20T14:36:30Z</time></trkpt><trkpt lat="38.16530785542476" lon="-2.4794238631507257"><ele>1108.0</ele><time>2026-04-20T14:36:31Z</time></trkpt><trkpt lat="38.16535429430861" lon="-2.4795430486937926"><ele>1109.6</ele><time>2026-04-20T14:36:32Z</time></trkpt><trkpt lat="38.16537268949042" lon="-2.479659726303679"><ele>1111.1999999999998</ele><time>2026-04-20T14:36:33Z</time></trkpt><trkpt lat="38.165364892907355" lon="-2.479774857038714"><ele>1112.8</ele><time>2026-04-20T14:36:34Z</time></trkpt><trkpt lat="38.16532651132697" lon="-2.479887704346997"><ele>1114.3999999999999</ele><time>2026-04-20T14:36:35Z</time></trkpt><trkpt lat="38.16526902153297" lon="-2.4800094753592887"><ele>1116.0</ele><time>2026-04-20T14:36:36Z</time></trkpt><trkpt lat="38.16522001684283" lon="-2.4801534229790927"><ele>1116.0</ele><time>2026-04-20T14:36:37Z</time></trkpt><trkpt lat="38.16513850177903" lon="-2.48028966010163"><ele>1116.0</ele><time>2026-04-20T14:36:38Z</time></trkpt><trkpt lat="38.16505286117381" lon="-2.4804184126233326"><ele>1116.0</ele><time>2026-04-20T14:36:39Z</time></trkpt><trkpt lat="38.16497548368941" lon="-2.480534742576707"><ele>1116.0</ele><time>2026-04-20T14:36:40Z</time></trkpt><trkpt lat="38.16488813600178" lon="-2.4806398240415723"><ele>1115.5</ele><time>2026-04-20T14:36:41Z</time></trkpt><trkpt lat="38.164776693983576" lon="-2.4807204617780902"><ele>1115.0</ele><time>2026-04-20T14:36:42Z</time></trkpt><trkpt lat="38.164674783095" lon="-2.4808346066326323"><ele>1114.5</ele><time>2026-04-20T14:36:43Z</time></trkpt><trkpt lat="38.16458461908029" lon="-2.4809748064902655"><ele>1114.0</ele><time>2026-04-20T14:36:44Z</time></trkpt><trkpt lat="38.16448625243869" lon="-2.481112579113571"><ele>1114.0</ele><time>2026-04-20T14:36:45Z</time></trkpt><trkpt lat="38.16439632586513" lon="-2.4812384718735796"><ele>1114.0</ele><time>2026-04-20T14:36:46Z</time></trkpt><trkpt lat="38.16431003878825" lon="-2.481367415472442"><ele>1114.0</ele><time>2026-04-20T14:36:47Z</time></trkpt><trkpt lat="38.164215955657106" lon="-2.4814951166752497"><ele>1114.0</ele><time>2026-04-20T14:36:48Z</time></trkpt><trkpt lat="38.16412279536068" lon="-2.4816247018180824"><ele>1114.0</ele><time>2026-04-20T14:36:49Z</time></trkpt><trkpt lat="38.1640248036163" lon="-2.481753493064235"><ele>1114.0</ele><time>2026-04-20T14:36:50Z</time></trkpt><trkpt lat="38.16392454123767" lon="-2.4818739374841114"><ele>1114.0</ele><time>2026-04-20T14:36:51Z</time></trkpt><trkpt lat="38.16385235552281" lon="-2.482024245938327"><ele>1114.0</ele><time>2026-04-20T14:36:52Z</time></trkpt><trkpt lat="38.163771898152795" lon="-2.4821736309943425"><ele>1117.0</ele><time>2026-04-20T14:36:53Z</time></trkpt><trkpt lat="38.16368996530514" lon="-2.4823276423111063"><ele>1120.0</ele><time>2026-04-20T14:36:54Z</time></trkpt><trkpt lat="38.1636109092369" lon="-2.482475382019166"><ele>1123.0</ele><time>2026-04-20T14:36:55Z</time></trkpt><trkpt lat="38.163531652808565" lon="-2.482619812034796"><ele>1126.0</ele><time>2026-04-20T14:36:56Z</time></trkpt><trkpt lat="38.16345549056595" lon="-2.4827530476369146"><ele>1126.0</ele><time>2026-04-20T14:36:57Z</time></trkpt><trkpt lat="38.163392559144256" lon="-2.4828756842484987"><ele>1126.0</ele><time>2026-04-20T14:36:58Z</time></trkpt><trkpt lat="38.1633444179145" lon="-2.4829893064616297"><ele>1126.0</ele><time>2026-04-20T14:36:59Z</time></trkpt><trkpt lat="38.1633072325298" lon="-2.483089847445996"><ele>1126.0</ele><time>2026-04-20T14:37:00Z</time></trkpt><trkpt lat="38.163276518328054" lon="-2.4831816483399574"><ele>1126.0</ele><time>2026-04-20T14:37:01Z</time></trkpt><trkpt lat="38.16325353847391" lon="-2.4832661171683665"><ele>1129.6</ele><time>2026-04-20T14:37:02Z</time></trkpt><trkpt lat="38.163223312718685" lon="-2.4833679141296896"><ele>1133.1999999999998</ele><time>2026-04-20T14:37:03Z</time></trkpt><trkpt lat="38.16325502174152" lon="-2.4834964593269873"><ele>1136.8000000000002</ele><time>2026-04-20T14:37:04Z</time></trkpt><trkpt lat="38.163252798492316" lon="-2.4836257031479354"><ele>1140.4</ele><time>2026-04-20T14:37:05Z</time></trkpt><trkpt lat="38.16325677441217" lon="-2.4837642097664765"><ele>1144.0</ele><time>2026-04-20T14:37:06Z</time></trkpt><trkpt lat="38.163243260060824" lon="-2.4838980143641383"><ele>1142.6000000000001</ele><time>2026-04-20T14:37:07Z</time></trkpt><trkpt lat="38.1632070299242" lon="-2.4840265674833897"><ele>1141.2</ele><time>2026-04-20T14:37:08Z</time></trkpt><trkpt lat="38.16315738281987" lon="-2.4841550921222852"><ele>1139.8000000000002</ele><time>2026-04-20T14:37:09Z</time></trkpt><trkpt lat="38.16312128152766" lon="-2.4842838489256907"><ele>1138.4</ele><time>2026-04-20T14:37:10Z</time></trkpt><trkpt lat="38.16308673732541" lon="-2.484399541189622"><ele>1137.0</ele><time>2026-04-20T14:37:11Z</time></trkpt><trkpt lat="38.16307175561348" lon="-2.484508953567174"><ele>1139.142857142857</ele><time>2026-04-20T14:37:12Z</time></trkpt><trkpt lat="38.1630313581283" lon="-2.484605246217584"><ele>1141.2857142857142</ele><time>2026-04-20T14:37:13Z</time></trkpt><trkpt lat="38.16300520053641" lon="-2.484693750078101"><ele>1143.4285714285716</ele><time>2026-04-20T14:37:14Z</time></trkpt><trkpt lat="38.1629633843618" lon="-2.484769245735724"><ele>1145.5714285714284</ele><time>2026-04-20T14:37:15Z</time></trkpt><trkpt lat="38.162939398961534" lon="-2.484843621128132"><ele>1147.7142857142858</ele><time>2026-04-20T14:37:16Z</time></trkpt><trkpt lat="38.162892759605796" lon="-2.4849026581116993"><ele>1149.857142857143</ele><time>2026-04-20T14:37:17Z</time></trkpt><trkpt lat="38.16282721482021" lon="-2.484929932049752"><ele>1152.0</ele><time>2026-04-20T14:37:18Z</time></trkpt><trkpt lat="38.16274790966932" lon="-2.484899442948617"><ele>1152.0</ele><time>2026-04-20T14:37:19Z</time></trkpt><trkpt lat="38.16269116597791" lon="-2.4848124502077926"><ele>1152.0</ele><time>2026-04-20T14:37:20Z</time></trkpt><trkpt lat="38.162696312704924" lon="-2.4846826060779694"><ele>1152.0</ele><time>2026-04-20T14:37:21Z</time></trkpt><trkpt lat="38.162669435559174" lon="-2.484579603443135"><ele>1152.0</ele><time>2026-04-20T14:37:22Z</time></trkpt><trkpt lat="38.16261041623299" lon="-2.484492397315011"><ele>1152.0</ele><time>2026-04-20T14:37:23Z</time></trkpt><trkpt lat="38.16253819350117" lon="-2.484446657535545"><ele>1152.0</ele><time>2026-04-20T14:37:24Z</time></trkpt><trkpt lat="38.16245854758868" lon="-2.484485225912134"><ele>1152.4</ele><time>2026-04-20T14:37:25Z</time></trkpt><trkpt lat="38.16237667862755" lon="-2.484525867928052"><ele>1152.8000000000002</ele><time>2026-04-20T14:37:26Z</time></trkpt><trkpt lat="38.162274152045406" lon="-2.4845643508280113"><ele>1153.2</ele><time>2026-04-20T14:37:27Z</time></trkpt><trkpt lat="38.16216039040354" lon="-2.4845977199314078"><ele>1153.6000000000001</ele><time>2026-04-20T14:37:28.001Z</time></trkpt><trkpt lat="38.162041708004516" lon="-2.484626057826979"><ele>1154.0</ele><time>2026-04-20T14:37:29.001Z</time></trkpt><trkpt lat="38.16194843397627" lon="-2.4846257790411586"><ele>1154.0</ele><time>2026-04-20T14:37:30.001Z</time></trkpt><trkpt lat="38.16189118023802" lon="-2.484668635710667"><ele>1154.0</ele><time>2026-04-20T14:37:31.001Z</time></trkpt><trkpt lat="38.16187826996368" lon="-2.4847650243264217"><ele>1154.0</ele><time>2026-04-20T14:37:32.001Z</time></trkpt><trkpt lat="38.16185450603343" lon="-2.484871859541479"><ele>1154.0</ele><time>2026-04-20T14:37:33.001Z</time></trkpt><trkpt lat="38.161796455117944" lon="-2.4849725524371693"><ele>1154.0</ele><time>2026-04-20T14:37:34.001Z</time></trkpt><trkpt lat="38.16169785244525" lon="-2.4850300261202944"><ele>1154.0</ele><time>2026-04-20T14:37:35.001Z</time></trkpt><trkpt lat="38.16161335508458" lon="-2.485095937466265"><ele>1154.0</ele><time>2026-04-20T14:37:36.001Z</time></trkpt><trkpt lat="38.16153232604863" lon="-2.485185771682138"><ele>1154.0</ele><time>2026-04-20T14:37:37.001Z</time></trkpt><trkpt lat="38.16144432949913" lon="-2.4852591870612217"><ele>1154.0</ele><time>2026-04-20T14:37:38.001Z</time></trkpt><trkpt lat="38.16131979816756" lon="-2.4852700150161033"><ele>1154.0</ele><time>2026-04-20T14:37:39.001Z</time></trkpt><trkpt lat="38.161197727516516" lon="-2.485295363591114"><ele>1153.5</ele><time>2026-04-20T14:37:40.001Z</time></trkpt><trkpt lat="38.1610704387442" lon="-2.48531870900931"><ele>1153.0</ele><time>2026-04-20T14:37:41.001Z</time></trkpt><trkpt lat="38.160943924674804" lon="-2.4853495360168796"><ele>1152.5</ele><time>2026-04-20T14:37:42.001Z</time></trkpt><trkpt lat="38.160822374824846" lon="-2.4853540353564694"><ele>1152.0</ele><time>2026-04-20T14:37:43.001Z</time></trkpt><trkpt lat="38.160710037294876" lon="-2.485374708385378"><ele>1152.6</ele><time>2026-04-20T14:37:44.001Z</time></trkpt><trkpt lat="38.16060605076817" lon="-2.4854094489389693"><ele>1153.2</ele><time>2026-04-20T14:37:45.001Z</time></trkpt><trkpt lat="38.160503313730906" lon="-2.485429975839733"><ele>1153.8</ele><time>2026-04-20T14:37:46.001Z</time></trkpt><trkpt lat="38.16040568422547" lon="-2.485465920649047"><ele>1154.4</ele><time>2026-04-20T14:37:47.001Z</time></trkpt><trkpt lat="38.16031299386318" lon="-2.4855199137757724"><ele>1155.0</ele><time>2026-04-20T14:37:48.001Z</time></trkpt><trkpt lat="38.16021617066359" lon="-2.485570193703865"><ele>1161.0</ele><time>2026-04-20T14:37:49.001Z</time></trkpt><trkpt lat="38.1601023360017" lon="-2.485603715955937"><ele>1167.0</ele><time>2026-04-20T14:37:50.001Z</time></trkpt><trkpt lat="38.159986171403766" lon="-2.4856168458831247"><ele>1173.0</ele><time>2026-04-20T14:37:51.001Z</time></trkpt><trkpt lat="38.159868381097105" lon="-2.485615017923552"><ele>1179.0</ele><time>2026-04-20T14:37:52.001Z</time></trkpt><trkpt lat="38.15975279639711" lon="-2.485612833616138"><ele>1177.6000000000001</ele><time>2026-04-20T14:37:53.001Z</time></trkpt><trkpt lat="38.15964223899078" lon="-2.48560628835424"><ele>1176.2</ele><time>2026-04-20T14:37:54.001Z</time></trkpt><trkpt lat="38.159548689268526" lon="-2.4855715817883497"><ele>1174.8000000000002</ele><time>2026-04-20T14:37:55.001Z</time></trkpt><trkpt lat="38.159470338805754" lon="-2.485462382351758"><ele>1173.4</ele><time>2026-04-20T14:37:56.001Z</time></trkpt><trkpt lat="38.15939410029224" lon="-2.4853925714676093"><ele>1172.0</ele><time>2026-04-20T14:37:57.001Z</time></trkpt><trkpt lat="38.159333194990836" lon="-2.4853484848455047"><ele>1172.0</ele><time>2026-04-20T14:37:58.001Z</time></trkpt><trkpt lat="38.159234797360405" lon="-2.485403327475422"><ele>1172.0</ele><time>2026-04-20T14:38:00.001Z</time></trkpt><trkpt lat="38.159286927989506" lon="-2.4855669355633507"><ele>1172.0</ele><time>2026-04-20T14:38:02.001Z</time></trkpt><trkpt lat="38.159328364920114" lon="-2.4856614655495615"><ele>1172.0</ele><time>2026-04-20T14:38:03.001Z</time></trkpt><trkpt lat="38.15939316794901" lon="-2.485750485741726"><ele>1172.0</ele><time>2026-04-20T14:38:04.001Z</time></trkpt><trkpt lat="38.15946142061362" lon="-2.485847076092112"><ele>1178.75</ele><time>2026-04-20T14:38:05.001Z</time></trkpt><trkpt lat="38.159542972374105" lon="-2.485940890842338"><ele>1185.5</ele><time>2026-04-20T14:38:06.001Z</time></trkpt><trkpt lat="38.159646045637544" lon="-2.485982602767583"><ele>1192.25</ele><time>2026-04-20T14:38:07.001Z</time></trkpt><trkpt lat="38.159742799143295" lon="-2.4860721809134505"><ele>1199.0</ele><time>2026-04-20T14:38:08.001Z</time></trkpt><trkpt lat="38.159842011595046" lon="-2.486146689194595"><ele>1203.25</ele><time>2026-04-20T14:38:09.001Z</time></trkpt><trkpt lat="38.15995276818526" lon="-2.486198089684926"><ele>1207.5</ele><time>2026-04-20T14:38:10.001Z</time></trkpt><trkpt lat="38.16007656336764" lon="-2.486218122719931"><ele>1211.75</ele><time>2026-04-20T14:38:11.001Z</time></trkpt><trkpt lat="38.16020193387607" lon="-2.4862470414620548"><ele>1216.0</ele><time>2026-04-20T14:38:12.001Z</time></trkpt><trkpt lat="38.16033315332552" lon="-2.4863031754690574"><ele>1216.0</ele><time>2026-04-20T14:38:13.001Z</time></trkpt><trkpt lat="38.1604639334341" lon="-2.4863545333632664"><ele>1216.0</ele><time>2026-04-20T14:38:14.001Z</time></trkpt><trkpt lat="38.16059765282309" lon="-2.486392321345853"><ele>1216.0</ele><time>2026-04-20T14:38:15.001Z</time></trkpt><trkpt lat="38.160740832381414" lon="-2.486438179434012"><ele>1216.0</ele><time>2026-04-20T14:38:16.001Z</time></trkpt><trkpt lat="38.160879861789894" lon="-2.4864765007438256"><ele>1215.75</ele><time>2026-04-20T14:38:17.001Z</time></trkpt><trkpt lat="38.16100680574161" lon="-2.486523521848832"><ele>1215.5</ele><time>2026-04-20T14:38:18.001Z</time></trkpt><trkpt lat="38.16113137691887" lon="-2.4865640060091914"><ele>1215.25</ele><time>2026-04-20T14:38:19.001Z</time></trkpt><trkpt lat="38.16125898886912" lon="-2.486582802158332"><ele>1215.0</ele><time>2026-04-20T14:38:20.001Z</time></trkpt><trkpt lat="38.16138940149368" lon="-2.486578067504245"><ele>1215.0</ele><time>2026-04-20T14:38:21.001Z</time></trkpt><trkpt lat="38.1615053621194" lon="-2.4865565954160465"><ele>1215.0</ele><time>2026-04-20T14:38:22.001Z</time></trkpt><trkpt lat="38.161601518203014" lon="-2.486552391109314"><ele>1215.0</ele><time>2026-04-20T14:38:23.001Z</time></trkpt><trkpt lat="38.16167870082877" lon="-2.486575618021029"><ele>1215.0</ele><time>2026-04-20T14:38:24.001Z</time></trkpt><trkpt lat="38.16174605023806" lon="-2.4866093980256863"><ele>1215.0</ele><time>2026-04-20T14:38:25.001Z</time></trkpt><trkpt lat="38.161804660711155" lon="-2.486691925213235"><ele>1214.0</ele><time>2026-04-20T14:38:26.001Z</time></trkpt><trkpt lat="38.16185735592691" lon="-2.48678403501146"><ele>1213.0</ele><time>2026-04-20T14:38:27.001Z</time></trkpt><trkpt lat="38.16191286584492" lon="-2.486889593632505"><ele>1212.0</ele><time>2026-04-20T14:38:28.001Z</time></trkpt><trkpt lat="38.16196540263876" lon="-2.4869884974369714"><ele>1211.0</ele><time>2026-04-20T14:38:29.001Z</time></trkpt><trkpt lat="38.16201453320985" lon="-2.487104257930933"><ele>1210.0</ele><time>2026-04-20T14:38:30.001Z</time></trkpt><trkpt lat="38.162055197626394" lon="-2.4872395667604477"><ele>1217.0</ele><time>2026-04-20T14:38:31.001Z</time></trkpt><trkpt lat="38.16209099924499" lon="-2.4873880133189568"><ele>1224.0</ele><time>2026-04-20T14:38:32.001Z</time></trkpt><trkpt lat="38.1621256495359" lon="-2.487542343162879"><ele>1231.0</ele><time>2026-04-20T14:38:33.001Z</time></trkpt><trkpt lat="38.16216652460678" lon="-2.4876789014258915"><ele>1238.0</ele><time>2026-04-20T14:38:34.001Z</time></trkpt><trkpt lat="38.162187514820964" lon="-2.4878224642292968"><ele>1242.0</ele><time>2026-04-20T14:38:35.001Z</time></trkpt><trkpt lat="38.162199198236685" lon="-2.487960737136452"><ele>1246.0</ele><time>2026-04-20T14:38:36.001Z</time></trkpt><trkpt lat="38.16220152142651" lon="-2.4880771813266858"><ele>1250.0</ele><time>2026-04-20T14:38:37.001Z</time></trkpt><trkpt lat="38.162204910979256" lon="-2.4881859714725043"><ele>1254.0</ele><time>2026-04-20T14:38:38.001Z</time></trkpt><trkpt lat="38.162179480425195" lon="-2.4883055117832944"><ele>1258.0</ele><time>2026-04-20T14:38:39.001Z</time></trkpt><trkpt lat="38.16214418567107" lon="-2.4884388161938245"><ele>1258.0</ele><time>2026-04-20T14:38:40.001Z</time></trkpt><trkpt lat="38.16211096562024" lon="-2.488565350492789"><ele>1258.0</ele><time>2026-04-20T14:38:41.001Z</time></trkpt><trkpt lat="38.16208431937219" lon="-2.4886591779265785"><ele>1258.0</ele><time>2026-04-20T14:38:42.001Z</time></trkpt><trkpt lat="38.16207553894069" lon="-2.4887513902716814"><ele>1258.0</ele><time>2026-04-20T14:38:43.001Z</time></trkpt><trkpt lat="38.162117662089585" lon="-2.4888425316427187"><ele>1258.0</ele><time>2026-04-20T14:38:44.001Z</time></trkpt><trkpt lat="38.16218375940799" lon="-2.4889311905229423"><ele>1258.0</ele><time>2026-04-20T14:38:45.001Z</time></trkpt><trkpt lat="38.16223470422711" lon="-2.4890583850450883"><ele>1257.6666666666665</ele><time>2026-04-20T14:38:46.001Z</time></trkpt><trkpt lat="38.162289692248685" lon="-2.4891533364893346"><ele>1257.3333333333333</ele><time>2026-04-20T14:38:47.001Z</time></trkpt><trkpt lat="38.16231614606177" lon="-2.489229253793745"><ele>1257.0</ele><time>2026-04-20T14:38:48.001Z</time></trkpt><trkpt lat="38.16233848925352" lon="-2.4893129845896005"><ele>1256.6666666666667</ele><time>2026-04-20T14:38:49.001Z</time></trkpt><trkpt lat="38.16229622085453" lon="-2.489422176322315"><ele>1256.3333333333335</ele><time>2026-04-20T14:38:50.001Z</time></trkpt><trkpt lat="38.16224179425447" lon="-2.4895304945317243"><ele>1256.0</ele><time>2026-04-20T14:38:51.001Z</time></trkpt><trkpt lat="38.162169283369764" lon="-2.489624632093239"><ele>1254.5</ele><time>2026-04-20T14:38:52.001Z</time></trkpt><trkpt lat="38.162102945260244" lon="-2.4897187606444637"><ele>1253.0</ele><time>2026-04-20T14:38:53.001Z</time></trkpt><trkpt lat="38.162042992132484" lon="-2.489790531155391"><ele>1251.5</ele><time>2026-04-20T14:38:54.001Z</time></trkpt><trkpt lat="38.16200888474512" lon="-2.4899120303259066"><ele>1250.0</ele><time>2026-04-20T14:38:56.001Z</time></trkpt><trkpt lat="38.1620574714496" lon="-2.4899779052342685"><ele>1248.5</ele><time>2026-04-20T14:38:57.001Z</time></trkpt><trkpt lat="38.16212452986676" lon="-2.4900225990484044"><ele>1247.0</ele><time>2026-04-20T14:38:58.001Z</time></trkpt><trkpt lat="38.162174311169096" lon="-2.490074972771056"><ele>1247.0</ele><time>2026-04-20T14:38:59.001Z</time></trkpt><trkpt lat="38.16216994286779" lon="-2.490194443272528"><ele>1247.0</ele><time>2026-04-20T14:39:00.001Z</time></trkpt><trkpt lat="38.162164883368575" lon="-2.4903184055524803"><ele>1247.0</ele><time>2026-04-20T14:39:01.001Z</time></trkpt><trkpt lat="38.162141182487716" lon="-2.490448939681831"><ele>1247.0</ele><time>2026-04-20T14:39:02.001Z</time></trkpt><trkpt lat="38.16210603752047" lon="-2.4905827437465766"><ele>1247.0</ele><time>2026-04-20T14:39:03.001Z</time></trkpt><trkpt lat="38.16206874339644" lon="-2.490721005485475"><ele>1247.0</ele><time>2026-04-20T14:39:04.001Z</time></trkpt><trkpt lat="38.16205100493546" lon="-2.4908670938066435"><ele>1247.0</ele><time>2026-04-20T14:39:05.001Z</time></trkpt><trkpt lat="38.162016152431306" lon="-2.490986213622187"><ele>1247.0</ele><time>2026-04-20T14:39:06.001Z</time></trkpt><trkpt lat="38.161993839770275" lon="-2.491099688772768"><ele>1247.0</ele><time>2026-04-20T14:39:07.001Z</time></trkpt><trkpt lat="38.16199021582938" lon="-2.4911889627633936"><ele>1247.0</ele><time>2026-04-20T14:39:08.001Z</time></trkpt><trkpt lat="38.161977529993216" lon="-2.491327988058315"><ele>1247.0</ele><time>2026-04-20T14:39:10.001Z</time></trkpt><trkpt lat="38.16206008236262" lon="-2.491359366004892"><ele>1247.0</ele><time>2026-04-20T14:39:12.001Z</time></trkpt><trkpt lat="38.16215243839072" lon="-2.491297368696727"><ele>1247.0</ele><time>2026-04-20T14:39:14.001Z</time></trkpt><trkpt lat="38.16224722687726" lon="-2.4911955336467666"><ele>1247.0</ele><time>2026-04-20T14:39:16.001Z</time></trkpt><trkpt lat="38.16227189478261" lon="-2.491103613395799"><ele>1247.0</ele><time>2026-04-20T14:39:17.001Z</time></trkpt><trkpt lat="38.16231712805108" lon="-2.4910321799702766"><ele>1246.8333333333335</ele><time>2026-04-20T14:39:18.001Z</time></trkpt><trkpt lat="38.16237163169716" lon="-2.4909720621834968"><ele>1246.6666666666667</ele><time>2026-04-20T14:39:19.001Z</time></trkpt><trkpt lat="38.16242978130537" lon="-2.4908974745495462"><ele>1246.5</ele><time>2026-04-20T14:39:20.001Z</time></trkpt><trkpt lat="38.162496380002" lon="-2.4908335279843157"><ele>1246.3333333333333</ele><time>2026-04-20T14:39:21.001Z</time></trkpt><trkpt lat="38.162561569238804" lon="-2.4907596513357806"><ele>1246.1666666666665</ele><time>2026-04-20T14:39:22.001Z</time></trkpt><trkpt lat="38.16263612479637" lon="-2.4906883182279174"><ele>1246.0</ele><time>2026-04-20T14:39:23.001Z</time></trkpt><trkpt lat="38.16270960979173" lon="-2.4906023287532792"><ele>1246.0</ele><time>2026-04-20T14:39:24.001Z</time></trkpt><trkpt lat="38.16277854802884" lon="-2.490507946788671"><ele>1246.0</ele><time>2026-04-20T14:39:25.001Z</time></trkpt><trkpt lat="38.162848937268436" lon="-2.4904126842833256"><ele>1246.0</ele><time>2026-04-20T14:39:26.001Z</time></trkpt><trkpt lat="38.162919596797224" lon="-2.490314244344731"><ele>1246.0</ele><time>2026-04-20T14:39:27.001Z</time></trkpt><trkpt lat="38.1629933073512" lon="-2.4902300528264116"><ele>1246.0</ele><time>2026-04-20T14:39:28.001Z</time></trkpt><trkpt lat="38.163066529698966" lon="-2.49014785507982"><ele>1245.8</ele><time>2026-04-20T14:39:29.001Z</time></trkpt><trkpt lat="38.16314007622645" lon="-2.490075958559038"><ele>1245.6</ele><time>2026-04-20T14:39:30.001Z</time></trkpt><trkpt lat="38.163221767990905" lon="-2.490017719293061"><ele>1245.4</ele><time>2026-04-20T14:39:31.001Z</time></trkpt><trkpt lat="38.163307489948195" lon="-2.489978275402476"><ele>1245.2</ele><time>2026-04-20T14:39:32.001Z</time></trkpt><trkpt lat="38.16339967594723" lon="-2.4899471163685174"><ele>1245.0</ele><time>2026-04-20T14:39:33.001Z</time></trkpt><trkpt lat="38.163496771520094" lon="-2.4899324449209703"><ele>1245.0</ele><time>2026-04-20T14:39:34.001Z</time></trkpt><trkpt lat="38.163596590840285" lon="-2.4899211117330564"><ele>1245.0</ele><time>2026-04-20T14:39:35.001Z</time></trkpt><trkpt lat="38.16370312068728" lon="-2.489915125210203"><ele>1245.0</ele><time>2026-04-20T14:39:36.001Z</time></trkpt><trkpt lat="38.16380674112047" lon="-2.489917987761487"><ele>1245.0</ele><time>2026-04-20T14:39:37.001Z</time></trkpt><trkpt lat="38.16391365108249" lon="-2.4899276225228784"><ele>1245.0</ele><time>2026-04-20T14:39:38.001Z</time></trkpt><trkpt lat="38.164010665822744" lon="-2.4899548810606964"><ele>1248.0</ele><time>2026-04-20T14:39:39.001Z</time></trkpt><trkpt lat="38.164109334615425" lon="-2.489990250585819"><ele>1251.0</ele><time>2026-04-20T14:39:40.001Z</time></trkpt><trkpt lat="38.1641899241312" lon="-2.490041113736087"><ele>1254.0</ele><time>2026-04-20T14:39:41.001Z</time></trkpt><trkpt lat="38.164262000798594" lon="-2.490096616331771"><ele>1257.0</ele><time>2026-04-20T14:39:42.001Z</time></trkpt><trkpt lat="38.16433142609347" lon="-2.490166035098224"><ele>1260.0</ele><time>2026-04-20T14:39:43.001Z</time></trkpt><trkpt lat="38.16439997662478" lon="-2.4902492032262153"><ele>1260.0</ele><time>2026-04-20T14:39:44.001Z</time></trkpt><trkpt lat="38.16447599710395" lon="-2.490331395263818"><ele>1260.0</ele><time>2026-04-20T14:39:45.001Z</time></trkpt><trkpt lat="38.16457585952842" lon="-2.49037122500738"><ele>1260.0</ele><time>2026-04-20T14:39:46.001Z</time></trkpt><trkpt lat="38.164664148639666" lon="-2.49042716948974"><ele>1260.0</ele><time>2026-04-20T14:39:47.001Z</time></trkpt><trkpt lat="38.16475830014702" lon="-2.4904432773228526"><ele>1260.0</ele><time>2026-04-20T14:39:48.001Z</time></trkpt><trkpt lat="38.16484983222057" lon="-2.4904531722641785"><ele>1264.8</ele><time>2026-04-20T14:39:49.001Z</time></trkpt><trkpt lat="38.164924399900606" lon="-2.4904681001383904"><ele>1269.6</ele><time>2026-04-20T14:39:50.001Z</time></trkpt><trkpt lat="38.16503387649479" lon="-2.4904261737836015"><ele>1274.4</ele><time>2026-04-20T14:39:52.001Z</time></trkpt><trkpt lat="38.16503565894936" lon="-2.490268857521282"><ele>1279.2</ele><time>2026-04-20T14:39:54.001Z</time></trkpt><trkpt lat="38.16497125531585" lon="-2.4901863666616526"><ele>1284.0</ele><time>2026-04-20T14:39:55.001Z</time></trkpt><trkpt lat="38.164915574787415" lon="-2.490104603393448"><ele>1284.0</ele><time>2026-04-20T14:39:56.001Z</time></trkpt><trkpt lat="38.164880265063886" lon="-2.4900090672780757"><ele>1284.0</ele><time>2026-04-20T14:39:57.001Z</time></trkpt><trkpt lat="38.16485802780377" lon="-2.4899133912644236"><ele>1284.0</ele><time>2026-04-20T14:39:58.001Z</time></trkpt><trkpt lat="38.1648618787193" lon="-2.4897955490304127"><ele>1284.0</ele><time>2026-04-20T14:39:59.001Z</time></trkpt><trkpt lat="38.16488659930971" lon="-2.489679652410888"><ele>1284.0</ele><time>2026-04-20T14:40:00.001Z</time></trkpt><trkpt lat="38.16489809131763" lon="-2.489556402885002"><ele>1284.0</ele><time>2026-04-20T14:40:01.001Z</time></trkpt><trkpt lat="38.164910205275596" lon="-2.489430531410484"><ele>1281.8</ele><time>2026-04-20T14:40:02.001Z</time></trkpt><trkpt lat="38.16494350228386" lon="-2.4893314457551687"><ele>1279.6000000000001</ele><time>2026-04-20T14:40:03.001Z</time></trkpt><trkpt lat="38.16501018121652" lon="-2.489238415998993"><ele>1277.4</ele><time>2026-04-20T14:40:04.001Z</time></trkpt><trkpt lat="38.16508514006947" lon="-2.489150412362813"><ele>1275.2</ele><time>2026-04-20T14:40:05.001Z</time></trkpt><trkpt lat="38.16517772613488" lon="-2.4890763299161835"><ele>1273.0</ele><time>2026-04-20T14:40:06.001Z</time></trkpt><trkpt lat="38.16526731905228" lon="-2.488977696550265"><ele>1273.0</ele><time>2026-04-20T14:40:07.001Z</time></trkpt><trkpt lat="38.165359123746846" lon="-2.488885951507524"><ele>1273.0</ele><time>2026-04-20T14:40:08.001Z</time></trkpt><trkpt lat="38.165432739485205" lon="-2.48881092702812"><ele>1273.0</ele><time>2026-04-20T14:40:09.001Z</time></trkpt><trkpt lat="38.165488338221934" lon="-2.4887307300518042"><ele>1273.0</ele><time>2026-04-20T14:40:10.001Z</time></trkpt><trkpt lat="38.16551792804718" lon="-2.4885993072227404"><ele>1273.0</ele><time>2026-04-20T14:40:11.001Z</time></trkpt><trkpt lat="38.165589616853715" lon="-2.4884700213000475"><ele>1271.4</ele><time>2026-04-20T14:40:12.001Z</time></trkpt><trkpt lat="38.16565328656811" lon="-2.488318657771101"><ele>1269.8</ele><time>2026-04-20T14:40:13.001Z</time></trkpt><trkpt lat="38.1656999366137" lon="-2.488188091858683"><ele>1268.2</ele><time>2026-04-20T14:40:14.001Z</time></trkpt><trkpt lat="38.16571908249401" lon="-2.4880778989564405"><ele>1266.6</ele><time>2026-04-20T14:40:15.001Z</time></trkpt><trkpt lat="38.165725963894346" lon="-2.487989374781365"><ele>1265.0</ele><time>2026-04-20T14:40:16.001Z</time></trkpt><trkpt lat="38.16581036709383" lon="-2.487910077949176"><ele>1270.6</ele><time>2026-04-20T14:40:18.001Z</time></trkpt><trkpt lat="38.16587604982357" lon="-2.4879225402836256"><ele>1276.2</ele><time>2026-04-20T14:40:19.001Z</time></trkpt><trkpt lat="38.16592821623382" lon="-2.4880134105095175"><ele>1281.8000000000002</ele><time>2026-04-20T14:40:20.001Z</time></trkpt><trkpt lat="38.165931323689506" lon="-2.488146245367699"><ele>1287.4</ele><time>2026-04-20T14:40:21.001Z</time></trkpt><trkpt lat="38.16588335529178" lon="-2.4882864969829432"><ele>1293.0</ele><time>2026-04-20T14:40:22.001Z</time></trkpt><trkpt lat="38.16586438293152" lon="-2.4884208422776006"><ele>1293.0</ele><time>2026-04-20T14:40:23.001Z</time></trkpt><trkpt lat="38.165849161339324" lon="-2.4885698330544614"><ele>1293.0</ele><time>2026-04-20T14:40:24.001Z</time></trkpt><trkpt lat="38.16582754554566" lon="-2.488694509550987"><ele>1293.0</ele><time>2026-04-20T14:40:25.001Z</time></trkpt><trkpt lat="38.165814030058826" lon="-2.4887866185786267"><ele>1293.0</ele><time>2026-04-20T14:40:26Z</time></trkpt><trkpt lat="38.16581273011985" lon="-2.488914076537741"><ele>1293.0</ele><time>2026-04-20T14:40:28Z</time></trkpt><trkpt lat="38.165903197679874" lon="-2.4888972056730547"><ele>1293.0</ele><time>2026-04-20T14:40:30Z</time></trkpt><trkpt lat="38.16594130394334" lon="-2.4888264743246675"><ele>1293.0</ele><time>2026-04-20T14:40:31Z</time></trkpt><trkpt lat="38.16596586795393" lon="-2.488729236426808"><ele>1293.0</ele><time>2026-04-20T14:40:32Z</time></trkpt><trkpt lat="38.16599695355604" lon="-2.4886215322896046"><ele>1293.0</ele><time>2026-04-20T14:40:33Z</time></trkpt><trkpt lat="38.16604535808403" lon="-2.488521678299559"><ele>1293.0</ele><time>2026-04-20T14:40:34Z</time></trkpt><trkpt lat="38.16609932325473" lon="-2.4884266620214954"><ele>1293.0</ele><time>2026-04-20T14:40:35Z</time></trkpt><trkpt lat="38.166153385015285" lon="-2.488323651362511"><ele>1293.0</ele><time>2026-04-20T14:40:36Z</time></trkpt><trkpt lat="38.16620327524237" lon="-2.488217802402715"><ele>1293.0</ele><time>2026-04-20T14:40:37Z</time></trkpt><trkpt lat="38.166254682013125" lon="-2.488114958977865"><ele>1293.0</ele><time>2026-04-20T14:40:38Z</time></trkpt><trkpt lat="38.16631139214899" lon="-2.4880142931953193"><ele>1293.0</ele><time>2026-04-20T14:40:39Z</time></trkpt><trkpt lat="38.1663651792082" lon="-2.487901808038514"><ele>1293.0</ele><time>2026-04-20T14:40:40Z</time></trkpt><trkpt lat="38.16642308230372" lon="-2.487796795685361"><ele>1294.5</ele><time>2026-04-20T14:40:41Z</time></trkpt><trkpt lat="38.1664830107839" lon="-2.4876810614877756"><ele>1296.0</ele><time>2026-04-20T14:40:42Z</time></trkpt><trkpt lat="38.16654589904345" lon="-2.4875650029698546"><ele>1297.5</ele><time>2026-04-20T14:40:43Z</time></trkpt><trkpt lat="38.16660558799161" lon="-2.487438693418947"><ele>1299.0</ele><time>2026-04-20T14:40:44Z</time></trkpt><trkpt lat="38.166677676806316" lon="-2.4873256221286835"><ele>1303.25</ele><time>2026-04-20T14:40:45Z</time></trkpt><trkpt lat="38.16675830268404" lon="-2.4872222071372447"><ele>1307.5</ele><time>2026-04-20T14:40:46Z</time></trkpt><trkpt lat="38.1668425566013" lon="-2.487129364318742"><ele>1311.75</ele><time>2026-04-20T14:40:47Z</time></trkpt><trkpt lat="38.166932287822185" lon="-2.487036251515094"><ele>1316.0</ele><time>2026-04-20T14:40:48Z</time></trkpt><trkpt lat="38.16703601903393" lon="-2.4869352183256406"><ele>1316.0</ele><time>2026-04-20T14:40:49Z</time></trkpt><trkpt lat="38.167139201656305" lon="-2.4868392930162853"><ele>1316.0</ele><time>2026-04-20T14:40:50Z</time></trkpt><trkpt lat="38.16723537558729" lon="-2.486774811962098"><ele>1316.0</ele><time>2026-04-20T14:40:51Z</time></trkpt><trkpt lat="38.1673111296306" lon="-2.486713305225523"><ele>1316.0</ele><time>2026-04-20T14:40:52Z</time></trkpt><trkpt lat="38.167373140326596" lon="-2.486658111785181"><ele>1316.0</ele><time>2026-04-20T14:40:53Z</time></trkpt><trkpt lat="38.16743049449088" lon="-2.486613006082168"><ele>1318.0</ele><time>2026-04-20T14:40:54Z</time></trkpt><trkpt lat="38.167516303259966" lon="-2.4865790662517724"><ele>1320.0</ele><time>2026-04-20T14:40:55Z</time></trkpt><trkpt lat="38.167629378781356" lon="-2.486573532354935"><ele>1322.0</ele><time>2026-04-20T14:40:56Z</time></trkpt><trkpt lat="38.1677454995482" lon="-2.486593935334993"><ele>1324.0</ele><time>2026-04-20T14:40:57Z</time></trkpt><trkpt lat="38.16787072947821" lon="-2.486631096783687"><ele>1326.0</ele><time>2026-04-20T14:40:58Z</time></trkpt><trkpt lat="38.167988442433085" lon="-2.4866601891182736"><ele>1326.0</ele><time>2026-04-20T14:40:59Z</time></trkpt><trkpt lat="38.16808997657182" lon="-2.4866443955613455"><ele>1326.0</ele><time>2026-04-20T14:41:00Z</time></trkpt><trkpt lat="38.168174773663516" lon="-2.486595066474737"><ele>1326.0</ele><time>2026-04-20T14:41:01Z</time></trkpt><trkpt lat="38.16824312722568" lon="-2.486545131462002"><ele>1326.0</ele><time>2026-04-20T14:41:02Z</time></trkpt><trkpt lat="38.168305164469665" lon="-2.4864885739015845"><ele>1326.0</ele><time>2026-04-20T14:41:03Z</time></trkpt><trkpt lat="38.16833531835188" lon="-2.4864152279768836"><ele>1326.0</ele><time>2026-04-20T14:41:04Z</time></trkpt><trkpt lat="38.16832925872257" lon="-2.4863242065233417"><ele>1327.4</ele><time>2026-04-20T14:41:05Z</time></trkpt><trkpt lat="38.16828318805483" lon="-2.4862324479753233"><ele>1328.8</ele><time>2026-04-20T14:41:06Z</time></trkpt><trkpt lat="38.16819085379524" lon="-2.4861933004754655"><ele>1330.2</ele><time>2026-04-20T14:41:07Z</time></trkpt><trkpt lat="38.168131093381405" lon="-2.4861006166300603"><ele>1331.6000000000001</ele><time>2026-04-20T14:41:08Z</time></trkpt><trkpt lat="38.16805974206453" lon="-2.4860110143239114"><ele>1333.0</ele><time>2026-04-20T14:41:09Z</time></trkpt><trkpt lat="38.16800709540752" lon="-2.485916207796758"><ele>1331.0</ele><time>2026-04-20T14:41:10Z</time></trkpt><trkpt lat="38.167962706211924" lon="-2.485810426774164"><ele>1329.0</ele><time>2026-04-20T14:41:11Z</time></trkpt><trkpt lat="38.16792297887403" lon="-2.485690972268843"><ele>1327.0</ele><time>2026-04-20T14:41:12Z</time></trkpt><trkpt lat="38.16788438121201" lon="-2.4855525858399807"><ele>1325.0</ele><time>2026-04-20T14:41:13Z</time></trkpt><trkpt lat="38.167852455786935" lon="-2.4854078387998015"><ele>1323.0</ele><time>2026-04-20T14:41:14Z</time></trkpt><trkpt lat="38.16783045592112" lon="-2.485264670394683"><ele>1323.0</ele><time>2026-04-20T14:41:15Z</time></trkpt><trkpt lat="38.16781631421477" lon="-2.485151561136167"><ele>1323.0</ele><time>2026-04-20T14:41:16Z</time></trkpt><trkpt lat="38.16782535594252" lon="-2.4850074110758307"><ele>1323.0</ele><time>2026-04-20T14:41:18Z</time></trkpt><trkpt lat="38.16787852587923" lon="-2.484855581499017"><ele>1323.0</ele><time>2026-04-20T14:41:20Z</time></trkpt><trkpt lat="38.167913731329435" lon="-2.4847609280216365"><ele>1323.0</ele><time>2026-04-20T14:41:21Z</time></trkpt><trkpt lat="38.16794836090568" lon="-2.484660499107376"><ele>1324.6000000000001</ele><time>2026-04-20T14:41:22Z</time></trkpt><trkpt lat="38.167994829948825" lon="-2.484552134336145"><ele>1326.2</ele><time>2026-04-20T14:41:23Z</time></trkpt><trkpt lat="38.168059656463825" lon="-2.484445205283909"><ele>1327.8</ele><time>2026-04-20T14:41:24Z</time></trkpt><trkpt lat="38.1681356925336" lon="-2.484342859464547"><ele>1329.4</ele><time>2026-04-20T14:41:25Z</time></trkpt><trkpt lat="38.16822260061576" lon="-2.4842451852927603"><ele>1331.0</ele><time>2026-04-20T14:41:26Z</time></trkpt><trkpt lat="38.16831765912152" lon="-2.4841513412994454"><ele>1333.0</ele><time>2026-04-20T14:41:27Z</time></trkpt><trkpt lat="38.16841298036771" lon="-2.484053536752849"><ele>1335.0</ele><time>2026-04-20T14:41:28Z</time></trkpt><trkpt lat="38.16850550059389" lon="-2.4839592916628126"><ele>1337.0</ele><time>2026-04-20T14:41:29Z</time></trkpt><trkpt lat="38.16859991229503" lon="-2.483856922436668"><ele>1339.0</ele><time>2026-04-20T14:41:30Z</time></trkpt><trkpt lat="38.1686904962828" lon="-2.4837468755695826"><ele>1339.0</ele><time>2026-04-20T14:41:31Z</time></trkpt><trkpt lat="38.168773817092024" lon="-2.483634085324731"><ele>1339.0</ele><time>2026-04-20T14:41:32Z</time></trkpt><trkpt lat="38.168863097745394" lon="-2.4835308229589876"><ele>1339.0</ele><time>2026-04-20T14:41:33Z</time></trkpt><trkpt lat="38.168966518116115" lon="-2.4834344462123945"><ele>1339.0</ele><time>2026-04-20T14:41:34Z</time></trkpt><trkpt lat="38.169075831376404" lon="-2.4833481487794304"><ele>1342.0</ele><time>2026-04-20T14:41:35Z</time></trkpt><trkpt lat="38.16917936808854" lon="-2.4832625095354244"><ele>1345.0</ele><time>2026-04-20T14:41:36Z</time></trkpt><trkpt lat="38.16927192177034" lon="-2.483175678360072"><ele>1348.0</ele><time>2026-04-20T14:41:37Z</time></trkpt><trkpt lat="38.169363399652106" lon="-2.4831006783677303"><ele>1351.0</ele><time>2026-04-20T14:41:38Z</time></trkpt><trkpt lat="38.169462327516065" lon="-2.4830390246211427"><ele>1351.0</ele><time>2026-04-20T14:41:39Z</time></trkpt><trkpt lat="38.169557272680194" lon="-2.482980488027688"><ele>1351.0</ele><time>2026-04-20T14:41:40Z</time></trkpt><trkpt lat="38.16965588354227" lon="-2.4829333305000922"><ele>1351.0</ele><time>2026-04-20T14:41:41Z</time></trkpt><trkpt lat="38.16975795487046" lon="-2.482893980022433"><ele>1351.0</ele><time>2026-04-20T14:41:42Z</time></trkpt><trkpt lat="38.16985536357789" lon="-2.482855644979844"><ele>1351.0</ele><time>2026-04-20T14:41:43Z</time></trkpt><trkpt lat="38.16994619618088" lon="-2.4828234398914595"><ele>1350.6666666666665</ele><time>2026-04-20T14:41:44Z</time></trkpt><trkpt lat="38.17002411132483" lon="-2.4828098201354187"><ele>1350.3333333333333</ele><time>2026-04-20T14:41:45Z</time></trkpt><trkpt lat="38.17009938649374" lon="-2.482823844492106"><ele>1350.0</ele><time>2026-04-20T14:41:46Z</time></trkpt><trkpt lat="38.170185231620316" lon="-2.4828473075039432"><ele>1349.6666666666667</ele><time>2026-04-20T14:41:47Z</time></trkpt><trkpt lat="38.17028322395545" lon="-2.482866693599323"><ele>1349.3333333333335</ele><time>2026-04-20T14:41:48Z</time></trkpt><trkpt lat="38.17038668222634" lon="-2.482883959309092"><ele>1349.0</ele><time>2026-04-20T14:41:49Z</time></trkpt><trkpt lat="38.17048889100032" lon="-2.4829024107338404"><ele>1349.0</ele><time>2026-04-20T14:41:50Z</time></trkpt><trkpt lat="38.170587405149114" lon="-2.482918674741009"><ele>1349.0</ele><time>2026-04-20T14:41:51Z</time></trkpt><trkpt lat="38.170675607077065" lon="-2.482915309049553"><ele>1349.0</ele><time>2026-04-20T14:41:52Z</time></trkpt><trkpt lat="38.17075535039928" lon="-2.4828743253909753"><ele>1349.0</ele><time>2026-04-20T14:41:53Z</time></trkpt><trkpt lat="38.17083561249015" lon="-2.4828054806221727"><ele>1349.0</ele><time>2026-04-20T14:41:54Z</time></trkpt><trkpt lat="38.17091569451517" lon="-2.4827343085525038"><ele>1350.5</ele><time>2026-04-20T14:41:55Z</time></trkpt><trkpt lat="38.170992998662655" lon="-2.4826768583074057"><ele>1352.0</ele><time>2026-04-20T14:41:56Z</time></trkpt><trkpt lat="38.171068083051026" lon="-2.482631491751103"><ele>1353.5</ele><time>2026-04-20T14:41:57Z</time></trkpt><trkpt lat="38.17114846578148" lon="-2.4826004316951362"><ele>1355.0</ele><time>2026-04-20T14:41:58Z</time></trkpt><trkpt lat="38.171241771441736" lon="-2.4825849091576573"><ele>1356.5</ele><time>2026-04-20T14:41:59Z</time></trkpt><trkpt lat="38.17133541165898" lon="-2.4825700568663334"><ele>1358.0</ele><time>2026-04-20T14:42:00Z</time></trkpt><trkpt lat="38.17143262903018" lon="-2.4825481542370595"><ele>1359.6000000000001</ele><time>2026-04-20T14:42:01Z</time></trkpt><trkpt lat="38.17152804557826" lon="-2.4825138895683176"><ele>1361.2</ele><time>2026-04-20T14:42:02Z</time></trkpt><trkpt lat="38.17161999687437" lon="-2.482466460203228"><ele>1362.8</ele><time>2026-04-20T14:42:03Z</time></trkpt><trkpt lat="38.17170849113987" lon="-2.4824160565964357"><ele>1364.4</ele><time>2026-04-20T14:42:04Z</time></trkpt><trkpt lat="38.171778901617365" lon="-2.482376810277369"><ele>1366.0</ele><time>2026-04-20T14:42:05Z</time></trkpt><trkpt lat="38.17188242476046" lon="-2.482371411429758"><ele>1366.0</ele><time>2026-04-20T14:42:07.001Z</time></trkpt><trkpt lat="38.17193881037075" lon="-2.4824354990831754"><ele>1366.0</ele><time>2026-04-20T14:42:09.001Z</time></trkpt><trkpt lat="38.17201290369072" lon="-2.4824873819194093"><ele>1366.0</ele><time>2026-04-20T14:42:12.001Z</time></trkpt><trkpt lat="38.17205177984665" lon="-2.48261711600891"><ele>1366.0</ele><time>2026-04-20T14:42:16.001Z</time></trkpt><trkpt lat="38.17208059306001" lon="-2.482764722925615"><ele>1366.0</ele><time>2026-04-20T14:42:18.001Z</time></trkpt><trkpt lat="38.172107252939774" lon="-2.4828952629012346"><ele>1366.0</ele><time>2026-04-20T14:42:20.001Z</time></trkpt><trkpt lat="38.17212863157911" lon="-2.483008580556878"><ele>1366.0</ele><time>2026-04-20T14:42:22.001Z</time></trkpt><trkpt lat="38.172143697107984" lon="-2.4831069546661166"><ele>1366.0</ele><time>2026-04-20T14:42:24.001Z</time></trkpt><trkpt lat="38.17214007975566" lon="-2.482994998350063"><ele>1366.0</ele><time>2026-04-20T14:42:50Z</time></trkpt><trkpt lat="38.17212820024717" lon="-2.4829049395430562"><ele>1366.0</ele><time>2026-04-20T14:42:51Z</time></trkpt><trkpt lat="38.17211087256327" lon="-2.4828089747544957"><ele>1366.0</ele><time>2026-04-20T14:42:52Z</time></trkpt><trkpt lat="38.1720908050483" lon="-2.482721174832588"><ele>1366.0</ele><time>2026-04-20T14:42:53Z</time></trkpt><trkpt lat="38.17203779358781" lon="-2.4826568884830067"><ele>1366.0</ele><time>2026-04-20T14:42:54Z</time></trkpt><trkpt lat="38.1720059131807" lon="-2.482546902993926"><ele>1366.0</ele><time>2026-04-20T14:42:56Z</time></trkpt><trkpt lat="38.171930218523585" lon="-2.4825392368170793"><ele>1366.0</ele><time>2026-04-20T14:42:59Z</time></trkpt><trkpt lat="38.17188619882985" lon="-2.4826049501296734"><ele>1366.0</ele><time>2026-04-20T14:43:01Z</time></trkpt><trkpt lat="38.17189665000155" lon="-2.4827562968345323"><ele>1366.0</ele><time>2026-04-20T14:43:04Z</time></trkpt><trkpt lat="38.17191196992896" lon="-2.4828349617881837"><ele>1368.0</ele><time>2026-04-20T14:43:05Z</time></trkpt><trkpt lat="38.17191136782717" lon="-2.482955327289252"><ele>1370.0</ele><time>2026-04-20T14:43:07Z</time></trkpt><trkpt lat="38.17183914352533" lon="-2.483081713853662"><ele>1372.0</ele><time>2026-04-20T14:43:09Z</time></trkpt><trkpt lat="38.17175826563293" lon="-2.483168331101624"><ele>1374.0</ele><time>2026-04-20T14:43:11Z</time></trkpt><trkpt lat="38.17169623387521" lon="-2.483283773415387"><ele>1376.0</ele><time>2026-04-20T14:43:13Z</time></trkpt><trkpt lat="38.171661947859775" lon="-2.483439928349403"><ele>1376.0</ele><time>2026-04-20T14:43:15Z</time></trkpt><trkpt lat="38.171642007184616" lon="-2.483595616004066"><ele>1376.0</ele><time>2026-04-20T14:43:17Z</time></trkpt><trkpt lat="38.171629027974305" lon="-2.4836886082983303"><ele>1376.0</ele><time>2026-04-20T14:43:18Z</time></trkpt><trkpt lat="38.17160934703302" lon="-2.483771782667558"><ele>1376.0</ele><time>2026-04-20T14:43:19Z</time></trkpt><trkpt lat="38.171587023707566" lon="-2.483860419977092"><ele>1376.0</ele><time>2026-04-20T14:43:20Z</time></trkpt><trkpt lat="38.1716129414285" lon="-2.483963441383862"><ele>1376.0</ele><time>2026-04-20T14:43:21Z</time></trkpt><trkpt lat="38.17163554054166" lon="-2.4840603145321483"><ele>1376.6666666666667</ele><time>2026-04-20T14:43:22Z</time></trkpt><trkpt lat="38.17162412667198" lon="-2.4841603089493836"><ele>1377.3333333333335</ele><time>2026-04-20T14:43:23Z</time></trkpt><trkpt lat="38.17162852161426" lon="-2.4842566287418744"><ele>1378.0</ele><time>2026-04-20T14:43:24Z</time></trkpt><trkpt lat="38.17162617834742" lon="-2.4843512444923697"><ele>1378.6666666666667</ele><time>2026-04-20T14:43:25Z</time></trkpt><trkpt lat="38.17163796455103" lon="-2.4844433546867974"><ele>1379.3333333333333</ele><time>2026-04-20T14:43:26Z</time></trkpt><trkpt lat="38.17162266309982" lon="-2.484537497712129"><ele>1380.0</ele><time>2026-04-20T14:43:27Z</time></trkpt><trkpt lat="38.17158130411788" lon="-2.4846217184806076"><ele>1380.2857142857142</ele><time>2026-04-20T14:43:28Z</time></trkpt><trkpt lat="38.171536804550755" lon="-2.4847042438390563"><ele>1380.5714285714284</ele><time>2026-04-20T14:43:29Z</time></trkpt><trkpt lat="38.17150307947237" lon="-2.48478452499604"><ele>1380.8571428571427</ele><time>2026-04-20T14:43:30Z</time></trkpt><trkpt lat="38.17147026676626" lon="-2.4848599390077695"><ele>1381.142857142857</ele><time>2026-04-20T14:43:31Z</time></trkpt><trkpt lat="38.171454912497005" lon="-2.4849449524410896"><ele>1381.4285714285713</ele><time>2026-04-20T14:43:32Z</time></trkpt><trkpt lat="38.17145130331518" lon="-2.4850350131327565"><ele>1381.7142857142856</ele><time>2026-04-20T14:43:33Z</time></trkpt><trkpt lat="38.17146001011676" lon="-2.4851175708504845"><ele>1382.0</ele><time>2026-04-20T14:43:34Z</time></trkpt><trkpt lat="38.17151591461606" lon="-2.4852738902938367"><ele>1381.9999999999998</ele><time>2026-04-20T14:43:36Z</time></trkpt><trkpt lat="38.171549216813865" lon="-2.4853669773587357"><ele>1382.0</ele><time>2026-04-20T14:43:37Z</time></trkpt><trkpt lat="38.171567700462084" lon="-2.485453070555612"><ele>1382.0</ele><time>2026-04-20T14:43:38Z</time></trkpt><trkpt lat="38.171618416470906" lon="-2.4855145059220893"><ele>1382.0</ele><time>2026-04-20T14:43:39Z</time></trkpt><trkpt lat="38.17167672833096" lon="-2.4855645577537913"><ele>1382.0</ele><time>2026-04-20T14:43:40Z</time></trkpt><trkpt lat="38.17173719562095" lon="-2.485620675540612"><ele>1381.9999999999998</ele><time>2026-04-20T14:43:41Z</time></trkpt><trkpt lat="38.171807770094794" lon="-2.4856748819308363"><ele>1382.0</ele><time>2026-04-20T14:43:42Z</time></trkpt><trkpt lat="38.17187607245501" lon="-2.4857405041611704"><ele>1381.6666666666667</ele><time>2026-04-20T14:43:43Z</time></trkpt><trkpt lat="38.17193790012096" lon="-2.485827692378685"><ele>1381.3333333333335</ele><time>2026-04-20T14:43:44Z</time></trkpt><trkpt lat="38.171964025576045" lon="-2.4859329031544775"><ele>1381.0</ele><time>2026-04-20T14:43:45Z</time></trkpt><trkpt lat="38.17200562917882" lon="-2.4860314843757148"><ele>1380.6666666666667</ele><time>2026-04-20T14:43:46Z</time></trkpt><trkpt lat="38.17204862651421" lon="-2.486134005663816"><ele>1380.3333333333333</ele><time>2026-04-20T14:43:47Z</time></trkpt><trkpt lat="38.17208226319231" lon="-2.4862261321694614"><ele>1380.0</ele><time>2026-04-20T14:43:48Z</time></trkpt><trkpt lat="38.172116613777135" lon="-2.4862980230330463"><ele>1380.8333333333333</ele><time>2026-04-20T14:43:49Z</time></trkpt><trkpt lat="38.172115340789425" lon="-2.486384819761831"><ele>1381.6666666666667</ele><time>2026-04-20T14:43:50Z</time></trkpt><trkpt lat="38.172076749515504" lon="-2.4864758635000017"><ele>1382.5</ele><time>2026-04-20T14:43:51Z</time></trkpt><trkpt lat="38.17206955809836" lon="-2.4865902328294887"><ele>1383.3333333333335</ele><time>2026-04-20T14:43:52Z</time></trkpt><trkpt lat="38.172064680283476" lon="-2.486697121456485"><ele>1384.1666666666667</ele><time>2026-04-20T14:43:53Z</time></trkpt><trkpt lat="38.172082619905694" lon="-2.4867823748097484"><ele>1385.0</ele><time>2026-04-20T14:43:54Z</time></trkpt><trkpt lat="38.1721092316723" lon="-2.486869500026683"><ele>1385.0</ele><time>2026-04-20T14:43:55Z</time></trkpt><trkpt lat="38.17217887250275" lon="-2.4869372762140105"><ele>1385.0</ele><time>2026-04-20T14:43:56Z</time></trkpt><trkpt lat="38.172264658983764" lon="-2.486986067734615"><ele>1385.0</ele><time>2026-04-20T14:43:57Z</time></trkpt><trkpt lat="38.17237224657844" lon="-2.4870238307947075"><ele>1385.0</ele><time>2026-04-20T14:43:58Z</time></trkpt><trkpt lat="38.17246157405094" lon="-2.4870388846537894"><ele>1385.0</ele><time>2026-04-20T14:43:59Z</time></trkpt><trkpt lat="38.17257513819411" lon="-2.4870579902386325"><ele>1389.2</ele><time>2026-04-20T14:44:01.001Z</time></trkpt><trkpt lat="38.172662753035176" lon="-2.4871549030893516"><ele>1393.4</ele><time>2026-04-20T14:44:03.001Z</time></trkpt><trkpt lat="38.17266282288331" lon="-2.4873341092265995"><ele>1397.6</ele><time>2026-04-20T14:44:05.001Z</time></trkpt><trkpt lat="38.172616492071505" lon="-2.4874286051567527"><ele>1401.8</ele><time>2026-04-20T14:44:06.001Z</time></trkpt><trkpt lat="38.17259519437839" lon="-2.4875440437870893"><ele>1406.0</ele><time>2026-04-20T14:44:07.001Z</time></trkpt><trkpt lat="38.17255698620906" lon="-2.4876518905307963"><ele>1406.0</ele><time>2026-04-20T14:44:08.001Z</time></trkpt><trkpt lat="38.17252161292867" lon="-2.4877517353090766"><ele>1406.0</ele><time>2026-04-20T14:44:09.001Z</time></trkpt><trkpt lat="38.1724857997639" lon="-2.4878525544771404"><ele>1406.0</ele><time>2026-04-20T14:44:10.001Z</time></trkpt><trkpt lat="38.17244803524826" lon="-2.487956668104202"><ele>1406.0</ele><time>2026-04-20T14:44:11.001Z</time></trkpt><trkpt lat="38.17241494557461" lon="-2.4880614604555156"><ele>1406.0</ele><time>2026-04-20T14:44:12.001Z</time></trkpt><trkpt lat="38.172396657638316" lon="-2.488172907367865"><ele>1406.0</ele><time>2026-04-20T14:44:13.001Z</time></trkpt><trkpt lat="38.172384185024114" lon="-2.4882957320707604"><ele>1408.1999999999998</ele><time>2026-04-20T14:44:14.001Z</time></trkpt><trkpt lat="38.17238892927131" lon="-2.488418495831296"><ele>1410.3999999999999</ele><time>2026-04-20T14:44:15.001Z</time></trkpt><trkpt lat="38.17240714757381" lon="-2.488546588730965"><ele>1412.6</ele><time>2026-04-20T14:44:16.001Z</time></trkpt><trkpt lat="38.172432050388814" lon="-2.488672201672658"><ele>1414.8</ele><time>2026-04-20T14:44:17.001Z</time></trkpt><trkpt lat="38.17247190746347" lon="-2.4887971517796075"><ele>1417.0</ele><time>2026-04-20T14:44:18.001Z</time></trkpt><trkpt lat="38.17252021576233" lon="-2.48892305935069"><ele>1418.3999999999999</ele><time>2026-04-20T14:44:19.001Z</time></trkpt><trkpt lat="38.17255738741653" lon="-2.489056128545175"><ele>1419.8</ele><time>2026-04-20T14:44:20.001Z</time></trkpt><trkpt lat="38.17259617094085" lon="-2.4891745480933785"><ele>1421.2</ele><time>2026-04-20T14:44:21.001Z</time></trkpt><trkpt lat="38.17263298693975" lon="-2.489274659852278"><ele>1422.6</ele><time>2026-04-20T14:44:22.001Z</time></trkpt><trkpt lat="38.172686750749556" lon="-2.4893574551950373"><ele>1424.0</ele><time>2026-04-20T14:44:23.001Z</time></trkpt><trkpt lat="38.17277095258477" lon="-2.489418624731469"><ele>1424.0</ele><time>2026-04-20T14:44:24.001Z</time></trkpt><trkpt lat="38.17288329224891" lon="-2.489475567785758"><ele>1424.0</ele><time>2026-04-20T14:44:25.001Z</time></trkpt><trkpt lat="38.17299481202202" lon="-2.4895194369260993"><ele>1424.0</ele><time>2026-04-20T14:44:26.001Z</time></trkpt><trkpt lat="38.17307353941055" lon="-2.48955868419959"><ele>1424.0</ele><time>2026-04-20T14:44:27.001Z</time></trkpt><trkpt lat="38.17317388340799" lon="-2.489641773712233"><ele>1424.0</ele><time>2026-04-20T14:44:29.001Z</time></trkpt><trkpt lat="38.17321624277347" lon="-2.48975145390416"><ele>1425.8333333333335</ele><time>2026-04-20T14:44:31.001Z</time></trkpt><trkpt lat="38.1731873744242" lon="-2.4898264356928004"><ele>1427.6666666666667</ele><time>2026-04-20T14:44:32.001Z</time></trkpt><trkpt lat="38.173099016548086" lon="-2.489864704912275"><ele>1429.5</ele><time>2026-04-20T14:44:33.001Z</time></trkpt><trkpt lat="38.17302789508685" lon="-2.4899044027213475"><ele>1431.3333333333333</ele><time>2026-04-20T14:44:34.001Z</time></trkpt><trkpt lat="38.172947362194826" lon="-2.489950307257868"><ele>1433.1666666666665</ele><time>2026-04-20T14:44:35.001Z</time></trkpt><trkpt lat="38.1728924111182" lon="-2.490031941664104"><ele>1435.0</ele><time>2026-04-20T14:44:36.001Z</time></trkpt><trkpt lat="38.17286032502801" lon="-2.4901261697960693"><ele>1435.0</ele><time>2026-04-20T14:44:37.001Z</time></trkpt><trkpt lat="38.17282870029949" lon="-2.4902309984195825"><ele>1435.0</ele><time>2026-04-20T14:44:38.001Z</time></trkpt><trkpt lat="38.172810812581524" lon="-2.490327594812347"><ele>1435.0</ele><time>2026-04-20T14:44:39.001Z</time></trkpt><trkpt lat="38.17286129595293" lon="-2.4904613757657783"><ele>1435.0</ele><time>2026-04-20T14:44:41.001Z</time></trkpt><trkpt lat="38.172981961700046" lon="-2.4905365979006127"><ele>1435.0</ele><time>2026-04-20T14:44:43.001Z</time></trkpt><trkpt lat="38.17306509306463" lon="-2.4905402835093473"><ele>1437.8</ele><time>2026-04-20T14:44:44.001Z</time></trkpt><trkpt lat="38.17315705123055" lon="-2.4906174365631997"><ele>1440.6</ele><time>2026-04-20T14:44:46.001Z</time></trkpt><trkpt lat="38.173182062902704" lon="-2.4907616393727614"><ele>1443.4</ele><time>2026-04-20T14:44:48.001Z</time></trkpt><trkpt lat="38.173142450850094" lon="-2.490838973786993"><ele>1446.2</ele><time>2026-04-20T14:44:49.001Z</time></trkpt><trkpt lat="38.17305980981651" lon="-2.490911426854981"><ele>1449.0</ele><time>2026-04-20T14:44:50Z</time></trkpt><trkpt lat="38.17298541300842" lon="-2.491024549953404"><ele>1449.0</ele><time>2026-04-20T14:44:51Z</time></trkpt><trkpt lat="38.17291543352274" lon="-2.491149764965644"><ele>1449.0</ele><time>2026-04-20T14:44:52Z</time></trkpt><trkpt lat="38.17285824058422" lon="-2.491272854084699"><ele>1449.0</ele><time>2026-04-20T14:44:53Z</time></trkpt><trkpt lat="38.1728218638979" lon="-2.491379778543346"><ele>1449.0</ele><time>2026-04-20T14:44:54Z</time></trkpt><trkpt lat="38.17278661303923" lon="-2.491459295056812"><ele>1449.0</ele><time>2026-04-20T14:44:55Z</time></trkpt><trkpt lat="38.17265838502379" lon="-2.4915154525662397"><ele>1453.5</ele><time>2026-04-20T14:44:57Z</time></trkpt><trkpt lat="38.17256358722789" lon="-2.4915732032465483"><ele>1458.0</ele><time>2026-04-20T14:44:58Z</time></trkpt><trkpt lat="38.17242612036983" lon="-2.491678919004413"><ele>1462.5</ele><time>2026-04-20T14:44:59Z</time></trkpt><trkpt lat="38.17228674051415" lon="-2.491811428212139"><ele>1467.0</ele><time>2026-04-20T14:45:00Z</time></trkpt><trkpt lat="38.17213851674539" lon="-2.491913262155137"><ele>1467.0</ele><time>2026-04-20T14:45:01Z</time></trkpt><trkpt lat="38.172030135386926" lon="-2.491993028607062"><ele>1467.0</ele><time>2026-04-20T14:45:02Z</time></trkpt><trkpt lat="38.17194964273077" lon="-2.492084158451901"><ele>1467.0</ele><time>2026-04-20T14:45:03Z</time></trkpt><trkpt lat="38.17187235713317" lon="-2.492174539808877"><ele>1467.0</ele><time>2026-04-20T14:45:04Z</time></trkpt><trkpt lat="38.17181800814298" lon="-2.4922547558491694"><ele>1467.0</ele><time>2026-04-20T14:45:05Z</time></trkpt><trkpt lat="38.17175313295653" lon="-2.492322632631902"><ele>1468.6666666666667</ele><time>2026-04-20T14:45:06Z</time></trkpt><trkpt lat="38.17168507369909" lon="-2.492376722548504"><ele>1470.3333333333333</ele><time>2026-04-20T14:45:07Z</time></trkpt><trkpt lat="38.17161096269338" lon="-2.492415773483189"><ele>1472.0</ele><time>2026-04-20T14:45:08Z</time></trkpt><trkpt lat="38.17152602816344" lon="-2.492468926194457"><ele>1473.6666666666665</ele><time>2026-04-20T14:45:09Z</time></trkpt><trkpt lat="38.17146777249451" lon="-2.4925442785922614"><ele>1475.3333333333333</ele><time>2026-04-20T14:45:10Z</time></trkpt><trkpt lat="38.17141417585994" lon="-2.492602127852819"><ele>1477.0</ele><time>2026-04-20T14:45:11Z</time></trkpt><trkpt lat="38.171371698758186" lon="-2.49268784280545"><ele>1477.0</ele><time>2026-04-20T14:45:12Z</time></trkpt><trkpt lat="38.17129899360827" lon="-2.4927753296891666"><ele>1477.0</ele><time>2026-04-20T14:45:13Z</time></trkpt><trkpt lat="38.17124599313836" lon="-2.492850440913936"><ele>1477.0</ele><time>2026-04-20T14:45:14Z</time></trkpt><trkpt lat="38.17116441545749" lon="-2.4929117509034473"><ele>1477.0</ele><time>2026-04-20T14:45:15Z</time></trkpt><trkpt lat="38.17107093992836" lon="-2.492979794051495"><ele>1477.0</ele><time>2026-04-20T14:45:16Z</time></trkpt><trkpt lat="38.170982945164496" lon="-2.4930767464802748"><ele>1479.0</ele><time>2026-04-20T14:45:17Z</time></trkpt><trkpt lat="38.17089446109399" lon="-2.4931661612513203"><ele>1481.0</ele><time>2026-04-20T14:45:18Z</time></trkpt><trkpt lat="38.17082279337263" lon="-2.493240509795649"><ele>1483.0</ele><time>2026-04-20T14:45:19Z</time></trkpt><trkpt lat="38.170728657825954" lon="-2.493329063156053"><ele>1485.0</ele><time>2026-04-20T14:45:20Z</time></trkpt><trkpt lat="38.170642165014115" lon="-2.493436741547662"><ele>1487.0</ele><time>2026-04-20T14:45:21Z</time></trkpt><trkpt lat="38.170532575941266" lon="-2.493498617229408"><ele>1487.0</ele><time>2026-04-20T14:45:22Z</time></trkpt><trkpt lat="38.170447175210285" lon="-2.493557144917586"><ele>1487.0</ele><time>2026-04-20T14:45:23Z</time></trkpt><trkpt lat="38.17035103958872" lon="-2.4935886993156715"><ele>1487.0</ele><time>2026-04-20T14:45:24Z</time></trkpt><trkpt lat="38.170270497635016" lon="-2.4936419813509887"><ele>1487.0</ele><time>2026-04-20T14:45:25Z</time></trkpt><trkpt lat="38.170187842568595" lon="-2.4936846151331213"><ele>1487.0</ele><time>2026-04-20T14:45:26Z</time></trkpt><trkpt lat="38.17010141535532" lon="-2.4937291947233"><ele>1489.5</ele><time>2026-04-20T14:45:27Z</time></trkpt><trkpt lat="38.170030136871084" lon="-2.493771125564474"><ele>1492.0</ele><time>2026-04-20T14:45:28Z</time></trkpt><trkpt lat="38.16997338492277" lon="-2.4938121914518905"><ele>1494.5</ele><time>2026-04-20T14:45:29Z</time></trkpt><trkpt lat="38.169936766512265" lon="-2.493878636954837"><ele>1497.0</ele><time>2026-04-20T14:45:30Z</time></trkpt><trkpt lat="38.169958562764315" lon="-2.4939841094166786"><ele>1499.5</ele><time>2026-04-20T14:45:32Z</time></trkpt><trkpt lat="38.17005356869172" lon="-2.494113358314949"><ele>1502.0</ele><time>2026-04-20T14:45:34Z</time></trkpt><trkpt lat="38.170121445144716" lon="-2.4942256463110417"><ele>1502.0</ele><time>2026-04-20T14:45:35Z</time></trkpt><trkpt lat="38.17015452971037" lon="-2.494372683690876"><ele>1502.0</ele><time>2026-04-20T14:45:36Z</time></trkpt><trkpt lat="38.17017870891295" lon="-2.4945287149292756"><ele>1502.0</ele><time>2026-04-20T14:45:37Z</time></trkpt><trkpt lat="38.170198914942816" lon="-2.4947170292422745"><ele>1502.0</ele><time>2026-04-20T14:45:38Z</time></trkpt><trkpt lat="38.1702135466962" lon="-2.494900722941785"><ele>1504.3333333333335</ele><time>2026-04-20T14:45:39.001Z</time></trkpt><trkpt lat="38.170209222367404" lon="-2.4951140228029547"><ele>1506.6666666666667</ele><time>2026-04-20T14:45:40.001Z</time></trkpt><trkpt lat="38.17018945717032" lon="-2.495331553994257"><ele>1509.0</ele><time>2026-04-20T14:45:41.001Z</time></trkpt><trkpt lat="38.1701714061517" lon="-2.495531237326052"><ele>1511.2</ele><time>2026-04-20T14:45:42.001Z</time></trkpt><trkpt lat="38.17015667362688" lon="-2.4956812083209736"><ele>1513.4</ele><time>2026-04-20T14:45:43.001Z</time></trkpt><trkpt lat="38.170136057454656" lon="-2.4958103392300264"><ele>1515.6</ele><time>2026-04-20T14:45:44.001Z</time></trkpt><trkpt lat="38.17013313749478" lon="-2.49592550424481"><ele>1517.8</ele><time>2026-04-20T14:45:45.001Z</time></trkpt><trkpt lat="38.17009729943832" lon="-2.496035160511209"><ele>1520.0</ele><time>2026-04-20T14:45:46.001Z</time></trkpt><trkpt lat="38.17000839298982" lon="-2.4961378097870117"><ele>1520.0</ele><time>2026-04-20T14:45:47.001Z</time></trkpt><trkpt lat="38.169889328631776" lon="-2.4961931625404157"><ele>1520.0</ele><time>2026-04-20T14:45:48.001Z</time></trkpt><trkpt lat="38.16976037336395" lon="-2.496247862008968"><ele>1520.0</ele><time>2026-04-20T14:45:49.001Z</time></trkpt><trkpt lat="38.16962793780189" lon="-2.4962751990097276"><ele>1520.0</ele><time>2026-04-20T14:45:50.001Z</time></trkpt><trkpt lat="38.169510277171625" lon="-2.496326682205914"><ele>1521.5</ele><time>2026-04-20T14:45:51.001Z</time></trkpt><trkpt lat="38.169405234986826" lon="-2.4964249865891803"><ele>1523.0</ele><time>2026-04-20T14:45:52.001Z</time></trkpt><trkpt lat="38.16928948620278" lon="-2.496552263671768"><ele>1524.5</ele><time>2026-04-20T14:45:53.001Z</time></trkpt><trkpt lat="38.16917435406361" lon="-2.496693631602702"><ele>1526.0</ele><time>2026-04-20T14:45:54.001Z</time></trkpt><trkpt lat="38.169069854075005" lon="-2.4968078717830746"><ele>1525.25</ele><time>2026-04-20T14:45:55.001Z</time></trkpt><trkpt lat="38.168949257699026" lon="-2.4968821464271693"><ele>1524.5</ele><time>2026-04-20T14:45:56.001Z</time></trkpt><trkpt lat="38.16884856306282" lon="-2.496948440726677"><ele>1523.75</ele><time>2026-04-20T14:45:57.001Z</time></trkpt><trkpt lat="38.1687777113767" lon="-2.4970517738173243"><ele>1523.0</ele><time>2026-04-20T14:45:58.001Z</time></trkpt><trkpt lat="38.16871529120527" lon="-2.497142174097654"><ele>1523.0</ele><time>2026-04-20T14:45:59.001Z</time></trkpt><trkpt lat="38.168673991503" lon="-2.497229064820809"><ele>1523.0</ele><time>2026-04-20T14:46:00.001Z</time></trkpt><trkpt lat="38.16865634702905" lon="-2.4973117095426955"><ele>1523.0</ele><time>2026-04-20T14:46:01.001Z</time></trkpt><trkpt lat="38.16865493220912" lon="-2.497441192741127"><ele>1523.0</ele><time>2026-04-20T14:46:03.001Z</time></trkpt><trkpt lat="38.16868179336305" lon="-2.4975302310195286"><ele>1523.0</ele><time>2026-04-20T14:46:04.001Z</time></trkpt><trkpt lat="38.16869507300198" lon="-2.497628675375334"><ele>1523.0</ele><time>2026-04-20T14:46:05.001Z</time></trkpt><trkpt lat="38.1686992861815" lon="-2.4977293805783503"><ele>1523.0</ele><time>2026-04-20T14:46:06.001Z</time></trkpt><trkpt lat="38.16865901188206" lon="-2.497801961741599"><ele>1523.0</ele><time>2026-04-20T14:46:07.001Z</time></trkpt><trkpt lat="38.168634049206396" lon="-2.4979671980889337"><ele>1523.0</ele><time>2026-04-20T14:46:09.001Z</time></trkpt><trkpt lat="38.16868063467907" lon="-2.4980687538508053"><ele>1523.0</ele><time>2026-04-20T14:46:10.001Z</time></trkpt><trkpt lat="38.16869929734974" lon="-2.4982086159463126"><ele>1523.0</ele><time>2026-04-20T14:46:11.001Z</time></trkpt><trkpt lat="38.16870058717923" lon="-2.4983547280167158"><ele>1526.6666666666667</ele><time>2026-04-20T14:46:12.001Z</time></trkpt><trkpt lat="38.16870909738004" lon="-2.4984828067274236"><ele>1530.3333333333335</ele><time>2026-04-20T14:46:13.001Z</time></trkpt><trkpt lat="38.168739586055054" lon="-2.4985673555878227"><ele>1534.0</ele><time>2026-04-20T14:46:14.001Z</time></trkpt><trkpt lat="38.16875551662772" lon="-2.4986597112239974"><ele>1537.6666666666667</ele><time>2026-04-20T14:46:15.001Z</time></trkpt><trkpt lat="38.16876765503805" lon="-2.498764371949202"><ele>1541.3333333333333</ele><time>2026-04-20T14:46:16.001Z</time></trkpt><trkpt lat="38.168794069454684" lon="-2.498874377671277"><ele>1545.0</ele><time>2026-04-20T14:46:17.001Z</time></trkpt><trkpt lat="38.16883541491837" lon="-2.498952402850697"><ele>1547.5</ele><time>2026-04-20T14:46:18.001Z</time></trkpt><trkpt lat="38.16889396665906" lon="-2.499029645965566"><ele>1550.0</ele><time>2026-04-20T14:46:19.001Z</time></trkpt><trkpt lat="38.16894169932307" lon="-2.499111828657387"><ele>1552.5</ele><time>2026-04-20T14:46:20.001Z</time></trkpt><trkpt lat="38.16897950583013" lon="-2.4992062055855455"><ele>1555.0</ele><time>2026-04-20T14:46:21.001Z</time></trkpt><trkpt lat="38.16898626249389" lon="-2.4993181805114246"><ele>1557.5</ele><time>2026-04-20T14:46:22.001Z</time></trkpt><trkpt lat="38.16902589472597" lon="-2.49941251291618"><ele>1560.0</ele><time>2026-04-20T14:46:23.001Z</time></trkpt><trkpt lat="38.16907379716024" lon="-2.4994951995073884"><ele>1561.6666666666667</ele><time>2026-04-20T14:46:24.001Z</time></trkpt><trkpt lat="38.16912828355475" lon="-2.499592432296632"><ele>1563.3333333333335</ele><time>2026-04-20T14:46:25.001Z</time></trkpt><trkpt lat="38.169185857161075" lon="-2.4996899797902477"><ele>1565.0</ele><time>2026-04-20T14:46:26.001Z</time></trkpt><trkpt lat="38.169226920522405" lon="-2.499813043730144"><ele>1566.6666666666667</ele><time>2026-04-20T14:46:27.001Z</time></trkpt><trkpt lat="38.16926414427572" lon="-2.4998897205379147"><ele>1568.3333333333335</ele><time>2026-04-20T14:46:28.001Z</time></trkpt><trkpt lat="38.16925124802246" lon="-2.4999823253721227"><ele>1570.0</ele><time>2026-04-20T14:46:29.001Z</time></trkpt><trkpt lat="38.16922770269948" lon="-2.500073654368077"><ele>1570.0000000000002</ele><time>2026-04-20T14:46:30.001Z</time></trkpt><trkpt lat="38.16920476191395" lon="-2.5002030845107814"><ele>1570.0</ele><time>2026-04-20T14:46:31.001Z</time></trkpt><trkpt lat="38.169179230101854" lon="-2.5002952181799016"><ele>1570.0</ele><time>2026-04-20T14:46:32.001Z</time></trkpt><trkpt lat="38.169170454177525" lon="-2.5003926816937283"><ele>1570.0</ele><time>2026-04-20T14:46:34.001Z</time></trkpt><trkpt lat="38.169186876452635" lon="-2.500504129512494"><ele>1570.0000000000002</ele><time>2026-04-20T14:49:53.001Z</time></trkpt><trkpt lat="38.16919521863483" lon="-2.500585173647494"><ele>1570.0</ele><time>2026-04-20T14:49:54.001Z</time></trkpt><trkpt lat="38.16924345239462" lon="-2.500664450374411"><ele>1570.0</ele><time>2026-04-20T14:49:55.001Z</time></trkpt><trkpt lat="38.16930412988423" lon="-2.500740061261731"><ele>1570.0</ele><time>2026-04-20T14:49:56.001Z</time></trkpt><trkpt lat="38.169370472285216" lon="-2.5008006296186696"><ele>1570.0</ele><time>2026-04-20T14:49:57.001Z</time></trkpt><trkpt lat="38.1694655918347" lon="-2.5008247208843875"><ele>1570.0</ele><time>2026-04-20T14:49:58.001Z</time></trkpt><trkpt lat="38.16955464826976" lon="-2.500860815572148"><ele>1570.0</ele><time>2026-04-20T14:49:59.001Z</time></trkpt><trkpt lat="38.16962987643712" lon="-2.500930563727099"><ele>1570.0000000000002</ele><time>2026-04-20T14:50:00.001Z</time></trkpt><trkpt lat="38.16971363304968" lon="-2.5009880295403857"><ele>1570.0</ele><time>2026-04-20T14:50:01.001Z</time></trkpt><trkpt lat="38.16977816891804" lon="-2.501064072694318"><ele>1570.0</ele><time>2026-04-20T14:50:02.001Z</time></trkpt><trkpt lat="38.16983331635708" lon="-2.5011546110047393"><ele>1570.0</ele><time>2026-04-20T14:50:03.001Z</time></trkpt><trkpt lat="38.16988632795595" lon="-2.5012488589052797"><ele>1570.0000000000002</ele><time>2026-04-20T14:50:04.001Z</time></trkpt><trkpt lat="38.169927752187775" lon="-2.501338543255133"><ele>1570.0</ele><time>2026-04-20T14:50:05.001Z</time></trkpt><trkpt lat="38.16998465311771" lon="-2.5013934261024824"><ele>1571.6</ele><time>2026-04-20T14:50:06.001Z</time></trkpt><trkpt lat="38.1700799071895" lon="-2.5014373652946498"><ele>1573.2</ele><time>2026-04-20T14:50:08.001Z</time></trkpt><trkpt lat="38.17017615092447" lon="-2.501380067445903"><ele>1574.8000000000002</ele><time>2026-04-20T14:50:10.001Z</time></trkpt><trkpt lat="38.170309674639476" lon="-2.5013659016264285"><ele>1576.4</ele><time>2026-04-20T14:50:12.001Z</time></trkpt><trkpt lat="38.170391703822354" lon="-2.5013676234542985"><ele>1578.0</ele><time>2026-04-20T14:50:13.001Z</time></trkpt><trkpt lat="38.17049721771271" lon="-2.5013851784487473"><ele>1578.0</ele><time>2026-04-20T14:50:14.001Z</time></trkpt><trkpt lat="38.17060645290987" lon="-2.5014040374467137"><ele>1578.0</ele><time>2026-04-20T14:50:15.001Z</time></trkpt><trkpt lat="38.17071216709993" lon="-2.501411990820509"><ele>1578.0</ele><time>2026-04-20T14:50:16.001Z</time></trkpt><trkpt lat="38.170825046721916" lon="-2.501425369934699"><ele>1578.0</ele><time>2026-04-20T14:50:17.001Z</time></trkpt><trkpt lat="38.1709438143892" lon="-2.5014542540477884"><ele>1579.5</ele><time>2026-04-20T14:50:18.001Z</time></trkpt><trkpt lat="38.171069093388056" lon="-2.501483586311556"><ele>1581.0</ele><time>2026-04-20T14:50:19.001Z</time></trkpt><trkpt lat="38.171196523961676" lon="-2.501502660391505"><ele>1582.5</ele><time>2026-04-20T14:50:20.001Z</time></trkpt><trkpt lat="38.1713280970322" lon="-2.5015177334576295"><ele>1584.0</ele><time>2026-04-20T14:50:21.001Z</time></trkpt><trkpt lat="38.17144715287178" lon="-2.5015362835827206"><ele>1584.8000000000002</ele><time>2026-04-20T14:50:22.001Z</time></trkpt><trkpt lat="38.17154957682429" lon="-2.501561290277526"><ele>1585.6000000000001</ele><time>2026-04-20T14:50:23.001Z</time></trkpt><trkpt lat="38.17164748197981" lon="-2.501595865627111"><ele>1586.4</ele><time>2026-04-20T14:50:24.001Z</time></trkpt><trkpt lat="38.17174127270113" lon="-2.501651977841811"><ele>1587.2</ele><time>2026-04-20T14:50:25.001Z</time></trkpt><trkpt lat="38.17182411931426" lon="-2.5017230842572764"><ele>1588.0</ele><time>2026-04-20T14:50:26.001Z</time></trkpt><trkpt lat="38.17190342386004" lon="-2.5018040576526857"><ele>1588.0</ele><time>2026-04-20T14:50:27.001Z</time></trkpt><trkpt lat="38.1719704423463" lon="-2.501882287330029"><ele>1588.0</ele><time>2026-04-20T14:50:28.001Z</time></trkpt><trkpt lat="38.172015676617725" lon="-2.501956010593084"><ele>1588.0</ele><time>2026-04-20T14:50:29.001Z</time></trkpt><trkpt lat="38.17204816862071" lon="-2.502039036613511"><ele>1588.0</ele><time>2026-04-20T14:50:30.001Z</time></trkpt><trkpt lat="38.172070882421636" lon="-2.502124895627018"><ele>1588.0</ele><time>2026-04-20T14:50:31.001Z</time></trkpt><trkpt lat="38.172080729850556" lon="-2.502206963621053"><ele>1588.0</ele><time>2026-04-20T14:50:32.001Z</time></trkpt><trkpt lat="38.17207943011054" lon="-2.5022918479675367"><ele>1588.0</ele><time>2026-04-20T14:50:33.001Z</time></trkpt><trkpt lat="38.172056483562486" lon="-2.502380634048402"><ele>1588.5000000000002</ele><time>2026-04-20T14:50:34.001Z</time></trkpt><trkpt lat="38.17202581384749" lon="-2.5024664980786184"><ele>1589.0</ele><time>2026-04-20T14:50:35.001Z</time></trkpt><trkpt lat="38.17198962863326" lon="-2.502565297112478"><ele>1589.5</ele><time>2026-04-20T14:50:36.001Z</time></trkpt><trkpt lat="38.17195734887176" lon="-2.502684994882453"><ele>1590.0</ele><time>2026-04-20T14:50:37.001Z</time></trkpt><trkpt lat="38.17193942981761" lon="-2.502805539265772"><ele>1590.5000000000002</ele><time>2026-04-20T14:50:38.001Z</time></trkpt><trkpt lat="38.17192955330888" lon="-2.502912570688968"><ele>1591.0</ele><time>2026-04-20T14:50:39.001Z</time></trkpt><trkpt lat="38.17193776192523" lon="-2.5030176609260213"><ele>1593.4</ele><time>2026-04-20T14:50:40.001Z</time></trkpt><trkpt lat="38.17196393141709" lon="-2.503133131690025"><ele>1595.8</ele><time>2026-04-20T14:50:41.001Z</time></trkpt><trkpt lat="38.17200241909116" lon="-2.503262734226165"><ele>1598.2</ele><time>2026-04-20T14:50:42.001Z</time></trkpt><trkpt lat="38.17203732220857" lon="-2.5033806335882773"><ele>1600.6000000000001</ele><time>2026-04-20T14:50:43.001Z</time></trkpt><trkpt lat="38.17207529661673" lon="-2.5034903532121997"><ele>1603.0</ele><time>2026-04-20T14:50:44.001Z</time></trkpt><trkpt lat="38.17214551687226" lon="-2.5035798260598923"><ele>1603.0000000000002</ele><time>2026-04-20T14:50:45.001Z</time></trkpt><trkpt lat="38.17219658105535" lon="-2.503680739908034"><ele>1603.0</ele><time>2026-04-20T14:50:46.001Z</time></trkpt><trkpt lat="38.17225592452502" lon="-2.503766894279827"><ele>1603.0</ele><time>2026-04-20T14:50:47.001Z</time></trkpt><trkpt lat="38.17232210009723" lon="-2.5038431182827376"><ele>1603.0</ele><time>2026-04-20T14:50:48.001Z</time></trkpt><trkpt lat="38.17238235570619" lon="-2.5039146069021143"><ele>1603.0000000000002</ele><time>2026-04-20T14:50:49.001Z</time></trkpt><trkpt lat="38.172445158542985" lon="-2.503989150744687"><ele>1603.0</ele><time>2026-04-20T14:50:50.001Z</time></trkpt><trkpt lat="38.17249870522619" lon="-2.504067509399343"><ele>1598.6000000000001</ele><time>2026-04-20T14:50:51.001Z</time></trkpt><trkpt lat="38.17253633574051" lon="-2.504165244897679"><ele>1594.2</ele><time>2026-04-20T14:50:52.001Z</time></trkpt><trkpt lat="38.17256968037756" lon="-2.5042724929873352"><ele>1589.8</ele><time>2026-04-20T14:50:53.001Z</time></trkpt><trkpt lat="38.172618264356295" lon="-2.5043950056683375"><ele>1585.4</ele><time>2026-04-20T14:50:54.001Z</time></trkpt><trkpt lat="38.17264524046925" lon="-2.504517287442869"><ele>1581.0</ele><time>2026-04-20T14:50:55.001Z</time></trkpt><trkpt lat="38.17267271896693" lon="-2.5046369014712386"><ele>1581.0</ele><time>2026-04-20T14:50:56.002Z</time></trkpt><trkpt lat="38.172706363291134" lon="-2.5047480110739087"><ele>1581.0</ele><time>2026-04-20T14:50:57.002Z</time></trkpt><trkpt lat="38.17273138952361" lon="-2.5048645060167107"><ele>1581.0</ele><time>2026-04-20T14:50:58.002Z</time></trkpt><trkpt lat="38.172760957303005" lon="-2.504989021025986"><ele>1581.0</ele><time>2026-04-20T14:50:59.002Z</time></trkpt><trkpt lat="38.17277060561133" lon="-2.505130008099749"><ele>1581.0</ele><time>2026-04-20T14:51:00.002Z</time></trkpt><trkpt lat="38.172788071371244" lon="-2.50526224815446"><ele>1581.0</ele><time>2026-04-20T14:51:01.002Z</time></trkpt><trkpt lat="38.17280404852027" lon="-2.5053838435138482"><ele>1581.0</ele><time>2026-04-20T14:51:02.002Z</time></trkpt><trkpt lat="38.17282623208273" lon="-2.50550640682123"><ele>1581.0</ele><time>2026-04-20T14:51:03.002Z</time></trkpt><trkpt lat="38.172858788723985" lon="-2.5056322956821098"><ele>1581.0</ele><time>2026-04-20T14:51:04.002Z</time></trkpt><trkpt lat="38.172879457800704" lon="-2.50574796938587"><ele>1581.0</ele><time>2026-04-20T14:51:05.002Z</time></trkpt><trkpt lat="38.17289835465259" lon="-2.5058373631770756"><ele>1580.6666666666667</ele><time>2026-04-20T14:51:06.002Z</time></trkpt><trkpt lat="38.17291713492488" lon="-2.5059600701771965"><ele>1580.3333333333335</ele><time>2026-04-20T14:51:07.001Z</time></trkpt><trkpt lat="38.17294065359462" lon="-2.5060711059274112"><ele>1580.0</ele><time>2026-04-20T14:51:08.001Z</time></trkpt><trkpt lat="38.17298646573069" lon="-2.5061583573501176"><ele>1579.6666666666667</ele><time>2026-04-20T14:51:09.001Z</time></trkpt><trkpt lat="38.17299843866241" lon="-2.5062531582576897"><ele>1579.3333333333335</ele><time>2026-04-20T14:51:10.001Z</time></trkpt><trkpt lat="38.17302563818579" lon="-2.506341640805504"><ele>1579.0</ele><time>2026-04-20T14:51:11.001Z</time></trkpt><trkpt lat="38.17302627538979" lon="-2.5064736517126365"><ele>1575.2</ele><time>2026-04-20T14:51:13.001Z</time></trkpt><trkpt lat="38.17295952268922" lon="-2.5065958105965933"><ele>1571.4</ele><time>2026-04-20T14:51:15.001Z</time></trkpt><trkpt lat="38.17289552543444" lon="-2.506672433493008"><ele>1567.6</ele><time>2026-04-20T14:51:16.001Z</time></trkpt><trkpt lat="38.17281768618537" lon="-2.5067613205761456"><ele>1563.8</ele><time>2026-04-20T14:51:17.001Z</time></trkpt><trkpt lat="38.172721311270955" lon="-2.5068563587492827"><ele>1560.0</ele><time>2026-04-20T14:51:18.001Z</time></trkpt><trkpt lat="38.17262532048103" lon="-2.5069480211424047"><ele>1560.0</ele><time>2026-04-20T14:51:19.001Z</time></trkpt><trkpt lat="38.172526338695064" lon="-2.507027189726139"><ele>1560.0</ele><time>2026-04-20T14:51:20.001Z</time></trkpt><trkpt lat="38.172423591779854" lon="-2.507114206189099"><ele>1560.0</ele><time>2026-04-20T14:51:21.001Z</time></trkpt><trkpt lat="38.17231882107073" lon="-2.507198523003712"><ele>1560.0</ele><time>2026-04-20T14:51:22.001Z</time></trkpt><trkpt lat="38.17222098853886" lon="-2.5072880003308033"><ele>1559.6</ele><time>2026-04-20T14:51:23.001Z</time></trkpt><trkpt lat="38.17212451132079" lon="-2.5073815509359654"><ele>1559.2</ele><time>2026-04-20T14:51:24.001Z</time></trkpt><trkpt lat="38.17203230062883" lon="-2.5074639381615107"><ele>1558.8000000000002</ele><time>2026-04-20T14:51:25.001Z</time></trkpt><trkpt lat="38.171941843500235" lon="-2.5075350535546295"><ele>1558.4</ele><time>2026-04-20T14:51:26.001Z</time></trkpt><trkpt lat="38.171858836357224" lon="-2.507611160129227"><ele>1558.0</ele><time>2026-04-20T14:51:27.001Z</time></trkpt><trkpt lat="38.17177776578831" lon="-2.5076789207442576"><ele>1558.0000000000002</ele><time>2026-04-20T14:51:28.001Z</time></trkpt><trkpt lat="38.17169585714577" lon="-2.5077305137300283"><ele>1558.0</ele><time>2026-04-20T14:51:29.001Z</time></trkpt><trkpt lat="38.171614400997896" lon="-2.5077649840363025"><ele>1558.0</ele><time>2026-04-20T14:51:30.001Z</time></trkpt><trkpt lat="38.17154202787886" lon="-2.507788129382545"><ele>1558.0</ele><time>2026-04-20T14:51:31.001Z</time></trkpt><trkpt lat="38.171482433647164" lon="-2.507837401826291"><ele>1558.0000000000002</ele><time>2026-04-20T14:51:32.001Z</time></trkpt><trkpt lat="38.171448815342956" lon="-2.5079369360170687"><ele>1558.0</ele><time>2026-04-20T14:51:33.001Z</time></trkpt><trkpt lat="38.17140445744504" lon="-2.5080396026400074"><ele>1559.2</ele><time>2026-04-20T14:51:34.001Z</time></trkpt><trkpt lat="38.171376087235" lon="-2.5081538328639983"><ele>1560.4</ele><time>2026-04-20T14:51:35.001Z</time></trkpt><trkpt lat="38.17136414794452" lon="-2.508258917905975"><ele>1561.6000000000001</ele><time>2026-04-20T14:51:36.001Z</time></trkpt><trkpt lat="38.171364162626034" lon="-2.508350980524747"><ele>1562.8000000000002</ele><time>2026-04-20T14:51:37.001Z</time></trkpt><trkpt lat="38.17139714445661" lon="-2.508504619704412"><ele>1564.0</ele><time>2026-04-20T14:51:39.001Z</time></trkpt><trkpt lat="38.171504839378585" lon="-2.5085552575674432"><ele>1562.4</ele><time>2026-04-20T14:51:41.001Z</time></trkpt><trkpt lat="38.17158241795422" lon="-2.508589991116565"><ele>1560.8000000000002</ele><time>2026-04-20T14:51:42.001Z</time></trkpt><trkpt lat="38.17166128308192" lon="-2.508634810238043"><ele>1559.1999999999998</ele><time>2026-04-20T14:51:43.001Z</time></trkpt><trkpt lat="38.171751939125336" lon="-2.5087462084164747"><ele>1557.6</ele><time>2026-04-20T14:51:45.001Z</time></trkpt><trkpt lat="38.1717725472488" lon="-2.5088517722135806"><ele>1556.0</ele><time>2026-04-20T14:51:46Z</time></trkpt><trkpt lat="38.17177026505413" lon="-2.5090034169965736"><ele>1555.9999999999998</ele><time>2026-04-20T14:51:47Z</time></trkpt><trkpt lat="38.1718145956755" lon="-2.5091128128021056"><ele>1556.0</ele><time>2026-04-20T14:51:48Z</time></trkpt><trkpt lat="38.171876636695835" lon="-2.509182341105639"><ele>1556.0</ele><time>2026-04-20T14:51:49Z</time></trkpt><trkpt lat="38.17190997884563" lon="-2.5092524416783024"><ele>1556.0</ele><time>2026-04-20T14:51:50Z</time></trkpt><trkpt lat="38.17193076667967" lon="-2.5093363539463747"><ele>1555.9999999999998</ele><time>2026-04-20T14:51:51Z</time></trkpt><trkpt lat="38.17197939608237" lon="-2.5094748591374136"><ele>1556.0</ele><time>2026-04-20T14:51:53Z</time></trkpt><trkpt lat="38.17201670370201" lon="-2.509624005413308"><ele>1555.3333333333333</ele><time>2026-04-20T14:51:55Z</time></trkpt><trkpt lat="38.17203921222945" lon="-2.5097220836498915"><ele>1554.6666666666665</ele><time>2026-04-20T14:51:56Z</time></trkpt><trkpt lat="38.17204313850243" lon="-2.5098464802570777"><ele>1554.0</ele><time>2026-04-20T14:51:57Z</time></trkpt><trkpt lat="38.17205366012188" lon="-2.5099632813178743"><ele>1553.3333333333335</ele><time>2026-04-20T14:51:58Z</time></trkpt><trkpt lat="38.17207471644231" lon="-2.5100573837799476"><ele>1552.6666666666667</ele><time>2026-04-20T14:51:59Z</time></trkpt><trkpt lat="38.17206425138909" lon="-2.5101606313001152"><ele>1552.0</ele><time>2026-04-20T14:52:00Z</time></trkpt><trkpt lat="38.17206549044605" lon="-2.510279361981492"><ele>1552.0000000000002</ele><time>2026-04-20T14:52:01Z</time></trkpt><trkpt lat="38.17205708970684" lon="-2.5103952909079474"><ele>1552.0</ele><time>2026-04-20T14:52:02Z</time></trkpt><trkpt lat="38.172040055228145" lon="-2.5105015873321386"><ele>1552.0</ele><time>2026-04-20T14:52:03Z</time></trkpt><trkpt lat="38.17201659720032" lon="-2.510591004201297"><ele>1552.0</ele><time>2026-04-20T14:52:04Z</time></trkpt><trkpt lat="38.17198962654294" lon="-2.5106924597169566"><ele>1552.0000000000002</ele><time>2026-04-20T14:52:05Z</time></trkpt><trkpt lat="38.17196017366659" lon="-2.510788619568168"><ele>1552.0</ele><time>2026-04-20T14:52:06Z</time></trkpt><trkpt lat="38.17191150640513" lon="-2.5108763741599502"><ele>1550.0000000000002</ele><time>2026-04-20T14:52:07Z</time></trkpt><trkpt lat="38.17185919322554" lon="-2.510955583746588"><ele>1548.0</ele><time>2026-04-20T14:52:08Z</time></trkpt><trkpt lat="38.17181230934228" lon="-2.5110472325676825"><ele>1546.0</ele><time>2026-04-20T14:52:09Z</time></trkpt><trkpt lat="38.17181733693912" lon="-2.511152428452373"><ele>1544.0</ele><time>2026-04-20T14:52:10Z</time></trkpt><trkpt lat="38.17183012753566" lon="-2.5112482800645766"><ele>1542.0000000000002</ele><time>2026-04-20T14:52:11Z</time></trkpt><trkpt lat="38.171820329545554" lon="-2.5113566446252573"><ele>1540.0</ele><time>2026-04-20T14:52:12Z</time></trkpt><trkpt lat="38.17182975241858" lon="-2.511458888726789"><ele>1539.4</ele><time>2026-04-20T14:52:13Z</time></trkpt><trkpt lat="38.171777900043296" lon="-2.511539396448147"><ele>1538.8</ele><time>2026-04-20T14:52:14Z</time></trkpt><trkpt lat="38.17172092934343" lon="-2.511625050460247"><ele>1538.1999999999998</ele><time>2026-04-20T14:52:15Z</time></trkpt><trkpt lat="38.17165297328185" lon="-2.5117132305654692"><ele>1537.6</ele><time>2026-04-20T14:52:16Z</time></trkpt><trkpt lat="38.17158922037261" lon="-2.5118178557689887"><ele>1537.0</ele><time>2026-04-20T14:52:17Z</time></trkpt><trkpt lat="38.171520908490535" lon="-2.5119101904392407"><ele>1535.3333333333335</ele><time>2026-04-20T14:52:18Z</time></trkpt><trkpt lat="38.171466059995595" lon="-2.5119986091927347"><ele>1533.6666666666667</ele><time>2026-04-20T14:52:19Z</time></trkpt><trkpt lat="38.17141965057187" lon="-2.5120709496647953"><ele>1532.0</ele><time>2026-04-20T14:52:20Z</time></trkpt><trkpt lat="38.17136835382634" lon="-2.5121419896628434"><ele>1530.3333333333335</ele><time>2026-04-20T14:52:21Z</time></trkpt><trkpt lat="38.17133327085616" lon="-2.5122162564291886"><ele>1528.6666666666667</ele><time>2026-04-20T14:52:22Z</time></trkpt><trkpt lat="38.17128907225521" lon="-2.512280126564624"><ele>1527.0</ele><time>2026-04-20T14:52:23Z</time></trkpt><trkpt lat="38.171203817225305" lon="-2.5124018013029223"><ele>1526.3999999999999</ele><time>2026-04-20T14:52:25Z</time></trkpt><trkpt lat="38.17113663177598" lon="-2.512483030153396"><ele>1525.8</ele><time>2026-04-20T14:52:26Z</time></trkpt><trkpt lat="38.171064083911126" lon="-2.5125694727292736"><ele>1525.2</ele><time>2026-04-20T14:52:27Z</time></trkpt><trkpt lat="38.170989336603085" lon="-2.5126755710031157"><ele>1524.6</ele><time>2026-04-20T14:52:28Z</time></trkpt><trkpt lat="38.170911636155374" lon="-2.5127799821292505"><ele>1524.0</ele><time>2026-04-20T14:52:29Z</time></trkpt><trkpt lat="38.17083564501128" lon="-2.512889260882413"><ele>1524.25</ele><time>2026-04-20T14:52:30Z</time></trkpt><trkpt lat="38.17076676889479" lon="-2.5130116282434294"><ele>1524.5</ele><time>2026-04-20T14:52:31Z</time></trkpt><trkpt lat="38.170705860122425" lon="-2.513142876453606"><ele>1524.75</ele><time>2026-04-20T14:52:32Z</time></trkpt><trkpt lat="38.17064356769516" lon="-2.5132794858286513"><ele>1525.0</ele><time>2026-04-20T14:52:33Z</time></trkpt><trkpt lat="38.17058444125218" lon="-2.5134137088053397"><ele>1525.0</ele><time>2026-04-20T14:52:34Z</time></trkpt><trkpt lat="38.170532480489754" lon="-2.5135474262810256"><ele>1525.0</ele><time>2026-04-20T14:52:35Z</time></trkpt><trkpt lat="38.170482435521336" lon="-2.5136841317199687"><ele>1525.0</ele><time>2026-04-20T14:52:36Z</time></trkpt><trkpt lat="38.17044430536793" lon="-2.5138239045733894"><ele>1525.0</ele><time>2026-04-20T14:52:37Z</time></trkpt><trkpt lat="38.17041505635549" lon="-2.513965616997233"><ele>1524.0</ele><time>2026-04-20T14:52:38Z</time></trkpt><trkpt lat="38.170402908591775" lon="-2.5141088779591163"><ele>1523.0</ele><time>2026-04-20T14:52:39Z</time></trkpt><trkpt lat="38.170397731022284" lon="-2.514256856840292"><ele>1522.0</ele><time>2026-04-20T14:52:40Z</time></trkpt><trkpt lat="38.17041611377869" lon="-2.514404412468527"><ele>1521.0</ele><time>2026-04-20T14:52:41Z</time></trkpt><trkpt lat="38.170387059876035" lon="-2.514541821115682"><ele>1521.5</ele><time>2026-04-20T14:52:42Z</time></trkpt><trkpt lat="38.170363964958085" lon="-2.5146854074647913"><ele>1522.0</ele><time>2026-04-20T14:52:43Z</time></trkpt><trkpt lat="38.17033677515135" lon="-2.5148321469591948"><ele>1522.5</ele><time>2026-04-20T14:52:44Z</time></trkpt><trkpt lat="38.17030778043675" lon="-2.5149787235741585"><ele>1523.0</ele><time>2026-04-20T14:52:45Z</time></trkpt><trkpt lat="38.17027807695139" lon="-2.5151196063830934"><ele>1523.0</ele><time>2026-04-20T14:52:46Z</time></trkpt><trkpt lat="38.17025206706041" lon="-2.5152505330030213"><ele>1523.0</ele><time>2026-04-20T14:52:47Z</time></trkpt><trkpt lat="38.170229927085835" lon="-2.515376499432304"><ele>1523.0</ele><time>2026-04-20T14:52:48Z</time></trkpt><trkpt lat="38.17019919781292" lon="-2.5155068366790894"><ele>1523.0</ele><time>2026-04-20T14:52:49Z</time></trkpt><trkpt lat="38.17017165906727" lon="-2.515645270537983"><ele>1523.0</ele><time>2026-04-20T14:52:50Z</time></trkpt><trkpt lat="38.170141148964085" lon="-2.515814532079805"><ele>1526.0</ele><time>2026-04-20T14:52:51Z</time></trkpt><trkpt lat="38.170115379755266" lon="-2.515990878479818"><ele>1529.0</ele><time>2026-04-20T14:52:52Z</time></trkpt><trkpt lat="38.17008746426758" lon="-2.5161589849396644"><ele>1532.0</ele><time>2026-04-20T14:52:53Z</time></trkpt><trkpt lat="38.17005364066631" lon="-2.5162852244389367"><ele>1535.0</ele><time>2026-04-20T14:52:54Z</time></trkpt><trkpt lat="38.17002867682599" lon="-2.516389956743915"><ele>1533.8</ele><time>2026-04-20T14:52:55Z</time></trkpt><trkpt lat="38.16999580576141" lon="-2.516497145289174"><ele>1532.6</ele><time>2026-04-20T14:52:56Z</time></trkpt><trkpt lat="38.169959526367826" lon="-2.5165926087708943"><ele>1531.4</ele><time>2026-04-20T14:52:57Z</time></trkpt><trkpt lat="38.169907054212715" lon="-2.516689377742452"><ele>1530.2</ele><time>2026-04-20T14:52:59Z</time></trkpt><trkpt lat="38.16980171631638" lon="-2.51672593121312"><ele>1529.0</ele><time>2026-04-20T14:53:01Z</time></trkpt><trkpt lat="38.16974769998355" lon="-2.516795163634336"><ele>1529.0</ele><time>2026-04-20T14:53:02.001Z</time></trkpt><trkpt lat="38.16967208140959" lon="-2.5169008248250218"><ele>1529.0</ele><time>2026-04-20T14:53:03.001Z</time></trkpt><trkpt lat="38.16958928905955" lon="-2.5170119268981193"><ele>1529.0</ele><time>2026-04-20T14:53:04.001Z</time></trkpt><trkpt lat="38.16951704469453" lon="-2.5171047450844255"><ele>1529.0</ele><time>2026-04-20T14:53:05.001Z</time></trkpt><trkpt lat="38.169457548447056" lon="-2.5171812670010483"><ele>1529.0</ele><time>2026-04-20T14:53:06.001Z</time></trkpt><trkpt lat="38.16940502266873" lon="-2.5172487846472884"><ele>1532.0</ele><time>2026-04-20T14:53:07.001Z</time></trkpt><trkpt lat="38.169349916554886" lon="-2.5173331167536457"><ele>1535.0</ele><time>2026-04-20T14:53:08.001Z</time></trkpt><trkpt lat="38.16930236360473" lon="-2.517423359970731"><ele>1538.0</ele><time>2026-04-20T14:53:09.001Z</time></trkpt><trkpt lat="38.16925250680648" lon="-2.5175388341535285"><ele>1541.0</ele><time>2026-04-20T14:53:10.001Z</time></trkpt><trkpt lat="38.169210257386496" lon="-2.517653548882352"><ele>1544.0</ele><time>2026-04-20T14:53:11Z</time></trkpt><trkpt lat="38.169172596214814" lon="-2.517783777013342"><ele>1545.0</ele><time>2026-04-20T14:53:12Z</time></trkpt><trkpt lat="38.16914512961752" lon="-2.5179255271979186"><ele>1546.0</ele><time>2026-04-20T14:53:13Z</time></trkpt><trkpt lat="38.16912688857945" lon="-2.5180812328805464"><ele>1547.0</ele><time>2026-04-20T14:53:14Z</time></trkpt><trkpt lat="38.16910420154544" lon="-2.51822149756216"><ele>1548.0</ele><time>2026-04-20T14:53:15Z</time></trkpt><trkpt lat="38.169073426297444" lon="-2.5183407691199564"><ele>1548.0</ele><time>2026-04-20T14:53:16Z</time></trkpt><trkpt lat="38.169037403419004" lon="-2.518458746287326"><ele>1548.0</ele><time>2026-04-20T14:53:17Z</time></trkpt><trkpt lat="38.1689626970825" lon="-2.518562241601849"><ele>1548.0</ele><time>2026-04-20T14:53:18Z</time></trkpt><trkpt lat="38.16890782211617" lon="-2.5186637657465796"><ele>1548.0</ele><time>2026-04-20T14:53:19Z</time></trkpt><trkpt lat="38.16882395458191" lon="-2.5187774487479757"><ele>1548.0</ele><time>2026-04-20T14:53:20Z</time></trkpt><trkpt lat="38.168732516226214" lon="-2.518883959868481"><ele>1549.2</ele><time>2026-04-20T14:53:21Z</time></trkpt><trkpt lat="38.16864261121254" lon="-2.5189924754168556"><ele>1550.4</ele><time>2026-04-20T14:53:22Z</time></trkpt><trkpt lat="38.16855915871809" lon="-2.5190911260220927"><ele>1551.6000000000001</ele><time>2026-04-20T14:53:23Z</time></trkpt><trkpt lat="38.168505197920815" lon="-2.5191920186426424"><ele>1552.8000000000002</ele><time>2026-04-20T14:53:24Z</time></trkpt><trkpt lat="38.168464670532984" lon="-2.5192808981353307"><ele>1554.0</ele><time>2026-04-20T14:53:25Z</time></trkpt><trkpt lat="38.16842516149374" lon="-2.5193829041610187"><ele>1554.0</ele><time>2026-04-20T14:53:26Z</time></trkpt><trkpt lat="38.16836406730147" lon="-2.5195142769499643"><ele>1554.0</ele><time>2026-04-20T14:53:27Z</time></trkpt><trkpt lat="38.168306806411636" lon="-2.519657290566768"><ele>1554.0</ele><time>2026-04-20T14:53:28Z</time></trkpt><trkpt lat="38.168258657781095" lon="-2.519805725123272"><ele>1554.0</ele><time>2026-04-20T14:53:29Z</time></trkpt><trkpt lat="38.168185083464614" lon="-2.519946028158969"><ele>1552.8000000000002</ele><time>2026-04-20T14:53:30Z</time></trkpt><trkpt lat="38.16813351268634" lon="-2.520085983082702"><ele>1551.6000000000001</ele><time>2026-04-20T14:53:31Z</time></trkpt><trkpt lat="38.16808800086156" lon="-2.5202121815192164"><ele>1550.4</ele><time>2026-04-20T14:53:32Z</time></trkpt><trkpt lat="38.16804693930492" lon="-2.52032333220005"><ele>1549.2</ele><time>2026-04-20T14:53:33Z</time></trkpt><trkpt lat="38.16801891535705" lon="-2.520437356315869"><ele>1548.0</ele><time>2026-04-20T14:53:34Z</time></trkpt><trkpt lat="38.16797347535548" lon="-2.520545155979794"><ele>1550.1666666666667</ele><time>2026-04-20T14:53:35Z</time></trkpt><trkpt lat="38.16793520347162" lon="-2.5206654317074575"><ele>1552.3333333333335</ele><time>2026-04-20T14:53:36Z</time></trkpt><trkpt lat="38.167906954161765" lon="-2.5207828256435607"><ele>1554.5</ele><time>2026-04-20T14:53:37Z</time></trkpt><trkpt lat="38.167881127370144" lon="-2.5208901362784957"><ele>1556.6666666666667</ele><time>2026-04-20T14:53:38Z</time></trkpt><trkpt lat="38.16786341081203" lon="-2.5209937488632974"><ele>1558.8333333333335</ele><time>2026-04-20T14:53:39Z</time></trkpt><trkpt lat="38.16784856806444" lon="-2.5210912890316273"><ele>1561.0</ele><time>2026-04-20T14:53:40Z</time></trkpt><trkpt lat="38.16782999609185" lon="-2.521223854725473"><ele>1564.5</ele><time>2026-04-20T14:53:41Z</time></trkpt><trkpt lat="38.16779855041333" lon="-2.5213677816967364"><ele>1568.0</ele><time>2026-04-20T14:53:42Z</time></trkpt><trkpt lat="38.1677730672664" lon="-2.5215210885498833"><ele>1571.5</ele><time>2026-04-20T14:53:43Z</time></trkpt><trkpt lat="38.1677296313288" lon="-2.521671605849984"><ele>1575.0</ele><time>2026-04-20T14:53:44Z</time></trkpt><trkpt lat="38.16769339984864" lon="-2.5218191800487895"><ele>1575.0</ele><time>2026-04-20T14:53:45Z</time></trkpt><trkpt lat="38.16766076188028" lon="-2.5219550021821884"><ele>1575.0</ele><time>2026-04-20T14:53:46Z</time></trkpt><trkpt lat="38.167627478152404" lon="-2.5220912039908234"><ele>1575.0</ele><time>2026-04-20T14:53:47Z</time></trkpt><trkpt lat="38.167592539458816" lon="-2.522220143826025"><ele>1575.0</ele><time>2026-04-20T14:53:48Z</time></trkpt><trkpt lat="38.167557917184915" lon="-2.5223392418697594"><ele>1575.0</ele><time>2026-04-20T14:53:49Z</time></trkpt><trkpt lat="38.167532017891304" lon="-2.5224374852633082"><ele>1575.6</ele><time>2026-04-20T14:53:50Z</time></trkpt><trkpt lat="38.16749245289676" lon="-2.5225490968934206"><ele>1576.2</ele><time>2026-04-20T14:53:51Z</time></trkpt><trkpt lat="38.16744761236488" lon="-2.5226671643637926"><ele>1576.8000000000002</ele><time>2026-04-20T14:53:52Z</time></trkpt><trkpt lat="38.16739992773974" lon="-2.522783742810626"><ele>1577.4</ele><time>2026-04-20T14:53:53Z</time></trkpt><trkpt lat="38.16735098911328" lon="-2.522895315430867"><ele>1578.0</ele><time>2026-04-20T14:53:54Z</time></trkpt><trkpt lat="38.16731049941903" lon="-2.522986602554968"><ele>1576.8333333333333</ele><time>2026-04-20T14:53:55Z</time></trkpt><trkpt lat="38.167284511815865" lon="-2.523082690123358"><ele>1575.6666666666665</ele><time>2026-04-20T14:53:56Z</time></trkpt><trkpt lat="38.167235359331166" lon="-2.5231551242855064"><ele>1574.5</ele><time>2026-04-20T14:53:57Z</time></trkpt><trkpt lat="38.16720795359285" lon="-2.523239806744506"><ele>1573.3333333333333</ele><time>2026-04-20T14:53:58Z</time></trkpt><trkpt lat="38.167177854411875" lon="-2.5233523342328605"><ele>1572.1666666666665</ele><time>2026-04-20T14:53:59Z</time></trkpt><trkpt lat="38.16715466827549" lon="-2.5234844233204994"><ele>1571.0</ele><time>2026-04-20T14:54:00Z</time></trkpt><trkpt lat="38.16713270654116" lon="-2.5236317226464307"><ele>1575.5</ele><time>2026-04-20T14:54:01Z</time></trkpt><trkpt lat="38.16711003501098" lon="-2.5237838008401914"><ele>1580.0</ele><time>2026-04-20T14:54:02Z</time></trkpt><trkpt lat="38.16707764231952" lon="-2.5239385993034924"><ele>1584.5</ele><time>2026-04-20T14:54:03Z</time></trkpt><trkpt lat="38.16705011843279" lon="-2.5240889765893275"><ele>1589.0</ele><time>2026-04-20T14:54:04Z</time></trkpt><trkpt lat="38.167006492871316" lon="-2.5242338425160744"><ele>1589.0</ele><time>2026-04-20T14:54:05Z</time></trkpt><trkpt lat="38.16695957568804" lon="-2.524375164559387"><ele>1589.0</ele><time>2026-04-20T14:54:06Z</time></trkpt><trkpt lat="38.16690579387007" lon="-2.5245011074477786"><ele>1589.0</ele><time>2026-04-20T14:54:07Z</time></trkpt><trkpt lat="38.16686431060985" lon="-2.5246266223467217"><ele>1589.0</ele><time>2026-04-20T14:54:08Z</time></trkpt><trkpt lat="38.16679756374982" lon="-2.5247280460763393"><ele>1589.0</ele><time>2026-04-20T14:54:09Z</time></trkpt><trkpt lat="38.16670830274343" lon="-2.5248104128357007"><ele>1587.8000000000002</ele><time>2026-04-20T14:54:10Z</time></trkpt><trkpt lat="38.16662700389405" lon="-2.524902716328824"><ele>1586.6000000000001</ele><time>2026-04-20T14:54:11Z</time></trkpt><trkpt lat="38.16652928833311" lon="-2.524972304205565"><ele>1585.4</ele><time>2026-04-20T14:54:12Z</time></trkpt><trkpt lat="38.166444979749855" lon="-2.525034637896096"><ele>1584.2</ele><time>2026-04-20T14:54:13Z</time></trkpt><trkpt lat="38.16637626165201" lon="-2.525087968565894"><ele>1583.0</ele><time>2026-04-20T14:54:14Z</time></trkpt><trkpt lat="38.166300473488086" lon="-2.525198871777243"><ele>1582.9999999999998</ele><time>2026-04-20T14:54:16Z</time></trkpt><trkpt lat="38.166278145121424" lon="-2.5253618737020553"><ele>1583.0</ele><time>2026-04-20T14:54:18Z</time></trkpt><trkpt lat="38.16628919264186" lon="-2.5254488706643134"><ele>1583.0</ele><time>2026-04-20T14:54:19Z</time></trkpt><trkpt lat="38.16630033625857" lon="-2.525545398371493"><ele>1583.0</ele><time>2026-04-20T14:54:20Z</time></trkpt><trkpt lat="38.166323496368875" lon="-2.5256476038726356"><ele>1582.9999999999998</ele><time>2026-04-20T14:54:21Z</time></trkpt><trkpt lat="38.166347908563296" lon="-2.5257427817243276"><ele>1583.0</ele><time>2026-04-20T14:54:22Z</time></trkpt><trkpt lat="38.16637289987121" lon="-2.525840433914614"><ele>1582.2</ele><time>2026-04-20T14:54:23Z</time></trkpt><trkpt lat="38.166413437976686" lon="-2.5259228951480734"><ele>1581.4</ele><time>2026-04-20T14:54:24Z</time></trkpt><trkpt lat="38.166473224070565" lon="-2.526021465404695"><ele>1580.6000000000001</ele><time>2026-04-20T14:54:25Z</time></trkpt><trkpt lat="38.16655745989164" lon="-2.5261329566581936"><ele>1579.8000000000002</ele><time>2026-04-20T14:54:26Z</time></trkpt><trkpt lat="38.166645094428716" lon="-2.5262456102917312"><ele>1579.0</ele><time>2026-04-20T14:54:27Z</time></trkpt><trkpt lat="38.166719208068635" lon="-2.52637955072162"><ele>1586.75</ele><time>2026-04-20T14:54:28Z</time></trkpt><trkpt lat="38.16678002649023" lon="-2.5265394528143115"><ele>1594.5</ele><time>2026-04-20T14:54:29Z</time></trkpt><trkpt lat="38.16682986010914" lon="-2.526692537866215"><ele>1602.25</ele><time>2026-04-20T14:54:30Z</time></trkpt><trkpt lat="38.16688316742881" lon="-2.5268428275107673"><ele>1610.0</ele><time>2026-04-20T14:54:31Z</time></trkpt><trkpt lat="38.166937122899064" lon="-2.5269898535604858"><ele>1609.4</ele><time>2026-04-20T14:54:31.999Z</time></trkpt><trkpt lat="38.166978701485576" lon="-2.527120773643917"><ele>1608.8</ele><time>2026-04-20T14:54:32.999Z</time></trkpt><trkpt lat="38.16700757987031" lon="-2.527222686085301"><ele>1608.1999999999998</ele><time>2026-04-20T14:54:33.999Z</time></trkpt><trkpt lat="38.16703140995516" lon="-2.5273306746772075"><ele>1607.6</ele><time>2026-04-20T14:54:34.999Z</time></trkpt><trkpt lat="38.1670700401364" lon="-2.5274472844908935"><ele>1607.0</ele><time>2026-04-20T14:54:35.999Z</time></trkpt><trkpt lat="38.16712120811668" lon="-2.5275578787154642"><ele>1606.9999999999998</ele><time>2026-04-20T14:54:36.999Z</time></trkpt><trkpt lat="38.16718762894169" lon="-2.5276530809618656"><ele>1607.0</ele><time>2026-04-20T14:54:37.999Z</time></trkpt><trkpt lat="38.16723495265775" lon="-2.527737998373922"><ele>1607.0</ele><time>2026-04-20T14:54:38.999Z</time></trkpt><trkpt lat="38.167283438954115" lon="-2.527804611122799"><ele>1607.0</ele><time>2026-04-20T14:54:39.999Z</time></trkpt><trkpt lat="38.16739607740742" lon="-2.5278331237560874"><ele>1606.9999999999998</ele><time>2026-04-20T14:54:41.999Z</time></trkpt><trkpt lat="38.167474103494165" lon="-2.527846536907059"><ele>1607.0</ele><time>2026-04-20T14:54:42.999Z</time></trkpt><trkpt lat="38.16758501196458" lon="-2.5278706692468202"><ele>1611.1999999999998</ele><time>2026-04-20T14:54:44.999Z</time></trkpt><trkpt lat="38.16762614783002" lon="-2.527938869539985"><ele>1615.4</ele><time>2026-04-20T14:54:45.999Z</time></trkpt><trkpt lat="38.167642900204015" lon="-2.5280382647673862"><ele>1619.6</ele><time>2026-04-20T14:54:46.999Z</time></trkpt><trkpt lat="38.16764785511562" lon="-2.528161039570083"><ele>1623.8000000000002</ele><time>2026-04-20T14:54:47.999Z</time></trkpt><trkpt lat="38.16764159542882" lon="-2.5283106028110938"><ele>1628.0</ele><time>2026-04-20T14:54:48.999Z</time></trkpt><trkpt lat="38.16763744378026" lon="-2.5284674751040046"><ele>1628.0</ele><time>2026-04-20T14:54:49.999Z</time></trkpt><trkpt lat="38.167630088421355" lon="-2.5286138595728596"><ele>1628.0</ele><time>2026-04-20T14:54:50.999Z</time></trkpt><trkpt lat="38.16761094130752" lon="-2.528750039609639"><ele>1628.0</ele><time>2026-04-20T14:54:51.999Z</time></trkpt><trkpt lat="38.167590727378915" lon="-2.528887902466334"><ele>1628.0</ele><time>2026-04-20T14:54:52.999Z</time></trkpt><trkpt lat="38.16756845468486" lon="-2.529010609376988"><ele>1628.0</ele><time>2026-04-20T14:54:53.999Z</time></trkpt><trkpt lat="38.1675771001559" lon="-2.529102381956012"><ele>1629.3333333333333</ele><time>2026-04-20T14:54:54.999Z</time></trkpt><trkpt lat="38.16757938068822" lon="-2.529193970268499"><ele>1630.6666666666665</ele><time>2026-04-20T14:54:55.999Z</time></trkpt><trkpt lat="38.1676504702483" lon="-2.5292669605592146"><ele>1632.0</ele><time>2026-04-20T14:54:56.999Z</time></trkpt><trkpt lat="38.167729232074066" lon="-2.529327335446403"><ele>1633.3333333333335</ele><time>2026-04-20T14:54:57.999Z</time></trkpt><trkpt lat="38.16778847696279" lon="-2.5294061056937505"><ele>1634.6666666666667</ele><time>2026-04-20T14:54:58.999Z</time></trkpt><trkpt lat="38.167834116259144" lon="-2.529476443419146"><ele>1636.0</ele><time>2026-04-20T14:54:59.999Z</time></trkpt><trkpt lat="38.16786955326455" lon="-2.529586853697587"><ele>1637.6</ele><time>2026-04-20T14:55:00.999Z</time></trkpt><trkpt lat="38.16788845096426" lon="-2.5297139072463626"><ele>1639.1999999999998</ele><time>2026-04-20T14:55:01.999Z</time></trkpt><trkpt lat="38.16789676395563" lon="-2.529843903296655"><ele>1640.8000000000002</ele><time>2026-04-20T14:55:02.999Z</time></trkpt><trkpt lat="38.16792487281616" lon="-2.52998016622013"><ele>1642.4</ele><time>2026-04-20T14:55:03.999Z</time></trkpt><trkpt lat="38.167930601601704" lon="-2.5301248890423054"><ele>1644.0</ele><time>2026-04-20T14:55:04.999Z</time></trkpt><trkpt lat="38.16792649813069" lon="-2.5302634423906594"><ele>1644.5</ele><time>2026-04-20T14:55:05.999Z</time></trkpt><trkpt lat="38.167920467712364" lon="-2.5303991682270026"><ele>1645.0</ele><time>2026-04-20T14:55:06.999Z</time></trkpt><trkpt lat="38.16790864515734" lon="-2.53053777215066"><ele>1645.5</ele><time>2026-04-20T14:55:07.999Z</time></trkpt><trkpt lat="38.16788512100239" lon="-2.530693493387104"><ele>1646.0</ele><time>2026-04-20T14:55:08.999Z</time></trkpt><trkpt lat="38.167853863717376" lon="-2.5308594469081975"><ele>1646.0</ele><time>2026-04-20T14:55:09.999Z</time></trkpt><trkpt lat="38.167818509247915" lon="-2.5310350366125762"><ele>1646.0</ele><time>2026-04-20T14:55:10.999Z</time></trkpt><trkpt lat="38.16778139205195" lon="-2.53121503874135"><ele>1646.0</ele><time>2026-04-20T14:55:11.999Z</time></trkpt><trkpt lat="38.16774743498131" lon="-2.5313840935545033"><ele>1646.0</ele><time>2026-04-20T14:55:12.999Z</time></trkpt><trkpt lat="38.167716626476135" lon="-2.5315408673217124"><ele>1644.5</ele><time>2026-04-20T14:55:13.999Z</time></trkpt><trkpt lat="38.16768565695938" lon="-2.5316984603956905"><ele>1643.0</ele><time>2026-04-20T14:55:14.999Z</time></trkpt><trkpt lat="38.16765737735895" lon="-2.5318423655194278"><ele>1641.5</ele><time>2026-04-20T14:55:15.999Z</time></trkpt><trkpt lat="38.167614914727224" lon="-2.5319682418478675"><ele>1640.0</ele><time>2026-04-20T14:55:16.999Z</time></trkpt><trkpt lat="38.1675900117712" lon="-2.532090982398706"><ele>1639.8333333333333</ele><time>2026-04-20T14:55:17.999Z</time></trkpt><trkpt lat="38.16757678460636" lon="-2.5322132355265743"><ele>1639.6666666666665</ele><time>2026-04-20T14:55:18.999Z</time></trkpt><trkpt lat="38.16755229864899" lon="-2.5323210771661384"><ele>1639.5</ele><time>2026-04-20T14:55:19.999Z</time></trkpt><trkpt lat="38.167534466546144" lon="-2.5324025206838874"><ele>1639.3333333333335</ele><time>2026-04-20T14:55:20.999Z</time></trkpt><trkpt lat="38.167515921193335" lon="-2.5325359226920887"><ele>1639.1666666666667</ele><time>2026-04-20T14:55:22.999Z</time></trkpt><trkpt lat="38.16755451366018" lon="-2.532602287847882"><ele>1639.0</ele><time>2026-04-20T14:55:23.999Z</time></trkpt><trkpt lat="38.167621620277934" lon="-2.5326510922117453"><ele>1639.0</ele><time>2026-04-20T14:55:24.999Z</time></trkpt><trkpt lat="38.16771224764697" lon="-2.5326404869651795"><ele>1639.0</ele><time>2026-04-20T14:55:25.999Z</time></trkpt><trkpt lat="38.16784710536132" lon="-2.5326457178904223"><ele>1639.0</ele><time>2026-04-20T14:55:26.999Z</time></trkpt><trkpt lat="38.16802170746586" lon="-2.5326696125430015"><ele>1639.0</ele><time>2026-04-20T14:55:27.999Z</time></trkpt><trkpt lat="38.16818905259228" lon="-2.5327110724633943"><ele>1637.0</ele><time>2026-04-20T14:55:28.999Z</time></trkpt><trkpt lat="38.16831970807662" lon="-2.532740698556193"><ele>1635.0</ele><time>2026-04-20T14:55:29.999Z</time></trkpt><trkpt lat="38.16845044876893" lon="-2.532765113067114"><ele>1633.0</ele><time>2026-04-20T14:55:30.999Z</time></trkpt><trkpt lat="38.1685658638405" lon="-2.5327787467685816"><ele>1631.0</ele><time>2026-04-20T14:55:31.999Z</time></trkpt><trkpt lat="38.1686749467581" lon="-2.532792643343101"><ele>1631.0</ele><time>2026-04-20T14:55:32.999Z</time></trkpt><trkpt lat="38.16878795288687" lon="-2.5328129813175644"><ele>1631.0</ele><time>2026-04-20T14:55:33.999Z</time></trkpt><trkpt lat="38.16888146144569" lon="-2.5328353542982245"><ele>1631.0</ele><time>2026-04-20T14:55:34.999Z</time></trkpt><trkpt lat="38.16894331646607" lon="-2.5328572748438782"><ele>1631.0</ele><time>2026-04-20T14:55:35.999Z</time></trkpt><trkpt lat="38.16905634197267" lon="-2.5329061565015945"><ele>1631.0</ele><time>2026-04-20T14:55:37.999Z</time></trkpt><trkpt lat="38.169138506781856" lon="-2.533027375526835"><ele>1633.6</ele><time>2026-04-20T14:55:39.999Z</time></trkpt><trkpt lat="38.16917539249651" lon="-2.533118638297305"><ele>1636.1999999999998</ele><time>2026-04-20T14:55:40.999Z</time></trkpt><trkpt lat="38.16922000867809" lon="-2.5332531675591903"><ele>1638.8000000000002</ele><time>2026-04-20T14:55:41.999Z</time></trkpt><trkpt lat="38.169259803368156" lon="-2.533383431710064"><ele>1641.4</ele><time>2026-04-20T14:55:42.999Z</time></trkpt><trkpt lat="38.169305672816314" lon="-2.5335008307077893"><ele>1644.0</ele><time>2026-04-20T14:55:43.999Z</time></trkpt><trkpt lat="38.16935228652927" lon="-2.5336237261030266"><ele>1645.6</ele><time>2026-04-20T14:55:44.999Z</time></trkpt><trkpt lat="38.1693809993058" lon="-2.533761305780474"><ele>1647.2</ele><time>2026-04-20T14:55:45.999Z</time></trkpt><trkpt lat="38.169400029108324" lon="-2.533891865784838"><ele>1648.8</ele><time>2026-04-20T14:55:46.999Z</time></trkpt><trkpt lat="38.16942196320229" lon="-2.5340128340029455"><ele>1650.3999999999999</ele><time>2026-04-20T14:55:47.999Z</time></trkpt><trkpt lat="38.1694273618504" lon="-2.5341447362251786"><ele>1652.0</ele><time>2026-04-20T14:55:48.999Z</time></trkpt><trkpt lat="38.16943637405417" lon="-2.5342516844058527"><ele>1651.9999999999998</ele><time>2026-04-20T14:55:49.999Z</time></trkpt><trkpt lat="38.16944159622446" lon="-2.534335855601229"><ele>1652.0</ele><time>2026-04-20T14:55:50.999Z</time></trkpt><trkpt lat="38.169467513706465" lon="-2.534410460107502"><ele>1652.0</ele><time>2026-04-20T14:55:51.999Z</time></trkpt><trkpt lat="38.16953729218237" lon="-2.534505068529073"><ele>1652.0</ele><time>2026-04-20T14:55:53.999Z</time></trkpt><trkpt lat="38.16960898972288" lon="-2.5344658087218948"><ele>1651.9999999999998</ele><time>2026-04-20T14:55:54.999Z</time></trkpt><trkpt lat="38.16967879720083" lon="-2.534413188491478"><ele>1652.0</ele><time>2026-04-20T14:55:55.999Z</time></trkpt><trkpt lat="38.16974309738314" lon="-2.534402757973552"><ele>1651.9999999999998</ele><time>2026-04-20T14:55:56.999Z</time></trkpt><trkpt lat="38.16980046804707" lon="-2.5343561097707914"><ele>1652.0</ele><time>2026-04-20T14:55:58.999Z</time></trkpt><trkpt lat="38.16984126212064" lon="-2.534425462963519"><ele>1652.0</ele><time>2026-04-20T14:56:01.999Z</time></trkpt><trkpt lat="38.16980611058919" lon="-2.5344942893000817"><ele>1652.0</ele><time>2026-04-20T15:17:21.999Z</time></trkpt><trkpt lat="38.169721226978496" lon="-2.534639837413576"><ele>1651.9999999999998</ele><time>2026-04-20T15:17:23.999Z</time></trkpt><trkpt lat="38.169668943876275" lon="-2.5347372293319856"><ele>1652.0</ele><time>2026-04-20T15:17:24.999Z</time></trkpt><trkpt lat="38.16963204045297" lon="-2.5348413948201136"><ele>1653.8</ele><time>2026-04-20T15:17:25.999Z</time></trkpt><trkpt lat="38.1696185449213" lon="-2.5349408055014306"><ele>1655.6</ele><time>2026-04-20T15:17:26.999Z</time></trkpt><trkpt lat="38.16962878835905" lon="-2.535066782716504"><ele>1657.3999999999999</ele><time>2026-04-20T15:17:27.999Z</time></trkpt><trkpt lat="38.16966137946426" lon="-2.5352052577325104"><ele>1659.1999999999998</ele><time>2026-04-20T15:17:28.999Z</time></trkpt><trkpt lat="38.16963053718099" lon="-2.5353545132278126"><ele>1661.0</ele><time>2026-04-20T15:17:29.999Z</time></trkpt><trkpt lat="38.169583429375685" lon="-2.5354926579254258"><ele>1661.75</ele><time>2026-04-20T15:17:30.999Z</time></trkpt><trkpt lat="38.16950829208998" lon="-2.5356236319214522"><ele>1662.5</ele><time>2026-04-20T15:17:31.999Z</time></trkpt><trkpt lat="38.16946786399054" lon="-2.535779271193762"><ele>1663.25</ele><time>2026-04-20T15:17:32.999Z</time></trkpt><trkpt lat="38.16941851421935" lon="-2.535914518318942"><ele>1664.0</ele><time>2026-04-20T15:17:33.999Z</time></trkpt><trkpt lat="38.169377870751305" lon="-2.53602590532425"><ele>1663.9999999999998</ele><time>2026-04-20T15:17:34.999Z</time></trkpt><trkpt lat="38.16933711601137" lon="-2.5361294021283594"><ele>1664.0</ele><time>2026-04-20T15:17:35.999Z</time></trkpt><trkpt lat="38.169272445501655" lon="-2.5362165964440377"><ele>1664.0</ele><time>2026-04-20T15:17:36.999Z</time></trkpt><trkpt lat="38.169213749819036" lon="-2.5363010066828555"><ele>1664.0</ele><time>2026-04-20T15:17:37.999Z</time></trkpt><trkpt lat="38.16914780300145" lon="-2.5363559589100864"><ele>1663.9999999999998</ele><time>2026-04-20T15:17:38.999Z</time></trkpt><trkpt lat="38.16906489140681" lon="-2.53640413699251"><ele>1664.0</ele><time>2026-04-20T15:17:39.999Z</time></trkpt><trkpt lat="38.16894177293754" lon="-2.5364490782938676"><ele>1667.3333333333333</ele><time>2026-04-20T15:17:40.999Z</time></trkpt><trkpt lat="38.16877909013073" lon="-2.5365460056483644"><ele>1670.6666666666665</ele><time>2026-04-20T15:17:41.999Z</time></trkpt><trkpt lat="38.16861412704202" lon="-2.5366494225765313"><ele>1674.0</ele><time>2026-04-20T15:17:42.999Z</time></trkpt><trkpt lat="38.168497031720705" lon="-2.536737569462032"><ele>1674.0</ele><time>2026-04-20T15:17:43.999Z</time></trkpt><trkpt lat="38.168405223713314" lon="-2.5368216655715283"><ele>1674.0</ele><time>2026-04-20T15:17:44.999Z</time></trkpt><trkpt lat="38.16832958408252" lon="-2.536919459271882"><ele>1674.0</ele><time>2026-04-20T15:17:45.999Z</time></trkpt><trkpt lat="38.16824349020729" lon="-2.537052812938887"><ele>1674.0</ele><time>2026-04-20T15:17:46.999Z</time></trkpt><trkpt lat="38.16816508866581" lon="-2.537145288695669"><ele>1675.2</ele><time>2026-04-20T15:17:47.999Z</time></trkpt><trkpt lat="38.16810559463689" lon="-2.537238845324609"><ele>1676.4</ele><time>2026-04-20T15:17:48.999Z</time></trkpt><trkpt lat="38.16802293431748" lon="-2.5373393466190692"><ele>1677.6</ele><time>2026-04-20T15:17:49.999Z</time></trkpt><trkpt lat="38.16794624093241" lon="-2.5374167258917817"><ele>1678.8</ele><time>2026-04-20T15:17:50.999Z</time></trkpt><trkpt lat="38.16785671863565" lon="-2.5374905617439674"><ele>1680.0</ele><time>2026-04-20T15:17:51.999Z</time></trkpt><trkpt lat="38.16775221842183" lon="-2.5375788723849606"><ele>1680.0</ele><time>2026-04-20T15:17:52.999Z</time></trkpt><trkpt lat="38.1676249032172" lon="-2.5376645197303795"><ele>1680.0</ele><time>2026-04-20T15:17:53.999Z</time></trkpt><trkpt lat="38.167499917620944" lon="-2.537765795350644"><ele>1680.0</ele><time>2026-04-20T15:17:54.998Z</time></trkpt><trkpt lat="38.167375543763264" lon="-2.5379029761664817"><ele>1681.0</ele><time>2026-04-20T15:17:55.998Z</time></trkpt><trkpt lat="38.16724944071651" lon="-2.5379981223143178"><ele>1682.0</ele><time>2026-04-20T15:17:56.998Z</time></trkpt><trkpt lat="38.16714772621996" lon="-2.5380872504374468"><ele>1683.0</ele><time>2026-04-20T15:17:57.998Z</time></trkpt><trkpt lat="38.167051538763516" lon="-2.538173969938911"><ele>1684.0</ele><time>2026-04-20T15:17:58.998Z</time></trkpt><trkpt lat="38.16697558237218" lon="-2.538289009444549"><ele>1684.0</ele><time>2026-04-20T15:17:59.998Z</time></trkpt><trkpt lat="38.166898564808704" lon="-2.538392835482244"><ele>1684.0</ele><time>2026-04-20T15:18:00.998Z</time></trkpt><trkpt lat="38.16683279231395" lon="-2.538511308368668"><ele>1684.0</ele><time>2026-04-20T15:18:01.998Z</time></trkpt><trkpt lat="38.166780102541345" lon="-2.5386549677536774"><ele>1684.0</ele><time>2026-04-20T15:18:02.998Z</time></trkpt><trkpt lat="38.166730502202185" lon="-2.5388078314593883"><ele>1682.75</ele><time>2026-04-20T15:18:03.998Z</time></trkpt><trkpt lat="38.16667899752578" lon="-2.5389764794579763"><ele>1681.5</ele><time>2026-04-20T15:18:04.998Z</time></trkpt><trkpt lat="38.16663177208866" lon="-2.5391329921910293"><ele>1680.25</ele><time>2026-04-20T15:18:05.998Z</time></trkpt><trkpt lat="38.16658920731149" lon="-2.5392762625827037"><ele>1679.0</ele><time>2026-04-20T15:18:06.998Z</time></trkpt><trkpt lat="38.16654242055815" lon="-2.539438737516608"><ele>1684.5</ele><time>2026-04-20T15:18:07.998Z</time></trkpt><trkpt lat="38.16650201090291" lon="-2.5395938321484737"><ele>1690.0</ele><time>2026-04-20T15:18:08.998Z</time></trkpt><trkpt lat="38.16646574452829" lon="-2.539745539123425"><ele>1695.5</ele><time>2026-04-20T15:18:09.998Z</time></trkpt><trkpt lat="38.166432048502074" lon="-2.5398939807228156"><ele>1701.0</ele><time>2026-04-20T15:18:10.998Z</time></trkpt><trkpt lat="38.166401863093554" lon="-2.540027819330985"><ele>1701.0</ele><time>2026-04-20T15:18:11.998Z</time></trkpt><trkpt lat="38.16637753123404" lon="-2.5401416234603333"><ele>1701.0</ele><time>2026-04-20T15:18:12.998Z</time></trkpt><trkpt lat="38.166351711441386" lon="-2.5402686098346634"><ele>1701.0</ele><time>2026-04-20T15:18:14Z</time></trkpt><trkpt lat="38.16630833530014" lon="-2.5403759307387763"><ele>1701.0</ele><time>2026-04-20T15:18:15Z</time></trkpt><trkpt lat="38.166276545230225" lon="-2.540459536373964"><ele>1701.0</ele><time>2026-04-20T15:18:16Z</time></trkpt><trkpt lat="38.16622364750682" lon="-2.540521068573639"><ele>1701.0</ele><time>2026-04-20T15:18:17Z</time></trkpt><trkpt lat="38.16608942801292" lon="-2.5405865800979432"><ele>1701.0</ele><time>2026-04-20T15:18:19Z</time></trkpt><trkpt lat="38.166012270890356" lon="-2.5406127235235"><ele>1701.0</ele><time>2026-04-20T15:18:20Z</time></trkpt><trkpt lat="38.16591937717303" lon="-2.5406303774943932"><ele>1701.0</ele><time>2026-04-20T15:18:21Z</time></trkpt><trkpt lat="38.16583701300934" lon="-2.5406523597419803"><ele>1701.0</ele><time>2026-04-20T15:18:22Z</time></trkpt><trkpt lat="38.16571469708002" lon="-2.5406877336953575"><ele>1701.0</ele><time>2026-04-20T15:18:23Z</time></trkpt><trkpt lat="38.165571172619686" lon="-2.54073207028195"><ele>1701.0</ele><time>2026-04-20T15:18:24Z</time></trkpt><trkpt lat="38.16543279248323" lon="-2.5407788821310726"><ele>1701.0</ele><time>2026-04-20T15:18:25Z</time></trkpt><trkpt lat="38.16531637481815" lon="-2.5408246344247165"><ele>1701.0</ele><time>2026-04-20T15:18:26Z</time></trkpt><trkpt lat="38.16520452125058" lon="-2.5408868530008655"><ele>1701.0</ele><time>2026-04-20T15:18:27Z</time></trkpt><trkpt lat="38.165083370293516" lon="-2.540982857218223"><ele>1701.0</ele><time>2026-04-20T15:18:28Z</time></trkpt><trkpt lat="38.16496161979105" lon="-2.541078369775763"><ele>1701.0</ele><time>2026-04-20T15:18:29Z</time></trkpt><trkpt lat="38.16485281105984" lon="-2.5411707360855322"><ele>1701.0</ele><time>2026-04-20T15:18:30Z</time></trkpt><trkpt lat="38.16474873743937" lon="-2.541240603275195"><ele>1701.0</ele><time>2026-04-20T15:18:31Z</time></trkpt><trkpt lat="38.164661158460824" lon="-2.541314770775529"><ele>1699.75</ele><time>2026-04-20T15:18:32Z</time></trkpt><trkpt lat="38.164572483338624" lon="-2.541373956843535"><ele>1698.5</ele><time>2026-04-20T15:18:33Z</time></trkpt><trkpt lat="38.16447766698841" lon="-2.541426070835274"><ele>1697.25</ele><time>2026-04-20T15:18:34Z</time></trkpt><trkpt lat="38.16436365365231" lon="-2.5414843208684488"><ele>1696.0</ele><time>2026-04-20T15:18:35Z</time></trkpt><trkpt lat="38.164242443848586" lon="-2.5415415477525842"><ele>1696.0</ele><time>2026-04-20T15:18:36Z</time></trkpt><trkpt lat="38.164130062827226" lon="-2.541577054331848"><ele>1696.0</ele><time>2026-04-20T15:18:37Z</time></trkpt><trkpt lat="38.164007972047656" lon="-2.541602887233478"><ele>1696.0</ele><time>2026-04-20T15:18:38Z</time></trkpt><trkpt lat="38.16387879193644" lon="-2.5416310309479377"><ele>1696.0</ele><time>2026-04-20T15:18:39Z</time></trkpt><trkpt lat="38.16374994259546" lon="-2.5416981612268637"><ele>1699.0</ele><time>2026-04-20T15:18:40Z</time></trkpt><trkpt lat="38.16360981776907" lon="-2.5417355782461377"><ele>1702.0</ele><time>2026-04-20T15:18:41Z</time></trkpt><trkpt lat="38.16347462655082" lon="-2.541785610675836"><ele>1705.0</ele><time>2026-04-20T15:18:42Z</time></trkpt><trkpt lat="38.1633415092436" lon="-2.5418327006497106"><ele>1708.0</ele><time>2026-04-20T15:18:43Z</time></trkpt><trkpt lat="38.16322855422932" lon="-2.5418702373423745"><ele>1708.25</ele><time>2026-04-20T15:18:44Z</time></trkpt><trkpt lat="38.16312165668979" lon="-2.541913980691214"><ele>1708.5</ele><time>2026-04-20T15:18:45Z</time></trkpt><trkpt lat="38.163020247359725" lon="-2.541995822688015"><ele>1708.75</ele><time>2026-04-20T15:18:46Z</time></trkpt><trkpt lat="38.162915386523316" lon="-2.542085215570512"><ele>1709.0</ele><time>2026-04-20T15:18:47Z</time></trkpt><trkpt lat="38.16281370208465" lon="-2.5421833143381147"><ele>1709.0</ele><time>2026-04-20T15:18:47.999Z</time></trkpt><trkpt lat="38.16271199739752" lon="-2.5422847043496546"><ele>1709.0</ele><time>2026-04-20T15:18:48.999Z</time></trkpt><trkpt lat="38.16260058296453" lon="-2.54237072703023"><ele>1709.0</ele><time>2026-04-20T15:18:49.999Z</time></trkpt><trkpt lat="38.162508109367835" lon="-2.5424923450459316"><ele>1709.0</ele><time>2026-04-20T15:18:50.999Z</time></trkpt><trkpt lat="38.16240877331461" lon="-2.5425975084773116"><ele>1709.6</ele><time>2026-04-20T15:18:51.999Z</time></trkpt><trkpt lat="38.16230479522823" lon="-2.5426923668086068"><ele>1710.2</ele><time>2026-04-20T15:18:52.999Z</time></trkpt><trkpt lat="38.16223465379178" lon="-2.542797553057092"><ele>1710.7999999999997</ele><time>2026-04-20T15:18:53.999Z</time></trkpt><trkpt lat="38.16215639564179" lon="-2.542876119951645"><ele>1711.3999999999999</ele><time>2026-04-20T15:18:54.999Z</time></trkpt><trkpt lat="38.16209768722251" lon="-2.5429406264202914"><ele>1712.0</ele><time>2026-04-20T15:18:55.999Z</time></trkpt><trkpt lat="38.16204058088188" lon="-2.5430007658838987"><ele>1711.9999999999998</ele><time>2026-04-20T15:18:56.999Z</time></trkpt><trkpt lat="38.16198127558694" lon="-2.5430312711338914"><ele>1712.0</ele><time>2026-04-20T15:18:57.999Z</time></trkpt><trkpt lat="38.161904240987575" lon="-2.5430580526992204"><ele>1712.0</ele><time>2026-04-20T15:18:58.999Z</time></trkpt><trkpt lat="38.161828199867244" lon="-2.5430638861797847"><ele>1712.0</ele><time>2026-04-20T15:18:59.999Z</time></trkpt><trkpt lat="38.16174780617578" lon="-2.5430504632246866"><ele>1711.9999999999998</ele><time>2026-04-20T15:19:00.999Z</time></trkpt><trkpt lat="38.16166537195519" lon="-2.5430225567751252"><ele>1712.0</ele><time>2026-04-20T15:19:01.999Z</time></trkpt><trkpt lat="38.16157597070889" lon="-2.5429786760341244"><ele>1711.9999999999998</ele><time>2026-04-20T15:19:02.999Z</time></trkpt><trkpt lat="38.16148805564618" lon="-2.5429397311414434"><ele>1712.0</ele><time>2026-04-20T15:19:03.999Z</time></trkpt><trkpt lat="38.161402926817296" lon="-2.54289399059747"><ele>1712.0</ele><time>2026-04-20T15:19:04.999Z</time></trkpt><trkpt lat="38.16133575232215" lon="-2.542846680314696"><ele>1712.0</ele><time>2026-04-20T15:19:05.999Z</time></trkpt><trkpt lat="38.16126831109849" lon="-2.5427876237620746"><ele>1711.9999999999998</ele><time>2026-04-20T15:19:06.999Z</time></trkpt><trkpt lat="38.16118248191173" lon="-2.5427118009494034"><ele>1712.0</ele><time>2026-04-20T15:19:07.999Z</time></trkpt><trkpt lat="38.161107248374854" lon="-2.5426352193507777"><ele>1712.0</ele><time>2026-04-20T15:19:08.999Z</time></trkpt><trkpt lat="38.161037664649534" lon="-2.54255395580635"><ele>1711.9999999999998</ele><time>2026-04-20T15:19:09.999Z</time></trkpt><trkpt lat="38.16095568367665" lon="-2.5424753123982984"><ele>1711.9999999999998</ele><time>2026-04-20T15:19:10.999Z</time></trkpt><trkpt lat="38.160868323620065" lon="-2.5424167699668083"><ele>1712.0</ele><time>2026-04-20T15:19:11.999Z</time></trkpt><trkpt lat="38.16078925658157" lon="-2.5423934645481343"><ele>1712.0</ele><time>2026-04-20T15:19:12.999Z</time></trkpt><trkpt lat="38.160687150636974" lon="-2.542387663530543"><ele>1713.0</ele><time>2026-04-20T15:19:13.999Z</time></trkpt><trkpt lat="38.16056521592057" lon="-2.542415939492432"><ele>1714.0</ele><time>2026-04-20T15:19:14.999Z</time></trkpt><trkpt lat="38.16041675541273" lon="-2.542485100203535"><ele>1715.0</ele><time>2026-04-20T15:19:15.999Z</time></trkpt><trkpt lat="38.160263146571594" lon="-2.542583120836413"><ele>1715.0</ele><time>2026-04-20T15:19:16.999Z</time></trkpt><trkpt lat="38.16013770181739" lon="-2.54270472375509"><ele>1715.0</ele><time>2026-04-20T15:19:17.999Z</time></trkpt><trkpt lat="38.160011324065664" lon="-2.5428191405617664"><ele>1715.0</ele><time>2026-04-20T15:19:18.999Z</time></trkpt><trkpt lat="38.15988560441324" lon="-2.5429343874375436"><ele>1714.6666666666665</ele><time>2026-04-20T15:19:19.999Z</time></trkpt><trkpt lat="38.15974314718815" lon="-2.5430354089013623"><ele>1714.3333333333335</ele><time>2026-04-20T15:19:20.999Z</time></trkpt><trkpt lat="38.15961673453381" lon="-2.543151150044281"><ele>1714.0</ele><time>2026-04-20T15:19:21.999Z</time></trkpt><trkpt lat="38.159495572447" lon="-2.5432567154490147"><ele>1714.0</ele><time>2026-04-20T15:19:22.999Z</time></trkpt><trkpt lat="38.159384759843576" lon="-2.5433521697252397"><ele>1714.0</ele><time>2026-04-20T15:19:23.999Z</time></trkpt><trkpt lat="38.159268035487614" lon="-2.543444834552405"><ele>1714.0</ele><time>2026-04-20T15:19:24.999Z</time></trkpt><trkpt lat="38.159144046558374" lon="-2.5435295744861297"><ele>1714.0</ele><time>2026-04-20T15:19:25.999Z</time></trkpt><trkpt lat="38.159045564664424" lon="-2.5436222464754747"><ele>1713.8000000000002</ele><time>2026-04-20T15:19:26.999Z</time></trkpt><trkpt lat="38.15895749485814" lon="-2.543709375015577"><ele>1713.6000000000001</ele><time>2026-04-20T15:19:27.999Z</time></trkpt><trkpt lat="38.15887693661579" lon="-2.543805607853365"><ele>1713.4</ele><time>2026-04-20T15:19:28.999Z</time></trkpt><trkpt lat="38.1588210819376" lon="-2.543900318798369"><ele>1713.2</ele><time>2026-04-20T15:19:29.999Z</time></trkpt><trkpt lat="38.15877689808479" lon="-2.5439979782776785"><ele>1713.0</ele><time>2026-04-20T15:19:30.999Z</time></trkpt><trkpt lat="38.15876201800524" lon="-2.544107114222985"><ele>1713.8000000000002</ele><time>2026-04-20T15:19:31.999Z</time></trkpt><trkpt lat="38.158782323448186" lon="-2.5442305738948665"><ele>1714.6000000000001</ele><time>2026-04-20T15:19:32.999Z</time></trkpt><trkpt lat="38.15879959217497" lon="-2.54439188281827"><ele>1715.3999999999999</ele><time>2026-04-20T15:19:33.999Z</time></trkpt><trkpt lat="38.15880229128149" lon="-2.5445251140972722"><ele>1716.1999999999998</ele><time>2026-04-20T15:19:34.999Z</time></trkpt><trkpt lat="38.15877814657489" lon="-2.5446429130757995"><ele>1717.0</ele><time>2026-04-20T15:19:35.999Z</time></trkpt><trkpt lat="38.15876303984045" lon="-2.544764230529397"><ele>1719.0</ele><time>2026-04-20T15:19:36.999Z</time></trkpt><trkpt lat="38.158736161623665" lon="-2.5449039072970954"><ele>1720.9999999999998</ele><time>2026-04-20T15:19:37.999Z</time></trkpt><trkpt lat="38.15870048311649" lon="-2.5450298579955226"><ele>1722.9999999999998</ele><time>2026-04-20T15:19:38.999Z</time></trkpt><trkpt lat="38.15866486922472" lon="-2.5451552664894437"><ele>1725.0</ele><time>2026-04-20T15:19:39.999Z</time></trkpt><trkpt lat="38.158624442154476" lon="-2.5452823153399025"><ele>1727.0</ele><time>2026-04-20T15:19:40.999Z</time></trkpt><trkpt lat="38.15856946194663" lon="-2.5454123875246513"><ele>1727.3999999999999</ele><time>2026-04-20T15:19:41.999Z</time></trkpt><trkpt lat="38.15851022877966" lon="-2.5455503532633283"><ele>1727.7999999999997</ele><time>2026-04-20T15:19:42.999Z</time></trkpt><trkpt lat="38.15844910840596" lon="-2.545692293249878"><ele>1728.2</ele><time>2026-04-20T15:19:43.999Z</time></trkpt><trkpt lat="38.15840143742706" lon="-2.5458050267495325"><ele>1728.6</ele><time>2026-04-20T15:19:44.999Z</time></trkpt><trkpt lat="38.158354517661486" lon="-2.5458974060152832"><ele>1729.0</ele><time>2026-04-20T15:19:45.999Z</time></trkpt><trkpt lat="38.15829942606203" lon="-2.5459893955267163"><ele>1729.0</ele><time>2026-04-20T15:19:46.999Z</time></trkpt><trkpt lat="38.15821719281652" lon="-2.546100034688494"><ele>1729.0</ele><time>2026-04-20T15:19:47.999Z</time></trkpt><trkpt lat="38.15811716380131" lon="-2.5462041192918647"><ele>1729.0</ele><time>2026-04-20T15:19:48.999Z</time></trkpt><trkpt lat="38.15799539755468" lon="-2.546310596921861"><ele>1729.0</ele><time>2026-04-20T15:19:49.999Z</time></trkpt><trkpt lat="38.15786469017683" lon="-2.5464185680860387"><ele>1728.75</ele><time>2026-04-20T15:19:50.999Z</time></trkpt><trkpt lat="38.15772961788559" lon="-2.546528749019128"><ele>1728.5</ele><time>2026-04-20T15:19:51.998Z</time></trkpt><trkpt lat="38.15760993476498" lon="-2.546626868018548"><ele>1728.25</ele><time>2026-04-20T15:19:52.998Z</time></trkpt><trkpt lat="38.157507266682124" lon="-2.546708562783999"><ele>1728.0</ele><time>2026-04-20T15:19:53.998Z</time></trkpt><trkpt lat="38.15741557478966" lon="-2.546793646290296"><ele>1728.75</ele><time>2026-04-20T15:19:54.998Z</time></trkpt><trkpt lat="38.157319391604204" lon="-2.5468939860503874"><ele>1729.5</ele><time>2026-04-20T15:19:55.998Z</time></trkpt><trkpt lat="38.15723562941271" lon="-2.5470130376955753"><ele>1730.25</ele><time>2026-04-20T15:19:56.998Z</time></trkpt><trkpt lat="38.157176350532104" lon="-2.5471656181339353"><ele>1731.0</ele><time>2026-04-20T15:19:57.998Z</time></trkpt><trkpt lat="38.1571092846578" lon="-2.5473218684319527"><ele>1731.0</ele><time>2026-04-20T15:19:58.998Z</time></trkpt><trkpt lat="38.15703560969265" lon="-2.5474490405356986"><ele>1731.0</ele><time>2026-04-20T15:19:59.998Z</time></trkpt><trkpt lat="38.15697956315752" lon="-2.547573619217707"><ele>1731.0</ele><time>2026-04-20T15:20:00.998Z</time></trkpt><trkpt lat="38.15691421842302" lon="-2.5476891963974047"><ele>1731.0</ele><time>2026-04-20T15:20:01.998Z</time></trkpt><trkpt lat="38.15683922037563" lon="-2.547802426690295"><ele>1731.4</ele><time>2026-04-20T15:20:02.998Z</time></trkpt><trkpt lat="38.15675311258917" lon="-2.547914797659202"><ele>1731.8</ele><time>2026-04-20T15:20:03.998Z</time></trkpt><trkpt lat="38.15667007795389" lon="-2.5480076769122286"><ele>1732.2000000000003</ele><time>2026-04-20T15:20:04.998Z</time></trkpt><trkpt lat="38.156598445223075" lon="-2.5481060434443807"><ele>1732.6000000000001</ele><time>2026-04-20T15:20:05.998Z</time></trkpt><trkpt lat="38.15656268084808" lon="-2.548212378699782"><ele>1733.0</ele><time>2026-04-20T15:20:06.998Z</time></trkpt><trkpt lat="38.15652949425516" lon="-2.548301597021385"><ele>1732.9999999999998</ele><time>2026-04-20T15:20:07.998Z</time></trkpt><trkpt lat="38.156505096369294" lon="-2.548388084982895"><ele>1733.0</ele><time>2026-04-20T15:20:08.998Z</time></trkpt><trkpt lat="38.15651056221486" lon="-2.548500868889883"><ele>1733.0</ele><time>2026-04-20T15:20:09.998Z</time></trkpt><trkpt lat="38.1565269037031" lon="-2.548635753398877"><ele>1733.0</ele><time>2026-04-20T15:20:10.998Z</time></trkpt><trkpt lat="38.15651818965795" lon="-2.5487500174453475"><ele>1732.9999999999998</ele><time>2026-04-20T15:20:11.998Z</time></trkpt><trkpt lat="38.1565195656659" lon="-2.548853887133798"><ele>1733.0</ele><time>2026-04-20T15:20:12.998Z</time></trkpt><trkpt lat="38.15650827568434" lon="-2.548948703910379"><ele>1731.8333333333333</ele><time>2026-04-20T15:20:13.998Z</time></trkpt><trkpt lat="38.156494834877805" lon="-2.549037659376371"><ele>1730.6666666666665</ele><time>2026-04-20T15:20:14.998Z</time></trkpt><trkpt lat="38.1564696502954" lon="-2.549134205170092"><ele>1729.5</ele><time>2026-04-20T15:20:15.998Z</time></trkpt><trkpt lat="38.15642362826173" lon="-2.5492459739717814"><ele>1728.3333333333335</ele><time>2026-04-20T15:20:16.998Z</time></trkpt><trkpt lat="38.15637407990469" lon="-2.5493356627198422"><ele>1727.1666666666667</ele><time>2026-04-20T15:20:17.998Z</time></trkpt><trkpt lat="38.156328498572925" lon="-2.5494096693223574"><ele>1726.0</ele><time>2026-04-20T15:20:18.998Z</time></trkpt><trkpt lat="38.156296481981805" lon="-2.549492601150405"><ele>1723.8</ele><time>2026-04-20T15:20:19.999Z</time></trkpt><trkpt lat="38.156237980128275" lon="-2.5495536208984446"><ele>1721.6</ele><time>2026-04-20T15:20:20.999Z</time></trkpt><trkpt lat="38.15617722992616" lon="-2.5496479342677367"><ele>1719.4</ele><time>2026-04-20T15:20:21.999Z</time></trkpt><trkpt lat="38.15611579488681" lon="-2.5497537719293355"><ele>1717.2</ele><time>2026-04-20T15:20:22.999Z</time></trkpt><trkpt lat="38.15605659012174" lon="-2.5498531422606368"><ele>1715.0</ele><time>2026-04-20T15:20:23.999Z</time></trkpt><trkpt lat="38.155995022538114" lon="-2.5499454864709654"><ele>1714.9999999999998</ele><time>2026-04-20T15:20:24.999Z</time></trkpt><trkpt lat="38.15593766487511" lon="-2.5500091210257705"><ele>1715.0</ele><time>2026-04-20T15:20:25.999Z</time></trkpt><trkpt lat="38.15588597983178" lon="-2.550070820871157"><ele>1715.0</ele><time>2026-04-20T15:20:26.999Z</time></trkpt><trkpt lat="38.1558339968218" lon="-2.550119036162456"><ele>1715.0</ele><time>2026-04-20T15:20:27.999Z</time></trkpt><trkpt lat="38.15577511216798" lon="-2.5501512380797453"><ele>1714.9999999999998</ele><time>2026-04-20T15:20:28.999Z</time></trkpt><trkpt lat="38.155688675965074" lon="-2.5501932851956064"><ele>1715.0</ele><time>2026-04-20T15:20:29.999Z</time></trkpt><trkpt lat="38.15559831160374" lon="-2.550237900506121"><ele>1713.8</ele><time>2026-04-20T15:20:30.999Z</time></trkpt><trkpt lat="38.15551904243307" lon="-2.550271520179447"><ele>1712.6</ele><time>2026-04-20T15:20:31.999Z</time></trkpt><trkpt lat="38.15545574258979" lon="-2.5503019758239014"><ele>1711.4</ele><time>2026-04-20T15:20:32.999Z</time></trkpt><trkpt lat="38.15538604183489" lon="-2.5503584572788913"><ele>1710.2</ele><time>2026-04-20T15:20:33.999Z</time></trkpt><trkpt lat="38.15530567375232" lon="-2.550429411245781"><ele>1709.0</ele><time>2026-04-20T15:20:34.999Z</time></trkpt><trkpt lat="38.155244416651705" lon="-2.5505588609059466"><ele>1706.3333333333333</ele><time>2026-04-20T15:20:35.999Z</time></trkpt><trkpt lat="38.15516433259773" lon="-2.550717891325111"><ele>1703.6666666666665</ele><time>2026-04-20T15:20:36.999Z</time></trkpt><trkpt lat="38.15506227337936" lon="-2.550904961020573"><ele>1701.0</ele><time>2026-04-20T15:20:37.999Z</time></trkpt><trkpt lat="38.154946439449596" lon="-2.551107793447869"><ele>1699.6666666666665</ele><time>2026-04-20T15:20:38.999Z</time></trkpt><trkpt lat="38.154846520508016" lon="-2.551281615150627"><ele>1698.3333333333333</ele><time>2026-04-20T15:20:39.999Z</time></trkpt><trkpt lat="38.15476125953991" lon="-2.551431036004577"><ele>1697.0</ele><time>2026-04-20T15:20:40.999Z</time></trkpt><trkpt lat="38.15467687380075" lon="-2.5515774571860033"><ele>1697.0</ele><time>2026-04-20T15:20:41.999Z</time></trkpt><trkpt lat="38.154602772335714" lon="-2.551730568337538"><ele>1697.0</ele><time>2026-04-20T15:20:42.999Z</time></trkpt><trkpt lat="38.15452880928627" lon="-2.551886998624949"><ele>1697.0</ele><time>2026-04-20T15:20:43.999Z</time></trkpt><trkpt lat="38.154442577687455" lon="-2.552036827077569"><ele>1697.0</ele><time>2026-04-20T15:20:44.999Z</time></trkpt><trkpt lat="38.15435703935204" lon="-2.552172025525721"><ele>1696.0</ele><time>2026-04-20T15:20:45.999Z</time></trkpt><trkpt lat="38.154273809216754" lon="-2.5522962507183653"><ele>1695.0</ele><time>2026-04-20T15:20:46.999Z</time></trkpt><trkpt lat="38.15419469784675" lon="-2.552415360212874"><ele>1694.0</ele><time>2026-04-20T15:20:47.999Z</time></trkpt><trkpt lat="38.15411791286014" lon="-2.552539714712244"><ele>1693.0</ele><time>2026-04-20T15:20:48.999Z</time></trkpt><trkpt lat="38.1540486011315" lon="-2.552665273368448"><ele>1694.5</ele><time>2026-04-20T15:20:49.999Z</time></trkpt><trkpt lat="38.15398221538778" lon="-2.5527822973686476"><ele>1696.0</ele><time>2026-04-20T15:20:50.999Z</time></trkpt><trkpt lat="38.153945350452155" lon="-2.552914257317125"><ele>1697.5</ele><time>2026-04-20T15:20:51.999Z</time></trkpt><trkpt lat="38.15389898312448" lon="-2.5530638589053467"><ele>1699.0</ele><time>2026-04-20T15:20:52.999Z</time></trkpt><trkpt lat="38.153847169790666" lon="-2.553243856644562"><ele>1699.0</ele><time>2026-04-20T15:20:53.999Z</time></trkpt><trkpt lat="38.15379381431862" lon="-2.553420925929078"><ele>1699.0</ele><time>2026-04-20T15:20:54.999Z</time></trkpt><trkpt lat="38.15372276380706" lon="-2.553598197735161"><ele>1699.0</ele><time>2026-04-20T15:20:55.999Z</time></trkpt><trkpt lat="38.15368808059479" lon="-2.5537722769831497"><ele>1699.0</ele><time>2026-04-20T15:20:56.999Z</time></trkpt><trkpt lat="38.15364263014444" lon="-2.553924805050397"><ele>1696.5</ele><time>2026-04-20T15:20:57.999Z</time></trkpt><trkpt lat="38.15360111626228" lon="-2.5540736476049966"><ele>1694.0</ele><time>2026-04-20T15:20:58.999Z</time></trkpt><trkpt lat="38.15356705682198" lon="-2.5542209020832765"><ele>1691.5</ele><time>2026-04-20T15:20:59.999Z</time></trkpt><trkpt lat="38.15354816806169" lon="-2.55437013939224"><ele>1689.0</ele><time>2026-04-20T15:21:00.999Z</time></trkpt><trkpt lat="38.15355945196004" lon="-2.5545116651884783"><ele>1688.0</ele><time>2026-04-20T15:21:01.999Z</time></trkpt><trkpt lat="38.15356463025067" lon="-2.5546654314402186"><ele>1687.0</ele><time>2026-04-20T15:21:02.999Z</time></trkpt><trkpt lat="38.153553859405015" lon="-2.554835511340608"><ele>1686.0</ele><time>2026-04-20T15:21:03.999Z</time></trkpt><trkpt lat="38.153509614739775" lon="-2.5549986242880895"><ele>1685.0</ele><time>2026-04-20T15:21:04.999Z</time></trkpt><trkpt lat="38.15349402773111" lon="-2.5551877112628127"><ele>1685.5</ele><time>2026-04-20T15:21:05.999Z</time></trkpt><trkpt lat="38.15346256207182" lon="-2.555371722585491"><ele>1686.0</ele><time>2026-04-20T15:21:06.999Z</time></trkpt><trkpt lat="38.15342986188785" lon="-2.5555468132554315"><ele>1686.5</ele><time>2026-04-20T15:21:07.999Z</time></trkpt><trkpt lat="38.15340315613461" lon="-2.5556949966389024"><ele>1687.0</ele><time>2026-04-20T15:21:08.999Z</time></trkpt><trkpt lat="38.15337689829252" lon="-2.5558384339915223"><ele>1687.0</ele><time>2026-04-20T15:21:09.999Z</time></trkpt><trkpt lat="38.15332580091904" lon="-2.555981439237454"><ele>1687.0</ele><time>2026-04-20T15:21:10.999Z</time></trkpt><trkpt lat="38.153272306930624" lon="-2.5561164676120347"><ele>1687.0</ele><time>2026-04-20T15:21:11.999Z</time></trkpt><trkpt lat="38.15320640868461" lon="-2.556246278416382"><ele>1687.0</ele><time>2026-04-20T15:21:12.999Z</time></trkpt><trkpt lat="38.15313377068442" lon="-2.5563617232997013"><ele>1688.1999999999998</ele><time>2026-04-20T15:21:13.999Z</time></trkpt><trkpt lat="38.153078077794525" lon="-2.55643442822247"><ele>1689.4</ele><time>2026-04-20T15:21:14.999Z</time></trkpt><trkpt lat="38.153027494130306" lon="-2.5564913415018147"><ele>1690.6</ele><time>2026-04-20T15:21:15.999Z</time></trkpt><trkpt lat="38.15294584887486" lon="-2.5565378511245123"><ele>1691.8000000000002</ele><time>2026-04-20T15:21:16.999Z</time></trkpt><trkpt lat="38.152827828514454" lon="-2.556623081983987"><ele>1693.0</ele><time>2026-04-20T15:21:17.999Z</time></trkpt><trkpt lat="38.15272252802243" lon="-2.556726736043634"><ele>1693.0</ele><time>2026-04-20T15:21:18.999Z</time></trkpt><trkpt lat="38.15262537745328" lon="-2.5568200107462173"><ele>1693.0</ele><time>2026-04-20T15:21:19.999Z</time></trkpt><trkpt lat="38.1525322772373" lon="-2.556926820036959"><ele>1693.0</ele><time>2026-04-20T15:21:20.999Z</time></trkpt><trkpt lat="38.15244316836402" lon="-2.5570466919246777"><ele>1693.0</ele><time>2026-04-20T15:21:21.999Z</time></trkpt><trkpt lat="38.15237246613969" lon="-2.557161291995911"><ele>1693.75</ele><time>2026-04-20T15:21:22.999Z</time></trkpt><trkpt lat="38.15231033944064" lon="-2.557281626171087"><ele>1694.5</ele><time>2026-04-20T15:21:23.999Z</time></trkpt><trkpt lat="38.152235783859446" lon="-2.5574110854262226"><ele>1695.25</ele><time>2026-04-20T15:21:24.999Z</time></trkpt><trkpt lat="38.152191840402416" lon="-2.5575521411529674"><ele>1696.0</ele><time>2026-04-20T15:21:25.999Z</time></trkpt><trkpt lat="38.15212935642268" lon="-2.5576874630211557"><ele>1696.0</ele><time>2026-04-20T15:21:26.999Z</time></trkpt><trkpt lat="38.15207415817181" lon="-2.5578029122827712"><ele>1696.0</ele><time>2026-04-20T15:21:27.999Z</time></trkpt><trkpt lat="38.152031031775856" lon="-2.557914589377202"><ele>1696.0</ele><time>2026-04-20T15:21:28.999Z</time></trkpt><trkpt lat="38.15198762407297" lon="-2.5580434753813748"><ele>1696.0</ele><time>2026-04-20T15:21:29.999Z</time></trkpt><trkpt lat="38.15193362584047" lon="-2.5581746067131403"><ele>1696.0</ele><time>2026-04-20T15:21:30.999Z</time></trkpt><trkpt lat="38.15187490003924" lon="-2.55828011447206"><ele>1693.5</ele><time>2026-04-20T15:21:31.999Z</time></trkpt><trkpt lat="38.15181940677376" lon="-2.5584138073394143"><ele>1691.0</ele><time>2026-04-20T15:21:32.999Z</time></trkpt><trkpt lat="38.15174123396374" lon="-2.5585513653511174"><ele>1688.5</ele><time>2026-04-20T15:21:33.999Z</time></trkpt><trkpt lat="38.15165946742905" lon="-2.5586849913716367"><ele>1686.0</ele><time>2026-04-20T15:21:34.999Z</time></trkpt><trkpt lat="38.15156641147521" lon="-2.558824807464292"><ele>1685.0</ele><time>2026-04-20T15:21:35.999Z</time></trkpt><trkpt lat="38.15143820817861" lon="-2.558991073287709"><ele>1684.0</ele><time>2026-04-20T15:21:36.999Z</time></trkpt><trkpt lat="38.15126671944832" lon="-2.559184507892676"><ele>1683.0</ele><time>2026-04-20T15:21:37.999Z</time></trkpt><trkpt lat="38.15111343649516" lon="-2.5593508573079435"><ele>1683.0</ele><time>2026-04-20T15:21:38.999Z</time></trkpt><trkpt lat="38.150994072259394" lon="-2.5594827228672976"><ele>1683.0</ele><time>2026-04-20T15:21:39.999Z</time></trkpt><trkpt lat="38.15089084856907" lon="-2.5596122833639767"><ele>1683.0</ele><time>2026-04-20T15:21:40.999Z</time></trkpt><trkpt lat="38.15079967966246" lon="-2.559754512093842"><ele>1683.0</ele><time>2026-04-20T15:21:41.999Z</time></trkpt><trkpt lat="38.150697091552566" lon="-2.559888862130482"><ele>1684.0</ele><time>2026-04-20T15:21:42.999Z</time></trkpt><trkpt lat="38.15063420180192" lon="-2.5599637630309062"><ele>1685.0</ele><time>2026-04-20T15:21:43.999Z</time></trkpt><trkpt lat="38.1505809503711" lon="-2.5600346599927026"><ele>1686.0</ele><time>2026-04-20T15:21:44.999Z</time></trkpt><trkpt lat="38.150525165456784" lon="-2.560127270474667"><ele>1687.0</ele><time>2026-04-20T15:21:45.999Z</time></trkpt><trkpt lat="38.15044801167758" lon="-2.560256170982234"><ele>1688.0</ele><time>2026-04-20T15:21:46.999Z</time></trkpt><trkpt lat="38.150366395671234" lon="-2.560412627614509"><ele>1685.5</ele><time>2026-04-20T15:21:47.999Z</time></trkpt><trkpt lat="38.150285397807664" lon="-2.560561379046224"><ele>1683.0</ele><time>2026-04-20T15:21:48.998Z</time></trkpt><trkpt lat="38.15020903022729" lon="-2.560696824978695"><ele>1680.5</ele><time>2026-04-20T15:21:49.998Z</time></trkpt><trkpt lat="38.15014080556944" lon="-2.5608120437817847"><ele>1678.0</ele><time>2026-04-20T15:21:50.998Z</time></trkpt><trkpt lat="38.150073715799934" lon="-2.560914948232327"><ele>1678.0</ele><time>2026-04-20T15:21:51.998Z</time></trkpt><trkpt lat="38.150017595139886" lon="-2.5610280193389183"><ele>1678.0</ele><time>2026-04-20T15:21:52.998Z</time></trkpt><trkpt lat="38.14996713925536" lon="-2.5611342794682233"><ele>1678.0</ele><time>2026-04-20T15:21:53.998Z</time></trkpt><trkpt lat="38.149935684396" lon="-2.5612187851939083"><ele>1678.0</ele><time>2026-04-20T15:21:54.998Z</time></trkpt><trkpt lat="38.14991960075267" lon="-2.561344214978764"><ele>1678.0</ele><time>2026-04-20T15:21:56.998Z</time></trkpt><trkpt lat="38.14987415329882" lon="-2.5614177673467493"><ele>1677.1666666666667</ele><time>2026-04-20T15:21:59.998Z</time></trkpt><trkpt lat="38.14979517236185" lon="-2.561435265644432"><ele>1676.3333333333335</ele><time>2026-04-20T15:25:27.999Z</time></trkpt><trkpt lat="38.149695942138194" lon="-2.5615044307413584"><ele>1675.5</ele><time>2026-04-20T15:25:29.999Z</time></trkpt><trkpt lat="38.14963587581731" lon="-2.561546634712801"><ele>1674.6666666666665</ele><time>2026-04-20T15:25:30.999Z</time></trkpt><trkpt lat="38.149562656610506" lon="-2.561575561248335"><ele>1673.8333333333333</ele><time>2026-04-20T15:25:31.999Z</time></trkpt><trkpt lat="38.14948344600468" lon="-2.5616090081555454"><ele>1673.0</ele><time>2026-04-20T15:25:32.999Z</time></trkpt><trkpt lat="38.14941652178634" lon="-2.561661591230847"><ele>1672.9999999999998</ele><time>2026-04-20T15:25:33.999Z</time></trkpt><trkpt lat="38.14934716872809" lon="-2.561700531658725"><ele>1673.0</ele><time>2026-04-20T15:25:34.999Z</time></trkpt><trkpt lat="38.14928093290753" lon="-2.561726786906054"><ele>1673.0</ele><time>2026-04-20T15:25:35.999Z</time></trkpt><trkpt lat="38.149209575189566" lon="-2.5617713150749526"><ele>1673.0</ele><time>2026-04-20T15:25:36.999Z</time></trkpt><trkpt lat="38.1491215238108" lon="-2.561820371539283"><ele>1672.9999999999998</ele><time>2026-04-20T15:25:37.999Z</time></trkpt><trkpt lat="38.1490193332937" lon="-2.5618596928458377"><ele>1673.0</ele><time>2026-04-20T15:25:38.999Z</time></trkpt><trkpt lat="38.148919428557285" lon="-2.5618973373468554"><ele>1673.2</ele><time>2026-04-20T15:25:39.999Z</time></trkpt><trkpt lat="38.14883796748156" lon="-2.5619321157848525"><ele>1673.4</ele><time>2026-04-20T15:25:40.999Z</time></trkpt><trkpt lat="38.14876373417113" lon="-2.5619808910568285"><ele>1673.6000000000001</ele><time>2026-04-20T15:25:41.999Z</time></trkpt><trkpt lat="38.148671812674394" lon="-2.5620322409646046"><ele>1673.8000000000002</ele><time>2026-04-20T15:25:42.999Z</time></trkpt><trkpt lat="38.148549563176715" lon="-2.5620645917282614"><ele>1674.0</ele><time>2026-04-20T15:25:43.999Z</time></trkpt><trkpt lat="38.14840231877913" lon="-2.562088301988967"><ele>1668.75</ele><time>2026-04-20T15:25:44.999Z</time></trkpt><trkpt lat="38.148268196232735" lon="-2.562125661761287"><ele>1663.5</ele><time>2026-04-20T15:25:45.999Z</time></trkpt><trkpt lat="38.14815242940323" lon="-2.5621616254325525"><ele>1658.25</ele><time>2026-04-20T15:25:46.999Z</time></trkpt><trkpt lat="38.148035838010216" lon="-2.5621795665927016"><ele>1653.0</ele><time>2026-04-20T15:25:47.999Z</time></trkpt><trkpt lat="38.147924313539036" lon="-2.5622079239504325"><ele>1653.0</ele><time>2026-04-20T15:25:48.999Z</time></trkpt><trkpt lat="38.14781719218029" lon="-2.562235957050802"><ele>1653.0</ele><time>2026-04-20T15:25:49.999Z</time></trkpt><trkpt lat="38.1477074201181" lon="-2.5622633109616304"><ele>1653.0</ele><time>2026-04-20T15:25:50.999Z</time></trkpt><trkpt lat="38.1475995715656" lon="-2.5622962687010244"><ele>1653.0</ele><time>2026-04-20T15:25:51.999Z</time></trkpt><trkpt lat="38.147501586897995" lon="-2.5623317087076987"><ele>1653.0</ele><time>2026-04-20T15:25:52.999Z</time></trkpt><trkpt lat="38.147412785802395" lon="-2.5623634519137295"><ele>1653.0</ele><time>2026-04-20T15:25:53.999Z</time></trkpt><trkpt lat="38.14733303940075" lon="-2.5623959225341895"><ele>1653.0</ele><time>2026-04-20T15:25:54.999Z</time></trkpt><trkpt lat="38.147245588881695" lon="-2.562438465886005"><ele>1653.0</ele><time>2026-04-20T15:25:55.999Z</time></trkpt><trkpt lat="38.14717023658482" lon="-2.5625041627853404"><ele>1653.0</ele><time>2026-04-20T15:25:56.999Z</time></trkpt><trkpt lat="38.147090445799826" lon="-2.5625404061741737"><ele>1653.0</ele><time>2026-04-20T15:25:57.999Z</time></trkpt><trkpt lat="38.147017787747586" lon="-2.562536276876141"><ele>1653.0</ele><time>2026-04-20T15:25:58.999Z</time></trkpt><trkpt lat="38.14694639182523" lon="-2.5625416473427385"><ele>1653.0</ele><time>2026-04-20T15:25:59.999Z</time></trkpt><trkpt lat="38.146883476982126" lon="-2.5625377970792576"><ele>1653.0</ele><time>2026-04-20T15:26:00.999Z</time></trkpt><trkpt lat="38.14676120150587" lon="-2.5625443584386014"><ele>1653.0</ele><time>2026-04-20T15:26:02.999Z</time></trkpt><trkpt lat="38.14669865682771" lon="-2.5625640335244895"><ele>1653.0</ele><time>2026-04-20T15:26:03.999Z</time></trkpt><trkpt lat="38.1466339342643" lon="-2.562592800479843"><ele>1653.0</ele><time>2026-04-20T15:26:04.999Z</time></trkpt><trkpt lat="38.146564683812905" lon="-2.562642299834341"><ele>1653.0</ele><time>2026-04-20T15:26:05.999Z</time></trkpt><trkpt lat="38.1464905628545" lon="-2.562704776365807"><ele>1654.0</ele><time>2026-04-20T15:26:06.999Z</time></trkpt><trkpt lat="38.14639589400412" lon="-2.562786049677663"><ele>1655.0</ele><time>2026-04-20T15:26:07.999Z</time></trkpt><trkpt lat="38.1463078566764" lon="-2.562872887875427"><ele>1656.0</ele><time>2026-04-20T15:26:08.999Z</time></trkpt><trkpt lat="38.14622710933229" lon="-2.562921436892489"><ele>1657.0</ele><time>2026-04-20T15:26:09.999Z</time></trkpt><trkpt lat="38.1461447997408" lon="-2.562963886254129"><ele>1658.0</ele><time>2026-04-20T15:26:10.999Z</time></trkpt><trkpt lat="38.146064674705535" lon="-2.5630167243169604"><ele>1659.8000000000002</ele><time>2026-04-20T15:26:11.999Z</time></trkpt><trkpt lat="38.14598250912813" lon="-2.563090112249867"><ele>1661.6</ele><time>2026-04-20T15:26:12.999Z</time></trkpt><trkpt lat="38.14590331540966" lon="-2.5632140168429824"><ele>1663.4</ele><time>2026-04-20T15:26:13.999Z</time></trkpt><trkpt lat="38.14582165247295" lon="-2.5633265217901755"><ele>1665.1999999999998</ele><time>2026-04-20T15:26:14.999Z</time></trkpt><trkpt lat="38.14576726223568" lon="-2.563422509333887"><ele>1667.0</ele><time>2026-04-20T15:26:15.999Z</time></trkpt><trkpt lat="38.14568004190509" lon="-2.5635656536223315"><ele>1667.0</ele><time>2026-04-20T15:26:16.999Z</time></trkpt><trkpt lat="38.145558848794494" lon="-2.5636543269128187"><ele>1667.0</ele><time>2026-04-20T15:26:17.999Z</time></trkpt><trkpt lat="38.14547510291798" lon="-2.5637482973257466"><ele>1667.0</ele><time>2026-04-20T15:26:18.999Z</time></trkpt><trkpt lat="38.14540212919327" lon="-2.563851098381701"><ele>1667.0</ele><time>2026-04-20T15:26:19.999Z</time></trkpt><trkpt lat="38.14533542471993" lon="-2.56396218291602"><ele>1664.25</ele><time>2026-04-20T15:26:20.999Z</time></trkpt><trkpt lat="38.14527265141455" lon="-2.5640845026928702"><ele>1661.5</ele><time>2026-04-20T15:26:21.999Z</time></trkpt><trkpt lat="38.14520974299269" lon="-2.5642058026460113"><ele>1658.75</ele><time>2026-04-20T15:26:22.999Z</time></trkpt><trkpt lat="38.14514810423111" lon="-2.5643340592008257"><ele>1656.0</ele><time>2026-04-20T15:26:23.999Z</time></trkpt><trkpt lat="38.14508699078982" lon="-2.564463673863904"><ele>1654.5</ele><time>2026-04-20T15:26:24.999Z</time></trkpt><trkpt lat="38.14502662504557" lon="-2.5646005268085785"><ele>1653.0</ele><time>2026-04-20T15:26:25.999Z</time></trkpt><trkpt lat="38.144964497401624" lon="-2.564728215516952"><ele>1651.5</ele><time>2026-04-20T15:26:26.999Z</time></trkpt><trkpt lat="38.14489601168598" lon="-2.5648620420895294"><ele>1650.0</ele><time>2026-04-20T15:26:27.999Z</time></trkpt><trkpt lat="38.14481805307628" lon="-2.5649943949136413"><ele>1650.25</ele><time>2026-04-20T15:26:28.999Z</time></trkpt><trkpt lat="38.14474612021728" lon="-2.5651355087156182"><ele>1650.5</ele><time>2026-04-20T15:26:29.999Z</time></trkpt><trkpt lat="38.144686002459" lon="-2.5652612719605603"><ele>1650.75</ele><time>2026-04-20T15:26:30.999Z</time></trkpt><trkpt lat="38.14463259105663" lon="-2.565368340473635"><ele>1651.0</ele><time>2026-04-20T15:26:31.999Z</time></trkpt><trkpt lat="38.144568986267444" lon="-2.565478716136376"><ele>1651.0</ele><time>2026-04-20T15:26:32.999Z</time></trkpt><trkpt lat="38.144496459492295" lon="-2.565588097433768"><ele>1651.0</ele><time>2026-04-20T15:26:33.999Z</time></trkpt><trkpt lat="38.144415593363505" lon="-2.565714910659303"><ele>1651.0</ele><time>2026-04-20T15:26:34.999Z</time></trkpt><trkpt lat="38.144322780016076" lon="-2.5658320562109433"><ele>1651.0</ele><time>2026-04-20T15:26:35.999Z</time></trkpt><trkpt lat="38.144208659414886" lon="-2.565922987326828"><ele>1651.0</ele><time>2026-04-20T15:26:36.999Z</time></trkpt><trkpt lat="38.144068761034845" lon="-2.5660089924506173"><ele>1651.0</ele><time>2026-04-20T15:26:38Z</time></trkpt><trkpt lat="38.14393341905184" lon="-2.566088962549787"><ele>1651.0</ele><time>2026-04-20T15:26:39Z</time></trkpt><trkpt lat="38.143815598574136" lon="-2.5661957710467953"><ele>1651.0</ele><time>2026-04-20T15:26:40Z</time></trkpt><trkpt lat="38.14370250693567" lon="-2.5663484495330118"><ele>1650.75</ele><time>2026-04-20T15:26:41Z</time></trkpt><trkpt lat="38.143567167390366" lon="-2.566453422680161"><ele>1650.5</ele><time>2026-04-20T15:26:42Z</time></trkpt><trkpt lat="38.1434680505241" lon="-2.5665684345973236"><ele>1650.25</ele><time>2026-04-20T15:26:43Z</time></trkpt><trkpt lat="38.143381752408466" lon="-2.566713576436529"><ele>1650.0</ele><time>2026-04-20T15:26:44Z</time></trkpt><trkpt lat="38.14329090964402" lon="-2.566872465850526"><ele>1650.5</ele><time>2026-04-20T15:26:45Z</time></trkpt><trkpt lat="38.14318588898251" lon="-2.567009219757853"><ele>1651.0</ele><time>2026-04-20T15:26:46Z</time></trkpt><trkpt lat="38.14309004327461" lon="-2.567138148864927"><ele>1651.5</ele><time>2026-04-20T15:26:47Z</time></trkpt><trkpt lat="38.143008230996514" lon="-2.5672729066956834"><ele>1652.0</ele><time>2026-04-20T15:26:48Z</time></trkpt><trkpt lat="38.142913948349076" lon="-2.5674034135834427"><ele>1652.0</ele><time>2026-04-20T15:26:49Z</time></trkpt><trkpt lat="38.142818716999855" lon="-2.5675352326008984"><ele>1652.0</ele><time>2026-04-20T15:26:50Z</time></trkpt><trkpt lat="38.14271569386275" lon="-2.5676523430594056"><ele>1652.0</ele><time>2026-04-20T15:26:51Z</time></trkpt><trkpt lat="38.14263940846055" lon="-2.5677743078247106"><ele>1652.0</ele><time>2026-04-20T15:26:52Z</time></trkpt><trkpt lat="38.14255472226868" lon="-2.567892757179092"><ele>1650.25</ele><time>2026-04-20T15:26:53Z</time></trkpt><trkpt lat="38.1424743458912" lon="-2.568017366794777"><ele>1648.5</ele><time>2026-04-20T15:26:54Z</time></trkpt><trkpt lat="38.14241143125046" lon="-2.568147429897498"><ele>1646.75</ele><time>2026-04-20T15:26:55Z</time></trkpt><trkpt lat="38.14239024899045" lon="-2.568307177956953"><ele>1645.0</ele><time>2026-04-20T15:26:56Z</time></trkpt><trkpt lat="38.14235569354533" lon="-2.56846413817317"><ele>1644.8</ele><time>2026-04-20T15:26:57Z</time></trkpt><trkpt lat="38.142323622174864" lon="-2.568592787089713"><ele>1644.6</ele><time>2026-04-20T15:26:58Z</time></trkpt><trkpt lat="38.14229030655601" lon="-2.568681342686904"><ele>1644.4</ele><time>2026-04-20T15:26:59Z</time></trkpt><trkpt lat="38.14225143346947" lon="-2.5687464908768636"><ele>1644.2</ele><time>2026-04-20T15:27:00Z</time></trkpt><trkpt lat="38.14215440004278" lon="-2.568815264885663"><ele>1644.0</ele><time>2026-04-20T15:27:02Z</time></trkpt><trkpt lat="38.1421037429115" lon="-2.56892772045978"><ele>1643.0</ele><time>2026-04-20T15:27:04Z</time></trkpt><trkpt lat="38.14204818692468" lon="-2.5690815996674656"><ele>1642.0</ele><time>2026-04-20T15:27:06Z</time></trkpt><trkpt lat="38.1420223737586" lon="-2.569169880744387"><ele>1641.0</ele><time>2026-04-20T15:27:07Z</time></trkpt><trkpt lat="38.14199565953943" lon="-2.5692571199772334"><ele>1640.0</ele><time>2026-04-20T15:27:08Z</time></trkpt><trkpt lat="38.14195097293372" lon="-2.5693499519410015"><ele>1639.0</ele><time>2026-04-20T15:27:09Z</time></trkpt><trkpt lat="38.14194746101855" lon="-2.5694514703519884"><ele>1638.0</ele><time>2026-04-20T15:27:10Z</time></trkpt><trkpt lat="38.14193135430565" lon="-2.569566437930515"><ele>1637.2</ele><time>2026-04-20T15:27:11Z</time></trkpt><trkpt lat="38.1418966046671" lon="-2.5696735565502475"><ele>1636.4</ele><time>2026-04-20T15:27:12Z</time></trkpt><trkpt lat="38.1418488890761" lon="-2.569770490051746"><ele>1635.6000000000001</ele><time>2026-04-20T15:27:13Z</time></trkpt><trkpt lat="38.1418109160937" lon="-2.56984307467727"><ele>1634.8000000000002</ele><time>2026-04-20T15:27:14Z</time></trkpt><trkpt lat="38.141801849984375" lon="-2.570002898430701"><ele>1634.0</ele><time>2026-04-20T15:27:16Z</time></trkpt><trkpt lat="38.14176393753757" lon="-2.5701133225301622"><ele>1633.9999999999998</ele><time>2026-04-20T15:27:17Z</time></trkpt><trkpt lat="38.14172913022623" lon="-2.5701972122398393"><ele>1634.0</ele><time>2026-04-20T15:27:18Z</time></trkpt><trkpt lat="38.141692920992824" lon="-2.5702953162356117"><ele>1634.0</ele><time>2026-04-20T15:27:19Z</time></trkpt><trkpt lat="38.1416680816844" lon="-2.5703742143410007"><ele>1634.0</ele><time>2026-04-20T15:27:20Z</time></trkpt><trkpt lat="38.141672882647114" lon="-2.570463263622053"><ele>1633.9999999999998</ele><time>2026-04-20T15:27:21Z</time></trkpt><trkpt lat="38.14166670461729" lon="-2.5705748458145323"><ele>1634.0</ele><time>2026-04-20T15:27:22Z</time></trkpt><trkpt lat="38.141652106310104" lon="-2.5706923740382"><ele>1634.2</ele><time>2026-04-20T15:27:23Z</time></trkpt><trkpt lat="38.14164845953744" lon="-2.5707971643740177"><ele>1634.4</ele><time>2026-04-20T15:27:24Z</time></trkpt><trkpt lat="38.141620193771196" lon="-2.5709014654833307"><ele>1634.6</ele><time>2026-04-20T15:27:25Z</time></trkpt><trkpt lat="38.14156152367335" lon="-2.5710036944273704"><ele>1634.8</ele><time>2026-04-20T15:27:26Z</time></trkpt><trkpt lat="38.14149488035667" lon="-2.5710999089099165"><ele>1635.0</ele><time>2026-04-20T15:27:27Z</time></trkpt><trkpt lat="38.14143581063461" lon="-2.5711881747210725"><ele>1631.4</ele><time>2026-04-20T15:27:28Z</time></trkpt><trkpt lat="38.14138386980869" lon="-2.5712817140451083"><ele>1627.8</ele><time>2026-04-20T15:27:29Z</time></trkpt><trkpt lat="38.14132748423706" lon="-2.5713914026151574"><ele>1624.1999999999998</ele><time>2026-04-20T15:27:30Z</time></trkpt><trkpt lat="38.14125592713341" lon="-2.5714790002544734"><ele>1620.6</ele><time>2026-04-20T15:27:31Z</time></trkpt><trkpt lat="38.141169611085566" lon="-2.5715430454239923"><ele>1617.0</ele><time>2026-04-20T15:27:32Z</time></trkpt><trkpt lat="38.141089356517554" lon="-2.571598693986589"><ele>1617.0</ele><time>2026-04-20T15:27:33Z</time></trkpt><trkpt lat="38.14102044889862" lon="-2.5716719865194735"><ele>1617.0</ele><time>2026-04-20T15:27:34Z</time></trkpt><trkpt lat="38.14094069091643" lon="-2.571766595909855"><ele>1617.0</ele><time>2026-04-20T15:27:35Z</time></trkpt><trkpt lat="38.1408568698844" lon="-2.571861557438731"><ele>1617.0</ele><time>2026-04-20T15:27:36Z</time></trkpt><trkpt lat="38.14078478388679" lon="-2.571961717324297"><ele>1617.0</ele><time>2026-04-20T15:27:36.999Z</time></trkpt><trkpt lat="38.14071542693055" lon="-2.5720707266375733"><ele>1615.6</ele><time>2026-04-20T15:27:37.999Z</time></trkpt><trkpt lat="38.14065317788781" lon="-2.5721758245479256"><ele>1614.1999999999998</ele><time>2026-04-20T15:27:38.999Z</time></trkpt><trkpt lat="38.14061340316869" lon="-2.572296980653878"><ele>1612.8</ele><time>2026-04-20T15:27:39.999Z</time></trkpt><trkpt lat="38.14054880024916" lon="-2.5724215445389755"><ele>1611.4</ele><time>2026-04-20T15:27:40.999Z</time></trkpt><trkpt lat="38.140485957836184" lon="-2.5725578039983032"><ele>1610.0</ele><time>2026-04-20T15:27:41.999Z</time></trkpt><trkpt lat="38.14041840701017" lon="-2.572669673658131"><ele>1609.9999999999998</ele><time>2026-04-20T15:27:42.999Z</time></trkpt><trkpt lat="38.14036034938618" lon="-2.5727404142446693"><ele>1610.0</ele><time>2026-04-20T15:27:43.999Z</time></trkpt><trkpt lat="38.14031264977662" lon="-2.572811994195428"><ele>1610.0</ele><time>2026-04-20T15:27:44.999Z</time></trkpt><trkpt lat="38.14029359360736" lon="-2.5729359706004575"><ele>1610.0</ele><time>2026-04-20T15:27:46.999Z</time></trkpt><trkpt lat="38.140351859543095" lon="-2.5729674667674884"><ele>1609.9999999999998</ele><time>2026-04-20T15:27:47.999Z</time></trkpt><trkpt lat="38.14047034893317" lon="-2.5730020634804704"><ele>1610.0</ele><time>2026-04-20T15:27:49.999Z</time></trkpt><trkpt lat="38.14054764340486" lon="-2.5729320340064135"><ele>1612.0</ele><time>2026-04-20T15:27:50.999Z</time></trkpt><trkpt lat="38.14063530490983" lon="-2.5728899873546394"><ele>1614.0</ele><time>2026-04-20T15:27:51.999Z</time></trkpt><trkpt lat="38.140726853731245" lon="-2.572850595064915"><ele>1616.0</ele><time>2026-04-20T15:27:52.999Z</time></trkpt><trkpt lat="38.140835570056986" lon="-2.572818344414835"><ele>1618.0</ele><time>2026-04-20T15:27:53.999Z</time></trkpt><trkpt lat="38.14091789097797" lon="-2.572815229857616"><ele>1620.0</ele><time>2026-04-20T15:27:54.999Z</time></trkpt><trkpt lat="38.14098712875537" lon="-2.5728417881463614"><ele>1619.0</ele><time>2026-04-20T15:27:55.999Z</time></trkpt><trkpt lat="38.141076518652206" lon="-2.572937664733555"><ele>1618.0</ele><time>2026-04-20T15:27:57.999Z</time></trkpt><trkpt lat="38.14108683201359" lon="-2.5730819184008618"><ele>1617.0</ele><time>2026-04-20T15:27:59.999Z</time></trkpt><trkpt lat="38.14104432640691" lon="-2.5731588363363715"><ele>1616.0</ele><time>2026-04-20T15:28:00.999Z</time></trkpt><trkpt lat="38.140930844473246" lon="-2.573133172859398"><ele>1615.0</ele><time>2026-04-20T15:28:01.999Z</time></trkpt><trkpt lat="38.14085700594046" lon="-2.573148347596499"><ele>1615.0</ele><time>2026-04-20T15:28:02.999Z</time></trkpt><trkpt lat="38.140730313213666" lon="-2.5731946639866177"><ele>1615.0</ele><time>2026-04-20T15:28:04.999Z</time></trkpt><trkpt lat="38.140660793859574" lon="-2.5732739991350924"><ele>1615.0</ele><time>2026-04-20T15:28:05.999Z</time></trkpt><trkpt lat="38.14058629488107" lon="-2.5733833108235533"><ele>1615.0</ele><time>2026-04-20T15:28:06.999Z</time></trkpt><trkpt lat="38.14049592624726" lon="-2.5734869480557196"><ele>1614.75</ele><time>2026-04-20T15:28:07.999Z</time></trkpt><trkpt lat="38.140420266580094" lon="-2.5736151332184085"><ele>1614.5</ele><time>2026-04-20T15:28:08.999Z</time></trkpt><trkpt lat="38.140340658457404" lon="-2.57372395289292"><ele>1614.25</ele><time>2026-04-20T15:28:09.999Z</time></trkpt><trkpt lat="38.14026812453047" lon="-2.5738361372639695"><ele>1614.0</ele><time>2026-04-20T15:28:10.999Z</time></trkpt><trkpt lat="38.14021478982791" lon="-2.5739550127232724"><ele>1614.0</ele><time>2026-04-20T15:28:11.999Z</time></trkpt><trkpt lat="38.14016868469081" lon="-2.5740544825001037"><ele>1614.0</ele><time>2026-04-20T15:28:12.999Z</time></trkpt><trkpt lat="38.14012607287375" lon="-2.5741486867848513"><ele>1614.0</ele><time>2026-04-20T15:28:13.999Z</time></trkpt><trkpt lat="38.140078380908335" lon="-2.5742434496927"><ele>1614.0</ele><time>2026-04-20T15:28:14.999Z</time></trkpt><trkpt lat="38.1400243386466" lon="-2.574327573275814"><ele>1614.0</ele><time>2026-04-20T15:28:15.999Z</time></trkpt><trkpt lat="38.139950707363084" lon="-2.5744032147265763"><ele>1614.0</ele><time>2026-04-20T15:28:16.999Z</time></trkpt><trkpt lat="38.13984893531093" lon="-2.574460361255687"><ele>1613.4</ele><time>2026-04-20T15:28:17.999Z</time></trkpt><trkpt lat="38.13975441339962" lon="-2.5744686363625195"><ele>1612.8000000000002</ele><time>2026-04-20T15:28:18.999Z</time></trkpt><trkpt lat="38.13968719705972" lon="-2.5745014797462384"><ele>1612.1999999999998</ele><time>2026-04-20T15:28:19.999Z</time></trkpt><trkpt lat="38.139572888917215" lon="-2.5745255819714297"><ele>1611.6</ele><time>2026-04-20T15:28:21.999Z</time></trkpt><trkpt lat="38.13947631107577" lon="-2.5745633350889743"><ele>1611.0</ele><time>2026-04-20T15:28:23.999Z</time></trkpt><trkpt lat="38.13939709476505" lon="-2.574630394909099"><ele>1610.0</ele><time>2026-04-20T15:28:25.999Z</time></trkpt><trkpt lat="38.139323205838835" lon="-2.5746657459913704"><ele>1609.0</ele><time>2026-04-20T15:28:27.999Z</time></trkpt><trkpt lat="38.139285255611284" lon="-2.574750036936585"><ele>1608.0</ele><time>2026-04-20T15:28:29.999Z</time></trkpt><trkpt lat="38.13922044929284" lon="-2.5748151235012617"><ele>1607.0</ele><time>2026-04-20T15:29:33.999Z</time></trkpt><trkpt lat="38.13918050497771" lon="-2.5748973060146088"><ele>1606.0</ele><time>2026-04-20T15:29:34.999Z</time></trkpt><trkpt lat="38.13911637600762" lon="-2.5749530148327384"><ele>1605.0</ele><time>2026-04-20T15:29:35.999Z</time></trkpt><trkpt lat="38.13907350351649" lon="-2.5750448191283426"><ele>1604.6666666666667</ele><time>2026-04-20T15:29:36.999Z</time></trkpt><trkpt lat="38.13902970180736" lon="-2.575119642558193"><ele>1604.3333333333335</ele><time>2026-04-20T15:29:37.999Z</time></trkpt><trkpt lat="38.13898477767518" lon="-2.575233727922613"><ele>1604.0</ele><time>2026-04-20T15:29:38.999Z</time></trkpt><trkpt lat="38.13893947239645" lon="-2.5753337193773937"><ele>1603.6666666666667</ele><time>2026-04-20T15:29:39.999Z</time></trkpt><trkpt lat="38.13892686142984" lon="-2.5754405884274174"><ele>1603.3333333333335</ele><time>2026-04-20T15:29:40.999Z</time></trkpt><trkpt lat="38.138919877979696" lon="-2.5755271253337506"><ele>1603.0</ele><time>2026-04-20T15:29:41.999Z</time></trkpt><trkpt lat="38.13892633379983" lon="-2.57568203590323"><ele>1603.0</ele><time>2026-04-20T15:29:43.999Z</time></trkpt><trkpt lat="38.13893180018245" lon="-2.575773682903407"><ele>1603.0</ele><time>2026-04-20T15:29:44.999Z</time></trkpt><trkpt lat="38.13891259174826" lon="-2.5759115364904175"><ele>1603.0</ele><time>2026-04-20T15:29:46.999Z</time></trkpt><trkpt lat="38.13882696061364" lon="-2.5760426959496634"><ele>1603.0</ele><time>2026-04-20T15:29:48.999Z</time></trkpt><trkpt lat="38.13876232709458" lon="-2.5761237672025774"><ele>1603.0</ele><time>2026-04-20T15:29:49.999Z</time></trkpt><trkpt lat="38.13867630147919" lon="-2.5762320501696476"><ele>1601.0</ele><time>2026-04-20T15:29:50.999Z</time></trkpt><trkpt lat="38.13858466341256" lon="-2.5763624188646244"><ele>1599.0</ele><time>2026-04-20T15:29:51.999Z</time></trkpt><trkpt lat="38.138500144589436" lon="-2.576494147479042"><ele>1597.0</ele><time>2026-04-20T15:29:52.999Z</time></trkpt><trkpt lat="38.13842370537565" lon="-2.5766146539426122"><ele>1595.0</ele><time>2026-04-20T15:29:53.999Z</time></trkpt><trkpt lat="38.138346481747625" lon="-2.576717182544969"><ele>1595.0</ele><time>2026-04-20T15:29:54.999Z</time></trkpt><trkpt lat="38.1382745633882" lon="-2.5768273384898692"><ele>1595.0</ele><time>2026-04-20T15:29:55.999Z</time></trkpt><trkpt lat="38.13822201076514" lon="-2.576907328090761"><ele>1595.0</ele><time>2026-04-20T15:29:56.999Z</time></trkpt><trkpt lat="38.13814243673313" lon="-2.5770514240482325"><ele>1595.0</ele><time>2026-04-20T15:29:58.999Z</time></trkpt><trkpt lat="38.1380924147246" lon="-2.577123497397478"><ele>1595.0</ele><time>2026-04-20T15:29:59.999Z</time></trkpt><trkpt lat="38.13802250012565" lon="-2.577203562817209"><ele>1593.0</ele><time>2026-04-20T15:30:00.999Z</time></trkpt><trkpt lat="38.13791425584504" lon="-2.577251763450292"><ele>1591.0</ele><time>2026-04-20T15:30:01.999Z</time></trkpt><trkpt lat="38.13782109358025" lon="-2.5773048754631183"><ele>1589.0</ele><time>2026-04-20T15:30:02.999Z</time></trkpt><trkpt lat="38.137724070330385" lon="-2.577356864932835"><ele>1587.0</ele><time>2026-04-20T15:30:03.999Z</time></trkpt><trkpt lat="38.13764230427558" lon="-2.577417364348671"><ele>1585.0</ele><time>2026-04-20T15:30:04.999Z</time></trkpt><trkpt lat="38.13758432929036" lon="-2.5775173282469312"><ele>1585.0</ele><time>2026-04-20T15:30:05.999Z</time></trkpt><trkpt lat="38.137518402167956" lon="-2.5776039853694668"><ele>1585.0</ele><time>2026-04-20T15:30:06.999Z</time></trkpt><trkpt lat="38.13744979258031" lon="-2.5777009364725703"><ele>1585.0</ele><time>2026-04-20T15:30:07.999Z</time></trkpt><trkpt lat="38.13738933012921" lon="-2.577786803827139"><ele>1585.0</ele><time>2026-04-20T15:30:08.999Z</time></trkpt><trkpt lat="38.13732991131739" lon="-2.57786696791822"><ele>1585.0</ele><time>2026-04-20T15:30:09.999Z</time></trkpt><trkpt lat="38.13728698792596" lon="-2.577952429705683"><ele>1583.8</ele><time>2026-04-20T15:30:10.999Z</time></trkpt><trkpt lat="38.137278018462105" lon="-2.5780425373435594"><ele>1582.6</ele><time>2026-04-20T15:30:11.999Z</time></trkpt><trkpt lat="38.13734931791247" lon="-2.578132639464546"><ele>1581.4</ele><time>2026-04-20T15:30:12.999Z</time></trkpt><trkpt lat="38.13735780139378" lon="-2.5782138381917594"><ele>1580.2</ele><time>2026-04-20T15:30:13.999Z</time></trkpt><trkpt lat="38.13734144754269" lon="-2.5783243576820576"><ele>1579.0</ele><time>2026-04-20T15:30:14.999Z</time></trkpt><trkpt lat="38.13730262948951" lon="-2.5784762099104435"><ele>1579.0</ele><time>2026-04-20T15:30:15.999Z</time></trkpt><trkpt lat="38.13727882334495" lon="-2.5786411222047554"><ele>1579.0</ele><time>2026-04-20T15:30:16.999Z</time></trkpt><trkpt lat="38.13726625266191" lon="-2.578806711350785"><ele>1579.0</ele><time>2026-04-20T15:30:17.999Z</time></trkpt><trkpt lat="38.137259522634594" lon="-2.578937101832569"><ele>1579.0</ele><time>2026-04-20T15:30:18.999Z</time></trkpt><trkpt lat="38.13725468050895" lon="-2.579045996247691"><ele>1578.2</ele><time>2026-04-20T15:30:19.999Z</time></trkpt><trkpt lat="38.13724944767813" lon="-2.579158097936312"><ele>1577.4</ele><time>2026-04-20T15:30:20.999Z</time></trkpt><trkpt lat="38.13727477660971" lon="-2.579258598000298"><ele>1576.6</ele><time>2026-04-20T15:30:21.999Z</time></trkpt><trkpt lat="38.1373040868301" lon="-2.5793525554836325"><ele>1575.8</ele><time>2026-04-20T15:30:22.999Z</time></trkpt><trkpt lat="38.13736219999841" lon="-2.579461563691514"><ele>1575.0</ele><time>2026-04-20T15:30:23.999Z</time></trkpt><trkpt lat="38.13742342743485" lon="-2.5796217626255724"><ele>1574.8</ele><time>2026-04-20T15:30:24.999Z</time></trkpt><trkpt lat="38.13748277374687" lon="-2.5797732718497803"><ele>1574.6</ele><time>2026-04-20T15:30:25.999Z</time></trkpt><trkpt lat="38.137518879271454" lon="-2.5799189372437854"><ele>1574.4</ele><time>2026-04-20T15:30:26.999Z</time></trkpt><trkpt lat="38.13755768853446" lon="-2.5800242805194804"><ele>1574.2</ele><time>2026-04-20T15:30:27.999Z</time></trkpt><trkpt lat="38.13758089656075" lon="-2.5801264933414387"><ele>1574.0</ele><time>2026-04-20T15:30:28.999Z</time></trkpt><trkpt lat="38.13758171019741" lon="-2.5802135604178233"><ele>1574.0</ele><time>2026-04-20T15:30:29.999Z</time></trkpt><trkpt lat="38.13754908359377" lon="-2.5802931779063636"><ele>1574.0</ele><time>2026-04-20T15:30:30.999Z</time></trkpt><trkpt lat="38.1374860335237" lon="-2.580365170404604"><ele>1574.0</ele><time>2026-04-20T15:30:31.999Z</time></trkpt><trkpt lat="38.137399725739755" lon="-2.58044778672852"><ele>1574.0</ele><time>2026-04-20T15:30:32.999Z</time></trkpt><trkpt lat="38.137286248611716" lon="-2.5804883668292162"><ele>1574.0</ele><time>2026-04-20T15:30:33.999Z</time></trkpt><trkpt lat="38.13718399984347" lon="-2.5805346278799117"><ele>1572.8000000000002</ele><time>2026-04-20T15:30:34.999Z</time></trkpt><trkpt lat="38.13711190937489" lon="-2.5805895020513576"><ele>1571.6000000000001</ele><time>2026-04-20T15:30:35.999Z</time></trkpt><trkpt lat="38.13702267653644" lon="-2.580630900782845"><ele>1570.4</ele><time>2026-04-20T15:30:36.999Z</time></trkpt><trkpt lat="38.13691739383274" lon="-2.580679745694894"><ele>1569.2</ele><time>2026-04-20T15:30:37.999Z</time></trkpt><trkpt lat="38.13680763879032" lon="-2.580732245394079"><ele>1568.0</ele><time>2026-04-20T15:30:38.999Z</time></trkpt><trkpt lat="38.13672928580323" lon="-2.580773806673682"><ele>1567.9999999999998</ele><time>2026-04-20T15:30:39.999Z</time></trkpt><trkpt lat="38.136664382967844" lon="-2.5808190095998786"><ele>1568.0</ele><time>2026-04-20T15:30:40.999Z</time></trkpt><trkpt lat="38.13660402403637" lon="-2.58087120997625"><ele>1568.0</ele><time>2026-04-20T15:30:41.999Z</time></trkpt><trkpt lat="38.1365428480691" lon="-2.5809165184241536"><ele>1568.0</ele><time>2026-04-20T15:30:42.999Z</time></trkpt><trkpt lat="38.136477151545414" lon="-2.5809732322237298"><ele>1567.9999999999998</ele><time>2026-04-20T15:30:43.999Z</time></trkpt><trkpt lat="38.13642007140537" lon="-2.5810464484995728"><ele>1568.0</ele><time>2026-04-20T15:30:44.999Z</time></trkpt><trkpt lat="38.136390100663995" lon="-2.5811589754524675"><ele>1568.75</ele><time>2026-04-20T15:30:45.999Z</time></trkpt><trkpt lat="38.13641861211137" lon="-2.5812772317948958"><ele>1569.5</ele><time>2026-04-20T15:30:46.999Z</time></trkpt><trkpt lat="38.136431340487185" lon="-2.5814124805787477"><ele>1570.25</ele><time>2026-04-20T15:30:47.999Z</time></trkpt><trkpt lat="38.1364471294833" lon="-2.5815723312565395"><ele>1571.0</ele><time>2026-04-20T15:30:49Z</time></trkpt><trkpt lat="38.13646515906902" lon="-2.581735756229391"><ele>1571.0</ele><time>2026-04-20T15:30:50Z</time></trkpt><trkpt lat="38.13648626913266" lon="-2.5818884455065767"><ele>1571.0</ele><time>2026-04-20T15:30:51Z</time></trkpt><trkpt lat="38.13648084193368" lon="-2.582031882995072"><ele>1571.0</ele><time>2026-04-20T15:30:52Z</time></trkpt><trkpt lat="38.13649360100492" lon="-2.582145007790361"><ele>1571.0</ele><time>2026-04-20T15:30:53Z</time></trkpt><trkpt lat="38.136515171085286" lon="-2.5822473052030452"><ele>1571.0</ele><time>2026-04-20T15:30:54Z</time></trkpt><trkpt lat="38.13655358639954" lon="-2.5823565314248924"><ele>1569.3333333333333</ele><time>2026-04-20T15:30:55Z</time></trkpt><trkpt lat="38.1366008762154" lon="-2.5824731188344856"><ele>1567.6666666666665</ele><time>2026-04-20T15:30:56Z</time></trkpt><trkpt lat="38.13662773399992" lon="-2.582562821639031"><ele>1566.0</ele><time>2026-04-20T15:30:57Z</time></trkpt><trkpt lat="38.1366328550532" lon="-2.582647369539371"><ele>1564.3333333333335</ele><time>2026-04-20T15:30:58Z</time></trkpt><trkpt lat="38.13666146378256" lon="-2.5827232408487277"><ele>1562.6666666666667</ele><time>2026-04-20T15:30:59Z</time></trkpt><trkpt lat="38.1366378734297" lon="-2.5828078479916736"><ele>1561.0</ele><time>2026-04-20T15:31:00Z</time></trkpt><trkpt lat="38.136608515769026" lon="-2.582894727404507"><ele>1560.4</ele><time>2026-04-20T15:31:01Z</time></trkpt><trkpt lat="38.136560757071344" lon="-2.5829555539440348"><ele>1559.8</ele><time>2026-04-20T15:31:02Z</time></trkpt><trkpt lat="38.13647506090055" lon="-2.5830208819303415"><ele>1559.2</ele><time>2026-04-20T15:31:03Z</time></trkpt><trkpt lat="38.13637665008698" lon="-2.5831026703357276"><ele>1558.6000000000001</ele><time>2026-04-20T15:31:04Z</time></trkpt><trkpt lat="38.13627444871848" lon="-2.5831962888984172"><ele>1558.0</ele><time>2026-04-20T15:31:05Z</time></trkpt><trkpt lat="38.13618969223209" lon="-2.5832748083693984"><ele>1559.2</ele><time>2026-04-20T15:31:06Z</time></trkpt><trkpt lat="38.136120157432536" lon="-2.5833506132563713"><ele>1560.4</ele><time>2026-04-20T15:31:07Z</time></trkpt><trkpt lat="38.136043422546244" lon="-2.5834104413868344"><ele>1561.6000000000001</ele><time>2026-04-20T15:31:08Z</time></trkpt><trkpt lat="38.13597354943437" lon="-2.5834694685396946"><ele>1562.8000000000002</ele><time>2026-04-20T15:31:09Z</time></trkpt><trkpt lat="38.13590387021669" lon="-2.5835226995832743"><ele>1564.0</ele><time>2026-04-20T15:31:10Z</time></trkpt><trkpt lat="38.13582416800117" lon="-2.5836229796831973"><ele>1563.25</ele><time>2026-04-20T15:31:12Z</time></trkpt><trkpt lat="38.135860793921125" lon="-2.583769501953067"><ele>1562.5</ele><time>2026-04-20T15:31:14Z</time></trkpt><trkpt lat="38.13594543475423" lon="-2.583799264889351"><ele>1561.75</ele><time>2026-04-20T15:31:15Z</time></trkpt><trkpt lat="38.13603365644183" lon="-2.58388415344876"><ele>1561.0</ele><time>2026-04-20T15:31:16Z</time></trkpt><trkpt lat="38.13615163788481" lon="-2.5839912959709173"><ele>1561.0</ele><time>2026-04-20T15:31:17Z</time></trkpt><trkpt lat="38.136240523615164" lon="-2.5840756200406036"><ele>1561.0</ele><time>2026-04-20T15:31:18Z</time></trkpt><trkpt lat="38.13629874261529" lon="-2.5841373799628657"><ele>1561.0</ele><time>2026-04-20T15:31:19Z</time></trkpt><trkpt lat="38.136360213904936" lon="-2.5842259692482603"><ele>1561.0</ele><time>2026-04-20T15:31:20Z</time></trkpt><trkpt lat="38.136400555308974" lon="-2.5843272185480046"><ele>1561.0</ele><time>2026-04-20T15:31:21Z</time></trkpt><trkpt lat="38.136375732825684" lon="-2.5844432525919863"><ele>1561.0</ele><time>2026-04-20T15:31:22Z</time></trkpt><trkpt lat="38.13636149219023" lon="-2.5845511882778673"><ele>1561.0</ele><time>2026-04-20T15:31:23Z</time></trkpt><trkpt lat="38.136293580355236" lon="-2.5846523090642015"><ele>1561.0</ele><time>2026-04-20T15:31:24Z</time></trkpt><trkpt lat="38.13627096447202" lon="-2.5847468282643886"><ele>1561.0</ele><time>2026-04-20T15:31:25Z</time></trkpt><trkpt lat="38.136228105934556" lon="-2.584879289826304"><ele>1561.0</ele><time>2026-04-20T15:31:27Z</time></trkpt><trkpt lat="38.136209020517995" lon="-2.5849796184084064"><ele>1561.0</ele><time>2026-04-20T15:32:05.999Z</time></trkpt><trkpt lat="38.136123446513785" lon="-2.5850250340638246"><ele>1561.0</ele><time>2026-04-20T15:32:06.999Z</time></trkpt><trkpt lat="38.136055222480685" lon="-2.585042803019322"><ele>1561.0</ele><time>2026-04-20T15:32:07.999Z</time></trkpt><trkpt lat="38.13598040234698" lon="-2.5851000919597986"><ele>1561.0</ele><time>2026-04-20T15:32:08.999Z</time></trkpt><trkpt lat="38.135881169333274" lon="-2.585127476393315"><ele>1561.0</ele><time>2026-04-20T15:32:09.999Z</time></trkpt><trkpt lat="38.1357791207795" lon="-2.58517800486923"><ele>1560.5</ele><time>2026-04-20T15:32:10.999Z</time></trkpt><trkpt lat="38.135663132134376" lon="-2.5852448957707215"><ele>1560.0</ele><time>2026-04-20T15:32:11.999Z</time></trkpt><trkpt lat="38.135536714340034" lon="-2.5853071534991847"><ele>1559.5</ele><time>2026-04-20T15:32:12.999Z</time></trkpt><trkpt lat="38.135409433793" lon="-2.5853654201916973"><ele>1559.0</ele><time>2026-04-20T15:32:13.999Z</time></trkpt><trkpt lat="38.1352800264411" lon="-2.5854275869663956"><ele>1559.0</ele><time>2026-04-20T15:32:14.999Z</time></trkpt><trkpt lat="38.13514870116148" lon="-2.5855005253091377"><ele>1559.0</ele><time>2026-04-20T15:32:15.999Z</time></trkpt><trkpt lat="38.135013381919954" lon="-2.585569830037458"><ele>1559.0</ele><time>2026-04-20T15:32:16.999Z</time></trkpt><trkpt lat="38.13487166591622" lon="-2.5856369428011527"><ele>1559.0</ele><time>2026-04-20T15:32:17.999Z</time></trkpt><trkpt lat="38.13472934776199" lon="-2.5857132615240404"><ele>1560.3333333333333</ele><time>2026-04-20T15:32:18.999Z</time></trkpt><trkpt lat="38.13457967038172" lon="-2.5857743895868768"><ele>1561.6666666666665</ele><time>2026-04-20T15:32:19.999Z</time></trkpt><trkpt lat="38.13443396073298" lon="-2.585851075060198"><ele>1563.0</ele><time>2026-04-20T15:32:20.999Z</time></trkpt><trkpt lat="38.134300647542865" lon="-2.5859225258134932"><ele>1563.0</ele><time>2026-04-20T15:32:21.999Z</time></trkpt><trkpt lat="38.13418152022576" lon="-2.586002545425184"><ele>1563.0</ele><time>2026-04-20T15:32:22.999Z</time></trkpt><trkpt lat="38.134070683582195" lon="-2.5861116178490473"><ele>1563.0</ele><time>2026-04-20T15:32:23.999Z</time></trkpt><trkpt lat="38.133998377321234" lon="-2.586274783212906"><ele>1563.0</ele><time>2026-04-20T15:32:24.999Z</time></trkpt><trkpt lat="38.13390918806665" lon="-2.5864297458680086"><ele>1562.3333333333335</ele><time>2026-04-20T15:32:25.999Z</time></trkpt><trkpt lat="38.13382812440316" lon="-2.586588213037802"><ele>1561.6666666666667</ele><time>2026-04-20T15:32:26.999Z</time></trkpt><trkpt lat="38.13374353348615" lon="-2.586748234465816"><ele>1561.0</ele><time>2026-04-20T15:32:27.999Z</time></trkpt><trkpt lat="38.133655203012836" lon="-2.5869128829196946"><ele>1562.3333333333335</ele><time>2026-04-20T15:32:28.999Z</time></trkpt><trkpt lat="38.133573574596824" lon="-2.5870771401686006"><ele>1563.6666666666665</ele><time>2026-04-20T15:32:29.999Z</time></trkpt><trkpt lat="38.133490057025" lon="-2.587247714223165"><ele>1565.0</ele><time>2026-04-20T15:32:30.999Z</time></trkpt><trkpt lat="38.13340853344535" lon="-2.5874217583332735"><ele>1565.0</ele><time>2026-04-20T15:32:31.999Z</time></trkpt><trkpt lat="38.133324829162746" lon="-2.5875975846487793"><ele>1565.0</ele><time>2026-04-20T15:32:32.999Z</time></trkpt><trkpt lat="38.133236009434206" lon="-2.5877726627106177"><ele>1565.0</ele><time>2026-04-20T15:32:33.999Z</time></trkpt><trkpt lat="38.133163503094536" lon="-2.58793637723642"><ele>1566.5</ele><time>2026-04-20T15:32:34.999Z</time></trkpt><trkpt lat="38.13309587756579" lon="-2.5880936335603124"><ele>1568.0</ele><time>2026-04-20T15:32:35.999Z</time></trkpt><trkpt lat="38.13305105804527" lon="-2.5882521632493782"><ele>1569.5</ele><time>2026-04-20T15:32:36.999Z</time></trkpt><trkpt lat="38.133009993744636" lon="-2.5884001023937984"><ele>1571.0</ele><time>2026-04-20T15:32:37.999Z</time></trkpt><trkpt lat="38.13297647935656" lon="-2.5885532378853817"><ele>1571.0</ele><time>2026-04-20T15:32:38.999Z</time></trkpt><trkpt lat="38.13294535282328" lon="-2.5887070020945924"><ele>1571.0</ele><time>2026-04-20T15:32:39.999Z</time></trkpt><trkpt lat="38.1329099715673" lon="-2.5888545404919237"><ele>1571.0</ele><time>2026-04-20T15:32:40.999Z</time></trkpt><trkpt lat="38.13286611023727" lon="-2.5889946889824955"><ele>1571.0</ele><time>2026-04-20T15:32:41.999Z</time></trkpt><trkpt lat="38.13280172741978" lon="-2.589120611207206"><ele>1571.0</ele><time>2026-04-20T15:32:42.999Z</time></trkpt><trkpt lat="38.13275056439168" lon="-2.5892519355430563"><ele>1571.0</ele><time>2026-04-20T15:32:43.999Z</time></trkpt><trkpt lat="38.13268924381119" lon="-2.58937395416016"><ele>1571.0</ele><time>2026-04-20T15:32:44.999Z</time></trkpt><trkpt lat="38.13261222976826" lon="-2.5894853495058188"><ele>1571.0</ele><time>2026-04-20T15:32:45.999Z</time></trkpt><trkpt lat="38.1325380120503" lon="-2.5896062760436838"><ele>1570.5</ele><time>2026-04-20T15:32:46.999Z</time></trkpt><trkpt lat="38.132435785986644" lon="-2.589719258028007"><ele>1570.0</ele><time>2026-04-20T15:32:47.999Z</time></trkpt><trkpt lat="38.132320337491585" lon="-2.5898221191504645"><ele>1569.5</ele><time>2026-04-20T15:32:48.999Z</time></trkpt><trkpt lat="38.13218072181306" lon="-2.589916788579934"><ele>1569.0</ele><time>2026-04-20T15:32:49.999Z</time></trkpt><trkpt lat="38.13204364642203" lon="-2.589985532841833"><ele>1569.0</ele><time>2026-04-20T15:32:50.999Z</time></trkpt><trkpt lat="38.13189886535466" lon="-2.590032164813658"><ele>1569.0</ele><time>2026-04-20T15:32:51.999Z</time></trkpt><trkpt lat="38.13173530065688" lon="-2.590050296628896"><ele>1569.0</ele><time>2026-04-20T15:32:52.999Z</time></trkpt><trkpt lat="38.13160327589622" lon="-2.5900719252452213"><ele>1569.0</ele><time>2026-04-20T15:32:53.999Z</time></trkpt><trkpt lat="38.13143584359558" lon="-2.5900612605688216"><ele>1568.0</ele><time>2026-04-20T15:32:55Z</time></trkpt><trkpt lat="38.13128029660337" lon="-2.590064247926653"><ele>1567.0</ele><time>2026-04-20T15:32:56Z</time></trkpt><trkpt lat="38.131138312428796" lon="-2.5901212272578356"><ele>1566.0</ele><time>2026-04-20T15:32:57Z</time></trkpt><trkpt lat="38.13099292216334" lon="-2.590192730768892"><ele>1566.0</ele><time>2026-04-20T15:32:58Z</time></trkpt><trkpt lat="38.130863464837404" lon="-2.590296835748397"><ele>1566.0</ele><time>2026-04-20T15:32:59Z</time></trkpt><trkpt lat="38.13077165644005" lon="-2.5904414315123057"><ele>1566.0</ele><time>2026-04-20T15:33:00Z</time></trkpt><trkpt lat="38.13067703904214" lon="-2.5905882597986545"><ele>1566.0</ele><time>2026-04-20T15:33:01Z</time></trkpt><trkpt lat="38.13057476450399" lon="-2.590725773013799"><ele>1567.25</ele><time>2026-04-20T15:33:02Z</time></trkpt><trkpt lat="38.13045996669865" lon="-2.5908107743305013"><ele>1568.5</ele><time>2026-04-20T15:33:03Z</time></trkpt><trkpt lat="38.130349520947355" lon="-2.5908804918778334"><ele>1569.75</ele><time>2026-04-20T15:33:04Z</time></trkpt><trkpt lat="38.130187704601084" lon="-2.5909185524615177"><ele>1571.0</ele><time>2026-04-20T15:33:05Z</time></trkpt><trkpt lat="38.129983996569194" lon="-2.5909458448261042"><ele>1571.0</ele><time>2026-04-20T15:33:06Z</time></trkpt><trkpt lat="38.12978613162679" lon="-2.59102961506896"><ele>1571.0</ele><time>2026-04-20T15:33:07Z</time></trkpt><trkpt lat="38.129582893482045" lon="-2.59115438016931"><ele>1571.0</ele><time>2026-04-20T15:33:08Z</time></trkpt><trkpt lat="38.12935873877844" lon="-2.591311596678663"><ele>1571.0</ele><time>2026-04-20T15:33:09Z</time></trkpt><trkpt lat="38.129156907420956" lon="-2.5914421072608214"><ele>1571.0</ele><time>2026-04-20T15:33:10Z</time></trkpt><trkpt lat="38.128973605659105" lon="-2.5915485624043724"><ele>1571.0</ele><time>2026-04-20T15:33:11Z</time></trkpt><trkpt lat="38.12879668234566" lon="-2.591692605491404"><ele>1571.3333333333333</ele><time>2026-04-20T15:33:12Z</time></trkpt><trkpt lat="38.12863799541269" lon="-2.5918630062746426"><ele>1571.6666666666665</ele><time>2026-04-20T15:33:13Z</time></trkpt><trkpt lat="38.12847123058579" lon="-2.5919983135434186"><ele>1572.0</ele><time>2026-04-20T15:33:14Z</time></trkpt><trkpt lat="38.12833771058511" lon="-2.592167361107243"><ele>1575.3333333333335</ele><time>2026-04-20T15:33:15Z</time></trkpt><trkpt lat="38.12821397979765" lon="-2.592310764943118"><ele>1578.6666666666667</ele><time>2026-04-20T15:33:16Z</time></trkpt><trkpt lat="38.128098929568395" lon="-2.592454314132586"><ele>1582.0</ele><time>2026-04-20T15:33:17Z</time></trkpt><trkpt lat="38.127983913609384" lon="-2.5925818383890307"><ele>1582.0</ele><time>2026-04-20T15:33:18Z</time></trkpt><trkpt lat="38.12785479810153" lon="-2.592666882303064"><ele>1582.0</ele><time>2026-04-20T15:33:19Z</time></trkpt><trkpt lat="38.12773903453839" lon="-2.592754066223516"><ele>1582.0</ele><time>2026-04-20T15:33:20Z</time></trkpt><trkpt lat="38.12766449746843" lon="-2.592883253868418"><ele>1582.0</ele><time>2026-04-20T15:33:21Z</time></trkpt><trkpt lat="38.12756849534243" lon="-2.5929881857639714"><ele>1580.0</ele><time>2026-04-20T15:33:22Z</time></trkpt><trkpt lat="38.12752727153701" lon="-2.593156282427301"><ele>1578.0</ele><time>2026-04-20T15:33:23Z</time></trkpt><trkpt lat="38.12748961703125" lon="-2.593311634887705"><ele>1576.0</ele><time>2026-04-20T15:33:24Z</time></trkpt><trkpt lat="38.12741686021063" lon="-2.5934613366793045"><ele>1574.0</ele><time>2026-04-20T15:33:25Z</time></trkpt><trkpt lat="38.127293999187714" lon="-2.5935999943766164"><ele>1573.6666666666665</ele><time>2026-04-20T15:33:26Z</time></trkpt><trkpt lat="38.127151075610215" lon="-2.593725019003982"><ele>1573.3333333333335</ele><time>2026-04-20T15:33:27Z</time></trkpt><trkpt lat="38.1270038992082" lon="-2.593868935045293"><ele>1573.0</ele><time>2026-04-20T15:33:28Z</time></trkpt><trkpt lat="38.12687338854103" lon="-2.594032183533005"><ele>1573.0</ele><time>2026-04-20T15:33:29Z</time></trkpt><trkpt lat="38.126762069991784" lon="-2.5941812664497266"><ele>1573.0</ele><time>2026-04-20T15:33:30Z</time></trkpt><trkpt lat="38.12665519705055" lon="-2.594302413377396"><ele>1573.0</ele><time>2026-04-20T15:33:31Z</time></trkpt><trkpt lat="38.126554530306876" lon="-2.594391177058212"><ele>1573.0</ele><time>2026-04-20T15:33:32Z</time></trkpt><trkpt lat="38.1264851348284" lon="-2.5944467266294313"><ele>1572.142857142857</ele><time>2026-04-20T15:33:33Z</time></trkpt><trkpt lat="38.12640629878888" lon="-2.5945056366428987"><ele>1571.2857142857144</ele><time>2026-04-20T15:33:35Z</time></trkpt><trkpt lat="38.12634777500804" lon="-2.594553096634213"><ele>1570.4285714285716</ele><time>2026-04-20T15:33:36Z</time></trkpt><trkpt lat="38.12628066183892" lon="-2.594596582043225"><ele>1569.5714285714284</ele><time>2026-04-20T15:33:37Z</time></trkpt><trkpt lat="38.12621932331606" lon="-2.5946324230872717"><ele>1568.7142857142858</ele><time>2026-04-20T15:33:38Z</time></trkpt><trkpt lat="38.12615930084642" lon="-2.5946690163259043"><ele>1567.857142857143</ele><time>2026-04-20T15:33:39Z</time></trkpt><trkpt lat="38.12609547293624" lon="-2.594705104646235"><ele>1567.0</ele><time>2026-04-20T15:33:40Z</time></trkpt><trkpt lat="38.12602807291438" lon="-2.5947368623164078"><ele>1567.0</ele><time>2026-04-20T15:33:41Z</time></trkpt><trkpt lat="38.125958695584764" lon="-2.5947679662227867"><ele>1567.0</ele><time>2026-04-20T15:33:42Z</time></trkpt><trkpt lat="38.12588113056667" lon="-2.5948061719711095"><ele>1567.0</ele><time>2026-04-20T15:33:43Z</time></trkpt><trkpt lat="38.12579731137178" lon="-2.5948380340618087"><ele>1567.0</ele><time>2026-04-20T15:33:43.999Z</time></trkpt><trkpt lat="38.12569980626321" lon="-2.594876531879612"><ele>1567.0</ele><time>2026-04-20T15:33:44.999Z</time></trkpt><trkpt lat="38.125590433089805" lon="-2.5949201828427286"><ele>1569.5</ele><time>2026-04-20T15:33:45.999Z</time></trkpt><trkpt lat="38.125462457051626" lon="-2.5949438002128935"><ele>1572.0</ele><time>2026-04-20T15:33:46.999Z</time></trkpt><trkpt lat="38.125337082878794" lon="-2.594969897747126"><ele>1574.5</ele><time>2026-04-20T15:33:47.999Z</time></trkpt><trkpt lat="38.12522806419514" lon="-2.5950055829826146"><ele>1577.0</ele><time>2026-04-20T15:33:48.999Z</time></trkpt><trkpt lat="38.12512477063371" lon="-2.5950829938311433"><ele>1577.0</ele><time>2026-04-20T15:33:49.999Z</time></trkpt><trkpt lat="38.1250451092081" lon="-2.595219393791833"><ele>1577.0</ele><time>2026-04-20T15:33:50.999Z</time></trkpt><trkpt lat="38.12495649121165" lon="-2.5953498935001917"><ele>1577.0</ele><time>2026-04-20T15:33:51.999Z</time></trkpt><trkpt lat="38.124865745830995" lon="-2.595487758429781"><ele>1577.0</ele><time>2026-04-20T15:33:52.999Z</time></trkpt><trkpt lat="38.12475267666985" lon="-2.5956089389886414"><ele>1578.0</ele><time>2026-04-20T15:33:53.999Z</time></trkpt><trkpt lat="38.12462463597069" lon="-2.595764069729093"><ele>1579.0</ele><time>2026-04-20T15:33:54.999Z</time></trkpt><trkpt lat="38.12450275767306" lon="-2.5959012572117017"><ele>1580.0</ele><time>2026-04-20T15:33:55.999Z</time></trkpt><trkpt lat="38.12439681642468" lon="-2.5960171559642484"><ele>1580.0</ele><time>2026-04-20T15:33:56.999Z</time></trkpt><trkpt lat="38.1242967174354" lon="-2.59611938035127"><ele>1580.0</ele><time>2026-04-20T15:33:57.999Z</time></trkpt><trkpt lat="38.1241975923469" lon="-2.596204483032592"><ele>1580.0</ele><time>2026-04-20T15:33:58.999Z</time></trkpt><trkpt lat="38.124100028275045" lon="-2.596265464235899"><ele>1580.0</ele><time>2026-04-20T15:33:59.999Z</time></trkpt><trkpt lat="38.12400644775464" lon="-2.5963041907822006"><ele>1579.4</ele><time>2026-04-20T15:34:00.999Z</time></trkpt><trkpt lat="38.1239177357828" lon="-2.5963135307953378"><ele>1578.8</ele><time>2026-04-20T15:34:01.999Z</time></trkpt><trkpt lat="38.12383861502048" lon="-2.596310867886205"><ele>1578.1999999999998</ele><time>2026-04-20T15:34:02.999Z</time></trkpt><trkpt lat="38.1237350054879" lon="-2.596320163425824"><ele>1577.6</ele><time>2026-04-20T15:34:04.999Z</time></trkpt><trkpt lat="38.123803700087166" lon="-2.596415473510994"><ele>1577.0</ele><time>2026-04-20T15:34:47.999Z</time></trkpt><trkpt lat="38.1238835140291" lon="-2.5964143928542773"><ele>1577.0</ele><time>2026-04-20T15:34:48.999Z</time></trkpt><trkpt lat="38.12398014574222" lon="-2.596391895933954"><ele>1577.0</ele><time>2026-04-20T15:34:49.999Z</time></trkpt><trkpt lat="38.12407492739776" lon="-2.5963762556022307"><ele>1577.0</ele><time>2026-04-20T15:34:50.999Z</time></trkpt><trkpt lat="38.12417764286892" lon="-2.5963416884505577"><ele>1577.0</ele><time>2026-04-20T15:34:51.999Z</time></trkpt><trkpt lat="38.124288674306506" lon="-2.5962732234766417"><ele>1577.0</ele><time>2026-04-20T15:34:52.999Z</time></trkpt><trkpt lat="38.1243967470329" lon="-2.5961693552885237"><ele>1577.75</ele><time>2026-04-20T15:34:53.999Z</time></trkpt><trkpt lat="38.12450295048541" lon="-2.5960500888470586"><ele>1578.5</ele><time>2026-04-20T15:34:54.999Z</time></trkpt><trkpt lat="38.12460936555418" lon="-2.5959385335846585"><ele>1579.25</ele><time>2026-04-20T15:34:55.999Z</time></trkpt><trkpt lat="38.12471489656812" lon="-2.5958302871821757"><ele>1580.0</ele><time>2026-04-20T15:34:56.999Z</time></trkpt><trkpt lat="38.12482458727814" lon="-2.5957178730363633"><ele>1579.25</ele><time>2026-04-20T15:34:57.999Z</time></trkpt><trkpt lat="38.12493648685863" lon="-2.595602656163878"><ele>1578.5</ele><time>2026-04-20T15:34:58.999Z</time></trkpt><trkpt lat="38.125054873872585" lon="-2.5954885054736923"><ele>1577.75</ele><time>2026-04-20T15:34:59.999Z</time></trkpt><trkpt lat="38.125181478411676" lon="-2.595375669595172"><ele>1577.0</ele><time>2026-04-20T15:35:01Z</time></trkpt><trkpt lat="38.12532612263595" lon="-2.595285807459351"><ele>1577.0</ele><time>2026-04-20T15:35:02Z</time></trkpt><trkpt lat="38.12549136240329" lon="-2.595221480830533"><ele>1577.0</ele><time>2026-04-20T15:35:03Z</time></trkpt><trkpt lat="38.12566863814542" lon="-2.5951858400906733"><ele>1577.0</ele><time>2026-04-20T15:35:04Z</time></trkpt><trkpt lat="38.125855856454606" lon="-2.5951686838706856"><ele>1573.6666666666665</ele><time>2026-04-20T15:35:05Z</time></trkpt><trkpt lat="38.126039322419864" lon="-2.595141455641371"><ele>1570.3333333333335</ele><time>2026-04-20T15:35:06Z</time></trkpt><trkpt lat="38.12621068978801" lon="-2.595108301541413"><ele>1567.0</ele><time>2026-04-20T15:35:07Z</time></trkpt><trkpt lat="38.126366924688384" lon="-2.5950765735441728"><ele>1567.0</ele><time>2026-04-20T15:35:08Z</time></trkpt><trkpt lat="38.12651087673408" lon="-2.5950511659713995"><ele>1567.0</ele><time>2026-04-20T15:35:09Z</time></trkpt><trkpt lat="38.12663952667754" lon="-2.595039282519103"><ele>1567.0</ele><time>2026-04-20T15:35:10Z</time></trkpt><trkpt lat="38.126761552629304" lon="-2.5950559356270926"><ele>1567.0</ele><time>2026-04-20T15:35:11Z</time></trkpt><trkpt lat="38.126875794281226" lon="-2.5951250736975298"><ele>1565.25</ele><time>2026-04-20T15:35:12Z</time></trkpt><trkpt lat="38.12697865000803" lon="-2.5952340441329707"><ele>1563.5</ele><time>2026-04-20T15:35:13Z</time></trkpt><trkpt lat="38.12706770535277" lon="-2.595372191018206"><ele>1561.75</ele><time>2026-04-20T15:35:14Z</time></trkpt><trkpt lat="38.12713118977378" lon="-2.5955312147780187"><ele>1560.0</ele><time>2026-04-20T15:35:15Z</time></trkpt><trkpt lat="38.127153104850876" lon="-2.5957133743883545"><ele>1556.3333333333335</ele><time>2026-04-20T15:35:16Z</time></trkpt><trkpt lat="38.12713695484898" lon="-2.5959069527597265"><ele>1552.6666666666667</ele><time>2026-04-20T15:35:17Z</time></trkpt><trkpt lat="38.12707461165426" lon="-2.5960989389012616"><ele>1549.0</ele><time>2026-04-20T15:35:18Z</time></trkpt><trkpt lat="38.126979041284784" lon="-2.596269871756351"><ele>1549.0</ele><time>2026-04-20T15:35:19Z</time></trkpt><trkpt lat="38.1268615017725" lon="-2.596437646035522"><ele>1549.0</ele><time>2026-04-20T15:35:20Z</time></trkpt><trkpt lat="38.12674066807012" lon="-2.5966050084932375"><ele>1549.0</ele><time>2026-04-20T15:35:21Z</time></trkpt><trkpt lat="38.126624508064324" lon="-2.596790679831898"><ele>1549.3333333333335</ele><time>2026-04-20T15:35:22Z</time></trkpt><trkpt lat="38.126510702113585" lon="-2.5969875977564185"><ele>1549.6666666666665</ele><time>2026-04-20T15:35:23Z</time></trkpt><trkpt lat="38.12639541245428" lon="-2.5971859270069753"><ele>1550.0</ele><time>2026-04-20T15:35:24Z</time></trkpt><trkpt lat="38.126275620114136" lon="-2.5973914824891056"><ele>1550.0</ele><time>2026-04-20T15:35:25Z</time></trkpt><trkpt lat="38.12615162015451" lon="-2.597592310309479"><ele>1550.0</ele><time>2026-04-20T15:35:26Z</time></trkpt><trkpt lat="38.12602677684724" lon="-2.5977961915038272"><ele>1550.0</ele><time>2026-04-20T15:35:27Z</time></trkpt><trkpt lat="38.12590224611866" lon="-2.5980061203234293"><ele>1551.0</ele><time>2026-04-20T15:35:28Z</time></trkpt><trkpt lat="38.125779692437604" lon="-2.5982102291209412"><ele>1552.0</ele><time>2026-04-20T15:35:29Z</time></trkpt><trkpt lat="38.12565469557938" lon="-2.598415035026238"><ele>1553.0</ele><time>2026-04-20T15:35:30Z</time></trkpt><trkpt lat="38.1255274215212" lon="-2.598625111610654"><ele>1553.6666666666665</ele><time>2026-04-20T15:35:31Z</time></trkpt><trkpt lat="38.12539988336894" lon="-2.598835884823477"><ele>1554.3333333333335</ele><time>2026-04-20T15:35:32Z</time></trkpt><trkpt lat="38.12526888660865" lon="-2.599050414203199"><ele>1555.0</ele><time>2026-04-20T15:35:33Z</time></trkpt><trkpt lat="38.12513478497027" lon="-2.5992703674595736"><ele>1555.0</ele><time>2026-04-20T15:35:34Z</time></trkpt><trkpt lat="38.12499914106856" lon="-2.599493944221829"><ele>1555.0</ele><time>2026-04-20T15:35:35Z</time></trkpt><trkpt lat="38.124862033793676" lon="-2.5997192400069835"><ele>1555.0</ele><time>2026-04-20T15:35:36Z</time></trkpt><trkpt lat="38.1247223247836" lon="-2.5999505537580565"><ele>1554.5</ele><time>2026-04-20T15:35:37Z</time></trkpt><trkpt lat="38.124584590438914" lon="-2.6001841676842523"><ele>1554.0</ele><time>2026-04-20T15:35:38Z</time></trkpt><trkpt lat="38.12444365856151" lon="-2.6004160604712787"><ele>1554.0</ele><time>2026-04-20T15:35:39Z</time></trkpt><trkpt lat="38.12430288113775" lon="-2.6006498587237004"><ele>1554.0</ele><time>2026-04-20T15:35:40Z</time></trkpt><trkpt lat="38.12415842155696" lon="-2.6008882171308194"><ele>1553.0</ele><time>2026-04-20T15:35:41Z</time></trkpt><trkpt lat="38.124010534394145" lon="-2.6011280912122303"><ele>1552.0</ele><time>2026-04-20T15:35:42Z</time></trkpt><trkpt lat="38.12386399861665" lon="-2.6013668538610895"><ele>1552.0</ele><time>2026-04-20T15:35:43Z</time></trkpt><trkpt lat="38.123724200095026" lon="-2.601605094168852"><ele>1552.0</ele><time>2026-04-20T15:35:44Z</time></trkpt><trkpt lat="38.123580128319496" lon="-2.601840718954288"><ele>1552.5</ele><time>2026-04-20T15:35:45Z</time></trkpt><trkpt lat="38.123434545603196" lon="-2.6020755800137843"><ele>1553.0</ele><time>2026-04-20T15:35:45.999Z</time></trkpt><trkpt lat="38.12329164827158" lon="-2.6023147340733"><ele>1553.0</ele><time>2026-04-20T15:35:46.999Z</time></trkpt><trkpt lat="38.1231486087188" lon="-2.6025544369658826"><ele>1553.0</ele><time>2026-04-20T15:35:47.999Z</time></trkpt><trkpt lat="38.12300609551699" lon="-2.6027880026767813"><ele>1552.5</ele><time>2026-04-20T15:35:48.999Z</time></trkpt><trkpt lat="38.12286309064148" lon="-2.6030213018192723"><ele>1552.0</ele><time>2026-04-20T15:35:49.999Z</time></trkpt><trkpt lat="38.122721358538975" lon="-2.6032536917635456"><ele>1552.0</ele><time>2026-04-20T15:35:50.999Z</time></trkpt><trkpt lat="38.12257907010414" lon="-2.603486625401843"><ele>1552.0</ele><time>2026-04-20T15:35:51.999Z</time></trkpt><trkpt lat="38.12243759325629" lon="-2.6037188421040574"><ele>1553.5</ele><time>2026-04-20T15:35:52.999Z</time></trkpt><trkpt lat="38.1222978471581" lon="-2.603950794065634"><ele>1555.0</ele><time>2026-04-20T15:35:53.999Z</time></trkpt><trkpt lat="38.122156482268515" lon="-2.6041811217328217"><ele>1555.0</ele><time>2026-04-20T15:35:54.999Z</time></trkpt><trkpt lat="38.1220159913279" lon="-2.6044130830387306"><ele>1555.0</ele><time>2026-04-20T15:35:55.999Z</time></trkpt><trkpt lat="38.1218728953939" lon="-2.6046462284134067"><ele>1557.5</ele><time>2026-04-20T15:35:56.999Z</time></trkpt><trkpt lat="38.12173449688343" lon="-2.604877847642349"><ele>1560.0</ele><time>2026-04-20T15:35:57.999Z</time></trkpt><trkpt lat="38.121596270448876" lon="-2.605108672560317"><ele>1559.5</ele><time>2026-04-20T15:35:58.999Z</time></trkpt><trkpt lat="38.12146035339475" lon="-2.605338168682718"><ele>1559.0</ele><time>2026-04-20T15:35:59.999Z</time></trkpt><trkpt lat="38.121324913142296" lon="-2.605565726290256"><ele>1559.0</ele><time>2026-04-20T15:36:00.999Z</time></trkpt><trkpt lat="38.12118839313954" lon="-2.6057879715384216"><ele>1559.0</ele><time>2026-04-20T15:36:01.999Z</time></trkpt><trkpt lat="38.12104945858082" lon="-2.60600790946032"><ele>1559.0</ele><time>2026-04-20T15:36:02.999Z</time></trkpt><trkpt lat="38.1209112785901" lon="-2.606230518571602"><ele>1558.6666666666665</ele><time>2026-04-20T15:36:03.999Z</time></trkpt><trkpt lat="38.12077359632659" lon="-2.6064523375770796"><ele>1558.3333333333335</ele><time>2026-04-20T15:36:04.999Z</time></trkpt><trkpt lat="38.12063949689118" lon="-2.6066742144553112"><ele>1558.0</ele><time>2026-04-20T15:36:05.999Z</time></trkpt><trkpt lat="38.12050430441252" lon="-2.606896553853199"><ele>1560.0</ele><time>2026-04-20T15:36:06.999Z</time></trkpt><trkpt lat="38.120372992898695" lon="-2.6071166369615995"><ele>1562.0</ele><time>2026-04-20T15:36:07.999Z</time></trkpt><trkpt lat="38.12024056317571" lon="-2.6073379186739976"><ele>1564.0</ele><time>2026-04-20T15:36:08.999Z</time></trkpt><trkpt lat="38.12010970079954" lon="-2.6075625484723237"><ele>1564.0</ele><time>2026-04-20T15:36:09.999Z</time></trkpt><trkpt lat="38.119981539194626" lon="-2.607794938602045"><ele>1564.0</ele><time>2026-04-20T15:36:10.999Z</time></trkpt><trkpt lat="38.11986057490991" lon="-2.608028805642373"><ele>1564.0</ele><time>2026-04-20T15:36:11.999Z</time></trkpt><trkpt lat="38.11974380543895" lon="-2.6082693420153977"><ele>1563.6666666666667</ele><time>2026-04-20T15:36:12.999Z</time></trkpt><trkpt lat="38.11962967590198" lon="-2.60851174181741"><ele>1563.3333333333335</ele><time>2026-04-20T15:36:13.999Z</time></trkpt><trkpt lat="38.11951497417714" lon="-2.6087529120327537"><ele>1563.0</ele><time>2026-04-20T15:36:14.999Z</time></trkpt><trkpt lat="38.11939865002105" lon="-2.6089920717503494"><ele>1563.0</ele><time>2026-04-20T15:36:15.999Z</time></trkpt><trkpt lat="38.11928584838781" lon="-2.6092272483367016"><ele>1563.0</ele><time>2026-04-20T15:36:16.999Z</time></trkpt><trkpt lat="38.11917352462811" lon="-2.609463347651612"><ele>1563.0</ele><time>2026-04-20T15:36:17.999Z</time></trkpt><trkpt lat="38.11905929375457" lon="-2.6097037466512503"><ele>1563.3333333333335</ele><time>2026-04-20T15:36:18.999Z</time></trkpt><trkpt lat="38.11894913848776" lon="-2.609940418216817"><ele>1563.6666666666667</ele><time>2026-04-20T15:36:19.999Z</time></trkpt><trkpt lat="38.11883933047588" lon="-2.6101768304216346"><ele>1564.0</ele><time>2026-04-20T15:36:20.999Z</time></trkpt><trkpt lat="38.118729548763554" lon="-2.6104123227272984"><ele>1564.0</ele><time>2026-04-20T15:36:21.999Z</time></trkpt><trkpt lat="38.11861998348146" lon="-2.6106456650330627"><ele>1564.0</ele><time>2026-04-20T15:36:22.999Z</time></trkpt><trkpt lat="38.118508763184764" lon="-2.6108783087706366"><ele>1564.0</ele><time>2026-04-20T15:36:23.999Z</time></trkpt><trkpt lat="38.11839550596814" lon="-2.61110667583773"><ele>1563.6666666666667</ele><time>2026-04-20T15:36:24.999Z</time></trkpt><trkpt lat="38.11828414167428" lon="-2.6113249177083357"><ele>1563.3333333333335</ele><time>2026-04-20T15:36:25.999Z</time></trkpt><trkpt lat="38.118177018007934" lon="-2.6115480987853577"><ele>1563.0</ele><time>2026-04-20T15:36:26.999Z</time></trkpt><trkpt lat="38.118077191033855" lon="-2.6117771161444328"><ele>1562.6666666666665</ele><time>2026-04-20T15:36:27.999Z</time></trkpt><trkpt lat="38.11799237167307" lon="-2.6120167393702927"><ele>1562.3333333333333</ele><time>2026-04-20T15:36:28.999Z</time></trkpt><trkpt lat="38.1179212739985" lon="-2.6122622989528317"><ele>1562.0</ele><time>2026-04-20T15:36:29.999Z</time></trkpt><trkpt lat="38.117872098494075" lon="-2.612515914137841"><ele>1562.0</ele><time>2026-04-20T15:36:30.999Z</time></trkpt><trkpt lat="38.11784085095953" lon="-2.6127719095721824"><ele>1562.0</ele><time>2026-04-20T15:36:31.999Z</time></trkpt><trkpt lat="38.11782852791526" lon="-2.6130307577056087"><ele>1562.0</ele><time>2026-04-20T15:36:32.999Z</time></trkpt><trkpt lat="38.117836263353844" lon="-2.6132885221004143"><ele>1562.3333333333333</ele><time>2026-04-20T15:36:33.999Z</time></trkpt><trkpt lat="38.1178677375293" lon="-2.6135415573831637"><ele>1562.6666666666665</ele><time>2026-04-20T15:36:34.999Z</time></trkpt><trkpt lat="38.11790899615713" lon="-2.613793427963665"><ele>1563.0</ele><time>2026-04-20T15:36:35.999Z</time></trkpt><trkpt lat="38.117951373583324" lon="-2.6140425690323337"><ele>1563.0</ele><time>2026-04-20T15:36:36.999Z</time></trkpt><trkpt lat="38.11799046263569" lon="-2.61429388535677"><ele>1563.0</ele><time>2026-04-20T15:36:37.999Z</time></trkpt><trkpt lat="38.11803120125131" lon="-2.614545138734851"><ele>1563.0</ele><time>2026-04-20T15:36:38.999Z</time></trkpt><trkpt lat="38.1180720104864" lon="-2.6147967361148416"><ele>1563.3333333333335</ele><time>2026-04-20T15:36:39.999Z</time></trkpt><trkpt lat="38.11811340501114" lon="-2.615044935906328"><ele>1563.6666666666667</ele><time>2026-04-20T15:36:40.999Z</time></trkpt><trkpt lat="38.11815114741379" lon="-2.6152959696385367"><ele>1564.0</ele><time>2026-04-20T15:36:41.999Z</time></trkpt><trkpt lat="38.118170822391946" lon="-2.6155465688713915"><ele>1565.0</ele><time>2026-04-20T15:36:42.999Z</time></trkpt><trkpt lat="38.11815252698162" lon="-2.6157988418137066"><ele>1566.0</ele><time>2026-04-20T15:36:43.999Z</time></trkpt><trkpt lat="38.11810201902036" lon="-2.6160507415526593"><ele>1567.0</ele><time>2026-04-20T15:36:44.999Z</time></trkpt><trkpt lat="38.11802989639823" lon="-2.616306849537593"><ele>1567.0</ele><time>2026-04-20T15:36:45.999Z</time></trkpt><trkpt lat="38.117959025461346" lon="-2.616567776473397"><ele>1567.0</ele><time>2026-04-20T15:36:46.999Z</time></trkpt><trkpt lat="38.11789941309113" lon="-2.61682947119522"><ele>1567.0</ele><time>2026-04-20T15:36:47.999Z</time></trkpt><trkpt lat="38.11783981802573" lon="-2.617092201356467"><ele>1568.3333333333335</ele><time>2026-04-20T15:36:48.999Z</time></trkpt><trkpt lat="38.117779802795695" lon="-2.6173504902217437"><ele>1569.6666666666665</ele><time>2026-04-20T15:36:49.999Z</time></trkpt><trkpt lat="38.117720044146154" lon="-2.617606376701258"><ele>1571.0</ele><time>2026-04-20T15:36:50.999Z</time></trkpt><trkpt lat="38.117659575726144" lon="-2.617860781636933"><ele>1572.3333333333333</ele><time>2026-04-20T15:36:51.999Z</time></trkpt><trkpt lat="38.117593743338766" lon="-2.6181122819040836"><ele>1573.6666666666665</ele><time>2026-04-20T15:36:52.999Z</time></trkpt><trkpt lat="38.11752400890092" lon="-2.618359646779719"><ele>1575.0</ele><time>2026-04-20T15:36:53.999Z</time></trkpt><trkpt lat="38.11745002977083" lon="-2.6186022567988725"><ele>1575.3333333333335</ele><time>2026-04-20T15:36:54.999Z</time></trkpt><trkpt lat="38.117367129016195" lon="-2.618840555920119"><ele>1575.6666666666667</ele><time>2026-04-20T15:36:55.999Z</time></trkpt><trkpt lat="38.11727093430204" lon="-2.6190717603470293"><ele>1576.0</ele><time>2026-04-20T15:36:56.999Z</time></trkpt><trkpt lat="38.11716359009631" lon="-2.619301503187811"><ele>1576.6666666666667</ele><time>2026-04-20T15:36:57.999Z</time></trkpt><trkpt lat="38.11704093011119" lon="-2.619521721536714"><ele>1577.3333333333335</ele><time>2026-04-20T15:36:58.999Z</time></trkpt><trkpt lat="38.116902073132906" lon="-2.61973285159207"><ele>1578.0</ele><time>2026-04-20T15:36:59.999Z</time></trkpt><trkpt lat="38.11674940018974" lon="-2.619933986061144"><ele>1578.0</ele><time>2026-04-20T15:37:00.999Z</time></trkpt><trkpt lat="38.11658740427391" lon="-2.620121638491852"><ele>1578.0</ele><time>2026-04-20T15:37:01.999Z</time></trkpt><trkpt lat="38.116455834541014" lon="-2.620341550028165"><ele>1578.0</ele><time>2026-04-20T15:37:02.999Z</time></trkpt><trkpt lat="38.1163016292439" lon="-2.62053847958517"><ele>1580.6666666666665</ele><time>2026-04-20T15:37:03.999Z</time></trkpt><trkpt lat="38.116149107543954" lon="-2.6207343560751775"><ele>1583.3333333333333</ele><time>2026-04-20T15:37:04.999Z</time></trkpt><trkpt lat="38.11599417358124" lon="-2.6209331056955767"><ele>1586.0</ele><time>2026-04-20T15:37:05.999Z</time></trkpt><trkpt lat="38.11583916351771" lon="-2.6211313817289965"><ele>1587.3333333333333</ele><time>2026-04-20T15:37:07Z</time></trkpt><trkpt lat="38.115690198339955" lon="-2.6213262147068197"><ele>1588.6666666666665</ele><time>2026-04-20T15:37:08Z</time></trkpt><trkpt lat="38.115545021385344" lon="-2.6215205375517727"><ele>1590.0</ele><time>2026-04-20T15:37:09Z</time></trkpt><trkpt lat="38.115402104682786" lon="-2.621715222254884"><ele>1590.0</ele><time>2026-04-20T15:37:10Z</time></trkpt><trkpt lat="38.115260979447164" lon="-2.6219098336478304"><ele>1590.0</ele><time>2026-04-20T15:37:11Z</time></trkpt><trkpt lat="38.115124971043784" lon="-2.6221148511090298"><ele>1590.0</ele><time>2026-04-20T15:37:12Z</time></trkpt><trkpt lat="38.1149999593581" lon="-2.6223312523064695"><ele>1593.3333333333335</ele><time>2026-04-20T15:37:13Z</time></trkpt><trkpt lat="38.114884858588866" lon="-2.6225624339510007"><ele>1596.6666666666667</ele><time>2026-04-20T15:37:14Z</time></trkpt><trkpt lat="38.11478045962484" lon="-2.6228008025292757"><ele>1600.0</ele><time>2026-04-20T15:37:15Z</time></trkpt><trkpt lat="38.11469099707484" lon="-2.6230537938816165"><ele>1600.0</ele><time>2026-04-20T15:37:16Z</time></trkpt><trkpt lat="38.11460945751504" lon="-2.623311695228858"><ele>1600.0</ele><time>2026-04-20T15:37:17Z</time></trkpt><trkpt lat="38.11453097448209" lon="-2.623569387227029"><ele>1600.0</ele><time>2026-04-20T15:37:18Z</time></trkpt><trkpt lat="38.11444736618532" lon="-2.6238217074305408"><ele>1599.3333333333335</ele><time>2026-04-20T15:37:19Z</time></trkpt><trkpt lat="38.11434675737875" lon="-2.6240533210750656"><ele>1598.6666666666665</ele><time>2026-04-20T15:37:20Z</time></trkpt><trkpt lat="38.11424206214591" lon="-2.6242792910112036"><ele>1598.0</ele><time>2026-04-20T15:37:21Z</time></trkpt><trkpt lat="38.11410356062243" lon="-2.6244834478735846"><ele>1599.3333333333333</ele><time>2026-04-20T15:37:22Z</time></trkpt><trkpt lat="38.113949179700974" lon="-2.624673288174155"><ele>1600.6666666666665</ele><time>2026-04-20T15:37:23Z</time></trkpt><trkpt lat="38.11376779094754" lon="-2.6248551959427138"><ele>1602.0</ele><time>2026-04-20T15:37:24Z</time></trkpt><trkpt lat="38.11357709043276" lon="-2.6250247295112947"><ele>1602.0</ele><time>2026-04-20T15:37:25Z</time></trkpt><trkpt lat="38.113380018454365" lon="-2.6251886988211646"><ele>1602.0</ele><time>2026-04-20T15:37:26Z</time></trkpt><trkpt lat="38.11318238045509" lon="-2.6253603515624477"><ele>1602.0</ele><time>2026-04-20T15:37:27Z</time></trkpt><trkpt lat="38.112990174490335" lon="-2.6255388207442283"><ele>1602.0</ele><time>2026-04-20T15:37:28Z</time></trkpt><trkpt lat="38.112795704428514" lon="-2.6257137905183243"><ele>1602.0</ele><time>2026-04-20T15:37:29Z</time></trkpt><trkpt lat="38.112599148536454" lon="-2.62588349386378"><ele>1602.0</ele><time>2026-04-20T15:37:30Z</time></trkpt><trkpt lat="38.11240766712155" lon="-2.6260541240378266"><ele>1600.5</ele><time>2026-04-20T15:37:31Z</time></trkpt><trkpt lat="38.11221524158173" lon="-2.6262288433363428"><ele>1599.0</ele><time>2026-04-20T15:37:32Z</time></trkpt><trkpt lat="38.112020308273465" lon="-2.6264030352064744"><ele>1599.0</ele><time>2026-04-20T15:37:33Z</time></trkpt><trkpt lat="38.11182762866696" lon="-2.6265770505335846"><ele>1599.0</ele><time>2026-04-20T15:37:34Z</time></trkpt><trkpt lat="38.111635255062374" lon="-2.6267482654534096"><ele>1600.0</ele><time>2026-04-20T15:37:35Z</time></trkpt><trkpt lat="38.11145679421986" lon="-2.626912339144919"><ele>1601.0</ele><time>2026-04-20T15:37:36Z</time></trkpt><trkpt lat="38.111288810339445" lon="-2.6270659742021336"><ele>1602.0</ele><time>2026-04-20T15:37:37Z</time></trkpt><trkpt lat="38.11112704420524" lon="-2.6272086653953166"><ele>1602.0</ele><time>2026-04-20T15:37:38Z</time></trkpt><trkpt lat="38.11097325561034" lon="-2.627342256111279"><ele>1602.0</ele><time>2026-04-20T15:37:39Z</time></trkpt><trkpt lat="38.110820814139714" lon="-2.627477147443745"><ele>1602.0</ele><time>2026-04-20T15:37:40Z</time></trkpt><trkpt lat="38.11066854901557" lon="-2.6276196062529547"><ele>1601.0</ele><time>2026-04-20T15:37:41Z</time></trkpt><trkpt lat="38.11052426565806" lon="-2.6277766593390166"><ele>1600.0</ele><time>2026-04-20T15:37:42Z</time></trkpt><trkpt lat="38.11039037316592" lon="-2.6279585266312897"><ele>1599.0</ele><time>2026-04-20T15:37:43Z</time></trkpt><trkpt lat="38.110284196918656" lon="-2.628175268250171"><ele>1599.0</ele><time>2026-04-20T15:37:44Z</time></trkpt><trkpt lat="38.110172586599205" lon="-2.6283845188624655"><ele>1599.0</ele><time>2026-04-20T15:37:45Z</time></trkpt><trkpt lat="38.110072528240195" lon="-2.6286047955764205"><ele>1599.0</ele><time>2026-04-20T15:37:46Z</time></trkpt><trkpt lat="38.10997337928156" lon="-2.628830205468796"><ele>1600.0</ele><time>2026-04-20T15:37:47Z</time></trkpt><trkpt lat="38.10986699969268" lon="-2.62905263325746"><ele>1601.0</ele><time>2026-04-20T15:37:48Z</time></trkpt><trkpt lat="38.1097563597333" lon="-2.629274237373989"><ele>1602.0</ele><time>2026-04-20T15:37:49Z</time></trkpt><trkpt lat="38.1096516803002" lon="-2.6294940971751273"><ele>1599.6666666666665</ele><time>2026-04-20T15:37:50Z</time></trkpt><trkpt lat="38.109552505571536" lon="-2.629703782577297"><ele>1597.3333333333333</ele><time>2026-04-20T15:37:51Z</time></trkpt><trkpt lat="38.109458964264476" lon="-2.6299050287323773"><ele>1595.0</ele><time>2026-04-20T15:37:52Z</time></trkpt><trkpt lat="38.10936889311572" lon="-2.630101714999598"><ele>1593.3333333333333</ele><time>2026-04-20T15:37:53Z</time></trkpt><trkpt lat="38.109290303932845" lon="-2.6303097603536165"><ele>1591.6666666666665</ele><time>2026-04-20T15:37:54Z</time></trkpt><trkpt lat="38.109225032684414" lon="-2.630533073915318"><ele>1590.0</ele><time>2026-04-20T15:37:55Z</time></trkpt><trkpt lat="38.10918433199353" lon="-2.630774321550176"><ele>1590.0</ele><time>2026-04-20T15:37:56Z</time></trkpt><trkpt lat="38.10917035012549" lon="-2.630999137453634"><ele>1590.0</ele><time>2026-04-20T15:37:57Z</time></trkpt><trkpt lat="38.10919777363602" lon="-2.6312083633703387"><ele>1590.0</ele><time>2026-04-20T15:37:57.999Z</time></trkpt><trkpt lat="38.109218580828454" lon="-2.631430387419295"><ele>1587.0</ele><time>2026-04-20T15:37:58.999Z</time></trkpt><trkpt lat="38.10927253456056" lon="-2.6316458617664624"><ele>1584.0</ele><time>2026-04-20T15:37:59.999Z</time></trkpt><trkpt lat="38.10932932842788" lon="-2.6318614369959836"><ele>1581.0</ele><time>2026-04-20T15:38:00.999Z</time></trkpt><trkpt lat="38.109390670218765" lon="-2.6320856253226705"><ele>1578.3333333333335</ele><time>2026-04-20T15:38:01.999Z</time></trkpt><trkpt lat="38.10945486013174" lon="-2.63231548976186"><ele>1575.6666666666667</ele><time>2026-04-20T15:38:02.999Z</time></trkpt><trkpt lat="38.10952345441323" lon="-2.6325463476861786"><ele>1573.0</ele><time>2026-04-20T15:38:03.999Z</time></trkpt><trkpt lat="38.109589973151294" lon="-2.632789376096818"><ele>1571.6666666666667</ele><time>2026-04-20T15:38:04.999Z</time></trkpt><trkpt lat="38.109655535100714" lon="-2.633034854751593"><ele>1570.3333333333335</ele><time>2026-04-20T15:38:05.999Z</time></trkpt><trkpt lat="38.10972111998004" lon="-2.633281206597736"><ele>1569.0</ele><time>2026-04-20T15:38:06.999Z</time></trkpt><trkpt lat="38.10978797423244" lon="-2.633534162237295"><ele>1567.6666666666665</ele><time>2026-04-20T15:38:07.999Z</time></trkpt><trkpt lat="38.10985697029389" lon="-2.6337892343742793"><ele>1566.3333333333333</ele><time>2026-04-20T15:38:08.999Z</time></trkpt><trkpt lat="38.109929720841365" lon="-2.6340454449427986"><ele>1565.0</ele><time>2026-04-20T15:38:09.999Z</time></trkpt><trkpt lat="38.110003595759395" lon="-2.634304463880312"><ele>1564.0</ele><time>2026-04-20T15:38:10.999Z</time></trkpt><trkpt lat="38.1100775715239" lon="-2.634558514750824"><ele>1563.0</ele><time>2026-04-20T15:38:11.999Z</time></trkpt><trkpt lat="38.110148321149765" lon="-2.6348105891852573"><ele>1562.0</ele><time>2026-04-20T15:38:12.999Z</time></trkpt><trkpt lat="38.11021774291243" lon="-2.635067590236048"><ele>1561.3333333333333</ele><time>2026-04-20T15:38:13.999Z</time></trkpt><trkpt lat="38.11028895596061" lon="-2.6353287209741896"><ele>1560.6666666666665</ele><time>2026-04-20T15:38:14.999Z</time></trkpt><trkpt lat="38.1103607851735" lon="-2.635589625996603"><ele>1560.0</ele><time>2026-04-20T15:38:15.999Z</time></trkpt><trkpt lat="38.11043556813158" lon="-2.6358526085527036"><ele>1560.0</ele><time>2026-04-20T15:38:16.999Z</time></trkpt><trkpt lat="38.1105099833734" lon="-2.636116357741684"><ele>1560.0</ele><time>2026-04-20T15:38:17.999Z</time></trkpt><trkpt lat="38.11058300981081" lon="-2.636379219117933"><ele>1560.0</ele><time>2026-04-20T15:38:18.999Z</time></trkpt><trkpt lat="38.11065634049369" lon="-2.6366394378832836"><ele>1559.6666666666665</ele><time>2026-04-20T15:38:19.999Z</time></trkpt><trkpt lat="38.11072008183081" lon="-2.63688144922833"><ele>1559.3333333333333</ele><time>2026-04-20T15:38:20.999Z</time></trkpt><trkpt lat="38.11078084485738" lon="-2.637112465767213"><ele>1559.0</ele><time>2026-04-20T15:38:21.999Z</time></trkpt><trkpt lat="38.11083862357904" lon="-2.637333167079005"><ele>1559.6666666666665</ele><time>2026-04-20T15:38:22.999Z</time></trkpt><trkpt lat="38.11088761902176" lon="-2.637553464336197"><ele>1560.3333333333335</ele><time>2026-04-20T15:38:23.999Z</time></trkpt><trkpt lat="38.11091936636205" lon="-2.637784217428499"><ele>1561.0</ele><time>2026-04-20T15:38:24.999Z</time></trkpt><trkpt lat="38.110947267999315" lon="-2.638017732909394"><ele>1562.6666666666667</ele><time>2026-04-20T15:38:25.999Z</time></trkpt><trkpt lat="38.1109921761116" lon="-2.638245345072306"><ele>1564.3333333333335</ele><time>2026-04-20T15:38:26.999Z</time></trkpt><trkpt lat="38.11106801524819" lon="-2.638463613614047"><ele>1566.0</ele><time>2026-04-20T15:38:27.999Z</time></trkpt><trkpt lat="38.11117179694746" lon="-2.6386812985211963"><ele>1569.0</ele><time>2026-04-20T15:38:28.999Z</time></trkpt><trkpt lat="38.11129293887054" lon="-2.638884878621843"><ele>1572.0</ele><time>2026-04-20T15:38:29.999Z</time></trkpt><trkpt lat="38.11141125385357" lon="-2.639102709448274"><ele>1575.0</ele><time>2026-04-20T15:38:30.999Z</time></trkpt><trkpt lat="38.11150886501408" lon="-2.6393395327448803"><ele>1567.6666666666665</ele><time>2026-04-20T15:38:31.999Z</time></trkpt><trkpt lat="38.111587405221265" lon="-2.6395914439184773"><ele>1560.3333333333333</ele><time>2026-04-20T15:38:32.999Z</time></trkpt><trkpt lat="38.111645735449585" lon="-2.639850404834259"><ele>1553.0</ele><time>2026-04-20T15:38:33.999Z</time></trkpt><trkpt lat="38.11168205373483" lon="-2.640108669268927"><ele>1553.0</ele><time>2026-04-20T15:38:34.999Z</time></trkpt><trkpt lat="38.111693967488826" lon="-2.6403531390638943"><ele>1553.0</ele><time>2026-04-20T15:38:35.999Z</time></trkpt><trkpt lat="38.11170058440477" lon="-2.6405726179709577"><ele>1553.0</ele><time>2026-04-20T15:38:36.999Z</time></trkpt><trkpt lat="38.11171583521172" lon="-2.6407759054566586"><ele>1553.0</ele><time>2026-04-20T15:38:37.999Z</time></trkpt><trkpt lat="38.11174748204113" lon="-2.6409677656898007"><ele>1553.0</ele><time>2026-04-20T15:38:38.999Z</time></trkpt><trkpt lat="38.11182641915445" lon="-2.641128279244879"><ele>1553.0</ele><time>2026-04-20T15:38:39.999Z</time></trkpt><trkpt lat="38.111928408450225" lon="-2.641281113893578"><ele>1554.6666666666665</ele><time>2026-04-20T15:38:40.999Z</time></trkpt><trkpt lat="38.11201987427083" lon="-2.6414772828434248"><ele>1556.3333333333335</ele><time>2026-04-20T15:38:41.999Z</time></trkpt><trkpt lat="38.11211287041788" lon="-2.641682380222783"><ele>1558.0</ele><time>2026-04-20T15:38:42.999Z</time></trkpt><trkpt lat="38.112206059113966" lon="-2.6419047615566553"><ele>1557.3333333333335</ele><time>2026-04-20T15:38:43.999Z</time></trkpt><trkpt lat="38.11229300039995" lon="-2.642109134540275"><ele>1556.6666666666665</ele><time>2026-04-20T15:38:44.999Z</time></trkpt><trkpt lat="38.112386516305484" lon="-2.6422895538934363"><ele>1556.0</ele><time>2026-04-20T15:38:45.999Z</time></trkpt><trkpt lat="38.11252522030559" lon="-2.642418710610645"><ele>1552.3333333333333</ele><time>2026-04-20T15:38:46.999Z</time></trkpt><trkpt lat="38.11265747964242" lon="-2.6426101787430434"><ele>1548.6666666666665</ele><time>2026-04-20T15:38:47.999Z</time></trkpt><trkpt lat="38.112779380706684" lon="-2.6427882142193853"><ele>1545.0</ele><time>2026-04-20T15:38:48.999Z</time></trkpt><trkpt lat="38.112882569482984" lon="-2.642988674403916"><ele>1545.0</ele><time>2026-04-20T15:38:49.999Z</time></trkpt><trkpt lat="38.11298328643279" lon="-2.6431900346244412"><ele>1545.0</ele><time>2026-04-20T15:38:50.999Z</time></trkpt><trkpt lat="38.11311948124394" lon="-2.6433360335549034"><ele>1545.0</ele><time>2026-04-20T15:38:51.999Z</time></trkpt><trkpt lat="38.11328218503298" lon="-2.6434659618226233"><ele>1545.6666666666665</ele><time>2026-04-20T15:38:52.999Z</time></trkpt><trkpt lat="38.113456227952014" lon="-2.643602172489888"><ele>1546.3333333333333</ele><time>2026-04-20T15:38:53.999Z</time></trkpt><trkpt lat="38.11363155405489" lon="-2.6437068646043502"><ele>1547.0</ele><time>2026-04-20T15:38:54.999Z</time></trkpt><trkpt lat="38.113789775018766" lon="-2.643803442080494"><ele>1547.0</ele><time>2026-04-20T15:38:55.999Z</time></trkpt><trkpt lat="38.11391684511336" lon="-2.6439235187758414"><ele>1547.0</ele><time>2026-04-20T15:38:56.999Z</time></trkpt><trkpt lat="38.11402949883886" lon="-2.6440815555129467"><ele>1547.0</ele><time>2026-04-20T15:38:57.999Z</time></trkpt><trkpt lat="38.1141284798171" lon="-2.6442703468174975"><ele>1542.0</ele><time>2026-04-20T15:38:58.999Z</time></trkpt><trkpt lat="38.11420955575918" lon="-2.6444750031613067"><ele>1537.0</ele><time>2026-04-20T15:38:59.999Z</time></trkpt><trkpt lat="38.11427038393463" lon="-2.6446833638922778"><ele>1532.0</ele><time>2026-04-20T15:39:00.999Z</time></trkpt><trkpt lat="38.11429760517901" lon="-2.6448742757532506"><ele>1532.0</ele><time>2026-04-20T15:39:01.999Z</time></trkpt><trkpt lat="38.114289635743795" lon="-2.645061071026114"><ele>1532.0</ele><time>2026-04-20T15:39:02.999Z</time></trkpt><trkpt lat="38.11424678439517" lon="-2.645266419640121"><ele>1532.0</ele><time>2026-04-20T15:39:03.999Z</time></trkpt><trkpt lat="38.11419933040126" lon="-2.6455054486318437"><ele>1532.0</ele><time>2026-04-20T15:39:04.999Z</time></trkpt><trkpt lat="38.114185206031664" lon="-2.645719814185834"><ele>1532.0</ele><time>2026-04-20T15:39:05.999Z</time></trkpt><trkpt lat="38.114174639009356" lon="-2.6459180423140936"><ele>1532.0</ele><time>2026-04-20T15:39:06.999Z</time></trkpt><trkpt lat="38.11421086131408" lon="-2.646111953941747"><ele>1531.6666666666667</ele><time>2026-04-20T15:39:07.999Z</time></trkpt><trkpt lat="38.11427086168702" lon="-2.646324310157121"><ele>1531.3333333333333</ele><time>2026-04-20T15:39:08.999Z</time></trkpt><trkpt lat="38.114336368694445" lon="-2.6465498847879645"><ele>1531.0</ele><time>2026-04-20T15:39:09.999Z</time></trkpt><trkpt lat="38.11439266261268" lon="-2.6467777322776405"><ele>1529.3333333333333</ele><time>2026-04-20T15:39:10.999Z</time></trkpt><trkpt lat="38.1144484690262" lon="-2.6470036067735774"><ele>1527.6666666666667</ele><time>2026-04-20T15:39:11.999Z</time></trkpt><trkpt lat="38.11438455005555" lon="-2.6472788911555973"><ele>1526.0</ele><time>2026-04-20T15:39:13Z</time></trkpt><trkpt lat="38.1143826876692" lon="-2.6475112280786233"><ele>1526.0</ele><time>2026-04-20T15:39:14Z</time></trkpt><trkpt lat="38.11437799441393" lon="-2.647719194910664"><ele>1526.0</ele><time>2026-04-20T15:39:15Z</time></trkpt><trkpt lat="38.114348689185746" lon="-2.6479077048354775"><ele>1526.0</ele><time>2026-04-20T15:39:16Z</time></trkpt><trkpt lat="38.11428398118273" lon="-2.648099766515674"><ele>1527.0</ele><time>2026-04-20T15:39:17Z</time></trkpt><trkpt lat="38.11418477208779" lon="-2.648279632387778"><ele>1528.0</ele><time>2026-04-20T15:39:18Z</time></trkpt><trkpt lat="38.11405136263245" lon="-2.648448447275207"><ele>1529.0</ele><time>2026-04-20T15:39:19Z</time></trkpt><trkpt lat="38.113892914134944" lon="-2.6485891538729227"><ele>1527.0</ele><time>2026-04-20T15:39:20Z</time></trkpt><trkpt lat="38.1137249096849" lon="-2.64872420908352"><ele>1525.0</ele><time>2026-04-20T15:39:21Z</time></trkpt><trkpt lat="38.11355776414878" lon="-2.6488621445185783"><ele>1523.0</ele><time>2026-04-20T15:39:22Z</time></trkpt><trkpt lat="38.11339564295184" lon="-2.649004270233134"><ele>1520.0</ele><time>2026-04-20T15:39:23Z</time></trkpt><trkpt lat="38.11323353186643" lon="-2.6491492783141664"><ele>1517.0</ele><time>2026-04-20T15:39:24Z</time></trkpt><trkpt lat="38.11307133554492" lon="-2.649286824559802"><ele>1514.0</ele><time>2026-04-20T15:39:25Z</time></trkpt><trkpt lat="38.11291838724743" lon="-2.649424313259953"><ele>1514.3333333333335</ele><time>2026-04-20T15:39:26Z</time></trkpt><trkpt lat="38.11276596582876" lon="-2.649567826304223"><ele>1514.6666666666667</ele><time>2026-04-20T15:39:27Z</time></trkpt><trkpt lat="38.11261702284167" lon="-2.6497323894177662"><ele>1515.0</ele><time>2026-04-20T15:39:28Z</time></trkpt><trkpt lat="38.112477155381605" lon="-2.649925040527443"><ele>1513.6666666666667</ele><time>2026-04-20T15:39:29Z</time></trkpt><trkpt lat="38.112344793719025" lon="-2.6501282588787265"><ele>1512.3333333333335</ele><time>2026-04-20T15:39:30Z</time></trkpt><trkpt lat="38.112228238695785" lon="-2.6503378003304214"><ele>1511.0</ele><time>2026-04-20T15:39:31Z</time></trkpt><trkpt lat="38.11212598580333" lon="-2.650565096911733"><ele>1508.0</ele><time>2026-04-20T15:39:32Z</time></trkpt><trkpt lat="38.112031415570875" lon="-2.650807306898512"><ele>1505.0</ele><time>2026-04-20T15:39:33Z</time></trkpt><trkpt lat="38.1119418657545" lon="-2.6510574686740114"><ele>1502.0</ele><time>2026-04-20T15:39:34Z</time></trkpt><trkpt lat="38.11185399438201" lon="-2.6513112783874715"><ele>1502.6666666666667</ele><time>2026-04-20T15:39:35Z</time></trkpt><trkpt lat="38.1117611634307" lon="-2.651552250008778"><ele>1503.3333333333333</ele><time>2026-04-20T15:39:36Z</time></trkpt><trkpt lat="38.111672835674675" lon="-2.6517811850611626"><ele>1504.0</ele><time>2026-04-20T15:39:37Z</time></trkpt><trkpt lat="38.11158565940396" lon="-2.6520064964237715"><ele>1497.6666666666665</ele><time>2026-04-20T15:39:38Z</time></trkpt><trkpt lat="38.11150204633113" lon="-2.6522266689435128"><ele>1491.3333333333333</ele><time>2026-04-20T15:39:39Z</time></trkpt><trkpt lat="38.11141587853591" lon="-2.6524420119767056"><ele>1485.0</ele><time>2026-04-20T15:39:40Z</time></trkpt><trkpt lat="38.111326790304815" lon="-2.6526454252103084"><ele>1485.6666666666667</ele><time>2026-04-20T15:39:41Z</time></trkpt><trkpt lat="38.11122476155551" lon="-2.6528411270738195"><ele>1486.3333333333335</ele><time>2026-04-20T15:39:42Z</time></trkpt><trkpt lat="38.11110112210236" lon="-2.6530199441266573"><ele>1487.0</ele><time>2026-04-20T15:39:43Z</time></trkpt><trkpt lat="38.11096019063004" lon="-2.653160118274567"><ele>1487.0</ele><time>2026-04-20T15:39:44Z</time></trkpt><trkpt lat="38.11082251135176" lon="-2.653290889175088"><ele>1487.0</ele><time>2026-04-20T15:39:45Z</time></trkpt><trkpt lat="38.11070325360153" lon="-2.6534662386537193"><ele>1487.0</ele><time>2026-04-20T15:39:46Z</time></trkpt><trkpt lat="38.11061568292321" lon="-2.653682685348399"><ele>1482.0</ele><time>2026-04-20T15:39:47Z</time></trkpt><trkpt lat="38.11053624024368" lon="-2.6538994809211096"><ele>1477.0</ele><time>2026-04-20T15:39:48Z</time></trkpt><trkpt lat="38.110462124441185" lon="-2.6541039066545236"><ele>1472.0</ele><time>2026-04-20T15:39:49Z</time></trkpt><trkpt lat="38.11041072115109" lon="-2.654312420316135"><ele>1470.6666666666667</ele><time>2026-04-20T15:39:50Z</time></trkpt><trkpt lat="38.110375506457004" lon="-2.6545267411197178"><ele>1469.3333333333333</ele><time>2026-04-20T15:39:51Z</time></trkpt><trkpt lat="38.11037238548016" lon="-2.6547577730263923"><ele>1468.0</ele><time>2026-04-20T15:39:52Z</time></trkpt><trkpt lat="38.110402255979324" lon="-2.6549953125772223"><ele>1468.0</ele><time>2026-04-20T15:39:53Z</time></trkpt><trkpt lat="38.11045991428365" lon="-2.6552289253573442"><ele>1468.0</ele><time>2026-04-20T15:39:54Z</time></trkpt><trkpt lat="38.11054397402654" lon="-2.655457023155651"><ele>1468.0</ele><time>2026-04-20T15:39:55Z</time></trkpt><trkpt lat="38.1106528622445" lon="-2.6556643592295197"><ele>1468.3333333333333</ele><time>2026-04-20T15:39:56Z</time></trkpt><trkpt lat="38.110787304481235" lon="-2.655852476187242"><ele>1468.6666666666667</ele><time>2026-04-20T15:39:57Z</time></trkpt><trkpt lat="38.110938367685314" lon="-2.656017907347675"><ele>1469.0</ele><time>2026-04-20T15:39:58Z</time></trkpt><trkpt lat="38.11111716129312" lon="-2.6561731488661384"><ele>1467.0</ele><time>2026-04-20T15:39:59Z</time></trkpt><trkpt lat="38.11130044965566" lon="-2.656322296469519"><ele>1465.0</ele><time>2026-04-20T15:40:00Z</time></trkpt><trkpt lat="38.11147654342833" lon="-2.656474539529009"><ele>1463.0</ele><time>2026-04-20T15:40:01Z</time></trkpt><trkpt lat="38.11165367687761" lon="-2.656628591511778"><ele>1463.0</ele><time>2026-04-20T15:40:02Z</time></trkpt><trkpt lat="38.11182693646911" lon="-2.656778100213562"><ele>1463.0</ele><time>2026-04-20T15:40:03Z</time></trkpt><trkpt lat="38.11199497854479" lon="-2.6569223949155294"><ele>1463.0</ele><time>2026-04-20T15:40:04Z</time></trkpt><trkpt lat="38.11215426924531" lon="-2.657058167012634"><ele>1462.6666666666667</ele><time>2026-04-20T15:40:05Z</time></trkpt><trkpt lat="38.11231597550141" lon="-2.6571894291772487"><ele>1462.3333333333333</ele><time>2026-04-20T15:40:06Z</time></trkpt><trkpt lat="38.11249010646364" lon="-2.6573048293298753"><ele>1462.0</ele><time>2026-04-20T15:40:07Z</time></trkpt><trkpt lat="38.112675803846024" lon="-2.657406490188298"><ele>1459.6666666666665</ele><time>2026-04-20T15:40:08Z</time></trkpt><trkpt lat="38.11287313450528" lon="-2.657486233044137"><ele>1457.3333333333333</ele><time>2026-04-20T15:40:09Z</time></trkpt><trkpt lat="38.113075814641576" lon="-2.657564384553419"><ele>1455.0</ele><time>2026-04-20T15:40:10Z</time></trkpt><trkpt lat="38.11327922807849" lon="-2.6576467619923347"><ele>1455.0</ele><time>2026-04-20T15:40:11Z</time></trkpt><trkpt lat="38.113487976926535" lon="-2.657722388191236"><ele>1455.0</ele><time>2026-04-20T15:40:12Z</time></trkpt><trkpt lat="38.113696421883446" lon="-2.657815637016492"><ele>1455.0</ele><time>2026-04-20T15:40:13Z</time></trkpt><trkpt lat="38.113903973279406" lon="-2.6579050360720164"><ele>1449.3333333333333</ele><time>2026-04-20T15:40:14Z</time></trkpt><trkpt lat="38.114106250274986" lon="-2.6579882492882585"><ele>1443.6666666666665</ele><time>2026-04-20T15:40:15Z</time></trkpt><trkpt lat="38.11430546928157" lon="-2.6580631452251495"><ele>1438.0</ele><time>2026-04-20T15:40:16Z</time></trkpt><trkpt lat="38.11448502966263" lon="-2.6581344394796638"><ele>1438.0</ele><time>2026-04-20T15:40:17Z</time></trkpt><trkpt lat="38.11465562974016" lon="-2.6581943011882667"><ele>1438.0</ele><time>2026-04-20T15:40:18Z</time></trkpt><trkpt lat="38.114827293366794" lon="-2.6582116791568846"><ele>1438.0</ele><time>2026-04-20T15:40:19Z</time></trkpt><trkpt lat="38.11500552538844" lon="-2.6581769741896872"><ele>1438.5</ele><time>2026-04-20T15:40:20Z</time></trkpt><trkpt lat="38.115166402031036" lon="-2.6581142442920287"><ele>1439.0</ele><time>2026-04-20T15:40:20.999Z</time></trkpt><trkpt lat="38.11530649553803" lon="-2.6580769603619254"><ele>1439.5</ele><time>2026-04-20T15:40:21.999Z</time></trkpt><trkpt lat="38.115439244383516" lon="-2.65808299037771"><ele>1440.0</ele><time>2026-04-20T15:40:22.999Z</time></trkpt><trkpt lat="38.11556023090079" lon="-2.6581311683953284"><ele>1440.0</ele><time>2026-04-20T15:40:23.999Z</time></trkpt><trkpt lat="38.11567938965091" lon="-2.6582429218584105"><ele>1440.0</ele><time>2026-04-20T15:40:24.999Z</time></trkpt><trkpt lat="38.11579187438161" lon="-2.6583810507460632"><ele>1440.0</ele><time>2026-04-20T15:40:25.999Z</time></trkpt><trkpt lat="38.11591409343781" lon="-2.658507308907013"><ele>1439.3333333333333</ele><time>2026-04-20T15:40:26.999Z</time></trkpt><trkpt lat="38.11598423844113" lon="-2.6587411733115145"><ele>1438.6666666666665</ele><time>2026-04-20T15:40:27.999Z</time></trkpt><trkpt lat="38.116076273071464" lon="-2.658992604908417"><ele>1438.0</ele><time>2026-04-20T15:40:28.999Z</time></trkpt><trkpt lat="38.11615936286933" lon="-2.6592425866271547"><ele>1440.3333333333333</ele><time>2026-04-20T15:40:29.999Z</time></trkpt><trkpt lat="38.116248983564134" lon="-2.659498464992045"><ele>1442.6666666666667</ele><time>2026-04-20T15:40:30.999Z</time></trkpt><trkpt lat="38.11632964475414" lon="-2.6597292169771043"><ele>1445.0</ele><time>2026-04-20T15:40:31.999Z</time></trkpt><trkpt lat="38.11640993517748" lon="-2.659933090195204"><ele>1445.0</ele><time>2026-04-20T15:40:32.999Z</time></trkpt><trkpt lat="38.116485931959964" lon="-2.660116679230461"><ele>1445.0</ele><time>2026-04-20T15:40:33.999Z</time></trkpt><trkpt lat="38.11655520411385" lon="-2.6602856198206664"><ele>1445.0</ele><time>2026-04-20T15:40:34.999Z</time></trkpt><trkpt lat="38.11660298884252" lon="-2.6604499151548624"><ele>1444.6666666666667</ele><time>2026-04-20T15:40:35.999Z</time></trkpt><trkpt lat="38.1166161960525" lon="-2.6606338808619117"><ele>1444.3333333333333</ele><time>2026-04-20T15:40:36.999Z</time></trkpt><trkpt lat="38.11657708342422" lon="-2.6608205923902863"><ele>1444.0</ele><time>2026-04-20T15:40:37.999Z</time></trkpt><trkpt lat="38.11649979860911" lon="-2.6610167485625698"><ele>1441.6666666666665</ele><time>2026-04-20T15:40:38.999Z</time></trkpt><trkpt lat="38.11640631558525" lon="-2.6612224155011663"><ele>1439.3333333333333</ele><time>2026-04-20T15:40:39.999Z</time></trkpt><trkpt lat="38.11630867772929" lon="-2.6614379997344435"><ele>1437.0</ele><time>2026-04-20T15:40:40.999Z</time></trkpt><trkpt lat="38.11621853002877" lon="-2.66164773064898"><ele>1437.0</ele><time>2026-04-20T15:40:41.999Z</time></trkpt><trkpt lat="38.11614118698099" lon="-2.661845312575528"><ele>1437.0</ele><time>2026-04-20T15:40:42.999Z</time></trkpt><trkpt lat="38.116086009453404" lon="-2.662056906673728"><ele>1437.0</ele><time>2026-04-20T15:40:43.999Z</time></trkpt><trkpt lat="38.11606826099073" lon="-2.662298043995208"><ele>1433.3333333333333</ele><time>2026-04-20T15:40:44.999Z</time></trkpt><trkpt lat="38.11608639882426" lon="-2.662551540348009"><ele>1429.6666666666665</ele><time>2026-04-20T15:40:45.999Z</time></trkpt><trkpt lat="38.11610598650616" lon="-2.6628096746599885"><ele>1426.0</ele><time>2026-04-20T15:40:46.999Z</time></trkpt><trkpt lat="38.11610990073681" lon="-2.663063687706633"><ele>1422.6666666666665</ele><time>2026-04-20T15:40:47.999Z</time></trkpt><trkpt lat="38.116084779678445" lon="-2.6632863709904764"><ele>1419.3333333333333</ele><time>2026-04-20T15:40:48.999Z</time></trkpt><trkpt lat="38.11605163896157" lon="-2.6635059663989944"><ele>1416.0</ele><time>2026-04-20T15:40:49.999Z</time></trkpt><trkpt lat="38.11601977358232" lon="-2.6637176202583532"><ele>1415.0</ele><time>2026-04-20T15:40:50.999Z</time></trkpt><trkpt lat="38.11601940016074" lon="-2.6639369840288447"><ele>1414.0</ele><time>2026-04-20T15:40:51.999Z</time></trkpt><trkpt lat="38.11606879716829" lon="-2.664163536515614"><ele>1413.0</ele><time>2026-04-20T15:40:52.999Z</time></trkpt><trkpt lat="38.11613529196271" lon="-2.6643871241117614"><ele>1414.6666666666667</ele><time>2026-04-20T15:40:53.999Z</time></trkpt><trkpt lat="38.116166908071904" lon="-2.6646290326103914"><ele>1416.3333333333335</ele><time>2026-04-20T15:40:54.999Z</time></trkpt><trkpt lat="38.116167282612004" lon="-2.664891683276264"><ele>1418.0</ele><time>2026-04-20T15:40:55.999Z</time></trkpt><trkpt lat="38.116167498265185" lon="-2.665145443717169"><ele>1413.6666666666667</ele><time>2026-04-20T15:40:56.999Z</time></trkpt><trkpt lat="38.11617044414915" lon="-2.665381161441198"><ele>1409.3333333333333</ele><time>2026-04-20T15:40:57.999Z</time></trkpt><trkpt lat="38.116154888594494" lon="-2.6656102815904004"><ele>1405.0</ele><time>2026-04-20T15:40:58.999Z</time></trkpt><trkpt lat="38.116105725445934" lon="-2.6658396974398326"><ele>1405.0</ele><time>2026-04-20T15:40:59.999Z</time></trkpt><trkpt lat="38.11603556188614" lon="-2.666047840239872"><ele>1405.0</ele><time>2026-04-20T15:41:00.999Z</time></trkpt><trkpt lat="38.11596031321878" lon="-2.6662389758269653"><ele>1405.0</ele><time>2026-04-20T15:41:01.999Z</time></trkpt><trkpt lat="38.11590473856288" lon="-2.666405214785311"><ele>1401.6</ele><time>2026-04-20T15:41:02.999Z</time></trkpt><trkpt lat="38.115876107251765" lon="-2.666551805692696"><ele>1398.2</ele><time>2026-04-20T15:41:03.999Z</time></trkpt><trkpt lat="38.11589272386064" lon="-2.6666759953184838"><ele>1394.8000000000002</ele><time>2026-04-20T15:41:04.999Z</time></trkpt><trkpt lat="38.115954538393204" lon="-2.6667617284876775"><ele>1391.4</ele><time>2026-04-20T15:41:05.999Z</time></trkpt><trkpt lat="38.116065689293556" lon="-2.6667993731133253"><ele>1388.0</ele><time>2026-04-20T15:41:06.999Z</time></trkpt><trkpt lat="38.11619550153808" lon="-2.6667873296960902"><ele>1388.0</ele><time>2026-04-20T15:41:07.999Z</time></trkpt><trkpt lat="38.116318801272946" lon="-2.6667128747683466"><ele>1388.0</ele><time>2026-04-20T15:41:08.999Z</time></trkpt><trkpt lat="38.11641992859229" lon="-2.666585843525499"><ele>1388.0</ele><time>2026-04-20T15:41:09.999Z</time></trkpt><trkpt lat="38.11648061873022" lon="-2.6664108256276586"><ele>1388.0</ele><time>2026-04-20T15:41:10.999Z</time></trkpt><trkpt lat="38.11651147962908" lon="-2.666193589249235"><ele>1383.6666666666667</ele><time>2026-04-20T15:41:11.999Z</time></trkpt><trkpt lat="38.11654543428396" lon="-2.665949702088734"><ele>1379.3333333333333</ele><time>2026-04-20T15:41:12.999Z</time></trkpt><trkpt lat="38.116572418851106" lon="-2.665693585137393"><ele>1375.0</ele><time>2026-04-20T15:41:13.999Z</time></trkpt><trkpt lat="38.1165895622024" lon="-2.6654126809876115"><ele>1376.0</ele><time>2026-04-20T15:41:14.999Z</time></trkpt><trkpt lat="38.11660770368946" lon="-2.6651208668314244"><ele>1377.0</ele><time>2026-04-20T15:41:15.999Z</time></trkpt><trkpt lat="38.116625766590424" lon="-2.6648221830878587"><ele>1377.0</ele><time>2026-04-20T15:41:16.999Z</time></trkpt><trkpt lat="38.11664204589396" lon="-2.6645091473625415"><ele>1377.0</ele><time>2026-04-20T15:41:17.999Z</time></trkpt><trkpt lat="38.116652930593155" lon="-2.664228280403405"><ele>1376.3333333333333</ele><time>2026-04-20T15:41:19Z</time></trkpt><trkpt lat="38.11665182740224" lon="-2.6639700788503475"><ele>1375.6666666666665</ele><time>2026-04-20T15:41:20Z</time></trkpt><trkpt lat="38.116628917354625" lon="-2.6637391998498776"><ele>1375.0</ele><time>2026-04-20T15:41:21Z</time></trkpt><trkpt lat="38.11660614367094" lon="-2.663531310572999"><ele>1376.6666666666665</ele><time>2026-04-20T15:41:22Z</time></trkpt><trkpt lat="38.11662664831462" lon="-2.6633130650398016"><ele>1378.3333333333333</ele><time>2026-04-20T15:41:23Z</time></trkpt><trkpt lat="38.11668046879566" lon="-2.663104169922772"><ele>1380.0</ele><time>2026-04-20T15:41:24Z</time></trkpt><trkpt lat="38.1167503629958" lon="-2.662918469665906"><ele>1383.6666666666667</ele><time>2026-04-20T15:41:25Z</time></trkpt><trkpt lat="38.116837094862994" lon="-2.6627746100446736"><ele>1387.3333333333335</ele><time>2026-04-20T15:41:26Z</time></trkpt><trkpt lat="38.11696769859268" lon="-2.662642714326382"><ele>1391.0</ele><time>2026-04-20T15:41:27Z</time></trkpt><trkpt lat="38.117135195179706" lon="-2.6625224526374693"><ele>1391.0</ele><time>2026-04-20T15:41:28Z</time></trkpt><trkpt lat="38.11731005066632" lon="-2.662419157702088"><ele>1391.0</ele><time>2026-04-20T15:41:29Z</time></trkpt><trkpt lat="38.11750165087362" lon="-2.66235012025063"><ele>1391.0</ele><time>2026-04-20T15:41:30Z</time></trkpt><trkpt lat="38.11770037445695" lon="-2.662325669380115"><ele>1387.5</ele><time>2026-04-20T15:41:31Z</time></trkpt><trkpt lat="38.11787932251377" lon="-2.6623264415060066"><ele>1384.0</ele><time>2026-04-20T15:41:32Z</time></trkpt><trkpt lat="38.11802360389829" lon="-2.662346867586697"><ele>1380.5</ele><time>2026-04-20T15:41:33Z</time></trkpt><trkpt lat="38.118135379577325" lon="-2.6623939108050205"><ele>1377.0</ele><time>2026-04-20T15:41:34Z</time></trkpt><trkpt lat="38.11822349093022" lon="-2.6624750645685284"><ele>1374.5</ele><time>2026-04-20T15:41:35Z</time></trkpt><trkpt lat="38.11828347595867" lon="-2.662587425127007"><ele>1372.0</ele><time>2026-04-20T15:41:36Z</time></trkpt><trkpt lat="38.11830505229724" lon="-2.6627321736882106"><ele>1369.5</ele><time>2026-04-20T15:41:37Z</time></trkpt><trkpt lat="38.11827622963859" lon="-2.6628872677005884"><ele>1367.0</ele><time>2026-04-20T15:41:38Z</time></trkpt><trkpt lat="38.1181855965545" lon="-2.6630276253600393"><ele>1365.6666666666667</ele><time>2026-04-20T15:41:39Z</time></trkpt><trkpt lat="38.11805954658414" lon="-2.663137744365438"><ele>1364.3333333333333</ele><time>2026-04-20T15:41:40Z</time></trkpt><trkpt lat="38.11789856543341" lon="-2.6632350706114116"><ele>1363.0</ele><time>2026-04-20T15:41:41Z</time></trkpt><trkpt lat="38.11771829317196" lon="-2.663342870930565"><ele>1363.0</ele><time>2026-04-20T15:41:42Z</time></trkpt><trkpt lat="38.117561599709724" lon="-2.6634455717182117"><ele>1363.0</ele><time>2026-04-20T15:41:43Z</time></trkpt><trkpt lat="38.11743236146542" lon="-2.6635529621696357"><ele>1363.0</ele><time>2026-04-20T15:41:44Z</time></trkpt><trkpt lat="38.11734454116341" lon="-2.6637053041536936"><ele>1367.0</ele><time>2026-04-20T15:41:45Z</time></trkpt><trkpt lat="38.117294762191094" lon="-2.6638705692466704"><ele>1371.0</ele><time>2026-04-20T15:41:46Z</time></trkpt><trkpt lat="38.1172906406252" lon="-2.6640642261865306"><ele>1375.0</ele><time>2026-04-20T15:41:47Z</time></trkpt><trkpt lat="38.11732533457232" lon="-2.6642786223539736"><ele>1375.6666666666665</ele><time>2026-04-20T15:41:48Z</time></trkpt><trkpt lat="38.11739260775471" lon="-2.664518748259665"><ele>1376.3333333333333</ele><time>2026-04-20T15:41:49Z</time></trkpt><trkpt lat="38.11746561088304" lon="-2.664757358968285"><ele>1377.0</ele><time>2026-04-20T15:41:50Z</time></trkpt><trkpt lat="38.11752905115875" lon="-2.664967344380783"><ele>1371.5</ele><time>2026-04-20T15:41:51Z</time></trkpt><trkpt lat="38.11759026349999" lon="-2.6651359569098187"><ele>1366.0</ele><time>2026-04-20T15:41:52Z</time></trkpt><trkpt lat="38.11767044342933" lon="-2.665254961029718"><ele>1360.5</ele><time>2026-04-20T15:41:53Z</time></trkpt><trkpt lat="38.11778124402633" lon="-2.66531733773263"><ele>1355.0</ele><time>2026-04-20T15:41:54Z</time></trkpt><trkpt lat="38.11792955315944" lon="-2.6653002077619803"><ele>1355.0</ele><time>2026-04-20T15:41:55Z</time></trkpt><trkpt lat="38.11806412637375" lon="-2.6652361082785614"><ele>1355.0</ele><time>2026-04-20T15:41:56Z</time></trkpt><trkpt lat="38.118193206502376" lon="-2.6652484150084366"><ele>1355.0</ele><time>2026-04-20T15:41:57Z</time></trkpt><trkpt lat="38.11833303795699" lon="-2.665333109923135"><ele>1355.0</ele><time>2026-04-20T15:41:58Z</time></trkpt><trkpt lat="38.11848631032214" lon="-2.6654915943041084"><ele>1350.3333333333335</ele><time>2026-04-20T15:41:59Z</time></trkpt><trkpt lat="38.1186491887682" lon="-2.665680863823185"><ele>1345.6666666666667</ele><time>2026-04-20T15:42:00Z</time></trkpt><trkpt lat="38.11881155376428" lon="-2.6658575236215056"><ele>1341.0</ele><time>2026-04-20T15:42:01Z</time></trkpt><trkpt lat="38.118952327470915" lon="-2.666004609288361"><ele>1341.0</ele><time>2026-04-20T15:42:02Z</time></trkpt><trkpt lat="38.11906354462625" lon="-2.6661363251941337"><ele>1341.0</ele><time>2026-04-20T15:42:03Z</time></trkpt><trkpt lat="38.11914212081146" lon="-2.666277817632499"><ele>1341.0</ele><time>2026-04-20T15:42:04Z</time></trkpt><trkpt lat="38.119183655789776" lon="-2.666434354107039"><ele>1341.0</ele><time>2026-04-20T15:42:05Z</time></trkpt><trkpt lat="38.11920098776142" lon="-2.6666234673732525"><ele>1341.0</ele><time>2026-04-20T15:42:06Z</time></trkpt><trkpt lat="38.119164777811626" lon="-2.6668167415274158"><ele>1341.0</ele><time>2026-04-20T15:42:07Z</time></trkpt><trkpt lat="38.11916725246254" lon="-2.666940947800649"><ele>1341.0</ele><time>2026-04-20T15:42:08Z</time></trkpt><trkpt lat="38.11919646064713" lon="-2.6670138665668865"><ele>1341.0</ele><time>2026-04-20T15:42:09Z</time></trkpt><trkpt lat="38.1192446485895" lon="-2.6670780855276335"><ele>1341.0</ele><time>2026-04-20T15:42:12Z</time></trkpt><trkpt lat="38.11914270019851" lon="-2.6670205866310415"><ele>1341.0</ele><time>2026-04-20T15:42:14Z</time></trkpt><trkpt lat="38.11910809452895" lon="-2.6668525735187307"><ele>1341.0</ele><time>2026-04-20T15:42:16Z</time></trkpt><trkpt lat="38.11910511130607" lon="-2.666726619536285"><ele>1341.0</ele><time>2026-04-20T15:42:17Z</time></trkpt><trkpt lat="38.119106985421084" lon="-2.6666292115652777"><ele>1341.0</ele><time>2026-04-20T15:42:18Z</time></trkpt><trkpt lat="38.119105095541556" lon="-2.666527909684264"><ele>1341.0</ele><time>2026-04-20T15:42:19Z</time></trkpt><trkpt lat="38.119110679059595" lon="-2.6663958906592984"><ele>1341.0</ele><time>2026-04-20T15:42:22Z</time></trkpt><trkpt lat="38.119080093897274" lon="-2.66625102896815"><ele>1341.0</ele><time>2026-04-20T15:42:24Z</time></trkpt><trkpt lat="38.11904048087467" lon="-2.6661549342925657"><ele>1341.0</ele><time>2026-04-20T15:42:25Z</time></trkpt><trkpt lat="38.1189758603555" lon="-2.6660596718340694"><ele>1341.0</ele><time>2026-04-20T15:42:26Z</time></trkpt><trkpt lat="38.118890364178974" lon="-2.6659675182775504"><ele>1341.0</ele><time>2026-04-20T15:42:27Z</time></trkpt><trkpt lat="38.118798067290726" lon="-2.6658710079594155"><ele>1341.0</ele><time>2026-04-20T15:42:28Z</time></trkpt><trkpt lat="38.11869742970626" lon="-2.665770257027368"><ele>1341.0</ele><time>2026-04-20T15:42:29Z</time></trkpt><trkpt lat="38.11859788266816" lon="-2.665668495228717"><ele>1341.0</ele><time>2026-04-20T15:42:30Z</time></trkpt><trkpt lat="38.1185018120785" lon="-2.665568379498024"><ele>1341.0</ele><time>2026-04-20T15:42:31Z</time></trkpt><trkpt lat="38.11841396606647" lon="-2.665478771066856"><ele>1341.0</ele><time>2026-04-20T15:42:32Z</time></trkpt><trkpt lat="38.11834285320643" lon="-2.665403552997831"><ele>1341.0</ele><time>2026-04-20T15:42:33Z</time></trkpt><trkpt lat="38.11828704673376" lon="-2.665355441380043"><ele>1341.0</ele><time>2026-04-20T15:42:34Z</time></trkpt><trkpt lat="38.11822472038351" lon="-2.6653697673002354"><ele>1341.0</ele><time>2026-04-20T15:42:35Z</time></trkpt><trkpt lat="38.11817735310618" lon="-2.665445955652323"><ele>1341.0</ele><time>2026-04-20T15:42:36Z</time></trkpt><trkpt lat="38.11814190372997" lon="-2.665559721668167"><ele>1341.0</ele><time>2026-04-20T15:42:37Z</time></trkpt><trkpt lat="38.11810999374821" lon="-2.665679083594361"><ele>1341.4</ele><time>2026-04-20T15:42:38Z</time></trkpt><trkpt lat="38.11806609505057" lon="-2.6658075958524146"><ele>1341.8</ele><time>2026-04-20T15:42:38.999Z</time></trkpt><trkpt lat="38.11803356801643" lon="-2.6659233965330644"><ele>1342.2</ele><time>2026-04-20T15:42:39.999Z</time></trkpt><trkpt lat="38.1179919485126" lon="-2.6660453889199593"><ele>1342.6000000000001</ele><time>2026-04-20T15:42:40.999Z</time></trkpt><trkpt lat="38.11794648834623" lon="-2.666186657172023"><ele>1343.0</ele><time>2026-04-20T15:42:41.999Z</time></trkpt><trkpt lat="38.11789167319984" lon="-2.6663259296567476"><ele>1343.0</ele><time>2026-04-20T15:42:42.999Z</time></trkpt><trkpt lat="38.11781694489571" lon="-2.666463088733717"><ele>1343.0</ele><time>2026-04-20T15:42:43.999Z</time></trkpt><trkpt lat="38.11771853761934" lon="-2.6666090024413287"><ele>1343.0</ele><time>2026-04-20T15:42:44.999Z</time></trkpt><trkpt lat="38.11759328886354" lon="-2.666792776611412"><ele>1341.3333333333335</ele><time>2026-04-20T15:42:45.999Z</time></trkpt><trkpt lat="38.117487177939964" lon="-2.666953830541236"><ele>1339.6666666666667</ele><time>2026-04-20T15:42:46.999Z</time></trkpt><trkpt lat="38.117389012267004" lon="-2.667102427272793"><ele>1338.0</ele><time>2026-04-20T15:42:47.999Z</time></trkpt><trkpt lat="38.11729884436701" lon="-2.6672539636903805"><ele>1337.75</ele><time>2026-04-20T15:42:48.999Z</time></trkpt><trkpt lat="38.11720967999508" lon="-2.667385242247623"><ele>1337.5</ele><time>2026-04-20T15:42:49.999Z</time></trkpt><trkpt lat="38.11712383250262" lon="-2.6675183517770256"><ele>1337.25</ele><time>2026-04-20T15:42:50.999Z</time></trkpt><trkpt lat="38.1170352109557" lon="-2.667649247912134"><ele>1337.0</ele><time>2026-04-20T15:42:51.999Z</time></trkpt><trkpt lat="38.11694779838843" lon="-2.6677851284659333"><ele>1337.0</ele><time>2026-04-20T15:42:52.999Z</time></trkpt><trkpt lat="38.11685766894057" lon="-2.667918818957953"><ele>1337.0</ele><time>2026-04-20T15:42:53.999Z</time></trkpt><trkpt lat="38.11676970416687" lon="-2.66804050946262"><ele>1337.0</ele><time>2026-04-20T15:42:54.999Z</time></trkpt><trkpt lat="38.1166895373351" lon="-2.668167634732341"><ele>1337.0</ele><time>2026-04-20T15:42:55.999Z</time></trkpt><trkpt lat="38.11661393283794" lon="-2.668292549628515"><ele>1337.5</ele><time>2026-04-20T15:42:56.999Z</time></trkpt><trkpt lat="38.11656505390687" lon="-2.6684288359490806"><ele>1338.0</ele><time>2026-04-20T15:42:57.999Z</time></trkpt><trkpt lat="38.11652043259653" lon="-2.6685634662168844"><ele>1338.5</ele><time>2026-04-20T15:42:58.999Z</time></trkpt><trkpt lat="38.11648022152496" lon="-2.6687193118149994"><ele>1339.0</ele><time>2026-04-20T15:42:59.999Z</time></trkpt><trkpt lat="38.11648921752151" lon="-2.6688899910940624"><ele>1339.0</ele><time>2026-04-20T15:43:00.999Z</time></trkpt><trkpt lat="38.116472651372206" lon="-2.669066710364815"><ele>1339.0</ele><time>2026-04-20T15:43:01.999Z</time></trkpt><trkpt lat="38.11648307754216" lon="-2.669232045886607"><ele>1339.0</ele><time>2026-04-20T15:43:02.999Z</time></trkpt><trkpt lat="38.11648019001824" lon="-2.669416903851602"><ele>1339.0</ele><time>2026-04-20T15:43:03.999Z</time></trkpt><trkpt lat="38.1164584470097" lon="-2.669598127875724"><ele>1338.0</ele><time>2026-04-20T15:43:04.999Z</time></trkpt><trkpt lat="38.11645337359375" lon="-2.6697911851262495"><ele>1337.0</ele><time>2026-04-20T15:43:05.999Z</time></trkpt><trkpt lat="38.11644055184212" lon="-2.6699987474408675"><ele>1336.0</ele><time>2026-04-20T15:43:06.999Z</time></trkpt><trkpt lat="38.11642898396546" lon="-2.6702151616181773"><ele>1336.6666666666665</ele><time>2026-04-20T15:43:07.999Z</time></trkpt><trkpt lat="38.11641595698551" lon="-2.6704392603503146"><ele>1337.3333333333333</ele><time>2026-04-20T15:43:08.999Z</time></trkpt><trkpt lat="38.11640602086643" lon="-2.670672013921498"><ele>1338.0</ele><time>2026-04-20T15:43:09.999Z</time></trkpt><trkpt lat="38.11641550476302" lon="-2.6709015847444464"><ele>1339.6666666666667</ele><time>2026-04-20T15:43:10.999Z</time></trkpt><trkpt lat="38.1163805529058" lon="-2.6711284899082353"><ele>1341.3333333333335</ele><time>2026-04-20T15:43:11.999Z</time></trkpt><trkpt lat="38.116345206663425" lon="-2.671344904189352"><ele>1343.0</ele><time>2026-04-20T15:43:12.999Z</time></trkpt><trkpt lat="38.116288532617595" lon="-2.671561355782059"><ele>1343.0</ele><time>2026-04-20T15:43:13.999Z</time></trkpt><trkpt lat="38.11621640075072" lon="-2.6717713881847507"><ele>1343.0</ele><time>2026-04-20T15:43:14.999Z</time></trkpt><trkpt lat="38.11614333782313" lon="-2.67198403097831"><ele>1343.0</ele><time>2026-04-20T15:43:15.999Z</time></trkpt><trkpt lat="38.116072899401736" lon="-2.672199103293131"><ele>1342.6666666666667</ele><time>2026-04-20T15:43:16.999Z</time></trkpt><trkpt lat="38.11600459236759" lon="-2.6724109388187607"><ele>1342.3333333333333</ele><time>2026-04-20T15:43:17.999Z</time></trkpt><trkpt lat="38.11594580414374" lon="-2.672599116230585"><ele>1342.0</ele><time>2026-04-20T15:43:18.999Z</time></trkpt><trkpt lat="38.115897799210515" lon="-2.6727662361538758"><ele>1343.0</ele><time>2026-04-20T15:43:19.999Z</time></trkpt><trkpt lat="38.11584915348808" lon="-2.672917438270847"><ele>1344.0</ele><time>2026-04-20T15:43:20.999Z</time></trkpt><trkpt lat="38.11579814535678" lon="-2.6730632674658614"><ele>1345.0</ele><time>2026-04-20T15:43:21.999Z</time></trkpt><trkpt lat="38.11573951191103" lon="-2.6732080068180326"><ele>1346.0</ele><time>2026-04-20T15:43:22.999Z</time></trkpt><trkpt lat="38.11567267086166" lon="-2.6733424160085497"><ele>1348.25</ele><time>2026-04-20T15:43:24Z</time></trkpt><trkpt lat="38.11559102964359" lon="-2.6734596128531654"><ele>1350.5</ele><time>2026-04-20T15:43:25Z</time></trkpt><trkpt lat="38.11550376159128" lon="-2.6735874486583473"><ele>1352.75</ele><time>2026-04-20T15:43:26Z</time></trkpt><trkpt lat="38.115417796452135" lon="-2.673735924684237"><ele>1355.0</ele><time>2026-04-20T15:43:27Z</time></trkpt><trkpt lat="38.11533238690924" lon="-2.6738803192639815"><ele>1355.0</ele><time>2026-04-20T15:43:28Z</time></trkpt><trkpt lat="38.11524278074398" lon="-2.674030298240592"><ele>1355.0</ele><time>2026-04-20T15:43:29Z</time></trkpt><trkpt lat="38.1151742951284" lon="-2.6741860915809714"><ele>1355.0</ele><time>2026-04-20T15:43:30Z</time></trkpt><trkpt lat="38.11512381915436" lon="-2.674344245742746"><ele>1355.0</ele><time>2026-04-20T15:43:31Z</time></trkpt><trkpt lat="38.11506957201186" lon="-2.6745025006611534"><ele>1357.25</ele><time>2026-04-20T15:43:32Z</time></trkpt><trkpt lat="38.11504768329809" lon="-2.6746873690036805"><ele>1359.5</ele><time>2026-04-20T15:43:33Z</time></trkpt><trkpt lat="38.115018743759364" lon="-2.6748340122856527"><ele>1361.75</ele><time>2026-04-20T15:43:34Z</time></trkpt><trkpt lat="38.11497959804825" lon="-2.6749652900522407"><ele>1364.0</ele><time>2026-04-20T15:43:35Z</time></trkpt><trkpt lat="38.11487837311318" lon="-2.675197515902466"><ele>1368.3333333333335</ele><time>2026-04-20T15:43:36Z</time></trkpt><trkpt lat="38.11479286214926" lon="-2.6753589469853876"><ele>1372.6666666666667</ele><time>2026-04-20T15:43:37Z</time></trkpt><trkpt lat="38.114719529845225" lon="-2.675521957812051"><ele>1377.0</ele><time>2026-04-20T15:43:38Z</time></trkpt><trkpt lat="38.11464186929131" lon="-2.6756915694524466"><ele>1377.0</ele><time>2026-04-20T15:43:39Z</time></trkpt><trkpt lat="38.11456014501918" lon="-2.6758598998953356"><ele>1377.0</ele><time>2026-04-20T15:43:40Z</time></trkpt><trkpt lat="38.114459422912915" lon="-2.676035044937217"><ele>1377.0</ele><time>2026-04-20T15:43:41Z</time></trkpt><trkpt lat="38.114354396426975" lon="-2.676211084852102"><ele>1373.6666666666667</ele><time>2026-04-20T15:43:42Z</time></trkpt><trkpt lat="38.11425060880937" lon="-2.676394188983386"><ele>1370.3333333333335</ele><time>2026-04-20T15:43:43Z</time></trkpt><trkpt lat="38.114168660333675" lon="-2.676535381222623"><ele>1367.0</ele><time>2026-04-20T15:43:44Z</time></trkpt><trkpt lat="38.114086268993866" lon="-2.6767080216467463"><ele>1370.0</ele><time>2026-04-20T15:43:45Z</time></trkpt><trkpt lat="38.11399461531049" lon="-2.676865086416483"><ele>1373.0</ele><time>2026-04-20T15:43:46Z</time></trkpt><trkpt lat="38.11390329038765" lon="-2.6770345689762705"><ele>1376.0</ele><time>2026-04-20T15:43:47Z</time></trkpt><trkpt lat="38.11379994513371" lon="-2.67719352696126"><ele>1376.0</ele><time>2026-04-20T15:43:48Z</time></trkpt><trkpt lat="38.113691717981084" lon="-2.677354146402795"><ele>1376.0</ele><time>2026-04-20T15:43:49Z</time></trkpt><trkpt lat="38.113586278063394" lon="-2.6775061504811073"><ele>1376.0</ele><time>2026-04-20T15:43:50Z</time></trkpt><trkpt lat="38.11348978335936" lon="-2.6776543456247355"><ele>1374.25</ele><time>2026-04-20T15:43:51Z</time></trkpt><trkpt lat="38.11339033717803" lon="-2.677820748419364"><ele>1372.5</ele><time>2026-04-20T15:43:52Z</time></trkpt><trkpt lat="38.113297042094885" lon="-2.677970438591025"><ele>1370.75</ele><time>2026-04-20T15:43:53Z</time></trkpt><trkpt lat="38.11322249383109" lon="-2.6781003752676655"><ele>1369.0</ele><time>2026-04-20T15:43:54Z</time></trkpt><trkpt lat="38.11314346592221" lon="-2.678227299470217"><ele>1372.5</ele><time>2026-04-20T15:43:55Z</time></trkpt><trkpt lat="38.11305399933894" lon="-2.6782738518135147"><ele>1376.0</ele><time>2026-04-20T15:43:56Z</time></trkpt><trkpt lat="38.11296919598458" lon="-2.6783130158603776"><ele>1379.5</ele><time>2026-04-20T15:43:58Z</time></trkpt><trkpt lat="38.112861359188614" lon="-2.6783623996316455"><ele>1383.0</ele><time>2026-04-20T15:44:00Z</time></trkpt><trkpt lat="38.112698036683796" lon="-2.678444868060524"><ele>1383.0</ele><time>2026-04-20T15:44:02Z</time></trkpt><trkpt lat="38.112601831151885" lon="-2.6785385307275353"><ele>1383.0</ele><time>2026-04-20T15:44:03Z</time></trkpt><trkpt lat="38.1124975466212" lon="-2.6786508617740443"><ele>1383.0</ele><time>2026-04-20T15:44:04Z</time></trkpt><trkpt lat="38.1123914030765" lon="-2.6787715279380966"><ele>1383.0</ele><time>2026-04-20T15:44:05Z</time></trkpt><trkpt lat="38.11229476201628" lon="-2.6788947929730913"><ele>1383.5</ele><time>2026-04-20T15:44:06Z</time></trkpt><trkpt lat="38.11216682701256" lon="-2.6790208200449883"><ele>1384.0</ele><time>2026-04-20T15:44:07Z</time></trkpt><trkpt lat="38.11205136797893" lon="-2.6791401025963935"><ele>1384.5</ele><time>2026-04-20T15:44:08Z</time></trkpt><trkpt lat="38.11196119404259" lon="-2.6792327698520433"><ele>1385.0</ele><time>2026-04-20T15:44:09Z</time></trkpt><trkpt lat="38.11184748447087" lon="-2.679335227289528"><ele>1385.0</ele><time>2026-04-20T15:44:10Z</time></trkpt><trkpt lat="38.111711843478496" lon="-2.6794019393973527"><ele>1385.0</ele><time>2026-04-20T15:44:11Z</time></trkpt><trkpt lat="38.111566285623184" lon="-2.679486319003912"><ele>1385.0</ele><time>2026-04-20T15:44:12Z</time></trkpt><trkpt lat="38.11140372187219" lon="-2.6795650533831354"><ele>1384.3333333333335</ele><time>2026-04-20T15:44:13Z</time></trkpt><trkpt lat="38.11125342271339" lon="-2.679673338645459"><ele>1383.6666666666667</ele><time>2026-04-20T15:44:14Z</time></trkpt><trkpt lat="38.1111120274025" lon="-2.6797716919684507"><ele>1383.0</ele><time>2026-04-20T15:44:15Z</time></trkpt><trkpt lat="38.11096559330519" lon="-2.6798655341782447"><ele>1383.0</ele><time>2026-04-20T15:44:16Z</time></trkpt><trkpt lat="38.11080434503078" lon="-2.6799566018543697"><ele>1383.0</ele><time>2026-04-20T15:44:17Z</time></trkpt><trkpt lat="38.110636362312604" lon="-2.68004264520069"><ele>1383.0</ele><time>2026-04-20T15:44:18Z</time></trkpt><trkpt lat="38.11049552169191" lon="-2.6801275904821154"><ele>1383.0</ele><time>2026-04-20T15:44:19Z</time></trkpt><trkpt lat="38.11033735888692" lon="-2.6802079927595996"><ele>1383.0</ele><time>2026-04-20T15:44:20Z</time></trkpt><trkpt lat="38.11018843184494" lon="-2.6803041932207194"><ele>1383.0</ele><time>2026-04-20T15:44:21Z</time></trkpt><trkpt lat="38.11003396954048" lon="-2.680394602988751"><ele>1385.0</ele><time>2026-04-20T15:44:22Z</time></trkpt><trkpt lat="38.10987740004755" lon="-2.680485103658976"><ele>1387.0</ele><time>2026-04-20T15:44:23Z</time></trkpt><trkpt lat="38.10972609711965" lon="-2.6805851447387448"><ele>1389.0</ele><time>2026-04-20T15:44:24Z</time></trkpt><trkpt lat="38.10960979500279" lon="-2.680738760830191"><ele>1389.0</ele><time>2026-04-20T15:44:25Z</time></trkpt><trkpt lat="38.109508341689164" lon="-2.680889795564193"><ele>1389.0</ele><time>2026-04-20T15:44:26Z</time></trkpt><trkpt lat="38.1094302782363" lon="-2.6810589068995876"><ele>1389.0</ele><time>2026-04-20T15:44:27Z</time></trkpt><trkpt lat="38.10940055044754" lon="-2.6812231339851538"><ele>1389.0</ele><time>2026-04-20T15:44:28Z</time></trkpt><trkpt lat="38.10941483357658" lon="-2.6813998547650773"><ele>1388.5</ele><time>2026-04-20T15:44:29Z</time></trkpt><trkpt lat="38.10944946871118" lon="-2.681594662473228"><ele>1388.0</ele><time>2026-04-20T15:44:30Z</time></trkpt><trkpt lat="38.10946014517226" lon="-2.6817974071302224"><ele>1387.5</ele><time>2026-04-20T15:44:31Z</time></trkpt><trkpt lat="38.10947631418994" lon="-2.681964271698457"><ele>1387.0</ele><time>2026-04-20T15:44:32Z</time></trkpt><trkpt lat="38.10945825355324" lon="-2.6821472234632924"><ele>1387.0</ele><time>2026-04-20T15:44:33Z</time></trkpt><trkpt lat="38.109420696807945" lon="-2.682352491133797"><ele>1387.0</ele><time>2026-04-20T15:44:34Z</time></trkpt><trkpt lat="38.10938032474234" lon="-2.682577667409626"><ele>1387.0</ele><time>2026-04-20T15:44:35Z</time></trkpt><trkpt lat="38.10933710029623" lon="-2.682806455845734"><ele>1387.6666666666665</ele><time>2026-04-20T15:44:36Z</time></trkpt><trkpt lat="38.10929706208789" lon="-2.683035504554972"><ele>1388.3333333333333</ele><time>2026-04-20T15:44:37Z</time></trkpt><trkpt lat="38.10928521587748" lon="-2.6832404751710968"><ele>1389.0</ele><time>2026-04-20T15:44:37.999Z</time></trkpt><trkpt lat="38.10923624241154" lon="-2.683392787220725"><ele>1389.0</ele><time>2026-04-20T15:44:38.999Z</time></trkpt><trkpt lat="38.10917732477183" lon="-2.6835303372450356"><ele>1389.0</ele><time>2026-04-20T15:44:39.999Z</time></trkpt><trkpt lat="38.109082129906426" lon="-2.6836688766200583"><ele>1389.0</ele><time>2026-04-20T15:44:40.999Z</time></trkpt><trkpt lat="38.108959539455995" lon="-2.68384750303963"><ele>1393.3333333333333</ele><time>2026-04-20T15:44:41.999Z</time></trkpt><trkpt lat="38.10882696170426" lon="-2.6839947119624856"><ele>1397.6666666666665</ele><time>2026-04-20T15:44:42.999Z</time></trkpt><trkpt lat="38.10871155482227" lon="-2.6841326102605247"><ele>1402.0</ele><time>2026-04-20T15:44:43.999Z</time></trkpt><trkpt lat="38.10861792304118" lon="-2.684308908029869"><ele>1401.6666666666665</ele><time>2026-04-20T15:44:44.999Z</time></trkpt><trkpt lat="38.10853800566764" lon="-2.684482624003111"><ele>1401.3333333333333</ele><time>2026-04-20T15:44:45.999Z</time></trkpt><trkpt lat="38.1084784338651" lon="-2.6846884932173274"><ele>1401.0</ele><time>2026-04-20T15:44:46.999Z</time></trkpt><trkpt lat="38.10841114122239" lon="-2.684906572413994"><ele>1401.0</ele><time>2026-04-20T15:44:47.999Z</time></trkpt><trkpt lat="38.10834823026799" lon="-2.6851067525169463"><ele>1401.0</ele><time>2026-04-20T15:44:48.999Z</time></trkpt><trkpt lat="38.10829192177724" lon="-2.6853014056002764"><ele>1401.0</ele><time>2026-04-20T15:44:49.999Z</time></trkpt><trkpt lat="38.108240398801" lon="-2.6854727005912955"><ele>1404.5</ele><time>2026-04-20T15:44:50.999Z</time></trkpt><trkpt lat="38.108160212479234" lon="-2.685600800670904"><ele>1408.0</ele><time>2026-04-20T15:44:51.999Z</time></trkpt><trkpt lat="38.10807205564441" lon="-2.685728281254086"><ele>1411.5</ele><time>2026-04-20T15:44:52.999Z</time></trkpt><trkpt lat="38.10796300168739" lon="-2.685893912657057"><ele>1415.0</ele><time>2026-04-20T15:44:53.999Z</time></trkpt><trkpt lat="38.10788530803267" lon="-2.68602400958322"><ele>1412.6666666666667</ele><time>2026-04-20T15:44:54.999Z</time></trkpt><trkpt lat="38.107811767167476" lon="-2.6862126567080584"><ele>1410.3333333333333</ele><time>2026-04-20T15:44:55.999Z</time></trkpt><trkpt lat="38.10774960538614" lon="-2.686406207609288"><ele>1408.0</ele><time>2026-04-20T15:44:56.999Z</time></trkpt><trkpt lat="38.10767130748389" lon="-2.6865960282626276"><ele>1408.0</ele><time>2026-04-20T15:44:57.999Z</time></trkpt><trkpt lat="38.1075672846957" lon="-2.6867906884587094"><ele>1408.0</ele><time>2026-04-20T15:44:58.999Z</time></trkpt><trkpt lat="38.10746580021691" lon="-2.686987764773971"><ele>1408.0</ele><time>2026-04-20T15:44:59.999Z</time></trkpt><trkpt lat="38.10739528343518" lon="-2.6871567428371326"><ele>1411.6666666666665</ele><time>2026-04-20T15:45:00.999Z</time></trkpt><trkpt lat="38.10734507518542" lon="-2.68732728457806"><ele>1415.3333333333333</ele><time>2026-04-20T15:45:01.999Z</time></trkpt><trkpt lat="38.1073010841453" lon="-2.6875172609731055"><ele>1419.0</ele><time>2026-04-20T15:45:02.999Z</time></trkpt><trkpt lat="38.10726101134541" lon="-2.6877104167012695"><ele>1418.0</ele><time>2026-04-20T15:45:03.999Z</time></trkpt><trkpt lat="38.10722362139972" lon="-2.6879075899521268"><ele>1417.0</ele><time>2026-04-20T15:45:04.999Z</time></trkpt><trkpt lat="38.10718162466114" lon="-2.6881037934324747"><ele>1416.0</ele><time>2026-04-20T15:45:05.999Z</time></trkpt><trkpt lat="38.10712072725413" lon="-2.6882895535186164"><ele>1416.0</ele><time>2026-04-20T15:45:06.999Z</time></trkpt><trkpt lat="38.107023116272224" lon="-2.6884474036126043"><ele>1416.0</ele><time>2026-04-20T15:45:07.999Z</time></trkpt><trkpt lat="38.10691738284768" lon="-2.6886007362891085"><ele>1416.0</ele><time>2026-04-20T15:45:08.999Z</time></trkpt><trkpt lat="38.10680001796435" lon="-2.6887443227304755"><ele>1417.6666666666667</ele><time>2026-04-20T15:45:09.999Z</time></trkpt><trkpt lat="38.10668544790938" lon="-2.6888844925300748"><ele>1419.3333333333335</ele><time>2026-04-20T15:45:10.999Z</time></trkpt><trkpt lat="38.106572298094335" lon="-2.689022150422309"><ele>1421.0</ele><time>2026-04-20T15:45:11.999Z</time></trkpt><trkpt lat="38.10645700370348" lon="-2.6891554412676304"><ele>1421.0</ele><time>2026-04-20T15:45:12.999Z</time></trkpt><trkpt lat="38.106349706045954" lon="-2.689301406349575"><ele>1421.0</ele><time>2026-04-20T15:45:13.999Z</time></trkpt><trkpt lat="38.10623077096373" lon="-2.6894304067763817"><ele>1421.0</ele><time>2026-04-20T15:45:14.999Z</time></trkpt><trkpt lat="38.10612386003928" lon="-2.689574239245561"><ele>1421.0</ele><time>2026-04-20T15:45:15.999Z</time></trkpt><trkpt lat="38.1060141204661" lon="-2.689709947718817"><ele>1421.0</ele><time>2026-04-20T15:45:16.999Z</time></trkpt><trkpt lat="38.1059001417179" lon="-2.6898388554714296"><ele>1421.0</ele><time>2026-04-20T15:45:17.999Z</time></trkpt><trkpt lat="38.10578334612391" lon="-2.689942817823795"><ele>1421.0</ele><time>2026-04-20T15:45:18.999Z</time></trkpt><trkpt lat="38.10565959602052" lon="-2.690032694740903"><ele>1421.3333333333335</ele><time>2026-04-20T15:45:19.999Z</time></trkpt><trkpt lat="38.105513233839446" lon="-2.6901014104567484"><ele>1421.6666666666667</ele><time>2026-04-20T15:45:20.999Z</time></trkpt><trkpt lat="38.105360073321144" lon="-2.6901589725437627"><ele>1422.0</ele><time>2026-04-20T15:45:21.999Z</time></trkpt><trkpt lat="38.10520099234398" lon="-2.690218625022582"><ele>1416.3333333333333</ele><time>2026-04-20T15:45:22.999Z</time></trkpt><trkpt lat="38.10504600562068" lon="-2.6902751757115486"><ele>1410.6666666666665</ele><time>2026-04-20T15:45:23.999Z</time></trkpt><trkpt lat="38.10489477727569" lon="-2.6903208145240334"><ele>1405.0</ele><time>2026-04-20T15:45:24.999Z</time></trkpt><trkpt lat="38.10474787729822" lon="-2.690360389830168"><ele>1404.25</ele><time>2026-04-20T15:45:25.999Z</time></trkpt><trkpt lat="38.10461085433387" lon="-2.6903910941816553"><ele>1403.5</ele><time>2026-04-20T15:45:26.999Z</time></trkpt><trkpt lat="38.10448157641613" lon="-2.6904145520480545"><ele>1402.75</ele><time>2026-04-20T15:45:27.999Z</time></trkpt><trkpt lat="38.10435924727713" lon="-2.690428764738315"><ele>1402.0</ele><time>2026-04-20T15:45:28.999Z</time></trkpt><trkpt lat="38.10424631814003" lon="-2.6904149936362716"><ele>1402.0</ele><time>2026-04-20T15:45:30Z</time></trkpt><trkpt lat="38.1041308811778" lon="-2.6903636807502753"><ele>1402.0</ele><time>2026-04-20T15:45:31Z</time></trkpt><trkpt lat="38.104013001251516" lon="-2.690278497707328"><ele>1402.0</ele><time>2026-04-20T15:45:32Z</time></trkpt><trkpt lat="38.10388976594727" lon="-2.6901960852280293"><ele>1402.0</ele><time>2026-04-20T15:45:33Z</time></trkpt><trkpt lat="38.10376510625988" lon="-2.690129369730384"><ele>1407.25</ele><time>2026-04-20T15:45:34Z</time></trkpt><trkpt lat="38.10365937822674" lon="-2.6900608340141594"><ele>1412.5</ele><time>2026-04-20T15:45:35Z</time></trkpt><trkpt lat="38.10355071714536" lon="-2.690012786902007"><ele>1417.75</ele><time>2026-04-20T15:45:36Z</time></trkpt><trkpt lat="38.103419442425945" lon="-2.6900214494675545"><ele>1423.0</ele><time>2026-04-20T15:45:37Z</time></trkpt><trkpt lat="38.10329933180207" lon="-2.6900988950242777"><ele>1420.75</ele><time>2026-04-20T15:45:38Z</time></trkpt><trkpt lat="38.10319766162246" lon="-2.690194310001495"><ele>1418.5</ele><time>2026-04-20T15:45:39Z</time></trkpt><trkpt lat="38.10309626792143" lon="-2.6903004206327257"><ele>1416.25</ele><time>2026-04-20T15:45:40Z</time></trkpt><trkpt lat="38.10299914158042" lon="-2.690400743916198"><ele>1414.0</ele><time>2026-04-20T15:45:41Z</time></trkpt><trkpt lat="38.10291648882171" lon="-2.690509006295803"><ele>1414.0</ele><time>2026-04-20T15:45:42Z</time></trkpt><trkpt lat="38.10279596754433" lon="-2.6905807178998695"><ele>1414.0</ele><time>2026-04-20T15:45:43Z</time></trkpt><trkpt lat="38.10266371468427" lon="-2.6906470208586586"><ele>1414.0</ele><time>2026-04-20T15:45:44Z</time></trkpt><trkpt lat="38.10252575853463" lon="-2.6907210259884766"><ele>1414.0</ele><time>2026-04-20T15:45:45Z</time></trkpt><trkpt lat="38.1023967457717" lon="-2.6908360473299706"><ele>1410.0</ele><time>2026-04-20T15:45:46Z</time></trkpt><trkpt lat="38.10225465126302" lon="-2.6909359743481986"><ele>1406.0</ele><time>2026-04-20T15:45:47Z</time></trkpt><trkpt lat="38.10211680342194" lon="-2.691048540205129"><ele>1402.0</ele><time>2026-04-20T15:45:48Z</time></trkpt><trkpt lat="38.101966909457666" lon="-2.69115917562121"><ele>1402.0</ele><time>2026-04-20T15:45:49Z</time></trkpt><trkpt lat="38.101806981741575" lon="-2.691244511167195"><ele>1402.0</ele><time>2026-04-20T15:45:50Z</time></trkpt><trkpt lat="38.10165349900654" lon="-2.6913171340859274"><ele>1402.0</ele><time>2026-04-20T15:45:51Z</time></trkpt><trkpt lat="38.10151197582008" lon="-2.6913818144571064"><ele>1405.0</ele><time>2026-04-20T15:45:52Z</time></trkpt><trkpt lat="38.10135412948238" lon="-2.6914212437349048"><ele>1408.0</ele><time>2026-04-20T15:45:53Z</time></trkpt><trkpt lat="38.10118350500883" lon="-2.6914478856341812"><ele>1411.0</ele><time>2026-04-20T15:45:54Z</time></trkpt><trkpt lat="38.101005846326245" lon="-2.6914723376406036"><ele>1411.0</ele><time>2026-04-20T15:45:55Z</time></trkpt><trkpt lat="38.10082525738041" lon="-2.6914991252331135"><ele>1411.0</ele><time>2026-04-20T15:45:56Z</time></trkpt><trkpt lat="38.100658124654785" lon="-2.691512908225776"><ele>1411.0</ele><time>2026-04-20T15:45:57Z</time></trkpt><trkpt lat="38.100506868009845" lon="-2.691560280338585"><ele>1414.5</ele><time>2026-04-20T15:45:58Z</time></trkpt><trkpt lat="38.100360973512814" lon="-2.6915916731997296"><ele>1418.0</ele><time>2026-04-20T15:45:59Z</time></trkpt><trkpt lat="38.10022749853415" lon="-2.6916372741379226"><ele>1421.5</ele><time>2026-04-20T15:46:00Z</time></trkpt><trkpt lat="38.10010249983387" lon="-2.6917201666279604"><ele>1425.0</ele><time>2026-04-20T15:46:01Z</time></trkpt><trkpt lat="38.09998678525401" lon="-2.6918333013140874"><ele>1425.6666666666667</ele><time>2026-04-20T15:46:02Z</time></trkpt><trkpt lat="38.09988750867298" lon="-2.6919771425774965"><ele>1426.3333333333335</ele><time>2026-04-20T15:46:03Z</time></trkpt><trkpt lat="38.09977726646916" lon="-2.692145806421358"><ele>1427.0</ele><time>2026-04-20T15:46:04Z</time></trkpt><trkpt lat="38.09965891339382" lon="-2.6923110441383495"><ele>1427.0</ele><time>2026-04-20T15:46:05Z</time></trkpt><trkpt lat="38.09953256243233" lon="-2.6924722631456888"><ele>1427.0</ele><time>2026-04-20T15:46:06Z</time></trkpt><trkpt lat="38.09938847113449" lon="-2.692636580752578"><ele>1427.0</ele><time>2026-04-20T15:46:07Z</time></trkpt><trkpt lat="38.0992385794485" lon="-2.6927620596326896"><ele>1430.0</ele><time>2026-04-20T15:46:08Z</time></trkpt><trkpt lat="38.09910129114739" lon="-2.6929034003357493"><ele>1433.0</ele><time>2026-04-20T15:46:09Z</time></trkpt><trkpt lat="38.09897540584635" lon="-2.6930591563055506"><ele>1436.0</ele><time>2026-04-20T15:46:10Z</time></trkpt><trkpt lat="38.09886602349522" lon="-2.693240054015193"><ele>1436.0</ele><time>2026-04-20T15:46:11Z</time></trkpt><trkpt lat="38.09874406175256" lon="-2.693408807708098"><ele>1436.0</ele><time>2026-04-20T15:46:12Z</time></trkpt><trkpt lat="38.09861777604979" lon="-2.6935761356560466"><ele>1436.0</ele><time>2026-04-20T15:46:13Z</time></trkpt><trkpt lat="38.098469592209604" lon="-2.693709630007166"><ele>1438.6666666666667</ele><time>2026-04-20T15:46:14Z</time></trkpt><trkpt lat="38.098332052680895" lon="-2.693847884670052"><ele>1441.3333333333333</ele><time>2026-04-20T15:46:15Z</time></trkpt><trkpt lat="38.09821231781208" lon="-2.6940145236034665"><ele>1444.0</ele><time>2026-04-20T15:46:16Z</time></trkpt><trkpt lat="38.09809182188512" lon="-2.69417428640949"><ele>1444.0</ele><time>2026-04-20T15:46:17Z</time></trkpt><trkpt lat="38.09796451277674" lon="-2.694333295227111"><ele>1444.0</ele><time>2026-04-20T15:46:18Z</time></trkpt><trkpt lat="38.097840534121126" lon="-2.6944711482480317"><ele>1444.0</ele><time>2026-04-20T15:46:19Z</time></trkpt><trkpt lat="38.09773790340247" lon="-2.694650112391917"><ele>1445.3333333333333</ele><time>2026-04-20T15:46:20Z</time></trkpt><trkpt lat="38.09762017071535" lon="-2.6948089909637294"><ele>1446.6666666666667</ele><time>2026-04-20T15:46:21Z</time></trkpt><trkpt lat="38.09750829093368" lon="-2.6949451566003195"><ele>1448.0</ele><time>2026-04-20T15:46:22Z</time></trkpt><trkpt lat="38.0973635738877" lon="-2.6951112419473335"><ele>1448.0</ele><time>2026-04-20T15:46:23Z</time></trkpt><trkpt lat="38.09723522869779" lon="-2.6952357012819386"><ele>1448.0</ele><time>2026-04-20T15:46:24Z</time></trkpt><trkpt lat="38.0971299421651" lon="-2.695392524438528"><ele>1448.0</ele><time>2026-04-20T15:46:25Z</time></trkpt><trkpt lat="38.0970196434514" lon="-2.69554351819481"><ele>1440.0</ele><time>2026-04-20T15:46:26Z</time></trkpt><trkpt lat="38.09689131799905" lon="-2.695675990356684"><ele>1432.0</ele><time>2026-04-20T15:46:27Z</time></trkpt><trkpt lat="38.09675538453835" lon="-2.695791986365454"><ele>1424.0</ele><time>2026-04-20T15:46:28Z</time></trkpt><trkpt lat="38.096611721980075" lon="-2.695897503181636"><ele>1423.5</ele><time>2026-04-20T15:46:29Z</time></trkpt><trkpt lat="38.09647844320917" lon="-2.695985994517832"><ele>1423.0</ele><time>2026-04-20T15:46:30Z</time></trkpt><trkpt lat="38.09635682806338" lon="-2.696078697408947"><ele>1422.5</ele><time>2026-04-20T15:46:31Z</time></trkpt><trkpt lat="38.0962374719521" lon="-2.6962007485283737"><ele>1422.0</ele><time>2026-04-20T15:46:32Z</time></trkpt><trkpt lat="38.09610215717722" lon="-2.6963533038325127"><ele>1422.0</ele><time>2026-04-20T15:46:33Z</time></trkpt><trkpt lat="38.095968685849186" lon="-2.6965148020909666"><ele>1422.0</ele><time>2026-04-20T15:46:34Z</time></trkpt><trkpt lat="38.09584214892839" lon="-2.6966743281686947"><ele>1422.0</ele><time>2026-04-20T15:46:35Z</time></trkpt><trkpt lat="38.095719764396236" lon="-2.696825242816064"><ele>1423.0</ele><time>2026-04-20T15:46:36Z</time></trkpt><trkpt lat="38.09560279049083" lon="-2.6969594488927617"><ele>1424.0</ele><time>2026-04-20T15:46:37Z</time></trkpt><trkpt lat="38.095487335615175" lon="-2.6970916431354097"><ele>1425.0</ele><time>2026-04-20T15:46:38Z</time></trkpt><trkpt lat="38.095365518372056" lon="-2.697220041482546"><ele>1425.0</ele><time>2026-04-20T15:46:39Z</time></trkpt><trkpt lat="38.09524348324274" lon="-2.6973428240168835"><ele>1425.0</ele><time>2026-04-20T15:46:40Z</time></trkpt><trkpt lat="38.09513709117743" lon="-2.6974868860378796"><ele>1425.0</ele><time>2026-04-20T15:46:41Z</time></trkpt><trkpt lat="38.09501875689939" lon="-2.697613746730328"><ele>1422.0</ele><time>2026-04-20T15:46:42Z</time></trkpt><trkpt lat="38.09488534756829" lon="-2.697714757501653"><ele>1419.0</ele><time>2026-04-20T15:46:43Z</time></trkpt><trkpt lat="38.094759573908554" lon="-2.697822067566919"><ele>1416.0</ele><time>2026-04-20T15:46:44Z</time></trkpt><trkpt lat="38.09463179108034" lon="-2.6979290885562697"><ele>1416.0</ele><time>2026-04-20T15:46:45Z</time></trkpt><trkpt lat="38.094501612857535" lon="-2.6980393775384317"><ele>1416.0</ele><time>2026-04-20T15:46:46Z</time></trkpt><trkpt lat="38.09439168918328" lon="-2.698161624937113"><ele>1416.0</ele><time>2026-04-20T15:46:47Z</time></trkpt><trkpt lat="38.09428853945408" lon="-2.698269256355064"><ele>1416.0</ele><time>2026-04-20T15:46:47.999Z</time></trkpt><trkpt lat="38.0942040139556" lon="-2.698378850368714"><ele>1416.0</ele><time>2026-04-20T15:46:48.999Z</time></trkpt><trkpt lat="38.09411489406698" lon="-2.6984614380106957"><ele>1416.0</ele><time>2026-04-20T15:46:49.999Z</time></trkpt><trkpt lat="38.094019855563175" lon="-2.6985223166410237"><ele>1416.0</ele><time>2026-04-20T15:46:50.999Z</time></trkpt><trkpt lat="38.093895427626315" lon="-2.6985245468796593"><ele>1416.0</ele><time>2026-04-20T15:46:51.999Z</time></trkpt><trkpt lat="38.09376336339716" lon="-2.69851056686932"><ele>1416.25</ele><time>2026-04-20T15:46:52.999Z</time></trkpt><trkpt lat="38.0936280423544" lon="-2.6985143407326673"><ele>1416.5</ele><time>2026-04-20T15:46:53.999Z</time></trkpt><trkpt lat="38.09348559984091" lon="-2.698543988862983"><ele>1416.75</ele><time>2026-04-20T15:46:54.999Z</time></trkpt><trkpt lat="38.09333649884226" lon="-2.6985776636966814"><ele>1417.0</ele><time>2026-04-20T15:46:55.999Z</time></trkpt><trkpt lat="38.09317939339667" lon="-2.698619363649474"><ele>1417.0</ele><time>2026-04-20T15:46:56.999Z</time></trkpt><trkpt lat="38.09302337676818" lon="-2.6986761205104206"><ele>1417.0</ele><time>2026-04-20T15:46:57.999Z</time></trkpt><trkpt lat="38.09288640010425" lon="-2.6987515301987273"><ele>1417.0</ele><time>2026-04-20T15:46:58.999Z</time></trkpt><trkpt lat="38.09277490624558" lon="-2.698854956369161"><ele>1417.0</ele><time>2026-04-20T15:46:59.999Z</time></trkpt><trkpt lat="38.092664943324415" lon="-2.6989395683079622"><ele>1417.0</ele><time>2026-04-20T15:47:00.999Z</time></trkpt><trkpt lat="38.09253406186447" lon="-2.6990007645593423"><ele>1417.0</ele><time>2026-04-20T15:47:01.999Z</time></trkpt><trkpt lat="38.092393015833345" lon="-2.699059433733694"><ele>1417.0</ele><time>2026-04-20T15:47:02.999Z</time></trkpt><trkpt lat="38.092239091805546" lon="-2.699090656432684"><ele>1421.3333333333333</ele><time>2026-04-20T15:47:03.999Z</time></trkpt><trkpt lat="38.092076190095554" lon="-2.6990996732259043"><ele>1425.6666666666667</ele><time>2026-04-20T15:47:04.999Z</time></trkpt><trkpt lat="38.09192248530129" lon="-2.6991317988024757"><ele>1430.0</ele><time>2026-04-20T15:47:05.999Z</time></trkpt><trkpt lat="38.091787018840925" lon="-2.6991909171589685"><ele>1430.0</ele><time>2026-04-20T15:47:06.999Z</time></trkpt><trkpt lat="38.09165985915116" lon="-2.6992552725096415"><ele>1430.0</ele><time>2026-04-20T15:47:07.999Z</time></trkpt><trkpt lat="38.09153490369088" lon="-2.699299269496366"><ele>1430.0</ele><time>2026-04-20T15:47:08.999Z</time></trkpt><trkpt lat="38.091411896919766" lon="-2.6993207663753505"><ele>1430.0</ele><time>2026-04-20T15:47:09.999Z</time></trkpt><trkpt lat="38.09130457084593" lon="-2.6993537448904337"><ele>1431.6</ele><time>2026-04-20T15:47:10.999Z</time></trkpt><trkpt lat="38.091214702485836" lon="-2.6994228370165927"><ele>1433.2</ele><time>2026-04-20T15:47:11.999Z</time></trkpt><trkpt lat="38.09117752021045" lon="-2.6995429940188975"><ele>1434.8000000000002</ele><time>2026-04-20T15:47:12.999Z</time></trkpt><trkpt lat="38.09117785962412" lon="-2.6996503363233213"><ele>1436.4</ele><time>2026-04-20T15:47:13.999Z</time></trkpt><trkpt lat="38.09118396693064" lon="-2.699762901402386"><ele>1438.0</ele><time>2026-04-20T15:47:14.999Z</time></trkpt><trkpt lat="38.091219314781824" lon="-2.6998508834936925"><ele>1438.0</ele><time>2026-04-20T15:47:15.999Z</time></trkpt><trkpt lat="38.09123076512728" lon="-2.699952301885234"><ele>1438.0</ele><time>2026-04-20T15:47:16.999Z</time></trkpt><trkpt lat="38.09129796489158" lon="-2.700010787599116"><ele>1438.0</ele><time>2026-04-20T15:47:17.999Z</time></trkpt><trkpt lat="38.09136886950672" lon="-2.700060822365627"><ele>1438.0</ele><time>2026-04-20T15:47:18.999Z</time></trkpt><trkpt lat="38.091442195224815" lon="-2.700105761750176"><ele>1438.0</ele><time>2026-04-20T15:47:19.999Z</time></trkpt><trkpt lat="38.09151353653967" lon="-2.700159094309093"><ele>1438.0</ele><time>2026-04-20T15:47:20.999Z</time></trkpt><trkpt lat="38.09160909584021" lon="-2.7001939302914972"><ele>1440.0</ele><time>2026-04-20T15:47:21.999Z</time></trkpt><trkpt lat="38.09169398800376" lon="-2.70022974514758"><ele>1442.0</ele><time>2026-04-20T15:47:22.999Z</time></trkpt><trkpt lat="38.09177025153746" lon="-2.700286953947088"><ele>1444.0</ele><time>2026-04-20T15:47:23.999Z</time></trkpt><trkpt lat="38.091855505531775" lon="-2.700339781800833"><ele>1446.0</ele><time>2026-04-20T15:47:24.999Z</time></trkpt><trkpt lat="38.09194554325635" lon="-2.700385157854034"><ele>1448.0</ele><time>2026-04-20T15:47:25.999Z</time></trkpt><trkpt lat="38.09201005588172" lon="-2.7004790970816415"><ele>1448.0</ele><time>2026-04-20T15:47:26.999Z</time></trkpt><trkpt lat="38.09205116415133" lon="-2.70057544211515"><ele>1448.0</ele><time>2026-04-20T15:47:27.999Z</time></trkpt><trkpt lat="38.09208513441863" lon="-2.700710270068115"><ele>1448.0</ele><time>2026-04-20T15:47:28.999Z</time></trkpt><trkpt lat="38.092120223358336" lon="-2.7008251185417755"><ele>1448.0</ele><time>2026-04-20T15:47:29.999Z</time></trkpt><trkpt lat="38.092158048654746" lon="-2.7009323231478257"><ele>1448.0</ele><time>2026-04-20T15:47:30.999Z</time></trkpt><trkpt lat="38.092152731291435" lon="-2.7011204098001222"><ele>1448.0</ele><time>2026-04-20T15:47:32.999Z</time></trkpt><trkpt lat="38.09208901300653" lon="-2.70123903751095"><ele>1448.0</ele><time>2026-04-20T15:47:33.999Z</time></trkpt><trkpt lat="38.0920228868858" lon="-2.7012166570860985"><ele>1448.0</ele><time>2026-04-20T15:47:36Z</time></trkpt><trkpt lat="38.09196804938869" lon="-2.701117776695096"><ele>1448.0</ele><time>2026-04-20T15:47:37Z</time></trkpt><trkpt lat="38.09191562620073" lon="-2.7010116452798747"><ele>1448.0</ele><time>2026-04-20T15:47:38Z</time></trkpt><trkpt lat="38.091865285465914" lon="-2.7009026764946555"><ele>1448.0</ele><time>2026-04-20T15:47:39Z</time></trkpt><trkpt lat="38.09181182042104" lon="-2.7008127255619523"><ele>1448.0</ele><time>2026-04-20T15:47:40Z</time></trkpt><trkpt lat="38.091760166974524" lon="-2.7007242394925832"><ele>1448.0</ele><time>2026-04-20T15:47:41Z</time></trkpt><trkpt lat="38.09162805378796" lon="-2.7006722762681257"><ele>1448.0</ele><time>2026-04-20T15:47:43Z</time></trkpt><trkpt lat="38.091487775857175" lon="-2.700635231511763"><ele>1449.1666666666667</ele><time>2026-04-20T15:47:45Z</time></trkpt><trkpt lat="38.09140149930283" lon="-2.700619386437105"><ele>1450.3333333333335</ele><time>2026-04-20T15:47:46Z</time></trkpt><trkpt lat="38.09130643230217" lon="-2.7005992905005827"><ele>1451.5</ele><time>2026-04-20T15:47:47Z</time></trkpt><trkpt lat="38.091218372540176" lon="-2.7005633201426433"><ele>1452.6666666666667</ele><time>2026-04-20T15:47:48Z</time></trkpt><trkpt lat="38.09113718160312" lon="-2.700540259937236"><ele>1453.8333333333333</ele><time>2026-04-20T15:47:49Z</time></trkpt><trkpt lat="38.0910734047484" lon="-2.7005173529867506"><ele>1455.0</ele><time>2026-04-20T15:47:50Z</time></trkpt><trkpt lat="38.09096115110893" lon="-2.7005118369117"><ele>1455.0</ele><time>2026-04-20T15:47:52Z</time></trkpt><trkpt lat="38.0908659775125" lon="-2.700565413496543"><ele>1455.0</ele><time>2026-04-20T15:56:49Z</time></trkpt><trkpt lat="38.09079253725655" lon="-2.700601030870949"><ele>1455.0</ele><time>2026-04-20T15:56:50Z</time></trkpt><trkpt lat="38.090714876239446" lon="-2.7006276003697574"><ele>1455.0</ele><time>2026-04-20T15:56:51Z</time></trkpt><trkpt lat="38.09063416881641" lon="-2.700663580818212"><ele>1455.0</ele><time>2026-04-20T15:56:52Z</time></trkpt><trkpt lat="38.0905702780425" lon="-2.7007356538748866"><ele>1455.0</ele><time>2026-04-20T15:56:53Z</time></trkpt><trkpt lat="38.09053191066537" lon="-2.7008107154893115"><ele>1455.5</ele><time>2026-04-20T15:56:54Z</time></trkpt><trkpt lat="38.0904743618563" lon="-2.700900147232881"><ele>1456.0</ele><time>2026-04-20T15:56:55Z</time></trkpt><trkpt lat="38.090425750505894" lon="-2.700975650675423"><ele>1456.5</ele><time>2026-04-20T15:56:56Z</time></trkpt><trkpt lat="38.09036362502852" lon="-2.7010697348897152"><ele>1457.0</ele><time>2026-04-20T15:56:57Z</time></trkpt><trkpt lat="38.0903076771937" lon="-2.70115792080303"><ele>1457.5</ele><time>2026-04-20T15:56:58Z</time></trkpt><trkpt lat="38.09026924590903" lon="-2.701247857173185"><ele>1458.0</ele><time>2026-04-20T15:56:59Z</time></trkpt><trkpt lat="38.090245987516575" lon="-2.7013469217010746"><ele>1459.2</ele><time>2026-04-20T15:57:00Z</time></trkpt><trkpt lat="38.09023376458655" lon="-2.7014591343450722"><ele>1460.4</ele><time>2026-04-20T15:57:01Z</time></trkpt><trkpt lat="38.0902065116638" lon="-2.701579208676354"><ele>1461.6000000000001</ele><time>2026-04-20T15:57:02Z</time></trkpt><trkpt lat="38.09015691585008" lon="-2.7016908834433466"><ele>1462.8000000000002</ele><time>2026-04-20T15:57:03Z</time></trkpt><trkpt lat="38.09011485411483" lon="-2.70180217990591"><ele>1464.0</ele><time>2026-04-20T15:57:04Z</time></trkpt><trkpt lat="38.09006115756679" lon="-2.7018812138454336"><ele>1466.8000000000002</ele><time>2026-04-20T15:57:05Z</time></trkpt><trkpt lat="38.089993596570885" lon="-2.7019452407811873"><ele>1469.6000000000001</ele><time>2026-04-20T15:57:06Z</time></trkpt><trkpt lat="38.089910132243894" lon="-2.7019900197877167"><ele>1472.4</ele><time>2026-04-20T15:57:07Z</time></trkpt><trkpt lat="38.08983609458714" lon="-2.702053950756897"><ele>1475.2</ele><time>2026-04-20T15:57:08Z</time></trkpt><trkpt lat="38.08976181914396" lon="-2.7021341834904944"><ele>1478.0</ele><time>2026-04-20T15:57:09Z</time></trkpt><trkpt lat="38.08971013348235" lon="-2.7022284201953877"><ele>1478.0</ele><time>2026-04-20T15:57:10Z</time></trkpt><trkpt lat="38.08963173255082" lon="-2.7023124738508275"><ele>1478.0</ele><time>2026-04-20T15:57:11Z</time></trkpt><trkpt lat="38.08956925737639" lon="-2.7023920311697958"><ele>1478.0</ele><time>2026-04-20T15:57:12Z</time></trkpt><trkpt lat="38.0894931227943" lon="-2.7024520728114827"><ele>1478.0</ele><time>2026-04-20T15:57:13Z</time></trkpt><trkpt lat="38.08938379525984" lon="-2.702427209584223"><ele>1478.0</ele><time>2026-04-20T15:57:13.999Z</time></trkpt><trkpt lat="38.08927318672704" lon="-2.702445350299759"><ele>1478.0</ele><time>2026-04-20T15:57:14.999Z</time></trkpt><trkpt lat="38.089162330482836" lon="-2.702406928926485"><ele>1478.0</ele><time>2026-04-20T15:57:15.999Z</time></trkpt><trkpt lat="38.08904817653092" lon="-2.7023740896066366"><ele>1478.0</ele><time>2026-04-20T15:57:16.999Z</time></trkpt><trkpt lat="38.08892411328634" lon="-2.7023270523305687"><ele>1478.0</ele><time>2026-04-20T15:57:17.999Z</time></trkpt><trkpt lat="38.088809336720374" lon="-2.7022716924729244"><ele>1481.5</ele><time>2026-04-20T15:57:18.999Z</time></trkpt><trkpt lat="38.0886790363937" lon="-2.702208676267727"><ele>1485.0</ele><time>2026-04-20T15:57:19.999Z</time></trkpt><trkpt lat="38.088553831847804" lon="-2.7021497099057408"><ele>1488.5</ele><time>2026-04-20T15:57:20.999Z</time></trkpt><trkpt lat="38.088445680757076" lon="-2.702102111436856"><ele>1492.0</ele><time>2026-04-20T15:57:21.999Z</time></trkpt><trkpt lat="38.088352991806104" lon="-2.702059825876293"><ele>1493.6</ele><time>2026-04-20T15:57:22.999Z</time></trkpt><trkpt lat="38.08825177616353" lon="-2.7020057853825397"><ele>1495.1999999999998</ele><time>2026-04-20T15:57:23.999Z</time></trkpt><trkpt lat="38.08816794832159" lon="-2.701926502011936"><ele>1496.8</ele><time>2026-04-20T15:57:24.999Z</time></trkpt><trkpt lat="38.08811349354419" lon="-2.701842228871131"><ele>1498.4</ele><time>2026-04-20T15:57:25.999Z</time></trkpt><trkpt lat="38.08803868495591" lon="-2.7017541119109274"><ele>1500.0</ele><time>2026-04-20T15:57:26.999Z</time></trkpt><trkpt lat="38.0879648325201" lon="-2.7016606726683174"><ele>1500.0</ele><time>2026-04-20T15:57:27.999Z</time></trkpt><trkpt lat="38.08788963627173" lon="-2.7015381603058213"><ele>1500.0</ele><time>2026-04-20T15:57:28.999Z</time></trkpt><trkpt lat="38.08781291007974" lon="-2.701432284055859"><ele>1500.0</ele><time>2026-04-20T15:57:29.999Z</time></trkpt><trkpt lat="38.08774784198662" lon="-2.7013351416168425"><ele>1500.0</ele><time>2026-04-20T15:57:30.999Z</time></trkpt><trkpt lat="38.08769986337615" lon="-2.7012575372195853"><ele>1500.0</ele><time>2026-04-20T15:57:31.999Z</time></trkpt><trkpt lat="38.087603613518574" lon="-2.7011734806864154"><ele>1500.0</ele><time>2026-04-20T15:57:33.999Z</time></trkpt><trkpt lat="38.08746501866559" lon="-2.701177084125007"><ele>1500.0</ele><time>2026-04-20T15:57:35.999Z</time></trkpt><trkpt lat="38.08737837761256" lon="-2.7012178362825106"><ele>1500.0</ele><time>2026-04-20T15:57:36.999Z</time></trkpt><trkpt lat="38.08726653344572" lon="-2.7012508414926577"><ele>1500.0</ele><time>2026-04-20T15:57:37.999Z</time></trkpt><trkpt lat="38.087141205312385" lon="-2.701260669467705"><ele>1501.75</ele><time>2026-04-20T15:57:38.999Z</time></trkpt><trkpt lat="38.08701517701517" lon="-2.7012911710258263"><ele>1503.5</ele><time>2026-04-20T15:57:39.999Z</time></trkpt><trkpt lat="38.08689452673075" lon="-2.701309834317518"><ele>1505.25</ele><time>2026-04-20T15:57:40.999Z</time></trkpt><trkpt lat="38.0867806192529" lon="-2.7013446199227444"><ele>1507.0</ele><time>2026-04-20T15:57:41.999Z</time></trkpt><trkpt lat="38.086682032063905" lon="-2.7013535503858965"><ele>1507.0</ele><time>2026-04-20T15:57:42.999Z</time></trkpt><trkpt lat="38.08659571655861" lon="-2.7013633870535996"><ele>1507.0</ele><time>2026-04-20T15:57:43.999Z</time></trkpt><trkpt lat="38.086522216826964" lon="-2.7013713001999733"><ele>1507.0</ele><time>2026-04-20T15:57:44.999Z</time></trkpt><trkpt lat="38.08645943604883" lon="-2.701390226272064"><ele>1507.0</ele><time>2026-04-20T15:57:45.999Z</time></trkpt><trkpt lat="38.0863961010394" lon="-2.701502719933371"><ele>1507.0</ele><time>2026-04-20T15:57:47.999Z</time></trkpt><trkpt lat="38.08630705479175" lon="-2.701554720248119"><ele>1507.0</ele><time>2026-04-20T15:57:49.999Z</time></trkpt><trkpt lat="38.086206599847806" lon="-2.701568445933864"><ele>1506.8333333333333</ele><time>2026-04-20T15:57:51.999Z</time></trkpt><trkpt lat="38.08613686468927" lon="-2.7015101160141284"><ele>1506.6666666666665</ele><time>2026-04-20T15:57:53.999Z</time></trkpt><trkpt lat="38.08604201475364" lon="-2.701459760874814"><ele>1506.5</ele><time>2026-04-20T15:57:55.999Z</time></trkpt><trkpt lat="38.08596136527888" lon="-2.7013708227965343"><ele>1506.3333333333333</ele><time>2026-04-20T15:57:57.999Z</time></trkpt><trkpt lat="38.085912015769914" lon="-2.7013207797237597"><ele>1506.1666666666667</ele><time>2026-04-20T15:57:58.999Z</time></trkpt><trkpt lat="38.08584498823828" lon="-2.7012665122420376"><ele>1506.0</ele><time>2026-04-20T15:57:59.999Z</time></trkpt><trkpt lat="38.085784447261204" lon="-2.701176224632302"><ele>1510.6</ele><time>2026-04-20T15:58:00.999Z</time></trkpt><trkpt lat="38.08571357265249" lon="-2.7010963975700957"><ele>1515.1999999999998</ele><time>2026-04-20T15:58:01.999Z</time></trkpt><trkpt lat="38.08566055511251" lon="-2.7010087304876076"><ele>1519.8000000000002</ele><time>2026-04-20T15:58:02.999Z</time></trkpt><trkpt lat="38.085624822192365" lon="-2.7009072794207802"><ele>1524.4</ele><time>2026-04-20T15:58:03.999Z</time></trkpt><trkpt lat="38.08559299530369" lon="-2.700787971659638"><ele>1529.0</ele><time>2026-04-20T15:58:04.999Z</time></trkpt><trkpt lat="38.08556077638703" lon="-2.7006760129174596"><ele>1529.0</ele><time>2026-04-20T15:58:06Z</time></trkpt><trkpt lat="38.08552468644681" lon="-2.7005665481304293"><ele>1529.0</ele><time>2026-04-20T15:58:07Z</time></trkpt><trkpt lat="38.085489278669044" lon="-2.700465616921831"><ele>1529.0</ele><time>2026-04-20T15:58:08Z</time></trkpt><trkpt lat="38.08545167144163" lon="-2.7003756954132254"><ele>1529.0</ele><time>2026-04-20T15:58:09Z</time></trkpt><trkpt lat="38.08540693658007" lon="-2.700286244775867"><ele>1529.0</ele><time>2026-04-20T15:58:10Z</time></trkpt><trkpt lat="38.08535130572399" lon="-2.700214462011814"><ele>1529.0</ele><time>2026-04-20T15:58:11Z</time></trkpt><trkpt lat="38.085295603105784" lon="-2.70014170675906"><ele>1527.4</ele><time>2026-04-20T15:58:12Z</time></trkpt><trkpt lat="38.085218821420426" lon="-2.70006405519458"><ele>1525.8000000000002</ele><time>2026-04-20T15:58:13Z</time></trkpt><trkpt lat="38.08513055075667" lon="-2.6999859266203976"><ele>1524.1999999999998</ele><time>2026-04-20T15:58:14Z</time></trkpt><trkpt lat="38.08503621199494" lon="-2.6998984376988133"><ele>1522.6</ele><time>2026-04-20T15:58:15Z</time></trkpt><trkpt lat="38.08494015271323" lon="-2.6998196110905024"><ele>1521.0</ele><time>2026-04-20T15:58:16Z</time></trkpt><trkpt lat="38.084850620976056" lon="-2.6997546940388166"><ele>1525.4</ele><time>2026-04-20T15:58:17Z</time></trkpt><trkpt lat="38.0847568798486" lon="-2.699675639016568"><ele>1529.8</ele><time>2026-04-20T15:58:18Z</time></trkpt><trkpt lat="38.08466471605079" lon="-2.6996034819732584"><ele>1534.2</ele><time>2026-04-20T15:58:19Z</time></trkpt><trkpt lat="38.08457975453059" lon="-2.6995505448954695"><ele>1538.6000000000001</ele><time>2026-04-20T15:58:20Z</time></trkpt><trkpt lat="38.08451616622713" lon="-2.699515147548481"><ele>1543.0</ele><time>2026-04-20T15:58:21Z</time></trkpt><trkpt lat="38.0844257199198" lon="-2.6994883062962556"><ele>1543.0</ele><time>2026-04-20T15:58:22Z</time></trkpt><trkpt lat="38.084324711467694" lon="-2.6994771224827687"><ele>1543.0</ele><time>2026-04-20T15:58:23Z</time></trkpt><trkpt lat="38.08420528809469" lon="-2.699472075932622"><ele>1543.0</ele><time>2026-04-20T15:58:24Z</time></trkpt><trkpt lat="38.08408874794786" lon="-2.6994673242812803"><ele>1543.0</ele><time>2026-04-20T15:58:25Z</time></trkpt><trkpt lat="38.08397725268093" lon="-2.6994695144741905"><ele>1543.0</ele><time>2026-04-20T15:58:26Z</time></trkpt><trkpt lat="38.083866700376596" lon="-2.6994613674284293"><ele>1544.1666666666667</ele><time>2026-04-20T15:58:27Z</time></trkpt><trkpt lat="38.083790878542544" lon="-2.699473085746092"><ele>1545.3333333333335</ele><time>2026-04-20T15:58:28Z</time></trkpt><trkpt lat="38.08372522335906" lon="-2.699412984911876"><ele>1546.5</ele><time>2026-04-20T15:58:29Z</time></trkpt><trkpt lat="38.08365264819083" lon="-2.699324253827023"><ele>1547.6666666666665</ele><time>2026-04-20T15:58:30Z</time></trkpt><trkpt lat="38.08358751174719" lon="-2.699250563029888"><ele>1548.8333333333333</ele><time>2026-04-20T15:58:31Z</time></trkpt><trkpt lat="38.08352121623808" lon="-2.699160443108018"><ele>1550.0</ele><time>2026-04-20T15:58:32Z</time></trkpt><trkpt lat="38.083464606563446" lon="-2.6990932054019003"><ele>1551.5</ele><time>2026-04-20T15:58:33Z</time></trkpt><trkpt lat="38.08337391656947" lon="-2.6989452800033935"><ele>1553.0</ele><time>2026-04-20T15:58:34Z</time></trkpt><trkpt lat="38.083304924594145" lon="-2.6988469065135297"><ele>1554.5</ele><time>2026-04-20T15:58:35Z</time></trkpt><trkpt lat="38.08322134199033" lon="-2.6987526800883272"><ele>1556.0</ele><time>2026-04-20T15:58:36Z</time></trkpt><trkpt lat="38.08314188377459" lon="-2.6986744746639855"><ele>1556.0</ele><time>2026-04-20T15:58:37Z</time></trkpt><trkpt lat="38.08304988059618" lon="-2.6986227164022463"><ele>1556.0</ele><time>2026-04-20T15:58:38Z</time></trkpt><trkpt lat="38.08296496139221" lon="-2.698570066781007"><ele>1556.0</ele><time>2026-04-20T15:58:39Z</time></trkpt><trkpt lat="38.08287660742097" lon="-2.698530840545027"><ele>1556.0</ele><time>2026-04-20T15:58:40Z</time></trkpt><trkpt lat="38.082764072501035" lon="-2.698504795368323"><ele>1556.0</ele><time>2026-04-20T15:58:41Z</time></trkpt><trkpt lat="38.08264136013655" lon="-2.6984777548551797"><ele>1552.4</ele><time>2026-04-20T15:58:42Z</time></trkpt><trkpt lat="38.08252311006944" lon="-2.6984690929202144"><ele>1548.8</ele><time>2026-04-20T15:58:43Z</time></trkpt><trkpt lat="38.0824127542088" lon="-2.698467711955106"><ele>1545.2</ele><time>2026-04-20T15:58:44Z</time></trkpt><trkpt lat="38.08230930420954" lon="-2.698454495618394"><ele>1541.6000000000001</ele><time>2026-04-20T15:58:45Z</time></trkpt><trkpt lat="38.08220678632119" lon="-2.6984349593491843"><ele>1538.0</ele><time>2026-04-20T15:58:46Z</time></trkpt><trkpt lat="38.08212429070197" lon="-2.6984306089899364"><ele>1537.9999999999998</ele><time>2026-04-20T15:58:47Z</time></trkpt><trkpt lat="38.0820458690478" lon="-2.6984211455770324"><ele>1538.0</ele><time>2026-04-20T15:58:48Z</time></trkpt><trkpt lat="38.0819681331468" lon="-2.698375746185065"><ele>1538.0</ele><time>2026-04-20T15:58:49Z</time></trkpt><trkpt lat="38.08190873067525" lon="-2.698346077769282"><ele>1538.0</ele><time>2026-04-20T15:58:50Z</time></trkpt><trkpt lat="38.081848219100785" lon="-2.6983042260010937"><ele>1537.9999999999998</ele><time>2026-04-20T15:58:51Z</time></trkpt><trkpt lat="38.08176023149816" lon="-2.698220607691367"><ele>1538.0</ele><time>2026-04-20T15:58:53Z</time></trkpt><trkpt lat="38.08166092289606" lon="-2.6981580403975545"><ele>1539.1666666666665</ele><time>2026-04-20T15:58:55Z</time></trkpt><trkpt lat="38.081561343045216" lon="-2.6980811067422628"><ele>1540.3333333333333</ele><time>2026-04-20T15:58:56.999Z</time></trkpt><trkpt lat="38.081482727230764" lon="-2.6980717332013175"><ele>1541.5</ele><time>2026-04-20T15:58:57.999Z</time></trkpt><trkpt lat="38.08140848051443" lon="-2.69802797446802"><ele>1542.6666666666665</ele><time>2026-04-20T15:58:58.999Z</time></trkpt><trkpt lat="38.08133631821862" lon="-2.6980019863313887"><ele>1543.8333333333333</ele><time>2026-04-20T15:58:59.999Z</time></trkpt><trkpt lat="38.08126890254494" lon="-2.697960258867254"><ele>1545.0</ele><time>2026-04-20T15:59:00.999Z</time></trkpt><trkpt lat="38.08120471470021" lon="-2.6978970694469457"><ele>1545.0</ele><time>2026-04-20T15:59:01.999Z</time></trkpt><trkpt lat="38.081165490931795" lon="-2.6978165582332942"><ele>1545.0</ele><time>2026-04-20T15:59:02.999Z</time></trkpt><trkpt lat="38.08112914248965" lon="-2.697711427549035"><ele>1545.0</ele><time>2026-04-20T15:59:03.999Z</time></trkpt><trkpt lat="38.08108640403685" lon="-2.697587606801618"><ele>1545.0</ele><time>2026-04-20T15:59:04.999Z</time></trkpt><trkpt lat="38.08102861894845" lon="-2.6974542296620383"><ele>1545.0</ele><time>2026-04-20T15:59:05.999Z</time></trkpt><trkpt lat="38.080962139946614" lon="-2.697327289797377"><ele>1542.5</ele><time>2026-04-20T15:59:06.999Z</time></trkpt><trkpt lat="38.08089060321635" lon="-2.6972078600983243"><ele>1540.0</ele><time>2026-04-20T15:59:07.999Z</time></trkpt><trkpt lat="38.080816668350366" lon="-2.6970827686437104"><ele>1537.5</ele><time>2026-04-20T15:59:08.999Z</time></trkpt><trkpt lat="38.080736897767764" lon="-2.696950298012253"><ele>1535.0</ele><time>2026-04-20T15:59:09.999Z</time></trkpt><trkpt lat="38.08065046287929" lon="-2.696827278570344"><ele>1540.5</ele><time>2026-04-20T15:59:10.999Z</time></trkpt><trkpt lat="38.08055453163528" lon="-2.6967142530917294"><ele>1546.0</ele><time>2026-04-20T15:59:11.999Z</time></trkpt><trkpt lat="38.080451537670335" lon="-2.696611808308994"><ele>1551.5</ele><time>2026-04-20T15:59:12.999Z</time></trkpt><trkpt lat="38.08034954101658" lon="-2.696511654636622"><ele>1557.0</ele><time>2026-04-20T15:59:13.999Z</time></trkpt><trkpt lat="38.08024669618353" lon="-2.6964016179434247"><ele>1557.0</ele><time>2026-04-20T15:59:14.999Z</time></trkpt><trkpt lat="38.08014525869545" lon="-2.6962978369176662"><ele>1557.0</ele><time>2026-04-20T15:59:15.999Z</time></trkpt><trkpt lat="38.08003005626098" lon="-2.696237272482604"><ele>1557.0</ele><time>2026-04-20T15:59:16.999Z</time></trkpt><trkpt lat="38.07992659741024" lon="-2.696154106412352"><ele>1557.0</ele><time>2026-04-20T15:59:17.999Z</time></trkpt><trkpt lat="38.0798236421097" lon="-2.6960565027109"><ele>1558.75</ele><time>2026-04-20T15:59:18.999Z</time></trkpt><trkpt lat="38.07972042221275" lon="-2.6959527685622224"><ele>1560.5</ele><time>2026-04-20T15:59:19.999Z</time></trkpt><trkpt lat="38.07961980985009" lon="-2.6958498745863135"><ele>1562.25</ele><time>2026-04-20T15:59:20.999Z</time></trkpt><trkpt lat="38.07953451128722" lon="-2.6957625174021804"><ele>1564.0</ele><time>2026-04-20T15:59:21.999Z</time></trkpt><trkpt lat="38.079464659308904" lon="-2.695682370258198"><ele>1564.0</ele><time>2026-04-20T15:59:22.999Z</time></trkpt><trkpt lat="38.07939145011746" lon="-2.695603022346881"><ele>1564.0</ele><time>2026-04-20T15:59:23.999Z</time></trkpt><trkpt lat="38.07932210740924" lon="-2.6955052070951186"><ele>1564.0</ele><time>2026-04-20T15:59:24.999Z</time></trkpt><trkpt lat="38.079260282225384" lon="-2.6954045666037847"><ele>1564.0</ele><time>2026-04-20T15:59:25.999Z</time></trkpt><trkpt lat="38.07921136425236" lon="-2.695292455280823"><ele>1564.0</ele><time>2026-04-20T15:59:26.999Z</time></trkpt><trkpt lat="38.07918462481493" lon="-2.6951772247386363"><ele>1565.75</ele><time>2026-04-20T15:59:27.999Z</time></trkpt><trkpt lat="38.07915802601155" lon="-2.6950366781999118"><ele>1567.5</ele><time>2026-04-20T15:59:28.999Z</time></trkpt><trkpt lat="38.07914425818747" lon="-2.694880413763855"><ele>1569.25</ele><time>2026-04-20T15:59:29.999Z</time></trkpt><trkpt lat="38.07911609396777" lon="-2.6947355990698743"><ele>1571.0</ele><time>2026-04-20T15:59:30.999Z</time></trkpt><trkpt lat="38.07908197986813" lon="-2.694620497314683"><ele>1571.0</ele><time>2026-04-20T15:59:31.999Z</time></trkpt><trkpt lat="38.07904076374089" lon="-2.6944933489990515"><ele>1571.0</ele><time>2026-04-20T15:59:32.999Z</time></trkpt><trkpt lat="38.07898919275125" lon="-2.694361997547452"><ele>1571.0</ele><time>2026-04-20T15:59:33.999Z</time></trkpt><trkpt lat="38.07892911424171" lon="-2.6942397048710505"><ele>1571.0</ele><time>2026-04-20T15:59:34.999Z</time></trkpt><trkpt lat="38.07887808265771" lon="-2.6941301071654724"><ele>1571.0</ele><time>2026-04-20T15:59:35.999Z</time></trkpt><trkpt lat="38.07881181901082" lon="-2.6940315930509704"><ele>1568.6</ele><time>2026-04-20T15:59:36.999Z</time></trkpt><trkpt lat="38.07873775366795" lon="-2.693953775727878"><ele>1566.1999999999998</ele><time>2026-04-20T15:59:37.999Z</time></trkpt><trkpt lat="38.078637324766326" lon="-2.693899200383095"><ele>1563.8000000000002</ele><time>2026-04-20T15:59:38.999Z</time></trkpt><trkpt lat="38.07854270078324" lon="-2.6938386628605033"><ele>1561.4</ele><time>2026-04-20T15:59:39.999Z</time></trkpt><trkpt lat="38.078447480126016" lon="-2.6938001365456414"><ele>1559.0</ele><time>2026-04-20T15:59:40.999Z</time></trkpt><trkpt lat="38.07835020845529" lon="-2.6937704946284713"><ele>1562.0</ele><time>2026-04-20T15:59:41.999Z</time></trkpt><trkpt lat="38.07822580767866" lon="-2.6937431163076067"><ele>1565.0</ele><time>2026-04-20T15:59:42.999Z</time></trkpt><trkpt lat="38.078097976717785" lon="-2.693724454387542"><ele>1568.0</ele><time>2026-04-20T15:59:43.999Z</time></trkpt><trkpt lat="38.07797836302979" lon="-2.6937058534153815"><ele>1571.0</ele><time>2026-04-20T15:59:44.999Z</time></trkpt><trkpt lat="38.0778542639574" lon="-2.693681621568147"><ele>1571.0</ele><time>2026-04-20T15:59:45.999Z</time></trkpt><trkpt lat="38.07773512684844" lon="-2.693654760434199"><ele>1571.0</ele><time>2026-04-20T15:59:46.999Z</time></trkpt><trkpt lat="38.07761369625809" lon="-2.6936382856344894"><ele>1571.0</ele><time>2026-04-20T15:59:47.999Z</time></trkpt><trkpt lat="38.07750263702169" lon="-2.6936057963567754"><ele>1571.0</ele><time>2026-04-20T15:59:48.999Z</time></trkpt><trkpt lat="38.07739815444258" lon="-2.6935582780207623"><ele>1571.25</ele><time>2026-04-20T15:59:49.999Z</time></trkpt><trkpt lat="38.07728778161654" lon="-2.6935138203978113"><ele>1571.5</ele><time>2026-04-20T15:59:50.999Z</time></trkpt><trkpt lat="38.07717255467143" lon="-2.6934663409242314"><ele>1571.75</ele><time>2026-04-20T15:59:51.999Z</time></trkpt><trkpt lat="38.07706054101355" lon="-2.693402937233974"><ele>1572.0</ele><time>2026-04-20T15:59:52.999Z</time></trkpt><trkpt lat="38.076949276464866" lon="-2.6933362591306813"><ele>1572.0</ele><time>2026-04-20T15:59:53.999Z</time></trkpt><trkpt lat="38.076852908934804" lon="-2.693276542420794"><ele>1572.0</ele><time>2026-04-20T15:59:54.999Z</time></trkpt><trkpt lat="38.07676276943377" lon="-2.6932024904287695"><ele>1572.0</ele><time>2026-04-20T15:59:55.999Z</time></trkpt><trkpt lat="38.076665932376606" lon="-2.6931196001597275"><ele>1572.0</ele><time>2026-04-20T15:59:56.999Z</time></trkpt><trkpt lat="38.07657192686384" lon="-2.6930073067740365"><ele>1574.25</ele><time>2026-04-20T15:59:57.999Z</time></trkpt><trkpt lat="38.07647618901133" lon="-2.6928923128429822"><ele>1576.5</ele><time>2026-04-20T15:59:58.999Z</time></trkpt><trkpt lat="38.07638735428135" lon="-2.692785527357415"><ele>1578.75</ele><time>2026-04-20T15:59:59.999Z</time></trkpt><trkpt lat="38.076304943208214" lon="-2.692675847021056"><ele>1581.0</ele><time>2026-04-20T16:00:00.999Z</time></trkpt><trkpt lat="38.07623627874808" lon="-2.6925500872167607"><ele>1581.0</ele><time>2026-04-20T16:00:01.999Z</time></trkpt><trkpt lat="38.0761685189235" lon="-2.692436368078356"><ele>1581.0</ele><time>2026-04-20T16:00:02.999Z</time></trkpt><trkpt lat="38.076112017253216" lon="-2.6923093059986547"><ele>1581.0</ele><time>2026-04-20T16:00:03.999Z</time></trkpt><trkpt lat="38.076068246926546" lon="-2.6921643679287985"><ele>1581.0</ele><time>2026-04-20T16:00:04.999Z</time></trkpt><trkpt lat="38.07602651297937" lon="-2.692009847034218"><ele>1582.25</ele><time>2026-04-20T16:00:05.999Z</time></trkpt><trkpt lat="38.075955932287386" lon="-2.6918876306053092"><ele>1583.5</ele><time>2026-04-20T16:00:06.999Z</time></trkpt><trkpt lat="38.07589327588493" lon="-2.691769808276642"><ele>1584.75</ele><time>2026-04-20T16:00:07.999Z</time></trkpt><trkpt lat="38.07582308364808" lon="-2.691667561696172"><ele>1586.0</ele><time>2026-04-20T16:00:08.999Z</time></trkpt><trkpt lat="38.0757442149746" lon="-2.6915614512162995"><ele>1586.75</ele><time>2026-04-20T16:00:09.999Z</time></trkpt><trkpt lat="38.07566832236819" lon="-2.6914483305309957"><ele>1587.5</ele><time>2026-04-20T16:00:10.999Z</time></trkpt><trkpt lat="38.075579245530996" lon="-2.691360251225505"><ele>1588.25</ele><time>2026-04-20T16:00:11.999Z</time></trkpt><trkpt lat="38.07546525704255" lon="-2.6912643662047984"><ele>1589.0</ele><time>2026-04-20T16:00:12.999Z</time></trkpt><trkpt lat="38.075359707629254" lon="-2.6911789306085"><ele>1589.0</ele><time>2026-04-20T16:00:13.999Z</time></trkpt><trkpt lat="38.0752463865212" lon="-2.6911101374879447"><ele>1589.0</ele><time>2026-04-20T16:00:15Z</time></trkpt><trkpt lat="38.07514700907127" lon="-2.6910519213423214"><ele>1589.0</ele><time>2026-04-20T16:00:16Z</time></trkpt><trkpt lat="38.07503315826998" lon="-2.6910183071665967"><ele>1589.0</ele><time>2026-04-20T16:00:17Z</time></trkpt><trkpt lat="38.07492066897657" lon="-2.6909842374698214"><ele>1589.8333333333333</ele><time>2026-04-20T16:00:18Z</time></trkpt><trkpt lat="38.07483363481515" lon="-2.6909414852003763"><ele>1590.6666666666665</ele><time>2026-04-20T16:00:19Z</time></trkpt><trkpt lat="38.07477474325861" lon="-2.6908925634858556"><ele>1591.5</ele><time>2026-04-20T16:00:20Z</time></trkpt><trkpt lat="38.07470323586051" lon="-2.690848071009511"><ele>1592.3333333333335</ele><time>2026-04-20T16:00:21Z</time></trkpt><trkpt lat="38.074648272873176" lon="-2.6907560370439754"><ele>1593.1666666666667</ele><time>2026-04-20T16:00:22Z</time></trkpt><trkpt lat="38.07460204120932" lon="-2.6906308972898003"><ele>1594.0</ele><time>2026-04-20T16:00:23Z</time></trkpt><trkpt lat="38.07455006171845" lon="-2.6904927419055493"><ele>1594.0</ele><time>2026-04-20T16:00:24Z</time></trkpt><trkpt lat="38.074485711386956" lon="-2.690380059902048"><ele>1594.0</ele><time>2026-04-20T16:00:25Z</time></trkpt><trkpt lat="38.07440337471359" lon="-2.690295432060661"><ele>1594.0</ele><time>2026-04-20T16:00:26Z</time></trkpt><trkpt lat="38.074305813215794" lon="-2.690202032396213"><ele>1594.0</ele><time>2026-04-20T16:00:27Z</time></trkpt><trkpt lat="38.07421582893018" lon="-2.690094203421403"><ele>1593.25</ele><time>2026-04-20T16:00:28Z</time></trkpt><trkpt lat="38.074124730957244" lon="-2.68999053669684"><ele>1592.5</ele><time>2026-04-20T16:00:29Z</time></trkpt><trkpt lat="38.074049411865985" lon="-2.689884388228554"><ele>1591.75</ele><time>2026-04-20T16:00:30Z</time></trkpt><trkpt lat="38.073966353895315" lon="-2.689786924037977"><ele>1591.0</ele><time>2026-04-20T16:00:31Z</time></trkpt><trkpt lat="38.073861529541006" lon="-2.689684605061486"><ele>1592.25</ele><time>2026-04-20T16:00:32Z</time></trkpt><trkpt lat="38.07377273197669" lon="-2.6895786351680666"><ele>1593.5</ele><time>2026-04-20T16:00:33Z</time></trkpt><trkpt lat="38.073678568048905" lon="-2.689482589451077"><ele>1594.75</ele><time>2026-04-20T16:00:34Z</time></trkpt><trkpt lat="38.07359780047702" lon="-2.6893810585309326"><ele>1596.0</ele><time>2026-04-20T16:00:35Z</time></trkpt><trkpt lat="38.07351921181353" lon="-2.68927989518521"><ele>1596.0</ele><time>2026-04-20T16:00:36Z</time></trkpt><trkpt lat="38.07344374242061" lon="-2.6891851877259056"><ele>1596.0</ele><time>2026-04-20T16:00:37Z</time></trkpt><trkpt lat="38.073357833275985" lon="-2.6890997402510504"><ele>1596.0</ele><time>2026-04-20T16:00:38Z</time></trkpt><trkpt lat="38.073268422719266" lon="-2.6890143329397826"><ele>1596.0</ele><time>2026-04-20T16:00:39Z</time></trkpt><trkpt lat="38.073174753483855" lon="-2.6889308394633367"><ele>1596.0</ele><time>2026-04-20T16:00:40Z</time></trkpt><trkpt lat="38.07307297936872" lon="-2.6888473834323596"><ele>1596.75</ele><time>2026-04-20T16:00:41Z</time></trkpt><trkpt lat="38.072973767238" lon="-2.688766223945888"><ele>1597.5</ele><time>2026-04-20T16:00:41.999Z</time></trkpt><trkpt lat="38.072880566527196" lon="-2.6886776447311767"><ele>1598.25</ele><time>2026-04-20T16:00:42.999Z</time></trkpt><trkpt lat="38.07277182013672" lon="-2.6886018655551807"><ele>1599.0</ele><time>2026-04-20T16:00:43.999Z</time></trkpt><trkpt lat="38.07266917402626" lon="-2.6885169245004197"><ele>1599.0</ele><time>2026-04-20T16:00:44.999Z</time></trkpt><trkpt lat="38.072568659894124" lon="-2.6884217705238047"><ele>1599.0</ele><time>2026-04-20T16:00:45.999Z</time></trkpt><trkpt lat="38.07248241216522" lon="-2.688326544830785"><ele>1599.0</ele><time>2026-04-20T16:00:46.999Z</time></trkpt><trkpt lat="38.072402051745215" lon="-2.6882305167747327"><ele>1599.0</ele><time>2026-04-20T16:00:47.999Z</time></trkpt><trkpt lat="38.072327904422615" lon="-2.6881237363226256"><ele>1599.8000000000002</ele><time>2026-04-20T16:00:48.999Z</time></trkpt><trkpt lat="38.07225064880439" lon="-2.6880152630029177"><ele>1600.6000000000001</ele><time>2026-04-20T16:00:49.999Z</time></trkpt><trkpt lat="38.072171927345245" lon="-2.687923416192432"><ele>1601.4</ele><time>2026-04-20T16:00:50.999Z</time></trkpt><trkpt lat="38.07207757591825" lon="-2.6878500364556035"><ele>1602.2</ele><time>2026-04-20T16:00:51.999Z</time></trkpt><trkpt lat="38.07199491645768" lon="-2.6877801405401316"><ele>1603.0</ele><time>2026-04-20T16:00:52.999Z</time></trkpt><trkpt lat="38.07190470838162" lon="-2.687701482082247"><ele>1603.0</ele><time>2026-04-20T16:00:53.999Z</time></trkpt><trkpt lat="38.071830148435495" lon="-2.6875830244656744"><ele>1603.0</ele><time>2026-04-20T16:00:54.999Z</time></trkpt><trkpt lat="38.071759373723786" lon="-2.687439184569292"><ele>1603.0</ele><time>2026-04-20T16:00:55.999Z</time></trkpt><trkpt lat="38.07168542947737" lon="-2.687293217297237"><ele>1603.0</ele><time>2026-04-20T16:00:56.999Z</time></trkpt><trkpt lat="38.07161387572733" lon="-2.6871683520618443"><ele>1602.0</ele><time>2026-04-20T16:00:57.999Z</time></trkpt><trkpt lat="38.071534181857345" lon="-2.6870330909571276"><ele>1601.0</ele><time>2026-04-20T16:00:58.999Z</time></trkpt><trkpt lat="38.07144987548986" lon="-2.686918841742604"><ele>1600.0</ele><time>2026-04-20T16:00:59.999Z</time></trkpt><trkpt lat="38.07139853774128" lon="-2.6868270182469676"><ele>1599.0</ele><time>2026-04-20T16:01:00.999Z</time></trkpt><trkpt lat="38.07135976072572" lon="-2.6867431823650727"><ele>1598.0</ele><time>2026-04-20T16:01:01.999Z</time></trkpt><trkpt lat="38.071293019762834" lon="-2.68663730394111"><ele>1598.0</ele><time>2026-04-20T16:01:02.999Z</time></trkpt><trkpt lat="38.0712263126111" lon="-2.686512405318185"><ele>1598.0</ele><time>2026-04-20T16:01:03.999Z</time></trkpt><trkpt lat="38.07116602084042" lon="-2.686378666522824"><ele>1598.0</ele><time>2026-04-20T16:01:04.999Z</time></trkpt><trkpt lat="38.0711249801146" lon="-2.6862542284437216"><ele>1598.0</ele><time>2026-04-20T16:01:05.999Z</time></trkpt><trkpt lat="38.0710836090704" lon="-2.6861045899748555"><ele>1597.0</ele><time>2026-04-20T16:01:06.999Z</time></trkpt><trkpt lat="38.07105861450202" lon="-2.6859503685768757"><ele>1596.0</ele><time>2026-04-20T16:01:07.999Z</time></trkpt><trkpt lat="38.071049886632906" lon="-2.68579972497893"><ele>1595.0</ele><time>2026-04-20T16:01:08.999Z</time></trkpt><trkpt lat="38.07105770042452" lon="-2.6856603038151436"><ele>1594.0</ele><time>2026-04-20T16:01:09.999Z</time></trkpt><trkpt lat="38.071083409769145" lon="-2.6855209067005266"><ele>1594.0</ele><time>2026-04-20T16:01:10.999Z</time></trkpt><trkpt lat="38.07112882553581" lon="-2.685370912546605"><ele>1594.0</ele><time>2026-04-20T16:01:11.999Z</time></trkpt><trkpt lat="38.07119373254418" lon="-2.685214581822296"><ele>1594.0</ele><time>2026-04-20T16:01:12.999Z</time></trkpt><trkpt lat="38.0712581489669" lon="-2.6850518977140396"><ele>1594.0</ele><time>2026-04-20T16:01:13.999Z</time></trkpt><trkpt lat="38.07130352426094" lon="-2.68490767672421"><ele>1594.0</ele><time>2026-04-20T16:01:14.999Z</time></trkpt><trkpt lat="38.07133467129391" lon="-2.6847789736619183"><ele>1594.0</ele><time>2026-04-20T16:01:15.999Z</time></trkpt><trkpt lat="38.07138011531781" lon="-2.684666877095962"><ele>1594.0</ele><time>2026-04-20T16:01:16.999Z</time></trkpt><trkpt lat="38.07144639107888" lon="-2.6845585740954783"><ele>1594.0</ele><time>2026-04-20T16:01:17.999Z</time></trkpt><trkpt lat="38.071551763502484" lon="-2.684448723956405"><ele>1597.3333333333335</ele><time>2026-04-20T16:01:18.999Z</time></trkpt><trkpt lat="38.07165292569392" lon="-2.684307922414311"><ele>1600.6666666666665</ele><time>2026-04-20T16:01:19.999Z</time></trkpt><trkpt lat="38.07176257821092" lon="-2.684169870513083"><ele>1604.0</ele><time>2026-04-20T16:01:20.999Z</time></trkpt><trkpt lat="38.071851601084475" lon="-2.684011112459663"><ele>1604.0</ele><time>2026-04-20T16:01:21.999Z</time></trkpt><trkpt lat="38.07194067995216" lon="-2.6838475476100405"><ele>1604.0</ele><time>2026-04-20T16:01:22.999Z</time></trkpt><trkpt lat="38.072040761895515" lon="-2.68369226456698"><ele>1604.0</ele><time>2026-04-20T16:01:23.999Z</time></trkpt><trkpt lat="38.07213988241989" lon="-2.6835418539169997"><ele>1604.6666666666665</ele><time>2026-04-20T16:01:24.999Z</time></trkpt><trkpt lat="38.07224133644726" lon="-2.683400003141225"><ele>1605.3333333333335</ele><time>2026-04-20T16:01:25.999Z</time></trkpt><trkpt lat="38.07234840479526" lon="-2.6832634354435645"><ele>1606.0</ele><time>2026-04-20T16:01:26.999Z</time></trkpt><trkpt lat="38.072445135366245" lon="-2.6831047363883034"><ele>1606.0</ele><time>2026-04-20T16:01:27.999Z</time></trkpt><trkpt lat="38.07253725501401" lon="-2.68294512627338"><ele>1606.0</ele><time>2026-04-20T16:01:28.999Z</time></trkpt><trkpt lat="38.07262786883345" lon="-2.6827822534317636"><ele>1606.0</ele><time>2026-04-20T16:01:29.999Z</time></trkpt><trkpt lat="38.07272303764715" lon="-2.682625380642766"><ele>1604.0</ele><time>2026-04-20T16:01:30.999Z</time></trkpt><trkpt lat="38.07282858820052" lon="-2.6824617577752976"><ele>1602.0</ele><time>2026-04-20T16:01:31.999Z</time></trkpt><trkpt lat="38.072912913001716" lon="-2.68231520603276"><ele>1600.0</ele><time>2026-04-20T16:01:32.999Z</time></trkpt><trkpt lat="38.07297848366911" lon="-2.6821977190860307"><ele>1598.0</ele><time>2026-04-20T16:01:33.999Z</time></trkpt><trkpt lat="38.07304079342766" lon="-2.682100754552253"><ele>1597.9999999999998</ele><time>2026-04-20T16:01:34.999Z</time></trkpt><trkpt lat="38.07308217436407" lon="-2.6820153850014314"><ele>1598.0</ele><time>2026-04-20T16:01:35.999Z</time></trkpt><trkpt lat="38.073114020655865" lon="-2.681935544946664"><ele>1598.0</ele><time>2026-04-20T16:01:36.999Z</time></trkpt><trkpt lat="38.07312296556955" lon="-2.6818483082969546"><ele>1598.0</ele><time>2026-04-20T16:01:37.999Z</time></trkpt><trkpt lat="38.07311102420456" lon="-2.681757471910828"><ele>1597.9999999999998</ele><time>2026-04-20T16:01:38.999Z</time></trkpt><trkpt lat="38.073084290665754" lon="-2.68165838262019"><ele>1598.0</ele><time>2026-04-20T16:01:39.999Z</time></trkpt><trkpt lat="38.07305582052051" lon="-2.6815565596585635"><ele>1598.3333333333333</ele><time>2026-04-20T16:01:40.999Z</time></trkpt><trkpt lat="38.07299834699914" lon="-2.681457352282391"><ele>1598.6666666666665</ele><time>2026-04-20T16:01:41.999Z</time></trkpt><trkpt lat="38.072946527601076" lon="-2.681383093259136"><ele>1599.0</ele><time>2026-04-20T16:01:42.999Z</time></trkpt><trkpt lat="38.07288651161747" lon="-2.681337996022983"><ele>1599.3333333333335</ele><time>2026-04-20T16:01:43.999Z</time></trkpt><trkpt lat="38.07281578720057" lon="-2.6813008380644767"><ele>1599.6666666666667</ele><time>2026-04-20T16:01:44.999Z</time></trkpt><trkpt lat="38.07272771387043" lon="-2.6813024004759667"><ele>1600.0</ele><time>2026-04-20T16:01:45.999Z</time></trkpt><trkpt lat="38.07260583127641" lon="-2.681323671206542"><ele>1600.0</ele><time>2026-04-20T16:01:46.999Z</time></trkpt><trkpt lat="38.072465104118216" lon="-2.6813669147766523"><ele>1600.0</ele><time>2026-04-20T16:01:47.999Z</time></trkpt><trkpt lat="38.07231027428451" lon="-2.6814548871538495"><ele>1600.0</ele><time>2026-04-20T16:01:48.999Z</time></trkpt><trkpt lat="38.07213318899726" lon="-2.6815868803129623"><ele>1600.0</ele><time>2026-04-20T16:01:49.999Z</time></trkpt><trkpt lat="38.07194394744477" lon="-2.6817564740051476"><ele>1600.0</ele><time>2026-04-20T16:01:50.999Z</time></trkpt><trkpt lat="38.07176420744894" lon="-2.6819522405495144"><ele>1600.0</ele><time>2026-04-20T16:01:51.999Z</time></trkpt><trkpt lat="38.07160741183586" lon="-2.6821429007048327"><ele>1600.0</ele><time>2026-04-20T16:01:52.999Z</time></trkpt><trkpt lat="38.071461451964545" lon="-2.6823107532625508"><ele>1600.0</ele><time>2026-04-20T16:01:53.999Z</time></trkpt><trkpt lat="38.07134851111352" lon="-2.6824973968484658"><ele>1599.6666666666667</ele><time>2026-04-20T16:01:54.999Z</time></trkpt><trkpt lat="38.071189649052954" lon="-2.682641551889446"><ele>1599.3333333333335</ele><time>2026-04-20T16:01:55.999Z</time></trkpt><trkpt lat="38.07103811067701" lon="-2.6828040060096705"><ele>1599.0</ele><time>2026-04-20T16:01:56.999Z</time></trkpt><trkpt lat="38.07091018782313" lon="-2.6829754434225808"><ele>1599.0</ele><time>2026-04-20T16:01:57.999Z</time></trkpt><trkpt lat="38.070792851855025" lon="-2.683118079673"><ele>1599.0</ele><time>2026-04-20T16:01:58.999Z</time></trkpt><trkpt lat="38.07069328728591" lon="-2.6832535208747603"><ele>1599.0</ele><time>2026-04-20T16:01:59.999Z</time></trkpt><trkpt lat="38.070619464044626" lon="-2.6833926396444774"><ele>1599.0</ele><time>2026-04-20T16:02:00.999Z</time></trkpt><trkpt lat="38.070524757364446" lon="-2.6835369074834214"><ele>1598.0</ele><time>2026-04-20T16:02:01.999Z</time></trkpt><trkpt lat="38.07037917900914" lon="-2.6837020455216067"><ele>1597.0</ele><time>2026-04-20T16:02:02.999Z</time></trkpt><trkpt lat="38.07019227057045" lon="-2.6838895501551896"><ele>1596.0</ele><time>2026-04-20T16:02:03.999Z</time></trkpt><trkpt lat="38.07001731969835" lon="-2.684074366979097"><ele>1596.3333333333335</ele><time>2026-04-20T16:02:04.999Z</time></trkpt><trkpt lat="38.06987568287479" lon="-2.6842345675709827"><ele>1596.6666666666667</ele><time>2026-04-20T16:02:05.999Z</time></trkpt><trkpt lat="38.06973963360297" lon="-2.684413106717242"><ele>1597.0</ele><time>2026-04-20T16:02:06.999Z</time></trkpt><trkpt lat="38.06960257476559" lon="-2.684586465950111"><ele>1597.0</ele><time>2026-04-20T16:02:07.999Z</time></trkpt><trkpt lat="38.06945054331734" lon="-2.684742788638309"><ele>1597.0</ele><time>2026-04-20T16:02:08.999Z</time></trkpt><trkpt lat="38.069325895604365" lon="-2.684892199277184"><ele>1597.0</ele><time>2026-04-20T16:02:09.998Z</time></trkpt><trkpt lat="38.06920545631654" lon="-2.6850211302422493"><ele>1596.75</ele><time>2026-04-20T16:02:10.998Z</time></trkpt><trkpt lat="38.069078467723706" lon="-2.6851384315364744"><ele>1596.5</ele><time>2026-04-20T16:02:11.998Z</time></trkpt><trkpt lat="38.06896930309037" lon="-2.685224651044022"><ele>1596.25</ele><time>2026-04-20T16:02:12.998Z</time></trkpt><trkpt lat="38.06886269806979" lon="-2.6852834621110304"><ele>1596.0</ele><time>2026-04-20T16:02:13.998Z</time></trkpt><trkpt lat="38.06876578774525" lon="-2.6853375521974927"><ele>1596.0</ele><time>2026-04-20T16:02:14.998Z</time></trkpt><trkpt lat="38.06866896864058" lon="-2.685363828593933"><ele>1596.0</ele><time>2026-04-20T16:02:15.998Z</time></trkpt><trkpt lat="38.06856974603115" lon="-2.6853858972296534"><ele>1596.0</ele><time>2026-04-20T16:02:16.998Z</time></trkpt><trkpt lat="38.06845733980962" lon="-2.6853675382490056"><ele>1596.0</ele><time>2026-04-20T16:02:18Z</time></trkpt><trkpt lat="38.06832090078697" lon="-2.68531428256186"><ele>1597.25</ele><time>2026-04-20T16:02:19Z</time></trkpt><trkpt lat="38.068160531881155" lon="-2.685234787476271"><ele>1598.5</ele><time>2026-04-20T16:02:20Z</time></trkpt><trkpt lat="38.06801870543808" lon="-2.685171382321526"><ele>1599.75</ele><time>2026-04-20T16:02:21Z</time></trkpt><trkpt lat="38.06790991296479" lon="-2.6851054480527354"><ele>1601.0</ele><time>2026-04-20T16:02:22Z</time></trkpt><trkpt lat="38.06777450630239" lon="-2.685029243404677"><ele>1601.0</ele><time>2026-04-20T16:02:23Z</time></trkpt><trkpt lat="38.067661316057674" lon="-2.6849430772370737"><ele>1601.0</ele><time>2026-04-20T16:02:24Z</time></trkpt><trkpt lat="38.06757050264666" lon="-2.684854915347043"><ele>1601.0</ele><time>2026-04-20T16:02:25Z</time></trkpt><trkpt lat="38.06749571705701" lon="-2.684755721488621"><ele>1601.0</ele><time>2026-04-20T16:02:26Z</time></trkpt><trkpt lat="38.06743808281914" lon="-2.6846629006720164"><ele>1601.0</ele><time>2026-04-20T16:02:27Z</time></trkpt><trkpt lat="38.067378570894924" lon="-2.6845902359991207"><ele>1601.9999999999998</ele><time>2026-04-20T16:02:28Z</time></trkpt><trkpt lat="38.06730693449556" lon="-2.6845450590850897"><ele>1603.0</ele><time>2026-04-20T16:02:29Z</time></trkpt><trkpt lat="38.067224062261815" lon="-2.6845234555042317"><ele>1604.0</ele><time>2026-04-20T16:02:30Z</time></trkpt><trkpt lat="38.06714944441478" lon="-2.6845318712337534"><ele>1605.0</ele><time>2026-04-20T16:02:31Z</time></trkpt><trkpt lat="38.067077391853154" lon="-2.6845844826005614"><ele>1605.9999999999998</ele><time>2026-04-20T16:02:32Z</time></trkpt><trkpt lat="38.06700509480751" lon="-2.6846520282466373"><ele>1607.0</ele><time>2026-04-20T16:02:33Z</time></trkpt><trkpt lat="38.066946778194705" lon="-2.6846969433751515"><ele>1607.0</ele><time>2026-04-20T16:02:34Z</time></trkpt><trkpt lat="38.06684573267328" lon="-2.6846986896346987"><ele>1607.0</ele><time>2026-04-20T16:02:36Z</time></trkpt><trkpt lat="38.06674891706437" lon="-2.684623899988816"><ele>1607.0</ele><time>2026-04-20T16:02:38Z</time></trkpt><trkpt lat="38.06666308601918" lon="-2.6845459167452757"><ele>1607.0</ele><time>2026-04-20T16:02:40Z</time></trkpt><trkpt lat="38.06660586061659" lon="-2.6844712860612474"><ele>1607.0</ele><time>2026-04-20T16:08:12.999Z</time></trkpt><trkpt lat="38.06651408272126" lon="-2.684342391208998"><ele>1611.6</ele><time>2026-04-20T16:08:14.999Z</time></trkpt><trkpt lat="38.066476506819996" lon="-2.6842609774487385"><ele>1616.1999999999998</ele><time>2026-04-20T16:08:15.999Z</time></trkpt><trkpt lat="38.066456660072646" lon="-2.684159000917588"><ele>1620.8</ele><time>2026-04-20T16:08:16.999Z</time></trkpt><trkpt lat="38.066443368310324" lon="-2.684039652634143"><ele>1625.4</ele><time>2026-04-20T16:08:17.999Z</time></trkpt><trkpt lat="38.06643990713717" lon="-2.683904215289199"><ele>1630.0</ele><time>2026-04-20T16:08:18.999Z</time></trkpt><trkpt lat="38.06643735162499" lon="-2.6837486434432445"><ele>1630.0</ele><time>2026-04-20T16:08:19.999Z</time></trkpt><trkpt lat="38.06642452688801" lon="-2.6835972471574503"><ele>1630.0</ele><time>2026-04-20T16:08:20.999Z</time></trkpt><trkpt lat="38.06638481371716" lon="-2.6834401304133237"><ele>1630.0</ele><time>2026-04-20T16:08:21.999Z</time></trkpt><trkpt lat="38.066333936932104" lon="-2.683281093746105"><ele>1630.0</ele><time>2026-04-20T16:08:22.999Z</time></trkpt><trkpt lat="38.06627402638724" lon="-2.6831216853295397"><ele>1629.5</ele><time>2026-04-20T16:08:23.999Z</time></trkpt><trkpt lat="38.06621603885095" lon="-2.6829559478953167"><ele>1629.0</ele><time>2026-04-20T16:08:24.999Z</time></trkpt><trkpt lat="38.0661579357568" lon="-2.682795847514822"><ele>1628.5</ele><time>2026-04-20T16:08:25.999Z</time></trkpt><trkpt lat="38.066091412856125" lon="-2.682646495389372"><ele>1628.0</ele><time>2026-04-20T16:08:26.999Z</time></trkpt><trkpt lat="38.06600613020163" lon="-2.68251193942926"><ele>1628.8000000000002</ele><time>2026-04-20T16:08:27.999Z</time></trkpt><trkpt lat="38.06592149384258" lon="-2.682382838216124"><ele>1629.6</ele><time>2026-04-20T16:08:28.999Z</time></trkpt><trkpt lat="38.06584982466827" lon="-2.682263492007801"><ele>1630.4</ele><time>2026-04-20T16:08:29.999Z</time></trkpt><trkpt lat="38.06579278236516" lon="-2.6821555529276053"><ele>1631.1999999999998</ele><time>2026-04-20T16:08:30.999Z</time></trkpt><trkpt lat="38.06575479297134" lon="-2.6820479944138023"><ele>1632.0</ele><time>2026-04-20T16:08:31.999Z</time></trkpt><trkpt lat="38.065743047197415" lon="-2.681919411630883"><ele>1632.0</ele><time>2026-04-20T16:08:32.999Z</time></trkpt><trkpt lat="38.06575945450731" lon="-2.6817837672653924"><ele>1632.0</ele><time>2026-04-20T16:08:33.999Z</time></trkpt><trkpt lat="38.065802361048505" lon="-2.6816336031385637"><ele>1632.0</ele><time>2026-04-20T16:08:34.999Z</time></trkpt><trkpt lat="38.06586200797008" lon="-2.681477949811897"><ele>1632.0</ele><time>2026-04-20T16:08:36Z</time></trkpt><trkpt lat="38.06592516145077" lon="-2.681306921407976"><ele>1629.5</ele><time>2026-04-20T16:08:37Z</time></trkpt><trkpt lat="38.06598940574231" lon="-2.6811328066764006"><ele>1627.0</ele><time>2026-04-20T16:08:38Z</time></trkpt><trkpt lat="38.06606052451419" lon="-2.6809631709773534"><ele>1624.5</ele><time>2026-04-20T16:08:39Z</time></trkpt><trkpt lat="38.066136903883105" lon="-2.680807056463301"><ele>1622.0</ele><time>2026-04-20T16:08:40Z</time></trkpt><trkpt lat="38.066212921916346" lon="-2.680641031433823"><ele>1622.0</ele><time>2026-04-20T16:08:41Z</time></trkpt><trkpt lat="38.06628768304403" lon="-2.6804744471743276"><ele>1622.0</ele><time>2026-04-20T16:08:42Z</time></trkpt><trkpt lat="38.06636502745308" lon="-2.6803047177011696"><ele>1622.0</ele><time>2026-04-20T16:08:43Z</time></trkpt><trkpt lat="38.06644359587844" lon="-2.680143035423433"><ele>1620.6666666666665</ele><time>2026-04-20T16:08:44Z</time></trkpt><trkpt lat="38.06653272957565" lon="-2.679976509162101"><ele>1619.3333333333335</ele><time>2026-04-20T16:08:45Z</time></trkpt><trkpt lat="38.06663026457799" lon="-2.6798185815595694"><ele>1618.0</ele><time>2026-04-20T16:08:46Z</time></trkpt><trkpt lat="38.06673348695165" lon="-2.679673232362618"><ele>1618.0</ele><time>2026-04-20T16:08:47Z</time></trkpt><trkpt lat="38.066839285875005" lon="-2.679523327756032"><ele>1618.0</ele><time>2026-04-20T16:08:48Z</time></trkpt><trkpt lat="38.06694635154462" lon="-2.679373291931358"><ele>1618.0</ele><time>2026-04-20T16:08:49Z</time></trkpt><trkpt lat="38.06705017229409" lon="-2.679224501965999"><ele>1621.5</ele><time>2026-04-20T16:08:50Z</time></trkpt><trkpt lat="38.06715308731458" lon="-2.6790784811930224"><ele>1625.0</ele><time>2026-04-20T16:08:51Z</time></trkpt><trkpt lat="38.06725026247294" lon="-2.6789410698909113"><ele>1628.5</ele><time>2026-04-20T16:08:52Z</time></trkpt><trkpt lat="38.06734146813862" lon="-2.678809711712088"><ele>1632.0</ele><time>2026-04-20T16:08:53Z</time></trkpt><trkpt lat="38.06742664173322" lon="-2.6786808013396084"><ele>1631.5</ele><time>2026-04-20T16:08:54Z</time></trkpt><trkpt lat="38.06750803305899" lon="-2.678555551205426"><ele>1631.0</ele><time>2026-04-20T16:08:55Z</time></trkpt><trkpt lat="38.06758046556995" lon="-2.678408109679735"><ele>1630.5</ele><time>2026-04-20T16:08:56Z</time></trkpt><trkpt lat="38.06764459921509" lon="-2.6782382195099426"><ele>1630.0</ele><time>2026-04-20T16:08:57Z</time></trkpt><trkpt lat="38.06769172334796" lon="-2.678066401890512"><ele>1630.0</ele><time>2026-04-20T16:08:58Z</time></trkpt><trkpt lat="38.0677441123868" lon="-2.6779117936253507"><ele>1630.0</ele><time>2026-04-20T16:08:59Z</time></trkpt><trkpt lat="38.06781977925667" lon="-2.6777738350392126"><ele>1630.0</ele><time>2026-04-20T16:09:00Z</time></trkpt><trkpt lat="38.067898814323286" lon="-2.6776413875897846"><ele>1630.0</ele><time>2026-04-20T16:09:01Z</time></trkpt><trkpt lat="38.067988758885555" lon="-2.6775206797924174"><ele>1629.5</ele><time>2026-04-20T16:09:02Z</time></trkpt><trkpt lat="38.068082049094116" lon="-2.677387734072007"><ele>1629.0</ele><time>2026-04-20T16:09:03Z</time></trkpt><trkpt lat="38.06818033492729" lon="-2.677261691309482"><ele>1628.5</ele><time>2026-04-20T16:09:04Z</time></trkpt><trkpt lat="38.068284213533005" lon="-2.6771422390228072"><ele>1628.0</ele><time>2026-04-20T16:09:05Z</time></trkpt><trkpt lat="38.06838634288788" lon="-2.6770258282370096"><ele>1631.25</ele><time>2026-04-20T16:09:06Z</time></trkpt><trkpt lat="38.06848560125675" lon="-2.676905914865925"><ele>1634.5</ele><time>2026-04-20T16:09:07Z</time></trkpt><trkpt lat="38.0685800199303" lon="-2.676779006984454"><ele>1637.75</ele><time>2026-04-20T16:09:08Z</time></trkpt><trkpt lat="38.06866904536442" lon="-2.6766456202047033"><ele>1641.0</ele><time>2026-04-20T16:09:09Z</time></trkpt><trkpt lat="38.06874906368016" lon="-2.676508907676887"><ele>1641.0</ele><time>2026-04-20T16:09:10Z</time></trkpt><trkpt lat="38.068822473748625" lon="-2.676377538808969"><ele>1641.0</ele><time>2026-04-20T16:09:11Z</time></trkpt><trkpt lat="38.068897992959656" lon="-2.6762478828938336"><ele>1641.0</ele><time>2026-04-20T16:09:12Z</time></trkpt><trkpt lat="38.068964803920444" lon="-2.676120775264815"><ele>1641.0</ele><time>2026-04-20T16:09:13Z</time></trkpt><trkpt lat="38.06900158512289" lon="-2.6759964366906037"><ele>1642.1666666666667</ele><time>2026-04-20T16:09:14Z</time></trkpt><trkpt lat="38.06902545689569" lon="-2.6758721342746052"><ele>1643.3333333333335</ele><time>2026-04-20T16:09:15Z</time></trkpt><trkpt lat="38.06903762987286" lon="-2.6757821722745883"><ele>1644.5</ele><time>2026-04-20T16:09:16Z</time></trkpt><trkpt lat="38.06901536548244" lon="-2.67568976079989"><ele>1645.6666666666667</ele><time>2026-04-20T16:09:17Z</time></trkpt><trkpt lat="38.06897039521249" lon="-2.675619611361761"><ele>1646.8333333333335</ele><time>2026-04-20T16:09:18Z</time></trkpt><trkpt lat="38.06888780304472" lon="-2.675587225833636"><ele>1648.0</ele><time>2026-04-20T16:09:19Z</time></trkpt><trkpt lat="38.068769190711976" lon="-2.675571791054188"><ele>1648.0</ele><time>2026-04-20T16:09:20Z</time></trkpt><trkpt lat="38.0686085747487" lon="-2.6755576857755394"><ele>1648.0</ele><time>2026-04-20T16:09:21Z</time></trkpt><trkpt lat="38.068451096011756" lon="-2.67551751029088"><ele>1648.0</ele><time>2026-04-20T16:09:22Z</time></trkpt><trkpt lat="38.068317147884606" lon="-2.6754548823410333"><ele>1650.75</ele><time>2026-04-20T16:09:23Z</time></trkpt><trkpt lat="38.068201925784784" lon="-2.675361693792218"><ele>1653.5</ele><time>2026-04-20T16:09:24Z</time></trkpt><trkpt lat="38.06811602870574" lon="-2.6752248677482466"><ele>1656.25</ele><time>2026-04-20T16:09:25Z</time></trkpt><trkpt lat="38.068042281493184" lon="-2.6750641974944434"><ele>1659.0</ele><time>2026-04-20T16:09:26Z</time></trkpt><trkpt lat="38.06798776202518" lon="-2.6748688050279545"><ele>1659.0</ele><time>2026-04-20T16:09:27Z</time></trkpt><trkpt lat="38.0679162562828" lon="-2.6746780779279247"><ele>1659.0</ele><time>2026-04-20T16:09:28Z</time></trkpt><trkpt lat="38.067855861668306" lon="-2.6745397813824474"><ele>1659.0</ele><time>2026-04-20T16:09:29Z</time></trkpt><trkpt lat="38.06776203323767" lon="-2.674413727623642"><ele>1659.0</ele><time>2026-04-20T16:09:30Z</time></trkpt><trkpt lat="38.06763606108179" lon="-2.674266798984481"><ele>1658.3333333333335</ele><time>2026-04-20T16:09:31Z</time></trkpt><trkpt lat="38.067492945746885" lon="-2.6741093143871244"><ele>1657.6666666666667</ele><time>2026-04-20T16:09:32Z</time></trkpt><trkpt lat="38.06737673143838" lon="-2.6739632100468764"><ele>1657.0</ele><time>2026-04-20T16:09:33Z</time></trkpt><trkpt lat="38.067285735839526" lon="-2.6738266814204144"><ele>1657.0</ele><time>2026-04-20T16:09:34Z</time></trkpt><trkpt lat="38.06720536215955" lon="-2.6737100405925016"><ele>1657.0</ele><time>2026-04-20T16:09:35Z</time></trkpt><trkpt lat="38.06712482358325" lon="-2.6736064479462263"><ele>1657.0</ele><time>2026-04-20T16:09:36Z</time></trkpt><trkpt lat="38.067021302728826" lon="-2.6734963885263245"><ele>1657.0</ele><time>2026-04-20T16:09:36.999Z</time></trkpt><trkpt lat="38.06691409552157" lon="-2.6734460649998266"><ele>1657.0</ele><time>2026-04-20T16:09:37.999Z</time></trkpt><trkpt lat="38.066774847313035" lon="-2.6734373737865145"><ele>1657.0</ele><time>2026-04-20T16:09:38.999Z</time></trkpt><trkpt lat="38.06662769775441" lon="-2.6734553991707872"><ele>1657.0</ele><time>2026-04-20T16:09:39.999Z</time></trkpt><trkpt lat="38.06650728842779" lon="-2.673479476566486"><ele>1657.0</ele><time>2026-04-20T16:09:40.999Z</time></trkpt><trkpt lat="38.066402793534024" lon="-2.6734857597520265"><ele>1658.0</ele><time>2026-04-20T16:09:41.999Z</time></trkpt><trkpt lat="38.06632410707271" lon="-2.6734614114817035"><ele>1659.0</ele><time>2026-04-20T16:09:42.999Z</time></trkpt><trkpt lat="38.066249954973124" lon="-2.6733965270613558"><ele>1660.0</ele><time>2026-04-20T16:09:43.999Z</time></trkpt><trkpt lat="38.06620319574623" lon="-2.673283936079667"><ele>1661.0</ele><time>2026-04-20T16:09:44.999Z</time></trkpt><trkpt lat="38.066182363433605" lon="-2.673132853876093"><ele>1662.0</ele><time>2026-04-20T16:09:45.999Z</time></trkpt><trkpt lat="38.066186268230865" lon="-2.67294989088917"><ele>1663.6666666666665</ele><time>2026-04-20T16:09:46.999Z</time></trkpt><trkpt lat="38.066204971469446" lon="-2.6727367716995447"><ele>1665.3333333333333</ele><time>2026-04-20T16:09:47.999Z</time></trkpt><trkpt lat="38.0662418111943" lon="-2.6724898168774773"><ele>1667.0</ele><time>2026-04-20T16:09:48.999Z</time></trkpt><trkpt lat="38.06624959927688" lon="-2.6722298521240133"><ele>1667.0</ele><time>2026-04-20T16:09:49.999Z</time></trkpt><trkpt lat="38.066262339014" lon="-2.6719447275911246"><ele>1667.0</ele><time>2026-04-20T16:09:50.999Z</time></trkpt><trkpt lat="38.06629107121696" lon="-2.671687048409168"><ele>1667.0</ele><time>2026-04-20T16:09:51.999Z</time></trkpt><trkpt lat="38.0663227351145" lon="-2.6714477162432897"><ele>1670.0</ele><time>2026-04-20T16:09:52.999Z</time></trkpt><trkpt lat="38.06635397608356" lon="-2.671228479720037"><ele>1673.0</ele><time>2026-04-20T16:09:53.999Z</time></trkpt><trkpt lat="38.06638206059819" lon="-2.6710167295636147"><ele>1676.0</ele><time>2026-04-20T16:09:54.999Z</time></trkpt><trkpt lat="38.06640442935377" lon="-2.6708329237197006"><ele>1677.25</ele><time>2026-04-20T16:09:55.999Z</time></trkpt><trkpt lat="38.06642287999299" lon="-2.6706645920873275"><ele>1678.5</ele><time>2026-04-20T16:09:56.999Z</time></trkpt><trkpt lat="38.06642834153404" lon="-2.6705126152321776"><ele>1679.75</ele><time>2026-04-20T16:09:57.999Z</time></trkpt><trkpt lat="38.06643839355553" lon="-2.6703613841109606"><ele>1681.0</ele><time>2026-04-20T16:09:58.999Z</time></trkpt><trkpt lat="38.066428349956425" lon="-2.6702335775707167"><ele>1682.1666666666667</ele><time>2026-04-20T16:09:59.999Z</time></trkpt><trkpt lat="38.066406185688244" lon="-2.6701317664216373"><ele>1683.3333333333335</ele><time>2026-04-20T16:10:00.999Z</time></trkpt><trkpt lat="38.066351532885854" lon="-2.6700530926617434"><ele>1684.5</ele><time>2026-04-20T16:10:01.999Z</time></trkpt><trkpt lat="38.066267916187144" lon="-2.670002072450436"><ele>1685.6666666666665</ele><time>2026-04-20T16:10:02.999Z</time></trkpt><trkpt lat="38.06618522664786" lon="-2.6699978912678515"><ele>1686.8333333333333</ele><time>2026-04-20T16:10:03.999Z</time></trkpt><trkpt lat="38.06610273055341" lon="-2.6700382573914654"><ele>1688.0</ele><time>2026-04-20T16:10:04.999Z</time></trkpt><trkpt lat="38.06600449339891" lon="-2.6701406522340503"><ele>1686.0</ele><time>2026-04-20T16:10:05.999Z</time></trkpt><trkpt lat="38.065910894249335" lon="-2.670298842851631"><ele>1684.0</ele><time>2026-04-20T16:10:06.999Z</time></trkpt><trkpt lat="38.06580822822259" lon="-2.67047485800099"><ele>1682.0</ele><time>2026-04-20T16:10:07.999Z</time></trkpt><trkpt lat="38.0657049495958" lon="-2.6706148204912235"><ele>1682.0</ele><time>2026-04-20T16:10:08.999Z</time></trkpt><trkpt lat="38.06559696390202" lon="-2.6707247087614117"><ele>1682.0</ele><time>2026-04-20T16:10:09.999Z</time></trkpt><trkpt lat="38.065482344468975" lon="-2.670806581363655"><ele>1682.0</ele><time>2026-04-20T16:10:10.999Z</time></trkpt><trkpt lat="38.0653550546668" lon="-2.6708584794733485"><ele>1682.0</ele><time>2026-04-20T16:10:11.999Z</time></trkpt><trkpt lat="38.065230817583135" lon="-2.67087854532577"><ele>1682.0</ele><time>2026-04-20T16:10:12.999Z</time></trkpt><trkpt lat="38.06512097053713" lon="-2.670896141089965"><ele>1682.0</ele><time>2026-04-20T16:10:13.999Z</time></trkpt><trkpt lat="38.06502474741929" lon="-2.6708819011767475"><ele>1682.0</ele><time>2026-04-20T16:10:14.999Z</time></trkpt><trkpt lat="38.06492556487022" lon="-2.670829064651305"><ele>1682.0</ele><time>2026-04-20T16:10:15.999Z</time></trkpt><trkpt lat="38.064828416026444" lon="-2.6707554766918657"><ele>1682.0</ele><time>2026-04-20T16:10:16.999Z</time></trkpt><trkpt lat="38.06475239973126" lon="-2.6706862333334227"><ele>1681.1666666666665</ele><time>2026-04-20T16:10:17.999Z</time></trkpt><trkpt lat="38.06468140666949" lon="-2.670625429443681"><ele>1680.3333333333333</ele><time>2026-04-20T16:10:18.999Z</time></trkpt><trkpt lat="38.06461026911633" lon="-2.6705610951403935"><ele>1679.5</ele><time>2026-04-20T16:10:19.999Z</time></trkpt><trkpt lat="38.06453918850455" lon="-2.6705034571001676"><ele>1678.6666666666665</ele><time>2026-04-20T16:10:20.999Z</time></trkpt><trkpt lat="38.064472502033894" lon="-2.6704481175193107"><ele>1677.8333333333333</ele><time>2026-04-20T16:10:21.999Z</time></trkpt><trkpt lat="38.064409580635065" lon="-2.670395911867918"><ele>1677.0</ele><time>2026-04-20T16:10:22.999Z</time></trkpt><trkpt lat="38.06434231022526" lon="-2.6703336385461007"><ele>1676.5</ele><time>2026-04-20T16:10:23.999Z</time></trkpt><trkpt lat="38.064277620730216" lon="-2.670267756197665"><ele>1676.0</ele><time>2026-04-20T16:10:24.999Z</time></trkpt><trkpt lat="38.06421375713064" lon="-2.6702045364619336"><ele>1675.5</ele><time>2026-04-20T16:10:25.999Z</time></trkpt><trkpt lat="38.06415124875675" lon="-2.67014620346478"><ele>1675.0</ele><time>2026-04-20T16:10:26.999Z</time></trkpt><trkpt lat="38.0640855254673" lon="-2.6700957566144314"><ele>1674.5</ele><time>2026-04-20T16:10:27.999Z</time></trkpt><trkpt lat="38.064013074525114" lon="-2.670046733941782"><ele>1674.0</ele><time>2026-04-20T16:10:28.999Z</time></trkpt><trkpt lat="38.06394747953134" lon="-2.670004741205614"><ele>1672.7142857142858</ele><time>2026-04-20T16:10:29.999Z</time></trkpt><trkpt lat="38.0638834973869" lon="-2.669967537723758"><ele>1671.4285714285716</ele><time>2026-04-20T16:10:30.999Z</time></trkpt><trkpt lat="38.06381509150369" lon="-2.6699393526335466"><ele>1670.142857142857</ele><time>2026-04-20T16:10:31.999Z</time></trkpt><trkpt lat="38.06374362506812" lon="-2.669911285839618"><ele>1668.857142857143</ele><time>2026-04-20T16:10:32.999Z</time></trkpt><trkpt lat="38.06367757208603" lon="-2.6698847533740153"><ele>1667.5714285714284</ele><time>2026-04-20T16:10:33.999Z</time></trkpt><trkpt lat="38.06360632480799" lon="-2.6698443788587776"><ele>1666.2857142857142</ele><time>2026-04-20T16:10:34.999Z</time></trkpt><trkpt lat="38.06353299969186" lon="-2.6698056039003877"><ele>1665.0</ele><time>2026-04-20T16:10:35.999Z</time></trkpt><trkpt lat="38.06344738153963" lon="-2.6697729612619217"><ele>1665.0</ele><time>2026-04-20T16:10:36.999Z</time></trkpt><trkpt lat="38.06336111065644" lon="-2.669753160919162"><ele>1665.0</ele><time>2026-04-20T16:10:37.999Z</time></trkpt><trkpt lat="38.063260020143616" lon="-2.6697352637479197"><ele>1665.0</ele><time>2026-04-20T16:10:38.999Z</time></trkpt><trkpt lat="38.0631533978349" lon="-2.6697165544766266"><ele>1665.0</ele><time>2026-04-20T16:10:39.999Z</time></trkpt><trkpt lat="38.06304591058534" lon="-2.6696901845478553"><ele>1665.0</ele><time>2026-04-20T16:10:40.999Z</time></trkpt><trkpt lat="38.06293969526675" lon="-2.6696612526448718"><ele>1663.75</ele><time>2026-04-20T16:10:42Z</time></trkpt><trkpt lat="38.062820294653335" lon="-2.6696287847406333"><ele>1662.5</ele><time>2026-04-20T16:10:43Z</time></trkpt><trkpt lat="38.062697283875444" lon="-2.6695983496920617"><ele>1661.25</ele><time>2026-04-20T16:10:44Z</time></trkpt><trkpt lat="38.062580561192036" lon="-2.669565696673317"><ele>1660.0</ele><time>2026-04-20T16:10:45Z</time></trkpt><trkpt lat="38.0624674713538" lon="-2.669538494046114"><ele>1660.75</ele><time>2026-04-20T16:10:46Z</time></trkpt><trkpt lat="38.062353752930875" lon="-2.66952123970674"><ele>1661.5</ele><time>2026-04-20T16:10:47Z</time></trkpt><trkpt lat="38.062232616766465" lon="-2.669531290626271"><ele>1662.25</ele><time>2026-04-20T16:10:48Z</time></trkpt><trkpt lat="38.06211211854687" lon="-2.6695585399067117"><ele>1663.0</ele><time>2026-04-20T16:10:49Z</time></trkpt><trkpt lat="38.06199438901656" lon="-2.6695733583377015"><ele>1663.0</ele><time>2026-04-20T16:10:50Z</time></trkpt><trkpt lat="38.06187135959671" lon="-2.6695433164721485"><ele>1663.0</ele><time>2026-04-20T16:10:51Z</time></trkpt><trkpt lat="38.06174589832589" lon="-2.6694779932776367"><ele>1663.0</ele><time>2026-04-20T16:10:52Z</time></trkpt><trkpt lat="38.06161715853949" lon="-2.6693982628117086"><ele>1663.0</ele><time>2026-04-20T16:10:53Z</time></trkpt><trkpt lat="38.06148947423844" lon="-2.6693007045950643"><ele>1660.5</ele><time>2026-04-20T16:10:54Z</time></trkpt><trkpt lat="38.06137183222279" lon="-2.669208584614267"><ele>1658.0</ele><time>2026-04-20T16:10:55Z</time></trkpt><trkpt lat="38.06125981380759" lon="-2.669129778334083"><ele>1655.5</ele><time>2026-04-20T16:10:56Z</time></trkpt><trkpt lat="38.06115140797412" lon="-2.6690620106109986"><ele>1653.0</ele><time>2026-04-20T16:10:57Z</time></trkpt><trkpt lat="38.06104063507027" lon="-2.6690038967169194"><ele>1653.0</ele><time>2026-04-20T16:10:58Z</time></trkpt><trkpt lat="38.060929490235715" lon="-2.6689617178000926"><ele>1653.0</ele><time>2026-04-20T16:10:59Z</time></trkpt><trkpt lat="38.06080581290758" lon="-2.668957612288596"><ele>1653.0</ele><time>2026-04-20T16:11:00Z</time></trkpt><trkpt lat="38.06067279101963" lon="-2.66898596073356"><ele>1653.0</ele><time>2026-04-20T16:11:01Z</time></trkpt><trkpt lat="38.06053508790511" lon="-2.6690501156190374"><ele>1652.25</ele><time>2026-04-20T16:11:02Z</time></trkpt><trkpt lat="38.060400955701304" lon="-2.669138185823861"><ele>1651.5</ele><time>2026-04-20T16:11:03Z</time></trkpt><trkpt lat="38.060277775153395" lon="-2.6692227039434147"><ele>1650.75</ele><time>2026-04-20T16:11:04Z</time></trkpt><trkpt lat="38.060176366589225" lon="-2.6692904276989706"><ele>1650.0</ele><time>2026-04-20T16:11:05Z</time></trkpt><trkpt lat="38.06007234960739" lon="-2.669344114427807"><ele>1648.75</ele><time>2026-04-20T16:11:06Z</time></trkpt><trkpt lat="38.059946352002555" lon="-2.6693682540864008"><ele>1647.5</ele><time>2026-04-20T16:11:07Z</time></trkpt><trkpt lat="38.059815232961846" lon="-2.6693483987988227"><ele>1646.25</ele><time>2026-04-20T16:11:08Z</time></trkpt><trkpt lat="38.05969428767183" lon="-2.669305606547641"><ele>1645.0</ele><time>2026-04-20T16:11:09Z</time></trkpt><trkpt lat="38.05957952034642" lon="-2.6692790017348247"><ele>1645.0</ele><time>2026-04-20T16:11:10Z</time></trkpt><trkpt lat="38.05945049669444" lon="-2.6693114711655572"><ele>1645.0</ele><time>2026-04-20T16:11:11Z</time></trkpt><trkpt lat="38.05929663995021" lon="-2.6694103970113168"><ele>1645.0</ele><time>2026-04-20T16:11:12Z</time></trkpt><trkpt lat="38.05912922403437" lon="-2.6695500164163706"><ele>1650.0</ele><time>2026-04-20T16:11:12.999Z</time></trkpt><trkpt lat="38.058948229200574" lon="-2.6696797490053825"><ele>1655.0</ele><time>2026-04-20T16:11:13.999Z</time></trkpt><trkpt lat="38.058775771322026" lon="-2.6698014075979093"><ele>1660.0</ele><time>2026-04-20T16:11:15Z</time></trkpt><trkpt lat="38.05862650114062" lon="-2.669906647369091"><ele>1660.0</ele><time>2026-04-20T16:11:15.999Z</time></trkpt><trkpt lat="38.05849015863095" lon="-2.669977071992867"><ele>1660.0</ele><time>2026-04-20T16:11:16.999Z</time></trkpt><trkpt lat="38.058347220763814" lon="-2.670004374941626"><ele>1660.0</ele><time>2026-04-20T16:11:17.999Z</time></trkpt><trkpt lat="38.05819146408235" lon="-2.6700137616811093"><ele>1660.0</ele><time>2026-04-20T16:11:18.999Z</time></trkpt><trkpt lat="38.058038422344914" lon="-2.670000384809485"><ele>1662.0</ele><time>2026-04-20T16:11:19.999Z</time></trkpt><trkpt lat="38.05789415626649" lon="-2.6699582926642127"><ele>1664.0</ele><time>2026-04-20T16:11:20.999Z</time></trkpt><trkpt lat="38.05776892365698" lon="-2.669875437353649"><ele>1666.0</ele><time>2026-04-20T16:11:21.999Z</time></trkpt><trkpt lat="38.05764929292894" lon="-2.6698090975148934"><ele>1668.0</ele><time>2026-04-20T16:11:22.999Z</time></trkpt><trkpt lat="38.05752081072763" lon="-2.66978702803274"><ele>1668.6666666666665</ele><time>2026-04-20T16:11:23.999Z</time></trkpt><trkpt lat="38.05737373866307" lon="-2.669802181100414"><ele>1669.3333333333333</ele><time>2026-04-20T16:11:24.999Z</time></trkpt><trkpt lat="38.05720894574082" lon="-2.6698300194607265"><ele>1670.0</ele><time>2026-04-20T16:11:25.999Z</time></trkpt><trkpt lat="38.05703352838633" lon="-2.669878152212947"><ele>1670.0</ele><time>2026-04-20T16:11:26.999Z</time></trkpt><trkpt lat="38.056855448310664" lon="-2.669929352552488"><ele>1670.0</ele><time>2026-04-20T16:11:27.999Z</time></trkpt><trkpt lat="38.056665237201905" lon="-2.6700030893131603"><ele>1670.0</ele><time>2026-04-20T16:11:28.999Z</time></trkpt><trkpt lat="38.056466047668835" lon="-2.670065760256477"><ele>1669.6666666666665</ele><time>2026-04-20T16:11:29.999Z</time></trkpt><trkpt lat="38.05625655257109" lon="-2.6701116249522396"><ele>1669.3333333333335</ele><time>2026-04-20T16:11:30.999Z</time></trkpt><trkpt lat="38.05605596376868" lon="-2.6701531934498006"><ele>1669.0</ele><time>2026-04-20T16:11:31.999Z</time></trkpt><trkpt lat="38.055855532631625" lon="-2.6702029285541458"><ele>1671.3333333333335</ele><time>2026-04-20T16:11:32.999Z</time></trkpt><trkpt lat="38.05565398831101" lon="-2.670259558613047"><ele>1673.6666666666665</ele><time>2026-04-20T16:11:33.999Z</time></trkpt><trkpt lat="38.05544446142763" lon="-2.6703048636910873"><ele>1676.0</ele><time>2026-04-20T16:11:34.999Z</time></trkpt><trkpt lat="38.05525396685436" lon="-2.6703408970095666"><ele>1685.0</ele><time>2026-04-20T16:11:35.999Z</time></trkpt><trkpt lat="38.055080598165006" lon="-2.6703732036144117"><ele>1694.0</ele><time>2026-04-20T16:11:36.999Z</time></trkpt><trkpt lat="38.05490685860646" lon="-2.6703999522056465"><ele>1703.0</ele><time>2026-04-20T16:11:37.999Z</time></trkpt><trkpt lat="38.054731125863626" lon="-2.6704241600759193"><ele>1703.0</ele><time>2026-04-20T16:11:38.999Z</time></trkpt><trkpt lat="38.05454549324607" lon="-2.6704293105135886"><ele>1703.0</ele><time>2026-04-20T16:11:39.999Z</time></trkpt><trkpt lat="38.05433767122209" lon="-2.67042247528374"><ele>1703.0</ele><time>2026-04-20T16:11:40.999Z</time></trkpt><trkpt lat="38.05413186105555" lon="-2.6703964744348223"><ele>1704.0</ele><time>2026-04-20T16:11:41.999Z</time></trkpt><trkpt lat="38.05392348914482" lon="-2.670378787647518"><ele>1705.0</ele><time>2026-04-20T16:11:42.999Z</time></trkpt><trkpt lat="38.05371264185051" lon="-2.6703766949946366"><ele>1706.0</ele><time>2026-04-20T16:11:43.999Z</time></trkpt><trkpt lat="38.05351323031868" lon="-2.6703693588220947"><ele>1706.0</ele><time>2026-04-20T16:11:44.999Z</time></trkpt><trkpt lat="38.053307829062256" lon="-2.6703460662877205"><ele>1706.0</ele><time>2026-04-20T16:11:45.999Z</time></trkpt><trkpt lat="38.05309728173358" lon="-2.67032675253875"><ele>1706.0</ele><time>2026-04-20T16:11:46.999Z</time></trkpt><trkpt lat="38.05289467635298" lon="-2.670317900409719"><ele>1707.6666666666665</ele><time>2026-04-20T16:11:47.999Z</time></trkpt><trkpt lat="38.05270456519197" lon="-2.6702973831288856"><ele>1709.3333333333335</ele><time>2026-04-20T16:11:48.999Z</time></trkpt><trkpt lat="38.052554545937625" lon="-2.6702783603322415"><ele>1711.0</ele><time>2026-04-20T16:11:49.999Z</time></trkpt><trkpt lat="38.05242659654101" lon="-2.67026030315725"><ele>1712.5</ele><time>2026-04-20T16:11:50.999Z</time></trkpt><trkpt lat="38.05230616208112" lon="-2.6702470539589944"><ele>1714.0</ele><time>2026-04-20T16:11:51.999Z</time></trkpt><trkpt lat="38.05216832193459" lon="-2.6702718939605985"><ele>1715.5</ele><time>2026-04-20T16:11:52.999Z</time></trkpt><trkpt lat="38.05200566429255" lon="-2.6703333622801733"><ele>1717.0</ele><time>2026-04-20T16:11:53.999Z</time></trkpt><trkpt lat="38.05184257037235" lon="-2.670387654631167"><ele>1717.0</ele><time>2026-04-20T16:11:54.999Z</time></trkpt><trkpt lat="38.051675879199905" lon="-2.6704494206306704"><ele>1717.0</ele><time>2026-04-20T16:11:55.999Z</time></trkpt><trkpt lat="38.05151388269995" lon="-2.67051696157621"><ele>1717.0</ele><time>2026-04-20T16:11:56.999Z</time></trkpt><trkpt lat="38.05135871389754" lon="-2.670585672013143"><ele>1716.5</ele><time>2026-04-20T16:11:57.999Z</time></trkpt><trkpt lat="38.05122823402554" lon="-2.670625732286603"><ele>1716.0</ele><time>2026-04-20T16:11:58.999Z</time></trkpt><trkpt lat="38.05110613647991" lon="-2.670660564314619"><ele>1715.5</ele><time>2026-04-20T16:11:59.999Z</time></trkpt><trkpt lat="38.05098250905017" lon="-2.67069544415162"><ele>1715.0</ele><time>2026-04-20T16:12:00.999Z</time></trkpt><trkpt lat="38.05084936339749" lon="-2.6707292990399987"><ele>1713.5</ele><time>2026-04-20T16:12:01.999Z</time></trkpt><trkpt lat="38.05071687187061" lon="-2.670775748208636"><ele>1712.0</ele><time>2026-04-20T16:12:02.999Z</time></trkpt><trkpt lat="38.050597404386366" lon="-2.6708239810458796"><ele>1710.5</ele><time>2026-04-20T16:12:03.999Z</time></trkpt><trkpt lat="38.05048244157436" lon="-2.6708632997846213"><ele>1709.0</ele><time>2026-04-20T16:12:04.999Z</time></trkpt><trkpt lat="38.0503602923511" lon="-2.670898110527125"><ele>1709.0</ele><time>2026-04-20T16:12:05.999Z</time></trkpt><trkpt lat="38.05024328047169" lon="-2.67092420752672"><ele>1709.0</ele><time>2026-04-20T16:12:06.999Z</time></trkpt><trkpt lat="38.050132393133865" lon="-2.6709483950477195"><ele>1709.0</ele><time>2026-04-20T16:12:07.999Z</time></trkpt><trkpt lat="38.05002559226303" lon="-2.670970069736756"><ele>1709.0</ele><time>2026-04-20T16:12:08.999Z</time></trkpt><trkpt lat="38.04993368450655" lon="-2.6709901491643966"><ele>1709.0</ele><time>2026-04-20T16:12:09.999Z</time></trkpt><trkpt lat="38.04984979306171" lon="-2.6710082253490697"><ele>1705.6</ele><time>2026-04-20T16:12:10.999Z</time></trkpt><trkpt lat="38.04976112847344" lon="-2.671024559815583"><ele>1702.2</ele><time>2026-04-20T16:12:11.999Z</time></trkpt><trkpt lat="38.04966697397772" lon="-2.6710111086094956"><ele>1698.8</ele><time>2026-04-20T16:12:12.999Z</time></trkpt><trkpt lat="38.04958184268057" lon="-2.670950003985796"><ele>1695.3999999999999</ele><time>2026-04-20T16:12:13.999Z</time></trkpt><trkpt lat="38.04949434938424" lon="-2.670863535692369"><ele>1692.0</ele><time>2026-04-20T16:12:14.999Z</time></trkpt><trkpt lat="38.04941392498408" lon="-2.6707606257323824"><ele>1692.0</ele><time>2026-04-20T16:12:15.999Z</time></trkpt><trkpt lat="38.04933152335285" lon="-2.6706553100615413"><ele>1692.0</ele><time>2026-04-20T16:12:16.999Z</time></trkpt><trkpt lat="38.04923815231787" lon="-2.6705492713005743"><ele>1692.0</ele><time>2026-04-20T16:12:17.999Z</time></trkpt><trkpt lat="38.049144735133765" lon="-2.6704504230258252"><ele>1692.0</ele><time>2026-04-20T16:12:18.999Z</time></trkpt><trkpt lat="38.04905376065596" lon="-2.670354596297585"><ele>1689.6</ele><time>2026-04-20T16:12:19.999Z</time></trkpt><trkpt lat="38.04895790543998" lon="-2.67026655530982"><ele>1687.1999999999998</ele><time>2026-04-20T16:12:20.999Z</time></trkpt><trkpt lat="38.04887215186653" lon="-2.6701827014256363"><ele>1684.8</ele><time>2026-04-20T16:12:21.999Z</time></trkpt><trkpt lat="38.04878847047237" lon="-2.6701047613337114"><ele>1682.4</ele><time>2026-04-20T16:12:22.999Z</time></trkpt><trkpt lat="38.04871540228127" lon="-2.6700359520006653"><ele>1680.0</ele><time>2026-04-20T16:12:23.999Z</time></trkpt><trkpt lat="38.048649393280066" lon="-2.6699546734630255"><ele>1680.0</ele><time>2026-04-20T16:12:24.999Z</time></trkpt><trkpt lat="38.04859752366594" lon="-2.669859568894461"><ele>1680.0</ele><time>2026-04-20T16:12:25.999Z</time></trkpt><trkpt lat="38.04856261667097" lon="-2.669751063598432"><ele>1680.0</ele><time>2026-04-20T16:12:26.999Z</time></trkpt><trkpt lat="38.04854923517522" lon="-2.6696241644969203"><ele>1680.0</ele><time>2026-04-20T16:12:27.999Z</time></trkpt><trkpt lat="38.0485498240123" lon="-2.669481498152274"><ele>1680.0</ele><time>2026-04-20T16:12:28.999Z</time></trkpt><trkpt lat="38.0485598260027" lon="-2.6693254918285065"><ele>1679.8333333333333</ele><time>2026-04-20T16:12:29.999Z</time></trkpt><trkpt lat="38.0485617305815" lon="-2.669196626536811"><ele>1679.6666666666665</ele><time>2026-04-20T16:12:30.998Z</time></trkpt><trkpt lat="38.04856636588052" lon="-2.6690830319035364"><ele>1679.5</ele><time>2026-04-20T16:12:31.998Z</time></trkpt><trkpt lat="38.04856966637822" lon="-2.668985302622364"><ele>1679.3333333333333</ele><time>2026-04-20T16:12:32.998Z</time></trkpt><trkpt lat="38.048553176734366" lon="-2.6688839191019347"><ele>1679.1666666666665</ele><time>2026-04-20T16:12:33.998Z</time></trkpt><trkpt lat="38.04851164832742" lon="-2.6687931253900214"><ele>1679.0</ele><time>2026-04-20T16:12:34.998Z</time></trkpt><trkpt lat="38.04844673898046" lon="-2.6687236520042963"><ele>1679.0</ele><time>2026-04-20T16:12:35.998Z</time></trkpt><trkpt lat="38.04835861980839" lon="-2.668676347967705"><ele>1679.0</ele><time>2026-04-20T16:12:36.998Z</time></trkpt><trkpt lat="38.04826305466777" lon="-2.6686612610450746"><ele>1679.0</ele><time>2026-04-20T16:12:37.998Z</time></trkpt><trkpt lat="38.04817335622373" lon="-2.6686630682094883"><ele>1679.0</ele><time>2026-04-20T16:12:38.998Z</time></trkpt><trkpt lat="38.048080773935126" lon="-2.668674169875052"><ele>1679.0</ele><time>2026-04-20T16:12:39.998Z</time></trkpt><trkpt lat="38.0479905975706" lon="-2.668709987976072"><ele>1675.4</ele><time>2026-04-20T16:12:40.998Z</time></trkpt><trkpt lat="38.04790581311227" lon="-2.6687711884089125"><ele>1671.8000000000002</ele><time>2026-04-20T16:12:41.998Z</time></trkpt><trkpt lat="38.0478429189759" lon="-2.6688711535044747"><ele>1668.1999999999998</ele><time>2026-04-20T16:12:42.998Z</time></trkpt><trkpt lat="38.04779849619087" lon="-2.669000810789218"><ele>1664.6</ele><time>2026-04-20T16:12:43.998Z</time></trkpt><trkpt lat="38.04777035803041" lon="-2.669141496450743"><ele>1661.0</ele><time>2026-04-20T16:12:44.998Z</time></trkpt><trkpt lat="38.04774866048942" lon="-2.669266098124859"><ele>1661.0</ele><time>2026-04-20T16:12:45.998Z</time></trkpt><trkpt lat="38.04773206739333" lon="-2.6693847113983438"><ele>1661.0</ele><time>2026-04-20T16:12:46.998Z</time></trkpt><trkpt lat="38.04774022992039" lon="-2.6694943959441257"><ele>1661.0</ele><time>2026-04-20T16:12:48Z</time></trkpt><trkpt lat="38.04778690931094" lon="-2.6696227023963526"><ele>1661.0</ele><time>2026-04-20T16:12:49Z</time></trkpt><trkpt lat="38.04784910410031" lon="-2.669745297352035"><ele>1661.0</ele><time>2026-04-20T16:12:50Z</time></trkpt><trkpt lat="38.04789984919101" lon="-2.6698471549732385"><ele>1661.8</ele><time>2026-04-20T16:12:51Z</time></trkpt><trkpt lat="38.04792352617786" lon="-2.669964320317166"><ele>1662.6</ele><time>2026-04-20T16:12:52Z</time></trkpt><trkpt lat="38.04792577574525" lon="-2.6701004967004716"><ele>1663.4</ele><time>2026-04-20T16:12:53Z</time></trkpt><trkpt lat="38.04790870462405" lon="-2.6702311138601638"><ele>1664.2</ele><time>2026-04-20T16:12:54Z</time></trkpt><trkpt lat="38.047885685540145" lon="-2.6703508662218107"><ele>1665.0</ele><time>2026-04-20T16:12:55Z</time></trkpt><trkpt lat="38.04783235352341" lon="-2.670448656619231"><ele>1669.5</ele><time>2026-04-20T16:12:56Z</time></trkpt><trkpt lat="38.04776276290271" lon="-2.6705238814865515"><ele>1674.0</ele><time>2026-04-20T16:12:57Z</time></trkpt><trkpt lat="38.0476620499426" lon="-2.6705755751753455"><ele>1678.5</ele><time>2026-04-20T16:12:58Z</time></trkpt><trkpt lat="38.04754835626537" lon="-2.670600749320843"><ele>1683.0</ele><time>2026-04-20T16:12:59Z</time></trkpt><trkpt lat="38.04739849469654" lon="-2.6706084829104837"><ele>1684.0</ele><time>2026-04-20T16:13:00Z</time></trkpt><trkpt lat="38.0472158887571" lon="-2.6706302260918613"><ele>1685.0</ele><time>2026-04-20T16:13:01Z</time></trkpt><trkpt lat="38.04704647810123" lon="-2.670659718394322"><ele>1686.0</ele><time>2026-04-20T16:13:02Z</time></trkpt><trkpt lat="38.04687370949176" lon="-2.6706487371846617"><ele>1686.0</ele><time>2026-04-20T16:13:03Z</time></trkpt><trkpt lat="38.04670606928964" lon="-2.6706035763650395"><ele>1686.0</ele><time>2026-04-20T16:13:04Z</time></trkpt><trkpt lat="38.04655650961736" lon="-2.6705396787281597"><ele>1686.0</ele><time>2026-04-20T16:13:05Z</time></trkpt><trkpt lat="38.046428178852764" lon="-2.6704725784953913"><ele>1687.8</ele><time>2026-04-20T16:13:06Z</time></trkpt><trkpt lat="38.046320579843375" lon="-2.6704042985053027"><ele>1689.6</ele><time>2026-04-20T16:13:07Z</time></trkpt><trkpt lat="38.04623769905712" lon="-2.6703233458499276"><ele>1691.4</ele><time>2026-04-20T16:13:08Z</time></trkpt><trkpt lat="38.046174905153485" lon="-2.670220663490756"><ele>1693.2</ele><time>2026-04-20T16:13:09Z</time></trkpt><trkpt lat="38.04613387070571" lon="-2.6701115046445696"><ele>1695.0</ele><time>2026-04-20T16:13:10Z</time></trkpt><trkpt lat="38.04609150118356" lon="-2.6700317128404136"><ele>1690.2</ele><time>2026-04-20T16:13:11Z</time></trkpt><trkpt lat="38.04602802637375" lon="-2.6699773430506863"><ele>1685.4</ele><time>2026-04-20T16:13:12Z</time></trkpt><trkpt lat="38.045936117579096" lon="-2.6699416979738557"><ele>1680.6</ele><time>2026-04-20T16:13:13Z</time></trkpt><trkpt lat="38.04582788740008" lon="-2.6699320145334684"><ele>1675.8</ele><time>2026-04-20T16:13:14Z</time></trkpt><trkpt lat="38.045724940520294" lon="-2.669920814230606"><ele>1671.0</ele><time>2026-04-20T16:13:15Z</time></trkpt><trkpt lat="38.045616474099056" lon="-2.6699276749422456"><ele>1670.1999999999998</ele><time>2026-04-20T16:13:16Z</time></trkpt><trkpt lat="38.045500934220804" lon="-2.6699556405569864"><ele>1669.3999999999999</ele><time>2026-04-20T16:13:17Z</time></trkpt><trkpt lat="38.04538937744337" lon="-2.6700114054622777"><ele>1668.6</ele><time>2026-04-20T16:13:18Z</time></trkpt><trkpt lat="38.04529021235358" lon="-2.670063860905722"><ele>1667.8</ele><time>2026-04-20T16:13:19Z</time></trkpt><trkpt lat="38.045194219759416" lon="-2.670093709549925"><ele>1667.0</ele><time>2026-04-20T16:13:20Z</time></trkpt><trkpt lat="38.045112728839804" lon="-2.670110148379347"><ele>1667.0</ele><time>2026-04-20T16:13:21Z</time></trkpt><trkpt lat="38.04503462090017" lon="-2.6701242951142947"><ele>1667.0</ele><time>2026-04-20T16:13:22Z</time></trkpt><trkpt lat="38.044934084711706" lon="-2.670147631311808"><ele>1667.0</ele><time>2026-04-20T16:13:24Z</time></trkpt><trkpt lat="38.04481845091023" lon="-2.670156798563547"><ele>1667.0</ele><time>2026-04-20T16:13:26Z</time></trkpt><trkpt lat="38.04469290427398" lon="-2.670140356516106"><ele>1667.0</ele><time>2026-04-20T16:13:28Z</time></trkpt><trkpt lat="38.04462576961904" lon="-2.670124360108569"><ele>1666.9999999999998</ele><time>2026-04-20T16:13:28.999Z</time></trkpt><trkpt lat="38.0445599045732" lon="-2.6701034956566256"><ele>1667.0</ele><time>2026-04-20T16:13:29.999Z</time></trkpt><trkpt lat="38.04449725138782" lon="-2.6700883961626234"><ele>1667.0</ele><time>2026-04-20T16:13:30.999Z</time></trkpt><trkpt lat="38.04438294625646" lon="-2.670057038947977"><ele>1667.0</ele><time>2026-04-20T16:13:32.999Z</time></trkpt><trkpt lat="38.04428459539735" lon="-2.670029985855016"><ele>1666.9999999999998</ele><time>2026-04-20T16:13:34.999Z</time></trkpt><trkpt lat="38.04419572320088" lon="-2.6700088037244334"><ele>1667.0</ele><time>2026-04-20T16:13:36.999Z</time></trkpt><trkpt lat="38.04410681084558" lon="-2.6699890344658597"><ele>1667.3999999999999</ele><time>2026-04-20T16:13:38.999Z</time></trkpt><trkpt lat="38.04402515108845" lon="-2.66998253572679"><ele>1667.8</ele><time>2026-04-20T16:13:40.999Z</time></trkpt><trkpt lat="38.04391989252121" lon="-2.6699420913074867"><ele>1668.2</ele><time>2026-04-20T16:13:42.999Z</time></trkpt><trkpt lat="38.04384758169278" lon="-2.6699178186929378"><ele>1668.6</ele><time>2026-04-20T16:13:43.999Z</time></trkpt><trkpt lat="38.04375964006584" lon="-2.669900278942825"><ele>1669.0</ele><time>2026-04-20T16:13:44.999Z</time></trkpt><trkpt lat="38.04366313873364" lon="-2.6698830697278324"><ele>1669.0</ele><time>2026-04-20T16:13:45.999Z</time></trkpt><trkpt lat="38.04356050514592" lon="-2.669861990340548"><ele>1669.0</ele><time>2026-04-20T16:13:46.999Z</time></trkpt><trkpt lat="38.04345921729612" lon="-2.669854788223633"><ele>1669.0</ele><time>2026-04-20T16:13:47.999Z</time></trkpt><trkpt lat="38.04335196457962" lon="-2.669851372887026"><ele>1669.0</ele><time>2026-04-20T16:13:48.999Z</time></trkpt><trkpt lat="38.04324823561629" lon="-2.6698469486469674"><ele>1669.0</ele><time>2026-04-20T16:13:49.999Z</time></trkpt><trkpt lat="38.04314703887709" lon="-2.6698353879760153"><ele>1667.2</ele><time>2026-04-20T16:13:50.999Z</time></trkpt><trkpt lat="38.04304233359333" lon="-2.669817598380951"><ele>1665.4</ele><time>2026-04-20T16:13:51.999Z</time></trkpt><trkpt lat="38.04294283845539" lon="-2.669816105069391"><ele>1663.6</ele><time>2026-04-20T16:13:52.999Z</time></trkpt><trkpt lat="38.04283213823187" lon="-2.6698019810189946"><ele>1661.8</ele><time>2026-04-20T16:13:53.999Z</time></trkpt><trkpt lat="38.042741259784364" lon="-2.6697864641965454"><ele>1660.0</ele><time>2026-04-20T16:13:54.999Z</time></trkpt><trkpt lat="38.04265538266238" lon="-2.6697811916644314"><ele>1660.0</ele><time>2026-04-20T16:13:55.999Z</time></trkpt><trkpt lat="38.04257462837855" lon="-2.6697749813185916"><ele>1660.0</ele><time>2026-04-20T16:13:56.999Z</time></trkpt><trkpt lat="38.04249795062725" lon="-2.669767957470191"><ele>1660.0</ele><time>2026-04-20T16:13:57.999Z</time></trkpt><trkpt lat="38.04242928425436" lon="-2.669772216409257"><ele>1660.0</ele><time>2026-04-20T16:13:58.999Z</time></trkpt><trkpt lat="38.04235669352617" lon="-2.669770437847414"><ele>1660.0</ele><time>2026-04-20T16:13:59.999Z</time></trkpt><trkpt lat="38.042289480142884" lon="-2.669767177898398"><ele>1660.0</ele><time>2026-04-20T16:14:00.999Z</time></trkpt><trkpt lat="38.042221275473246" lon="-2.6697783086910323"><ele>1660.0</ele><time>2026-04-20T16:14:01.999Z</time></trkpt><trkpt lat="38.04210451097436" lon="-2.6697695124570804"><ele>1657.8</ele><time>2026-04-20T16:14:03.999Z</time></trkpt><trkpt lat="38.0420265574566" lon="-2.6697750686326134"><ele>1655.6</ele><time>2026-04-20T16:14:05.999Z</time></trkpt><trkpt lat="38.041953424677445" lon="-2.669783741248406"><ele>1653.4</ele><time>2026-04-20T16:14:08.999Z</time></trkpt><trkpt lat="38.04183380307014" lon="-2.6697622401276035"><ele>1651.2</ele><time>2026-04-20T16:14:20.999Z</time></trkpt><trkpt lat="38.041737266001476" lon="-2.669737067077206"><ele>1649.0</ele><time>2026-04-20T16:14:21.999Z</time></trkpt><trkpt lat="38.0416152062566" lon="-2.6697092611665347"><ele>1646.0</ele><time>2026-04-20T16:14:22.999Z</time></trkpt><trkpt lat="38.04149517636849" lon="-2.6696812907667256"><ele>1643.0</ele><time>2026-04-20T16:14:23.999Z</time></trkpt><trkpt lat="38.0413807127395" lon="-2.669653407742001"><ele>1640.0</ele><time>2026-04-20T16:14:24.999Z</time></trkpt><trkpt lat="38.04128644586675" lon="-2.6696030242369617"><ele>1637.0</ele><time>2026-04-20T16:14:25.999Z</time></trkpt><trkpt lat="38.041176749400904" lon="-2.6695642866262124"><ele>1637.0</ele><time>2026-04-20T16:14:26.999Z</time></trkpt><trkpt lat="38.041060290657676" lon="-2.669527134750223"><ele>1637.0</ele><time>2026-04-20T16:14:27.999Z</time></trkpt><trkpt lat="38.0409365151227" lon="-2.669492265232661"><ele>1637.0</ele><time>2026-04-20T16:14:28.999Z</time></trkpt><trkpt lat="38.04081344984527" lon="-2.669479471089899"><ele>1637.0</ele><time>2026-04-20T16:14:29.999Z</time></trkpt><trkpt lat="38.04070725024682" lon="-2.669472801998774"><ele>1636.8</ele><time>2026-04-20T16:14:30.999Z</time></trkpt><trkpt lat="38.040608324655445" lon="-2.6694648410682564"><ele>1636.6</ele><time>2026-04-20T16:14:31.999Z</time></trkpt><trkpt lat="38.04051991082084" lon="-2.6694415302220262"><ele>1636.3999999999999</ele><time>2026-04-20T16:14:32.999Z</time></trkpt><trkpt lat="38.04041640701563" lon="-2.6693956329998554"><ele>1636.1999999999998</ele><time>2026-04-20T16:14:33.999Z</time></trkpt><trkpt lat="38.04030520957452" lon="-2.66931494573932"><ele>1636.0</ele><time>2026-04-20T16:14:34.999Z</time></trkpt><trkpt lat="38.04019153815986" lon="-2.669204356779925"><ele>1636.0</ele><time>2026-04-20T16:14:35.999Z</time></trkpt><trkpt lat="38.04008306008489" lon="-2.6690866371561213"><ele>1636.0</ele><time>2026-04-20T16:14:36.999Z</time></trkpt><trkpt lat="38.03997938698423" lon="-2.668977266818308"><ele>1636.0</ele><time>2026-04-20T16:14:37.999Z</time></trkpt><trkpt lat="38.03986400884003" lon="-2.668869834727947"><ele>1636.0</ele><time>2026-04-20T16:14:38.999Z</time></trkpt><trkpt lat="38.039740308239324" lon="-2.6687770050888617"><ele>1635.6666666666667</ele><time>2026-04-20T16:14:39.999Z</time></trkpt><trkpt lat="38.03959772264595" lon="-2.668697175586143"><ele>1635.3333333333335</ele><time>2026-04-20T16:14:40.999Z</time></trkpt><trkpt lat="38.039445018362564" lon="-2.668641739703301"><ele>1635.0</ele><time>2026-04-20T16:14:41.999Z</time></trkpt><trkpt lat="38.03931282126893" lon="-2.6685907695091338"><ele>1635.0</ele><time>2026-04-20T16:14:42.999Z</time></trkpt><trkpt lat="38.03920021745763" lon="-2.668525500118386"><ele>1635.0</ele><time>2026-04-20T16:14:43.999Z</time></trkpt><trkpt lat="38.03909610274723" lon="-2.6684576634870103"><ele>1635.0</ele><time>2026-04-20T16:14:44.999Z</time></trkpt><trkpt lat="38.03899541014986" lon="-2.668382090311115"><ele>1635.0</ele><time>2026-04-20T16:14:45.999Z</time></trkpt><trkpt lat="38.03889958658185" lon="-2.6682883198448266"><ele>1631.0</ele><time>2026-04-20T16:14:46.999Z</time></trkpt><trkpt lat="38.03880775833547" lon="-2.6681672523360564"><ele>1627.0</ele><time>2026-04-20T16:14:47.999Z</time></trkpt><trkpt lat="38.03871443731078" lon="-2.6680454738866684"><ele>1623.0</ele><time>2026-04-20T16:14:48.999Z</time></trkpt><trkpt lat="38.03863485815947" lon="-2.667928310505455"><ele>1619.0</ele><time>2026-04-20T16:14:49.999Z</time></trkpt><trkpt lat="38.03856638437747" lon="-2.6678209631310232"><ele>1620.2</ele><time>2026-04-20T16:14:50.999Z</time></trkpt><trkpt lat="38.038511838356655" lon="-2.66773228233345"><ele>1621.4</ele><time>2026-04-20T16:14:51.998Z</time></trkpt><trkpt lat="38.03845672936872" lon="-2.667636465887352"><ele>1622.6</ele><time>2026-04-20T16:14:52.998Z</time></trkpt><trkpt lat="38.03841282166956" lon="-2.667492445879431"><ele>1623.8</ele><time>2026-04-20T16:14:55Z</time></trkpt><trkpt lat="38.03843888614555" lon="-2.6674129888949563"><ele>1625.0</ele><time>2026-04-20T16:14:56Z</time></trkpt><trkpt lat="38.038497613826955" lon="-2.667345622956072"><ele>1625.0</ele><time>2026-04-20T16:14:57Z</time></trkpt><trkpt lat="38.03858581798897" lon="-2.667291219758731"><ele>1625.0</ele><time>2026-04-20T16:14:58Z</time></trkpt><trkpt lat="38.03870710502558" lon="-2.6672332108833254"><ele>1625.0</ele><time>2026-04-20T16:14:59Z</time></trkpt><trkpt lat="38.03885383220473" lon="-2.6671728782486017"><ele>1625.0</ele><time>2026-04-20T16:15:00Z</time></trkpt><trkpt lat="38.03900626850436" lon="-2.667084890215769"><ele>1625.75</ele><time>2026-04-20T16:15:01Z</time></trkpt><trkpt lat="38.039136551314705" lon="-2.6670036681449885"><ele>1626.5</ele><time>2026-04-20T16:15:02Z</time></trkpt><trkpt lat="38.03924650172448" lon="-2.666936711220864"><ele>1627.25</ele><time>2026-04-20T16:15:03Z</time></trkpt><trkpt lat="38.039339884899235" lon="-2.6668600806517695"><ele>1628.0</ele><time>2026-04-20T16:15:04Z</time></trkpt><trkpt lat="38.039410362448926" lon="-2.666750986069742"><ele>1628.0</ele><time>2026-04-20T16:15:05Z</time></trkpt><trkpt lat="38.03945886392532" lon="-2.6666066765801184"><ele>1628.0</ele><time>2026-04-20T16:15:06Z</time></trkpt><trkpt lat="38.0394702197171" lon="-2.6664134686368044"><ele>1628.0</ele><time>2026-04-20T16:15:07Z</time></trkpt><trkpt lat="38.0394610374404" lon="-2.6661974001322895"><ele>1628.0</ele><time>2026-04-20T16:15:08Z</time></trkpt><trkpt lat="38.03946793122117" lon="-2.666006407777701"><ele>1628.0</ele><time>2026-04-20T16:15:09Z</time></trkpt><trkpt lat="38.039485207431326" lon="-2.6658556171740218"><ele>1628.0</ele><time>2026-04-20T16:15:10Z</time></trkpt><trkpt lat="38.03947292812031" lon="-2.6657103337100625"><ele>1628.0</ele><time>2026-04-20T16:15:11Z</time></trkpt><trkpt lat="38.03941871609151" lon="-2.6655783929548096"><ele>1628.0</ele><time>2026-04-20T16:15:12Z</time></trkpt><trkpt lat="38.03932190099824" lon="-2.665465460891748"><ele>1628.0</ele><time>2026-04-20T16:15:13Z</time></trkpt><trkpt lat="38.039196895607994" lon="-2.665371121256466"><ele>1628.0</ele><time>2026-04-20T16:15:14Z</time></trkpt><trkpt lat="38.039026370437156" lon="-2.665272740652029"><ele>1628.0</ele><time>2026-04-20T16:15:15Z</time></trkpt><trkpt lat="38.038856116608784" lon="-2.665161695967154"><ele>1629.5</ele><time>2026-04-20T16:15:16Z</time></trkpt><trkpt lat="38.03871402337287" lon="-2.6650538341036722"><ele>1631.0</ele><time>2026-04-20T16:15:17Z</time></trkpt><trkpt lat="38.03859451087515" lon="-2.664953668046385"><ele>1632.5</ele><time>2026-04-20T16:15:18Z</time></trkpt><trkpt lat="38.0384814664625" lon="-2.6648577374193616"><ele>1634.0</ele><time>2026-04-20T16:15:19Z</time></trkpt><trkpt lat="38.03838918580021" lon="-2.664750553085779"><ele>1634.0</ele><time>2026-04-20T16:15:20Z</time></trkpt><trkpt lat="38.03829159683694" lon="-2.664587090907697"><ele>1634.0</ele><time>2026-04-20T16:15:21Z</time></trkpt><trkpt lat="38.038167301376305" lon="-2.664386369668564"><ele>1634.0</ele><time>2026-04-20T16:15:22Z</time></trkpt><trkpt lat="38.03802677223063" lon="-2.6641565404631122"><ele>1632.6666666666665</ele><time>2026-04-20T16:15:23Z</time></trkpt><trkpt lat="38.03789519412424" lon="-2.6639478310875018"><ele>1631.3333333333335</ele><time>2026-04-20T16:15:24Z</time></trkpt><trkpt lat="38.037773164961116" lon="-2.663763786346143"><ele>1630.0</ele><time>2026-04-20T16:15:25Z</time></trkpt><trkpt lat="38.037667604900776" lon="-2.663587706163562"><ele>1630.0</ele><time>2026-04-20T16:15:26Z</time></trkpt><trkpt lat="38.03756750393836" lon="-2.663411261607478"><ele>1630.0</ele><time>2026-04-20T16:15:27Z</time></trkpt><trkpt lat="38.0374762940376" lon="-2.663250779575872"><ele>1630.0</ele><time>2026-04-20T16:15:28Z</time></trkpt><trkpt lat="38.03737306799516" lon="-2.663096139135224"><ele>1630.5</ele><time>2026-04-20T16:15:29Z</time></trkpt><trkpt lat="38.03727358944915" lon="-2.6629467755545475"><ele>1631.0</ele><time>2026-04-20T16:15:30Z</time></trkpt><trkpt lat="38.03718678238688" lon="-2.662810345235498"><ele>1631.5</ele><time>2026-04-20T16:15:31Z</time></trkpt><trkpt lat="38.03711717365204" lon="-2.6626891391612997"><ele>1632.0</ele><time>2026-04-20T16:15:32Z</time></trkpt><trkpt lat="38.03705213392553" lon="-2.6625771328666294"><ele>1630.25</ele><time>2026-04-20T16:15:33Z</time></trkpt><trkpt lat="38.03698548363625" lon="-2.662493806992977"><ele>1628.5</ele><time>2026-04-20T16:15:34Z</time></trkpt><trkpt lat="38.03690047687163" lon="-2.6624331493077777"><ele>1626.75</ele><time>2026-04-20T16:15:35Z</time></trkpt><trkpt lat="38.03677769050989" lon="-2.6624073854192267"><ele>1625.0</ele><time>2026-04-20T16:15:36Z</time></trkpt><trkpt lat="38.03663817215916" lon="-2.6624024340724315"><ele>1625.5</ele><time>2026-04-20T16:15:37Z</time></trkpt><trkpt lat="38.03649868609299" lon="-2.66242430353419"><ele>1626.0</ele><time>2026-04-20T16:15:38Z</time></trkpt><trkpt lat="38.036379124320504" lon="-2.662443395285085"><ele>1626.5</ele><time>2026-04-20T16:15:38.999Z</time></trkpt><trkpt lat="38.03625002591151" lon="-2.662450287092417"><ele>1627.0</ele><time>2026-04-20T16:15:39.999Z</time></trkpt><trkpt lat="38.03613509497714" lon="-2.662451708009201"><ele>1627.0</ele><time>2026-04-20T16:15:40.999Z</time></trkpt><trkpt lat="38.036040265770545" lon="-2.662451448269446"><ele>1627.0</ele><time>2026-04-20T16:15:41.999Z</time></trkpt><trkpt lat="38.035953862061774" lon="-2.662427283473492"><ele>1627.0</ele><time>2026-04-20T16:15:42.999Z</time></trkpt><trkpt lat="38.03587235069552" lon="-2.6623626925838044"><ele>1627.0</ele><time>2026-04-20T16:15:43.999Z</time></trkpt><trkpt lat="38.0358059986461" lon="-2.6622719754027178"><ele>1627.0</ele><time>2026-04-20T16:15:44.999Z</time></trkpt><trkpt lat="38.03577467761989" lon="-2.6621596481706016"><ele>1627.0</ele><time>2026-04-20T16:15:45.999Z</time></trkpt><trkpt lat="38.03576360601261" lon="-2.662026163457304"><ele>1627.0</ele><time>2026-04-20T16:15:46.999Z</time></trkpt><trkpt lat="38.035786100115466" lon="-2.6618712429010754"><ele>1627.0</ele><time>2026-04-20T16:15:47.999Z</time></trkpt><trkpt lat="38.03582462215386" lon="-2.6617073786505943"><ele>1627.0</ele><time>2026-04-20T16:15:48.999Z</time></trkpt><trkpt lat="38.035859974790974" lon="-2.661548862572771"><ele>1624.1999999999998</ele><time>2026-04-20T16:15:49.999Z</time></trkpt><trkpt lat="38.03587560743028" lon="-2.661404219032848"><ele>1621.4</ele><time>2026-04-20T16:15:50.999Z</time></trkpt><trkpt lat="38.03586890222301" lon="-2.6612735018863303"><ele>1618.6</ele><time>2026-04-20T16:15:51.999Z</time></trkpt><trkpt lat="38.03584778230464" lon="-2.6611485859892112"><ele>1615.8000000000002</ele><time>2026-04-20T16:15:52.999Z</time></trkpt><trkpt lat="38.03580098070668" lon="-2.6610077371201672"><ele>1613.0</ele><time>2026-04-20T16:15:53.999Z</time></trkpt><trkpt lat="38.03573705611346" lon="-2.660880755368413"><ele>1613.0</ele><time>2026-04-20T16:15:54.999Z</time></trkpt><trkpt lat="38.0356793444384" lon="-2.6607725826327893"><ele>1613.0</ele><time>2026-04-20T16:15:55.999Z</time></trkpt><trkpt lat="38.03561470505493" lon="-2.660674780376108"><ele>1613.0</ele><time>2026-04-20T16:15:56.999Z</time></trkpt><trkpt lat="38.03553924518732" lon="-2.6605870783948986"><ele>1613.0</ele><time>2026-04-20T16:15:57.999Z</time></trkpt><trkpt lat="38.035449333478994" lon="-2.6605037187251743"><ele>1613.0</ele><time>2026-04-20T16:15:58.999Z</time></trkpt><trkpt lat="38.035350301202044" lon="-2.66043806767148"><ele>1613.0</ele><time>2026-04-20T16:15:59.999Z</time></trkpt><trkpt lat="38.035258892879575" lon="-2.6603919096114197"><ele>1613.0</ele><time>2026-04-20T16:16:00.999Z</time></trkpt><trkpt lat="38.0351424598234" lon="-2.660378436693422"><ele>1613.0</ele><time>2026-04-20T16:16:01.999Z</time></trkpt><trkpt lat="38.03501778896517" lon="-2.66039380886262"><ele>1613.0</ele><time>2026-04-20T16:16:02.999Z</time></trkpt><trkpt lat="38.03489408324881" lon="-2.660413523826285"><ele>1613.0</ele><time>2026-04-20T16:16:03.999Z</time></trkpt><trkpt lat="38.03477788189036" lon="-2.6604389229946053"><ele>1613.0</ele><time>2026-04-20T16:16:04.999Z</time></trkpt><trkpt lat="38.03466947863271" lon="-2.660464476270284"><ele>1613.0</ele><time>2026-04-20T16:16:05.999Z</time></trkpt><trkpt lat="38.03455102525734" lon="-2.660492763965199"><ele>1613.0</ele><time>2026-04-20T16:16:06.999Z</time></trkpt><trkpt lat="38.034430183629226" lon="-2.6605045636130376"><ele>1613.0</ele><time>2026-04-20T16:16:07.999Z</time></trkpt><trkpt lat="38.0343081302304" lon="-2.660483265091515"><ele>1613.0</ele><time>2026-04-20T16:16:08.999Z</time></trkpt><trkpt lat="38.03418070420606" lon="-2.6604417311640165"><ele>1613.0</ele><time>2026-04-20T16:16:09.999Z</time></trkpt><trkpt lat="38.03405473206977" lon="-2.6603766545324485"><ele>1613.0</ele><time>2026-04-20T16:16:10.999Z</time></trkpt><trkpt lat="38.03392559613951" lon="-2.660295957004779"><ele>1607.3333333333333</ele><time>2026-04-20T16:16:11.999Z</time></trkpt><trkpt lat="38.03379561428793" lon="-2.660201789348788"><ele>1601.6666666666665</ele><time>2026-04-20T16:16:12.999Z</time></trkpt><trkpt lat="38.033661603714094" lon="-2.660086362175277"><ele>1596.0</ele><time>2026-04-20T16:16:13.999Z</time></trkpt><trkpt lat="38.03353689100769" lon="-2.6599793076295386"><ele>1596.0</ele><time>2026-04-20T16:16:14.999Z</time></trkpt><trkpt lat="38.03341852765864" lon="-2.6598753842585454"><ele>1596.0</ele><time>2026-04-20T16:16:15.999Z</time></trkpt><trkpt lat="38.03330998612389" lon="-2.6597761731033835"><ele>1596.0</ele><time>2026-04-20T16:16:16.999Z</time></trkpt><trkpt lat="38.03321534927804" lon="-2.659674109167457"><ele>1596.0</ele><time>2026-04-20T16:16:17.999Z</time></trkpt><trkpt lat="38.033128860643245" lon="-2.6595725798620204"><ele>1595.25</ele><time>2026-04-20T16:16:18.999Z</time></trkpt><trkpt lat="38.03305957181679" lon="-2.6594579139435592"><ele>1594.5</ele><time>2026-04-20T16:16:19.999Z</time></trkpt><trkpt lat="38.03300664409349" lon="-2.6593140999629328"><ele>1593.75</ele><time>2026-04-20T16:16:20.999Z</time></trkpt><trkpt lat="38.03297354208453" lon="-2.659150055972154"><ele>1593.0</ele><time>2026-04-20T16:16:21.999Z</time></trkpt><trkpt lat="38.032944945611476" lon="-2.6589633030454336"><ele>1593.0</ele><time>2026-04-20T16:16:22.999Z</time></trkpt><trkpt lat="38.03290975336872" lon="-2.6587884459524718"><ele>1593.0</ele><time>2026-04-20T16:16:23.999Z</time></trkpt><trkpt lat="38.032863044253865" lon="-2.658654306293235"><ele>1593.0</ele><time>2026-04-20T16:16:24.999Z</time></trkpt><trkpt lat="38.03280756010704" lon="-2.6585482261625395"><ele>1593.0</ele><time>2026-04-20T16:16:25.999Z</time></trkpt><trkpt lat="38.03273467576032" lon="-2.6584317816311187"><ele>1592.25</ele><time>2026-04-20T16:16:26.999Z</time></trkpt><trkpt lat="38.03264990421573" lon="-2.6583054174446534"><ele>1591.5</ele><time>2026-04-20T16:16:27.999Z</time></trkpt><trkpt lat="38.032560740545556" lon="-2.6581780948100575"><ele>1590.75</ele><time>2026-04-20T16:16:28.999Z</time></trkpt><trkpt lat="38.03246766486413" lon="-2.6580460037879377"><ele>1590.0</ele><time>2026-04-20T16:16:29.999Z</time></trkpt><trkpt lat="38.03237414269786" lon="-2.6579150116863173"><ele>1588.25</ele><time>2026-04-20T16:16:30.999Z</time></trkpt><trkpt lat="38.03228662557596" lon="-2.6577915770714378"><ele>1586.5</ele><time>2026-04-20T16:16:31.999Z</time></trkpt><trkpt lat="38.03220569067664" lon="-2.6576707359441074"><ele>1584.75</ele><time>2026-04-20T16:16:32.999Z</time></trkpt><trkpt lat="38.032123914308606" lon="-2.6575436988707084"><ele>1583.0</ele><time>2026-04-20T16:16:33.999Z</time></trkpt><trkpt lat="38.03204229524626" lon="-2.657408591789668"><ele>1582.5</ele><time>2026-04-20T16:16:34.999Z</time></trkpt><trkpt lat="38.03196027723138" lon="-2.6572691886762345"><ele>1582.0</ele><time>2026-04-20T16:16:35.999Z</time></trkpt><trkpt lat="38.031882815427906" lon="-2.6571333922322977"><ele>1581.5</ele><time>2026-04-20T16:16:36.999Z</time></trkpt><trkpt lat="38.03180246677103" lon="-2.656999612537982"><ele>1581.0</ele><time>2026-04-20T16:16:37.999Z</time></trkpt><trkpt lat="38.031733123058814" lon="-2.6568647071862337"><ele>1580.75</ele><time>2026-04-20T16:16:38.999Z</time></trkpt><trkpt lat="38.031664344659724" lon="-2.6567371225102048"><ele>1580.5</ele><time>2026-04-20T16:16:39.999Z</time></trkpt><trkpt lat="38.031593801973585" lon="-2.6566204414752774"><ele>1580.25</ele><time>2026-04-20T16:16:40.999Z</time></trkpt><trkpt lat="38.031525059216754" lon="-2.656506446500496"><ele>1580.0</ele><time>2026-04-20T16:16:41.999Z</time></trkpt><trkpt lat="38.03145525127796" lon="-2.6563936472992222"><ele>1577.4</ele><time>2026-04-20T16:16:42.999Z</time></trkpt><trkpt lat="38.03138439170823" lon="-2.656297430028847"><ele>1574.8</ele><time>2026-04-20T16:16:43.999Z</time></trkpt><trkpt lat="38.031316038127684" lon="-2.6561968230306583"><ele>1572.1999999999998</ele><time>2026-04-20T16:16:44.999Z</time></trkpt><trkpt lat="38.03125789519916" lon="-2.6561053329325404"><ele>1569.6</ele><time>2026-04-20T16:16:45.999Z</time></trkpt><trkpt lat="38.03121664181082" lon="-2.6560055824018898"><ele>1567.0</ele><time>2026-04-20T16:16:46.999Z</time></trkpt><trkpt lat="38.031188956443316" lon="-2.6558927491148343"><ele>1566.25</ele><time>2026-04-20T16:16:47.999Z</time></trkpt><trkpt lat="38.03117882427042" lon="-2.655758282580237"><ele>1565.5</ele><time>2026-04-20T16:16:48.999Z</time></trkpt><trkpt lat="38.031188577528255" lon="-2.655608344441476"><ele>1564.75</ele><time>2026-04-20T16:16:49.999Z</time></trkpt><trkpt lat="38.03119652999333" lon="-2.655442642209855"><ele>1564.0</ele><time>2026-04-20T16:16:50.999Z</time></trkpt><trkpt lat="38.03120122776386" lon="-2.655279254248798"><ele>1563.25</ele><time>2026-04-20T16:16:51.999Z</time></trkpt><trkpt lat="38.03120603356188" lon="-2.6551189825756674"><ele>1562.5</ele><time>2026-04-20T16:16:52.999Z</time></trkpt><trkpt lat="38.03120271029964" lon="-2.654964089854253"><ele>1561.75</ele><time>2026-04-20T16:16:53.999Z</time></trkpt><trkpt lat="38.03120590522439" lon="-2.6548157087820488"><ele>1561.0</ele><time>2026-04-20T16:16:54.999Z</time></trkpt><trkpt lat="38.03122426357802" lon="-2.654679732739389"><ele>1561.0</ele><time>2026-04-20T16:16:55.999Z</time></trkpt><trkpt lat="38.03126647479974" lon="-2.6545525153458405"><ele>1561.0</ele><time>2026-04-20T16:16:56.999Z</time></trkpt><trkpt lat="38.031326520083546" lon="-2.6544342703276915"><ele>1561.0</ele><time>2026-04-20T16:16:57.999Z</time></trkpt><trkpt lat="38.03140473881116" lon="-2.6543244954257124"><ele>1561.0</ele><time>2026-04-20T16:16:58.999Z</time></trkpt><trkpt lat="38.03150865171341" lon="-2.654218369168165"><ele>1560.0</ele><time>2026-04-20T16:17:00Z</time></trkpt><trkpt lat="38.031608238074696" lon="-2.6541025099021742"><ele>1559.0</ele><time>2026-04-20T16:17:01Z</time></trkpt><trkpt lat="38.03170122832885" lon="-2.6539902314498214"><ele>1558.0</ele><time>2026-04-20T16:17:02Z</time></trkpt><trkpt lat="38.031791554741176" lon="-2.653885197973488"><ele>1557.0</ele><time>2026-04-20T16:17:03Z</time></trkpt><trkpt lat="38.03186876422788" lon="-2.65377800768097"><ele>1557.0</ele><time>2026-04-20T16:17:04Z</time></trkpt><trkpt lat="38.03194109629978" lon="-2.653698285386038"><ele>1557.0</ele><time>2026-04-20T16:17:05Z</time></trkpt><trkpt lat="38.03200087876903" lon="-2.653628945970097"><ele>1557.0</ele><time>2026-04-20T16:17:06Z</time></trkpt><trkpt lat="38.03205505133758" lon="-2.653568314915048"><ele>1557.0</ele><time>2026-04-20T16:17:07Z</time></trkpt><trkpt lat="38.03209674164093" lon="-2.65350187212201"><ele>1557.0</ele><time>2026-04-20T16:17:08Z</time></trkpt><trkpt lat="38.03206515612384" lon="-2.653350820911444"><ele>1557.0</ele><time>2026-04-20T16:17:10Z</time></trkpt><trkpt lat="38.03199977329635" lon="-2.6533099231951742"><ele>1555.0</ele><time>2026-04-20T16:17:11Z</time></trkpt><trkpt lat="38.03190673077211" lon="-2.653315060217404"><ele>1553.0</ele><time>2026-04-20T16:17:12Z</time></trkpt><trkpt lat="38.03180770148909" lon="-2.653359288189103"><ele>1551.0</ele><time>2026-04-20T16:17:13Z</time></trkpt><trkpt lat="38.03168765802775" lon="-2.653423662003252"><ele>1549.0</ele><time>2026-04-20T16:17:14Z</time></trkpt><trkpt lat="38.03155207203107" lon="-2.6534570094437333"><ele>1548.0</ele><time>2026-04-20T16:17:15Z</time></trkpt><trkpt lat="38.03141076022426" lon="-2.6534472778771057"><ele>1547.0</ele><time>2026-04-20T16:17:16Z</time></trkpt><trkpt lat="38.03126526544497" lon="-2.6533994583188223"><ele>1546.0</ele><time>2026-04-20T16:17:17Z</time></trkpt><trkpt lat="38.03112808725043" lon="-2.653360070190258"><ele>1545.0</ele><time>2026-04-20T16:17:18Z</time></trkpt><trkpt lat="38.03099585230767" lon="-2.6533640908334615"><ele>1545.0</ele><time>2026-04-20T16:17:19Z</time></trkpt><trkpt lat="38.030858314193786" lon="-2.6533832431266164"><ele>1545.0</ele><time>2026-04-20T16:17:20Z</time></trkpt><trkpt lat="38.03072662035859" lon="-2.6533874465222134"><ele>1545.0</ele><time>2026-04-20T16:17:21Z</time></trkpt><trkpt lat="38.03059806653925" lon="-2.6533907218267543"><ele>1545.0</ele><time>2026-04-20T16:17:22Z</time></trkpt><trkpt lat="38.03047867532347" lon="-2.6533966860538065"><ele>1544.4</ele><time>2026-04-20T16:17:23Z</time></trkpt><trkpt lat="38.03036617225452" lon="-2.6534013554061224"><ele>1543.8</ele><time>2026-04-20T16:17:24Z</time></trkpt><trkpt lat="38.03026241012516" lon="-2.6533996332773375"><ele>1543.1999999999998</ele><time>2026-04-20T16:17:25Z</time></trkpt><trkpt lat="38.030161975961484" lon="-2.6533869844849085"><ele>1542.6</ele><time>2026-04-20T16:17:26Z</time></trkpt><trkpt lat="38.030077180584755" lon="-2.6533959560154368"><ele>1542.0</ele><time>2026-04-20T16:17:27Z</time></trkpt><trkpt lat="38.02999788411579" lon="-2.6533908346295436"><ele>1542.3333333333333</ele><time>2026-04-20T16:17:28Z</time></trkpt><trkpt lat="38.029931881937536" lon="-2.6533847909605197"><ele>1542.6666666666665</ele><time>2026-04-20T16:17:29Z</time></trkpt><trkpt lat="38.02983745107813" lon="-2.6533557110417396"><ele>1543.0</ele><time>2026-04-20T16:17:31Z</time></trkpt><trkpt lat="38.029771197153636" lon="-2.6533272633809952"><ele>1543.3333333333333</ele><time>2026-04-20T16:17:34Z</time></trkpt><trkpt lat="38.0297353456253" lon="-2.65345461254438"><ele>1543.6666666666665</ele><time>2026-04-20T16:17:37Z</time></trkpt><trkpt lat="38.029691279306874" lon="-2.6535416819715416"><ele>1544.0</ele><time>2026-04-20T16:19:44Z</time></trkpt><trkpt lat="38.02959589591556" lon="-2.6536926494815893"><ele>1544.0</ele><time>2026-04-20T16:19:46Z</time></trkpt><trkpt lat="38.02953979976342" lon="-2.653799944575948"><ele>1544.0</ele><time>2026-04-20T16:19:47Z</time></trkpt><trkpt lat="38.029450148685974" lon="-2.6539325635251907"><ele>1544.0</ele><time>2026-04-20T16:19:48Z</time></trkpt><trkpt lat="38.02936076981938" lon="-2.65410195322093"><ele>1544.0</ele><time>2026-04-20T16:19:49Z</time></trkpt><trkpt lat="38.02923848017273" lon="-2.6542431062827365"><ele>1545.3333333333333</ele><time>2026-04-20T16:19:50Z</time></trkpt><trkpt lat="38.02911694346425" lon="-2.6544181911483657"><ele>1546.6666666666665</ele><time>2026-04-20T16:19:51Z</time></trkpt><trkpt lat="38.02899726519394" lon="-2.6545698159930504"><ele>1548.0</ele><time>2026-04-20T16:19:52Z</time></trkpt><trkpt lat="38.028892246601046" lon="-2.654702690942155"><ele>1548.0</ele><time>2026-04-20T16:19:53Z</time></trkpt><trkpt lat="38.028787234837296" lon="-2.6548014023180517"><ele>1548.0</ele><time>2026-04-20T16:19:54Z</time></trkpt><trkpt lat="38.02865800664797" lon="-2.654884722486648"><ele>1548.0</ele><time>2026-04-20T16:19:55Z</time></trkpt><trkpt lat="38.02849899785816" lon="-2.654940337153917"><ele>1548.0</ele><time>2026-04-20T16:19:56Z</time></trkpt><trkpt lat="38.02832205852126" lon="-2.6549885907497663"><ele>1547.0</ele><time>2026-04-20T16:19:57Z</time></trkpt><trkpt lat="38.02814009112152" lon="-2.6550233520614652"><ele>1546.0</ele><time>2026-04-20T16:19:58Z</time></trkpt><trkpt lat="38.02797137530331" lon="-2.655071155221005"><ele>1545.0</ele><time>2026-04-20T16:19:59Z</time></trkpt><trkpt lat="38.02779403953917" lon="-2.65511544912932"><ele>1545.0</ele><time>2026-04-20T16:20:00Z</time></trkpt><trkpt lat="38.02759506061878" lon="-2.6551462555956054"><ele>1545.0</ele><time>2026-04-20T16:20:01Z</time></trkpt><trkpt lat="38.02738911884327" lon="-2.6551628719695395"><ele>1545.0</ele><time>2026-04-20T16:20:02Z</time></trkpt><trkpt lat="38.0271861143942" lon="-2.6551901371242788"><ele>1544.6666666666665</ele><time>2026-04-20T16:20:02.999Z</time></trkpt><trkpt lat="38.02700276505431" lon="-2.655216836709682"><ele>1544.3333333333333</ele><time>2026-04-20T16:20:03.999Z</time></trkpt><trkpt lat="38.026809239599984" lon="-2.6552405300355253"><ele>1544.0</ele><time>2026-04-20T16:20:04.999Z</time></trkpt><trkpt lat="38.02661566989552" lon="-2.6552642223489067"><ele>1543.6666666666665</ele><time>2026-04-20T16:20:05.999Z</time></trkpt><trkpt lat="38.02641811739793" lon="-2.6552864807262266"><ele>1543.3333333333335</ele><time>2026-04-20T16:20:06.999Z</time></trkpt><trkpt lat="38.026223419637844" lon="-2.6553048750952795"><ele>1543.0</ele><time>2026-04-20T16:20:07.999Z</time></trkpt><trkpt lat="38.02603151016043" lon="-2.6553190299276204"><ele>1539.3333333333335</ele><time>2026-04-20T16:20:08.999Z</time></trkpt><trkpt lat="38.02582947264022" lon="-2.6553277406462428"><ele>1535.6666666666667</ele><time>2026-04-20T16:20:09.999Z</time></trkpt><trkpt lat="38.02563126207348" lon="-2.6553310732367548"><ele>1532.0</ele><time>2026-04-20T16:20:10.999Z</time></trkpt><trkpt lat="38.02543902027019" lon="-2.6553330663194554"><ele>1532.0</ele><time>2026-04-20T16:20:11.999Z</time></trkpt><trkpt lat="38.025265773016635" lon="-2.6553363543653257"><ele>1532.0</ele><time>2026-04-20T16:20:12.999Z</time></trkpt><trkpt lat="38.025101697802754" lon="-2.65534104752698"><ele>1532.0</ele><time>2026-04-20T16:20:13.999Z</time></trkpt><trkpt lat="38.02494768654004" lon="-2.6553491368149444"><ele>1532.25</ele><time>2026-04-20T16:20:14.999Z</time></trkpt><trkpt lat="38.02479224832738" lon="-2.6553577836139963"><ele>1532.5</ele><time>2026-04-20T16:20:15.999Z</time></trkpt><trkpt lat="38.024643271054536" lon="-2.6553651237451152"><ele>1532.75</ele><time>2026-04-20T16:20:16.999Z</time></trkpt><trkpt lat="38.02451666469643" lon="-2.6553688503362523"><ele>1533.0</ele><time>2026-04-20T16:20:17.999Z</time></trkpt><trkpt lat="38.02442575443381" lon="-2.6553693046224627"><ele>1533.0</ele><time>2026-04-20T16:20:18.999Z</time></trkpt><trkpt lat="38.02435722496856" lon="-2.655360026149144"><ele>1533.0</ele><time>2026-04-20T16:20:19.999Z</time></trkpt><trkpt lat="38.02424153752522" lon="-2.6553210939096608"><ele>1533.0</ele><time>2026-04-20T16:20:21.999Z</time></trkpt><trkpt lat="38.024176564265915" lon="-2.6552772170826673"><ele>1533.0</ele><time>2026-04-20T16:20:22.999Z</time></trkpt><trkpt lat="38.024086848137934" lon="-2.655224733459467"><ele>1533.0</ele><time>2026-04-20T16:20:23.999Z</time></trkpt><trkpt lat="38.02397320537197" lon="-2.6552031416686077"><ele>1530.25</ele><time>2026-04-20T16:20:24.999Z</time></trkpt><trkpt lat="38.023846686073846" lon="-2.6551988431429363"><ele>1527.5</ele><time>2026-04-20T16:20:25.999Z</time></trkpt><trkpt lat="38.02373735369075" lon="-2.6552144020351234"><ele>1524.75</ele><time>2026-04-20T16:20:26.999Z</time></trkpt><trkpt lat="38.02361289209731" lon="-2.6551801073903896"><ele>1522.0</ele><time>2026-04-20T16:20:27.999Z</time></trkpt><trkpt lat="38.02349990637038" lon="-2.6551489287642394"><ele>1522.0</ele><time>2026-04-20T16:20:28.999Z</time></trkpt><trkpt lat="38.0233996326543" lon="-2.6551123960392116"><ele>1522.0</ele><time>2026-04-20T16:20:29.999Z</time></trkpt><trkpt lat="38.02330714410894" lon="-2.6550579217517782"><ele>1522.0</ele><time>2026-04-20T16:20:30.999Z</time></trkpt><trkpt lat="38.0232279029813" lon="-2.6549790446974737"><ele>1522.0</ele><time>2026-04-20T16:20:31.999Z</time></trkpt><trkpt lat="38.02315279783174" lon="-2.6548792563877317"><ele>1522.0</ele><time>2026-04-20T16:20:32.999Z</time></trkpt><trkpt lat="38.02307963948215" lon="-2.6547619104718083"><ele>1520.0</ele><time>2026-04-20T16:20:33.999Z</time></trkpt><trkpt lat="38.02301655871624" lon="-2.654644595301032"><ele>1518.0</ele><time>2026-04-20T16:20:34.999Z</time></trkpt><trkpt lat="38.02296415749726" lon="-2.6545363186473825"><ele>1516.0</ele><time>2026-04-20T16:20:35.999Z</time></trkpt><trkpt lat="38.022917227585225" lon="-2.654439459400327"><ele>1514.0</ele><time>2026-04-20T16:20:36.999Z</time></trkpt><trkpt lat="38.02287613156231" lon="-2.6543546089900176"><ele>1512.0</ele><time>2026-04-20T16:20:37.999Z</time></trkpt><trkpt lat="38.02281911283765" lon="-2.65428808614115"><ele>1510.1999999999998</ele><time>2026-04-20T16:20:38.999Z</time></trkpt><trkpt lat="38.022739703162884" lon="-2.654256254326497"><ele>1508.4</ele><time>2026-04-20T16:20:39.999Z</time></trkpt><trkpt lat="38.022669268581794" lon="-2.6542614813716843"><ele>1506.6</ele><time>2026-04-20T16:20:40.999Z</time></trkpt><trkpt lat="38.022597850195346" lon="-2.6543030748239924"><ele>1504.8000000000002</ele><time>2026-04-20T16:20:41.999Z</time></trkpt><trkpt lat="38.02254384920929" lon="-2.6544154468079997"><ele>1503.0</ele><time>2026-04-20T16:20:42.999Z</time></trkpt><trkpt lat="38.022463328601226" lon="-2.6545312318747762"><ele>1500.25</ele><time>2026-04-20T16:20:43.999Z</time></trkpt><trkpt lat="38.022385169334356" lon="-2.6546811371229797"><ele>1497.5</ele><time>2026-04-20T16:20:44.999Z</time></trkpt><trkpt lat="38.022309067182604" lon="-2.6548282734276025"><ele>1494.75</ele><time>2026-04-20T16:20:45.999Z</time></trkpt><trkpt lat="38.02224739738971" lon="-2.6549569284654635"><ele>1492.0</ele><time>2026-04-20T16:20:46.999Z</time></trkpt><trkpt lat="38.022203314491456" lon="-2.6551115075050835"><ele>1492.0</ele><time>2026-04-20T16:20:47.999Z</time></trkpt><trkpt lat="38.02219758999619" lon="-2.655300421291899"><ele>1492.0</ele><time>2026-04-20T16:20:48.999Z</time></trkpt><trkpt lat="38.02219044439572" lon="-2.6554994403883274"><ele>1492.0</ele><time>2026-04-20T16:20:49.999Z</time></trkpt><trkpt lat="38.022199439222504" lon="-2.655708768187371"><ele>1492.0</ele><time>2026-04-20T16:20:50.999Z</time></trkpt><trkpt lat="38.02222309089185" lon="-2.65591754592725"><ele>1492.0</ele><time>2026-04-20T16:20:51.999Z</time></trkpt><trkpt lat="38.02224955164766" lon="-2.6561104736771193"><ele>1492.0</ele><time>2026-04-20T16:20:52.999Z</time></trkpt><trkpt lat="38.022272768342425" lon="-2.656279748724694"><ele>1492.3999999999999</ele><time>2026-04-20T16:20:53.999Z</time></trkpt><trkpt lat="38.02227778203406" lon="-2.6564316976901905"><ele>1492.8</ele><time>2026-04-20T16:20:54.999Z</time></trkpt><trkpt lat="38.02229844085239" lon="-2.6565624897491027"><ele>1493.2</ele><time>2026-04-20T16:20:55.999Z</time></trkpt><trkpt lat="38.02231470889666" lon="-2.656677056881264"><ele>1493.6</ele><time>2026-04-20T16:20:56.999Z</time></trkpt><trkpt lat="38.02234445396219" lon="-2.6567739201919403"><ele>1494.0</ele><time>2026-04-20T16:20:57.999Z</time></trkpt><trkpt lat="38.02236761525077" lon="-2.65685792866401"><ele>1494.0</ele><time>2026-04-20T16:20:58.999Z</time></trkpt><trkpt lat="38.02230861194138" lon="-2.6569978889436707"><ele>1494.0</ele><time>2026-04-20T16:21:00.999Z</time></trkpt><trkpt lat="38.02225246523829" lon="-2.6570446459547115"><ele>1494.0</ele><time>2026-04-20T16:21:01.999Z</time></trkpt><trkpt lat="38.02217269064608" lon="-2.657002974936852"><ele>1494.0</ele><time>2026-04-20T16:21:02.999Z</time></trkpt><trkpt lat="38.02210120197634" lon="-2.6569301257453293"><ele>1494.0</ele><time>2026-04-20T16:21:03.999Z</time></trkpt><trkpt lat="38.02203603858226" lon="-2.6568217533484018"><ele>1494.0</ele><time>2026-04-20T16:21:04.999Z</time></trkpt><trkpt lat="38.0219814281978" lon="-2.656705158075337"><ele>1494.0</ele><time>2026-04-20T16:21:05.999Z</time></trkpt><trkpt lat="38.02192773429109" lon="-2.6566355092164984"><ele>1494.0</ele><time>2026-04-20T16:21:06.999Z</time></trkpt><trkpt lat="38.02184635922073" lon="-2.6566042274384847"><ele>1494.0</ele><time>2026-04-20T16:21:07.999Z</time></trkpt><trkpt lat="38.02175736647502" lon="-2.6566118266331964"><ele>1494.0</ele><time>2026-04-20T16:21:08.999Z</time></trkpt><trkpt lat="38.02167718644309" lon="-2.6567067763556134"><ele>1493.6</ele><time>2026-04-20T16:21:09.999Z</time></trkpt><trkpt lat="38.02157528997305" lon="-2.656803472800465"><ele>1493.2</ele><time>2026-04-20T16:21:10.999Z</time></trkpt><trkpt lat="38.02147641954811" lon="-2.6569292528364237"><ele>1492.8</ele><time>2026-04-20T16:21:12Z</time></trkpt><trkpt lat="38.021390335249315" lon="-2.656997901770552"><ele>1492.3999999999999</ele><time>2026-04-20T16:21:13Z</time></trkpt><trkpt lat="38.02132705315828" lon="-2.657037033889955"><ele>1492.0</ele><time>2026-04-20T16:21:14Z</time></trkpt><trkpt lat="38.02124536380869" lon="-2.6570594918764137"><ele>1492.0</ele><time>2026-04-20T16:21:15Z</time></trkpt><trkpt lat="38.02113501501379" lon="-2.6570713839632774"><ele>1492.0</ele><time>2026-04-20T16:21:16Z</time></trkpt><trkpt lat="38.021017032199715" lon="-2.6570636344826757"><ele>1492.0</ele><time>2026-04-20T16:21:17Z</time></trkpt><trkpt lat="38.020911972627374" lon="-2.6570450988318837"><ele>1492.0</ele><time>2026-04-20T16:21:18Z</time></trkpt><trkpt lat="38.02083130276147" lon="-2.6570309971984267"><ele>1492.0</ele><time>2026-04-20T16:21:19Z</time></trkpt><trkpt lat="38.02071172531202" lon="-2.6569441027749168"><ele>1495.0</ele><time>2026-04-20T16:21:21Z</time></trkpt><trkpt lat="38.020651851887074" lon="-2.6568477379720377"><ele>1498.0</ele><time>2026-04-20T16:21:22Z</time></trkpt><trkpt lat="38.02056620277133" lon="-2.6567566237639277"><ele>1501.0</ele><time>2026-04-20T16:21:23Z</time></trkpt><trkpt lat="38.02046239854071" lon="-2.656723430663754"><ele>1504.0</ele><time>2026-04-20T16:21:24Z</time></trkpt><trkpt lat="38.02039462940672" lon="-2.6566681090081388"><ele>1507.0</ele><time>2026-04-20T16:21:25Z</time></trkpt><trkpt lat="38.02035636399661" lon="-2.6566040088857457"><ele>1507.0</ele><time>2026-04-20T16:21:26Z</time></trkpt><trkpt lat="38.020316431522225" lon="-2.656506393655155"><ele>1507.0</ele><time>2026-04-20T16:21:27Z</time></trkpt><trkpt lat="38.020356955080935" lon="-2.6563854948750243"><ele>1507.0</ele><time>2026-04-20T16:21:28Z</time></trkpt><trkpt lat="38.02041527050749" lon="-2.656266423122385"><ele>1507.0</ele><time>2026-04-20T16:21:29Z</time></trkpt><trkpt lat="38.02048390279621" lon="-2.656138713653325"><ele>1507.0</ele><time>2026-04-20T16:21:30Z</time></trkpt><trkpt lat="38.020522473237946" lon="-2.6560013078994325"><ele>1510.25</ele><time>2026-04-20T16:21:31Z</time></trkpt><trkpt lat="38.02051572420324" lon="-2.655826425187651"><ele>1513.5</ele><time>2026-04-20T16:21:32Z</time></trkpt><trkpt lat="38.0205310496449" lon="-2.65564689600497"><ele>1516.75</ele><time>2026-04-20T16:21:33Z</time></trkpt><trkpt lat="38.020512967556726" lon="-2.6554778357997226"><ele>1520.0</ele><time>2026-04-20T16:21:34Z</time></trkpt><trkpt lat="38.020477566825015" lon="-2.6553195186596783"><ele>1521.75</ele><time>2026-04-20T16:21:35Z</time></trkpt><trkpt lat="38.02040921777861" lon="-2.6551720711876343"><ele>1523.5</ele><time>2026-04-20T16:21:36Z</time></trkpt><trkpt lat="38.0203390775483" lon="-2.655008515628781"><ele>1525.25</ele><time>2026-04-20T16:21:37Z</time></trkpt><trkpt lat="38.020256674840674" lon="-2.6548438420285017"><ele>1527.0</ele><time>2026-04-20T16:21:38Z</time></trkpt><trkpt lat="38.02018636305555" lon="-2.6546859377609953"><ele>1527.0</ele><time>2026-04-20T16:21:39Z</time></trkpt><trkpt lat="38.02011524796918" lon="-2.6545502325993993"><ele>1527.0</ele><time>2026-04-20T16:21:40Z</time></trkpt><trkpt lat="38.020073570060084" lon="-2.6543775826888396"><ele>1527.0</ele><time>2026-04-20T16:21:41Z</time></trkpt><trkpt lat="38.02004016548244" lon="-2.654181102900893"><ele>1527.0</ele><time>2026-04-20T16:21:42Z</time></trkpt><trkpt lat="38.02001552402095" lon="-2.653988351907634"><ele>1526.5</ele><time>2026-04-20T16:21:43Z</time></trkpt><trkpt lat="38.02000292030249" lon="-2.6538224578997434"><ele>1526.0</ele><time>2026-04-20T16:21:44Z</time></trkpt><trkpt lat="38.02000476226466" lon="-2.653683048275072"><ele>1525.5</ele><time>2026-04-20T16:21:45Z</time></trkpt><trkpt lat="38.02001360332756" lon="-2.653528497374673"><ele>1525.0</ele><time>2026-04-20T16:21:46Z</time></trkpt><trkpt lat="38.02003044798441" lon="-2.6533464606130064"><ele>1526.25</ele><time>2026-04-20T16:21:47Z</time></trkpt><trkpt lat="38.020063137301804" lon="-2.6531647567147068"><ele>1527.5</ele><time>2026-04-20T16:21:48Z</time></trkpt><trkpt lat="38.02009657896923" lon="-2.653019369381041"><ele>1528.75</ele><time>2026-04-20T16:21:49Z</time></trkpt><trkpt lat="38.02014464549467" lon="-2.652876940184"><ele>1530.0</ele><time>2026-04-20T16:21:50Z</time></trkpt><trkpt lat="38.020211311656034" lon="-2.6527433477895275"><ele>1533.0</ele><time>2026-04-20T16:21:51Z</time></trkpt><trkpt lat="38.020300069371636" lon="-2.6526190160633094"><ele>1536.0</ele><time>2026-04-20T16:21:52Z</time></trkpt><trkpt lat="38.02039967122371" lon="-2.652493221637872"><ele>1539.0</ele><time>2026-04-20T16:21:53Z</time></trkpt><trkpt lat="38.020511104331305" lon="-2.652371068737866"><ele>1542.0</ele><time>2026-04-20T16:21:54Z</time></trkpt><trkpt lat="38.02058920537164" lon="-2.652271545759865"><ele>1542.0</ele><time>2026-04-20T16:21:55Z</time></trkpt><trkpt lat="38.02062667595497" lon="-2.6521571204002683"><ele>1542.0</ele><time>2026-04-20T16:21:56Z</time></trkpt><trkpt lat="38.02067287430474" lon="-2.652052310513406"><ele>1542.0</ele><time>2026-04-20T16:21:57Z</time></trkpt><trkpt lat="38.02067895944675" lon="-2.6519340367699327"><ele>1542.0</ele><time>2026-04-20T16:21:58Z</time></trkpt><trkpt lat="38.02065956260718" lon="-2.6518327036274147"><ele>1542.0</ele><time>2026-04-20T16:21:59Z</time></trkpt><trkpt lat="38.02061331599059" lon="-2.651738950000066"><ele>1543.75</ele><time>2026-04-20T16:22:00Z</time></trkpt><trkpt lat="38.02051160377157" lon="-2.6516793181349545"><ele>1545.5</ele><time>2026-04-20T16:22:01Z</time></trkpt><trkpt lat="38.02039114206103" lon="-2.651581540655939"><ele>1547.25</ele><time>2026-04-20T16:22:02Z</time></trkpt><trkpt lat="38.02024715069981" lon="-2.6514818309683017"><ele>1549.0</ele><time>2026-04-20T16:22:03Z</time></trkpt><trkpt lat="38.02010953288585" lon="-2.6513623019453423"><ele>1548.0</ele><time>2026-04-20T16:22:04Z</time></trkpt><trkpt lat="38.01997895311131" lon="-2.651246264411257"><ele>1547.0</ele><time>2026-04-20T16:22:05Z</time></trkpt><trkpt lat="38.01986879470995" lon="-2.6511537492408555"><ele>1546.0</ele><time>2026-04-20T16:22:06Z</time></trkpt><trkpt lat="38.01977102042058" lon="-2.6510711968545304"><ele>1545.0</ele><time>2026-04-20T16:22:07Z</time></trkpt><trkpt lat="38.0196737232647" lon="-2.6510172965734746"><ele>1545.0</ele><time>2026-04-20T16:22:08Z</time></trkpt><trkpt lat="38.01957645211003" lon="-2.6510058508786942"><ele>1545.0</ele><time>2026-04-20T16:22:09Z</time></trkpt><trkpt lat="38.01946948809342" lon="-2.651060787175838"><ele>1545.0</ele><time>2026-04-20T16:22:10Z</time></trkpt><trkpt lat="38.01934551885275" lon="-2.6511256096212676"><ele>1545.0</ele><time>2026-04-20T16:22:11Z</time></trkpt><trkpt lat="38.01923139086983" lon="-2.651166253179151"><ele>1545.75</ele><time>2026-04-20T16:22:12Z</time></trkpt><trkpt lat="38.019118262212096" lon="-2.651184943682816"><ele>1546.5</ele><time>2026-04-20T16:22:13Z</time></trkpt><trkpt lat="38.01899526550971" lon="-2.651175809952485"><ele>1547.25</ele><time>2026-04-20T16:22:14Z</time></trkpt><trkpt lat="38.018874382251596" lon="-2.651145571566212"><ele>1548.0</ele><time>2026-04-20T16:22:15Z</time></trkpt><trkpt lat="38.01876947233954" lon="-2.6510846117605413"><ele>1548.0</ele><time>2026-04-20T16:22:16Z</time></trkpt><trkpt lat="38.018682105450836" lon="-2.6510119090669977"><ele>1548.0</ele><time>2026-04-20T16:22:16.999Z</time></trkpt><trkpt lat="38.01859777258997" lon="-2.6509562659632833"><ele>1548.0</ele><time>2026-04-20T16:22:17.999Z</time></trkpt><trkpt lat="38.018501035505864" lon="-2.6509378586369854"><ele>1548.0</ele><time>2026-04-20T16:22:18.999Z</time></trkpt><trkpt lat="38.018406629921984" lon="-2.6509720235810015"><ele>1548.0</ele><time>2026-04-20T16:22:19.999Z</time></trkpt><trkpt lat="38.01834606509775" lon="-2.6510686973045594"><ele>1547.75</ele><time>2026-04-20T16:22:20.999Z</time></trkpt><trkpt lat="38.018288886277745" lon="-2.6511611898703693"><ele>1547.5</ele><time>2026-04-20T16:22:21.999Z</time></trkpt><trkpt lat="38.01827166976051" lon="-2.6512955210561717"><ele>1547.25</ele><time>2026-04-20T16:22:22.999Z</time></trkpt><trkpt lat="38.01827178050303" lon="-2.6514447200739157"><ele>1547.0</ele><time>2026-04-20T16:22:23.999Z</time></trkpt><trkpt lat="38.018276937257546" lon="-2.6516376093145415"><ele>1547.0</ele><time>2026-04-20T16:22:24.999Z</time></trkpt><trkpt lat="38.01828700147384" lon="-2.6518525128753785"><ele>1547.0</ele><time>2026-04-20T16:22:25.999Z</time></trkpt><trkpt lat="38.01829461879941" lon="-2.652015167331095"><ele>1547.0</ele><time>2026-04-20T16:22:26.999Z</time></trkpt><trkpt lat="38.01828372346581" lon="-2.652154902810568"><ele>1547.0</ele><time>2026-04-20T16:22:27.999Z</time></trkpt><trkpt lat="38.018291709906556" lon="-2.6522745183302585"><ele>1548.3999999999999</ele><time>2026-04-20T16:22:28.999Z</time></trkpt><trkpt lat="38.01827003224869" lon="-2.652375787649877"><ele>1549.8</ele><time>2026-04-20T16:22:29.999Z</time></trkpt><trkpt lat="38.018221217632274" lon="-2.652479856614387"><ele>1551.2</ele><time>2026-04-20T16:22:30.999Z</time></trkpt><trkpt lat="38.01814391120746" lon="-2.652569680795667"><ele>1552.6</ele><time>2026-04-20T16:22:31.999Z</time></trkpt><trkpt lat="38.018036576851095" lon="-2.6526220729923313"><ele>1554.0</ele><time>2026-04-20T16:22:32.999Z</time></trkpt><trkpt lat="38.01791734015352" lon="-2.652678531965123"><ele>1554.0</ele><time>2026-04-20T16:22:33.999Z</time></trkpt><trkpt lat="38.01779113859629" lon="-2.652734157329251"><ele>1554.0</ele><time>2026-04-20T16:22:34.999Z</time></trkpt><trkpt lat="38.01769714407056" lon="-2.6528078903763714"><ele>1554.0</ele><time>2026-04-20T16:22:35.999Z</time></trkpt><trkpt lat="38.01762879053569" lon="-2.652919090406021"><ele>1554.0</ele><time>2026-04-20T16:22:36.999Z</time></trkpt><trkpt lat="38.01756781949876" lon="-2.653054152613176"><ele>1555.6</ele><time>2026-04-20T16:22:37.999Z</time></trkpt><trkpt lat="38.01750536823457" lon="-2.6532130814607244"><ele>1557.2</ele><time>2026-04-20T16:22:38.999Z</time></trkpt><trkpt lat="38.017447522446865" lon="-2.6533438896292534"><ele>1558.8</ele><time>2026-04-20T16:22:39.999Z</time></trkpt><trkpt lat="38.01739009449388" lon="-2.6534418624727474"><ele>1560.3999999999999</ele><time>2026-04-20T16:22:40.999Z</time></trkpt><trkpt lat="38.01731201224655" lon="-2.653506355255792"><ele>1562.0</ele><time>2026-04-20T16:22:41.999Z</time></trkpt><trkpt lat="38.01723080612963" lon="-2.653580111437333"><ele>1562.0</ele><time>2026-04-20T16:22:42.999Z</time></trkpt><trkpt lat="38.01713191953838" lon="-2.653635521618098"><ele>1562.0</ele><time>2026-04-20T16:22:43.999Z</time></trkpt><trkpt lat="38.01701485317165" lon="-2.6536514471239077"><ele>1562.0</ele><time>2026-04-20T16:22:44.999Z</time></trkpt><trkpt lat="38.0168869114094" lon="-2.6536472678615435"><ele>1562.0</ele><time>2026-04-20T16:22:45.999Z</time></trkpt><trkpt lat="38.01675983173398" lon="-2.6536096874242303"><ele>1562.8</ele><time>2026-04-20T16:22:46.999Z</time></trkpt><trkpt lat="38.0166408249397" lon="-2.6535588343021446"><ele>1563.6</ele><time>2026-04-20T16:22:47.999Z</time></trkpt><trkpt lat="38.01653211904559" lon="-2.653531229272591"><ele>1564.3999999999999</ele><time>2026-04-20T16:22:48.999Z</time></trkpt><trkpt lat="38.01642992071822" lon="-2.653529947281776"><ele>1565.1999999999998</ele><time>2026-04-20T16:22:49.999Z</time></trkpt><trkpt lat="38.01633730522539" lon="-2.653552313484645"><ele>1566.0</ele><time>2026-04-20T16:22:50.999Z</time></trkpt><trkpt lat="38.01624686175492" lon="-2.6536125175888534"><ele>1568.0</ele><time>2026-04-20T16:22:51.999Z</time></trkpt><trkpt lat="38.016162757541466" lon="-2.6537128173173103"><ele>1570.0</ele><time>2026-04-20T16:22:52.999Z</time></trkpt><trkpt lat="38.016094804083856" lon="-2.6538631789812297"><ele>1572.0</ele><time>2026-04-20T16:22:53.999Z</time></trkpt><trkpt lat="38.015992266820824" lon="-2.654032179844586"><ele>1574.0</ele><time>2026-04-20T16:22:54.999Z</time></trkpt><trkpt lat="38.015894494483874" lon="-2.654228886613805"><ele>1574.6666666666665</ele><time>2026-04-20T16:22:55.999Z</time></trkpt><trkpt lat="38.015795032717136" lon="-2.654441159032951"><ele>1575.3333333333335</ele><time>2026-04-20T16:22:56.999Z</time></trkpt><trkpt lat="38.015693855670456" lon="-2.6546441462031316"><ele>1576.0</ele><time>2026-04-20T16:22:57.999Z</time></trkpt><trkpt lat="38.015586494720885" lon="-2.6548397677157336"><ele>1576.0</ele><time>2026-04-20T16:22:58.999Z</time></trkpt><trkpt lat="38.015484985357816" lon="-2.6550251778443026"><ele>1576.0</ele><time>2026-04-20T16:22:59.999Z</time></trkpt><trkpt lat="38.01538852995624" lon="-2.655207048011714"><ele>1576.0</ele><time>2026-04-20T16:23:00.999Z</time></trkpt><trkpt lat="38.015308473520214" lon="-2.6553630650713744"><ele>1577.0</ele><time>2026-04-20T16:23:01.999Z</time></trkpt><trkpt lat="38.015235501194205" lon="-2.655502474631929"><ele>1578.0</ele><time>2026-04-20T16:23:02.999Z</time></trkpt><trkpt lat="38.015174202640864" lon="-2.6556395322045967"><ele>1579.0</ele><time>2026-04-20T16:23:03.999Z</time></trkpt><trkpt lat="38.01515842075529" lon="-2.655777393207144"><ele>1580.0</ele><time>2026-04-20T16:23:04.999Z</time></trkpt><trkpt lat="38.01513423009357" lon="-2.655942374105616"><ele>1579.5</ele><time>2026-04-20T16:23:05.999Z</time></trkpt><trkpt lat="38.01510077351423" lon="-2.656130418540787"><ele>1579.0</ele><time>2026-04-20T16:23:06.999Z</time></trkpt><trkpt lat="38.01507616143195" lon="-2.6562925281441934"><ele>1578.5</ele><time>2026-04-20T16:23:07.999Z</time></trkpt><trkpt lat="38.01504677395046" lon="-2.6564421104650062"><ele>1578.0</ele><time>2026-04-20T16:23:08.999Z</time></trkpt><trkpt lat="38.015023196095534" lon="-2.656567146602858"><ele>1578.0</ele><time>2026-04-20T16:23:09.999Z</time></trkpt><trkpt lat="38.01501565642092" lon="-2.6566685166936947"><ele>1578.0</ele><time>2026-04-20T16:23:10.999Z</time></trkpt><trkpt lat="38.01504279536785" lon="-2.656759509712698"><ele>1578.0</ele><time>2026-04-20T16:23:11.999Z</time></trkpt><trkpt lat="38.01509955408687" lon="-2.656853453880347"><ele>1578.0</ele><time>2026-04-20T16:23:12.999Z</time></trkpt><trkpt lat="38.015224234804215" lon="-2.6568900435841125"><ele>1578.0</ele><time>2026-04-20T16:23:13.999Z</time></trkpt><trkpt lat="38.01536970067967" lon="-2.656996825573431"><ele>1580.0</ele><time>2026-04-20T16:23:14.999Z</time></trkpt><trkpt lat="38.015494578004436" lon="-2.6571166121140988"><ele>1582.0</ele><time>2026-04-20T16:23:15.999Z</time></trkpt><trkpt lat="38.015611572560964" lon="-2.6572118220339536"><ele>1584.0</ele><time>2026-04-20T16:23:16.999Z</time></trkpt><trkpt lat="38.015714745979274" lon="-2.657311458198237"><ele>1586.0</ele><time>2026-04-20T16:23:17.999Z</time></trkpt><trkpt lat="38.01579954243019" lon="-2.657411235110075"><ele>1582.4</ele><time>2026-04-20T16:23:19Z</time></trkpt><trkpt lat="38.01586782647844" lon="-2.6575065916571172"><ele>1578.8</ele><time>2026-04-20T16:23:20Z</time></trkpt><trkpt lat="38.01592638731616" lon="-2.6576149955034154"><ele>1575.2</ele><time>2026-04-20T16:23:21Z</time></trkpt><trkpt lat="38.0159633538913" lon="-2.657728742498251"><ele>1571.6000000000001</ele><time>2026-04-20T16:23:22Z</time></trkpt><trkpt lat="38.015984013117965" lon="-2.6578545460359324"><ele>1568.0</ele><time>2026-04-20T16:23:23Z</time></trkpt><trkpt lat="38.01598741125311" lon="-2.6579986967271285"><ele>1566.75</ele><time>2026-04-20T16:23:24Z</time></trkpt><trkpt lat="38.015970351090964" lon="-2.6581737397652545"><ele>1565.5</ele><time>2026-04-20T16:23:25Z</time></trkpt><trkpt lat="38.01594062605783" lon="-2.658357796914693"><ele>1564.25</ele><time>2026-04-20T16:23:26Z</time></trkpt><trkpt lat="38.015916296602356" lon="-2.658542695445023"><ele>1563.0</ele><time>2026-04-20T16:23:27Z</time></trkpt><trkpt lat="38.01589265558493" lon="-2.6586985456440786"><ele>1561.8000000000002</ele><time>2026-04-20T16:23:28Z</time></trkpt><trkpt lat="38.01587408161188" lon="-2.65882139086358"><ele>1560.6</ele><time>2026-04-20T16:23:29Z</time></trkpt><trkpt lat="38.01585217351981" lon="-2.658940593325778"><ele>1559.4</ele><time>2026-04-20T16:23:30Z</time></trkpt><trkpt lat="38.015806660690764" lon="-2.659065456900406"><ele>1558.1999999999998</ele><time>2026-04-20T16:23:31Z</time></trkpt><trkpt lat="38.015718483170396" lon="-2.659197711486873"><ele>1557.0</ele><time>2026-04-20T16:23:32Z</time></trkpt><trkpt lat="38.015618257774925" lon="-2.659338920470267"><ele>1557.75</ele><time>2026-04-20T16:23:33Z</time></trkpt><trkpt lat="38.01551966056699" lon="-2.6594863601194696"><ele>1558.5</ele><time>2026-04-20T16:23:34Z</time></trkpt><trkpt lat="38.015433992608656" lon="-2.659616155183763"><ele>1559.25</ele><time>2026-04-20T16:23:35Z</time></trkpt><trkpt lat="38.01537149852996" lon="-2.6597464917176237"><ele>1560.0</ele><time>2026-04-20T16:23:36Z</time></trkpt><trkpt lat="38.01533800209326" lon="-2.6598702901962468"><ele>1560.0</ele><time>2026-04-20T16:23:37Z</time></trkpt><trkpt lat="38.01530331486434" lon="-2.6599647012035263"><ele>1560.0</ele><time>2026-04-20T16:23:38Z</time></trkpt><trkpt lat="38.0152442055517" lon="-2.6600500470161705"><ele>1560.0</ele><time>2026-04-20T16:23:39Z</time></trkpt><trkpt lat="38.01515250025923" lon="-2.660128440164256"><ele>1560.0</ele><time>2026-04-20T16:23:40Z</time></trkpt><trkpt lat="38.015039848700454" lon="-2.660199674573654"><ele>1560.0</ele><time>2026-04-20T16:23:41Z</time></trkpt><trkpt lat="38.01492337507156" lon="-2.6602785850477395"><ele>1556.25</ele><time>2026-04-20T16:23:42Z</time></trkpt><trkpt lat="38.0148165393008" lon="-2.660350448906589"><ele>1552.5</ele><time>2026-04-20T16:23:43Z</time></trkpt><trkpt lat="38.01469101339574" lon="-2.660421327672658"><ele>1548.75</ele><time>2026-04-20T16:23:44Z</time></trkpt><trkpt lat="38.01455739881375" lon="-2.660468769630861"><ele>1545.0</ele><time>2026-04-20T16:23:45Z</time></trkpt><trkpt lat="38.014413841675726" lon="-2.6605090154938114"><ele>1545.0</ele><time>2026-04-20T16:23:46Z</time></trkpt><trkpt lat="38.01427186289153" lon="-2.6605483118666298"><ele>1545.0</ele><time>2026-04-20T16:23:47Z</time></trkpt><trkpt lat="38.01412929358697" lon="-2.6606001454417796"><ele>1545.0</ele><time>2026-04-20T16:23:48Z</time></trkpt><trkpt lat="38.013995574949526" lon="-2.66065657117193"><ele>1545.0</ele><time>2026-04-20T16:23:49Z</time></trkpt><trkpt lat="38.01385713102989" lon="-2.660702431985371"><ele>1546.25</ele><time>2026-04-20T16:23:50Z</time></trkpt><trkpt lat="38.01372582079043" lon="-2.6607405189661075"><ele>1547.5</ele><time>2026-04-20T16:23:51Z</time></trkpt><trkpt lat="38.01359305764732" lon="-2.6607778454914652"><ele>1548.75</ele><time>2026-04-20T16:23:52Z</time></trkpt><trkpt lat="38.01346434075854" lon="-2.6608287916753195"><ele>1550.0</ele><time>2026-04-20T16:23:53Z</time></trkpt><trkpt lat="38.01332753897079" lon="-2.6609226489992763"><ele>1549.6666666666665</ele><time>2026-04-20T16:23:53.999Z</time></trkpt><trkpt lat="38.01318485352146" lon="-2.6610203734783946"><ele>1549.3333333333335</ele><time>2026-04-20T16:23:54.999Z</time></trkpt><trkpt lat="38.013034044692056" lon="-2.661124738108323"><ele>1549.0</ele><time>2026-04-20T16:23:55.999Z</time></trkpt><trkpt lat="38.012898612976755" lon="-2.661216087503324"><ele>1549.0</ele><time>2026-04-20T16:23:56.999Z</time></trkpt><trkpt lat="38.01277903934664" lon="-2.661296965479558"><ele>1549.0</ele><time>2026-04-20T16:23:57.999Z</time></trkpt><trkpt lat="38.012658965270205" lon="-2.66135923858369"><ele>1549.0</ele><time>2026-04-20T16:23:58.999Z</time></trkpt><trkpt lat="38.01255125645823" lon="-2.6614242422932817"><ele>1549.0</ele><time>2026-04-20T16:23:59.999Z</time></trkpt><trkpt lat="38.012449410553025" lon="-2.661512597446489"><ele>1549.75</ele><time>2026-04-20T16:24:00.999Z</time></trkpt><trkpt lat="38.01237583770512" lon="-2.6616180803604883"><ele>1550.5</ele><time>2026-04-20T16:24:01.999Z</time></trkpt><trkpt lat="38.012311216340485" lon="-2.6617380850061556"><ele>1551.25</ele><time>2026-04-20T16:24:02.999Z</time></trkpt><trkpt lat="38.012252470045695" lon="-2.661884858852682"><ele>1552.0</ele><time>2026-04-20T16:24:03.999Z</time></trkpt><trkpt lat="38.01218373198065" lon="-2.6620298291533775"><ele>1552.0</ele><time>2026-04-20T16:24:04.999Z</time></trkpt><trkpt lat="38.01212167865457" lon="-2.662143788108336"><ele>1552.0</ele><time>2026-04-20T16:24:05.999Z</time></trkpt><trkpt lat="38.01204565605308" lon="-2.662241217609473"><ele>1552.0</ele><time>2026-04-20T16:24:06.999Z</time></trkpt><trkpt lat="38.01192924208008" lon="-2.6623332036184726"><ele>1552.0</ele><time>2026-04-20T16:24:07.999Z</time></trkpt><trkpt lat="38.01180063577486" lon="-2.662407369227056"><ele>1552.0</ele><time>2026-04-20T16:24:08.999Z</time></trkpt><trkpt lat="38.01165738117749" lon="-2.6624649234656537"><ele>1552.0</ele><time>2026-04-20T16:24:09.999Z</time></trkpt><trkpt lat="38.011544374276106" lon="-2.6625180108245483"><ele>1552.0</ele><time>2026-04-20T16:24:10.999Z</time></trkpt><trkpt lat="38.01142996126644" lon="-2.6626109464719834"><ele>1552.0</ele><time>2026-04-20T16:24:11.999Z</time></trkpt><trkpt lat="38.01132304079829" lon="-2.6627555549520237"><ele>1553.0</ele><time>2026-04-20T16:24:12.999Z</time></trkpt><trkpt lat="38.011207242109435" lon="-2.6629074238611"><ele>1554.0</ele><time>2026-04-20T16:24:13.999Z</time></trkpt><trkpt lat="38.011079985940796" lon="-2.663055857069994"><ele>1555.0</ele><time>2026-04-20T16:24:14.999Z</time></trkpt><trkpt lat="38.01096478466297" lon="-2.6631935910957516"><ele>1555.0</ele><time>2026-04-20T16:24:15.999Z</time></trkpt><trkpt lat="38.01086303922443" lon="-2.6633090996670044"><ele>1555.0</ele><time>2026-04-20T16:24:16.999Z</time></trkpt><trkpt lat="38.01077708366174" lon="-2.6634278207214646"><ele>1555.0</ele><time>2026-04-20T16:24:17.999Z</time></trkpt><trkpt lat="38.01069404497013" lon="-2.6635514139918843"><ele>1555.0</ele><time>2026-04-20T16:24:18.999Z</time></trkpt><trkpt lat="38.01061504794534" lon="-2.6636763054063426"><ele>1556.25</ele><time>2026-04-20T16:24:19.999Z</time></trkpt><trkpt lat="38.010520781481034" lon="-2.6637957204876916"><ele>1557.5</ele><time>2026-04-20T16:24:20.999Z</time></trkpt><trkpt lat="38.01040700251204" lon="-2.663913031868876"><ele>1558.75</ele><time>2026-04-20T16:24:21.999Z</time></trkpt><trkpt lat="38.01027178058737" lon="-2.6640066455820857"><ele>1560.0</ele><time>2026-04-20T16:24:22.999Z</time></trkpt><trkpt lat="38.01012765820422" lon="-2.6640823021518716"><ele>1563.3333333333335</ele><time>2026-04-20T16:24:23.999Z</time></trkpt><trkpt lat="38.00998230716825" lon="-2.6641636844692687"><ele>1566.6666666666667</ele><time>2026-04-20T16:24:24.999Z</time></trkpt><trkpt lat="38.00983020875308" lon="-2.664220283520693"><ele>1570.0</ele><time>2026-04-20T16:24:25.999Z</time></trkpt><trkpt lat="38.00966207064777" lon="-2.664252449920839"><ele>1570.0</ele><time>2026-04-20T16:24:26.999Z</time></trkpt><trkpt lat="38.00949220569011" lon="-2.6643013926630768"><ele>1570.0</ele><time>2026-04-20T16:24:27.999Z</time></trkpt><trkpt lat="38.00933302545212" lon="-2.664379694627057"><ele>1570.0</ele><time>2026-04-20T16:24:28.999Z</time></trkpt><trkpt lat="38.0091855696974" lon="-2.664468039994713"><ele>1569.75</ele><time>2026-04-20T16:24:29.999Z</time></trkpt><trkpt lat="38.00906102686269" lon="-2.6645352974020473"><ele>1569.5</ele><time>2026-04-20T16:24:30.999Z</time></trkpt><trkpt lat="38.00896251428992" lon="-2.664588523847688"><ele>1569.25</ele><time>2026-04-20T16:24:31.999Z</time></trkpt><trkpt lat="38.008855917863976" lon="-2.6645929870483003"><ele>1569.0</ele><time>2026-04-20T16:24:32.999Z</time></trkpt><trkpt lat="38.00873360248815" lon="-2.664602824052792"><ele>1569.0</ele><time>2026-04-20T16:24:33.999Z</time></trkpt><trkpt lat="38.00859572564745" lon="-2.664558681754111"><ele>1569.0</ele><time>2026-04-20T16:24:34.999Z</time></trkpt><trkpt lat="38.00848082039622" lon="-2.6645409573208076"><ele>1569.0</ele><time>2026-04-20T16:24:35.999Z</time></trkpt><trkpt lat="38.00837687653331" lon="-2.664559485712409"><ele>1569.0</ele><time>2026-04-20T16:24:36.999Z</time></trkpt><trkpt lat="38.00828572165947" lon="-2.6646468805966577"><ele>1572.75</ele><time>2026-04-20T16:24:37.999Z</time></trkpt><trkpt lat="38.00817854537663" lon="-2.6647411470703757"><ele>1576.5</ele><time>2026-04-20T16:24:38.999Z</time></trkpt><trkpt lat="38.00807625607878" lon="-2.6648823548463496"><ele>1580.25</ele><time>2026-04-20T16:24:39.999Z</time></trkpt><trkpt lat="38.00797064367161" lon="-2.665008404817388"><ele>1584.0</ele><time>2026-04-20T16:24:40.999Z</time></trkpt><trkpt lat="38.00786969687384" lon="-2.665112523718122"><ele>1584.0</ele><time>2026-04-20T16:24:41.999Z</time></trkpt><trkpt lat="38.007767425693096" lon="-2.6651974803386467"><ele>1584.0</ele><time>2026-04-20T16:24:42.999Z</time></trkpt><trkpt lat="38.007620708638306" lon="-2.665238620755643"><ele>1584.0</ele><time>2026-04-20T16:24:43.999Z</time></trkpt><trkpt lat="38.00745639184246" lon="-2.6653214615516934"><ele>1584.0</ele><time>2026-04-20T16:24:44.999Z</time></trkpt><trkpt lat="38.007292197494216" lon="-2.66540457582122"><ele>1583.3333333333335</ele><time>2026-04-20T16:24:45.999Z</time></trkpt><trkpt lat="38.0071409310941" lon="-2.665543875792665"><ele>1582.6666666666667</ele><time>2026-04-20T16:24:46.999Z</time></trkpt><trkpt lat="38.00697966687697" lon="-2.665642759445011"><ele>1582.0</ele><time>2026-04-20T16:24:47.999Z</time></trkpt><trkpt lat="38.00685497953013" lon="-2.665724064299785"><ele>1582.0</ele><time>2026-04-20T16:24:48.999Z</time></trkpt><trkpt lat="38.006735233074096" lon="-2.665781669060433"><ele>1582.0</ele><time>2026-04-20T16:24:49.999Z</time></trkpt><trkpt lat="38.006642942873654" lon="-2.665879337743547"><ele>1582.0</ele><time>2026-04-20T16:24:50.999Z</time></trkpt><trkpt lat="38.00655015224083" lon="-2.666022146320946"><ele>1582.0</ele><time>2026-04-20T16:24:51.999Z</time></trkpt><trkpt lat="38.006468330997656" lon="-2.666172062186799"><ele>1582.5</ele><time>2026-04-20T16:24:52.999Z</time></trkpt><trkpt lat="38.00639090963053" lon="-2.666292378412592"><ele>1583.0</ele><time>2026-04-20T16:24:53.999Z</time></trkpt><trkpt lat="38.00627890646353" lon="-2.6664002591954037"><ele>1583.5</ele><time>2026-04-20T16:24:54.999Z</time></trkpt><trkpt lat="38.006142308739506" lon="-2.6665016559695065"><ele>1584.0</ele><time>2026-04-20T16:24:55.999Z</time></trkpt><trkpt lat="38.006019468724894" lon="-2.666611621729957"><ele>1584.0</ele><time>2026-04-20T16:24:56.999Z</time></trkpt><trkpt lat="38.00591102313779" lon="-2.6667097206847985"><ele>1584.0</ele><time>2026-04-20T16:24:57.999Z</time></trkpt><trkpt lat="38.00577124181775" lon="-2.6667610030862576"><ele>1584.0</ele><time>2026-04-20T16:24:58.999Z</time></trkpt><trkpt lat="38.00561916393404" lon="-2.6668463914653655"><ele>1584.0</ele><time>2026-04-20T16:24:59.999Z</time></trkpt><trkpt lat="38.00544760140379" lon="-2.66688115123391"><ele>1584.6666666666665</ele><time>2026-04-20T16:25:00.999Z</time></trkpt><trkpt lat="38.00528563258628" lon="-2.6669648293180965"><ele>1585.3333333333333</ele><time>2026-04-20T16:25:01.999Z</time></trkpt><trkpt lat="38.00514131131718" lon="-2.66705516993775"><ele>1586.0</ele><time>2026-04-20T16:25:02.999Z</time></trkpt><trkpt lat="38.00502084176573" lon="-2.667135274495078"><ele>1586.25</ele><time>2026-04-20T16:25:03.999Z</time></trkpt><trkpt lat="38.00491445053775" lon="-2.6672038299796172"><ele>1586.5</ele><time>2026-04-20T16:25:04.999Z</time></trkpt><trkpt lat="38.004814908504244" lon="-2.667260774331431"><ele>1586.75</ele><time>2026-04-20T16:25:05.999Z</time></trkpt><trkpt lat="38.004690659914786" lon="-2.6672989601481487"><ele>1587.0</ele><time>2026-04-20T16:25:06.999Z</time></trkpt><trkpt lat="38.00453383874433" lon="-2.667310864329635"><ele>1587.0</ele><time>2026-04-20T16:25:07.999Z</time></trkpt><trkpt lat="38.00438817468481" lon="-2.667347893553009"><ele>1587.0</ele><time>2026-04-20T16:25:08.999Z</time></trkpt><trkpt lat="38.00426211451134" lon="-2.6674346732830476"><ele>1587.0</ele><time>2026-04-20T16:25:09.999Z</time></trkpt><trkpt lat="38.00414804732718" lon="-2.667542974986325"><ele>1587.0</ele><time>2026-04-20T16:25:10.999Z</time></trkpt><trkpt lat="38.00401640400341" lon="-2.667631762223774"><ele>1589.3333333333335</ele><time>2026-04-20T16:25:11.999Z</time></trkpt><trkpt lat="38.00385455104793" lon="-2.6676924726520315"><ele>1591.6666666666667</ele><time>2026-04-20T16:25:12.999Z</time></trkpt><trkpt lat="38.003692233082134" lon="-2.6677585955335292"><ele>1594.0</ele><time>2026-04-20T16:25:13.999Z</time></trkpt><trkpt lat="38.0035578974298" lon="-2.6678405998665045"><ele>1594.0</ele><time>2026-04-20T16:25:14.999Z</time></trkpt><trkpt lat="38.003425359457694" lon="-2.6679494989981554"><ele>1594.0</ele><time>2026-04-20T16:25:15.999Z</time></trkpt><trkpt lat="38.00329701216445" lon="-2.6680940457637643"><ele>1594.0</ele><time>2026-04-20T16:25:16.999Z</time></trkpt><trkpt lat="38.00316325375498" lon="-2.668243304709634"><ele>1602.3333333333335</ele><time>2026-04-20T16:25:17.999Z</time></trkpt><trkpt lat="38.003031190020884" lon="-2.6683679143031016"><ele>1610.6666666666665</ele><time>2026-04-20T16:25:18.999Z</time></trkpt><trkpt lat="38.002912187235985" lon="-2.6684843818149515"><ele>1619.0</ele><time>2026-04-20T16:25:19.999Z</time></trkpt><trkpt lat="38.00280527916701" lon="-2.6685956877310324"><ele>1618.0</ele><time>2026-04-20T16:25:20.999Z</time></trkpt><trkpt lat="38.00271499651294" lon="-2.6686973449981326"><ele>1617.0</ele><time>2026-04-20T16:25:21.999Z</time></trkpt><trkpt lat="38.00262552134078" lon="-2.6687911068177272"><ele>1616.0</ele><time>2026-04-20T16:25:22.999Z</time></trkpt><trkpt lat="38.00251351612831" lon="-2.66886568378219"><ele>1615.0</ele><time>2026-04-20T16:25:23.999Z</time></trkpt><trkpt lat="38.00236492838319" lon="-2.6689311282208545"><ele>1615.0</ele><time>2026-04-20T16:25:24.999Z</time></trkpt><trkpt lat="38.002199134781314" lon="-2.6689944865356363"><ele>1615.0</ele><time>2026-04-20T16:25:25.999Z</time></trkpt><trkpt lat="38.002041487323055" lon="-2.6690725885653888"><ele>1615.0</ele><time>2026-04-20T16:25:26.999Z</time></trkpt><trkpt lat="38.00188230556449" lon="-2.6691624002157894"><ele>1615.0</ele><time>2026-04-20T16:25:27.999Z</time></trkpt><trkpt lat="38.001725486597394" lon="-2.669255490413563"><ele>1615.0</ele><time>2026-04-20T16:25:28.999Z</time></trkpt><trkpt lat="38.00158030361893" lon="-2.6693771631710113"><ele>1615.0</ele><time>2026-04-20T16:25:29.999Z</time></trkpt><trkpt lat="38.001434347457035" lon="-2.669512678817872"><ele>1617.0</ele><time>2026-04-20T16:25:30.999Z</time></trkpt><trkpt lat="38.00129093278311" lon="-2.6696345102320267"><ele>1619.0</ele><time>2026-04-20T16:25:31.999Z</time></trkpt><trkpt lat="38.00114004541804" lon="-2.669737636296992"><ele>1621.0</ele><time>2026-04-20T16:25:32.999Z</time></trkpt><trkpt lat="38.00102570589114" lon="-2.669848568360718"><ele>1621.0</ele><time>2026-04-20T16:25:34Z</time></trkpt><trkpt lat="38.00093883468686" lon="-2.6699868836529626"><ele>1621.0</ele><time>2026-04-20T16:25:35Z</time></trkpt><trkpt lat="38.00087304565088" lon="-2.6701205117180624"><ele>1621.0</ele><time>2026-04-20T16:25:36Z</time></trkpt><trkpt lat="38.00080825175148" lon="-2.6702141353756623"><ele>1621.0</ele><time>2026-04-20T16:25:37Z</time></trkpt><trkpt lat="38.00071770507151" lon="-2.6702843266128435"><ele>1622.0</ele><time>2026-04-20T16:25:38Z</time></trkpt><trkpt lat="38.000594898820225" lon="-2.6703514237667694"><ele>1623.0</ele><time>2026-04-20T16:25:39Z</time></trkpt><trkpt lat="38.00045797856857" lon="-2.670435097723517"><ele>1624.0</ele><time>2026-04-20T16:25:40Z</time></trkpt><trkpt lat="38.000342078600276" lon="-2.6705232123132747"><ele>1625.0</ele><time>2026-04-20T16:25:41Z</time></trkpt><trkpt lat="38.00025752389698" lon="-2.670631387598965"><ele>1625.0</ele><time>2026-04-20T16:25:42Z</time></trkpt><trkpt lat="38.0001802343064" lon="-2.6707320714836653"><ele>1625.0</ele><time>2026-04-20T16:25:43Z</time></trkpt><trkpt lat="38.00008251554471" lon="-2.6708082381144584"><ele>1625.0</ele><time>2026-04-20T16:25:44Z</time></trkpt><trkpt lat="37.999966694119564" lon="-2.670859933023027"><ele>1625.0</ele><time>2026-04-20T16:25:45Z</time></trkpt><trkpt lat="37.999861413898465" lon="-2.67088059124589"><ele>1624.9999999999998</ele><time>2026-04-20T16:25:46Z</time></trkpt><trkpt lat="37.99977714215711" lon="-2.6708787072398636"><ele>1625.0</ele><time>2026-04-20T16:25:47Z</time></trkpt><trkpt lat="37.999692192534596" lon="-2.670822034084975"><ele>1625.0</ele><time>2026-04-20T16:25:48Z</time></trkpt><trkpt lat="37.9995987510218" lon="-2.6707865487417513"><ele>1625.0</ele><time>2026-04-20T16:25:49Z</time></trkpt><trkpt lat="37.99952016468489" lon="-2.670764268851889"><ele>1624.9999999999998</ele><time>2026-04-20T16:25:50Z</time></trkpt><trkpt lat="37.99943950628935" lon="-2.6707609368540073"><ele>1625.0</ele><time>2026-04-20T16:25:51Z</time></trkpt><trkpt lat="37.999334682850126" lon="-2.6707769754690793"><ele>1625.0</ele><time>2026-04-20T16:25:52Z</time></trkpt><trkpt lat="37.999248837480884" lon="-2.6708819997258555"><ele>1625.0</ele><time>2026-04-20T16:25:53Z</time></trkpt><trkpt lat="37.99916772881452" lon="-2.670973187740332"><ele>1625.0</ele><time>2026-04-20T16:25:54Z</time></trkpt><trkpt lat="37.99910152313764" lon="-2.671074579781383"><ele>1625.0</ele><time>2026-04-20T16:25:55Z</time></trkpt><trkpt lat="37.99899975964327" lon="-2.6711543586977102"><ele>1624.5</ele><time>2026-04-20T16:25:56Z</time></trkpt><trkpt lat="37.998866943717665" lon="-2.6712138894905713"><ele>1624.0</ele><time>2026-04-20T16:25:57Z</time></trkpt><trkpt lat="37.99873688343811" lon="-2.6712873101546477"><ele>1623.5</ele><time>2026-04-20T16:25:58Z</time></trkpt><trkpt lat="37.99863275621441" lon="-2.671375042761523"><ele>1623.0</ele><time>2026-04-20T16:25:59Z</time></trkpt><trkpt lat="37.9985301180603" lon="-2.6714566593030113"><ele>1623.0</ele><time>2026-04-20T16:26:00Z</time></trkpt><trkpt lat="37.99841867053136" lon="-2.671513269052641"><ele>1623.0</ele><time>2026-04-20T16:26:01Z</time></trkpt><trkpt lat="37.99830562300698" lon="-2.6715589863237432"><ele>1623.0</ele><time>2026-04-20T16:26:02Z</time></trkpt><trkpt lat="37.998196899306194" lon="-2.6715921358369643"><ele>1623.0</ele><time>2026-04-20T16:26:03Z</time></trkpt><trkpt lat="37.998086802998024" lon="-2.6716179295449303"><ele>1626.4</ele><time>2026-04-20T16:26:04Z</time></trkpt><trkpt lat="37.99796186029165" lon="-2.671619620369667"><ele>1629.8000000000002</ele><time>2026-04-20T16:26:05Z</time></trkpt><trkpt lat="37.997814866062214" lon="-2.6716060204306364"><ele>1633.2</ele><time>2026-04-20T16:26:06Z</time></trkpt><trkpt lat="37.99771486015479" lon="-2.6715939380031903"><ele>1636.6</ele><time>2026-04-20T16:26:07Z</time></trkpt><trkpt lat="37.99764468408824" lon="-2.671610156347595"><ele>1640.0</ele><time>2026-04-20T16:26:08Z</time></trkpt><trkpt lat="37.99758443665333" lon="-2.67165747605549"><ele>1639.9999999999998</ele><time>2026-04-20T16:26:09Z</time></trkpt><trkpt lat="37.99755372261413" lon="-2.6717590157490654"><ele>1640.0</ele><time>2026-04-20T16:26:10Z</time></trkpt><trkpt lat="37.99757120358829" lon="-2.6718756561823978"><ele>1640.0</ele><time>2026-04-20T16:26:11Z</time></trkpt><trkpt lat="37.99758303583416" lon="-2.6719876245788656"><ele>1640.0</ele><time>2026-04-20T16:26:12Z</time></trkpt><trkpt lat="37.99762194432625" lon="-2.6720634707141797"><ele>1639.9999999999998</ele><time>2026-04-20T16:26:13Z</time></trkpt><trkpt lat="37.99766206207424" lon="-2.672166851094196"><ele>1640.0</ele><time>2026-04-20T16:26:14Z</time></trkpt><trkpt lat="37.997685507692104" lon="-2.672316989415112"><ele>1638.4</ele><time>2026-04-20T16:26:15.999Z</time></trkpt><trkpt lat="37.997622239602435" lon="-2.6723970643662414"><ele>1636.8</ele><time>2026-04-20T16:26:16.999Z</time></trkpt><trkpt lat="37.99754058371509" lon="-2.67247362276531"><ele>1635.1999999999998</ele><time>2026-04-20T16:26:17.999Z</time></trkpt><trkpt lat="37.99745073904902" lon="-2.672552155334413"><ele>1633.6</ele><time>2026-04-20T16:26:18.999Z</time></trkpt><trkpt lat="37.997348001640816" lon="-2.672612973003875"><ele>1632.0</ele><time>2026-04-20T16:26:19.999Z</time></trkpt><trkpt lat="37.99721993104326" lon="-2.6726466216380764"><ele>1640.3333333333335</ele><time>2026-04-20T16:26:20.999Z</time></trkpt><trkpt lat="37.99707367464939" lon="-2.672666292723518"><ele>1648.6666666666667</ele><time>2026-04-20T16:26:21.999Z</time></trkpt><trkpt lat="37.996916120773854" lon="-2.672700744347728"><ele>1657.0</ele><time>2026-04-20T16:26:22.999Z</time></trkpt><trkpt lat="37.996753758650264" lon="-2.6727389957194556"><ele>1657.6666666666667</ele><time>2026-04-20T16:26:23.999Z</time></trkpt><trkpt lat="37.996593750571385" lon="-2.6727763542083114"><ele>1658.3333333333335</ele><time>2026-04-20T16:26:24.999Z</time></trkpt><trkpt lat="37.9964208597252" lon="-2.6728139749791846"><ele>1659.0</ele><time>2026-04-20T16:26:25.999Z</time></trkpt><trkpt lat="37.99623933529971" lon="-2.6728570783363614"><ele>1659.0</ele><time>2026-04-20T16:26:26.999Z</time></trkpt><trkpt lat="37.99605974395932" lon="-2.672898377654411"><ele>1659.0</ele><time>2026-04-20T16:26:27.999Z</time></trkpt><trkpt lat="37.99589139622394" lon="-2.6729427693693175"><ele>1659.0</ele><time>2026-04-20T16:26:28.999Z</time></trkpt><trkpt lat="37.995741354636266" lon="-2.6729933036293088"><ele>1663.6666666666665</ele><time>2026-04-20T16:26:29.999Z</time></trkpt><trkpt lat="37.99557813792315" lon="-2.6730447709958223"><ele>1668.3333333333333</ele><time>2026-04-20T16:26:30.999Z</time></trkpt><trkpt lat="37.99540460985731" lon="-2.6730976680993366"><ele>1673.0</ele><time>2026-04-20T16:26:31.999Z</time></trkpt><trkpt lat="37.99523588582988" lon="-2.673149530988501"><ele>1673.0</ele><time>2026-04-20T16:26:32.999Z</time></trkpt><trkpt lat="37.99508762289197" lon="-2.6732040714687804"><ele>1673.0</ele><time>2026-04-20T16:26:33.999Z</time></trkpt><trkpt lat="37.994942964937465" lon="-2.6732558433787723"><ele>1673.0</ele><time>2026-04-20T16:26:34.999Z</time></trkpt><trkpt lat="37.9948094350148" lon="-2.673301213045765"><ele>1673.0</ele><time>2026-04-20T16:26:35.999Z</time></trkpt><trkpt lat="37.99468910571364" lon="-2.6733455768810632"><ele>1674.5</ele><time>2026-04-20T16:26:36.999Z</time></trkpt><trkpt lat="37.99458254399527" lon="-2.67342559030319"><ele>1676.0</ele><time>2026-04-20T16:26:37.999Z</time></trkpt><trkpt lat="37.994471081379594" lon="-2.673548109750852"><ele>1677.5</ele><time>2026-04-20T16:26:38.999Z</time></trkpt><trkpt lat="37.99435618206969" lon="-2.673667591338586"><ele>1679.0</ele><time>2026-04-20T16:26:39.999Z</time></trkpt><trkpt lat="37.99422476991099" lon="-2.6737725491839526"><ele>1682.8000000000002</ele><time>2026-04-20T16:26:40.999Z</time></trkpt><trkpt lat="37.99409852060368" lon="-2.6738630545040527"><ele>1686.6000000000001</ele><time>2026-04-20T16:26:41.999Z</time></trkpt><trkpt lat="37.99399105583921" lon="-2.673931511840896"><ele>1690.4</ele><time>2026-04-20T16:26:42.999Z</time></trkpt><trkpt lat="37.99391024100794" lon="-2.6739685298645015"><ele>1694.2</ele><time>2026-04-20T16:26:43.999Z</time></trkpt><trkpt lat="37.99383202828327" lon="-2.6740021207994773"><ele>1698.0</ele><time>2026-04-20T16:26:44.999Z</time></trkpt><trkpt lat="37.993762858404835" lon="-2.674041622091295"><ele>1698.0</ele><time>2026-04-20T16:26:45.999Z</time></trkpt><trkpt lat="37.99364625191234" lon="-2.674059775706575"><ele>1698.0</ele><time>2026-04-20T16:26:47.999Z</time></trkpt><trkpt lat="37.993576699272104" lon="-2.674035275374528"><ele>1698.0</ele><time>2026-04-20T16:26:48.999Z</time></trkpt><trkpt lat="37.9934896812221" lon="-2.6739946553064478"><ele>1698.0</ele><time>2026-04-20T16:26:49.999Z</time></trkpt><trkpt lat="37.99338370490708" lon="-2.673941636917598"><ele>1698.0</ele><time>2026-04-20T16:26:50.999Z</time></trkpt><trkpt lat="37.99328051442962" lon="-2.673891985345534"><ele>1699.4</ele><time>2026-04-20T16:26:51.999Z</time></trkpt><trkpt lat="37.99318936952249" lon="-2.673857427514491"><ele>1700.8000000000002</ele><time>2026-04-20T16:26:52.999Z</time></trkpt><trkpt lat="37.99310963545234" lon="-2.673848353335955"><ele>1702.2</ele><time>2026-04-20T16:26:53.999Z</time></trkpt><trkpt lat="37.993009058587674" lon="-2.673938962666449"><ele>1703.6</ele><time>2026-04-20T16:26:55.999Z</time></trkpt><trkpt lat="37.99299682864824" lon="-2.674032129393038"><ele>1705.0</ele><time>2026-04-20T16:26:56.999Z</time></trkpt><trkpt lat="37.99305796461534" lon="-2.6741073703706904"><ele>1705.0</ele><time>2026-04-20T16:26:57.999Z</time></trkpt><trkpt lat="37.99309170254926" lon="-2.6742217084893456"><ele>1705.0</ele><time>2026-04-20T16:26:58.999Z</time></trkpt><trkpt lat="37.99311215673091" lon="-2.6743594484577127"><ele>1705.0</ele><time>2026-04-20T16:26:59.999Z</time></trkpt><trkpt lat="37.99311867551799" lon="-2.674478079722454"><ele>1705.0</ele><time>2026-04-20T16:27:00.999Z</time></trkpt><trkpt lat="37.99309807875429" lon="-2.6746018276698225"><ele>1705.0</ele><time>2026-04-20T16:27:01.999Z</time></trkpt><trkpt lat="37.9930484002189" lon="-2.6747249603235055"><ele>1703.25</ele><time>2026-04-20T16:27:02.999Z</time></trkpt><trkpt lat="37.99299012459998" lon="-2.6748531138657863"><ele>1701.5</ele><time>2026-04-20T16:27:03.999Z</time></trkpt><trkpt lat="37.99290793458887" lon="-2.6749766971592632"><ele>1699.75</ele><time>2026-04-20T16:27:04.999Z</time></trkpt><trkpt lat="37.99280581933139" lon="-2.6751153016341993"><ele>1698.0</ele><time>2026-04-20T16:27:05.999Z</time></trkpt><trkpt lat="37.99271724000309" lon="-2.67525103990421"><ele>1697.0</ele><time>2026-04-20T16:27:06.999Z</time></trkpt><trkpt lat="37.99262188332817" lon="-2.675373861517132"><ele>1696.0</ele><time>2026-04-20T16:27:07.999Z</time></trkpt><trkpt lat="37.99254025978369" lon="-2.675470022347061"><ele>1695.0</ele><time>2026-04-20T16:27:08.999Z</time></trkpt><trkpt lat="37.992477528184686" lon="-2.6755468693560247"><ele>1694.0</ele><time>2026-04-20T16:27:09.999Z</time></trkpt><trkpt lat="37.99243793336253" lon="-2.6756432533668044"><ele>1693.0</ele><time>2026-04-20T16:27:10.999Z</time></trkpt><trkpt lat="37.99243228015224" lon="-2.675728858716363"><ele>1693.0</ele><time>2026-04-20T16:27:11.999Z</time></trkpt><trkpt lat="37.99246603445771" lon="-2.6758226715422624"><ele>1693.0</ele><time>2026-04-20T16:27:12.999Z</time></trkpt><trkpt lat="37.99255975045915" lon="-2.6758726528287164"><ele>1693.0</ele><time>2026-04-20T16:27:13.999Z</time></trkpt><trkpt lat="37.992660553313456" lon="-2.675912474403939"><ele>1693.0</ele><time>2026-04-20T16:27:14.999Z</time></trkpt><trkpt lat="37.992740598676114" lon="-2.675978637481918"><ele>1693.0</ele><time>2026-04-20T16:27:15.999Z</time></trkpt><trkpt lat="37.99280748250355" lon="-2.6760665881783465"><ele>1691.25</ele><time>2026-04-20T16:27:17.999Z</time></trkpt><trkpt lat="37.9927484780569" lon="-2.6762098343429885"><ele>1689.5</ele><time>2026-04-20T16:27:19.999Z</time></trkpt><trkpt lat="37.99266752470636" lon="-2.676295281131097"><ele>1687.75</ele><time>2026-04-20T16:27:20.999Z</time></trkpt><trkpt lat="37.99256753556143" lon="-2.676405031338686"><ele>1686.0</ele><time>2026-04-20T16:27:21.999Z</time></trkpt><trkpt lat="37.99246749016748" lon="-2.6765359693186865"><ele>1687.5</ele><time>2026-04-20T16:27:22.999Z</time></trkpt><trkpt lat="37.99235062426849" lon="-2.6766638859928897"><ele>1689.0</ele><time>2026-04-20T16:27:23.999Z</time></trkpt><trkpt lat="37.992227426422254" lon="-2.6767802927899167"><ele>1690.5</ele><time>2026-04-20T16:27:24.999Z</time></trkpt><trkpt lat="37.99212343570287" lon="-2.676880301050593"><ele>1692.0</ele><time>2026-04-20T16:27:25.999Z</time></trkpt><trkpt lat="37.99203808541529" lon="-2.676972684643377"><ele>1692.0</ele><time>2026-04-20T16:27:26.999Z</time></trkpt><trkpt lat="37.99193609932213" lon="-2.677072832995368"><ele>1692.0</ele><time>2026-04-20T16:27:27.999Z</time></trkpt><trkpt lat="37.99181045630319" lon="-2.6771751746011505"><ele>1692.0</ele><time>2026-04-20T16:27:28.999Z</time></trkpt><trkpt lat="37.99168043487718" lon="-2.6772608400431603"><ele>1692.0</ele><time>2026-04-20T16:27:30Z</time></trkpt><trkpt lat="37.99155402570072" lon="-2.6773326409561142"><ele>1693.8</ele><time>2026-04-20T16:27:31Z</time></trkpt><trkpt lat="37.99144171992851" lon="-2.6774021478285697"><ele>1695.6</ele><time>2026-04-20T16:27:32Z</time></trkpt><trkpt lat="37.99133449236861" lon="-2.6774645215026784"><ele>1697.3999999999999</ele><time>2026-04-20T16:27:33Z</time></trkpt><trkpt lat="37.99124321041112" lon="-2.6775108313928944"><ele>1699.1999999999998</ele><time>2026-04-20T16:27:34Z</time></trkpt><trkpt lat="37.99115302400388" lon="-2.6775434516909216"><ele>1701.0</ele><time>2026-04-20T16:27:35Z</time></trkpt><trkpt lat="37.99106182161219" lon="-2.67756019616738"><ele>1701.0</ele><time>2026-04-20T16:27:36Z</time></trkpt><trkpt lat="37.99098154354352" lon="-2.677583301762849"><ele>1701.0</ele><time>2026-04-20T16:27:37Z</time></trkpt><trkpt lat="37.990925856891636" lon="-2.6776297903125927"><ele>1701.0</ele><time>2026-04-20T16:27:38Z</time></trkpt><trkpt lat="37.990887625664634" lon="-2.677718329529302"><ele>1701.0</ele><time>2026-04-20T16:27:39Z</time></trkpt><trkpt lat="37.99088505574727" lon="-2.677839541652794"><ele>1701.0</ele><time>2026-04-20T16:27:40Z</time></trkpt><trkpt lat="37.9909403482639" lon="-2.677946008319474"><ele>1701.0</ele><time>2026-04-20T16:27:41Z</time></trkpt><trkpt lat="37.99100907400698" lon="-2.678053338292236"><ele>1699.1999999999998</ele><time>2026-04-20T16:27:42Z</time></trkpt><trkpt lat="37.99110677007948" lon="-2.6781729016064597"><ele>1697.3999999999999</ele><time>2026-04-20T16:27:43Z</time></trkpt><trkpt lat="37.99118216349679" lon="-2.678262787509964"><ele>1695.6</ele><time>2026-04-20T16:27:44Z</time></trkpt><trkpt lat="37.991240184765275" lon="-2.678339638360969"><ele>1693.8</ele><time>2026-04-20T16:27:45Z</time></trkpt><trkpt lat="37.99128239640413" lon="-2.6784117362675968"><ele>1692.0</ele><time>2026-04-20T16:27:46Z</time></trkpt><trkpt lat="37.991290003965084" lon="-2.678518882196498"><ele>1690.75</ele><time>2026-04-20T16:27:47Z</time></trkpt><trkpt lat="37.9912637923317" lon="-2.678644465786402"><ele>1689.5</ele><time>2026-04-20T16:27:48Z</time></trkpt><trkpt lat="37.991201821704244" lon="-2.6787615250115393"><ele>1688.25</ele><time>2026-04-20T16:27:49Z</time></trkpt><trkpt lat="37.99111017409709" lon="-2.6788618455397204"><ele>1687.0</ele><time>2026-04-20T16:27:50Z</time></trkpt><trkpt lat="37.99098840011707" lon="-2.678962377482955"><ele>1687.0</ele><time>2026-04-20T16:27:51Z</time></trkpt><trkpt lat="37.99084627522702" lon="-2.6790762295418244"><ele>1687.0</ele><time>2026-04-20T16:27:52Z</time></trkpt><trkpt lat="37.99071207908143" lon="-2.679201022806609"><ele>1687.0</ele><time>2026-04-20T16:27:53Z</time></trkpt><trkpt lat="37.99056278627546" lon="-2.6793291395076526"><ele>1689.0</ele><time>2026-04-20T16:27:54Z</time></trkpt><trkpt lat="37.990435793922664" lon="-2.679457177846254"><ele>1691.0</ele><time>2026-04-20T16:27:55Z</time></trkpt><trkpt lat="37.99033178376293" lon="-2.679579246903491"><ele>1693.0</ele><time>2026-04-20T16:27:56Z</time></trkpt><trkpt lat="37.990247379781195" lon="-2.679729848645862"><ele>1693.0</ele><time>2026-04-20T16:27:57Z</time></trkpt><trkpt lat="37.99012608566317" lon="-2.679867342933353"><ele>1693.0</ele><time>2026-04-20T16:27:58Z</time></trkpt><trkpt lat="37.990028712553446" lon="-2.6800197344257537"><ele>1693.0</ele><time>2026-04-20T16:27:59Z</time></trkpt><trkpt lat="37.98992768115163" lon="-2.6801512113084263"><ele>1693.75</ele><time>2026-04-20T16:28:00Z</time></trkpt><trkpt lat="37.989855296742626" lon="-2.6802833552969103"><ele>1694.5</ele><time>2026-04-20T16:28:01Z</time></trkpt><trkpt lat="37.989795651429205" lon="-2.68042310163583"><ele>1695.25</ele><time>2026-04-20T16:28:02Z</time></trkpt><trkpt lat="37.98974036890024" lon="-2.6805882669745684"><ele>1696.0</ele><time>2026-04-20T16:28:03Z</time></trkpt><trkpt lat="37.98966464922668" lon="-2.680733118450391"><ele>1696.0</ele><time>2026-04-20T16:28:04Z</time></trkpt><trkpt lat="37.98960318243832" lon="-2.680889078088852"><ele>1696.0</ele><time>2026-04-20T16:28:05Z</time></trkpt><trkpt lat="37.989543015390005" lon="-2.681014026967146"><ele>1696.0</ele><time>2026-04-20T16:28:06Z</time></trkpt><trkpt lat="37.98952197161082" lon="-2.6811242638486825"><ele>1696.0</ele><time>2026-04-20T16:28:07Z</time></trkpt><trkpt lat="37.989512120728165" lon="-2.681205301312833"><ele>1696.0</ele><time>2026-04-20T16:28:08Z</time></trkpt><trkpt lat="37.98953478961569" lon="-2.681292507475976"><ele>1698.75</ele><time>2026-04-20T16:28:09Z</time></trkpt><trkpt lat="37.989585624107015" lon="-2.681379578474585"><ele>1701.5</ele><time>2026-04-20T16:28:10Z</time></trkpt><trkpt lat="37.98967859956322" lon="-2.6814528839914464"><ele>1704.25</ele><time>2026-04-20T16:28:11Z</time></trkpt><trkpt lat="37.98980816924641" lon="-2.681556764659291"><ele>1707.0</ele><time>2026-04-20T16:28:12Z</time></trkpt><trkpt lat="37.989911079078" lon="-2.6816778622682977"><ele>1707.0</ele><time>2026-04-20T16:28:13Z</time></trkpt><trkpt lat="37.98999164477829" lon="-2.6817835269696286"><ele>1706.9999999999998</ele><time>2026-04-20T16:28:14Z</time></trkpt><trkpt lat="37.99008594494032" lon="-2.6818197525328156"><ele>1706.9999999999998</ele><time>2026-04-20T16:28:15Z</time></trkpt><trkpt lat="37.99016433852939" lon="-2.681822140186215"><ele>1707.0</ele><time>2026-04-20T16:28:16Z</time></trkpt><trkpt lat="37.99025322946243" lon="-2.6817752150232472"><ele>1707.0</ele><time>2026-04-20T16:28:17Z</time></trkpt><trkpt lat="37.99036467645853" lon="-2.6817278293426545"><ele>1709.0</ele><time>2026-04-20T16:28:18Z</time></trkpt><trkpt lat="37.99049419836941" lon="-2.6816543890547373"><ele>1711.0</ele><time>2026-04-20T16:28:19Z</time></trkpt><trkpt lat="37.990633598016196" lon="-2.6815607811442295"><ele>1713.0</ele><time>2026-04-20T16:28:20Z</time></trkpt><trkpt lat="37.990786015998395" lon="-2.6814719911918914"><ele>1714.2</ele><time>2026-04-20T16:28:21Z</time></trkpt><trkpt lat="37.99089855401994" lon="-2.681367909810108"><ele>1715.4</ele><time>2026-04-20T16:28:22Z</time></trkpt><trkpt lat="37.99100000988203" lon="-2.6813177061631004"><ele>1716.6000000000001</ele><time>2026-04-20T16:28:23Z</time></trkpt><trkpt lat="37.99108559184576" lon="-2.68127265220455"><ele>1717.8000000000002</ele><time>2026-04-20T16:28:24Z</time></trkpt><trkpt lat="37.991175773417275" lon="-2.681273484390159"><ele>1719.0</ele><time>2026-04-20T16:28:25Z</time></trkpt><trkpt lat="37.99129108213971" lon="-2.681288295300128"><ele>1719.0</ele><time>2026-04-20T16:28:26Z</time></trkpt><trkpt lat="37.99141202954964" lon="-2.681414283634395"><ele>1719.0</ele><time>2026-04-20T16:28:27Z</time></trkpt><trkpt lat="37.99155423457233" lon="-2.6815186477627684"><ele>1719.0</ele><time>2026-04-20T16:28:28Z</time></trkpt><trkpt lat="37.9916984295909" lon="-2.6815958666515396"><ele>1718.0</ele><time>2026-04-20T16:28:28.999Z</time></trkpt><trkpt lat="37.99185311301262" lon="-2.6816280684078095"><ele>1717.0</ele><time>2026-04-20T16:28:29.999Z</time></trkpt><trkpt lat="37.99200555462062" lon="-2.68163486108087"><ele>1716.0</ele><time>2026-04-20T16:28:30.999Z</time></trkpt><trkpt lat="37.992155173855274" lon="-2.6816799140675234"><ele>1716.0</ele><time>2026-04-20T16:28:31.999Z</time></trkpt><trkpt lat="37.99228925603933" lon="-2.6817046027047025"><ele>1716.0</ele><time>2026-04-20T16:28:32.999Z</time></trkpt><trkpt lat="37.99239693686455" lon="-2.681730181581545"><ele>1716.0</ele><time>2026-04-20T16:28:33.999Z</time></trkpt><trkpt lat="37.99247902602437" lon="-2.681762719723239"><ele>1716.0</ele><time>2026-04-20T16:28:34.999Z</time></trkpt><trkpt lat="37.992550124433556" lon="-2.6818126990954436"><ele>1716.0</ele><time>2026-04-20T16:28:35.999Z</time></trkpt><trkpt lat="37.99262131657787" lon="-2.681889179138656"><ele>1718.6</ele><time>2026-04-20T16:28:36.999Z</time></trkpt><trkpt lat="37.99267299341036" lon="-2.681980553333769"><ele>1721.1999999999998</ele><time>2026-04-20T16:28:37.999Z</time></trkpt><trkpt lat="37.99272364629859" lon="-2.6820874160139234"><ele>1723.8000000000002</ele><time>2026-04-20T16:28:38.999Z</time></trkpt><trkpt lat="37.99277249750892" lon="-2.682213543299295"><ele>1726.4</ele><time>2026-04-20T16:28:39.999Z</time></trkpt><trkpt lat="37.99282040971074" lon="-2.6823544805725503"><ele>1729.0</ele><time>2026-04-20T16:28:40.999Z</time></trkpt><trkpt lat="37.99287700384518" lon="-2.682519992965422"><ele>1729.0</ele><time>2026-04-20T16:28:41.999Z</time></trkpt><trkpt lat="37.992934716433744" lon="-2.682690312453875"><ele>1729.0</ele><time>2026-04-20T16:28:42.999Z</time></trkpt><trkpt lat="37.99298580039022" lon="-2.682831817615942"><ele>1729.0</ele><time>2026-04-20T16:28:43.999Z</time></trkpt><trkpt lat="37.99302213600653" lon="-2.682939552873474"><ele>1729.0</ele><time>2026-04-20T16:28:44.999Z</time></trkpt><trkpt lat="37.99303504415869" lon="-2.6830419055129995"><ele>1729.0</ele><time>2026-04-20T16:28:45.999Z</time></trkpt><trkpt lat="37.99302710879999" lon="-2.6831522135623964"><ele>1731.75</ele><time>2026-04-20T16:28:46.999Z</time></trkpt><trkpt lat="37.99295735808126" lon="-2.683279334135322"><ele>1734.5</ele><time>2026-04-20T16:28:47.999Z</time></trkpt><trkpt lat="37.992875721718896" lon="-2.683415706031275"><ele>1737.25</ele><time>2026-04-20T16:28:48.999Z</time></trkpt><trkpt lat="37.992800217893056" lon="-2.6835591283094025"><ele>1740.0</ele><time>2026-04-20T16:28:49.999Z</time></trkpt><trkpt lat="37.99271251692309" lon="-2.6836984529269814"><ele>1740.0</ele><time>2026-04-20T16:28:50.999Z</time></trkpt><trkpt lat="37.992641225061725" lon="-2.6838117094915246"><ele>1740.0</ele><time>2026-04-20T16:28:51.999Z</time></trkpt><trkpt lat="37.99257590887272" lon="-2.6839036813125756"><ele>1740.0</ele><time>2026-04-20T16:28:52.999Z</time></trkpt><trkpt lat="37.99253821205538" lon="-2.6840186223828146"><ele>1740.0</ele><time>2026-04-20T16:28:53.999Z</time></trkpt><trkpt lat="37.99252167035067" lon="-2.6841367886913923"><ele>1740.0</ele><time>2026-04-20T16:28:54.999Z</time></trkpt><trkpt lat="37.99251511594325" lon="-2.6842819736312546"><ele>1738.25</ele><time>2026-04-20T16:28:55.999Z</time></trkpt><trkpt lat="37.992487416018726" lon="-2.6844162815988133"><ele>1736.5</ele><time>2026-04-20T16:28:56.999Z</time></trkpt><trkpt lat="37.99244460697964" lon="-2.6845701531929986"><ele>1734.75</ele><time>2026-04-20T16:28:57.999Z</time></trkpt><trkpt lat="37.992389019767906" lon="-2.684712463917963"><ele>1733.0</ele><time>2026-04-20T16:28:58.999Z</time></trkpt><trkpt lat="37.99233960994326" lon="-2.6848468961252054"><ele>1731.2</ele><time>2026-04-20T16:28:59.999Z</time></trkpt><trkpt lat="37.99229926474237" lon="-2.6849761128394487"><ele>1729.4</ele><time>2026-04-20T16:29:00.999Z</time></trkpt><trkpt lat="37.99227414867941" lon="-2.6851115011094597"><ele>1727.6000000000001</ele><time>2026-04-20T16:29:01.999Z</time></trkpt><trkpt lat="37.99226241685479" lon="-2.6852659796518563"><ele>1725.8000000000002</ele><time>2026-04-20T16:29:02.999Z</time></trkpt><trkpt lat="37.99228846270379" lon="-2.685396156319691"><ele>1724.0</ele><time>2026-04-20T16:29:03.999Z</time></trkpt><trkpt lat="37.99227813432253" lon="-2.6855037226688583"><ele>1722.0</ele><time>2026-04-20T16:29:04.999Z</time></trkpt><trkpt lat="37.99225950470086" lon="-2.6855938257465533"><ele>1720.0</ele><time>2026-04-20T16:29:05.999Z</time></trkpt><trkpt lat="37.992203276501286" lon="-2.6856800440756206"><ele>1718.0</ele><time>2026-04-20T16:29:06.999Z</time></trkpt><trkpt lat="37.992125820231166" lon="-2.685751830974449"><ele>1716.0</ele><time>2026-04-20T16:29:07.999Z</time></trkpt><trkpt lat="37.992032195582354" lon="-2.6858042807357396"><ele>1714.0</ele><time>2026-04-20T16:29:08.999Z</time></trkpt><trkpt lat="37.99193417996263" lon="-2.6858385125040747"><ele>1714.0000000000002</ele><time>2026-04-20T16:29:09.999Z</time></trkpt><trkpt lat="37.991851663277316" lon="-2.685870566193757"><ele>1714.0</ele><time>2026-04-20T16:29:10.999Z</time></trkpt><trkpt lat="37.99178628458017" lon="-2.6859111598398075"><ele>1714.0</ele><time>2026-04-20T16:29:11.999Z</time></trkpt><trkpt lat="37.991748688272615" lon="-2.68598647023176"><ele>1714.0</ele><time>2026-04-20T16:29:12.999Z</time></trkpt><trkpt lat="37.99174138376562" lon="-2.686089130141102"><ele>1714.0000000000002</ele><time>2026-04-20T16:29:13.999Z</time></trkpt><trkpt lat="37.99177733028474" lon="-2.6861957455008176"><ele>1714.0</ele><time>2026-04-20T16:29:14.999Z</time></trkpt><trkpt lat="37.991858601298766" lon="-2.686325611154316"><ele>1712.0</ele><time>2026-04-20T16:29:15.999Z</time></trkpt><trkpt lat="37.99192918620612" lon="-2.6864783578996168"><ele>1710.0</ele><time>2026-04-20T16:29:16.999Z</time></trkpt><trkpt lat="37.99198434141043" lon="-2.686645226921162"><ele>1708.0</ele><time>2026-04-20T16:29:17.999Z</time></trkpt><trkpt lat="37.99202580092992" lon="-2.686838132100726"><ele>1706.0</ele><time>2026-04-20T16:29:18.999Z</time></trkpt><trkpt lat="37.99206521318774" lon="-2.6870304167878163"><ele>1705.75</ele><time>2026-04-20T16:29:19.999Z</time></trkpt><trkpt lat="37.992109051402984" lon="-2.687208705062837"><ele>1705.5</ele><time>2026-04-20T16:29:20.999Z</time></trkpt><trkpt lat="37.99213861070072" lon="-2.6873535004926508"><ele>1705.25</ele><time>2026-04-20T16:29:21.999Z</time></trkpt><trkpt lat="37.99216126847545" lon="-2.6874891711894153"><ele>1705.0</ele><time>2026-04-20T16:29:22.999Z</time></trkpt><trkpt lat="37.992172849415205" lon="-2.6876275574190003"><ele>1705.0</ele><time>2026-04-20T16:29:23.999Z</time></trkpt><trkpt lat="37.99216138781199" lon="-2.687754314816607"><ele>1705.0</ele><time>2026-04-20T16:29:24.999Z</time></trkpt><trkpt lat="37.992141507971354" lon="-2.687866919180965"><ele>1705.0</ele><time>2026-04-20T16:29:25.999Z</time></trkpt><trkpt lat="37.99209662387435" lon="-2.687990649341396"><ele>1705.0</ele><time>2026-04-20T16:29:26.999Z</time></trkpt><trkpt lat="37.99202596432554" lon="-2.688128784036933"><ele>1705.0</ele><time>2026-04-20T16:29:27.999Z</time></trkpt><trkpt lat="37.99193059847828" lon="-2.6882840491993543"><ele>1705.5</ele><time>2026-04-20T16:29:28.999Z</time></trkpt><trkpt lat="37.991823582776895" lon="-2.688440433371486"><ele>1706.0</ele><time>2026-04-20T16:29:29.999Z</time></trkpt><trkpt lat="37.99174091652505" lon="-2.6885735140893336"><ele>1706.5</ele><time>2026-04-20T16:29:30.999Z</time></trkpt><trkpt lat="37.991663362358054" lon="-2.688694728186744"><ele>1707.0</ele><time>2026-04-20T16:29:31.999Z</time></trkpt><trkpt lat="37.991620641204406" lon="-2.688822127765646"><ele>1707.0</ele><time>2026-04-20T16:29:32.999Z</time></trkpt><trkpt lat="37.99158530229638" lon="-2.688937512908465"><ele>1707.0</ele><time>2026-04-20T16:29:33.999Z</time></trkpt><trkpt lat="37.99156209717597" lon="-2.6890476417112743"><ele>1707.0</ele><time>2026-04-20T16:29:35Z</time></trkpt><trkpt lat="37.99154813401868" lon="-2.689149458258506"><ele>1707.0</ele><time>2026-04-20T16:29:36Z</time></trkpt><trkpt lat="37.99155209357231" lon="-2.6892466468134395"><ele>1707.0</ele><time>2026-04-20T16:29:37Z</time></trkpt><trkpt lat="37.99158241530807" lon="-2.689326587699566"><ele>1707.0</ele><time>2026-04-20T16:29:38Z</time></trkpt><trkpt lat="37.99169194126618" lon="-2.6893850965833006"><ele>1705.0</ele><time>2026-04-20T16:29:40Z</time></trkpt><trkpt lat="37.99180864059016" lon="-2.689435809020125"><ele>1702.9999999999998</ele><time>2026-04-20T16:29:42Z</time></trkpt><trkpt lat="37.99193569442303" lon="-2.689481055612331"><ele>1701.0</ele><time>2026-04-20T16:29:44Z</time></trkpt><trkpt lat="37.99200742308432" lon="-2.689502093817482"><ele>1699.0</ele><time>2026-04-20T16:29:45Z</time></trkpt><trkpt lat="37.99207696323963" lon="-2.6895214140476225"><ele>1697.0</ele><time>2026-04-20T16:29:46Z</time></trkpt><trkpt lat="37.99215180251266" lon="-2.689539563433839"><ele>1696.9999999999998</ele><time>2026-04-20T16:29:47Z</time></trkpt><trkpt lat="37.99225897619448" lon="-2.6895687287215986"><ele>1697.0</ele><time>2026-04-20T16:29:49Z</time></trkpt><trkpt lat="37.99232115472061" lon="-2.6896069982013446"><ele>1697.0</ele><time>2026-04-20T16:29:52Z</time></trkpt><trkpt lat="37.99233863792648" lon="-2.689711947669638"><ele>1697.0</ele><time>2026-04-20T16:34:06.001Z</time></trkpt><trkpt lat="37.99233747056908" lon="-2.6897951890726586"><ele>1696.9999999999998</ele><time>2026-04-20T16:34:07.001Z</time></trkpt><trkpt lat="37.99233387845399" lon="-2.6898770281006663"><ele>1697.0</ele><time>2026-04-20T16:34:08.001Z</time></trkpt><trkpt lat="37.99230329632518" lon="-2.6899679542191754"><ele>1697.0</ele><time>2026-04-20T16:34:09.001Z</time></trkpt><trkpt lat="37.992242538516265" lon="-2.6900634608879606"><ele>1697.0</ele><time>2026-04-20T16:34:10Z</time></trkpt><trkpt lat="37.992189335558955" lon="-2.6901685180386274"><ele>1697.0</ele><time>2026-04-20T16:34:11Z</time></trkpt><trkpt lat="37.992133763323515" lon="-2.6902657988669185"><ele>1697.0</ele><time>2026-04-20T16:34:12Z</time></trkpt><trkpt lat="37.9920738397664" lon="-2.6903611262143947"><ele>1697.0</ele><time>2026-04-20T16:34:13Z</time></trkpt><trkpt lat="37.99200177108962" lon="-2.690450305449119"><ele>1696.3999999999999</ele><time>2026-04-20T16:34:14Z</time></trkpt><trkpt lat="37.99192376219429" lon="-2.690526461036262"><ele>1695.8</ele><time>2026-04-20T16:34:15Z</time></trkpt><trkpt lat="37.99183004831223" lon="-2.690593345016632"><ele>1695.2</ele><time>2026-04-20T16:34:16Z</time></trkpt><trkpt lat="37.99173594944698" lon="-2.6906524443362465"><ele>1694.6</ele><time>2026-04-20T16:34:17Z</time></trkpt><trkpt lat="37.99164888504665" lon="-2.6907040247227423"><ele>1694.0</ele><time>2026-04-20T16:34:18Z</time></trkpt><trkpt lat="37.991559754971014" lon="-2.690739505753691"><ele>1693.9999999999998</ele><time>2026-04-20T16:34:19Z</time></trkpt><trkpt lat="37.99147119974533" lon="-2.6907724899348144"><ele>1694.0</ele><time>2026-04-20T16:34:20Z</time></trkpt><trkpt lat="37.991386261723086" lon="-2.690796958063561"><ele>1694.0</ele><time>2026-04-20T16:34:21Z</time></trkpt><trkpt lat="37.991302884003126" lon="-2.6908107313841434"><ele>1694.0</ele><time>2026-04-20T16:34:22Z</time></trkpt><trkpt lat="37.99122830317001" lon="-2.6908099167468342"><ele>1693.9999999999998</ele><time>2026-04-20T16:34:23Z</time></trkpt><trkpt lat="37.991142011415654" lon="-2.69079571290639"><ele>1694.0</ele><time>2026-04-20T16:34:24Z</time></trkpt><trkpt lat="37.99105008222979" lon="-2.6907591830643853"><ele>1693.9999999999998</ele><time>2026-04-20T16:34:25Z</time></trkpt><trkpt lat="37.99096745191608" lon="-2.6907216392600946"><ele>1694.0</ele><time>2026-04-20T16:34:26Z</time></trkpt><trkpt lat="37.990894070553914" lon="-2.6906862809889605"><ele>1694.0</ele><time>2026-04-20T16:34:27Z</time></trkpt><trkpt lat="37.990827032188214" lon="-2.6906727352598954"><ele>1694.0</ele><time>2026-04-20T16:34:28Z</time></trkpt><trkpt lat="37.9907221434694" lon="-2.6907085741117287"><ele>1693.9999999999998</ele><time>2026-04-20T16:34:30Z</time></trkpt><trkpt lat="37.9906757724041" lon="-2.6908296313724045"><ele>1694.0</ele><time>2026-04-20T16:34:32Z</time></trkpt><trkpt lat="37.990680420770325" lon="-2.6909280629046552"><ele>1694.1666666666665</ele><time>2026-04-20T16:34:33Z</time></trkpt><trkpt lat="37.99072263675367" lon="-2.6910318344680073"><ele>1694.3333333333333</ele><time>2026-04-20T16:34:34Z</time></trkpt><trkpt lat="37.99077388042003" lon="-2.691114489252055"><ele>1694.5</ele><time>2026-04-20T16:34:35Z</time></trkpt><trkpt lat="37.99081242927326" lon="-2.691186892699317"><ele>1694.6666666666665</ele><time>2026-04-20T16:34:36Z</time></trkpt><trkpt lat="37.99084346624917" lon="-2.691326826082664"><ele>1694.8333333333333</ele><time>2026-04-20T16:34:38Z</time></trkpt><trkpt lat="37.99082996517381" lon="-2.6914118354173486"><ele>1695.0</ele><time>2026-04-20T16:34:39Z</time></trkpt><trkpt lat="37.99079624164279" lon="-2.6915000156142925"><ele>1693.7142857142858</ele><time>2026-04-20T16:34:40Z</time></trkpt><trkpt lat="37.99076314823592" lon="-2.691590807924836"><ele>1692.4285714285716</ele><time>2026-04-20T16:34:41Z</time></trkpt><trkpt lat="37.99072654770954" lon="-2.691689147262464"><ele>1691.142857142857</ele><time>2026-04-20T16:34:42Z</time></trkpt><trkpt lat="37.99068488948216" lon="-2.691778910918113"><ele>1689.857142857143</ele><time>2026-04-20T16:34:43Z</time></trkpt><trkpt lat="37.990643826968885" lon="-2.6918460961816613"><ele>1688.5714285714284</ele><time>2026-04-20T16:34:44Z</time></trkpt><trkpt lat="37.99059469636939" lon="-2.691899455014734"><ele>1687.2857142857142</ele><time>2026-04-20T16:34:45Z</time></trkpt><trkpt lat="37.99054063202182" lon="-2.6919518488118297"><ele>1686.0</ele><time>2026-04-20T16:34:46Z</time></trkpt><trkpt lat="37.990489444738955" lon="-2.6920115493011147"><ele>1686.0</ele><time>2026-04-20T16:34:47Z</time></trkpt><trkpt lat="37.99044559717633" lon="-2.692077066703741"><ele>1686.0</ele><time>2026-04-20T16:34:48Z</time></trkpt><trkpt lat="37.99039209569262" lon="-2.6922074421535176"><ele>1686.0</ele><time>2026-04-20T16:34:50Z</time></trkpt><trkpt lat="37.990382178110515" lon="-2.692342639444854"><ele>1686.0</ele><time>2026-04-20T16:34:52Z</time></trkpt><trkpt lat="37.990482946143956" lon="-2.6924294533369943"><ele>1686.0</ele><time>2026-04-20T16:34:54Z</time></trkpt><trkpt lat="37.99056813362023" lon="-2.692435906403583"><ele>1686.0</ele><time>2026-04-20T16:34:55Z</time></trkpt><trkpt lat="37.99065019030166" lon="-2.6924418022564107"><ele>1686.0</ele><time>2026-04-20T16:34:56Z</time></trkpt><trkpt lat="37.99074753807357" lon="-2.692462663139484"><ele>1686.0</ele><time>2026-04-20T16:34:58Z</time></trkpt><trkpt lat="37.99075842461648" lon="-2.692580838882546"><ele>1686.0</ele><time>2026-04-20T16:34:59Z</time></trkpt><trkpt lat="37.99071678005803" lon="-2.6927224280700535"><ele>1686.0</ele><time>2026-04-20T16:35:01Z</time></trkpt><trkpt lat="37.990649798942115" lon="-2.692778247106852"><ele>1692.25</ele><time>2026-04-20T16:35:02Z</time></trkpt><trkpt lat="37.990558546489" lon="-2.692827619853792"><ele>1698.5</ele><time>2026-04-20T16:35:03Z</time></trkpt><trkpt lat="37.990441656550715" lon="-2.69290511491428"><ele>1704.75</ele><time>2026-04-20T16:35:04Z</time></trkpt><trkpt lat="37.99032535513862" lon="-2.693022621442763"><ele>1711.0</ele><time>2026-04-20T16:35:05Z</time></trkpt><trkpt lat="37.99020584140209" lon="-2.6931622991525512"><ele>1711.0</ele><time>2026-04-20T16:35:06Z</time></trkpt><trkpt lat="37.99008042583216" lon="-2.6933002329889164"><ele>1711.0</ele><time>2026-04-20T16:35:07Z</time></trkpt><trkpt lat="37.98995139562132" lon="-2.693443639184757"><ele>1711.0</ele><time>2026-04-20T16:35:08Z</time></trkpt><trkpt lat="37.98984319254185" lon="-2.693563022172408"><ele>1711.0</ele><time>2026-04-20T16:35:09Z</time></trkpt><trkpt lat="37.98974686758388" lon="-2.6936899710285487"><ele>1711.0</ele><time>2026-04-20T16:35:10Z</time></trkpt><trkpt lat="37.98965834918346" lon="-2.693836994029677"><ele>1711.0</ele><time>2026-04-20T16:35:11Z</time></trkpt><trkpt lat="37.98957410923099" lon="-2.6939996985094545"><ele>1711.0</ele><time>2026-04-20T16:35:12Z</time></trkpt><trkpt lat="37.98949993252086" lon="-2.694167801440549"><ele>1711.0</ele><time>2026-04-20T16:35:13Z</time></trkpt><trkpt lat="37.989417463988495" lon="-2.6943328664868003"><ele>1711.0</ele><time>2026-04-20T16:35:14Z</time></trkpt><trkpt lat="37.98934148149751" lon="-2.6944956750297138"><ele>1711.0</ele><time>2026-04-20T16:35:15Z</time></trkpt><trkpt lat="37.98928120870336" lon="-2.6946435490481693"><ele>1711.0</ele><time>2026-04-20T16:35:16Z</time></trkpt><trkpt lat="37.989225638836395" lon="-2.6947965012818473"><ele>1710.5</ele><time>2026-04-20T16:35:17Z</time></trkpt><trkpt lat="37.98918513550486" lon="-2.694967874409469"><ele>1710.0</ele><time>2026-04-20T16:35:18Z</time></trkpt><trkpt lat="37.989163736919174" lon="-2.6951251849027966"><ele>1709.5</ele><time>2026-04-20T16:35:19Z</time></trkpt><trkpt lat="37.989114507222666" lon="-2.695255610947979"><ele>1709.0</ele><time>2026-04-20T16:35:20Z</time></trkpt><trkpt lat="37.989077725814056" lon="-2.6953732987542858"><ele>1711.8000000000002</ele><time>2026-04-20T16:35:21Z</time></trkpt><trkpt lat="37.98902609140922" lon="-2.695466454879129"><ele>1714.6000000000001</ele><time>2026-04-20T16:35:22Z</time></trkpt><trkpt lat="37.98896887749401" lon="-2.6955547371624773"><ele>1717.4</ele><time>2026-04-20T16:35:23Z</time></trkpt><trkpt lat="37.98887584366636" lon="-2.695585646441074"><ele>1720.2</ele><time>2026-04-20T16:35:24Z</time></trkpt><trkpt lat="37.98875729770957" lon="-2.6955404214511276"><ele>1723.0</ele><time>2026-04-20T16:35:25Z</time></trkpt><trkpt lat="37.98862867201298" lon="-2.6954907608503142"><ele>1723.0</ele><time>2026-04-20T16:35:26Z</time></trkpt><trkpt lat="37.98848767518937" lon="-2.6954314279864597"><ele>1723.0</ele><time>2026-04-20T16:35:27Z</time></trkpt><trkpt lat="37.98836217945448" lon="-2.695393851640284"><ele>1723.0</ele><time>2026-04-20T16:35:28Z</time></trkpt><trkpt lat="37.988237062043666" lon="-2.695405554532253"><ele>1723.0</ele><time>2026-04-20T16:35:29Z</time></trkpt><trkpt lat="37.98810942377272" lon="-2.6954225530703004"><ele>1723.0</ele><time>2026-04-20T16:35:29.999Z</time></trkpt><trkpt lat="37.987959136070536" lon="-2.695460350480642"><ele>1723.0</ele><time>2026-04-20T16:35:30.999Z</time></trkpt><trkpt lat="37.98778647837697" lon="-2.695486154873506"><ele>1723.0</ele><time>2026-04-20T16:35:31.999Z</time></trkpt><trkpt lat="37.98761810192443" lon="-2.695534698267981"><ele>1724.25</ele><time>2026-04-20T16:35:32.999Z</time></trkpt><trkpt lat="37.98746377306375" lon="-2.6955773990504874"><ele>1725.5</ele><time>2026-04-20T16:35:33.999Z</time></trkpt><trkpt lat="37.987338193429466" lon="-2.6956114338941948"><ele>1726.75</ele><time>2026-04-20T16:35:34.999Z</time></trkpt><trkpt lat="37.98722726382885" lon="-2.695656722980236"><ele>1728.0</ele><time>2026-04-20T16:35:35.999Z</time></trkpt><trkpt lat="37.98709987103976" lon="-2.695768921374314"><ele>1728.0</ele><time>2026-04-20T16:35:36.999Z</time></trkpt><trkpt lat="37.986955268966156" lon="-2.6958703468104344"><ele>1728.0</ele><time>2026-04-20T16:35:37.999Z</time></trkpt><trkpt lat="37.98679865820542" lon="-2.695937759065994"><ele>1728.0</ele><time>2026-04-20T16:35:38.999Z</time></trkpt><trkpt lat="37.98665885536688" lon="-2.6959962222416523"><ele>1726.3333333333335</ele><time>2026-04-20T16:35:39.999Z</time></trkpt><trkpt lat="37.98650075097028" lon="-2.696047483957666"><ele>1724.6666666666667</ele><time>2026-04-20T16:35:40.999Z</time></trkpt><trkpt lat="37.986324370516485" lon="-2.696103488382063"><ele>1723.0</ele><time>2026-04-20T16:35:41.999Z</time></trkpt><trkpt lat="37.986148728833705" lon="-2.696157240484458"><ele>1727.3333333333335</ele><time>2026-04-20T16:35:42.999Z</time></trkpt><trkpt lat="37.98597885403526" lon="-2.6962168143531606"><ele>1731.6666666666665</ele><time>2026-04-20T16:35:43.999Z</time></trkpt><trkpt lat="37.98581523166051" lon="-2.6962691737704714"><ele>1736.0</ele><time>2026-04-20T16:35:44.999Z</time></trkpt><trkpt lat="37.98567457010834" lon="-2.696308067097476"><ele>1736.0</ele><time>2026-04-20T16:35:45.999Z</time></trkpt><trkpt lat="37.985559967092826" lon="-2.696342089018173"><ele>1736.0</ele><time>2026-04-20T16:35:46.999Z</time></trkpt><trkpt lat="37.985468669390904" lon="-2.696382909219682"><ele>1736.0</ele><time>2026-04-20T16:35:47.999Z</time></trkpt><trkpt lat="37.985394395740904" lon="-2.696439691197241"><ele>1736.0</ele><time>2026-04-20T16:35:48.999Z</time></trkpt><trkpt lat="37.98534496190107" lon="-2.6965204496318185"><ele>1736.0</ele><time>2026-04-20T16:35:49.999Z</time></trkpt><trkpt lat="37.9853218252867" lon="-2.696647560680713"><ele>1736.0</ele><time>2026-04-20T16:35:50.999Z</time></trkpt><trkpt lat="37.985270314343964" lon="-2.696784912693085"><ele>1736.0</ele><time>2026-04-20T16:35:51.999Z</time></trkpt><trkpt lat="37.9852247251843" lon="-2.6968843301027072"><ele>1736.0</ele><time>2026-04-20T16:35:53Z</time></trkpt><trkpt lat="37.98516551850654" lon="-2.69697309675579"><ele>1736.0</ele><time>2026-04-20T16:35:54Z</time></trkpt><trkpt lat="37.98506405178251" lon="-2.6970349755117735"><ele>1736.0</ele><time>2026-04-20T16:35:55Z</time></trkpt><trkpt lat="37.9849383884842" lon="-2.6970330106394225"><ele>1736.75</ele><time>2026-04-20T16:35:56Z</time></trkpt><trkpt lat="37.984803381517686" lon="-2.697030536681832"><ele>1737.5</ele><time>2026-04-20T16:35:57Z</time></trkpt><trkpt lat="37.984656969824016" lon="-2.697012340419395"><ele>1738.25</ele><time>2026-04-20T16:35:58Z</time></trkpt><trkpt lat="37.98453623053409" lon="-2.696988402986736"><ele>1739.0</ele><time>2026-04-20T16:35:59Z</time></trkpt><trkpt lat="37.98445130460435" lon="-2.696983378423813"><ele>1739.0</ele><time>2026-04-20T16:36:00Z</time></trkpt><trkpt lat="37.984386360696526" lon="-2.696948930076934"><ele>1739.0</ele><time>2026-04-20T16:36:01Z</time></trkpt><trkpt lat="37.984329966342735" lon="-2.6968615448572746"><ele>1739.0</ele><time>2026-04-20T16:36:02Z</time></trkpt><trkpt lat="37.984320031005055" lon="-2.696742768505079"><ele>1739.0</ele><time>2026-04-20T16:36:03Z</time></trkpt><trkpt lat="37.984353657769404" lon="-2.696623095848115"><ele>1739.0</ele><time>2026-04-20T16:36:04Z</time></trkpt><trkpt lat="37.98443444573809" lon="-2.696515885216484"><ele>1739.6</ele><time>2026-04-20T16:36:05Z</time></trkpt><trkpt lat="37.98445003202755" lon="-2.6964248091645686"><ele>1740.2</ele><time>2026-04-20T16:36:06Z</time></trkpt><trkpt lat="37.98434676594269" lon="-2.6963469572384082"><ele>1740.7999999999997</ele><time>2026-04-20T16:36:08Z</time></trkpt><trkpt lat="37.98427919860207" lon="-2.696382311476095"><ele>1741.3999999999999</ele><time>2026-04-20T16:36:09Z</time></trkpt><trkpt lat="37.98424918646599" lon="-2.696495403032563"><ele>1742.0</ele><time>2026-04-20T16:36:10Z</time></trkpt><trkpt lat="37.98415447411432" lon="-2.69657754675838"><ele>1742.0</ele><time>2026-04-20T16:36:11Z</time></trkpt><trkpt lat="37.98403990754556" lon="-2.696701486769981"><ele>1742.0</ele><time>2026-04-20T16:36:12Z</time></trkpt><trkpt lat="37.98390886075574" lon="-2.696806175699874"><ele>1742.0</ele><time>2026-04-20T16:36:13Z</time></trkpt><trkpt lat="37.98377967708158" lon="-2.696918163120474"><ele>1743.25</ele><time>2026-04-20T16:36:14Z</time></trkpt><trkpt lat="37.98366191359204" lon="-2.69703193627957"><ele>1744.5</ele><time>2026-04-20T16:36:15Z</time></trkpt><trkpt lat="37.98356271730907" lon="-2.6971596153158637"><ele>1745.75</ele><time>2026-04-20T16:36:16Z</time></trkpt><trkpt lat="37.98349255580366" lon="-2.6972921713578586"><ele>1747.0</ele><time>2026-04-20T16:36:17Z</time></trkpt><trkpt lat="37.98345626407926" lon="-2.697405843175408"><ele>1747.0</ele><time>2026-04-20T16:36:18Z</time></trkpt><trkpt lat="37.98345187878447" lon="-2.697513051470156"><ele>1747.0</ele><time>2026-04-20T16:36:19Z</time></trkpt><trkpt lat="37.98349738599244" lon="-2.6976343035680483"><ele>1747.0</ele><time>2026-04-20T16:36:20Z</time></trkpt><trkpt lat="37.98351238282603" lon="-2.697811054756077"><ele>1747.0</ele><time>2026-04-20T16:36:21Z</time></trkpt><trkpt lat="37.983524846229045" lon="-2.697961252207175"><ele>1748.25</ele><time>2026-04-20T16:36:22Z</time></trkpt><trkpt lat="37.98350363735782" lon="-2.6981070342839706"><ele>1749.5</ele><time>2026-04-20T16:36:23Z</time></trkpt><trkpt lat="37.98345805552559" lon="-2.698258218559171"><ele>1750.75</ele><time>2026-04-20T16:36:24Z</time></trkpt><trkpt lat="37.983410800396996" lon="-2.6984081337929893"><ele>1752.0</ele><time>2026-04-20T16:36:25Z</time></trkpt><trkpt lat="37.983336277119434" lon="-2.6985635842864766"><ele>1753.5</ele><time>2026-04-20T16:36:26Z</time></trkpt><trkpt lat="37.98324131818679" lon="-2.698735991704049"><ele>1755.0</ele><time>2026-04-20T16:36:27Z</time></trkpt><trkpt lat="37.98315362429802" lon="-2.698882416375373"><ele>1756.5</ele><time>2026-04-20T16:36:28Z</time></trkpt><trkpt lat="37.98307534017284" lon="-2.699002145202328"><ele>1758.0</ele><time>2026-04-20T16:36:29Z</time></trkpt><trkpt lat="37.98299254499383" lon="-2.6990953205345503"><ele>1758.0</ele><time>2026-04-20T16:36:30Z</time></trkpt><trkpt lat="37.98287532129495" lon="-2.699167184533779"><ele>1758.0000000000002</ele><time>2026-04-20T16:36:31Z</time></trkpt><trkpt lat="37.982748925430684" lon="-2.6992161732594067"><ele>1758.0000000000002</ele><time>2026-04-20T16:36:32Z</time></trkpt><trkpt lat="37.98265091491222" lon="-2.6992597524983784"><ele>1758.0</ele><time>2026-04-20T16:36:33Z</time></trkpt><trkpt lat="37.982589100841274" lon="-2.699320588876067"><ele>1758.0</ele><time>2026-04-20T16:36:34Z</time></trkpt><trkpt lat="37.98251776304315" lon="-2.699431677506185"><ele>1758.0</ele><time>2026-04-20T16:36:35Z</time></trkpt><trkpt lat="37.98242375821967" lon="-2.699555426896383"><ele>1758.0</ele><time>2026-04-20T16:36:36Z</time></trkpt><trkpt lat="37.982310212454955" lon="-2.6996677234590583"><ele>1758.0</ele><time>2026-04-20T16:36:37Z</time></trkpt><trkpt lat="37.98217357651717" lon="-2.699781192970009"><ele>1758.0</ele><time>2026-04-20T16:36:38Z</time></trkpt><trkpt lat="37.98204431178327" lon="-2.6998782180266976"><ele>1758.0</ele><time>2026-04-20T16:36:39Z</time></trkpt><trkpt lat="37.98194006829476" lon="-2.699986132433019"><ele>1758.0</ele><time>2026-04-20T16:36:40Z</time></trkpt><trkpt lat="37.981849922239476" lon="-2.7001002697218643"><ele>1758.0</ele><time>2026-04-20T16:36:41Z</time></trkpt><trkpt lat="37.981769054488325" lon="-2.7002376985091883"><ele>1758.0</ele><time>2026-04-20T16:36:42Z</time></trkpt><trkpt lat="37.9816882846127" lon="-2.7003885247304815"><ele>1757.0</ele><time>2026-04-20T16:36:43Z</time></trkpt><trkpt lat="37.98161234014928" lon="-2.700539666234776"><ele>1756.0</ele><time>2026-04-20T16:36:44Z</time></trkpt><trkpt lat="37.98153974154146" lon="-2.7006880146704346"><ele>1755.0</ele><time>2026-04-20T16:36:45Z</time></trkpt><trkpt lat="37.981466661409904" lon="-2.700837777932782"><ele>1754.0</ele><time>2026-04-20T16:36:46Z</time></trkpt><trkpt lat="37.981401355057066" lon="-2.700963789227301"><ele>1754.0</ele><time>2026-04-20T16:36:47Z</time></trkpt><trkpt lat="37.981338931437165" lon="-2.701063302507722"><ele>1754.0</ele><time>2026-04-20T16:36:48Z</time></trkpt><trkpt lat="37.981262020940314" lon="-2.7011644741084995"><ele>1754.0</ele><time>2026-04-20T16:36:49Z</time></trkpt><trkpt lat="37.98118115894681" lon="-2.7012779149781254"><ele>1754.0</ele><time>2026-04-20T16:36:50Z</time></trkpt><trkpt lat="37.981103011276105" lon="-2.7014093762464957"><ele>1753.5</ele><time>2026-04-20T16:36:51Z</time></trkpt><trkpt lat="37.98101125135633" lon="-2.701525585936087"><ele>1753.0</ele><time>2026-04-20T16:36:52Z</time></trkpt><trkpt lat="37.98092270326121" lon="-2.701639113748235"><ele>1752.5</ele><time>2026-04-20T16:36:53Z</time></trkpt><trkpt lat="37.980824838314724" lon="-2.7017287657405795"><ele>1752.0</ele><time>2026-04-20T16:36:54Z</time></trkpt><trkpt lat="37.98072428556141" lon="-2.70180005595551"><ele>1751.3999999999999</ele><time>2026-04-20T16:36:55Z</time></trkpt><trkpt lat="37.98064035253838" lon="-2.7018697667033296"><ele>1750.7999999999997</ele><time>2026-04-20T16:36:56Z</time></trkpt><trkpt lat="37.980575629518945" lon="-2.701945132773454"><ele>1750.2</ele><time>2026-04-20T16:36:57Z</time></trkpt><trkpt lat="37.98052006167275" lon="-2.702008335237501"><ele>1749.6</ele><time>2026-04-20T16:36:58Z</time></trkpt><trkpt lat="37.98043826415503" lon="-2.7020457681651426"><ele>1749.0</ele><time>2026-04-20T16:36:59Z</time></trkpt><trkpt lat="37.980327176795456" lon="-2.7020489806397694"><ele>1748.75</ele><time>2026-04-20T16:37:00Z</time></trkpt><trkpt lat="37.980230060635215" lon="-2.70207684956819"><ele>1748.5</ele><time>2026-04-20T16:37:00.999Z</time></trkpt><trkpt lat="37.980157493741686" lon="-2.7021865157383482"><ele>1748.25</ele><time>2026-04-20T16:37:01.999Z</time></trkpt><trkpt lat="37.98005182016793" lon="-2.702298671139065"><ele>1748.0</ele><time>2026-04-20T16:37:02.999Z</time></trkpt><trkpt lat="37.97994740768333" lon="-2.7024191345988844"><ele>1748.0</ele><time>2026-04-20T16:37:03.999Z</time></trkpt><trkpt lat="37.97985457501592" lon="-2.7025222911740774"><ele>1748.0</ele><time>2026-04-20T16:37:04.999Z</time></trkpt><trkpt lat="37.979781457770876" lon="-2.7026322359464032"><ele>1748.0</ele><time>2026-04-20T16:37:05.999Z</time></trkpt><trkpt lat="37.979731232583916" lon="-2.7027729515168604"><ele>1748.0</ele><time>2026-04-20T16:37:06.999Z</time></trkpt><trkpt lat="37.97969295800506" lon="-2.7029002924518144"><ele>1747.9999999999998</ele><time>2026-04-20T16:37:07.999Z</time></trkpt><trkpt lat="37.9796597405475" lon="-2.702988663270608"><ele>1748.0</ele><time>2026-04-20T16:37:08.999Z</time></trkpt><trkpt lat="37.979634903898244" lon="-2.703095519653019"><ele>1748.0</ele><time>2026-04-20T16:37:09.999Z</time></trkpt><trkpt lat="37.979615395870276" lon="-2.703218291067719"><ele>1748.0</ele><time>2026-04-20T16:37:10.999Z</time></trkpt><trkpt lat="37.97959804470836" lon="-2.7033263576397153"><ele>1747.9999999999998</ele><time>2026-04-20T16:37:11.999Z</time></trkpt><trkpt lat="37.97957605663858" lon="-2.7034301242064966"><ele>1748.0</ele><time>2026-04-20T16:37:12.999Z</time></trkpt><trkpt lat="37.97954002755277" lon="-2.7035165650350734"><ele>1747.8333333333333</ele><time>2026-04-20T16:37:13.999Z</time></trkpt><trkpt lat="37.97950076362873" lon="-2.7036102316829815"><ele>1747.6666666666665</ele><time>2026-04-20T16:37:14.999Z</time></trkpt><trkpt lat="37.97946987216974" lon="-2.7037121659622527"><ele>1747.5</ele><time>2026-04-20T16:37:15.999Z</time></trkpt><trkpt lat="37.9794465262655" lon="-2.7038027724865397"><ele>1747.3333333333335</ele><time>2026-04-20T16:37:16.999Z</time></trkpt><trkpt lat="37.9794307267695" lon="-2.703886841910245"><ele>1747.1666666666667</ele><time>2026-04-20T16:37:17.999Z</time></trkpt><trkpt lat="37.97941360543613" lon="-2.7040008746576376"><ele>1747.0</ele><time>2026-04-20T16:37:19.999Z</time></trkpt><trkpt lat="37.97964553247621" lon="-2.704084974549819"><ele>1747.0</ele><time>2026-04-20T16:37:21.999Z</time></trkpt><trkpt lat="37.979758460008576" lon="-2.7040817714780983"><ele>1746.9999999999998</ele><time>2026-04-20T16:37:23.999Z</time></trkpt><trkpt lat="37.97983735452869" lon="-2.7041525900995773"><ele>1746.9999999999998</ele><time>2026-04-20T16:37:25.999Z</time></trkpt><trkpt lat="37.979826917016055" lon="-2.7042524674742885"><ele>1747.0</ele><time>2026-04-20T16:37:27.999Z</time></trkpt><trkpt lat="37.9797614237578" lon="-2.7043264382473726"><ele>1747.0</ele><time>2026-04-20T16:37:29.999Z</time></trkpt><trkpt lat="37.979687818926806" lon="-2.704324292220785"><ele>1747.0000000000002</ele><time>2026-04-20T16:37:31.999Z</time></trkpt><trkpt lat="37.979621232528686" lon="-2.704306723103173"><ele>1747.0</ele><time>2026-04-20T16:37:40.999Z</time></trkpt><trkpt lat="37.97956607148714" lon="-2.70437630026091"><ele>1747.0</ele><time>2026-04-20T16:37:42.999Z</time></trkpt><trkpt lat="37.97953566088152" lon="-2.704451042659647"><ele>1747.0</ele><time>2026-04-20T16:37:43.999Z</time></trkpt><trkpt lat="37.97951802856847" lon="-2.7045939621749873"><ele>1747.0000000000002</ele><time>2026-04-20T16:37:45.999Z</time></trkpt><trkpt lat="37.97952407590153" lon="-2.7047244643734745"><ele>1747.0</ele><time>2026-04-20T16:37:47.999Z</time></trkpt><trkpt lat="37.97955468568021" lon="-2.7048266847114975"><ele>1746.3999999999999</ele><time>2026-04-20T16:37:49.999Z</time></trkpt><trkpt lat="37.979553323867" lon="-2.7049529888336874"><ele>1745.7999999999997</ele><time>2026-04-20T16:37:51.999Z</time></trkpt><trkpt lat="37.97954100658398" lon="-2.7050576211301722"><ele>1745.2</ele><time>2026-04-20T16:37:52.999Z</time></trkpt><trkpt lat="37.97952258229522" lon="-2.70516345700439"><ele>1744.6</ele><time>2026-04-20T16:37:53.999Z</time></trkpt><trkpt lat="37.97950326110778" lon="-2.7052625456210313"><ele>1744.0</ele><time>2026-04-20T16:37:54.999Z</time></trkpt><trkpt lat="37.97935488394688" lon="-2.705326798051091"><ele>1743.75</ele><time>2026-04-20T16:37:55.999Z</time></trkpt><trkpt lat="37.97934025892406" lon="-2.70541924015129"><ele>1743.5</ele><time>2026-04-20T16:37:56.999Z</time></trkpt><trkpt lat="37.97930015574493" lon="-2.7055343159992447"><ele>1743.25</ele><time>2026-04-20T16:37:59Z</time></trkpt><trkpt lat="37.97927059863427" lon="-2.7056172747700216"><ele>1743.0</ele><time>2026-04-20T16:38:00Z</time></trkpt><trkpt lat="37.97921950121581" lon="-2.705876776202028"><ele>1743.0</ele><time>2026-04-20T16:38:02Z</time></trkpt><trkpt lat="37.979245655151274" lon="-2.706028918374322"><ele>1743.0</ele><time>2026-04-20T16:38:04Z</time></trkpt><trkpt lat="37.97975121463228" lon="-2.705863605871542"><ele>1743.0</ele><time>2026-04-20T16:38:06Z</time></trkpt><trkpt lat="37.979871659217984" lon="-2.705824549884679"><ele>1743.0</ele><time>2026-04-20T16:38:08Z</time></trkpt><trkpt lat="37.97995291851101" lon="-2.705805799108183"><ele>1743.0</ele><time>2026-04-20T16:38:10Z</time></trkpt><trkpt lat="37.979999055407085" lon="-2.7057326027711244"><ele>1743.0</ele><time>2026-04-20T16:38:13Z</time></trkpt></trkseg><trkseg><trkpt lat="37.97988120731139" lon="-2.7057221449920377"><ele>1743.0</ele><time>2026-04-20T17:05:10Z</time></trkpt><trkpt lat="37.97981894187534" lon="-2.7057963279259716"><ele>1743.0000000000002</ele><time>2026-04-20T17:05:12Z</time></trkpt><trkpt lat="37.979737250032436" lon="-2.7058916889444933"><ele>1743.0000000000002</ele><time>2026-04-20T17:05:14Z</time></trkpt><trkpt lat="37.979650714944555" lon="-2.705977820002697"><ele>1743.0</ele><time>2026-04-20T17:05:16Z</time></trkpt><trkpt lat="37.979570365044765" lon="-2.706064541863324"><ele>1743.0</ele><time>2026-04-20T17:05:18Z</time></trkpt><trkpt lat="37.979511283757994" lon="-2.706141485912105"><ele>1742.0</ele><time>2026-04-20T17:05:20Z</time></trkpt><trkpt lat="37.97943229041172" lon="-2.7062280615024124"><ele>1741.0000000000002</ele><time>2026-04-20T17:05:22Z</time></trkpt><trkpt lat="37.979364518526644" lon="-2.706316767241572"><ele>1740.0000000000002</ele><time>2026-04-20T17:05:24Z</time></trkpt><trkpt lat="37.97930669914619" lon="-2.706409854737894"><ele>1739.0</ele><time>2026-04-20T17:05:26Z</time></trkpt><trkpt lat="37.97926176654309" lon="-2.7064921641251383"><ele>1738.0</ele><time>2026-04-20T17:05:28Z</time></trkpt><trkpt lat="37.9792555661759" lon="-2.7065909559760026"><ele>1738.0000000000002</ele><time>2026-04-20T17:05:30Z</time></trkpt><trkpt lat="37.97925917791173" lon="-2.7066828494949933"><ele>1738.0</ele><time>2026-04-20T17:05:32Z</time></trkpt><trkpt lat="37.979270669659364" lon="-2.7067949540498137"><ele>1738.0</ele><time>2026-04-20T17:05:34Z</time></trkpt><trkpt lat="37.979293891565796" lon="-2.706876245425827"><ele>1738.0</ele><time>2026-04-20T17:05:35Z</time></trkpt><trkpt lat="37.97932901032158" lon="-2.706962507863613"><ele>1738.0000000000002</ele><time>2026-04-20T17:05:36Z</time></trkpt><trkpt lat="37.9793677600696" lon="-2.7070614523398913"><ele>1738.0</ele><time>2026-04-20T17:05:37Z</time></trkpt><trkpt lat="37.97940319156518" lon="-2.70717466141619"><ele>1736.6000000000001</ele><time>2026-04-20T17:05:38Z</time></trkpt><trkpt lat="37.97943376930691" lon="-2.7072866693292625"><ele>1735.2000000000003</ele><time>2026-04-20T17:05:38.999Z</time></trkpt><trkpt lat="37.979463615169436" lon="-2.7073930584247723"><ele>1733.8</ele><time>2026-04-20T17:05:39.999Z</time></trkpt><trkpt lat="37.97949608950195" lon="-2.7074977206019097"><ele>1732.4</ele><time>2026-04-20T17:05:40.999Z</time></trkpt><trkpt lat="37.97953850611158" lon="-2.7076100412687225"><ele>1731.0</ele><time>2026-04-20T17:05:41.999Z</time></trkpt><trkpt lat="37.97958095123945" lon="-2.7077186046807227"><ele>1730.25</ele><time>2026-04-20T17:05:42.999Z</time></trkpt><trkpt lat="37.97963857522628" lon="-2.707824617961034"><ele>1729.5</ele><time>2026-04-20T17:05:43.999Z</time></trkpt><trkpt lat="37.979718265906456" lon="-2.7079146857849214"><ele>1728.75</ele><time>2026-04-20T17:05:44.999Z</time></trkpt><trkpt lat="37.9798080788009" lon="-2.7080210039619312"><ele>1728.0</ele><time>2026-04-20T17:05:45.999Z</time></trkpt><trkpt lat="37.97988823912739" lon="-2.708155986247584"><ele>1728.0</ele><time>2026-04-20T17:05:46.999Z</time></trkpt><trkpt lat="37.97996070272406" lon="-2.708314003339018"><ele>1728.0</ele><time>2026-04-20T17:05:47.999Z</time></trkpt><trkpt lat="37.980029868645246" lon="-2.708488748624462"><ele>1728.0</ele><time>2026-04-20T17:05:48.999Z</time></trkpt><trkpt lat="37.9801098339147" lon="-2.7086709712295702"><ele>1727.0</ele><time>2026-04-20T17:05:49.999Z</time></trkpt><trkpt lat="37.98018040330486" lon="-2.7088517779180687"><ele>1726.0</ele><time>2026-04-20T17:05:50.999Z</time></trkpt><trkpt lat="37.98024943162338" lon="-2.709016967984864"><ele>1725.0</ele><time>2026-04-20T17:05:51.999Z</time></trkpt><trkpt lat="37.98031571254473" lon="-2.7091863928456608"><ele>1725.0</ele><time>2026-04-20T17:05:52.999Z</time></trkpt><trkpt lat="37.98038659368744" lon="-2.7093569574046095"><ele>1725.0</ele><time>2026-04-20T17:05:53.999Z</time></trkpt><trkpt lat="37.98044314191474" lon="-2.709524567812389"><ele>1725.0</ele><time>2026-04-20T17:05:54.999Z</time></trkpt><trkpt lat="37.98048918628865" lon="-2.7096974461909697"><ele>1725.0</ele><time>2026-04-20T17:05:55.999Z</time></trkpt><trkpt lat="37.98051435117574" lon="-2.7098559835301517"><ele>1725.0</ele><time>2026-04-20T17:05:56.999Z</time></trkpt><trkpt lat="37.980532954630455" lon="-2.7100064739148126"><ele>1725.0</ele><time>2026-04-20T17:05:57.999Z</time></trkpt><trkpt lat="37.98053779757908" lon="-2.71017595174631"><ele>1725.0</ele><time>2026-04-20T17:05:58.999Z</time></trkpt><trkpt lat="37.98052828314432" lon="-2.7103763440375346"><ele>1725.0</ele><time>2026-04-20T17:05:59.999Z</time></trkpt><trkpt lat="37.98053319614541" lon="-2.710591933660597"><ele>1725.0</ele><time>2026-04-20T17:06:00.999Z</time></trkpt><trkpt lat="37.98055971326663" lon="-2.7107688681011886"><ele>1725.0</ele><time>2026-04-20T17:06:01.999Z</time></trkpt><trkpt lat="37.98058820736496" lon="-2.7108980415159785"><ele>1725.0</ele><time>2026-04-20T17:06:02.999Z</time></trkpt><trkpt lat="37.98060720534009" lon="-2.7110018839048675"><ele>1725.0</ele><time>2026-04-20T17:06:03.999Z</time></trkpt><trkpt lat="37.98062811642059" lon="-2.7111075337696113"><ele>1725.0</ele><time>2026-04-20T17:06:04.999Z</time></trkpt><trkpt lat="37.98067216818063" lon="-2.711227735239811"><ele>1725.5</ele><time>2026-04-20T17:06:05.999Z</time></trkpt><trkpt lat="37.98074310199221" lon="-2.7113710483911753"><ele>1726.0</ele><time>2026-04-20T17:06:06.999Z</time></trkpt><trkpt lat="37.980814186855795" lon="-2.7115150279016547"><ele>1726.5</ele><time>2026-04-20T17:06:07.999Z</time></trkpt><trkpt lat="37.980890662481855" lon="-2.71163283745437"><ele>1727.0</ele><time>2026-04-20T17:06:08.999Z</time></trkpt><trkpt lat="37.9809622924795" lon="-2.7117365945623475"><ele>1726.1999999999998</ele><time>2026-04-20T17:06:09.999Z</time></trkpt><trkpt lat="37.98102449911942" lon="-2.711846237520231"><ele>1725.3999999999999</ele><time>2026-04-20T17:06:10.999Z</time></trkpt><trkpt lat="37.98108894686685" lon="-2.7119671211569143"><ele>1724.6000000000001</ele><time>2026-04-20T17:06:11.999Z</time></trkpt><trkpt lat="37.98115488088731" lon="-2.712095375054259"><ele>1723.8000000000002</ele><time>2026-04-20T17:06:12.999Z</time></trkpt><trkpt lat="37.98120055470642" lon="-2.712211741632921"><ele>1723.0</ele><time>2026-04-20T17:06:13.999Z</time></trkpt><trkpt lat="37.981234506636106" lon="-2.7123170787046997"><ele>1722.2</ele><time>2026-04-20T17:06:14.999Z</time></trkpt><trkpt lat="37.981260517136754" lon="-2.712434499237195"><ele>1721.4</ele><time>2026-04-20T17:06:15.999Z</time></trkpt><trkpt lat="37.981269099048966" lon="-2.7125550727748275"><ele>1720.6000000000001</ele><time>2026-04-20T17:06:16.999Z</time></trkpt><trkpt lat="37.98126771353651" lon="-2.7126802358957045"><ele>1719.8000000000002</ele><time>2026-04-20T17:06:17.999Z</time></trkpt><trkpt lat="37.98123244292536" lon="-2.7128161108009676"><ele>1719.0</ele><time>2026-04-20T17:06:18.999Z</time></trkpt><trkpt lat="37.98118080810044" lon="-2.7129530416796115"><ele>1718.2</ele><time>2026-04-20T17:06:19.999Z</time></trkpt><trkpt lat="37.98113855538894" lon="-2.7130773302599906"><ele>1717.4</ele><time>2026-04-20T17:06:20.999Z</time></trkpt><trkpt lat="37.98113766850767" lon="-2.7131950255675337"><ele>1716.6</ele><time>2026-04-20T17:06:21.999Z</time></trkpt><trkpt lat="37.98116642348217" lon="-2.7133184814521867"><ele>1715.8</ele><time>2026-04-20T17:06:22.999Z</time></trkpt><trkpt lat="37.9812235500267" lon="-2.713420193279525"><ele>1715.0</ele><time>2026-04-20T17:06:23.999Z</time></trkpt><trkpt lat="37.981278749138546" lon="-2.7135034286981767"><ele>1714.8</ele><time>2026-04-20T17:06:24.999Z</time></trkpt><trkpt lat="37.981303629595" lon="-2.7135928903997706"><ele>1714.6</ele><time>2026-04-20T17:06:25.999Z</time></trkpt><trkpt lat="37.98130857330732" lon="-2.7137041149829098"><ele>1714.4</ele><time>2026-04-20T17:06:26.999Z</time></trkpt><trkpt lat="37.98130226802202" lon="-2.7138358039938946"><ele>1714.2</ele><time>2026-04-20T17:06:27.999Z</time></trkpt><trkpt lat="37.98129625675657" lon="-2.7139782231170604"><ele>1714.0</ele><time>2026-04-20T17:06:28.999Z</time></trkpt><trkpt lat="37.98131656583278" lon="-2.7141388655206726"><ele>1714.0</ele><time>2026-04-20T17:06:29.999Z</time></trkpt><trkpt lat="37.98135620939035" lon="-2.7143016765133354"><ele>1714.0</ele><time>2026-04-20T17:06:30.999Z</time></trkpt><trkpt lat="37.98139964234416" lon="-2.7144610782758067"><ele>1714.0</ele><time>2026-04-20T17:06:31.999Z</time></trkpt><trkpt lat="37.98142865733758" lon="-2.7146049742011775"><ele>1714.0</ele><time>2026-04-20T17:06:32.999Z</time></trkpt><trkpt lat="37.98143538788203" lon="-2.7147336220244638"><ele>1714.25</ele><time>2026-04-20T17:06:33.999Z</time></trkpt><trkpt lat="37.98142841762977" lon="-2.714868351211672"><ele>1714.5</ele><time>2026-04-20T17:06:34.999Z</time></trkpt><trkpt lat="37.98139099184332" lon="-2.7150468225616415"><ele>1714.75</ele><time>2026-04-20T17:06:35.999Z</time></trkpt><trkpt lat="37.98134047602278" lon="-2.7152284078355233"><ele>1715.0</ele><time>2026-04-20T17:06:36.999Z</time></trkpt><trkpt lat="37.98130264742361" lon="-2.7154025860897772"><ele>1715.0</ele><time>2026-04-20T17:06:37.999Z</time></trkpt><trkpt lat="37.98126637561119" lon="-2.715575873151367"><ele>1715.0</ele><time>2026-04-20T17:06:38.999Z</time></trkpt><trkpt lat="37.98122796293157" lon="-2.7157493432975626"><ele>1715.0</ele><time>2026-04-20T17:06:39.999Z</time></trkpt><trkpt lat="37.98118734233325" lon="-2.7158860989118216"><ele>1715.0</ele><time>2026-04-20T17:06:40.999Z</time></trkpt><trkpt lat="37.98112759076412" lon="-2.7160147226070683"><ele>1714.75</ele><time>2026-04-20T17:06:41.998Z</time></trkpt><trkpt lat="37.98103599907041" lon="-2.716150271265223"><ele>1714.5</ele><time>2026-04-20T17:06:42.998Z</time></trkpt><trkpt lat="37.980932364087224" lon="-2.7162836048311605"><ele>1714.25</ele><time>2026-04-20T17:06:43.998Z</time></trkpt><trkpt lat="37.980826261305445" lon="-2.716432826142634"><ele>1714.0</ele><time>2026-04-20T17:06:44.998Z</time></trkpt><trkpt lat="37.98074117068823" lon="-2.71659050477381"><ele>1712.0</ele><time>2026-04-20T17:06:45.998Z</time></trkpt><trkpt lat="37.98066656821181" lon="-2.7167372321881453"><ele>1710.0</ele><time>2026-04-20T17:06:46.998Z</time></trkpt><trkpt lat="37.980594025353426" lon="-2.716877511085559"><ele>1708.0</ele><time>2026-04-20T17:06:47.998Z</time></trkpt><trkpt lat="37.98053441393239" lon="-2.7170060827311433"><ele>1706.0</ele><time>2026-04-20T17:06:48.998Z</time></trkpt><trkpt lat="37.98048038764796" lon="-2.717117161430317"><ele>1705.3333333333333</ele><time>2026-04-20T17:06:49.998Z</time></trkpt><trkpt lat="37.980438090574516" lon="-2.717218930127943"><ele>1704.6666666666665</ele><time>2026-04-20T17:06:50.998Z</time></trkpt><trkpt lat="37.980413403130285" lon="-2.717316466122537"><ele>1704.0</ele><time>2026-04-20T17:06:51.998Z</time></trkpt><trkpt lat="37.98040881980857" lon="-2.717423520351793"><ele>1703.3333333333335</ele><time>2026-04-20T17:06:52.999Z</time></trkpt><trkpt lat="37.98043788229219" lon="-2.717522400593998"><ele>1702.6666666666667</ele><time>2026-04-20T17:06:53.999Z</time></trkpt><trkpt lat="37.980487764994045" lon="-2.717625789181898"><ele>1702.0</ele><time>2026-04-20T17:06:54.999Z</time></trkpt><trkpt lat="37.98054433268269" lon="-2.717735989458112"><ele>1701.1999999999998</ele><time>2026-04-20T17:06:55.999Z</time></trkpt><trkpt lat="37.980569128429934" lon="-2.7178396435847465"><ele>1700.4</ele><time>2026-04-20T17:06:56.999Z</time></trkpt><trkpt lat="37.98055847460254" lon="-2.7179592985652934"><ele>1699.6</ele><time>2026-04-20T17:06:57.999Z</time></trkpt><trkpt lat="37.98051186628289" lon="-2.718092426821607"><ele>1698.8000000000002</ele><time>2026-04-20T17:06:58.999Z</time></trkpt><trkpt lat="37.98043196112298" lon="-2.7182354487338256"><ele>1698.0</ele><time>2026-04-20T17:06:59.999Z</time></trkpt><trkpt lat="37.980345540683345" lon="-2.7183933763921018"><ele>1698.0</ele><time>2026-04-20T17:07:00.999Z</time></trkpt><trkpt lat="37.98026851182729" lon="-2.718549531563023"><ele>1698.0</ele><time>2026-04-20T17:07:01.999Z</time></trkpt><trkpt lat="37.98019712391252" lon="-2.718675013440357"><ele>1698.0</ele><time>2026-04-20T17:07:02.999Z</time></trkpt><trkpt lat="37.98013359559956" lon="-2.718777533467633"><ele>1698.0</ele><time>2026-04-20T17:07:03.999Z</time></trkpt><trkpt lat="37.98009262325353" lon="-2.7188654526073925"><ele>1697.8000000000002</ele><time>2026-04-20T17:07:04.999Z</time></trkpt><trkpt lat="37.98007136869725" lon="-2.7189610451881316"><ele>1697.6</ele><time>2026-04-20T17:07:05.999Z</time></trkpt><trkpt lat="37.98007808058322" lon="-2.719077853960818"><ele>1697.4</ele><time>2026-04-20T17:07:06.999Z</time></trkpt><trkpt lat="37.98011386908797" lon="-2.7192119919408793"><ele>1697.1999999999998</ele><time>2026-04-20T17:07:07.999Z</time></trkpt><trkpt lat="37.98015062173622" lon="-2.7193307811399867"><ele>1697.0</ele><time>2026-04-20T17:07:08.999Z</time></trkpt><trkpt lat="37.9801671853364" lon="-2.719450285279217"><ele>1695.6</ele><time>2026-04-20T17:07:09.999Z</time></trkpt><trkpt lat="37.980149354156566" lon="-2.719572212116289"><ele>1694.1999999999998</ele><time>2026-04-20T17:07:10.999Z</time></trkpt><trkpt lat="37.980102773488824" lon="-2.7196865640212655"><ele>1692.8</ele><time>2026-04-20T17:07:11.999Z</time></trkpt><trkpt lat="37.980026918541405" lon="-2.7197676322324584"><ele>1691.4</ele><time>2026-04-20T17:07:12.999Z</time></trkpt><trkpt lat="37.97992631596481" lon="-2.7198378429011005"><ele>1690.0</ele><time>2026-04-20T17:07:13.999Z</time></trkpt><trkpt lat="37.97981302329518" lon="-2.719920060305341"><ele>1688.8</ele><time>2026-04-20T17:07:14.999Z</time></trkpt><trkpt lat="37.979728896716516" lon="-2.7200030512555107"><ele>1687.6</ele><time>2026-04-20T17:07:15.999Z</time></trkpt><trkpt lat="37.9796712949918" lon="-2.7201137204484174"><ele>1686.4</ele><time>2026-04-20T17:07:16.999Z</time></trkpt><trkpt lat="37.97963495204971" lon="-2.720254366585187"><ele>1685.2</ele><time>2026-04-20T17:07:17.999Z</time></trkpt><trkpt lat="37.97963542745489" lon="-2.720393927493695"><ele>1684.0</ele><time>2026-04-20T17:07:18.999Z</time></trkpt><trkpt lat="37.97964867623801" lon="-2.7205310758189674"><ele>1683.4</ele><time>2026-04-20T17:07:19.999Z</time></trkpt><trkpt lat="37.979645796721314" lon="-2.7206283275647354"><ele>1682.8000000000002</ele><time>2026-04-20T17:07:20.999Z</time></trkpt><trkpt lat="37.97960612036886" lon="-2.7207582515741575"><ele>1682.1999999999998</ele><time>2026-04-20T17:07:21.999Z</time></trkpt><trkpt lat="37.979549475061795" lon="-2.720901148303274"><ele>1681.6</ele><time>2026-04-20T17:07:22.999Z</time></trkpt><trkpt lat="37.97949762248967" lon="-2.7210234457649576"><ele>1681.0</ele><time>2026-04-20T17:07:23.999Z</time></trkpt><trkpt lat="37.97944286263704" lon="-2.72112912886011"><ele>1680.5</ele><time>2026-04-20T17:07:24.999Z</time></trkpt><trkpt lat="37.97936166944035" lon="-2.7212214405592015"><ele>1680.0</ele><time>2026-04-20T17:07:25.999Z</time></trkpt><trkpt lat="37.97925720916951" lon="-2.7213132196034597"><ele>1679.5</ele><time>2026-04-20T17:07:26.999Z</time></trkpt><trkpt lat="37.9791534289168" lon="-2.721423460491743"><ele>1679.0</ele><time>2026-04-20T17:07:27.999Z</time></trkpt><trkpt lat="37.97905926731538" lon="-2.7215498689345625"><ele>1679.0</ele><time>2026-04-20T17:07:28.999Z</time></trkpt><trkpt lat="37.97896729751423" lon="-2.7216754100086855"><ele>1679.0</ele><time>2026-04-20T17:07:29.999Z</time></trkpt><trkpt lat="37.97886427125874" lon="-2.7217989943081764"><ele>1679.0</ele><time>2026-04-20T17:07:30.999Z</time></trkpt><trkpt lat="37.97875047619195" lon="-2.7219293099753186"><ele>1679.0</ele><time>2026-04-20T17:07:31.999Z</time></trkpt><trkpt lat="37.97863872718687" lon="-2.722067146582867"><ele>1679.0</ele><time>2026-04-20T17:07:32.999Z</time></trkpt><trkpt lat="37.978525621553715" lon="-2.7222248768107304"><ele>1679.0</ele><time>2026-04-20T17:07:33.999Z</time></trkpt><trkpt lat="37.978424398046855" lon="-2.7223640877255955"><ele>1679.0</ele><time>2026-04-20T17:07:34.999Z</time></trkpt><trkpt lat="37.97831590825587" lon="-2.722504194776568"><ele>1679.0</ele><time>2026-04-20T17:07:35.999Z</time></trkpt><trkpt lat="37.97819721694157" lon="-2.7226421457807497"><ele>1679.0</ele><time>2026-04-20T17:07:36.999Z</time></trkpt><trkpt lat="37.97807803387434" lon="-2.7227754696083726"><ele>1679.0</ele><time>2026-04-20T17:07:37.999Z</time></trkpt><trkpt lat="37.977957320019904" lon="-2.7229208201192594"><ele>1676.0</ele><time>2026-04-20T17:07:38.999Z</time></trkpt><trkpt lat="37.97784484274313" lon="-2.723054538025565"><ele>1673.0</ele><time>2026-04-20T17:07:39.999Z</time></trkpt><trkpt lat="37.977734628307516" lon="-2.723186164033899"><ele>1670.0</ele><time>2026-04-20T17:07:40.999Z</time></trkpt><trkpt lat="37.977623959591796" lon="-2.7233111672671724"><ele>1670.5</ele><time>2026-04-20T17:07:41.999Z</time></trkpt><trkpt lat="37.9775160765326" lon="-2.723445312923614"><ele>1671.0</ele><time>2026-04-20T17:07:42.999Z</time></trkpt><trkpt lat="37.97741623211961" lon="-2.7235865661146574"><ele>1671.5</ele><time>2026-04-20T17:07:43.999Z</time></trkpt><trkpt lat="37.97732603382863" lon="-2.723718893998522"><ele>1672.0</ele><time>2026-04-20T17:07:44.999Z</time></trkpt><trkpt lat="37.9772357262525" lon="-2.7238347745959897"><ele>1672.0</ele><time>2026-04-20T17:07:45.999Z</time></trkpt><trkpt lat="37.97712886397266" lon="-2.723949251389682"><ele>1672.0</ele><time>2026-04-20T17:07:46.999Z</time></trkpt><trkpt lat="37.97699474816493" lon="-2.724064266348258"><ele>1672.0</ele><time>2026-04-20T17:07:47.999Z</time></trkpt><trkpt lat="37.97684961481326" lon="-2.724181246339237"><ele>1672.0</ele><time>2026-04-20T17:07:48.999Z</time></trkpt><trkpt lat="37.976715353487144" lon="-2.724305466750004"><ele>1672.0</ele><time>2026-04-20T17:07:49.999Z</time></trkpt><trkpt lat="37.97659453155299" lon="-2.7244242918917196"><ele>1672.0</ele><time>2026-04-20T17:07:50.999Z</time></trkpt><trkpt lat="37.976462592936116" lon="-2.7245355097650443"><ele>1675.0</ele><time>2026-04-20T17:07:51.999Z</time></trkpt><trkpt lat="37.97633189083472" lon="-2.7246298288093476"><ele>1678.0</ele><time>2026-04-20T17:07:52.999Z</time></trkpt><trkpt lat="37.97619925373029" lon="-2.7247313351770757"><ele>1681.0</ele><time>2026-04-20T17:07:53.999Z</time></trkpt><trkpt lat="37.97606746167203" lon="-2.7248357590192422"><ele>1681.0</ele><time>2026-04-20T17:07:54.999Z</time></trkpt><trkpt lat="37.97593537215873" lon="-2.724933025507633"><ele>1681.0</ele><time>2026-04-20T17:07:55.999Z</time></trkpt><trkpt lat="37.97582214341165" lon="-2.7250078398074047"><ele>1681.0</ele><time>2026-04-20T17:07:56.999Z</time></trkpt><trkpt lat="37.97572607361673" lon="-2.725068250751476"><ele>1681.0</ele><time>2026-04-20T17:07:57.999Z</time></trkpt><trkpt lat="37.97562805921921" lon="-2.725107196995036"><ele>1681.0</ele><time>2026-04-20T17:07:58.999Z</time></trkpt><trkpt lat="37.97553662105948" lon="-2.7251562834836585"><ele>1681.0</ele><time>2026-04-20T17:07:59.999Z</time></trkpt><trkpt lat="37.975447741789374" lon="-2.7252367356157743"><ele>1681.0</ele><time>2026-04-20T17:08:00.999Z</time></trkpt><trkpt lat="37.975370017107004" lon="-2.725331829610955"><ele>1681.0</ele><time>2026-04-20T17:08:01.999Z</time></trkpt><trkpt lat="37.97533019316542" lon="-2.7254054905268044"><ele>1681.0</ele><time>2026-04-20T17:08:02.999Z</time></trkpt><trkpt lat="37.97530181809702" lon="-2.7255125497843604"><ele>1680.25</ele><time>2026-04-20T17:08:03.999Z</time></trkpt><trkpt lat="37.97529168948255" lon="-2.725641891210454"><ele>1679.5</ele><time>2026-04-20T17:08:04.999Z</time></trkpt><trkpt lat="37.97525776750276" lon="-2.725779871882175"><ele>1678.75</ele><time>2026-04-20T17:08:05.999Z</time></trkpt><trkpt lat="37.975178847804045" lon="-2.7259242566534545"><ele>1678.0</ele><time>2026-04-20T17:08:06.999Z</time></trkpt><trkpt lat="37.975097747125375" lon="-2.7260911617836476"><ele>1677.5</ele><time>2026-04-20T17:08:07.999Z</time></trkpt><trkpt lat="37.97504075411446" lon="-2.726251507107599"><ele>1677.0</ele><time>2026-04-20T17:08:08.999Z</time></trkpt><trkpt lat="37.97500736396697" lon="-2.726403840499076"><ele>1676.5</ele><time>2026-04-20T17:08:09.999Z</time></trkpt><trkpt lat="37.97500025028113" lon="-2.7265577736676545"><ele>1676.0</ele><time>2026-04-20T17:08:10.999Z</time></trkpt><trkpt lat="37.975024365659884" lon="-2.7267198675398268"><ele>1675.0</ele><time>2026-04-20T17:08:11.999Z</time></trkpt><trkpt lat="37.97506696276729" lon="-2.7268794698826935"><ele>1674.0</ele><time>2026-04-20T17:08:12.999Z</time></trkpt><trkpt lat="37.97512390312564" lon="-2.7270287539382463"><ele>1673.0</ele><time>2026-04-20T17:08:13.999Z</time></trkpt><trkpt lat="37.97516659557756" lon="-2.727129936986178"><ele>1672.0</ele><time>2026-04-20T17:08:14.999Z</time></trkpt><trkpt lat="37.97519356485942" lon="-2.727218302396771"><ele>1671.0</ele><time>2026-04-20T17:08:15.999Z</time></trkpt><trkpt lat="37.97519782975305" lon="-2.727301016681972"><ele>1671.0</ele><time>2026-04-20T17:08:16.999Z</time></trkpt><trkpt lat="37.975175825500955" lon="-2.7273841479415815"><ele>1671.0</ele><time>2026-04-20T17:08:17.999Z</time></trkpt><trkpt lat="37.975133055301264" lon="-2.727465297232512"><ele>1671.0</ele><time>2026-04-20T17:08:18.999Z</time></trkpt><trkpt lat="37.97507652979874" lon="-2.7275181053624333"><ele>1671.0</ele><time>2026-04-20T17:08:19.999Z</time></trkpt><trkpt lat="37.97499772924566" lon="-2.727567136162183"><ele>1671.0</ele><time>2026-04-20T17:08:20.999Z</time></trkpt><trkpt lat="37.97488113111025" lon="-2.7276178623163068"><ele>1671.0</ele><time>2026-04-20T17:08:21.999Z</time></trkpt><trkpt lat="37.97474016001219" lon="-2.727662266717988"><ele>1671.75</ele><time>2026-04-20T17:08:22.999Z</time></trkpt><trkpt lat="37.97460508054445" lon="-2.727697790649801"><ele>1672.5</ele><time>2026-04-20T17:08:23.999Z</time></trkpt><trkpt lat="37.97448851167528" lon="-2.727740981938283"><ele>1673.25</ele><time>2026-04-20T17:08:24.999Z</time></trkpt><trkpt lat="37.974386973348814" lon="-2.7277729528576713"><ele>1674.0</ele><time>2026-04-20T17:08:25.999Z</time></trkpt><trkpt lat="37.97429783059125" lon="-2.7278016495866764"><ele>1674.0</ele><time>2026-04-20T17:08:26.999Z</time></trkpt><trkpt lat="37.974191718026425" lon="-2.727865545717069"><ele>1674.0</ele><time>2026-04-20T17:08:27.999Z</time></trkpt><trkpt lat="37.97406924017502" lon="-2.727972350088519"><ele>1674.0</ele><time>2026-04-20T17:08:28.999Z</time></trkpt><trkpt lat="37.973958604364775" lon="-2.7280697845409074"><ele>1674.0</ele><time>2026-04-20T17:08:29.999Z</time></trkpt><trkpt lat="37.973866803740776" lon="-2.728145825765117"><ele>1674.6</ele><time>2026-04-20T17:08:30.999Z</time></trkpt><trkpt lat="37.97377014123458" lon="-2.728218722387636"><ele>1675.2</ele><time>2026-04-20T17:08:31.999Z</time></trkpt><trkpt lat="37.97364872955759" lon="-2.7282890699394646"><ele>1675.8</ele><time>2026-04-20T17:08:32.998Z</time></trkpt><trkpt lat="37.97353817483994" lon="-2.728342750161713"><ele>1676.3999999999999</ele><time>2026-04-20T17:08:33.998Z</time></trkpt><trkpt lat="37.97346486925422" lon="-2.728376058201319"><ele>1677.0</ele><time>2026-04-20T17:08:34.998Z</time></trkpt><trkpt lat="37.973385242075864" lon="-2.7284191568546654"><ele>1677.1666666666667</ele><time>2026-04-20T17:08:36.998Z</time></trkpt><trkpt lat="37.97333147417792" lon="-2.728501371088368"><ele>1677.3333333333335</ele><time>2026-04-20T17:08:38.998Z</time></trkpt><trkpt lat="37.97331068943721" lon="-2.7285811684795225"><ele>1677.5</ele><time>2026-04-20T17:08:39.998Z</time></trkpt><trkpt lat="37.97329899097398" lon="-2.728677554562166"><ele>1677.6666666666667</ele><time>2026-04-20T17:08:40.998Z</time></trkpt><trkpt lat="37.973276680441565" lon="-2.728794195901039"><ele>1677.8333333333335</ele><time>2026-04-20T17:08:41.998Z</time></trkpt><trkpt lat="37.9732263722403" lon="-2.7289199579958447"><ele>1678.0</ele><time>2026-04-20T17:08:42.998Z</time></trkpt><trkpt lat="37.973168225800684" lon="-2.7290309376844952"><ele>1677.2</ele><time>2026-04-20T17:08:43.998Z</time></trkpt><trkpt lat="37.97312151962095" lon="-2.729107641149916"><ele>1676.4</ele><time>2026-04-20T17:08:44.998Z</time></trkpt><trkpt lat="37.97307422923624" lon="-2.7291775059040653"><ele>1675.6000000000001</ele><time>2026-04-20T17:08:45.998Z</time></trkpt><trkpt lat="37.97301016927225" lon="-2.7292317397809436"><ele>1674.8000000000002</ele><time>2026-04-20T17:08:46.998Z</time></trkpt><trkpt lat="37.9729107879784" lon="-2.7292574793191675"><ele>1674.0</ele><time>2026-04-20T17:08:47.998Z</time></trkpt><trkpt lat="37.972780756411375" lon="-2.729271504886928"><ele>1674.0</ele><time>2026-04-20T17:08:48.998Z</time></trkpt><trkpt lat="37.972639994303634" lon="-2.7292865991303255"><ele>1674.0</ele><time>2026-04-20T17:08:49.998Z</time></trkpt><trkpt lat="37.97249325492724" lon="-2.729316965520321"><ele>1674.0</ele><time>2026-04-20T17:08:50.998Z</time></trkpt><trkpt lat="37.97234517588068" lon="-2.7293482067952026"><ele>1674.0</ele><time>2026-04-20T17:08:51.998Z</time></trkpt><trkpt lat="37.972189285398485" lon="-2.7293653250504786"><ele>1672.6666666666665</ele><time>2026-04-20T17:08:52.998Z</time></trkpt><trkpt lat="37.9720268636745" lon="-2.7293667438891918"><ele>1671.3333333333333</ele><time>2026-04-20T17:08:53.998Z</time></trkpt><trkpt lat="37.97185771013379" lon="-2.729373217443351"><ele>1670.0</ele><time>2026-04-20T17:08:54.998Z</time></trkpt><trkpt lat="37.97170175518137" lon="-2.7293788656259994"><ele>1669.5</ele><time>2026-04-20T17:08:55.998Z</time></trkpt><trkpt lat="37.97157518461078" lon="-2.729379359633153"><ele>1669.0</ele><time>2026-04-20T17:08:56.998Z</time></trkpt><trkpt lat="37.97145345969515" lon="-2.729381517169984"><ele>1668.5</ele><time>2026-04-20T17:08:57.998Z</time></trkpt><trkpt lat="37.97133752966924" lon="-2.729399547955471"><ele>1668.0</ele><time>2026-04-20T17:08:58.999Z</time></trkpt><trkpt lat="37.97121372185822" lon="-2.7294410243972465"><ele>1668.0</ele><time>2026-04-20T17:08:59.999Z</time></trkpt><trkpt lat="37.9710824838128" lon="-2.7295091561949287"><ele>1668.0</ele><time>2026-04-20T17:09:00.999Z</time></trkpt><trkpt lat="37.97093574723349" lon="-2.729571049462363"><ele>1668.0</ele><time>2026-04-20T17:09:01.999Z</time></trkpt><trkpt lat="37.97077100628601" lon="-2.7296235836207887"><ele>1667.3333333333335</ele><time>2026-04-20T17:09:02.999Z</time></trkpt><trkpt lat="37.970613811576335" lon="-2.729692936578982"><ele>1666.6666666666667</ele><time>2026-04-20T17:09:03.999Z</time></trkpt><trkpt lat="37.97044899663022" lon="-2.729785625507007"><ele>1666.0</ele><time>2026-04-20T17:09:04.999Z</time></trkpt><trkpt lat="37.970300083856245" lon="-2.7298858651448303"><ele>1666.0</ele><time>2026-04-20T17:09:05.999Z</time></trkpt><trkpt lat="37.9701673682721" lon="-2.729991406983648"><ele>1666.0</ele><time>2026-04-20T17:09:06.999Z</time></trkpt><trkpt lat="37.970043276937815" lon="-2.7300976131408343"><ele>1666.0</ele><time>2026-04-20T17:09:07.999Z</time></trkpt><trkpt lat="37.96993199945278" lon="-2.7302111934030298"><ele>1666.0</ele><time>2026-04-20T17:09:08.999Z</time></trkpt><trkpt lat="37.96983779754898" lon="-2.7303168429354066"><ele>1666.1999999999998</ele><time>2026-04-20T17:09:09.999Z</time></trkpt><trkpt lat="37.96977014758708" lon="-2.7304449722630633"><ele>1666.3999999999999</ele><time>2026-04-20T17:09:10.999Z</time></trkpt><trkpt lat="37.969720449151396" lon="-2.730577150402407"><ele>1666.6</ele><time>2026-04-20T17:09:11.999Z</time></trkpt><trkpt lat="37.96966529071617" lon="-2.730670242205765"><ele>1666.8</ele><time>2026-04-20T17:09:12.999Z</time></trkpt><trkpt lat="37.96957658785147" lon="-2.7307721090747643"><ele>1667.0</ele><time>2026-04-20T17:09:13.999Z</time></trkpt><trkpt lat="37.96945922236114" lon="-2.7308838722713467"><ele>1667.0</ele><time>2026-04-20T17:09:14.999Z</time></trkpt><trkpt lat="37.96933189737034" lon="-2.730997446853108"><ele>1667.0</ele><time>2026-04-20T17:09:15.999Z</time></trkpt><trkpt lat="37.96920307740681" lon="-2.7310910992444684"><ele>1667.0</ele><time>2026-04-20T17:09:16.999Z</time></trkpt><trkpt lat="37.969064816556646" lon="-2.73116102011151"><ele>1665.3333333333333</ele><time>2026-04-20T17:09:17.999Z</time></trkpt><trkpt lat="37.968920840808266" lon="-2.731224730685476"><ele>1663.6666666666665</ele><time>2026-04-20T17:09:18.999Z</time></trkpt><trkpt lat="37.96878273605662" lon="-2.731315896134456"><ele>1662.0</ele><time>2026-04-20T17:09:19.999Z</time></trkpt><trkpt lat="37.968639679243445" lon="-2.731442133845783"><ele>1662.0</ele><time>2026-04-20T17:09:20.999Z</time></trkpt><trkpt lat="37.96850411425902" lon="-2.7315576736246214"><ele>1662.0</ele><time>2026-04-20T17:09:21.999Z</time></trkpt><trkpt lat="37.96837945987767" lon="-2.731660318349097"><ele>1662.0</ele><time>2026-04-20T17:09:22.999Z</time></trkpt><trkpt lat="37.96825621949208" lon="-2.731769323106125"><ele>1661.0</ele><time>2026-04-20T17:09:23.999Z</time></trkpt><trkpt lat="37.96813161237801" lon="-2.73190005686311"><ele>1660.0</ele><time>2026-04-20T17:09:24.999Z</time></trkpt><trkpt lat="37.96800644376764" lon="-2.7320325451156497"><ele>1659.0</ele><time>2026-04-20T17:09:25.999Z</time></trkpt><trkpt lat="37.967888136920344" lon="-2.7321510666008426"><ele>1659.0</ele><time>2026-04-20T17:09:26.999Z</time></trkpt><trkpt lat="37.96777610652447" lon="-2.732270876245783"><ele>1659.0</ele><time>2026-04-20T17:09:27.999Z</time></trkpt><trkpt lat="37.967667182341124" lon="-2.7324073636242683"><ele>1659.0</ele><time>2026-04-20T17:09:28.999Z</time></trkpt><trkpt lat="37.96754324496257" lon="-2.7325463270410304"><ele>1659.25</ele><time>2026-04-20T17:09:29.999Z</time></trkpt><trkpt lat="37.96743215624548" lon="-2.732656808082159"><ele>1659.5</ele><time>2026-04-20T17:09:30.999Z</time></trkpt><trkpt lat="37.96733056271479" lon="-2.7327546115990575"><ele>1659.75</ele><time>2026-04-20T17:09:31.999Z</time></trkpt><trkpt lat="37.96720585227904" lon="-2.732872178539254"><ele>1660.0</ele><time>2026-04-20T17:09:32.999Z</time></trkpt><trkpt lat="37.96706760564229" lon="-2.733012631081389"><ele>1658.0</ele><time>2026-04-20T17:09:33.999Z</time></trkpt><trkpt lat="37.96692869767689" lon="-2.7331966425617007"><ele>1656.0</ele><time>2026-04-20T17:09:34.999Z</time></trkpt><trkpt lat="37.966781831119235" lon="-2.7333866929334114"><ele>1654.0</ele><time>2026-04-20T17:09:35.999Z</time></trkpt><trkpt lat="37.96662673653684" lon="-2.73357626300674"><ele>1653.0</ele><time>2026-04-20T17:09:36.999Z</time></trkpt><trkpt lat="37.96646411622789" lon="-2.733765825545704"><ele>1652.0</ele><time>2026-04-20T17:09:37.999Z</time></trkpt><trkpt lat="37.96629448083152" lon="-2.7339523495102287"><ele>1651.0</ele><time>2026-04-20T17:09:38.999Z</time></trkpt><trkpt lat="37.966126022555656" lon="-2.734139234726631"><ele>1651.0</ele><time>2026-04-20T17:09:39.999Z</time></trkpt><trkpt lat="37.9659600820192" lon="-2.7343216241221784"><ele>1651.0</ele><time>2026-04-20T17:09:40.999Z</time></trkpt><trkpt lat="37.96582419933403" lon="-2.7344371904424025"><ele>1651.0</ele><time>2026-04-20T17:09:41.999Z</time></trkpt><trkpt lat="37.965712301989" lon="-2.7345960687760384"><ele>1650.6666666666667</ele><time>2026-04-20T17:09:42.999Z</time></trkpt><trkpt lat="37.96558240553877" lon="-2.7347656855700175"><ele>1650.3333333333335</ele><time>2026-04-20T17:09:43.999Z</time></trkpt><trkpt lat="37.965429190808365" lon="-2.7349447316668467"><ele>1650.0</ele><time>2026-04-20T17:09:44.999Z</time></trkpt><trkpt lat="37.96525960394386" lon="-2.735096048243979"><ele>1650.0</ele><time>2026-04-20T17:09:45.999Z</time></trkpt><trkpt lat="37.9651102291557" lon="-2.7352044043364634"><ele>1650.0</ele><time>2026-04-20T17:09:46.999Z</time></trkpt><trkpt lat="37.96496607182386" lon="-2.735352385152132"><ele>1650.0</ele><time>2026-04-20T17:09:47.999Z</time></trkpt><trkpt lat="37.96481974518682" lon="-2.735547012522361"><ele>1650.6666666666665</ele><time>2026-04-20T17:09:48.999Z</time></trkpt><trkpt lat="37.96468016107638" lon="-2.7357267274221955"><ele>1651.3333333333333</ele><time>2026-04-20T17:09:49.999Z</time></trkpt><trkpt lat="37.96456457519399" lon="-2.735869659606814"><ele>1652.0</ele><time>2026-04-20T17:09:50.999Z</time></trkpt><trkpt lat="37.96444484841832" lon="-2.735996517954135"><ele>1651.6666666666665</ele><time>2026-04-20T17:09:51.999Z</time></trkpt><trkpt lat="37.96429963432782" lon="-2.736140291280947"><ele>1651.3333333333335</ele><time>2026-04-20T17:09:52.999Z</time></trkpt><trkpt lat="37.964154560771206" lon="-2.736306836708507"><ele>1651.0</ele><time>2026-04-20T17:09:53.999Z</time></trkpt><trkpt lat="37.96400736346842" lon="-2.7364925955249038"><ele>1651.0</ele><time>2026-04-20T17:09:54.999Z</time></trkpt><trkpt lat="37.96385264014251" lon="-2.7366849055564697"><ele>1651.0</ele><time>2026-04-20T17:09:55.999Z</time></trkpt><trkpt lat="37.96369226331932" lon="-2.7368809656078397"><ele>1651.0</ele><time>2026-04-20T17:09:56.999Z</time></trkpt><trkpt lat="37.96354735276558" lon="-2.7370645744173516"><ele>1651.3333333333335</ele><time>2026-04-20T17:09:57.999Z</time></trkpt><trkpt lat="37.963433424233635" lon="-2.737205948632231"><ele>1651.6666666666665</ele><time>2026-04-20T17:09:58.999Z</time></trkpt><trkpt lat="37.96331866626648" lon="-2.7373402135549227"><ele>1652.0</ele><time>2026-04-20T17:09:59.999Z</time></trkpt><trkpt lat="37.9631675616314" lon="-2.7374951607736"><ele>1652.0</ele><time>2026-04-20T17:10:00.999Z</time></trkpt><trkpt lat="37.963003109528046" lon="-2.737659816255394"><ele>1652.0</ele><time>2026-04-20T17:10:01.999Z</time></trkpt><trkpt lat="37.96285951274883" lon="-2.7378140294661337"><ele>1652.0</ele><time>2026-04-20T17:10:02.999Z</time></trkpt><trkpt lat="37.962718037784384" lon="-2.737988417146036"><ele>1651.6666666666665</ele><time>2026-04-20T17:10:03.999Z</time></trkpt><trkpt lat="37.96258829076315" lon="-2.738168502298172"><ele>1651.3333333333335</ele><time>2026-04-20T17:10:04.999Z</time></trkpt><trkpt lat="37.96245592068404" lon="-2.7383292935394894"><ele>1651.0</ele><time>2026-04-20T17:10:05.999Z</time></trkpt><trkpt lat="37.96231696934651" lon="-2.7384696712854026"><ele>1650.6666666666667</ele><time>2026-04-20T17:10:06.999Z</time></trkpt><trkpt lat="37.96215080911949" lon="-2.7386046657021454"><ele>1650.3333333333335</ele><time>2026-04-20T17:10:07.999Z</time></trkpt><trkpt lat="37.96196361079799" lon="-2.738743138057484"><ele>1650.0</ele><time>2026-04-20T17:10:08.999Z</time></trkpt><trkpt lat="37.96178411651813" lon="-2.73887363084123"><ele>1650.6666666666665</ele><time>2026-04-20T17:10:09.999Z</time></trkpt><trkpt lat="37.96162525744937" lon="-2.7390127518713916"><ele>1651.3333333333333</ele><time>2026-04-20T17:10:10.999Z</time></trkpt><trkpt lat="37.96147666238494" lon="-2.7391596437800367"><ele>1652.0</ele><time>2026-04-20T17:10:11.999Z</time></trkpt><trkpt lat="37.96133143651936" lon="-2.7393112268183377"><ele>1652.0</ele><time>2026-04-20T17:10:12.999Z</time></trkpt><trkpt lat="37.961200198969436" lon="-2.739458717377858"><ele>1652.0</ele><time>2026-04-20T17:10:13.999Z</time></trkpt><trkpt lat="37.96106911668107" lon="-2.7396218915354846"><ele>1652.0</ele><time>2026-04-20T17:10:14.999Z</time></trkpt><trkpt lat="37.96094899451373" lon="-2.7397993240718703"><ele>1652.0</ele><time>2026-04-20T17:10:15.999Z</time></trkpt><trkpt lat="37.96084622070835" lon="-2.739989737460212"><ele>1652.0</ele><time>2026-04-20T17:10:16.999Z</time></trkpt><trkpt lat="37.960752791412574" lon="-2.740205415658099"><ele>1652.0</ele><time>2026-04-20T17:10:17.999Z</time></trkpt><trkpt lat="37.960673987882046" lon="-2.7404120068285183"><ele>1651.3333333333333</ele><time>2026-04-20T17:10:18.999Z</time></trkpt><trkpt lat="37.96059729335079" lon="-2.740639518541031"><ele>1650.6666666666665</ele><time>2026-04-20T17:10:19.999Z</time></trkpt><trkpt lat="37.960528342321176" lon="-2.7408574427467682"><ele>1650.0</ele><time>2026-04-20T17:10:20.999Z</time></trkpt><trkpt lat="37.96046708758627" lon="-2.741051654348443"><ele>1648.6666666666665</ele><time>2026-04-20T17:10:21.999Z</time></trkpt><trkpt lat="37.96040863248856" lon="-2.741231831928048"><ele>1647.3333333333333</ele><time>2026-04-20T17:10:22.999Z</time></trkpt><trkpt lat="37.96035431376678" lon="-2.7414300932526645"><ele>1646.0</ele><time>2026-04-20T17:10:23.999Z</time></trkpt><trkpt lat="37.96032300266733" lon="-2.741679427121369"><ele>1645.3333333333333</ele><time>2026-04-20T17:10:24.999Z</time></trkpt><trkpt lat="37.96030275159053" lon="-2.7419400209993032"><ele>1644.6666666666665</ele><time>2026-04-20T17:10:25.999Z</time></trkpt><trkpt lat="37.960274268420456" lon="-2.7421806948011596"><ele>1644.0</ele><time>2026-04-20T17:10:26.999Z</time></trkpt><trkpt lat="37.96023939968374" lon="-2.7424024601140746"><ele>1644.0</ele><time>2026-04-20T17:10:27.999Z</time></trkpt><trkpt lat="37.96020178357903" lon="-2.7425918594414136"><ele>1644.0</ele><time>2026-04-20T17:10:28.999Z</time></trkpt><trkpt lat="37.96016586735748" lon="-2.7427585260564302"><ele>1644.0</ele><time>2026-04-20T17:10:29.999Z</time></trkpt><trkpt lat="37.960146092894036" lon="-2.742913897134975"><ele>1644.0</ele><time>2026-04-20T17:10:30.999Z</time></trkpt><trkpt lat="37.960156448942165" lon="-2.7430762649390874"><ele>1643.75</ele><time>2026-04-20T17:10:31.999Z</time></trkpt><trkpt lat="37.96017738874034" lon="-2.7432293995324013"><ele>1643.5</ele><time>2026-04-20T17:10:32.999Z</time></trkpt><trkpt lat="37.96018025331512" lon="-2.743377803618746"><ele>1643.25</ele><time>2026-04-20T17:10:33.999Z</time></trkpt><trkpt lat="37.960154227693856" lon="-2.7435358142366586"><ele>1643.0</ele><time>2026-04-20T17:10:34.999Z</time></trkpt><trkpt lat="37.96009723010495" lon="-2.7437151281846033"><ele>1643.3333333333333</ele><time>2026-04-20T17:10:35.999Z</time></trkpt><trkpt lat="37.96002557375209" lon="-2.743917990468078"><ele>1643.6666666666665</ele><time>2026-04-20T17:10:36.999Z</time></trkpt><trkpt lat="37.959962320303404" lon="-2.7441330423768635"><ele>1644.0</ele><time>2026-04-20T17:10:37.999Z</time></trkpt><trkpt lat="37.959908274281524" lon="-2.7443204840769733"><ele>1643.8000000000002</ele><time>2026-04-20T17:10:38.999Z</time></trkpt><trkpt lat="37.95986982354243" lon="-2.7444664048640184"><ele>1643.6000000000001</ele><time>2026-04-20T17:10:39.999Z</time></trkpt><trkpt lat="37.959849670331714" lon="-2.7445820047352836"><ele>1643.4</ele><time>2026-04-20T17:10:40.999Z</time></trkpt><trkpt lat="37.959858492610486" lon="-2.7447074359250645"><ele>1643.2</ele><time>2026-04-20T17:10:41.999Z</time></trkpt><trkpt lat="37.95989847023482" lon="-2.744856986028327"><ele>1643.0</ele><time>2026-04-20T17:10:42.999Z</time></trkpt><trkpt lat="37.95994854342607" lon="-2.7449950798253213"><ele>1642.9999999999998</ele><time>2026-04-20T17:10:43.999Z</time></trkpt><trkpt lat="37.95997178890513" lon="-2.7450982188740203"><ele>1643.0</ele><time>2026-04-20T17:10:44.999Z</time></trkpt><trkpt lat="37.95997682222407" lon="-2.7451865816554686"><ele>1643.0</ele><time>2026-04-20T17:10:45.999Z</time></trkpt><trkpt lat="37.959945948371775" lon="-2.745264852302818"><ele>1643.0</ele><time>2026-04-20T17:10:46.999Z</time></trkpt><trkpt lat="37.95987500257271" lon="-2.7453394386164156"><ele>1642.9999999999998</ele><time>2026-04-20T17:10:47.999Z</time></trkpt><trkpt lat="37.959772971578026" lon="-2.745401669248215"><ele>1643.0</ele><time>2026-04-20T17:10:48.999Z</time></trkpt><trkpt lat="37.95962504291481" lon="-2.745444523348435"><ele>1642.75</ele><time>2026-04-20T17:10:49.999Z</time></trkpt><trkpt lat="37.959475851335" lon="-2.745468050857203"><ele>1642.5</ele><time>2026-04-20T17:10:50.999Z</time></trkpt><trkpt lat="37.95936400642269" lon="-2.7454788296752315"><ele>1642.25</ele><time>2026-04-20T17:10:51.999Z</time></trkpt><trkpt lat="37.95927134864827" lon="-2.745524592949931"><ele>1642.0</ele><time>2026-04-20T17:10:52.999Z</time></trkpt><trkpt lat="37.959181278201235" lon="-2.7456284635760597"><ele>1642.0</ele><time>2026-04-20T17:10:53.998Z</time></trkpt><trkpt lat="37.95910955180523" lon="-2.7457844797672415"><ele>1642.0</ele><time>2026-04-20T17:10:54.998Z</time></trkpt><trkpt lat="37.95904462028186" lon="-2.745933506970018"><ele>1642.0</ele><time>2026-04-20T17:10:55.998Z</time></trkpt><trkpt lat="37.95901785716783" lon="-2.746013937651647"><ele>1642.0</ele><time>2026-04-20T17:10:56.998Z</time></trkpt><trkpt lat="37.9590162726931" lon="-2.7461026217843627"><ele>1642.0</ele><time>2026-04-20T17:10:57.998Z</time></trkpt><trkpt lat="37.95904858990214" lon="-2.7462015598794114"><ele>1642.0000000000002</ele><time>2026-04-20T17:10:58.998Z</time></trkpt><trkpt lat="37.95911343096456" lon="-2.7462852939376963"><ele>1642.0</ele><time>2026-04-20T17:10:59.998Z</time></trkpt><trkpt lat="37.95919435698778" lon="-2.746333826202606"><ele>1642.0</ele><time>2026-04-20T17:11:00.998Z</time></trkpt><trkpt lat="37.959253076578605" lon="-2.7463837044829935"><ele>1642.0</ele><time>2026-04-20T17:11:01.998Z</time></trkpt><trkpt lat="37.95924739019381" lon="-2.746513821228831"><ele>1642.0000000000002</ele><time>2026-04-20T17:11:03.998Z</time></trkpt><trkpt lat="37.95918180095856" lon="-2.746576644832127"><ele>1642.0</ele><time>2026-04-20T17:11:04.999Z</time></trkpt><trkpt lat="37.959077184986114" lon="-2.746623318094501"><ele>1642.0</ele><time>2026-04-20T17:11:05.999Z</time></trkpt><trkpt lat="37.958930203529924" lon="-2.7466784235934263"><ele>1642.0</ele><time>2026-04-20T17:11:06.999Z</time></trkpt><trkpt lat="37.95879130747209" lon="-2.7467613397639004"><ele>1642.0</ele><time>2026-04-20T17:11:07.999Z</time></trkpt><trkpt lat="37.95869114313121" lon="-2.74686343984028"><ele>1642.0</ele><time>2026-04-20T17:11:08.999Z</time></trkpt><trkpt lat="37.95862871393241" lon="-2.7469492380583085"><ele>1641.75</ele><time>2026-04-20T17:11:09.999Z</time></trkpt><trkpt lat="37.95857558949513" lon="-2.7470575549379332"><ele>1641.5</ele><time>2026-04-20T17:11:10.999Z</time></trkpt><trkpt lat="37.95851048963921" lon="-2.747201532755149"><ele>1641.25</ele><time>2026-04-20T17:11:11.999Z</time></trkpt><trkpt lat="37.95842709307592" lon="-2.7473439156923525"><ele>1641.0</ele><time>2026-04-20T17:11:12.999Z</time></trkpt><trkpt lat="37.95834094610933" lon="-2.747454085550946"><ele>1640.8</ele><time>2026-04-20T17:11:14Z</time></trkpt><trkpt lat="37.95827004905113" lon="-2.7475335748094123"><ele>1640.6</ele><time>2026-04-20T17:11:15Z</time></trkpt><trkpt lat="37.95823260732248" lon="-2.7476269138576948"><ele>1640.4</ele><time>2026-04-20T17:11:16Z</time></trkpt><trkpt lat="37.958234693140945" lon="-2.7477416312049683"><ele>1640.2</ele><time>2026-04-20T17:11:17Z</time></trkpt><trkpt lat="37.958275011987794" lon="-2.747863447870257"><ele>1640.0</ele><time>2026-04-20T17:11:18Z</time></trkpt><trkpt lat="37.958323744195766" lon="-2.7479662775080294"><ele>1639.2</ele><time>2026-04-20T17:11:19Z</time></trkpt><trkpt lat="37.95834435998959" lon="-2.748067436697077"><ele>1638.4</ele><time>2026-04-20T17:11:20Z</time></trkpt><trkpt lat="37.95834492743554" lon="-2.7481914947890718"><ele>1637.6</ele><time>2026-04-20T17:11:21Z</time></trkpt><trkpt lat="37.95831938945481" lon="-2.74830917743058"><ele>1636.8</ele><time>2026-04-20T17:11:22Z</time></trkpt><trkpt lat="37.958264166078806" lon="-2.7484165011713952"><ele>1636.0</ele><time>2026-04-20T17:11:23Z</time></trkpt><trkpt lat="37.958176401126984" lon="-2.7485195735710177"><ele>1635.25</ele><time>2026-04-20T17:11:24Z</time></trkpt><trkpt lat="37.95806209209108" lon="-2.7486262334999076"><ele>1634.5</ele><time>2026-04-20T17:11:25Z</time></trkpt><trkpt lat="37.957964359709365" lon="-2.7487295567454395"><ele>1633.75</ele><time>2026-04-20T17:11:26Z</time></trkpt><trkpt lat="37.95789895144551" lon="-2.748833208232094"><ele>1633.0</ele><time>2026-04-20T17:11:27Z</time></trkpt><trkpt lat="37.95788017780342" lon="-2.74894084966692"><ele>1633.0</ele><time>2026-04-20T17:11:28Z</time></trkpt><trkpt lat="37.95791092768172" lon="-2.7490404744690147"><ele>1633.0</ele><time>2026-04-20T17:11:29Z</time></trkpt><trkpt lat="37.9579549192784" lon="-2.7491659031074986"><ele>1633.0</ele><time>2026-04-20T17:11:30Z</time></trkpt><trkpt lat="37.95801332065737" lon="-2.7493117821665836"><ele>1633.0</ele><time>2026-04-20T17:11:31Z</time></trkpt><trkpt lat="37.9580576792375" lon="-2.749433493526002"><ele>1633.0</ele><time>2026-04-20T17:11:32Z</time></trkpt><trkpt lat="37.95806674745669" lon="-2.7495376672515572"><ele>1632.8000000000002</ele><time>2026-04-20T17:11:33Z</time></trkpt><trkpt lat="37.958050218370694" lon="-2.749647222747261"><ele>1632.6</ele><time>2026-04-20T17:11:34Z</time></trkpt><trkpt lat="37.95800644011577" lon="-2.749737204701781"><ele>1632.4</ele><time>2026-04-20T17:11:35Z</time></trkpt><trkpt lat="37.9579244963723" lon="-2.749822873131852"><ele>1632.1999999999998</ele><time>2026-04-20T17:11:36Z</time></trkpt><trkpt lat="37.95781045154428" lon="-2.749910114958598"><ele>1632.0</ele><time>2026-04-20T17:11:37Z</time></trkpt><trkpt lat="37.95769321959499" lon="-2.749997170269245"><ele>1632.0</ele><time>2026-04-20T17:11:38Z</time></trkpt><trkpt lat="37.957607171517786" lon="-2.75010350910397"><ele>1632.0</ele><time>2026-04-20T17:11:39Z</time></trkpt><trkpt lat="37.957540014470084" lon="-2.7502476138266374"><ele>1632.0</ele><time>2026-04-20T17:11:40Z</time></trkpt><trkpt lat="37.95746587562292" lon="-2.750389037392527"><ele>1632.0</ele><time>2026-04-20T17:11:41Z</time></trkpt><trkpt lat="37.95740124250999" lon="-2.750506637401428"><ele>1631.6</ele><time>2026-04-20T17:11:42Z</time></trkpt><trkpt lat="37.957339331913914" lon="-2.7506078979717423"><ele>1631.1999999999998</ele><time>2026-04-20T17:11:43Z</time></trkpt><trkpt lat="37.95728624036507" lon="-2.7507067266103347"><ele>1630.8</ele><time>2026-04-20T17:11:44Z</time></trkpt><trkpt lat="37.95726576600787" lon="-2.75081976682704"><ele>1630.4</ele><time>2026-04-20T17:11:45Z</time></trkpt><trkpt lat="37.9572884429755" lon="-2.7509459638160343"><ele>1630.0</ele><time>2026-04-20T17:11:46Z</time></trkpt><trkpt lat="37.957311100395046" lon="-2.7510814402186576"><ele>1630.0</ele><time>2026-04-20T17:11:46.999Z</time></trkpt><trkpt lat="37.95728691066891" lon="-2.7511873178265756"><ele>1630.0</ele><time>2026-04-20T17:11:47.999Z</time></trkpt><trkpt lat="37.95724106675659" lon="-2.7512888020585264"><ele>1630.0</ele><time>2026-04-20T17:11:48.999Z</time></trkpt><trkpt lat="37.95717635358956" lon="-2.7513910015605445"><ele>1630.0</ele><time>2026-04-20T17:11:49.999Z</time></trkpt><trkpt lat="37.95708496706166" lon="-2.7514920377301157"><ele>1630.0</ele><time>2026-04-20T17:11:50.999Z</time></trkpt><trkpt lat="37.95698143265852" lon="-2.7515927121027235"><ele>1630.0</ele><time>2026-04-20T17:11:51.999Z</time></trkpt><trkpt lat="37.956893094217236" lon="-2.7516800209359986"><ele>1630.0</ele><time>2026-04-20T17:11:52.999Z</time></trkpt><trkpt lat="37.95684559992549" lon="-2.751764450233914"><ele>1630.0</ele><time>2026-04-20T17:11:53.999Z</time></trkpt><trkpt lat="37.956834505816836" lon="-2.751882330360198"><ele>1630.0</ele><time>2026-04-20T17:11:54.999Z</time></trkpt><trkpt lat="37.956823729637605" lon="-2.7520533931725955"><ele>1630.0</ele><time>2026-04-20T17:11:55.999Z</time></trkpt><trkpt lat="37.956786621631565" lon="-2.7522259204444772"><ele>1630.25</ele><time>2026-04-20T17:11:56.999Z</time></trkpt><trkpt lat="37.95672168684929" lon="-2.7523777697165293"><ele>1630.5</ele><time>2026-04-20T17:11:57.999Z</time></trkpt><trkpt lat="37.956626300544436" lon="-2.752526060661318"><ele>1630.75</ele><time>2026-04-20T17:11:58.999Z</time></trkpt><trkpt lat="37.956517201263296" lon="-2.752651504012043"><ele>1631.0</ele><time>2026-04-20T17:11:59.999Z</time></trkpt><trkpt lat="37.956421988491826" lon="-2.752750594188409"><ele>1630.1999999999998</ele><time>2026-04-20T17:12:00.999Z</time></trkpt><trkpt lat="37.956358526171236" lon="-2.75285061825019"><ele>1629.3999999999999</ele><time>2026-04-20T17:12:01.999Z</time></trkpt><trkpt lat="37.95629498271933" lon="-2.752970478059069"><ele>1628.6</ele><time>2026-04-20T17:12:02.999Z</time></trkpt><trkpt lat="37.95622781318235" lon="-2.753058294959505"><ele>1627.8</ele><time>2026-04-20T17:12:03.999Z</time></trkpt><trkpt lat="37.956146645310575" lon="-2.7531194137308046"><ele>1627.0</ele><time>2026-04-20T17:12:04.999Z</time></trkpt><trkpt lat="37.95604103600178" lon="-2.75316935959672"><ele>1627.0</ele><time>2026-04-20T17:12:05.999Z</time></trkpt><trkpt lat="37.95593808346852" lon="-2.7532364912095093"><ele>1627.0</ele><time>2026-04-20T17:12:06.999Z</time></trkpt><trkpt lat="37.9558397363253" lon="-2.7533479445026074"><ele>1627.0</ele><time>2026-04-20T17:12:07.999Z</time></trkpt><trkpt lat="37.95573088614545" lon="-2.7534906847890253"><ele>1627.0</ele><time>2026-04-20T17:12:08.999Z</time></trkpt><trkpt lat="37.95559420508797" lon="-2.7536354338959264"><ele>1626.0</ele><time>2026-04-20T17:12:09.999Z</time></trkpt><trkpt lat="37.95545898571114" lon="-2.7537825262340268"><ele>1625.0</ele><time>2026-04-20T17:12:10.999Z</time></trkpt><trkpt lat="37.955331957331076" lon="-2.753942401791198"><ele>1624.0</ele><time>2026-04-20T17:12:11.999Z</time></trkpt><trkpt lat="37.95522073741516" lon="-2.754105492747202"><ele>1624.0</ele><time>2026-04-20T17:12:12.999Z</time></trkpt><trkpt lat="37.955126057750114" lon="-2.754216952336079"><ele>1624.0</ele><time>2026-04-20T17:12:13.999Z</time></trkpt><trkpt lat="37.95504083121703" lon="-2.7543281800756385"><ele>1624.0</ele><time>2026-04-20T17:12:14.999Z</time></trkpt><trkpt lat="37.954937353961725" lon="-2.7544354069381405"><ele>1624.0</ele><time>2026-04-20T17:12:15.999Z</time></trkpt><trkpt lat="37.954789890826696" lon="-2.754539539908291"><ele>1624.3333333333335</ele><time>2026-04-20T17:12:16.999Z</time></trkpt><trkpt lat="37.95460793281024" lon="-2.7546367692206024"><ele>1624.6666666666665</ele><time>2026-04-20T17:12:17.999Z</time></trkpt><trkpt lat="37.954413351366405" lon="-2.7547539537475694"><ele>1625.0</ele><time>2026-04-20T17:12:18.999Z</time></trkpt><trkpt lat="37.95423951414879" lon="-2.754857871280028"><ele>1626.3333333333333</ele><time>2026-04-20T17:12:19.999Z</time></trkpt><trkpt lat="37.95409052377256" lon="-2.754939243157735"><ele>1627.6666666666665</ele><time>2026-04-20T17:12:20.999Z</time></trkpt><trkpt lat="37.95395396051386" lon="-2.755034050923618"><ele>1629.0</ele><time>2026-04-20T17:12:21.999Z</time></trkpt><trkpt lat="37.95381764569162" lon="-2.75516136195407"><ele>1629.3333333333335</ele><time>2026-04-20T17:12:22.999Z</time></trkpt><trkpt lat="37.95367312144196" lon="-2.755326397557927"><ele>1629.6666666666667</ele><time>2026-04-20T17:12:23.999Z</time></trkpt><trkpt lat="37.95352680210718" lon="-2.755505902074033"><ele>1630.0</ele><time>2026-04-20T17:12:24.999Z</time></trkpt><trkpt lat="37.95337303435134" lon="-2.755694791418855"><ele>1630.6666666666667</ele><time>2026-04-20T17:12:25.999Z</time></trkpt><trkpt lat="37.953231923237155" lon="-2.755903627148234"><ele>1631.3333333333335</ele><time>2026-04-20T17:12:26.999Z</time></trkpt><trkpt lat="37.95310127280351" lon="-2.7561250641307398"><ele>1632.0</ele><time>2026-04-20T17:12:27.999Z</time></trkpt><trkpt lat="37.95298391374555" lon="-2.7563514419897883"><ele>1632.0</ele><time>2026-04-20T17:12:28.999Z</time></trkpt><trkpt lat="37.95287200945686" lon="-2.7565870557749776"><ele>1632.0</ele><time>2026-04-20T17:12:29.999Z</time></trkpt><trkpt lat="37.95275883034773" lon="-2.7568180935172784"><ele>1632.0</ele><time>2026-04-20T17:12:30.999Z</time></trkpt><trkpt lat="37.95264163323983" lon="-2.757043232622639"><ele>1632.0</ele><time>2026-04-20T17:12:31.999Z</time></trkpt><trkpt lat="37.95252348140191" lon="-2.757258598094015"><ele>1632.0</ele><time>2026-04-20T17:12:32.999Z</time></trkpt><trkpt lat="37.95240428186527" lon="-2.757469795439895"><ele>1632.0</ele><time>2026-04-20T17:12:33.999Z</time></trkpt><trkpt lat="37.95229923774391" lon="-2.7576652030167192"><ele>1632.6666666666665</ele><time>2026-04-20T17:12:34.999Z</time></trkpt><trkpt lat="37.95220149127732" lon="-2.7578448868812226"><ele>1633.3333333333333</ele><time>2026-04-20T17:12:35.999Z</time></trkpt><trkpt lat="37.95209426712153" lon="-2.758027409388232"><ele>1634.0</ele><time>2026-04-20T17:12:36.999Z</time></trkpt><trkpt lat="37.95197212702433" lon="-2.7582027740309925"><ele>1634.0</ele><time>2026-04-20T17:12:37.999Z</time></trkpt><trkpt lat="37.95185038665527" lon="-2.7583597757355354"><ele>1634.0</ele><time>2026-04-20T17:12:38.999Z</time></trkpt><trkpt lat="37.951739855047066" lon="-2.758498406004533"><ele>1634.0</ele><time>2026-04-20T17:12:39.999Z</time></trkpt><trkpt lat="37.95163402517183" lon="-2.758688688964979"><ele>1634.3333333333333</ele><time>2026-04-20T17:12:40.999Z</time></trkpt><trkpt lat="37.951527023543726" lon="-2.758904384291915"><ele>1634.6666666666665</ele><time>2026-04-20T17:12:41.999Z</time></trkpt><trkpt lat="37.951429558558495" lon="-2.759074248218501"><ele>1635.0</ele><time>2026-04-20T17:12:42.999Z</time></trkpt><trkpt lat="37.95134522422637" lon="-2.7592146302773117"><ele>1635.0</ele><time>2026-04-20T17:12:43.999Z</time></trkpt><trkpt lat="37.951283546529154" lon="-2.759342061774143"><ele>1635.0</ele><time>2026-04-20T17:12:44.999Z</time></trkpt><trkpt lat="37.951253276945884" lon="-2.759472924580854"><ele>1635.0</ele><time>2026-04-20T17:12:45.999Z</time></trkpt><trkpt lat="37.95125678100109" lon="-2.759630633952164"><ele>1635.0</ele><time>2026-04-20T17:12:46.999Z</time></trkpt><trkpt lat="37.95127016955616" lon="-2.759802592974545"><ele>1634.75</ele><time>2026-04-20T17:12:47.999Z</time></trkpt><trkpt lat="37.95127468605943" lon="-2.7599515410760396"><ele>1634.5</ele><time>2026-04-20T17:12:48.999Z</time></trkpt><trkpt lat="37.95124401522915" lon="-2.7601076866779994"><ele>1634.25</ele><time>2026-04-20T17:12:49.999Z</time></trkpt><trkpt lat="37.95118829641392" lon="-2.7602860658693555"><ele>1634.0</ele><time>2026-04-20T17:12:50.999Z</time></trkpt><trkpt lat="37.951166146999455" lon="-2.7604657029868727"><ele>1633.75</ele><time>2026-04-20T17:12:51.999Z</time></trkpt><trkpt lat="37.95114246376671" lon="-2.7606309703266954"><ele>1633.5</ele><time>2026-04-20T17:12:52.999Z</time></trkpt><trkpt lat="37.95109688919067" lon="-2.7608009824560655"><ele>1633.25</ele><time>2026-04-20T17:12:53.999Z</time></trkpt><trkpt lat="37.95105717619818" lon="-2.76099801691921"><ele>1633.0</ele><time>2026-04-20T17:12:54.999Z</time></trkpt><trkpt lat="37.95104564249597" lon="-2.7612210527887067"><ele>1632.6666666666667</ele><time>2026-04-20T17:12:55.999Z</time></trkpt><trkpt lat="37.9510458162539" lon="-2.761458248451411"><ele>1632.3333333333335</ele><time>2026-04-20T17:12:56.999Z</time></trkpt><trkpt lat="37.951045918682915" lon="-2.761697989288597"><ele>1632.0</ele><time>2026-04-20T17:12:57.999Z</time></trkpt><trkpt lat="37.951038405322365" lon="-2.7619290020934604"><ele>1631.0</ele><time>2026-04-20T17:12:58.999Z</time></trkpt><trkpt lat="37.95102075516482" lon="-2.762159047324567"><ele>1630.0</ele><time>2026-04-20T17:12:59.999Z</time></trkpt><trkpt lat="37.950995615241446" lon="-2.7623843129586705"><ele>1629.0</ele><time>2026-04-20T17:13:00.999Z</time></trkpt><trkpt lat="37.95095899781534" lon="-2.7625986285750446"><ele>1628.75</ele><time>2026-04-20T17:13:01.999Z</time></trkpt><trkpt lat="37.95091750525124" lon="-2.762803541179492"><ele>1628.5</ele><time>2026-04-20T17:13:02.999Z</time></trkpt><trkpt lat="37.95087764955247" lon="-2.7629653922450528"><ele>1628.25</ele><time>2026-04-20T17:13:03.999Z</time></trkpt><trkpt lat="37.950825463821175" lon="-2.7631150646906986"><ele>1628.0</ele><time>2026-04-20T17:13:04.999Z</time></trkpt><trkpt lat="37.95074692604569" lon="-2.7632713556155037"><ele>1628.3333333333333</ele><time>2026-04-20T17:13:05.999Z</time></trkpt><trkpt lat="37.95065493001256" lon="-2.763419592007677"><ele>1628.6666666666665</ele><time>2026-04-20T17:13:06.999Z</time></trkpt><trkpt lat="37.95057833427508" lon="-2.7635926950987804"><ele>1629.0</ele><time>2026-04-20T17:13:07.999Z</time></trkpt><trkpt lat="37.950543036243175" lon="-2.7638028494321247"><ele>1629.0</ele><time>2026-04-20T17:13:08.999Z</time></trkpt><trkpt lat="37.95051238780785" lon="-2.764049082779718"><ele>1629.0</ele><time>2026-04-20T17:13:09.999Z</time></trkpt><trkpt lat="37.95044828782898" lon="-2.7642921454410945"><ele>1629.0</ele><time>2026-04-20T17:13:11Z</time></trkpt><trkpt lat="37.95036188096412" lon="-2.7645403583596653"><ele>1627.3333333333335</ele><time>2026-04-20T17:13:12Z</time></trkpt><trkpt lat="37.95028282010433" lon="-2.764776782912419"><ele>1625.6666666666667</ele><time>2026-04-20T17:13:13Z</time></trkpt><trkpt lat="37.950203474461865" lon="-2.764986614675418"><ele>1624.0</ele><time>2026-04-20T17:13:14Z</time></trkpt><trkpt lat="37.95012787416259" lon="-2.7651846850974415"><ele>1624.0</ele><time>2026-04-20T17:13:15Z</time></trkpt><trkpt lat="37.950068672136894" lon="-2.765408090422988"><ele>1624.0</ele><time>2026-04-20T17:13:16Z</time></trkpt><trkpt lat="37.95003906279709" lon="-2.7656541550933778"><ele>1624.0</ele><time>2026-04-20T17:13:17Z</time></trkpt><trkpt lat="37.950028365817495" lon="-2.7658978779681154"><ele>1623.3333333333335</ele><time>2026-04-20T17:13:18Z</time></trkpt><trkpt lat="37.95000886164251" lon="-2.7661078751295567"><ele>1622.6666666666665</ele><time>2026-04-20T17:13:19Z</time></trkpt><trkpt lat="37.949955647336694" lon="-2.7663209963409163"><ele>1622.0</ele><time>2026-04-20T17:13:20Z</time></trkpt><trkpt lat="37.94986641479378" lon="-2.7665533667418547"><ele>1622.0</ele><time>2026-04-20T17:13:21Z</time></trkpt><trkpt lat="37.949755814050285" lon="-2.7667902896300944"><ele>1622.0</ele><time>2026-04-20T17:13:22Z</time></trkpt><trkpt lat="37.94962316811256" lon="-2.767062157881365"><ele>1622.5</ele><time>2026-04-20T17:13:23Z</time></trkpt><trkpt lat="37.949500611325256" lon="-2.7673434659060554"><ele>1623.0</ele><time>2026-04-20T17:13:24Z</time></trkpt><trkpt lat="37.94937626069765" lon="-2.767648698587436"><ele>1623.0</ele><time>2026-04-20T17:13:25Z</time></trkpt><trkpt lat="37.949263333291434" lon="-2.767927826823965"><ele>1623.0</ele><time>2026-04-20T17:13:26Z</time></trkpt><trkpt lat="37.949170430578555" lon="-2.768151751333263"><ele>1623.0</ele><time>2026-04-20T17:13:27Z</time></trkpt><trkpt lat="37.9490894611866" lon="-2.7683527423717877"><ele>1623.0</ele><time>2026-04-20T17:13:28Z</time></trkpt><trkpt lat="37.94902166783929" lon="-2.768523052755601"><ele>1623.0</ele><time>2026-04-20T17:13:29Z</time></trkpt><trkpt lat="37.94897170624591" lon="-2.7686653233625025"><ele>1623.0</ele><time>2026-04-20T17:13:30Z</time></trkpt><trkpt lat="37.94893212100053" lon="-2.7687909987710815"><ele>1623.0</ele><time>2026-04-20T17:13:31Z</time></trkpt><trkpt lat="37.94888899604431" lon="-2.7689179974550684"><ele>1623.0</ele><time>2026-04-20T17:13:32Z</time></trkpt><trkpt lat="37.94883985935208" lon="-2.769058391035918"><ele>1623.0</ele><time>2026-04-20T17:13:33Z</time></trkpt><trkpt lat="37.94878964697916" lon="-2.769230287558823"><ele>1623.0</ele><time>2026-04-20T17:13:34Z</time></trkpt><trkpt lat="37.94872982592275" lon="-2.769435869169105"><ele>1623.0</ele><time>2026-04-20T17:13:35Z</time></trkpt><trkpt lat="37.948670508794955" lon="-2.7696620675486283"><ele>1622.3333333333335</ele><time>2026-04-20T17:13:36Z</time></trkpt><trkpt lat="37.94861426925472" lon="-2.769882576945481"><ele>1621.6666666666667</ele><time>2026-04-20T17:13:37Z</time></trkpt><trkpt lat="37.94856793175624" lon="-2.770070732119179"><ele>1621.0</ele><time>2026-04-20T17:13:38Z</time></trkpt><trkpt lat="37.948527929190284" lon="-2.7702353143226515"><ele>1620.8</ele><time>2026-04-20T17:13:39Z</time></trkpt><trkpt lat="37.948498511244814" lon="-2.770394544881373"><ele>1620.6</ele><time>2026-04-20T17:13:40Z</time></trkpt><trkpt lat="37.948485572735606" lon="-2.7705180858623595"><ele>1620.4</ele><time>2026-04-20T17:13:41Z</time></trkpt><trkpt lat="37.94849395655014" lon="-2.7706059936354785"><ele>1620.2</ele><time>2026-04-20T17:13:42Z</time></trkpt><trkpt lat="37.948525585084134" lon="-2.7707291606934255"><ele>1620.0</ele><time>2026-04-20T17:13:43Z</time></trkpt><trkpt lat="37.94856689540471" lon="-2.7709078212473397"><ele>1619.0</ele><time>2026-04-20T17:13:44Z</time></trkpt><trkpt lat="37.9486015729743" lon="-2.7711359488772804"><ele>1618.0</ele><time>2026-04-20T17:13:45Z</time></trkpt><trkpt lat="37.948637813190096" lon="-2.771375362409798"><ele>1617.0</ele><time>2026-04-20T17:13:46Z</time></trkpt><trkpt lat="37.94866291403368" lon="-2.7716262209391553"><ele>1617.0</ele><time>2026-04-20T17:13:47Z</time></trkpt><trkpt lat="37.948676168415204" lon="-2.7718498209403313"><ele>1617.0</ele><time>2026-04-20T17:13:48Z</time></trkpt><trkpt lat="37.94869818671619" lon="-2.7720465561245704"><ele>1617.0</ele><time>2026-04-20T17:13:49Z</time></trkpt><trkpt lat="37.94872619048849" lon="-2.7722455158224615"><ele>1616.5</ele><time>2026-04-20T17:13:50Z</time></trkpt><trkpt lat="37.94875628045487" lon="-2.772427776174881"><ele>1616.0</ele><time>2026-04-20T17:13:51Z</time></trkpt><trkpt lat="37.94880554461439" lon="-2.7725802572667915"><ele>1615.5</ele><time>2026-04-20T17:13:52Z</time></trkpt><trkpt lat="37.94884320242054" lon="-2.7726970202553214"><ele>1615.0</ele><time>2026-04-20T17:13:53Z</time></trkpt><trkpt lat="37.94886206242207" lon="-2.7728500279549464"><ele>1614.75</ele><time>2026-04-20T17:13:54Z</time></trkpt><trkpt lat="37.94886603492351" lon="-2.7730554586279186"><ele>1614.5</ele><time>2026-04-20T17:13:55Z</time></trkpt><trkpt lat="37.948860978564724" lon="-2.773250810230992"><ele>1614.25</ele><time>2026-04-20T17:13:56Z</time></trkpt><trkpt lat="37.94883372756191" lon="-2.77340809959574"><ele>1614.0</ele><time>2026-04-20T17:13:57Z</time></trkpt><trkpt lat="37.94878064853415" lon="-2.7735628708468716"><ele>1613.75</ele><time>2026-04-20T17:13:58Z</time></trkpt><trkpt lat="37.94871280419065" lon="-2.773738357786399"><ele>1613.5</ele><time>2026-04-20T17:13:59Z</time></trkpt><trkpt lat="37.94865866623269" lon="-2.7739155459309814"><ele>1613.25</ele><time>2026-04-20T17:14:00Z</time></trkpt><trkpt lat="37.94863530443126" lon="-2.7740851929266572"><ele>1613.0</ele><time>2026-04-20T17:14:01Z</time></trkpt><trkpt lat="37.94863088696027" lon="-2.7742985676727687"><ele>1612.3333333333333</ele><time>2026-04-20T17:14:02Z</time></trkpt><trkpt lat="37.94862819510507" lon="-2.77455632967169"><ele>1611.6666666666665</ele><time>2026-04-20T17:14:03Z</time></trkpt><trkpt lat="37.94862346313839" lon="-2.774814338740425"><ele>1611.0</ele><time>2026-04-20T17:14:04Z</time></trkpt><trkpt lat="37.94861686457593" lon="-2.775052799027924"><ele>1611.0</ele><time>2026-04-20T17:14:05Z</time></trkpt><trkpt lat="37.94861241565849" lon="-2.775278284542794"><ele>1611.0</ele><time>2026-04-20T17:14:06Z</time></trkpt><trkpt lat="37.94861515655939" lon="-2.7754850550991206"><ele>1611.0</ele><time>2026-04-20T17:14:07Z</time></trkpt><trkpt lat="37.94862073534553" lon="-2.7756432027922604"><ele>1611.0</ele><time>2026-04-20T17:14:08Z</time></trkpt><trkpt lat="37.948621051209216" lon="-2.775761389554825"><ele>1611.0</ele><time>2026-04-20T17:14:08.999Z</time></trkpt><trkpt lat="37.94862071193899" lon="-2.775844753116514"><ele>1611.0</ele><time>2026-04-20T17:14:09.999Z</time></trkpt><trkpt lat="37.94863641177775" lon="-2.7759405211792374"><ele>1611.0</ele><time>2026-04-20T17:14:11.999Z</time></trkpt><trkpt lat="37.948667075128995" lon="-2.7760425875978516"><ele>1611.0</ele><time>2026-04-20T17:14:42.999Z</time></trkpt><trkpt lat="37.94869527945816" lon="-2.7761529386334995"><ele>1611.0</ele><time>2026-04-20T17:14:44.999Z</time></trkpt><trkpt lat="37.948716011211836" lon="-2.7762511945316533"><ele>1610.8</ele><time>2026-04-20T17:14:46.999Z</time></trkpt><trkpt lat="37.948734266310176" lon="-2.776361003278589"><ele>1610.6</ele><time>2026-04-20T17:14:48.999Z</time></trkpt><trkpt lat="37.94878913508787" lon="-2.7764716946379018"><ele>1610.4</ele><time>2026-04-20T17:14:50.999Z</time></trkpt><trkpt lat="37.948844242455614" lon="-2.7765937108710976"><ele>1610.2</ele><time>2026-04-20T17:14:52.999Z</time></trkpt><trkpt lat="37.9488682117929" lon="-2.776760686364509"><ele>1610.0</ele><time>2026-04-20T17:14:54.999Z</time></trkpt><trkpt lat="37.94890922065941" lon="-2.7768730546413"><ele>1608.9999999999998</ele><time>2026-04-20T17:14:56.999Z</time></trkpt><trkpt lat="37.94891633672449" lon="-2.7769526049545163"><ele>1608.0</ele><time>2026-04-20T17:14:57.999Z</time></trkpt><trkpt lat="37.948922563546226" lon="-2.777035311946213"><ele>1607.0</ele><time>2026-04-20T17:14:58.999Z</time></trkpt><trkpt lat="37.94890624456326" lon="-2.7771953488845265"><ele>1606.0</ele><time>2026-04-20T17:15:00.999Z</time></trkpt><trkpt lat="37.948895122133855" lon="-2.777275664546874"><ele>1604.9999999999998</ele><time>2026-04-20T17:15:01.999Z</time></trkpt><trkpt lat="37.948880715927324" lon="-2.7773613011493814"><ele>1604.0</ele><time>2026-04-20T17:15:02.999Z</time></trkpt><trkpt lat="37.94886636147503" lon="-2.777450394841478"><ele>1603.9999999999998</ele><time>2026-04-20T17:15:03.999Z</time></trkpt><trkpt lat="37.94885338342441" lon="-2.7775507035241116"><ele>1604.0</ele><time>2026-04-20T17:15:04.999Z</time></trkpt><trkpt lat="37.94882602563988" lon="-2.777643016168986"><ele>1604.0</ele><time>2026-04-20T17:15:05.999Z</time></trkpt><trkpt lat="37.948797818330405" lon="-2.777741236335127"><ele>1604.0</ele><time>2026-04-20T17:15:06.999Z</time></trkpt><trkpt lat="37.94876219529509" lon="-2.7778383966163873"><ele>1603.9999999999998</ele><time>2026-04-20T17:15:07.999Z</time></trkpt><trkpt lat="37.94873065489608" lon="-2.7779364382049136"><ele>1604.0</ele><time>2026-04-20T17:15:08.999Z</time></trkpt><trkpt lat="37.94870906442343" lon="-2.7780346347783365"><ele>1603.8333333333333</ele><time>2026-04-20T17:15:09.999Z</time></trkpt><trkpt lat="37.948702985361095" lon="-2.778136616543011"><ele>1603.6666666666665</ele><time>2026-04-20T17:15:10.999Z</time></trkpt><trkpt lat="37.9486956616976" lon="-2.7782373773449667"><ele>1603.5</ele><time>2026-04-20T17:15:11.999Z</time></trkpt><trkpt lat="37.94867538412373" lon="-2.77833805751423"><ele>1603.3333333333335</ele><time>2026-04-20T17:15:12.999Z</time></trkpt><trkpt lat="37.948644609889385" lon="-2.778425745787279"><ele>1603.1666666666667</ele><time>2026-04-20T17:15:13.999Z</time></trkpt><trkpt lat="37.94860195410984" lon="-2.7785002400090963"><ele>1603.0</ele><time>2026-04-20T17:15:14.999Z</time></trkpt><trkpt lat="37.94853591546792" lon="-2.7786209414760044"><ele>1602.3333333333335</ele><time>2026-04-20T17:15:17Z</time></trkpt><trkpt lat="37.94849107456491" lon="-2.7787603073504683"><ele>1601.6666666666667</ele><time>2026-04-20T17:15:19Z</time></trkpt><trkpt lat="37.948471736009985" lon="-2.7788463771118757"><ele>1601.0</ele><time>2026-04-20T17:15:20Z</time></trkpt><trkpt lat="37.9484531569288" lon="-2.7789411142772398"><ele>1600.3333333333335</ele><time>2026-04-20T17:15:21Z</time></trkpt><trkpt lat="37.948436291849944" lon="-2.7790411967841444"><ele>1599.6666666666667</ele><time>2026-04-20T17:15:22Z</time></trkpt><trkpt lat="37.948418571138795" lon="-2.7791312469460197"><ele>1599.0</ele><time>2026-04-20T17:15:23Z</time></trkpt><trkpt lat="37.948397472491536" lon="-2.77921689440337"><ele>1599.0</ele><time>2026-04-20T17:15:24Z</time></trkpt><trkpt lat="37.94837589950669" lon="-2.779298945052613"><ele>1599.0</ele><time>2026-04-20T17:15:25Z</time></trkpt><trkpt lat="37.94835573963143" lon="-2.7793902044300665"><ele>1599.0</ele><time>2026-04-20T17:15:26Z</time></trkpt><trkpt lat="37.9483330953472" lon="-2.7794849985025256"><ele>1599.0</ele><time>2026-04-20T17:15:27Z</time></trkpt><trkpt lat="37.94830680722824" lon="-2.779579209585674"><ele>1599.0</ele><time>2026-04-20T17:15:28Z</time></trkpt><trkpt lat="37.94827805007553" lon="-2.7796710233484916"><ele>1599.0</ele><time>2026-04-20T17:15:29Z</time></trkpt><trkpt lat="37.94824577990687" lon="-2.779762134386476"><ele>1599.0</ele><time>2026-04-20T17:15:30Z</time></trkpt><trkpt lat="37.94820836678736" lon="-2.7798413368426775"><ele>1599.0</ele><time>2026-04-20T17:15:31Z</time></trkpt><trkpt lat="37.94816320186683" lon="-2.7799232913690397"><ele>1599.0</ele><time>2026-04-20T17:15:32Z</time></trkpt><trkpt lat="37.94811146097739" lon="-2.7800087874305337"><ele>1599.0</ele><time>2026-04-20T17:15:33Z</time></trkpt><trkpt lat="37.94806255866843" lon="-2.7800949599326352"><ele>1599.0</ele><time>2026-04-20T17:15:34Z</time></trkpt><trkpt lat="37.94801700249223" lon="-2.7801870743885293"><ele>1599.0</ele><time>2026-04-20T17:15:35Z</time></trkpt><trkpt lat="37.94798070191334" lon="-2.780291816863397"><ele>1598.6666666666667</ele><time>2026-04-20T17:15:36Z</time></trkpt><trkpt lat="37.94794825157935" lon="-2.7803936315825775"><ele>1598.3333333333335</ele><time>2026-04-20T17:15:37Z</time></trkpt><trkpt lat="37.947904546469196" lon="-2.7804851844584966"><ele>1598.0</ele><time>2026-04-20T17:15:38Z</time></trkpt><trkpt lat="37.94787017906472" lon="-2.7805709545701447"><ele>1597.6666666666667</ele><time>2026-04-20T17:15:39Z</time></trkpt><trkpt lat="37.94784432817962" lon="-2.780676028647541"><ele>1597.3333333333335</ele><time>2026-04-20T17:15:41Z</time></trkpt><trkpt lat="37.947810649759795" lon="-2.7807747109766043"><ele>1597.0</ele><time>2026-04-20T17:15:44Z</time></trkpt><trkpt lat="37.947769618340324" lon="-2.780875374049517"><ele>1597.0</ele><time>2026-04-20T17:15:46Z</time></trkpt><trkpt lat="37.94773033174791" lon="-2.7809567170590235"><ele>1597.0</ele><time>2026-04-20T17:15:48Z</time></trkpt><trkpt lat="37.94768998243534" lon="-2.7810910565214075"><ele>1597.0</ele><time>2026-04-20T17:15:50Z</time></trkpt><trkpt lat="37.94764681639543" lon="-2.7812375062101897"><ele>1597.0</ele><time>2026-04-20T17:15:52Z</time></trkpt><trkpt lat="37.94760695240565" lon="-2.7813728855806494"><ele>1597.0</ele><time>2026-04-20T17:15:54Z</time></trkpt><trkpt lat="37.94758050401094" lon="-2.7814459989671976"><ele>1596.857142857143</ele><time>2026-04-20T17:15:55Z</time></trkpt><trkpt lat="37.94755291137664" lon="-2.781522185118825"><ele>1596.7142857142858</ele><time>2026-04-20T17:15:56Z</time></trkpt><trkpt lat="37.94752768175672" lon="-2.7816054069772824"><ele>1596.5714285714284</ele><time>2026-04-20T17:15:57Z</time></trkpt><trkpt lat="37.94750792309479" lon="-2.781687929811893"><ele>1596.4285714285716</ele><time>2026-04-20T17:15:58Z</time></trkpt><trkpt lat="37.94748963334079" lon="-2.781777541543621"><ele>1596.2857142857142</ele><time>2026-04-20T17:15:59Z</time></trkpt><trkpt lat="37.94747267549562" lon="-2.781866669671372"><ele>1596.142857142857</ele><time>2026-04-20T17:16:00Z</time></trkpt><trkpt lat="37.94745424563471" lon="-2.7819552440608013"><ele>1596.0</ele><time>2026-04-20T17:16:01Z</time></trkpt><trkpt lat="37.947433712186516" lon="-2.7820356220226534"><ele>1595.1999999999998</ele><time>2026-04-20T17:16:02Z</time></trkpt><trkpt lat="37.94741264980492" lon="-2.7821111129249596"><ele>1594.3999999999999</ele><time>2026-04-20T17:16:03Z</time></trkpt><trkpt lat="37.94737672183686" lon="-2.7822443637743968"><ele>1593.6</ele><time>2026-04-20T17:16:05Z</time></trkpt><trkpt lat="37.94733918658209" lon="-2.782378718329409"><ele>1592.8</ele><time>2026-04-20T17:16:07Z</time></trkpt><trkpt lat="37.94730183205165" lon="-2.7825240326836447"><ele>1592.0</ele><time>2026-04-20T17:16:09Z</time></trkpt><trkpt lat="37.94728441053836" lon="-2.7826053528656796"><ele>1591.6666666666665</ele><time>2026-04-20T17:16:10Z</time></trkpt><trkpt lat="37.94726456260637" lon="-2.782691388018999"><ele>1591.3333333333333</ele><time>2026-04-20T17:16:11Z</time></trkpt><trkpt lat="37.94724051998525" lon="-2.782787673579908"><ele>1591.0</ele><time>2026-04-20T17:16:12Z</time></trkpt><trkpt lat="37.94721208563068" lon="-2.7828838676725116"><ele>1590.6666666666665</ele><time>2026-04-20T17:16:13Z</time></trkpt><trkpt lat="37.94718365696443" lon="-2.782983632564429"><ele>1590.3333333333333</ele><time>2026-04-20T17:16:14Z</time></trkpt><trkpt lat="37.947158102756745" lon="-2.783079194874593"><ele>1590.0</ele><time>2026-04-20T17:16:15Z</time></trkpt><trkpt lat="37.947130900535804" lon="-2.783169621420836"><ele>1590.0</ele><time>2026-04-20T17:16:16Z</time></trkpt><trkpt lat="37.947104924063474" lon="-2.783258320674693"><ele>1590.0</ele><time>2026-04-20T17:16:17Z</time></trkpt><trkpt lat="37.94707959010395" lon="-2.78334287987053"><ele>1590.0</ele><time>2026-04-20T17:16:18Z</time></trkpt><trkpt lat="37.94704637951467" lon="-2.7834789066294494"><ele>1590.0</ele><time>2026-04-20T17:16:20Z</time></trkpt><trkpt lat="37.94705762475609" lon="-2.7835610114757543"><ele>1590.0</ele><time>2026-04-20T17:16:22Z</time></trkpt><trkpt lat="37.947124697887105" lon="-2.783660546817636"><ele>1590.0</ele><time>2026-04-20T17:16:23.999Z</time></trkpt><trkpt lat="37.94719150670498" lon="-2.783723550773017"><ele>1589.857142857143</ele><time>2026-04-20T17:16:24.999Z</time></trkpt><trkpt lat="37.947246100793336" lon="-2.783771618790787"><ele>1589.7142857142858</ele><time>2026-04-20T17:16:25.999Z</time></trkpt><trkpt lat="37.947296159516426" lon="-2.7838204904921953"><ele>1589.5714285714284</ele><time>2026-04-20T17:16:26.999Z</time></trkpt><trkpt lat="37.947346345913175" lon="-2.7838710115854792"><ele>1589.4285714285716</ele><time>2026-04-20T17:16:27.999Z</time></trkpt><trkpt lat="37.94742843451743" lon="-2.7839301123578117"><ele>1589.2857142857142</ele><time>2026-04-20T17:16:29.999Z</time></trkpt><trkpt lat="37.947491940234436" lon="-2.783935415694547"><ele>1589.142857142857</ele><time>2026-04-20T17:16:31.999Z</time></trkpt><trkpt lat="37.94756429489436" lon="-2.7839084847643187"><ele>1589.0</ele><time>2026-04-20T17:16:33.999Z</time></trkpt><trkpt lat="37.94761567155555" lon="-2.7838232874697093"><ele>1588.9999999999998</ele><time>2026-04-20T17:16:35.999Z</time></trkpt><trkpt lat="37.947641608387336" lon="-2.7837254660946757"><ele>1589.0</ele><time>2026-04-20T17:16:37.999Z</time></trkpt><trkpt lat="37.94767495868631" lon="-2.78362806581513"><ele>1589.0</ele><time>2026-04-20T17:16:39.999Z</time></trkpt><trkpt lat="37.94771825480479" lon="-2.783522458028506"><ele>1589.0</ele><time>2026-04-20T17:16:41.999Z</time></trkpt><trkpt lat="37.94775088828723" lon="-2.783418450242256"><ele>1588.9999999999998</ele><time>2026-04-20T17:16:43.999Z</time></trkpt><trkpt lat="37.94775293669279" lon="-2.7833199060455502"><ele>1589.0</ele><time>2026-04-20T17:16:45.999Z</time></trkpt><trkpt lat="37.947688809132956" lon="-2.783249529350353"><ele>1588.9999999999998</ele><time>2026-04-20T17:16:47.999Z</time></trkpt><trkpt lat="37.94759661426283" lon="-2.783235873808142"><ele>1589.0</ele><time>2026-04-20T17:16:49.999Z</time></trkpt><trkpt lat="37.94751698186629" lon="-2.7832856297858934"><ele>1589.0</ele><time>2026-04-20T17:16:51.999Z</time></trkpt><trkpt lat="37.947457929305024" lon="-2.7833468930501386"><ele>1589.0</ele><time>2026-04-20T17:16:53.999Z</time></trkpt><trkpt lat="37.947405177126335" lon="-2.783391644527209"><ele>1588.9999999999998</ele><time>2026-04-20T17:16:55.999Z</time></trkpt><trkpt lat="37.947340184264306" lon="-2.7834793871291437"><ele>1589.0</ele><time>2026-04-20T17:17:48Z</time></trkpt><trkpt lat="37.947260157885715" lon="-2.7835970302221456"><ele>1589.0</ele><time>2026-04-20T17:17:50Z</time></trkpt><trkpt lat="37.947220664630876" lon="-2.7836599033360296"><ele>1589.0</ele><time>2026-04-20T17:17:51Z</time></trkpt><trkpt lat="37.947180057148735" lon="-2.783721921536068"><ele>1589.0</ele><time>2026-04-20T17:17:52Z</time></trkpt><trkpt lat="37.94713371483785" lon="-2.7837849735876428"><ele>1589.0</ele><time>2026-04-20T17:17:53Z</time></trkpt><trkpt lat="37.94709636649813" lon="-2.783851996275943"><ele>1589.0</ele><time>2026-04-20T17:17:54Z</time></trkpt><trkpt lat="37.94705147142028" lon="-2.7839945648850883"><ele>1589.0</ele><time>2026-04-20T17:17:56Z</time></trkpt><trkpt lat="37.9470305653677" lon="-2.7840719173990656"><ele>1589.0</ele><time>2026-04-20T17:17:57Z</time></trkpt><trkpt lat="37.94698510210811" lon="-2.7841757325572423"><ele>1588.9999999999998</ele><time>2026-04-20T17:17:59Z</time></trkpt><trkpt lat="37.9469176965515" lon="-2.7841999756034883"><ele>1589.0</ele><time>2026-04-20T17:18:01Z</time></trkpt><trkpt lat="37.94683677902872" lon="-2.7842030619961804"><ele>1589.0</ele><time>2026-04-20T17:18:04Z</time></trkpt><trkpt lat="37.94680570297758" lon="-2.784316925238616"><ele>1589.0</ele><time>2026-04-20T17:19:12.999Z</time></trkpt><trkpt lat="37.94678466764984" lon="-2.784397914594615"><ele>1588.9999999999998</ele><time>2026-04-20T17:19:13.999Z</time></trkpt><trkpt lat="37.94675375948349" lon="-2.7844994018459905"><ele>1589.0</ele><time>2026-04-20T17:19:14.999Z</time></trkpt><trkpt lat="37.94670435581147" lon="-2.7846058108195564"><ele>1588.0</ele><time>2026-04-20T17:19:15.999Z</time></trkpt><trkpt lat="37.94665142926849" lon="-2.784737882865554"><ele>1587.0</ele><time>2026-04-20T17:19:16.999Z</time></trkpt><trkpt lat="37.946602227817884" lon="-2.784880005073958"><ele>1586.0</ele><time>2026-04-20T17:19:17.999Z</time></trkpt><trkpt lat="37.946571593209555" lon="-2.785010260165071"><ele>1585.0</ele><time>2026-04-20T17:19:18.999Z</time></trkpt><trkpt lat="37.946540111699925" lon="-2.7851361243069133"><ele>1584.8</ele><time>2026-04-20T17:19:19.999Z</time></trkpt><trkpt lat="37.946513746807675" lon="-2.785251074889276"><ele>1584.6</ele><time>2026-04-20T17:19:20.999Z</time></trkpt><trkpt lat="37.946487246158675" lon="-2.78537049940013"><ele>1584.4</ele><time>2026-04-20T17:19:21.999Z</time></trkpt><trkpt lat="37.9464773123809" lon="-2.785495897932649"><ele>1584.2</ele><time>2026-04-20T17:19:22.999Z</time></trkpt><trkpt lat="37.946493777348884" lon="-2.785615009894382"><ele>1584.0</ele><time>2026-04-20T17:19:23.999Z</time></trkpt><trkpt lat="37.94653810099775" lon="-2.7857295571648417"><ele>1584.0</ele><time>2026-04-20T17:19:24.999Z</time></trkpt><trkpt lat="37.946595860507045" lon="-2.785819789684296"><ele>1584.0</ele><time>2026-04-20T17:19:25.999Z</time></trkpt><trkpt lat="37.94663261155709" lon="-2.785900626706967"><ele>1584.0</ele><time>2026-04-20T17:19:26.999Z</time></trkpt><trkpt lat="37.946598383281916" lon="-2.78606443703508"><ele>1584.0</ele><time>2026-04-20T17:19:29.001Z</time></trkpt><trkpt lat="37.94654314453027" lon="-2.7861542340571144"><ele>1584.0</ele><time>2026-04-20T17:19:30.001Z</time></trkpt><trkpt lat="37.94649505432326" lon="-2.786261324521175"><ele>1583.4</ele><time>2026-04-20T17:19:32.001Z</time></trkpt><trkpt lat="37.9465100494458" lon="-2.7863854109404023"><ele>1582.8000000000002</ele><time>2026-04-20T17:19:34.001Z</time></trkpt><trkpt lat="37.946408835526725" lon="-2.786494350796424"><ele>1582.1999999999998</ele><time>2026-04-20T17:19:36.001Z</time></trkpt><trkpt lat="37.946341603649955" lon="-2.7865704636495803"><ele>1581.6</ele><time>2026-04-20T17:19:37Z</time></trkpt><trkpt lat="37.94630008706407" lon="-2.7866637391067184"><ele>1581.0</ele><time>2026-04-20T17:19:38Z</time></trkpt><trkpt lat="37.94627297835259" lon="-2.7867714825845122"><ele>1580.8333333333333</ele><time>2026-04-20T17:19:39Z</time></trkpt><trkpt lat="37.946255068867195" lon="-2.7868589751625064"><ele>1580.6666666666665</ele><time>2026-04-20T17:19:40Z</time></trkpt><trkpt lat="37.94624732508708" lon="-2.786970749715597"><ele>1580.5</ele><time>2026-04-20T17:19:41Z</time></trkpt><trkpt lat="37.94623650181108" lon="-2.787103136193274"><ele>1580.3333333333333</ele><time>2026-04-20T17:19:42Z</time></trkpt><trkpt lat="37.94623700014855" lon="-2.7872197734415742"><ele>1580.1666666666665</ele><time>2026-04-20T17:19:43Z</time></trkpt><trkpt lat="37.94624659058784" lon="-2.787321767272524"><ele>1580.0</ele><time>2026-04-20T17:19:44Z</time></trkpt><trkpt lat="37.946269906586345" lon="-2.78742573278104"><ele>1580.0</ele><time>2026-04-20T17:19:45Z</time></trkpt><trkpt lat="37.946295446646864" lon="-2.787525779936126"><ele>1580.0</ele><time>2026-04-20T17:19:46Z</time></trkpt><trkpt lat="37.94631366137453" lon="-2.7876319228819795"><ele>1580.0</ele><time>2026-04-20T17:19:47Z</time></trkpt><trkpt lat="37.94631971395984" lon="-2.7877525639884047"><ele>1580.0</ele><time>2026-04-20T17:19:48Z</time></trkpt><trkpt lat="37.946299372270694" lon="-2.787890269300409"><ele>1580.0</ele><time>2026-04-20T17:19:49Z</time></trkpt><trkpt lat="37.94628235330916" lon="-2.788031617919716"><ele>1579.2</ele><time>2026-04-20T17:19:50Z</time></trkpt><trkpt lat="37.94630319567016" lon="-2.7881721213316517"><ele>1578.4</ele><time>2026-04-20T17:19:51Z</time></trkpt><trkpt lat="37.946326189836554" lon="-2.788303701520331"><ele>1577.6</ele><time>2026-04-20T17:19:52Z</time></trkpt><trkpt lat="37.94633237296293" lon="-2.7884298733680355"><ele>1576.8</ele><time>2026-04-20T17:19:53Z</time></trkpt><trkpt lat="37.9463168075676" lon="-2.7885396048563225"><ele>1576.0</ele><time>2026-04-20T17:19:54Z</time></trkpt><trkpt lat="37.94627048003599" lon="-2.7886507697936835"><ele>1575.4</ele><time>2026-04-20T17:19:55Z</time></trkpt><trkpt lat="37.946199944480604" lon="-2.788768080494286"><ele>1574.8</ele><time>2026-04-20T17:19:56Z</time></trkpt><trkpt lat="37.946122216846604" lon="-2.788894436041298"><ele>1574.2</ele><time>2026-04-20T17:19:57Z</time></trkpt><trkpt lat="37.946057652822375" lon="-2.789002008857556"><ele>1573.6000000000001</ele><time>2026-04-20T17:19:58Z</time></trkpt><trkpt lat="37.94600476863749" lon="-2.7890983647356333"><ele>1573.0</ele><time>2026-04-20T17:19:59Z</time></trkpt><trkpt lat="37.94596288490889" lon="-2.789181689148993"><ele>1573.0</ele><time>2026-04-20T17:20:00Z</time></trkpt><trkpt lat="37.94589851870242" lon="-2.789246038554303"><ele>1573.0</ele><time>2026-04-20T17:20:01Z</time></trkpt><trkpt lat="37.94581388665214" lon="-2.7893028211568867"><ele>1573.0</ele><time>2026-04-20T17:20:02Z</time></trkpt><trkpt lat="37.945730217117784" lon="-2.789347635575523"><ele>1573.0</ele><time>2026-04-20T17:20:03Z</time></trkpt><trkpt lat="37.9456644612926" lon="-2.7893815105449717"><ele>1573.0</ele><time>2026-04-20T17:20:04Z</time></trkpt><trkpt lat="37.9455601033373" lon="-2.7894498986640195"><ele>1572.8333333333335</ele><time>2026-04-20T17:20:06Z</time></trkpt><trkpt lat="37.945502040950686" lon="-2.789494090569115"><ele>1572.6666666666667</ele><time>2026-04-20T17:20:07Z</time></trkpt><trkpt lat="37.94544504386028" lon="-2.7895402323707943"><ele>1572.5</ele><time>2026-04-20T17:20:08Z</time></trkpt><trkpt lat="37.94538287078136" lon="-2.789596921140255"><ele>1572.3333333333335</ele><time>2026-04-20T17:20:09Z</time></trkpt><trkpt lat="37.94531336131781" lon="-2.789640533698948"><ele>1572.1666666666667</ele><time>2026-04-20T17:21:00.999Z</time></trkpt><trkpt lat="37.94523339738253" lon="-2.7897214157266683"><ele>1572.0</ele><time>2026-04-20T17:21:02.999Z</time></trkpt><trkpt lat="37.94517373635084" lon="-2.789785015199667"><ele>1572.0</ele><time>2026-04-20T17:21:03.999Z</time></trkpt><trkpt lat="37.945112905691516" lon="-2.789846422982898"><ele>1572.0</ele><time>2026-04-20T17:21:04.999Z</time></trkpt><trkpt lat="37.945058134133596" lon="-2.7899127147134593"><ele>1572.0</ele><time>2026-04-20T17:21:05.999Z</time></trkpt><trkpt lat="37.94500034507197" lon="-2.789976217818035"><ele>1572.0</ele><time>2026-04-20T17:21:06.999Z</time></trkpt><trkpt lat="37.944934829389325" lon="-2.790033923116733"><ele>1572.0</ele><time>2026-04-20T17:21:07.999Z</time></trkpt><trkpt lat="37.94484763216994" lon="-2.790084109839483"><ele>1572.0</ele><time>2026-04-20T17:21:08.999Z</time></trkpt><trkpt lat="37.94473930927124" lon="-2.7901385862442294"><ele>1572.0</ele><time>2026-04-20T17:21:09.999Z</time></trkpt><trkpt lat="37.94461559507331" lon="-2.7902049782677603"><ele>1572.0</ele><time>2026-04-20T17:21:10.999Z</time></trkpt><trkpt lat="37.94448932982985" lon="-2.7902754460680836"><ele>1572.0</ele><time>2026-04-20T17:21:11.999Z</time></trkpt><trkpt lat="37.94435908164513" lon="-2.7903353926205194"><ele>1572.0</ele><time>2026-04-20T17:21:12.999Z</time></trkpt><trkpt lat="37.944233770188944" lon="-2.7904031313919226"><ele>1572.5</ele><time>2026-04-20T17:21:13.999Z</time></trkpt><trkpt lat="37.9440992937394" lon="-2.7904720531642893"><ele>1573.0</ele><time>2026-04-20T17:21:14.999Z</time></trkpt><trkpt lat="37.94395924892374" lon="-2.790540426926217"><ele>1573.5</ele><time>2026-04-20T17:21:15.999Z</time></trkpt><trkpt lat="37.94382963032868" lon="-2.7905963397850386"><ele>1574.0</ele><time>2026-04-20T17:21:16.999Z</time></trkpt><trkpt lat="37.94370559119818" lon="-2.7906429973626534"><ele>1574.0</ele><time>2026-04-20T17:21:17.999Z</time></trkpt><trkpt lat="37.943598943255985" lon="-2.7906908911532686"><ele>1574.0</ele><time>2026-04-20T17:21:18.999Z</time></trkpt><trkpt lat="37.94348264861872" lon="-2.7907287535620986"><ele>1574.0</ele><time>2026-04-20T17:21:19.999Z</time></trkpt><trkpt lat="37.94336339734679" lon="-2.79077716049165"><ele>1574.0</ele><time>2026-04-20T17:21:20.999Z</time></trkpt><trkpt lat="37.943240555142" lon="-2.7908372048781716"><ele>1573.0</ele><time>2026-04-20T17:21:21.999Z</time></trkpt><trkpt lat="37.94311459579093" lon="-2.7909286742664854"><ele>1572.0</ele><time>2026-04-20T17:21:22.999Z</time></trkpt><trkpt lat="37.942987897731754" lon="-2.791036480917863"><ele>1571.0</ele><time>2026-04-20T17:21:23.999Z</time></trkpt><trkpt lat="37.94285783192891" lon="-2.7911452105946504"><ele>1569.6666666666665</ele><time>2026-04-20T17:21:24.999Z</time></trkpt><trkpt lat="37.9427208461273" lon="-2.7912526521985215"><ele>1568.3333333333335</ele><time>2026-04-20T17:21:25.999Z</time></trkpt><trkpt lat="37.94259051459465" lon="-2.791356725224424"><ele>1567.0</ele><time>2026-04-20T17:21:26.999Z</time></trkpt><trkpt lat="37.94246047806474" lon="-2.791463124140758"><ele>1566.3333333333335</ele><time>2026-04-20T17:21:27.999Z</time></trkpt><trkpt lat="37.94232365901774" lon="-2.791570293272883"><ele>1565.6666666666665</ele><time>2026-04-20T17:21:28.999Z</time></trkpt><trkpt lat="37.94217052873997" lon="-2.791671835490012"><ele>1565.0</ele><time>2026-04-20T17:21:29.999Z</time></trkpt><trkpt lat="37.94200930507927" lon="-2.7917686236036485"><ele>1565.0</ele><time>2026-04-20T17:21:30.999Z</time></trkpt><trkpt lat="37.941846114735625" lon="-2.791875027232841"><ele>1565.0</ele><time>2026-04-20T17:21:31.999Z</time></trkpt><trkpt lat="37.94169364260261" lon="-2.791973076238939"><ele>1565.0</ele><time>2026-04-20T17:21:32.999Z</time></trkpt><trkpt lat="37.941537036810416" lon="-2.792068448026842"><ele>1565.0</ele><time>2026-04-20T17:21:33.999Z</time></trkpt><trkpt lat="37.94138174063478" lon="-2.7921738219731016"><ele>1565.0</ele><time>2026-04-20T17:21:35Z</time></trkpt><trkpt lat="37.941227897042005" lon="-2.7922828780074793"><ele>1565.0</ele><time>2026-04-20T17:21:36Z</time></trkpt><trkpt lat="37.9410858147292" lon="-2.7923845286445474"><ele>1565.0</ele><time>2026-04-20T17:21:37Z</time></trkpt><trkpt lat="37.94095664765254" lon="-2.792475885946759"><ele>1565.0</ele><time>2026-04-20T17:21:38Z</time></trkpt><trkpt lat="37.9408326606321" lon="-2.79255920137165"><ele>1565.0</ele><time>2026-04-20T17:21:39Z</time></trkpt><trkpt lat="37.94072557632042" lon="-2.7926486993347726"><ele>1565.0</ele><time>2026-04-20T17:21:40Z</time></trkpt><trkpt lat="37.94063282070202" lon="-2.7927442399422824"><ele>1565.75</ele><time>2026-04-20T17:21:41Z</time></trkpt><trkpt lat="37.94052432752721" lon="-2.792834573130915"><ele>1566.5</ele><time>2026-04-20T17:21:42Z</time></trkpt><trkpt lat="37.94038547592128" lon="-2.792933499286041"><ele>1567.25</ele><time>2026-04-20T17:21:43Z</time></trkpt><trkpt lat="37.940253110262795" lon="-2.7930411393372854"><ele>1568.0</ele><time>2026-04-20T17:21:44Z</time></trkpt><trkpt lat="37.940135620204046" lon="-2.7931449737204184"><ele>1567.5</ele><time>2026-04-20T17:21:45Z</time></trkpt><trkpt lat="37.940020443454316" lon="-2.7932268127874798"><ele>1567.0</ele><time>2026-04-20T17:21:46Z</time></trkpt><trkpt lat="37.93990567945027" lon="-2.7932960471015345"><ele>1566.5</ele><time>2026-04-20T17:21:47Z</time></trkpt><trkpt lat="37.939792023039956" lon="-2.7933806295758306"><ele>1566.0</ele><time>2026-04-20T17:21:48Z</time></trkpt><trkpt lat="37.93969572751479" lon="-2.7934582542130384"><ele>1566.1999999999998</ele><time>2026-04-20T17:21:49Z</time></trkpt><trkpt lat="37.93960265334512" lon="-2.793510353539473"><ele>1566.3999999999999</ele><time>2026-04-20T17:21:50Z</time></trkpt><trkpt lat="37.93951857182545" lon="-2.7935774626266383"><ele>1566.6</ele><time>2026-04-20T17:21:51Z</time></trkpt><trkpt lat="37.93944790390874" lon="-2.7936932940241768"><ele>1566.8</ele><time>2026-04-20T17:21:52Z</time></trkpt><trkpt lat="37.9393878547408" lon="-2.7938115286982974"><ele>1567.0</ele><time>2026-04-20T17:21:53Z</time></trkpt><trkpt lat="37.93931206860077" lon="-2.7939220413502044"><ele>1567.0</ele><time>2026-04-20T17:21:54Z</time></trkpt><trkpt lat="37.939228787984305" lon="-2.794018243382774"><ele>1567.0</ele><time>2026-04-20T17:21:55Z</time></trkpt><trkpt lat="37.93916553094934" lon="-2.794114832951522"><ele>1567.0</ele><time>2026-04-20T17:21:56Z</time></trkpt><trkpt lat="37.9391195471121" lon="-2.7942396647601693"><ele>1567.0</ele><time>2026-04-20T17:21:57Z</time></trkpt><trkpt lat="37.93911349422079" lon="-2.7943974100769755"><ele>1567.0</ele><time>2026-04-20T17:21:58Z</time></trkpt><trkpt lat="37.939110327722005" lon="-2.794562874867834"><ele>1566.3999999999999</ele><time>2026-04-20T17:21:59Z</time></trkpt><trkpt lat="37.93908953997498" lon="-2.7946900841711835"><ele>1565.8</ele><time>2026-04-20T17:22:00Z</time></trkpt><trkpt lat="37.93904803552726" lon="-2.7947921674800393"><ele>1565.2</ele><time>2026-04-20T17:22:01Z</time></trkpt><trkpt lat="37.9389801693109" lon="-2.794885619037816"><ele>1564.6</ele><time>2026-04-20T17:22:02Z</time></trkpt><trkpt lat="37.93891954405531" lon="-2.7949710574726985"><ele>1564.0</ele><time>2026-04-20T17:22:03Z</time></trkpt><trkpt lat="37.93888511646869" lon="-2.7950822513268827"><ele>1564.25</ele><time>2026-04-20T17:22:04Z</time></trkpt><trkpt lat="37.93886329406105" lon="-2.795211590018184"><ele>1564.5</ele><time>2026-04-20T17:22:05Z</time></trkpt><trkpt lat="37.93883981404722" lon="-2.7953589381066988"><ele>1564.75</ele><time>2026-04-20T17:22:06Z</time></trkpt><trkpt lat="37.93880467425547" lon="-2.7955198828958907"><ele>1565.0</ele><time>2026-04-20T17:22:07Z</time></trkpt><trkpt lat="37.93875640426422" lon="-2.79568490877396"><ele>1565.0</ele><time>2026-04-20T17:22:08Z</time></trkpt><trkpt lat="37.93869577144613" lon="-2.7958542464830844"><ele>1565.0</ele><time>2026-04-20T17:22:09Z</time></trkpt><trkpt lat="37.93861051442029" lon="-2.7960273637697117"><ele>1565.0</ele><time>2026-04-20T17:22:10Z</time></trkpt><trkpt lat="37.938512878144294" lon="-2.796201895865994"><ele>1565.3333333333333</ele><time>2026-04-20T17:22:11Z</time></trkpt><trkpt lat="37.93840900985133" lon="-2.796385608662342"><ele>1565.6666666666665</ele><time>2026-04-20T17:22:12Z</time></trkpt><trkpt lat="37.9383026996788" lon="-2.796571917146004"><ele>1566.0</ele><time>2026-04-20T17:22:13Z</time></trkpt><trkpt lat="37.938204298253034" lon="-2.7967575807340377"><ele>1565.6666666666665</ele><time>2026-04-20T17:22:14Z</time></trkpt><trkpt lat="37.938110088218025" lon="-2.796939487458597"><ele>1565.3333333333333</ele><time>2026-04-20T17:22:15Z</time></trkpt><trkpt lat="37.93801760266834" lon="-2.7971283644286484"><ele>1565.0</ele><time>2026-04-20T17:22:16Z</time></trkpt><trkpt lat="37.93793598725399" lon="-2.7973156156119154"><ele>1565.0</ele><time>2026-04-20T17:22:17Z</time></trkpt><trkpt lat="37.93786631259482" lon="-2.7975023895423945"><ele>1565.0</ele><time>2026-04-20T17:22:18Z</time></trkpt><trkpt lat="37.937826009131165" lon="-2.7976785987552826"><ele>1565.0</ele><time>2026-04-20T17:22:19Z</time></trkpt><trkpt lat="37.93779358522181" lon="-2.797847327397639"><ele>1565.0</ele><time>2026-04-20T17:22:20Z</time></trkpt><trkpt lat="37.93777523452105" lon="-2.798009482766245"><ele>1564.5</ele><time>2026-04-20T17:22:21Z</time></trkpt><trkpt lat="37.937778362512475" lon="-2.7981819863324175"><ele>1564.0</ele><time>2026-04-20T17:22:22Z</time></trkpt><trkpt lat="37.93781189096637" lon="-2.7983739521876623"><ele>1563.5</ele><time>2026-04-20T17:22:23Z</time></trkpt><trkpt lat="37.937855802439486" lon="-2.798561749532081"><ele>1563.0</ele><time>2026-04-20T17:22:24Z</time></trkpt><trkpt lat="37.937885326537504" lon="-2.798719488327351"><ele>1562.8000000000002</ele><time>2026-04-20T17:22:25Z</time></trkpt><trkpt lat="37.937913321453934" lon="-2.798849786985953"><ele>1562.6</ele><time>2026-04-20T17:22:26Z</time></trkpt><trkpt lat="37.937934909533425" lon="-2.7989682205354907"><ele>1562.4</ele><time>2026-04-20T17:22:27Z</time></trkpt><trkpt lat="37.9379367134982" lon="-2.7990750400123594"><ele>1562.1999999999998</ele><time>2026-04-20T17:22:28Z</time></trkpt><trkpt lat="37.93791113615247" lon="-2.7991934297138568"><ele>1562.0</ele><time>2026-04-20T17:22:29Z</time></trkpt><trkpt lat="37.93786125198667" lon="-2.799337284951897"><ele>1561.75</ele><time>2026-04-20T17:22:30Z</time></trkpt><trkpt lat="37.937830017500104" lon="-2.799499456174904"><ele>1561.5</ele><time>2026-04-20T17:22:31Z</time></trkpt><trkpt lat="37.93782008766388" lon="-2.799660427264108"><ele>1561.25</ele><time>2026-04-20T17:22:32Z</time></trkpt><trkpt lat="37.93780634009683" lon="-2.799810465194028"><ele>1561.0</ele><time>2026-04-20T17:22:33Z</time></trkpt><trkpt lat="37.93779177497366" lon="-2.7999533237050964"><ele>1561.0</ele><time>2026-04-20T17:22:33.999Z</time></trkpt><trkpt lat="37.937768346491175" lon="-2.8000730421112783"><ele>1561.0</ele><time>2026-04-20T17:22:34.999Z</time></trkpt><trkpt lat="37.9377539035787" lon="-2.8001678768440175"><ele>1561.0</ele><time>2026-04-20T17:22:35.999Z</time></trkpt><trkpt lat="37.937739046996214" lon="-2.8003357211012525"><ele>1561.0</ele><time>2026-04-20T17:22:37.999Z</time></trkpt><trkpt lat="37.9377045004964" lon="-2.8004345397284602"><ele>1561.0</ele><time>2026-04-20T17:22:38.999Z</time></trkpt><trkpt lat="37.93767819689605" lon="-2.800529708474864"><ele>1560.75</ele><time>2026-04-20T17:22:39.999Z</time></trkpt><trkpt lat="37.93766262792308" lon="-2.8006434066236143"><ele>1560.5</ele><time>2026-04-20T17:22:40.999Z</time></trkpt><trkpt lat="37.93768856128899" lon="-2.8007892921182727"><ele>1560.25</ele><time>2026-04-20T17:22:41.999Z</time></trkpt><trkpt lat="37.937718266783165" lon="-2.800956404950373"><ele>1560.0</ele><time>2026-04-20T17:22:42.999Z</time></trkpt><trkpt lat="37.93773415823416" lon="-2.8011164033920126"><ele>1560.0</ele><time>2026-04-20T17:22:43.999Z</time></trkpt><trkpt lat="37.937737257148235" lon="-2.8012668949143755"><ele>1560.0</ele><time>2026-04-20T17:22:44.999Z</time></trkpt><trkpt lat="37.937721044554834" lon="-2.8014139950010697"><ele>1560.0</ele><time>2026-04-20T17:22:45.999Z</time></trkpt><trkpt lat="37.93768771754675" lon="-2.8015633672661555"><ele>1560.0</ele><time>2026-04-20T17:22:46.999Z</time></trkpt><trkpt lat="37.937631779975" lon="-2.801702723308104"><ele>1560.25</ele><time>2026-04-20T17:22:47.999Z</time></trkpt><trkpt lat="37.937559254282974" lon="-2.8018369746530856"><ele>1560.5</ele><time>2026-04-20T17:22:48.999Z</time></trkpt><trkpt lat="37.93747287087108" lon="-2.801963775755896"><ele>1560.75</ele><time>2026-04-20T17:22:49.999Z</time></trkpt><trkpt lat="37.93735970637363" lon="-2.802070313994923"><ele>1561.0</ele><time>2026-04-20T17:22:50.999Z</time></trkpt><trkpt lat="37.93723846467664" lon="-2.8021774399172465"><ele>1561.0</ele><time>2026-04-20T17:22:51.999Z</time></trkpt><trkpt lat="37.93713873775421" lon="-2.8022734558909845"><ele>1561.0</ele><time>2026-04-20T17:22:52.999Z</time></trkpt><trkpt lat="37.93704811763974" lon="-2.8023550472789895"><ele>1561.0</ele><time>2026-04-20T17:22:53.999Z</time></trkpt><trkpt lat="37.93695536200682" lon="-2.802444177232777"><ele>1561.0</ele><time>2026-04-20T17:22:54.999Z</time></trkpt><trkpt lat="37.936849886360505" lon="-2.8025148158059485"><ele>1561.0</ele><time>2026-04-20T17:22:55.999Z</time></trkpt><trkpt lat="37.93674735053909" lon="-2.802568423556737"><ele>1561.0</ele><time>2026-04-20T17:22:56.999Z</time></trkpt><trkpt lat="37.93665630616988" lon="-2.8026209569539016"><ele>1561.0</ele><time>2026-04-20T17:22:57.999Z</time></trkpt><trkpt lat="37.93656749962888" lon="-2.8027316271636895"><ele>1561.0</ele><time>2026-04-20T17:22:58.999Z</time></trkpt><trkpt lat="37.9364752735512" lon="-2.802855060093365"><ele>1561.75</ele><time>2026-04-20T17:22:59.999Z</time></trkpt><trkpt lat="37.93639473438784" lon="-2.8029924606413763"><ele>1562.5</ele><time>2026-04-20T17:23:00.999Z</time></trkpt><trkpt lat="37.936304061047224" lon="-2.8031077822784787"><ele>1563.25</ele><time>2026-04-20T17:23:01.999Z</time></trkpt><trkpt lat="37.936208797400525" lon="-2.8032073828325808"><ele>1564.0</ele><time>2026-04-20T17:23:02.999Z</time></trkpt><trkpt lat="37.93610992547314" lon="-2.803316424191803"><ele>1564.0</ele><time>2026-04-20T17:23:03.999Z</time></trkpt><trkpt lat="37.93600236976048" lon="-2.803444447258499"><ele>1564.0</ele><time>2026-04-20T17:23:04.999Z</time></trkpt><trkpt lat="37.93592210628603" lon="-2.8035668068092323"><ele>1564.0</ele><time>2026-04-20T17:23:05.999Z</time></trkpt><trkpt lat="37.935831715047065" lon="-2.8036873023134325"><ele>1564.0</ele><time>2026-04-20T17:23:06.999Z</time></trkpt><trkpt lat="37.935742911182246" lon="-2.803809178553243"><ele>1565.25</ele><time>2026-04-20T17:23:07.999Z</time></trkpt><trkpt lat="37.93565599076895" lon="-2.8039373562794383"><ele>1566.5</ele><time>2026-04-20T17:23:08.999Z</time></trkpt><trkpt lat="37.93558372872461" lon="-2.804080051243807"><ele>1567.75</ele><time>2026-04-20T17:23:09.999Z</time></trkpt><trkpt lat="37.935516565599784" lon="-2.8042170728989757"><ele>1569.0</ele><time>2026-04-20T17:23:10.999Z</time></trkpt><trkpt lat="37.93543892598777" lon="-2.8043485213323547"><ele>1570.0</ele><time>2026-04-20T17:23:11.999Z</time></trkpt><trkpt lat="37.93535080413009" lon="-2.8044634561109185"><ele>1571.0</ele><time>2026-04-20T17:23:12.999Z</time></trkpt><trkpt lat="37.93526052284831" lon="-2.8045658303856467"><ele>1572.0</ele><time>2026-04-20T17:23:13.999Z</time></trkpt><trkpt lat="37.93517887414872" lon="-2.8046712999782466"><ele>1573.0</ele><time>2026-04-20T17:23:14.999Z</time></trkpt><trkpt lat="37.93508832956657" lon="-2.8047995418770824"><ele>1573.0</ele><time>2026-04-20T17:23:15.999Z</time></trkpt><trkpt lat="37.93500727193499" lon="-2.8049065299126843"><ele>1573.0</ele><time>2026-04-20T17:23:16.999Z</time></trkpt><trkpt lat="37.93494680014202" lon="-2.8049818731978005"><ele>1573.0</ele><time>2026-04-20T17:23:17.999Z</time></trkpt><trkpt lat="37.93488740952294" lon="-2.8050799518373393"><ele>1573.0</ele><time>2026-04-20T17:23:19.999Z</time></trkpt><trkpt lat="37.9348295720259" lon="-2.805197663883199"><ele>1573.0</ele><time>2026-04-20T17:23:21.999Z</time></trkpt><trkpt lat="37.934773903902645" lon="-2.80526485007223"><ele>1573.0</ele><time>2026-04-20T17:23:22.999Z</time></trkpt><trkpt lat="37.93470298807464" lon="-2.805356557226163"><ele>1573.0</ele><time>2026-04-20T17:23:23.999Z</time></trkpt><trkpt lat="37.93462146849351" lon="-2.8054558879503015"><ele>1573.0</ele><time>2026-04-20T17:23:24.999Z</time></trkpt><trkpt lat="37.93452681171599" lon="-2.8055469835074174"><ele>1573.0</ele><time>2026-04-20T17:23:25.999Z</time></trkpt><trkpt lat="37.93440529878261" lon="-2.805631682829535"><ele>1573.0</ele><time>2026-04-20T17:23:26.999Z</time></trkpt><trkpt lat="37.93425667532687" lon="-2.8057076171856767"><ele>1573.0</ele><time>2026-04-20T17:23:27.999Z</time></trkpt><trkpt lat="37.934083188184516" lon="-2.8058139820196133"><ele>1573.0</ele><time>2026-04-20T17:23:28.999Z</time></trkpt><trkpt lat="37.93391934647654" lon="-2.805897148400322"><ele>1573.0</ele><time>2026-04-20T17:23:29.999Z</time></trkpt><trkpt lat="37.93376786021885" lon="-2.805971685252508"><ele>1573.0</ele><time>2026-04-20T17:23:30.999Z</time></trkpt><trkpt lat="37.93362411200791" lon="-2.806051314934143"><ele>1573.0</ele><time>2026-04-20T17:23:31.999Z</time></trkpt><trkpt lat="37.93346957362285" lon="-2.8061192721524644"><ele>1574.6666666666667</ele><time>2026-04-20T17:23:32.999Z</time></trkpt><trkpt lat="37.933304677718276" lon="-2.8061879971381383"><ele>1576.3333333333335</ele><time>2026-04-20T17:23:33.999Z</time></trkpt><trkpt lat="37.93315115026937" lon="-2.8062511021814895"><ele>1578.0</ele><time>2026-04-20T17:23:34.999Z</time></trkpt><trkpt lat="37.93300933355216" lon="-2.8063176553221068"><ele>1578.0</ele><time>2026-04-20T17:23:35.999Z</time></trkpt><trkpt lat="37.932866062573744" lon="-2.806396468051314"><ele>1578.0</ele><time>2026-04-20T17:23:36.999Z</time></trkpt><trkpt lat="37.93273135209692" lon="-2.8064781458005816"><ele>1578.0</ele><time>2026-04-20T17:23:37.999Z</time></trkpt><trkpt lat="37.932595245010766" lon="-2.8065901468266183"><ele>1578.6666666666665</ele><time>2026-04-20T17:23:38.999Z</time></trkpt><trkpt lat="37.93246030387077" lon="-2.806715272264618"><ele>1579.3333333333333</ele><time>2026-04-20T17:23:39.999Z</time></trkpt><trkpt lat="37.93231063796623" lon="-2.8068150587685445"><ele>1580.0</ele><time>2026-04-20T17:23:41Z</time></trkpt><trkpt lat="37.93215642914426" lon="-2.806887841301094"><ele>1585.6666666666665</ele><time>2026-04-20T17:23:42Z</time></trkpt><trkpt lat="37.93200302591006" lon="-2.8069666654715832"><ele>1591.3333333333335</ele><time>2026-04-20T17:23:43Z</time></trkpt><trkpt lat="37.93186290107087" lon="-2.807050265451274"><ele>1597.0</ele><time>2026-04-20T17:23:44Z</time></trkpt><trkpt lat="37.93173493172014" lon="-2.807126583971691"><ele>1594.75</ele><time>2026-04-20T17:23:45Z</time></trkpt><trkpt lat="37.9316127796515" lon="-2.807226243199291"><ele>1592.5</ele><time>2026-04-20T17:23:46Z</time></trkpt><trkpt lat="37.93151648570738" lon="-2.8073244611012975"><ele>1590.25</ele><time>2026-04-20T17:23:47Z</time></trkpt><trkpt lat="37.931426180475135" lon="-2.8074016702411333"><ele>1588.0</ele><time>2026-04-20T17:23:48Z</time></trkpt><trkpt lat="37.931332350206176" lon="-2.807443838349256"><ele>1588.0</ele><time>2026-04-20T17:23:49Z</time></trkpt><trkpt lat="37.93121734007706" lon="-2.807453740197706"><ele>1588.0</ele><time>2026-04-20T17:23:50Z</time></trkpt><trkpt lat="37.931081157772155" lon="-2.8074408273982727"><ele>1588.0</ele><time>2026-04-20T17:23:51Z</time></trkpt><trkpt lat="37.93092889706935" lon="-2.8074116789745918"><ele>1588.0</ele><time>2026-04-20T17:23:52Z</time></trkpt><trkpt lat="37.93077605456347" lon="-2.807403661007756"><ele>1587.25</ele><time>2026-04-20T17:23:53Z</time></trkpt><trkpt lat="37.93062209361694" lon="-2.8074325140326413"><ele>1586.5</ele><time>2026-04-20T17:23:54Z</time></trkpt><trkpt lat="37.930473528917894" lon="-2.8074585954125593"><ele>1585.75</ele><time>2026-04-20T17:23:55Z</time></trkpt><trkpt lat="37.93033784395475" lon="-2.8074534387567125"><ele>1585.0</ele><time>2026-04-20T17:23:56Z</time></trkpt><trkpt lat="37.93022995744232" lon="-2.807431039951709"><ele>1585.0</ele><time>2026-04-20T17:23:57Z</time></trkpt><trkpt lat="37.93014235035867" lon="-2.807390238485567"><ele>1585.0</ele><time>2026-04-20T17:23:58Z</time></trkpt><trkpt lat="37.930050257294525" lon="-2.8073931577687006"><ele>1585.0</ele><time>2026-04-20T17:23:59Z</time></trkpt><trkpt lat="37.9299556706755" lon="-2.807431323775394"><ele>1585.0</ele><time>2026-04-20T17:24:00Z</time></trkpt><trkpt lat="37.92987156907264" lon="-2.8075302810897047"><ele>1585.0</ele><time>2026-04-20T17:24:01Z</time></trkpt><trkpt lat="37.9297744862224" lon="-2.807646516441649"><ele>1587.0</ele><time>2026-04-20T17:24:02Z</time></trkpt><trkpt lat="37.92967205074782" lon="-2.807755623567934"><ele>1589.0</ele><time>2026-04-20T17:24:03Z</time></trkpt><trkpt lat="37.92955725772891" lon="-2.8078165447767187"><ele>1591.0</ele><time>2026-04-20T17:24:04Z</time></trkpt><trkpt lat="37.92944175730478" lon="-2.8078727061806785"><ele>1593.0</ele><time>2026-04-20T17:24:05Z</time></trkpt><trkpt lat="37.929328800785946" lon="-2.8079272162253206"><ele>1593.0</ele><time>2026-04-20T17:24:06Z</time></trkpt><trkpt lat="37.929226962220945" lon="-2.8079526152018133"><ele>1593.0</ele><time>2026-04-20T17:24:07Z</time></trkpt><trkpt lat="37.92912702598719" lon="-2.80795069956673"><ele>1593.0</ele><time>2026-04-20T17:24:08Z</time></trkpt><trkpt lat="37.929027019296946" lon="-2.807919988316397"><ele>1593.0</ele><time>2026-04-20T17:24:09Z</time></trkpt><trkpt lat="37.92892750354535" lon="-2.8078951313194773"><ele>1593.0</ele><time>2026-04-20T17:24:10Z</time></trkpt><trkpt lat="37.928834283699224" lon="-2.8079263636126908"><ele>1592.0</ele><time>2026-04-20T17:24:11Z</time></trkpt><trkpt lat="37.92873861836415" lon="-2.8080172585855148"><ele>1591.0</ele><time>2026-04-20T17:24:12Z</time></trkpt><trkpt lat="37.92863636576245" lon="-2.80816883593533"><ele>1590.0</ele><time>2026-04-20T17:24:13Z</time></trkpt><trkpt lat="37.92852000986853" lon="-2.808319251976184"><ele>1589.0</ele><time>2026-04-20T17:24:14Z</time></trkpt><trkpt lat="37.92842317550189" lon="-2.8084372189813105"><ele>1591.0</ele><time>2026-04-20T17:24:15Z</time></trkpt><trkpt lat="37.92834661216455" lon="-2.808535671188661"><ele>1593.0</ele><time>2026-04-20T17:24:16Z</time></trkpt><trkpt lat="37.92827650531967" lon="-2.8086140029790974"><ele>1595.0</ele><time>2026-04-20T17:24:17Z</time></trkpt><trkpt lat="37.92820239370062" lon="-2.80867231348015"><ele>1597.0</ele><time>2026-04-20T17:24:18Z</time></trkpt><trkpt lat="37.92810375041069" lon="-2.8087092125827278"><ele>1599.0</ele><time>2026-04-20T17:24:19Z</time></trkpt><trkpt lat="37.927981163345166" lon="-2.808734394845848"><ele>1599.0</ele><time>2026-04-20T17:24:20Z</time></trkpt><trkpt lat="37.92783993633518" lon="-2.8087436489694557"><ele>1599.0</ele><time>2026-04-20T17:24:21Z</time></trkpt><trkpt lat="37.92768983593664" lon="-2.808762488564522"><ele>1599.0</ele><time>2026-04-20T17:24:22Z</time></trkpt><trkpt lat="37.92752916224529" lon="-2.808792863351023"><ele>1597.0</ele><time>2026-04-20T17:24:23Z</time></trkpt><trkpt lat="37.927368701984996" lon="-2.8088222388028066"><ele>1595.0</ele><time>2026-04-20T17:24:24Z</time></trkpt><trkpt lat="37.927204848001246" lon="-2.8088488729519914"><ele>1593.0</ele><time>2026-04-20T17:24:25Z</time></trkpt><trkpt lat="37.92705030967738" lon="-2.8088732272852766"><ele>1593.0</ele><time>2026-04-20T17:24:25.999Z</time></trkpt><trkpt lat="37.926911823736354" lon="-2.8088946926100347"><ele>1593.0</ele><time>2026-04-20T17:24:26.999Z</time></trkpt><trkpt lat="37.92676750316602" lon="-2.8089222281299167"><ele>1593.0</ele><time>2026-04-20T17:24:27.999Z</time></trkpt><trkpt lat="37.92661875604774" lon="-2.808974849459456"><ele>1593.0</ele><time>2026-04-20T17:24:28.999Z</time></trkpt><trkpt lat="37.92647435549155" lon="-2.809057958264446"><ele>1593.0</ele><time>2026-04-20T17:24:29.999Z</time></trkpt><trkpt lat="37.92634425618297" lon="-2.8091704395823593"><ele>1593.0</ele><time>2026-04-20T17:24:30.999Z</time></trkpt><trkpt lat="37.92621729030589" lon="-2.8093003339744294"><ele>1593.0</ele><time>2026-04-20T17:24:31.999Z</time></trkpt><trkpt lat="37.92608548941205" lon="-2.809438727183021"><ele>1594.6666666666665</ele><time>2026-04-20T17:24:32.999Z</time></trkpt><trkpt lat="37.92594092741208" lon="-2.809558349078471"><ele>1596.3333333333333</ele><time>2026-04-20T17:24:33.999Z</time></trkpt><trkpt lat="37.92579081398298" lon="-2.809660082558603"><ele>1598.0</ele><time>2026-04-20T17:24:34.999Z</time></trkpt><trkpt lat="37.925651742905586" lon="-2.8097139230874277"><ele>1598.0</ele><time>2026-04-20T17:24:35.999Z</time></trkpt><trkpt lat="37.925568941334255" lon="-2.8098067176066936"><ele>1598.0</ele><time>2026-04-20T17:24:36.999Z</time></trkpt><trkpt lat="37.92549212364401" lon="-2.8099057163230072"><ele>1598.0</ele><time>2026-04-20T17:24:37.999Z</time></trkpt><trkpt lat="37.92545989736625" lon="-2.8100185581949977"><ele>1598.0</ele><time>2026-04-20T17:24:38.999Z</time></trkpt><trkpt lat="37.92544789636959" lon="-2.8101609309606963"><ele>1598.0</ele><time>2026-04-20T17:24:39.999Z</time></trkpt><trkpt lat="37.92544237992741" lon="-2.8103058302851442"><ele>1600.0</ele><time>2026-04-20T17:24:40.999Z</time></trkpt><trkpt lat="37.92540846062863" lon="-2.8104189968965"><ele>1602.0</ele><time>2026-04-20T17:24:41.999Z</time></trkpt><trkpt lat="37.925336752157264" lon="-2.8105032615466703"><ele>1604.0</ele><time>2026-04-20T17:24:42.999Z</time></trkpt><trkpt lat="37.92525637876486" lon="-2.810555315068378"><ele>1606.0</ele><time>2026-04-20T17:24:43.999Z</time></trkpt><trkpt lat="37.92516255746534" lon="-2.8106404640285576"><ele>1608.0</ele><time>2026-04-20T17:24:44.999Z</time></trkpt><trkpt lat="37.92510246369702" lon="-2.810770079438883"><ele>1608.0</ele><time>2026-04-20T17:24:45.999Z</time></trkpt><trkpt lat="37.92507008527959" lon="-2.8109395224708327"><ele>1608.0</ele><time>2026-04-20T17:24:46.999Z</time></trkpt><trkpt lat="37.92503109788178" lon="-2.8111065474257058"><ele>1608.0</ele><time>2026-04-20T17:24:47.999Z</time></trkpt><trkpt lat="37.92494972787573" lon="-2.811223757841585"><ele>1608.0</ele><time>2026-04-20T17:24:48.999Z</time></trkpt><trkpt lat="37.92487773511025" lon="-2.8113090614250478"><ele>1608.0</ele><time>2026-04-20T17:24:49.999Z</time></trkpt><trkpt lat="37.924829237436796" lon="-2.8113767830345555"><ele>1608.0</ele><time>2026-04-20T17:24:50.999Z</time></trkpt><trkpt lat="37.92476400078281" lon="-2.811488737466795"><ele>1608.0</ele><time>2026-04-20T17:24:52.999Z</time></trkpt><trkpt lat="37.92472684551978" lon="-2.811608406276999"><ele>1608.0</ele><time>2026-04-20T17:24:54.999Z</time></trkpt><trkpt lat="37.9247305724322" lon="-2.811742319074054"><ele>1608.0</ele><time>2026-04-20T17:24:56.999Z</time></trkpt><trkpt lat="37.924749466862075" lon="-2.8118799268386723"><ele>1609.3333333333333</ele><time>2026-04-20T17:24:58.999Z</time></trkpt><trkpt lat="37.92467694838206" lon="-2.812007122906862"><ele>1610.6666666666665</ele><time>2026-04-20T17:25:00.999Z</time></trkpt><trkpt lat="37.924612274041834" lon="-2.8120255477628757"><ele>1612.0</ele><time>2026-04-20T17:25:01.999Z</time></trkpt><trkpt lat="37.92454372878834" lon="-2.8120329829777457"><ele>1613.3333333333333</ele><time>2026-04-20T17:25:02.999Z</time></trkpt><trkpt lat="37.92447350920227" lon="-2.8120541118734512"><ele>1614.6666666666665</ele><time>2026-04-20T17:25:03.999Z</time></trkpt><trkpt lat="37.92439754454345" lon="-2.812091620085468"><ele>1616.0</ele><time>2026-04-20T17:25:04.999Z</time></trkpt><trkpt lat="37.92432249278772" lon="-2.8121451568442506"><ele>1615.9999999999998</ele><time>2026-04-20T17:25:05.999Z</time></trkpt><trkpt lat="37.92424716389065" lon="-2.812196783823028"><ele>1616.0</ele><time>2026-04-20T17:25:06.999Z</time></trkpt><trkpt lat="37.924168636452464" lon="-2.8122478766984873"><ele>1616.0</ele><time>2026-04-20T17:25:07.999Z</time></trkpt><trkpt lat="37.924095848379714" lon="-2.812297400972516"><ele>1616.0</ele><time>2026-04-20T17:25:08.999Z</time></trkpt><trkpt lat="37.92404637592348" lon="-2.812347754777589"><ele>1615.9999999999998</ele><time>2026-04-20T17:25:09.999Z</time></trkpt><trkpt lat="37.924022621126326" lon="-2.812428493311123"><ele>1616.0</ele><time>2026-04-20T17:25:10.999Z</time></trkpt><trkpt lat="37.924010908536324" lon="-2.812538973831056"><ele>1616.1999999999998</ele><time>2026-04-20T17:25:11.999Z</time></trkpt><trkpt lat="37.92400153360536" lon="-2.81267020504791"><ele>1616.3999999999999</ele><time>2026-04-20T17:25:12.999Z</time></trkpt><trkpt lat="37.923980284904864" lon="-2.8128121905013947"><ele>1616.6</ele><time>2026-04-20T17:25:13.999Z</time></trkpt><trkpt lat="37.92395030386607" lon="-2.812949677908961"><ele>1616.8</ele><time>2026-04-20T17:25:14.999Z</time></trkpt><trkpt lat="37.923915463632575" lon="-2.8130502653895744"><ele>1617.0</ele><time>2026-04-20T17:25:15.999Z</time></trkpt><trkpt lat="37.92387102901803" lon="-2.8131254088556523"><ele>1617.0</ele><time>2026-04-20T17:25:16.999Z</time></trkpt><trkpt lat="37.923818220416834" lon="-2.8131932244604294"><ele>1617.0</ele><time>2026-04-20T17:25:17.999Z</time></trkpt><trkpt lat="37.92376347308074" lon="-2.8132561636081244"><ele>1617.0</ele><time>2026-04-20T17:25:18.999Z</time></trkpt><trkpt lat="37.92370988439091" lon="-2.8133090778769723"><ele>1617.0</ele><time>2026-04-20T17:25:19.999Z</time></trkpt><trkpt lat="37.92362376490688" lon="-2.813407112909118"><ele>1617.0</ele><time>2026-04-20T17:25:21.999Z</time></trkpt><trkpt lat="37.923543459480754" lon="-2.813510213201422"><ele>1617.0</ele><time>2026-04-20T17:25:23.999Z</time></trkpt><trkpt lat="37.9234627841425" lon="-2.8136240008906697"><ele>1617.1666666666667</ele><time>2026-04-20T17:25:25.999Z</time></trkpt><trkpt lat="37.92342305540907" lon="-2.81369460559204"><ele>1617.3333333333335</ele><time>2026-04-20T17:25:26.999Z</time></trkpt><trkpt lat="37.923384552687786" lon="-2.8137729067830133"><ele>1617.5</ele><time>2026-04-20T17:25:27.999Z</time></trkpt><trkpt lat="37.923345072093625" lon="-2.8138571292590693"><ele>1617.6666666666667</ele><time>2026-04-20T17:25:28.999Z</time></trkpt><trkpt lat="37.9233080100498" lon="-2.8139462795700223"><ele>1617.8333333333335</ele><time>2026-04-20T17:25:29.999Z</time></trkpt><trkpt lat="37.92326933823949" lon="-2.814038029709482"><ele>1618.0</ele><time>2026-04-20T17:25:30.999Z</time></trkpt><trkpt lat="37.923230596183856" lon="-2.814128416466102"><ele>1618.0000000000002</ele><time>2026-04-20T17:25:31.999Z</time></trkpt><trkpt lat="37.92319571217807" lon="-2.814218025352457"><ele>1618.0</ele><time>2026-04-20T17:25:32.999Z</time></trkpt><trkpt lat="37.9231546613316" lon="-2.814312174966407"><ele>1618.0</ele><time>2026-04-20T17:25:33.999Z</time></trkpt><trkpt lat="37.92311864711565" lon="-2.8143934593166633"><ele>1618.0</ele><time>2026-04-20T17:25:34.999Z</time></trkpt><trkpt lat="37.923080257326546" lon="-2.814479988554984"><ele>1618.0000000000002</ele><time>2026-04-20T17:25:35.999Z</time></trkpt><trkpt lat="37.92304302940651" lon="-2.8145727737317356"><ele>1618.0</ele><time>2026-04-20T17:25:36.999Z</time></trkpt><trkpt lat="37.9229968157232" lon="-2.81466313867176"><ele>1619.8000000000002</ele><time>2026-04-20T17:25:37.999Z</time></trkpt><trkpt lat="37.92295018509058" lon="-2.814765112209924"><ele>1621.6</ele><time>2026-04-20T17:25:38.999Z</time></trkpt><trkpt lat="37.92291281465318" lon="-2.814873123656136"><ele>1623.4</ele><time>2026-04-20T17:25:39.999Z</time></trkpt><trkpt lat="37.922866170127804" lon="-2.814976146069373"><ele>1625.1999999999998</ele><time>2026-04-20T17:25:40.999Z</time></trkpt><trkpt lat="37.92281662074105" lon="-2.8150708647789564"><ele>1627.0</ele><time>2026-04-20T17:25:41.999Z</time></trkpt><trkpt lat="37.92276811479034" lon="-2.8151582264012656"><ele>1627.1999999999998</ele><time>2026-04-20T17:25:42.999Z</time></trkpt><trkpt lat="37.922714937574895" lon="-2.8152359936081788"><ele>1627.4</ele><time>2026-04-20T17:25:43.999Z</time></trkpt><trkpt lat="37.922631015023875" lon="-2.8153106915164767"><ele>1627.6</ele><time>2026-04-20T17:25:44.998Z</time></trkpt><trkpt lat="37.92256390375158" lon="-2.8153852268747026"><ele>1627.8000000000002</ele><time>2026-04-20T17:25:45.998Z</time></trkpt><trkpt lat="37.92250421674855" lon="-2.8154923768938356"><ele>1628.0</ele><time>2026-04-20T17:25:47Z</time></trkpt><trkpt lat="37.92246393928815" lon="-2.8156239537470777"><ele>1626.75</ele><time>2026-04-20T17:25:48Z</time></trkpt><trkpt lat="37.92243393682905" lon="-2.8157635932866985"><ele>1625.5</ele><time>2026-04-20T17:25:49Z</time></trkpt><trkpt lat="37.922395520654945" lon="-2.8159045971496917"><ele>1624.25</ele><time>2026-04-20T17:25:50Z</time></trkpt><trkpt lat="37.92235949849713" lon="-2.8160372767067785"><ele>1623.0</ele><time>2026-04-20T17:25:51Z</time></trkpt><trkpt lat="37.92234493323312" lon="-2.8161762108661605"><ele>1623.0</ele><time>2026-04-20T17:25:52Z</time></trkpt><trkpt lat="37.922353427845586" lon="-2.8163190963490106"><ele>1623.0</ele><time>2026-04-20T17:25:53Z</time></trkpt><trkpt lat="37.922378864511984" lon="-2.81645327453557"><ele>1623.0</ele><time>2026-04-20T17:25:54Z</time></trkpt><trkpt lat="37.92242958949801" lon="-2.8165847469066567"><ele>1623.0</ele><time>2026-04-20T17:25:55Z</time></trkpt><trkpt lat="37.922491218325014" lon="-2.816724860461792"><ele>1623.75</ele><time>2026-04-20T17:25:56Z</time></trkpt><trkpt lat="37.92257344147079" lon="-2.8168530714760034"><ele>1624.5</ele><time>2026-04-20T17:25:57Z</time></trkpt><trkpt lat="37.92266825721658" lon="-2.8169641186479577"><ele>1625.25</ele><time>2026-04-20T17:25:58Z</time></trkpt><trkpt lat="37.9227404205259" lon="-2.8170858132731187"><ele>1626.0</ele><time>2026-04-20T17:25:59Z</time></trkpt><trkpt lat="37.92278526758143" lon="-2.8172368225031774"><ele>1626.0</ele><time>2026-04-20T17:26:00Z</time></trkpt><trkpt lat="37.92280690125408" lon="-2.817427949684335"><ele>1626.0</ele><time>2026-04-20T17:26:01Z</time></trkpt><trkpt lat="37.92282682941069" lon="-2.817635614461868"><ele>1626.0</ele><time>2026-04-20T17:26:02Z</time></trkpt><trkpt lat="37.92286110830132" lon="-2.8178397429757585"><ele>1626.25</ele><time>2026-04-20T17:26:03Z</time></trkpt><trkpt lat="37.9229113944416" lon="-2.818022958658583"><ele>1626.5</ele><time>2026-04-20T17:26:04Z</time></trkpt><trkpt lat="37.922979563358375" lon="-2.818197857070244"><ele>1626.75</ele><time>2026-04-20T17:26:05Z</time></trkpt><trkpt lat="37.92302707193924" lon="-2.818364817239905"><ele>1627.0</ele><time>2026-04-20T17:26:06Z</time></trkpt><trkpt lat="37.92305174144296" lon="-2.818520486737669"><ele>1628.3999999999999</ele><time>2026-04-20T17:26:07Z</time></trkpt><trkpt lat="37.92307244901352" lon="-2.8186564544603003"><ele>1629.8</ele><time>2026-04-20T17:26:08Z</time></trkpt><trkpt lat="37.9231167983911" lon="-2.8187645859254764"><ele>1631.2</ele><time>2026-04-20T17:26:09Z</time></trkpt><trkpt lat="37.92320966494962" lon="-2.8188534203336886"><ele>1632.6</ele><time>2026-04-20T17:26:10Z</time></trkpt><trkpt lat="37.923306397235564" lon="-2.8189286205058615"><ele>1634.0</ele><time>2026-04-20T17:26:11Z</time></trkpt><trkpt lat="37.92337037244598" lon="-2.8190181341163294"><ele>1634.0</ele><time>2026-04-20T17:26:12Z</time></trkpt><trkpt lat="37.92339459220009" lon="-2.8191430644961506"><ele>1634.0</ele><time>2026-04-20T17:26:13Z</time></trkpt><trkpt lat="37.92339646470907" lon="-2.8192915491690687"><ele>1634.0</ele><time>2026-04-20T17:26:14Z</time></trkpt><trkpt lat="37.923378139827435" lon="-2.8194512201707687"><ele>1634.0</ele><time>2026-04-20T17:26:15Z</time></trkpt><trkpt lat="37.92333985386771" lon="-2.819603529877742"><ele>1634.2</ele><time>2026-04-20T17:26:16Z</time></trkpt><trkpt lat="37.92328669083064" lon="-2.819752904502734"><ele>1634.4</ele><time>2026-04-20T17:26:17Z</time></trkpt><trkpt lat="37.92319920007388" lon="-2.819866227097492"><ele>1634.6</ele><time>2026-04-20T17:26:18Z</time></trkpt><trkpt lat="37.923148920632286" lon="-2.819958707405663"><ele>1634.8</ele><time>2026-04-20T17:26:19Z</time></trkpt><trkpt lat="37.923131967112134" lon="-2.820075182019377"><ele>1635.0</ele><time>2026-04-20T17:26:20Z</time></trkpt><trkpt lat="37.92315907755695" lon="-2.8202161045521246"><ele>1634.5</ele><time>2026-04-20T17:26:21Z</time></trkpt><trkpt lat="37.923232115945225" lon="-2.8203279227357494"><ele>1634.0</ele><time>2026-04-20T17:26:22Z</time></trkpt><trkpt lat="37.92332382658113" lon="-2.8204370695685195"><ele>1633.5</ele><time>2026-04-20T17:26:23Z</time></trkpt><trkpt lat="37.92338940153269" lon="-2.8205563002884655"><ele>1633.0</ele><time>2026-04-20T17:26:24Z</time></trkpt><trkpt lat="37.92340786870536" lon="-2.8207224921269622"><ele>1633.0</ele><time>2026-04-20T17:26:25Z</time></trkpt><trkpt lat="37.923417329491286" lon="-2.8209114758454934"><ele>1633.0</ele><time>2026-04-20T17:26:26Z</time></trkpt><trkpt lat="37.92347212378285" lon="-2.8211022283884506"><ele>1633.0</ele><time>2026-04-20T17:26:27Z</time></trkpt><trkpt lat="37.92351469356501" lon="-2.8212478334070146"><ele>1633.0</ele><time>2026-04-20T17:26:28Z</time></trkpt><trkpt lat="37.92352662484857" lon="-2.8213835820975155"><ele>1634.25</ele><time>2026-04-20T17:26:29Z</time></trkpt><trkpt lat="37.92350025099727" lon="-2.821521189619746"><ele>1635.5</ele><time>2026-04-20T17:26:30Z</time></trkpt><trkpt lat="37.9234444956479" lon="-2.8216708721185553"><ele>1636.75</ele><time>2026-04-20T17:26:31Z</time></trkpt><trkpt lat="37.92336845415026" lon="-2.821812891476064"><ele>1638.0</ele><time>2026-04-20T17:26:32Z</time></trkpt><trkpt lat="37.92333571087175" lon="-2.821932825568442"><ele>1638.4</ele><time>2026-04-20T17:26:33Z</time></trkpt><trkpt lat="37.9233617718788" lon="-2.8220607086479337"><ele>1638.8000000000002</ele><time>2026-04-20T17:26:34Z</time></trkpt><trkpt lat="37.92343258815056" lon="-2.822185495660287"><ele>1639.2</ele><time>2026-04-20T17:26:35Z</time></trkpt><trkpt lat="37.92353286660645" lon="-2.8222713864368725"><ele>1639.6</ele><time>2026-04-20T17:26:36Z</time></trkpt><trkpt lat="37.9235877797503" lon="-2.8223302074820444"><ele>1640.0</ele><time>2026-04-20T17:26:37Z</time></trkpt><trkpt lat="37.92361375560517" lon="-2.8224287529072507"><ele>1640.0</ele><time>2026-04-20T17:26:37.999Z</time></trkpt><trkpt lat="37.923599707259235" lon="-2.8225660821769094"><ele>1640.0</ele><time>2026-04-20T17:26:38.999Z</time></trkpt><trkpt lat="37.92356081392699" lon="-2.822718510275968"><ele>1640.0</ele><time>2026-04-20T17:26:39.999Z</time></trkpt><trkpt lat="37.92350199958955" lon="-2.8228985889663005"><ele>1640.0</ele><time>2026-04-20T17:26:40.999Z</time></trkpt><trkpt lat="37.92342451669634" lon="-2.8230955171090923"><ele>1641.25</ele><time>2026-04-20T17:26:41.999Z</time></trkpt><trkpt lat="37.923366902877284" lon="-2.823249156503359"><ele>1642.5</ele><time>2026-04-20T17:26:42.999Z</time></trkpt><trkpt lat="37.92332803975953" lon="-2.8233753210311554"><ele>1643.75</ele><time>2026-04-20T17:26:43.999Z</time></trkpt><trkpt lat="37.923270608963236" lon="-2.8234743487902922"><ele>1645.0</ele><time>2026-04-20T17:26:44.999Z</time></trkpt><trkpt lat="37.92317857839353" lon="-2.8235776646126856"><ele>1645.25</ele><time>2026-04-20T17:26:45.999Z</time></trkpt><trkpt lat="37.92306588017406" lon="-2.8236772773206225"><ele>1645.5</ele><time>2026-04-20T17:26:46.999Z</time></trkpt><trkpt lat="37.922980241090976" lon="-2.823772528337908"><ele>1645.75</ele><time>2026-04-20T17:26:47.999Z</time></trkpt><trkpt lat="37.92293119347837" lon="-2.823891389868827"><ele>1646.0</ele><time>2026-04-20T17:26:48.999Z</time></trkpt><trkpt lat="37.92290836139594" lon="-2.824029273465794"><ele>1646.0</ele><time>2026-04-20T17:26:49.999Z</time></trkpt><trkpt lat="37.922893401859845" lon="-2.8241480700229222"><ele>1646.0</ele><time>2026-04-20T17:26:50.999Z</time></trkpt><trkpt lat="37.922882849975494" lon="-2.8242698885706674"><ele>1646.0</ele><time>2026-04-20T17:26:51.999Z</time></trkpt><trkpt lat="37.922897985731986" lon="-2.824405858235663"><ele>1646.0</ele><time>2026-04-20T17:26:52.999Z</time></trkpt><trkpt lat="37.92293027793348" lon="-2.824556712051528"><ele>1646.0</ele><time>2026-04-20T17:26:53.999Z</time></trkpt><trkpt lat="37.92296399202379" lon="-2.8247235640822894"><ele>1647.0</ele><time>2026-04-20T17:26:54.999Z</time></trkpt><trkpt lat="37.922982317099795" lon="-2.8248995652208113"><ele>1648.0</ele><time>2026-04-20T17:26:55.999Z</time></trkpt><trkpt lat="37.92298490504248" lon="-2.8250673385243448"><ele>1649.0</ele><time>2026-04-20T17:26:56.999Z</time></trkpt><trkpt lat="37.92295264039641" lon="-2.8252304190597846"><ele>1650.0</ele><time>2026-04-20T17:26:57.999Z</time></trkpt><trkpt lat="37.92290261742764" lon="-2.8254034528850784"><ele>1653.5</ele><time>2026-04-20T17:26:58.999Z</time></trkpt><trkpt lat="37.922845728937375" lon="-2.8255736931459303"><ele>1657.0</ele><time>2026-04-20T17:26:59.999Z</time></trkpt><trkpt lat="37.92279792859475" lon="-2.825719311856407"><ele>1660.5</ele><time>2026-04-20T17:27:00.999Z</time></trkpt><trkpt lat="37.9227351078559" lon="-2.825872941670955"><ele>1664.0</ele><time>2026-04-20T17:27:01.999Z</time></trkpt><trkpt lat="37.92266321617697" lon="-2.826012580252412"><ele>1665.5</ele><time>2026-04-20T17:27:02.999Z</time></trkpt><trkpt lat="37.92258284405078" lon="-2.8261375794887607"><ele>1667.0</ele><time>2026-04-20T17:27:03.999Z</time></trkpt><trkpt lat="37.92247605217624" lon="-2.826260757383782"><ele>1668.5</ele><time>2026-04-20T17:27:04.999Z</time></trkpt><trkpt lat="37.92235141675314" lon="-2.826375127261264"><ele>1670.0</ele><time>2026-04-20T17:27:05.999Z</time></trkpt><trkpt lat="37.92222664811748" lon="-2.826513944371211"><ele>1670.0</ele><time>2026-04-20T17:27:06.999Z</time></trkpt><trkpt lat="37.92212166339317" lon="-2.826664528161403"><ele>1670.0</ele><time>2026-04-20T17:27:07.999Z</time></trkpt><trkpt lat="37.92201964680875" lon="-2.826804190279494"><ele>1670.0</ele><time>2026-04-20T17:27:08.999Z</time></trkpt><trkpt lat="37.921905630893" lon="-2.8269232490146217"><ele>1666.6666666666665</ele><time>2026-04-20T17:27:09.999Z</time></trkpt><trkpt lat="37.921784992380346" lon="-2.8270382302178754"><ele>1663.3333333333335</ele><time>2026-04-20T17:27:10.999Z</time></trkpt><trkpt lat="37.92164347160158" lon="-2.8271498038581537"><ele>1660.0</ele><time>2026-04-20T17:27:11.999Z</time></trkpt><trkpt lat="37.92150060504297" lon="-2.8272212550215863"><ele>1660.0</ele><time>2026-04-20T17:27:12.999Z</time></trkpt><trkpt lat="37.921378633257774" lon="-2.82728093079432"><ele>1660.0</ele><time>2026-04-20T17:27:13.999Z</time></trkpt><trkpt lat="37.92126870296332" lon="-2.8273325926899626"><ele>1660.0</ele><time>2026-04-20T17:27:14.999Z</time></trkpt><trkpt lat="37.92116109325792" lon="-2.827373572962081"><ele>1660.0</ele><time>2026-04-20T17:27:15.999Z</time></trkpt><trkpt lat="37.92103268217532" lon="-2.827378219118191"><ele>1660.0</ele><time>2026-04-20T17:27:16.999Z</time></trkpt><trkpt lat="37.92092062429882" lon="-2.827335782696031"><ele>1660.0</ele><time>2026-04-20T17:27:17.999Z</time></trkpt><trkpt lat="37.92079003564961" lon="-2.8272979515259897"><ele>1660.0</ele><time>2026-04-20T17:27:18.999Z</time></trkpt><trkpt lat="37.92065990407922" lon="-2.8273138109176563"><ele>1660.0</ele><time>2026-04-20T17:27:19.999Z</time></trkpt><trkpt lat="37.92053034683022" lon="-2.827363538237558"><ele>1656.25</ele><time>2026-04-20T17:27:20.999Z</time></trkpt><trkpt lat="37.920407877324884" lon="-2.82739537666311"><ele>1652.5</ele><time>2026-04-20T17:27:21.999Z</time></trkpt><trkpt lat="37.9202937253838" lon="-2.827396805664298"><ele>1648.75</ele><time>2026-04-20T17:27:22.999Z</time></trkpt><trkpt lat="37.92019356075069" lon="-2.8273627887250568"><ele>1645.0</ele><time>2026-04-20T17:27:23.999Z</time></trkpt><trkpt lat="37.92008551605092" lon="-2.827308940904469"><ele>1642.8</ele><time>2026-04-20T17:27:24.999Z</time></trkpt><trkpt lat="37.919994880488225" lon="-2.8272264355939782"><ele>1640.6</ele><time>2026-04-20T17:27:25.999Z</time></trkpt><trkpt lat="37.91990504597043" lon="-2.8271179831482556"><ele>1638.4</ele><time>2026-04-20T17:27:26.999Z</time></trkpt><trkpt lat="37.91983852285947" lon="-2.827005986884425"><ele>1636.2</ele><time>2026-04-20T17:27:27.999Z</time></trkpt><trkpt lat="37.9197802897976" lon="-2.8269037374653796"><ele>1634.0</ele><time>2026-04-20T17:27:28.999Z</time></trkpt><trkpt lat="37.91973206318803" lon="-2.8268232806452263"><ele>1634.0</ele><time>2026-04-20T17:27:29.999Z</time></trkpt><trkpt lat="37.91961588639167" lon="-2.8268167410712315"><ele>1634.0</ele><time>2026-04-20T17:27:31.999Z</time></trkpt><trkpt lat="37.91955451480416" lon="-2.826879428682874"><ele>1634.0</ele><time>2026-04-20T17:27:32.999Z</time></trkpt><trkpt lat="37.91950534786243" lon="-2.826990519715853"><ele>1634.0</ele><time>2026-04-20T17:27:33.999Z</time></trkpt><trkpt lat="37.919448496376106" lon="-2.8271613262325523"><ele>1634.0</ele><time>2026-04-20T17:27:34.999Z</time></trkpt><trkpt lat="37.91938773372567" lon="-2.8273316188639175"><ele>1634.0</ele><time>2026-04-20T17:27:35.999Z</time></trkpt><trkpt lat="37.919338738855444" lon="-2.8274674790767333"><ele>1634.0</ele><time>2026-04-20T17:27:36.999Z</time></trkpt><trkpt lat="37.919299113906405" lon="-2.827582452930217"><ele>1634.0</ele><time>2026-04-20T17:27:37.999Z</time></trkpt><trkpt lat="37.91925678853115" lon="-2.8276699092030517"><ele>1634.0</ele><time>2026-04-20T17:27:38.999Z</time></trkpt><trkpt lat="37.919191436644276" lon="-2.827741077999327"><ele>1634.0</ele><time>2026-04-20T17:27:39.999Z</time></trkpt><trkpt lat="37.91908768551297" lon="-2.827786261004901"><ele>1640.3333333333333</ele><time>2026-04-20T17:27:40.999Z</time></trkpt><trkpt lat="37.91895959799541" lon="-2.8278031161566717"><ele>1646.6666666666665</ele><time>2026-04-20T17:27:41.999Z</time></trkpt><trkpt lat="37.91880922266528" lon="-2.8278139495991486"><ele>1653.0</ele><time>2026-04-20T17:27:42.999Z</time></trkpt><trkpt lat="37.918639980783055" lon="-2.8278538317539743"><ele>1653.0</ele><time>2026-04-20T17:27:43.999Z</time></trkpt><trkpt lat="37.91848834586358" lon="-2.8279132082132428"><ele>1653.0</ele><time>2026-04-20T17:27:44.999Z</time></trkpt><trkpt lat="37.91832221671175" lon="-2.827970977226814"><ele>1653.0</ele><time>2026-04-20T17:27:45.999Z</time></trkpt><trkpt lat="37.91816291479638" lon="-2.8280323351768804"><ele>1648.0</ele><time>2026-04-20T17:27:46.999Z</time></trkpt><trkpt lat="37.91804051477791" lon="-2.828093883981031"><ele>1643.0</ele><time>2026-04-20T17:27:47.999Z</time></trkpt><trkpt lat="37.91791809177976" lon="-2.8281419641814987"><ele>1638.0</ele><time>2026-04-20T17:27:48.999Z</time></trkpt><trkpt lat="37.91781143112844" lon="-2.828196382262491"><ele>1633.0</ele><time>2026-04-20T17:27:49.999Z</time></trkpt><trkpt lat="37.91772232711423" lon="-2.828250604905287"><ele>1633.0</ele><time>2026-04-20T17:27:50.999Z</time></trkpt><trkpt lat="37.91765386073941" lon="-2.8283411313590987"><ele>1633.0</ele><time>2026-04-20T17:27:51.999Z</time></trkpt><trkpt lat="37.91758229500792" lon="-2.828453873894877"><ele>1633.0</ele><time>2026-04-20T17:27:53Z</time></trkpt><trkpt lat="37.917486628963616" lon="-2.8285384846661787"><ele>1633.0</ele><time>2026-04-20T17:27:54Z</time></trkpt><trkpt lat="37.917359490205115" lon="-2.8285761792072877"><ele>1637.75</ele><time>2026-04-20T17:27:55Z</time></trkpt><trkpt lat="37.91720568581887" lon="-2.828595407140674"><ele>1642.5</ele><time>2026-04-20T17:27:56Z</time></trkpt><trkpt lat="37.91705712578174" lon="-2.8286422837813263"><ele>1647.25</ele><time>2026-04-20T17:27:57Z</time></trkpt><trkpt lat="37.916961249551775" lon="-2.8287207397135203"><ele>1652.0</ele><time>2026-04-20T17:27:58Z</time></trkpt><trkpt lat="37.916852389726486" lon="-2.8287818444322403"><ele>1652.0</ele><time>2026-04-20T17:27:59Z</time></trkpt><trkpt lat="37.916766886592654" lon="-2.8288450784926873"><ele>1652.0</ele><time>2026-04-20T17:28:00Z</time></trkpt><trkpt lat="37.91669701501625" lon="-2.828971038297917"><ele>1652.0</ele><time>2026-04-20T17:28:01Z</time></trkpt><trkpt lat="37.91662953484835" lon="-2.829133489709667"><ele>1652.0</ele><time>2026-04-20T17:28:02Z</time></trkpt><trkpt lat="37.916550262629414" lon="-2.829271703275724"><ele>1649.6</ele><time>2026-04-20T17:28:03Z</time></trkpt><trkpt lat="37.91645150614574" lon="-2.829324602907724"><ele>1647.1999999999998</ele><time>2026-04-20T17:28:04Z</time></trkpt><trkpt lat="37.916343150902584" lon="-2.829364102714833"><ele>1644.8</ele><time>2026-04-20T17:28:05Z</time></trkpt><trkpt lat="37.91625052740868" lon="-2.8294219013287543"><ele>1642.4</ele><time>2026-04-20T17:28:06Z</time></trkpt><trkpt lat="37.91618468671563" lon="-2.829522733035247"><ele>1640.0</ele><time>2026-04-20T17:28:07Z</time></trkpt><trkpt lat="37.91614389069446" lon="-2.829599603311254"><ele>1640.0</ele><time>2026-04-20T17:28:08Z</time></trkpt><trkpt lat="37.91613158786458" lon="-2.8297337321076985"><ele>1640.0</ele><time>2026-04-20T17:28:09Z</time></trkpt><trkpt lat="37.91612010846166" lon="-2.829885467322574"><ele>1640.0</ele><time>2026-04-20T17:28:10Z</time></trkpt><trkpt lat="37.91611064247112" lon="-2.830056590540646"><ele>1640.0</ele><time>2026-04-20T17:28:11Z</time></trkpt><trkpt lat="37.916130119684205" lon="-2.8302563147762343"><ele>1640.0</ele><time>2026-04-20T17:28:12Z</time></trkpt><trkpt lat="37.91616143777165" lon="-2.8304640102128387"><ele>1640.0</ele><time>2026-04-20T17:28:13Z</time></trkpt><trkpt lat="37.916178187712184" lon="-2.8306790452557187"><ele>1640.0</ele><time>2026-04-20T17:28:14Z</time></trkpt><trkpt lat="37.916196080463706" lon="-2.830878279077706"><ele>1637.0</ele><time>2026-04-20T17:28:15Z</time></trkpt><trkpt lat="37.91621748321997" lon="-2.8310969593213895"><ele>1634.0</ele><time>2026-04-20T17:28:16Z</time></trkpt><trkpt lat="37.91622917707285" lon="-2.831271280974383"><ele>1631.0</ele><time>2026-04-20T17:28:17Z</time></trkpt><trkpt lat="37.91622155652116" lon="-2.8314319705920195"><ele>1628.0</ele><time>2026-04-20T17:28:18Z</time></trkpt><trkpt lat="37.916197621509" lon="-2.8315961137992627"><ele>1628.0</ele><time>2026-04-20T17:28:19Z</time></trkpt><trkpt lat="37.91616065413375" lon="-2.8317361634859846"><ele>1628.0</ele><time>2026-04-20T17:28:20Z</time></trkpt><trkpt lat="37.916148843755686" lon="-2.831869006948372"><ele>1628.0</ele><time>2026-04-20T17:28:21Z</time></trkpt><trkpt lat="37.91614002568118" lon="-2.831970249351296"><ele>1628.0</ele><time>2026-04-20T17:28:22Z</time></trkpt><trkpt lat="37.916142514881" lon="-2.832074058890191"><ele>1628.0</ele><time>2026-04-20T17:28:23Z</time></trkpt><trkpt lat="37.91619034010351" lon="-2.8321670181956473"><ele>1624.6000000000001</ele><time>2026-04-20T17:28:24Z</time></trkpt><trkpt lat="37.91627852910913" lon="-2.8322435230382514"><ele>1621.2</ele><time>2026-04-20T17:28:25Z</time></trkpt><trkpt lat="37.916387985046924" lon="-2.8322947954736635"><ele>1617.8</ele><time>2026-04-20T17:28:26Z</time></trkpt><trkpt lat="37.91648501767703" lon="-2.832338511463372"><ele>1614.4</ele><time>2026-04-20T17:28:27Z</time></trkpt><trkpt lat="37.9165380713702" lon="-2.8324231296033093"><ele>1611.0</ele><time>2026-04-20T17:28:28Z</time></trkpt><trkpt lat="37.916561806028" lon="-2.8325672366336594"><ele>1605.0</ele><time>2026-04-20T17:28:29Z</time></trkpt><trkpt lat="37.916569613626415" lon="-2.8327453446107063"><ele>1599.0</ele><time>2026-04-20T17:28:30Z</time></trkpt><trkpt lat="37.91657023405391" lon="-2.832908303283843"><ele>1593.0</ele><time>2026-04-20T17:28:31Z</time></trkpt><trkpt lat="37.91659704183522" lon="-2.833059760288313"><ele>1587.0</ele><time>2026-04-20T17:28:32Z</time></trkpt><trkpt lat="37.91663239876587" lon="-2.8331935189948214"><ele>1587.0</ele><time>2026-04-20T17:28:33Z</time></trkpt><trkpt lat="37.916672422459435" lon="-2.8332921887319684"><ele>1587.0</ele><time>2026-04-20T17:28:34Z</time></trkpt><trkpt lat="37.91672788874853" lon="-2.8333522698846694"><ele>1587.0</ele><time>2026-04-20T17:28:35Z</time></trkpt><trkpt lat="37.91678442209212" lon="-2.8333874289205125"><ele>1587.0</ele><time>2026-04-20T17:28:36Z</time></trkpt><trkpt lat="37.91687206210888" lon="-2.8333701627474634"><ele>1587.0</ele><time>2026-04-20T17:28:37Z</time></trkpt><trkpt lat="37.91698645784044" lon="-2.8333189836060866"><ele>1587.0</ele><time>2026-04-20T17:28:38Z</time></trkpt><trkpt lat="37.917130901616" lon="-2.8332618303271397"><ele>1586.0</ele><time>2026-04-20T17:28:39Z</time></trkpt><trkpt lat="37.91728953379864" lon="-2.83321111992939"><ele>1585.0</ele><time>2026-04-20T17:28:40Z</time></trkpt><trkpt lat="37.917447532986756" lon="-2.8331873239059435"><ele>1584.0</ele><time>2026-04-20T17:28:41Z</time></trkpt><trkpt lat="37.917591262287395" lon="-2.833171492808741"><ele>1586.25</ele><time>2026-04-20T17:28:42Z</time></trkpt><trkpt lat="37.917725473755006" lon="-2.833145388482577"><ele>1588.5</ele><time>2026-04-20T17:28:43Z</time></trkpt><trkpt lat="37.91784525148241" lon="-2.833095609714557"><ele>1590.75</ele><time>2026-04-20T17:28:44Z</time></trkpt><trkpt lat="37.91795837626856" lon="-2.8330140831178827"><ele>1593.0</ele><time>2026-04-20T17:28:44.999Z</time></trkpt><trkpt lat="37.91807087525276" lon="-2.832993870733242"><ele>1593.0</ele><time>2026-04-20T17:28:45.999Z</time></trkpt><trkpt lat="37.91820253285507" lon="-2.8330090139868638"><ele>1593.0</ele><time>2026-04-20T17:28:46.999Z</time></trkpt><trkpt lat="37.91831095557429" lon="-2.833014401617335"><ele>1593.0</ele><time>2026-04-20T17:28:47.999Z</time></trkpt><trkpt lat="37.91838619500242" lon="-2.8329997157951285"><ele>1593.0</ele><time>2026-04-20T17:28:48.999Z</time></trkpt><trkpt lat="37.918453279167984" lon="-2.833011898661809"><ele>1593.0</ele><time>2026-04-20T17:28:49.999Z</time></trkpt><trkpt lat="37.91851362977928" lon="-2.8330661348234476"><ele>1597.75</ele><time>2026-04-20T17:28:50.999Z</time></trkpt><trkpt lat="37.9185631986568" lon="-2.833172510338473"><ele>1602.5</ele><time>2026-04-20T17:28:51.999Z</time></trkpt><trkpt lat="37.918589516901896" lon="-2.833317876217913"><ele>1607.25</ele><time>2026-04-20T17:28:52.999Z</time></trkpt><trkpt lat="37.918615246670754" lon="-2.8335097839295527"><ele>1612.0</ele><time>2026-04-20T17:28:53.999Z</time></trkpt><trkpt lat="37.91866332953551" lon="-2.833702125313147"><ele>1612.0</ele><time>2026-04-20T17:28:54.999Z</time></trkpt><trkpt lat="37.918738676511374" lon="-2.8338794126354654"><ele>1612.0</ele><time>2026-04-20T17:28:55.999Z</time></trkpt><trkpt lat="37.91878765448678" lon="-2.8340454647306736"><ele>1612.0</ele><time>2026-04-20T17:28:56.999Z</time></trkpt><trkpt lat="37.918810885159004" lon="-2.8342029156065767"><ele>1612.0</ele><time>2026-04-20T17:28:57.999Z</time></trkpt><trkpt lat="37.918829953328434" lon="-2.834329728016172"><ele>1605.6</ele><time>2026-04-20T17:28:58.999Z</time></trkpt><trkpt lat="37.91885431799543" lon="-2.8344400563395777"><ele>1599.1999999999998</ele><time>2026-04-20T17:28:59.999Z</time></trkpt><trkpt lat="37.91889932416612" lon="-2.8345525732790966"><ele>1592.8</ele><time>2026-04-20T17:29:00.999Z</time></trkpt><trkpt lat="37.91898154907673" lon="-2.834661126132416"><ele>1586.4</ele><time>2026-04-20T17:29:01.999Z</time></trkpt><trkpt lat="37.9190941460755" lon="-2.8347577917392193"><ele>1580.0</ele><time>2026-04-20T17:29:02.999Z</time></trkpt><trkpt lat="37.919202244930744" lon="-2.8348594353051175"><ele>1583.75</ele><time>2026-04-20T17:29:03.999Z</time></trkpt><trkpt lat="37.919331725623294" lon="-2.8349457743154027"><ele>1587.5</ele><time>2026-04-20T17:29:04.999Z</time></trkpt><trkpt lat="37.91944577024424" lon="-2.834992216571412"><ele>1591.25</ele><time>2026-04-20T17:29:05.999Z</time></trkpt><trkpt lat="37.91955041922143" lon="-2.8350261023491194"><ele>1595.0</ele><time>2026-04-20T17:29:06.999Z</time></trkpt><trkpt lat="37.9196512252299" lon="-2.8350377817107777"><ele>1594.9999999999998</ele><time>2026-04-20T17:29:07.999Z</time></trkpt><trkpt lat="37.91973327556029" lon="-2.8350324937412994"><ele>1595.0</ele><time>2026-04-20T17:29:08.999Z</time></trkpt><trkpt lat="37.91980647546794" lon="-2.835031772363255"><ele>1595.0</ele><time>2026-04-20T17:29:09.999Z</time></trkpt><trkpt lat="37.91987751610712" lon="-2.8350610600193566"><ele>1595.0</ele><time>2026-04-20T17:29:10.999Z</time></trkpt><trkpt lat="37.91994832369155" lon="-2.835122127305974"><ele>1594.9999999999998</ele><time>2026-04-20T17:29:11.999Z</time></trkpt><trkpt lat="37.920016626816555" lon="-2.8352201131036225"><ele>1595.0</ele><time>2026-04-20T17:29:12.999Z</time></trkpt><trkpt lat="37.92008360955253" lon="-2.8353254476199488"><ele>1586.2</ele><time>2026-04-20T17:29:13.999Z</time></trkpt><trkpt lat="37.92014679355582" lon="-2.8354136654957904"><ele>1577.4</ele><time>2026-04-20T17:29:14.999Z</time></trkpt><trkpt lat="37.92022996752491" lon="-2.8354818072430805"><ele>1568.6</ele><time>2026-04-20T17:29:15.999Z</time></trkpt><trkpt lat="37.92034256637805" lon="-2.8355061412421896"><ele>1559.8</ele><time>2026-04-20T17:29:16.999Z</time></trkpt><trkpt lat="37.92045654612189" lon="-2.8355022555576688"><ele>1551.0</ele><time>2026-04-20T17:29:17.999Z</time></trkpt><trkpt lat="37.92054346727653" lon="-2.8355262771275016"><ele>1551.0</ele><time>2026-04-20T17:29:18.999Z</time></trkpt><trkpt lat="37.9206281234818" lon="-2.835502051630842"><ele>1551.0</ele><time>2026-04-20T17:29:19.999Z</time></trkpt><trkpt lat="37.92073157331214" lon="-2.8354411306538223"><ele>1551.0</ele><time>2026-04-20T17:29:20.999Z</time></trkpt><trkpt lat="37.92084055440166" lon="-2.835350224425919"><ele>1551.0</ele><time>2026-04-20T17:29:21.999Z</time></trkpt><trkpt lat="37.920955523882505" lon="-2.835266846212502"><ele>1554.6</ele><time>2026-04-20T17:29:22.999Z</time></trkpt><trkpt lat="37.921074880711686" lon="-2.8352269138577655"><ele>1558.1999999999998</ele><time>2026-04-20T17:29:23.999Z</time></trkpt><trkpt lat="37.92117221977328" lon="-2.8352083248491495"><ele>1561.8000000000002</ele><time>2026-04-20T17:29:24.999Z</time></trkpt><trkpt lat="37.92126418737761" lon="-2.8351863234548618"><ele>1565.4</ele><time>2026-04-20T17:29:25.999Z</time></trkpt><trkpt lat="37.92136269392983" lon="-2.8351938434999995"><ele>1569.0</ele><time>2026-04-20T17:29:26.999Z</time></trkpt><trkpt lat="37.921468256505705" lon="-2.8352165634868216"><ele>1569.0</ele><time>2026-04-20T17:29:27.999Z</time></trkpt><trkpt lat="37.921572293217835" lon="-2.8352671316631377"><ele>1569.0</ele><time>2026-04-20T17:29:28.999Z</time></trkpt><trkpt lat="37.92163648140371" lon="-2.8353135285612208"><ele>1569.0</ele><time>2026-04-20T17:29:29.999Z</time></trkpt><trkpt lat="37.92168918483182" lon="-2.8353828404180486"><ele>1569.0</ele><time>2026-04-20T17:29:30.999Z</time></trkpt><trkpt lat="37.92172910635306" lon="-2.83548722224191"><ele>1569.0</ele><time>2026-04-20T17:29:31.999Z</time></trkpt><trkpt lat="37.92175469002942" lon="-2.835618024423767"><ele>1574.25</ele><time>2026-04-20T17:29:32.999Z</time></trkpt><trkpt lat="37.92176858679578" lon="-2.835788161315544"><ele>1579.5</ele><time>2026-04-20T17:29:33.999Z</time></trkpt><trkpt lat="37.92180003374985" lon="-2.8359602093731167"><ele>1584.75</ele><time>2026-04-20T17:29:34.999Z</time></trkpt><trkpt lat="37.92187017107117" lon="-2.8361208977200913"><ele>1590.0</ele><time>2026-04-20T17:29:35.999Z</time></trkpt><trkpt lat="37.921927744037745" lon="-2.8362722413495947"><ele>1590.0</ele><time>2026-04-20T17:29:36.999Z</time></trkpt><trkpt lat="37.92196956911359" lon="-2.8363913863734136"><ele>1590.0</ele><time>2026-04-20T17:29:37.999Z</time></trkpt><trkpt lat="37.92200506670003" lon="-2.8364759917926734"><ele>1590.0</ele><time>2026-04-20T17:29:38.999Z</time></trkpt><trkpt lat="37.92201573355603" lon="-2.836572369942399"><ele>1590.0</ele><time>2026-04-20T17:29:39.999Z</time></trkpt><trkpt lat="37.92197478320619" lon="-2.8366792880311515"><ele>1590.0</ele><time>2026-04-20T17:29:40.999Z</time></trkpt><trkpt lat="37.92191706388229" lon="-2.836788163625583"><ele>1587.5</ele><time>2026-04-20T17:29:41.999Z</time></trkpt><trkpt lat="37.921850088820946" lon="-2.8369027838366145"><ele>1585.0</ele><time>2026-04-20T17:29:42.999Z</time></trkpt><trkpt lat="37.9217944086822" lon="-2.8370071522235043"><ele>1582.5</ele><time>2026-04-20T17:29:43.999Z</time></trkpt><trkpt lat="37.921771160853" lon="-2.8370847930424703"><ele>1580.0</ele><time>2026-04-20T17:29:44.999Z</time></trkpt><trkpt lat="37.92178557803181" lon="-2.837167880834548"><ele>1577.5</ele><time>2026-04-20T17:29:45.999Z</time></trkpt><trkpt lat="37.92183094562102" lon="-2.8372682949906167"><ele>1575.0</ele><time>2026-04-20T17:29:46.999Z</time></trkpt><trkpt lat="37.92192097208248" lon="-2.837340673183062"><ele>1575.0</ele><time>2026-04-20T17:29:47.999Z</time></trkpt><trkpt lat="37.922030742902" lon="-2.837390333007816"><ele>1575.0</ele><time>2026-04-20T17:29:48.999Z</time></trkpt><trkpt lat="37.92213495690767" lon="-2.837502356783854"><ele>1575.0</ele><time>2026-04-20T17:29:49.999Z</time></trkpt><trkpt lat="37.92218163781666" lon="-2.837645154364416"><ele>1575.0</ele><time>2026-04-20T17:29:50.999Z</time></trkpt><trkpt lat="37.922215333347204" lon="-2.8377394628913195"><ele>1570.0</ele><time>2026-04-20T17:29:51.999Z</time></trkpt><trkpt lat="37.92226753492558" lon="-2.837811672887058"><ele>1565.0</ele><time>2026-04-20T17:29:52.999Z</time></trkpt><trkpt lat="37.922348063209164" lon="-2.8378520805316994"><ele>1560.0</ele><time>2026-04-20T17:29:53.999Z</time></trkpt><trkpt lat="37.92245500273727" lon="-2.8378494948269566"><ele>1555.0</ele><time>2026-04-20T17:29:54.999Z</time></trkpt><trkpt lat="37.92261994294059" lon="-2.8378465911524766"><ele>1550.0</ele><time>2026-04-20T17:29:55.999Z</time></trkpt><trkpt lat="37.92273500913088" lon="-2.8377717035263323"><ele>1550.0</ele><time>2026-04-20T17:29:56.999Z</time></trkpt><trkpt lat="37.92284563148281" lon="-2.8376675631994517"><ele>1550.0</ele><time>2026-04-20T17:29:57.999Z</time></trkpt><trkpt lat="37.92294029116817" lon="-2.8376418621864783"><ele>1550.0</ele><time>2026-04-20T17:29:59Z</time></trkpt><trkpt lat="37.92303096034129" lon="-2.8375741980863105"><ele>1550.0</ele><time>2026-04-20T17:30:00Z</time></trkpt><trkpt lat="37.92310340421891" lon="-2.8374902948548235"><ele>1550.0</ele><time>2026-04-20T17:30:01Z</time></trkpt><trkpt lat="37.923238073408534" lon="-2.8374115884540605"><ele>1554.25</ele><time>2026-04-20T17:30:03Z</time></trkpt><trkpt lat="37.923325614849155" lon="-2.8374401634782793"><ele>1558.5</ele><time>2026-04-20T17:30:04Z</time></trkpt><trkpt lat="37.92342400929409" lon="-2.8375011538272354"><ele>1562.75</ele><time>2026-04-20T17:30:05Z</time></trkpt><trkpt lat="37.92351327840296" lon="-2.837601580990977"><ele>1567.0</ele><time>2026-04-20T17:30:06Z</time></trkpt><trkpt lat="37.92361426209484" lon="-2.837720658989743"><ele>1567.0</ele><time>2026-04-20T17:30:07Z</time></trkpt><trkpt lat="37.92371244362598" lon="-2.837813533164817"><ele>1567.0</ele><time>2026-04-20T17:30:08Z</time></trkpt><trkpt lat="37.9238003811641" lon="-2.837893493354989"><ele>1567.0</ele><time>2026-04-20T17:30:09Z</time></trkpt><trkpt lat="37.92390572125069" lon="-2.8379563132081986"><ele>1567.0</ele><time>2026-04-20T17:30:10Z</time></trkpt><trkpt lat="37.92401504883731" lon="-2.8379922446722943"><ele>1567.0</ele><time>2026-04-20T17:30:11Z</time></trkpt><trkpt lat="37.92410830343446" lon="-2.838037953339266"><ele>1567.0</ele><time>2026-04-20T17:30:12Z</time></trkpt><trkpt lat="37.924203754706234" lon="-2.8381022261026883"><ele>1567.0</ele><time>2026-04-20T17:30:13Z</time></trkpt><trkpt lat="37.924284888069955" lon="-2.838214459377933"><ele>1567.0</ele><time>2026-04-20T17:30:14Z</time></trkpt><trkpt lat="37.92435569461712" lon="-2.838310514272102"><ele>1567.0</ele><time>2026-04-20T17:30:15Z</time></trkpt><trkpt lat="37.924394952605375" lon="-2.8383973853812714"><ele>1570.8</ele><time>2026-04-20T17:30:16Z</time></trkpt><trkpt lat="37.92442498198107" lon="-2.8385023953760267"><ele>1574.6</ele><time>2026-04-20T17:30:17Z</time></trkpt><trkpt lat="37.92442674447289" lon="-2.8386290626706066"><ele>1578.3999999999999</ele><time>2026-04-20T17:30:18Z</time></trkpt><trkpt lat="37.92440987054445" lon="-2.8387846335226117"><ele>1582.1999999999998</ele><time>2026-04-20T17:30:19Z</time></trkpt><trkpt lat="37.924375008336575" lon="-2.8389526404124314"><ele>1586.0</ele><time>2026-04-20T17:30:20Z</time></trkpt><trkpt lat="37.92436357090804" lon="-2.8391277361286105"><ele>1586.0</ele><time>2026-04-20T17:30:21Z</time></trkpt><trkpt lat="37.92436185562716" lon="-2.8392880107518246"><ele>1586.0</ele><time>2026-04-20T17:30:22Z</time></trkpt><trkpt lat="37.92437731659653" lon="-2.839430192091813"><ele>1586.0</ele><time>2026-04-20T17:30:23Z</time></trkpt><trkpt lat="37.92441907273283" lon="-2.8395810298157156"><ele>1586.0</ele><time>2026-04-20T17:30:24Z</time></trkpt><trkpt lat="37.924484007452385" lon="-2.8397407091061355"><ele>1581.6</ele><time>2026-04-20T17:30:25Z</time></trkpt><trkpt lat="37.924545180867476" lon="-2.8398699983551974"><ele>1577.1999999999998</ele><time>2026-04-20T17:30:26Z</time></trkpt><trkpt lat="37.92461337612798" lon="-2.8399713268950855"><ele>1572.8000000000002</ele><time>2026-04-20T17:30:27Z</time></trkpt><trkpt lat="37.9247002320077" lon="-2.840039625929204"><ele>1568.4</ele><time>2026-04-20T17:30:28Z</time></trkpt><trkpt lat="37.92479502048773" lon="-2.840083353650095"><ele>1564.0</ele><time>2026-04-20T17:30:29Z</time></trkpt><trkpt lat="37.92489824714519" lon="-2.8400930008200644"><ele>1564.0000000000002</ele><time>2026-04-20T17:30:30Z</time></trkpt><trkpt lat="37.924981670025566" lon="-2.8401124325363094"><ele>1564.0</ele><time>2026-04-20T17:30:31Z</time></trkpt><trkpt lat="37.925045844808245" lon="-2.840150715521683"><ele>1564.0</ele><time>2026-04-20T17:30:32Z</time></trkpt><trkpt lat="37.92510821747787" lon="-2.8402473354780042"><ele>1564.0</ele><time>2026-04-20T17:30:34Z</time></trkpt><trkpt lat="37.925101665115115" lon="-2.8403268200929324"><ele>1564.0000000000002</ele><time>2026-04-20T17:30:35Z</time></trkpt><trkpt lat="37.92508235564114" lon="-2.840415929605629"><ele>1564.0</ele><time>2026-04-20T17:30:36Z</time></trkpt><trkpt lat="37.92508488798943" lon="-2.8405262647906375"><ele>1564.8333333333335</ele><time>2026-04-20T17:30:37Z</time></trkpt><trkpt lat="37.92508657340115" lon="-2.840619322981214"><ele>1565.6666666666667</ele><time>2026-04-20T17:30:38Z</time></trkpt><trkpt lat="37.92509185435581" lon="-2.8407252954586615"><ele>1566.5</ele><time>2026-04-20T17:30:40Z</time></trkpt><trkpt lat="37.925121250026265" lon="-2.8408263846730843"><ele>1567.3333333333335</ele><time>2026-04-20T17:30:42Z</time></trkpt><trkpt lat="37.925054204653634" lon="-2.840887837260538"><ele>1568.1666666666667</ele><time>2026-04-20T17:34:07.999Z</time></trkpt><trkpt lat="37.92498481100018" lon="-2.8409476318432336"><ele>1569.0</ele><time>2026-04-20T17:34:09.999Z</time></trkpt><trkpt lat="37.92487611187885" lon="-2.841029974981151"><ele>1569.0</ele><time>2026-04-20T17:34:12.001Z</time></trkpt><trkpt lat="37.924813306721745" lon="-2.841080150441227"><ele>1569.0</ele><time>2026-04-20T17:34:13.001Z</time></trkpt><trkpt lat="37.92473943212153" lon="-2.8411221621635283"><ele>1569.0</ele><time>2026-04-20T17:34:14.001Z</time></trkpt><trkpt lat="37.92465329888656" lon="-2.8411206922595005"><ele>1569.0</ele><time>2026-04-20T17:34:15.001Z</time></trkpt><trkpt lat="37.92456415032807" lon="-2.841120693239507"><ele>1569.0</ele><time>2026-04-20T17:34:16.001Z</time></trkpt><trkpt lat="37.92446623352692" lon="-2.8411422002344864"><ele>1569.0</ele><time>2026-04-20T17:34:17.001Z</time></trkpt><trkpt lat="37.92436087263287" lon="-2.8411935068334815"><ele>1569.0</ele><time>2026-04-20T17:34:18.001Z</time></trkpt><trkpt lat="37.92424245007215" lon="-2.841261924963536"><ele>1569.0</ele><time>2026-04-20T17:34:19.001Z</time></trkpt><trkpt lat="37.92412251413937" lon="-2.841331738340749"><ele>1569.0</ele><time>2026-04-20T17:34:20.001Z</time></trkpt><trkpt lat="37.92400749071422" lon="-2.841388916729135"><ele>1569.0</ele><time>2026-04-20T17:34:21.001Z</time></trkpt><trkpt lat="37.923900190767014" lon="-2.8414520056301473"><ele>1568.8000000000002</ele><time>2026-04-20T17:34:22.001Z</time></trkpt><trkpt lat="37.923822415721595" lon="-2.841512236476715"><ele>1568.6000000000001</ele><time>2026-04-20T17:34:23.001Z</time></trkpt><trkpt lat="37.923739275257574" lon="-2.8415751624169236"><ele>1568.4</ele><time>2026-04-20T17:34:24Z</time></trkpt><trkpt lat="37.92367128830898" lon="-2.8416609653326255"><ele>1568.2</ele><time>2026-04-20T17:34:25Z</time></trkpt><trkpt lat="37.92361971878733" lon="-2.841762063603898"><ele>1568.0</ele><time>2026-04-20T17:34:26Z</time></trkpt><trkpt lat="37.923577763342166" lon="-2.841866877580528"><ele>1568.0</ele><time>2026-04-20T17:34:27Z</time></trkpt><trkpt lat="37.923562351131665" lon="-2.841993842362147"><ele>1568.0</ele><time>2026-04-20T17:34:28Z</time></trkpt><trkpt lat="37.923549224395494" lon="-2.8421248074211043"><ele>1568.0</ele><time>2026-04-20T17:34:29Z</time></trkpt><trkpt lat="37.92351022713831" lon="-2.8422348842851575"><ele>1568.0</ele><time>2026-04-20T17:34:30Z</time></trkpt><trkpt lat="37.923438328867626" lon="-2.842337300526651"><ele>1568.0</ele><time>2026-04-20T17:34:31Z</time></trkpt><trkpt lat="37.92335475380169" lon="-2.84243501260729"><ele>1568.0</ele><time>2026-04-20T17:34:32Z</time></trkpt><trkpt lat="37.92326690533605" lon="-2.842518935044241"><ele>1568.0</ele><time>2026-04-20T17:34:33Z</time></trkpt><trkpt lat="37.92316893638753" lon="-2.8425928305640835"><ele>1568.0</ele><time>2026-04-20T17:34:34Z</time></trkpt><trkpt lat="37.92303868779342" lon="-2.8426464873512263"><ele>1568.0</ele><time>2026-04-20T17:34:35Z</time></trkpt><trkpt lat="37.922881912214834" lon="-2.8427105383753966"><ele>1568.0</ele><time>2026-04-20T17:34:36Z</time></trkpt><trkpt lat="37.922781724131376" lon="-2.842778486761023"><ele>1568.0</ele><time>2026-04-20T17:34:37Z</time></trkpt><trkpt lat="37.92267486420735" lon="-2.842862030326087"><ele>1568.0</ele><time>2026-04-20T17:34:38Z</time></trkpt><trkpt lat="37.92257756144395" lon="-2.8429364361523004"><ele>1568.0</ele><time>2026-04-20T17:34:39Z</time></trkpt><trkpt lat="37.922459772654406" lon="-2.842985266792708"><ele>1565.4</ele><time>2026-04-20T17:34:40Z</time></trkpt><trkpt lat="37.92234334731626" lon="-2.843001537011831"><ele>1562.8000000000002</ele><time>2026-04-20T17:34:41Z</time></trkpt><trkpt lat="37.92224630631855" lon="-2.8430098418932093"><ele>1560.2</ele><time>2026-04-20T17:34:42Z</time></trkpt><trkpt lat="37.92217190971982" lon="-2.8430418856541704"><ele>1557.6</ele><time>2026-04-20T17:34:43Z</time></trkpt><trkpt lat="37.92209744589125" lon="-2.8431214647395784"><ele>1555.0</ele><time>2026-04-20T17:34:44Z</time></trkpt><trkpt lat="37.922033475650444" lon="-2.8432028847183988"><ele>1555.0</ele><time>2026-04-20T17:34:45Z</time></trkpt><trkpt lat="37.9219639261528" lon="-2.8432335856718667"><ele>1555.0</ele><time>2026-04-20T17:34:46Z</time></trkpt><trkpt lat="37.92187410942433" lon="-2.843221282495851"><ele>1555.0</ele><time>2026-04-20T17:34:47Z</time></trkpt><trkpt lat="37.92176739383412" lon="-2.8431784068029065"><ele>1555.0</ele><time>2026-04-20T17:34:48Z</time></trkpt><trkpt lat="37.92164911398408" lon="-2.843130897153046"><ele>1555.0</ele><time>2026-04-20T17:34:49Z</time></trkpt><trkpt lat="37.92152229261156" lon="-2.843127627075731"><ele>1550.3333333333335</ele><time>2026-04-20T17:34:50Z</time></trkpt><trkpt lat="37.9213852174622" lon="-2.843156276658517"><ele>1545.6666666666665</ele><time>2026-04-20T17:34:51Z</time></trkpt><trkpt lat="37.92122408213229" lon="-2.843197132755931"><ele>1541.0</ele><time>2026-04-20T17:34:52Z</time></trkpt><trkpt lat="37.92106694190405" lon="-2.8432373911958577"><ele>1541.0</ele><time>2026-04-20T17:34:53Z</time></trkpt><trkpt lat="37.920933252945005" lon="-2.8432591900002864"><ele>1541.0</ele><time>2026-04-20T17:34:54Z</time></trkpt><trkpt lat="37.920803984938836" lon="-2.8432651189641853"><ele>1541.0</ele><time>2026-04-20T17:34:55Z</time></trkpt><trkpt lat="37.92069129843703" lon="-2.843287292142059"><ele>1541.0</ele><time>2026-04-20T17:34:56Z</time></trkpt><trkpt lat="37.92059191616261" lon="-2.843347634595495"><ele>1540.0</ele><time>2026-04-20T17:34:57Z</time></trkpt><trkpt lat="37.92049654973299" lon="-2.843371363359012"><ele>1539.0</ele><time>2026-04-20T17:34:58Z</time></trkpt><trkpt lat="37.92038053671102" lon="-2.8433391315008874"><ele>1538.0</ele><time>2026-04-20T17:34:59Z</time></trkpt><trkpt lat="37.9202809393078" lon="-2.843307965358709"><ele>1537.0</ele><time>2026-04-20T17:35:00Z</time></trkpt><trkpt lat="37.92014181790307" lon="-2.843307420273791"><ele>1535.75</ele><time>2026-04-20T17:35:01Z</time></trkpt><trkpt lat="37.920001415237216" lon="-2.8433566811958806"><ele>1534.5</ele><time>2026-04-20T17:35:02Z</time></trkpt><trkpt lat="37.91986490533877" lon="-2.8433838751922473"><ele>1533.25</ele><time>2026-04-20T17:35:03Z</time></trkpt><trkpt lat="37.919738818660605" lon="-2.8433650230258456"><ele>1532.0</ele><time>2026-04-20T17:35:04Z</time></trkpt><trkpt lat="37.91963110121087" lon="-2.84335363307636"><ele>1532.0</ele><time>2026-04-20T17:35:05Z</time></trkpt><trkpt lat="37.919487169328825" lon="-2.843376205031398"><ele>1532.0</ele><time>2026-04-20T17:35:06Z</time></trkpt><trkpt lat="37.919338859189814" lon="-2.843433147750458"><ele>1532.0</ele><time>2026-04-20T17:35:07Z</time></trkpt><trkpt lat="37.919184881729144" lon="-2.8434870763921625"><ele>1541.25</ele><time>2026-04-20T17:35:08Z</time></trkpt><trkpt lat="37.91904262349445" lon="-2.8435097768620787"><ele>1550.5</ele><time>2026-04-20T17:35:09Z</time></trkpt><trkpt lat="37.91891363036905" lon="-2.843532514126312"><ele>1559.75</ele><time>2026-04-20T17:35:10Z</time></trkpt><trkpt lat="37.91877675601134" lon="-2.8435642574656925"><ele>1569.0</ele><time>2026-04-20T17:35:11Z</time></trkpt><trkpt lat="37.91864266166452" lon="-2.843594125509123"><ele>1569.0</ele><time>2026-04-20T17:35:12Z</time></trkpt><trkpt lat="37.91850572836618" lon="-2.8436481795928246"><ele>1569.0</ele><time>2026-04-20T17:35:13Z</time></trkpt><trkpt lat="37.91838718184406" lon="-2.843708123182042"><ele>1569.0</ele><time>2026-04-20T17:35:14Z</time></trkpt><trkpt lat="37.918262589594136" lon="-2.8437626711983692"><ele>1569.0</ele><time>2026-04-20T17:35:15Z</time></trkpt><trkpt lat="37.918136359204084" lon="-2.843822426298836"><ele>1565.25</ele><time>2026-04-20T17:35:16Z</time></trkpt><trkpt lat="37.918021896998134" lon="-2.843919936328535"><ele>1561.5</ele><time>2026-04-20T17:35:17Z</time></trkpt><trkpt lat="37.91790205571849" lon="-2.8440122107446753"><ele>1557.75</ele><time>2026-04-20T17:35:17.999Z</time></trkpt><trkpt lat="37.917770227125914" lon="-2.8440791938915893"><ele>1554.0</ele><time>2026-04-20T17:35:18.999Z</time></trkpt><trkpt lat="37.91762346676565" lon="-2.8441209796887934"><ele>1549.6666666666665</ele><time>2026-04-20T17:35:19.999Z</time></trkpt><trkpt lat="37.9174679398146" lon="-2.8441163112930483"><ele>1545.3333333333333</ele><time>2026-04-20T17:35:20.999Z</time></trkpt><trkpt lat="37.91731251863811" lon="-2.8441388029695642"><ele>1541.0</ele><time>2026-04-20T17:35:21.999Z</time></trkpt><trkpt lat="37.91716129934378" lon="-2.8441653040661983"><ele>1541.0</ele><time>2026-04-20T17:35:22.999Z</time></trkpt><trkpt lat="37.91700902098923" lon="-2.8441960407140843"><ele>1541.0</ele><time>2026-04-20T17:35:23.999Z</time></trkpt><trkpt lat="37.916886900435266" lon="-2.8442175939114906"><ele>1541.0</ele><time>2026-04-20T17:35:24.999Z</time></trkpt><trkpt lat="37.91678082349085" lon="-2.8442294231975147"><ele>1541.0</ele><time>2026-04-20T17:35:25.999Z</time></trkpt><trkpt lat="37.9166829978755" lon="-2.8442398601049876"><ele>1541.1666666666665</ele><time>2026-04-20T17:35:26.999Z</time></trkpt><trkpt lat="37.91660423312893" lon="-2.8442588814430287"><ele>1541.3333333333333</ele><time>2026-04-20T17:35:27.999Z</time></trkpt><trkpt lat="37.916542321679664" lon="-2.844305904309351"><ele>1541.5</ele><time>2026-04-20T17:35:28.999Z</time></trkpt><trkpt lat="37.91650178305397" lon="-2.8443877268174615"><ele>1541.6666666666665</ele><time>2026-04-20T17:35:29.999Z</time></trkpt><trkpt lat="37.91649114696396" lon="-2.8444927815420207"><ele>1541.8333333333333</ele><time>2026-04-20T17:35:30.999Z</time></trkpt><trkpt lat="37.91650910433427" lon="-2.844638637590556"><ele>1542.0</ele><time>2026-04-20T17:35:31.999Z</time></trkpt><trkpt lat="37.916553458900715" lon="-2.8447967935577023"><ele>1542.0</ele><time>2026-04-20T17:35:32.999Z</time></trkpt><trkpt lat="37.91658173356193" lon="-2.8449262377976607"><ele>1542.0</ele><time>2026-04-20T17:35:33.999Z</time></trkpt><trkpt lat="37.91659798358403" lon="-2.8450285909554114"><ele>1542.0</ele><time>2026-04-20T17:35:34.999Z</time></trkpt><trkpt lat="37.91658488684482" lon="-2.8451213597345344"><ele>1542.0</ele><time>2026-04-20T17:35:35.999Z</time></trkpt><trkpt lat="37.916534721399515" lon="-2.8452206316059194"><ele>1542.0</ele><time>2026-04-20T17:35:36.999Z</time></trkpt><trkpt lat="37.916452008021125" lon="-2.845301305001968"><ele>1545.25</ele><time>2026-04-20T17:35:37.999Z</time></trkpt><trkpt lat="37.91635712496862" lon="-2.845354556889164"><ele>1548.5</ele><time>2026-04-20T17:35:38.999Z</time></trkpt><trkpt lat="37.91619995916013" lon="-2.845414913664422"><ele>1551.75</ele><time>2026-04-20T17:35:39.999Z</time></trkpt><trkpt lat="37.91603024216417" lon="-2.845451241150522"><ele>1555.0</ele><time>2026-04-20T17:35:40.999Z</time></trkpt><trkpt lat="37.91585560187833" lon="-2.8454451134846894"><ele>1555.0</ele><time>2026-04-20T17:35:41.999Z</time></trkpt><trkpt lat="37.915703850557705" lon="-2.8454652197408006"><ele>1555.0</ele><time>2026-04-20T17:35:42.999Z</time></trkpt><trkpt lat="37.915573324911826" lon="-2.845491008414883"><ele>1555.0</ele><time>2026-04-20T17:35:43.999Z</time></trkpt><trkpt lat="37.91546735456057" lon="-2.84543205859704"><ele>1555.0</ele><time>2026-04-20T17:35:44.999Z</time></trkpt><trkpt lat="37.91535455997588" lon="-2.8453531968246657"><ele>1555.0</ele><time>2026-04-20T17:35:45.999Z</time></trkpt><trkpt lat="37.91527295626889" lon="-2.8452808349885936"><ele>1555.0</ele><time>2026-04-20T17:35:46.999Z</time></trkpt><trkpt lat="37.91516097263323" lon="-2.845189794784209"><ele>1555.0</ele><time>2026-04-20T17:35:47.999Z</time></trkpt><trkpt lat="37.91508658443276" lon="-2.8451415265566076"><ele>1555.0</ele><time>2026-04-20T17:35:48.999Z</time></trkpt><trkpt lat="37.91503100081566" lon="-2.8451907909746343"><ele>1555.0</ele><time>2026-04-20T17:35:49.999Z</time></trkpt><trkpt lat="37.914969604329855" lon="-2.8452756106328363"><ele>1552.75</ele><time>2026-04-20T17:35:50.999Z</time></trkpt><trkpt lat="37.914853090999024" lon="-2.845338497257719"><ele>1550.5</ele><time>2026-04-20T17:35:51.999Z</time></trkpt><trkpt lat="37.91473973542486" lon="-2.845443626267168"><ele>1548.25</ele><time>2026-04-20T17:35:52.999Z</time></trkpt><trkpt lat="37.91462415807602" lon="-2.8455485861912915"><ele>1546.0</ele><time>2026-04-20T17:35:53.999Z</time></trkpt><trkpt lat="37.91452404224224" lon="-2.845668857793597"><ele>1546.0</ele><time>2026-04-20T17:35:54.999Z</time></trkpt><trkpt lat="37.9144325633174" lon="-2.8457909182458607"><ele>1546.0</ele><time>2026-04-20T17:35:55.999Z</time></trkpt><trkpt lat="37.914313697441386" lon="-2.8459109603036943"><ele>1546.0</ele><time>2026-04-20T17:35:56.999Z</time></trkpt><trkpt lat="37.91417409892168" lon="-2.8459936478460834"><ele>1546.0</ele><time>2026-04-20T17:35:57.999Z</time></trkpt><trkpt lat="37.91405460453542" lon="-2.846063320130842"><ele>1548.75</ele><time>2026-04-20T17:35:58.999Z</time></trkpt><trkpt lat="37.91393784981702" lon="-2.8461213398030476"><ele>1551.5</ele><time>2026-04-20T17:35:59.999Z</time></trkpt><trkpt lat="37.9138094489686" lon="-2.8461609540751702"><ele>1554.25</ele><time>2026-04-20T17:36:00.999Z</time></trkpt><trkpt lat="37.91365888272302" lon="-2.8461558854026143"><ele>1557.0</ele><time>2026-04-20T17:36:01.999Z</time></trkpt><trkpt lat="37.913495365706524" lon="-2.846140328211224"><ele>1556.0</ele><time>2026-04-20T17:36:02.999Z</time></trkpt><trkpt lat="37.91333933845132" lon="-2.8461369196282487"><ele>1555.0</ele><time>2026-04-20T17:36:03.999Z</time></trkpt><trkpt lat="37.91320342675373" lon="-2.8461379819928214"><ele>1554.0</ele><time>2026-04-20T17:36:04.999Z</time></trkpt><trkpt lat="37.91306514211347" lon="-2.846112902872479"><ele>1553.0</ele><time>2026-04-20T17:36:05.999Z</time></trkpt><trkpt lat="37.91293303753533" lon="-2.8460512342046425"><ele>1553.0</ele><time>2026-04-20T17:36:06.999Z</time></trkpt><trkpt lat="37.91280466765171" lon="-2.8459643338173692"><ele>1553.0</ele><time>2026-04-20T17:36:07.999Z</time></trkpt><trkpt lat="37.912693510066994" lon="-2.8459160897256064"><ele>1553.0</ele><time>2026-04-20T17:36:08.999Z</time></trkpt><trkpt lat="37.91260905531334" lon="-2.8458858180755446"><ele>1553.0</ele><time>2026-04-20T17:36:09.999Z</time></trkpt><trkpt lat="37.91252207969806" lon="-2.8458762466499987"><ele>1553.0</ele><time>2026-04-20T17:36:10.999Z</time></trkpt><trkpt lat="37.91241002987542" lon="-2.845909212284971"><ele>1545.5</ele><time>2026-04-20T17:36:11.999Z</time></trkpt><trkpt lat="37.91231791287739" lon="-2.84594324636876"><ele>1538.0</ele><time>2026-04-20T17:36:12.999Z</time></trkpt><trkpt lat="37.91221481189384" lon="-2.845915280982899"><ele>1530.5</ele><time>2026-04-20T17:36:13.999Z</time></trkpt><trkpt lat="37.912090748121045" lon="-2.845848039704972"><ele>1523.0</ele><time>2026-04-20T17:36:14.999Z</time></trkpt><trkpt lat="37.91196041690947" lon="-2.845760584353953"><ele>1523.0</ele><time>2026-04-20T17:36:15.999Z</time></trkpt><trkpt lat="37.911854307331375" lon="-2.8456722899456457"><ele>1523.0</ele><time>2026-04-20T17:36:17Z</time></trkpt><trkpt lat="37.91175108083763" lon="-2.8456466494663823"><ele>1523.0</ele><time>2026-04-20T17:36:18Z</time></trkpt><trkpt lat="37.911655303137024" lon="-2.8456450583098833"><ele>1523.0</ele><time>2026-04-20T17:36:19Z</time></trkpt><trkpt lat="37.91154948284025" lon="-2.8456839097624624"><ele>1523.0</ele><time>2026-04-20T17:36:20Z</time></trkpt><trkpt lat="37.91141679946669" lon="-2.8457755548711594"><ele>1524.0</ele><time>2026-04-20T17:36:21Z</time></trkpt><trkpt lat="37.911281512244095" lon="-2.8459114884529106"><ele>1525.0</ele><time>2026-04-20T17:36:22Z</time></trkpt><trkpt lat="37.911105511270854" lon="-2.846021690040611"><ele>1526.0</ele><time>2026-04-20T17:36:23Z</time></trkpt><trkpt lat="37.91090352172341" lon="-2.8461064798688387"><ele>1529.0</ele><time>2026-04-20T17:36:24Z</time></trkpt><trkpt lat="37.91072723859361" lon="-2.846187818050263"><ele>1532.0</ele><time>2026-04-20T17:36:25Z</time></trkpt><trkpt lat="37.91058010420069" lon="-2.8462550419612396"><ele>1535.0</ele><time>2026-04-20T17:36:26Z</time></trkpt><trkpt lat="37.91046540199601" lon="-2.846307934316998"><ele>1535.0</ele><time>2026-04-20T17:36:27Z</time></trkpt><trkpt lat="37.910359739679045" lon="-2.8463446963246453"><ele>1535.0</ele><time>2026-04-20T17:36:28Z</time></trkpt><trkpt lat="37.91027062769064" lon="-2.8463850833641375"><ele>1535.0</ele><time>2026-04-20T17:36:29Z</time></trkpt><trkpt lat="37.910181176028125" lon="-2.8464783138828658"><ele>1535.0</ele><time>2026-04-20T17:36:30Z</time></trkpt><trkpt lat="37.9100791312273" lon="-2.8466151515925313"><ele>1534.3333333333335</ele><time>2026-04-20T17:36:31Z</time></trkpt><trkpt lat="37.90994449856539" lon="-2.846722779786835"><ele>1533.6666666666667</ele><time>2026-04-20T17:36:32Z</time></trkpt><trkpt lat="37.90978435965389" lon="-2.846801010658925"><ele>1533.0</ele><time>2026-04-20T17:36:33Z</time></trkpt><trkpt lat="37.90963773691922" lon="-2.846908766315676"><ele>1533.0</ele><time>2026-04-20T17:36:34Z</time></trkpt><trkpt lat="37.90950135795745" lon="-2.847047348668575"><ele>1533.0</ele><time>2026-04-20T17:36:35Z</time></trkpt><trkpt lat="37.9093658463323" lon="-2.847167411677891"><ele>1533.0</ele><time>2026-04-20T17:36:36Z</time></trkpt><trkpt lat="37.90926017822468" lon="-2.84728105862346"><ele>1530.8000000000002</ele><time>2026-04-20T17:36:37Z</time></trkpt><trkpt lat="37.9091975587657" lon="-2.8473833380701787"><ele>1528.6</ele><time>2026-04-20T17:36:38Z</time></trkpt><trkpt lat="37.90913421384497" lon="-2.8474643320160613"><ele>1526.4</ele><time>2026-04-20T17:36:39Z</time></trkpt><trkpt lat="37.909051205973576" lon="-2.847508331170019"><ele>1524.1999999999998</ele><time>2026-04-20T17:36:40Z</time></trkpt><trkpt lat="37.908932860600174" lon="-2.8475164844388257"><ele>1522.0</ele><time>2026-04-20T17:36:41Z</time></trkpt><trkpt lat="37.90879198484189" lon="-2.8474974562238216"><ele>1522.0</ele><time>2026-04-20T17:36:42Z</time></trkpt><trkpt lat="37.90863826234131" lon="-2.8474709161913347"><ele>1522.0</ele><time>2026-04-20T17:36:43Z</time></trkpt><trkpt lat="37.90846745932168" lon="-2.8474457181636494"><ele>1522.0</ele><time>2026-04-20T17:36:44Z</time></trkpt><trkpt lat="37.90830210994246" lon="-2.8474245943256826"><ele>1520.25</ele><time>2026-04-20T17:36:45Z</time></trkpt><trkpt lat="37.908156047000396" lon="-2.84740644491918"><ele>1518.5</ele><time>2026-04-20T17:36:46Z</time></trkpt><trkpt lat="37.90802261217956" lon="-2.8473913653478196"><ele>1516.75</ele><time>2026-04-20T17:36:47Z</time></trkpt><trkpt lat="37.90789749233363" lon="-2.8473823523943835"><ele>1515.0</ele><time>2026-04-20T17:36:48Z</time></trkpt><trkpt lat="37.90778089756594" lon="-2.847356815971858"><ele>1515.0</ele><time>2026-04-20T17:36:49Z</time></trkpt><trkpt lat="37.90767464955695" lon="-2.8472903235692266"><ele>1515.0</ele><time>2026-04-20T17:36:50Z</time></trkpt><trkpt lat="37.90756998682866" lon="-2.8472296918792717"><ele>1515.0</ele><time>2026-04-20T17:36:51Z</time></trkpt><trkpt lat="37.90747803948409" lon="-2.847196430859144"><ele>1515.0</ele><time>2026-04-20T17:36:52Z</time></trkpt><trkpt lat="37.90736481487504" lon="-2.8472153841360295"><ele>1515.0</ele><time>2026-04-20T17:36:53Z</time></trkpt><trkpt lat="37.907233162096176" lon="-2.8472797973652635"><ele>1512.6666666666667</ele><time>2026-04-20T17:36:54Z</time></trkpt><trkpt lat="37.907083871444755" lon="-2.8473689123918065"><ele>1510.3333333333335</ele><time>2026-04-20T17:36:55Z</time></trkpt><trkpt lat="37.906895414016944" lon="-2.8474242440028275"><ele>1508.0</ele><time>2026-04-20T17:36:56Z</time></trkpt><trkpt lat="37.906733912836714" lon="-2.8474598292041753"><ele>1506.75</ele><time>2026-04-20T17:36:57Z</time></trkpt><trkpt lat="37.90658355354257" lon="-2.8474902186600737"><ele>1505.5</ele><time>2026-04-20T17:36:58Z</time></trkpt><trkpt lat="37.90645099625913" lon="-2.8475398159713543"><ele>1504.25</ele><time>2026-04-20T17:36:59Z</time></trkpt><trkpt lat="37.906335333318786" lon="-2.847585028251389"><ele>1503.0</ele><time>2026-04-20T17:37:00Z</time></trkpt><trkpt lat="37.9062333734058" lon="-2.8476526503597452"><ele>1502.6000000000001</ele><time>2026-04-20T17:37:01Z</time></trkpt><trkpt lat="37.906155365611376" lon="-2.8477299575264716"><ele>1502.2</ele><time>2026-04-20T17:37:02Z</time></trkpt><trkpt lat="37.90607581487047" lon="-2.847792215955363"><ele>1501.8</ele><time>2026-04-20T17:37:03Z</time></trkpt><trkpt lat="37.90598459043192" lon="-2.847824611779491"><ele>1501.4</ele><time>2026-04-20T17:37:04Z</time></trkpt><trkpt lat="37.90590418451744" lon="-2.84780634086247"><ele>1501.0</ele><time>2026-04-20T17:37:05Z</time></trkpt><trkpt lat="37.905823603236115" lon="-2.8477536066214526"><ele>1501.0</ele><time>2026-04-20T17:37:06Z</time></trkpt><trkpt lat="37.9057542302709" lon="-2.8476426894670674"><ele>1501.0</ele><time>2026-04-20T17:37:06.999Z</time></trkpt><trkpt lat="37.90567627641124" lon="-2.847497002066318"><ele>1501.0</ele><time>2026-04-20T17:37:07.999Z</time></trkpt><trkpt lat="37.90558229982466" lon="-2.847330753623438"><ele>1501.0</ele><time>2026-04-20T17:37:08.999Z</time></trkpt><trkpt lat="37.905486559631505" lon="-2.847171846680791"><ele>1501.0</ele><time>2026-04-20T17:37:09.999Z</time></trkpt><trkpt lat="37.905406739769305" lon="-2.8470571031052825"><ele>1501.0</ele><time>2026-04-20T17:37:10.999Z</time></trkpt><trkpt lat="37.9053360146142" lon="-2.846957267334728"><ele>1501.0</ele><time>2026-04-20T17:37:11.999Z</time></trkpt><trkpt lat="37.90526191232911" lon="-2.8468729683494542"><ele>1501.0</ele><time>2026-04-20T17:37:12.999Z</time></trkpt><trkpt lat="37.90517385971577" lon="-2.846827713633682"><ele>1501.0</ele><time>2026-04-20T17:37:13.999Z</time></trkpt><trkpt lat="37.90507423182664" lon="-2.846826272844174"><ele>1498.5</ele><time>2026-04-20T17:37:14.999Z</time></trkpt><trkpt lat="37.90497040836806" lon="-2.846877363014575"><ele>1496.0</ele><time>2026-04-20T17:37:15.999Z</time></trkpt><trkpt lat="37.9048778744867" lon="-2.8469718884445343"><ele>1493.5</ele><time>2026-04-20T17:37:16.999Z</time></trkpt><trkpt lat="37.90478168775903" lon="-2.8470886445634407"><ele>1491.0</ele><time>2026-04-20T17:37:17.999Z</time></trkpt><trkpt lat="37.904659191010026" lon="-2.8472004335713925"><ele>1491.0</ele><time>2026-04-20T17:37:18.999Z</time></trkpt><trkpt lat="37.9045295474125" lon="-2.8472864733822223"><ele>1491.0</ele><time>2026-04-20T17:37:19.999Z</time></trkpt><trkpt lat="37.90442301281077" lon="-2.8473684361093006"><ele>1491.0</ele><time>2026-04-20T17:37:20.999Z</time></trkpt><trkpt lat="37.904307616054524" lon="-2.847437198782929"><ele>1491.0</ele><time>2026-04-20T17:37:21.999Z</time></trkpt><trkpt lat="37.90417666228212" lon="-2.847490786351763"><ele>1491.0</ele><time>2026-04-20T17:37:22.999Z</time></trkpt><trkpt lat="37.904023624537984" lon="-2.84754141922718"><ele>1491.0</ele><time>2026-04-20T17:37:23.999Z</time></trkpt><trkpt lat="37.90387413749246" lon="-2.8475837098783536"><ele>1491.0</ele><time>2026-04-20T17:37:24.999Z</time></trkpt><trkpt lat="37.90374254192874" lon="-2.8476197123598905"><ele>1491.0</ele><time>2026-04-20T17:37:25.999Z</time></trkpt><trkpt lat="37.90361900477687" lon="-2.8476885952057636"><ele>1489.0</ele><time>2026-04-20T17:37:26.999Z</time></trkpt><trkpt lat="37.90351102461285" lon="-2.847738791157656"><ele>1487.0</ele><time>2026-04-20T17:37:27.999Z</time></trkpt><trkpt lat="37.903395163494444" lon="-2.8477596671973275"><ele>1485.0</ele><time>2026-04-20T17:37:28.999Z</time></trkpt><trkpt lat="37.90325315178096" lon="-2.8477663745783928"><ele>1483.0</ele><time>2026-04-20T17:37:29.999Z</time></trkpt><trkpt lat="37.903121746445116" lon="-2.847762705561726"><ele>1483.0</ele><time>2026-04-20T17:37:30.999Z</time></trkpt><trkpt lat="37.90299654178042" lon="-2.84777409490519"><ele>1483.0</ele><time>2026-04-20T17:37:31.999Z</time></trkpt><trkpt lat="37.902870630937066" lon="-2.8477994514352796"><ele>1483.0</ele><time>2026-04-20T17:37:32.999Z</time></trkpt><trkpt lat="37.90272389295422" lon="-2.847875602335839"><ele>1483.0</ele><time>2026-04-20T17:37:33.999Z</time></trkpt><trkpt lat="37.90255522842194" lon="-2.8479651243467683"><ele>1482.3333333333333</ele><time>2026-04-20T17:37:34.999Z</time></trkpt><trkpt lat="37.90237235521011" lon="-2.8480500201493206"><ele>1481.6666666666667</ele><time>2026-04-20T17:37:35.999Z</time></trkpt><trkpt lat="37.90218927613682" lon="-2.848133453155442"><ele>1481.0</ele><time>2026-04-20T17:37:36.999Z</time></trkpt><trkpt lat="37.90200063398093" lon="-2.8482247236432556"><ele>1481.0</ele><time>2026-04-20T17:37:37.999Z</time></trkpt><trkpt lat="37.90181355026669" lon="-2.8483229326455506"><ele>1481.0</ele><time>2026-04-20T17:37:38.999Z</time></trkpt><trkpt lat="37.90162754276737" lon="-2.8484345240432773"><ele>1481.0</ele><time>2026-04-20T17:37:39.999Z</time></trkpt><trkpt lat="37.90144899865056" lon="-2.8485325236526875"><ele>1481.3333333333335</ele><time>2026-04-20T17:37:40.999Z</time></trkpt><trkpt lat="37.90128405686195" lon="-2.848614638030023"><ele>1481.6666666666667</ele><time>2026-04-20T17:37:41.999Z</time></trkpt><trkpt lat="37.90112909975156" lon="-2.8487007339691237"><ele>1482.0</ele><time>2026-04-20T17:37:42.999Z</time></trkpt><trkpt lat="37.90098366192558" lon="-2.848803785492796"><ele>1483.5</ele><time>2026-04-20T17:37:43.999Z</time></trkpt><trkpt lat="37.900850423844275" lon="-2.848899750466713"><ele>1485.0</ele><time>2026-04-20T17:37:44.999Z</time></trkpt><trkpt lat="37.90074257508763" lon="-2.848976169569668"><ele>1486.5</ele><time>2026-04-20T17:37:45.999Z</time></trkpt><trkpt lat="37.90066061463661" lon="-2.8490441365470325"><ele>1488.0</ele><time>2026-04-20T17:37:46.999Z</time></trkpt><trkpt lat="37.9005931324957" lon="-2.8491070211077494"><ele>1488.0</ele><time>2026-04-20T17:37:47.999Z</time></trkpt><trkpt lat="37.90055582380521" lon="-2.8491924429817397"><ele>1488.0</ele><time>2026-04-20T17:37:48.999Z</time></trkpt><trkpt lat="37.90053990964094" lon="-2.849324495448285"><ele>1488.0</ele><time>2026-04-20T17:37:49.999Z</time></trkpt><trkpt lat="37.90052568820549" lon="-2.8495062024901103"><ele>1488.0</ele><time>2026-04-20T17:37:50.999Z</time></trkpt><trkpt lat="37.90050574814231" lon="-2.849676932226235"><ele>1488.0</ele><time>2026-04-20T17:37:51.999Z</time></trkpt><trkpt lat="37.90045464252041" lon="-2.8498158684177626"><ele>1488.0</ele><time>2026-04-20T17:37:52.999Z</time></trkpt><trkpt lat="37.900369437485566" lon="-2.8499668860311385"><ele>1488.0</ele><time>2026-04-20T17:37:53.999Z</time></trkpt><trkpt lat="37.90025511164216" lon="-2.8501218221101206"><ele>1488.0</ele><time>2026-04-20T17:37:54.999Z</time></trkpt><trkpt lat="37.90012083378439" lon="-2.85028256149696"><ele>1487.3333333333333</ele><time>2026-04-20T17:37:55.999Z</time></trkpt><trkpt lat="37.89997178831462" lon="-2.850455754341288"><ele>1486.6666666666665</ele><time>2026-04-20T17:37:56.999Z</time></trkpt><trkpt lat="37.89984233622606" lon="-2.8505965507690934"><ele>1486.0</ele><time>2026-04-20T17:37:57.999Z</time></trkpt><trkpt lat="37.899725099242964" lon="-2.8507216010821335"><ele>1486.0</ele><time>2026-04-20T17:37:58.999Z</time></trkpt><trkpt lat="37.89962668520086" lon="-2.850861467546611"><ele>1486.0</ele><time>2026-04-20T17:37:59.999Z</time></trkpt><trkpt lat="37.89954751311774" lon="-2.8510100909355134"><ele>1486.0</ele><time>2026-04-20T17:38:00.999Z</time></trkpt><trkpt lat="37.89948204903832" lon="-2.85112614094375"><ele>1486.0</ele><time>2026-04-20T17:38:01.999Z</time></trkpt><trkpt lat="37.8994283602706" lon="-2.8512309155624442"><ele>1485.5</ele><time>2026-04-20T17:38:02.999Z</time></trkpt><trkpt lat="37.89938553793366" lon="-2.851340337431318"><ele>1485.0</ele><time>2026-04-20T17:38:03.999Z</time></trkpt><trkpt lat="37.899366836127285" lon="-2.8514857027094065"><ele>1484.5</ele><time>2026-04-20T17:38:04.999Z</time></trkpt><trkpt lat="37.899374164114334" lon="-2.8516776074200485"><ele>1484.0</ele><time>2026-04-20T17:38:05.999Z</time></trkpt><trkpt lat="37.89940898184992" lon="-2.8518745826746503"><ele>1484.0</ele><time>2026-04-20T17:38:06.999Z</time></trkpt><trkpt lat="37.8994249105789" lon="-2.8520236938163617"><ele>1484.0</ele><time>2026-04-20T17:38:07.999Z</time></trkpt><trkpt lat="37.89941321274031" lon="-2.8521747681038176"><ele>1484.0</ele><time>2026-04-20T17:38:08.999Z</time></trkpt><trkpt lat="37.89937006493519" lon="-2.852343302393042"><ele>1484.0</ele><time>2026-04-20T17:38:09.999Z</time></trkpt><trkpt lat="37.899307049469265" lon="-2.8524969371370887"><ele>1484.25</ele><time>2026-04-20T17:38:10.999Z</time></trkpt><trkpt lat="37.89925735147326" lon="-2.852629889776648"><ele>1484.5</ele><time>2026-04-20T17:38:11.999Z</time></trkpt><trkpt lat="37.89922930278425" lon="-2.8527556348409076"><ele>1484.75</ele><time>2026-04-20T17:38:12.999Z</time></trkpt><trkpt lat="37.89922277797396" lon="-2.852895163976204"><ele>1485.0</ele><time>2026-04-20T17:38:13.999Z</time></trkpt><trkpt lat="37.899239510515436" lon="-2.8530774636389373"><ele>1485.0</ele><time>2026-04-20T17:38:14.998Z</time></trkpt><trkpt lat="37.899261759366766" lon="-2.853249719132077"><ele>1485.0</ele><time>2026-04-20T17:38:15.998Z</time></trkpt><trkpt lat="37.899261289379126" lon="-2.8533945551313242"><ele>1485.0</ele><time>2026-04-20T17:38:16.998Z</time></trkpt><trkpt lat="37.899243426174635" lon="-2.8535228264636667"><ele>1485.0</ele><time>2026-04-20T17:38:17.998Z</time></trkpt><trkpt lat="37.899208363810395" lon="-2.8536365529993883"><ele>1485.25</ele><time>2026-04-20T17:38:18.998Z</time></trkpt><trkpt lat="37.89915293490232" lon="-2.853728428249158"><ele>1485.5</ele><time>2026-04-20T17:38:19.998Z</time></trkpt><trkpt lat="37.89905621250725" lon="-2.8538070414535777"><ele>1485.75</ele><time>2026-04-20T17:38:20.998Z</time></trkpt><trkpt lat="37.898929625715546" lon="-2.85387117867842"><ele>1486.0</ele><time>2026-04-20T17:38:21.998Z</time></trkpt><trkpt lat="37.89882739422048" lon="-2.8539414954947984"><ele>1486.0</ele><time>2026-04-20T17:38:23Z</time></trkpt><trkpt lat="37.898764996990884" lon="-2.854041541870288"><ele>1486.0</ele><time>2026-04-20T17:38:24Z</time></trkpt><trkpt lat="37.89874039180623" lon="-2.8541606328787723"><ele>1486.0</ele><time>2026-04-20T17:38:25Z</time></trkpt><trkpt lat="37.89872038863128" lon="-2.8542732597136573"><ele>1486.0</ele><time>2026-04-20T17:38:26Z</time></trkpt><trkpt lat="37.89864826006732" lon="-2.854354344648624"><ele>1486.0</ele><time>2026-04-20T17:38:27Z</time></trkpt><trkpt lat="37.89856281634754" lon="-2.8544054326334134"><ele>1486.5</ele><time>2026-04-20T17:38:28Z</time></trkpt><trkpt lat="37.898451687546746" lon="-2.8544259434777173"><ele>1487.0</ele><time>2026-04-20T17:38:29Z</time></trkpt><trkpt lat="37.89831314979046" lon="-2.8544231854801114"><ele>1487.5</ele><time>2026-04-20T17:38:30Z</time></trkpt><trkpt lat="37.898201343762146" lon="-2.8544489866130536"><ele>1488.0</ele><time>2026-04-20T17:38:31Z</time></trkpt><trkpt lat="37.898115798794954" lon="-2.854548332752513"><ele>1484.75</ele><time>2026-04-20T17:38:32Z</time></trkpt><trkpt lat="37.898057126761145" lon="-2.8546681625148724"><ele>1481.5</ele><time>2026-04-20T17:38:33Z</time></trkpt><trkpt lat="37.89801919430888" lon="-2.854811708514132"><ele>1478.25</ele><time>2026-04-20T17:38:34Z</time></trkpt><trkpt lat="37.89801914300583" lon="-2.8549625823047102"><ele>1475.0</ele><time>2026-04-20T17:38:35Z</time></trkpt><trkpt lat="37.89803152377818" lon="-2.8551015713816263"><ele>1474.0</ele><time>2026-04-20T17:38:36Z</time></trkpt><trkpt lat="37.89801584063232" lon="-2.855210973426438"><ele>1473.0</ele><time>2026-04-20T17:38:37Z</time></trkpt><trkpt lat="37.89795914877593" lon="-2.855306977812038"><ele>1472.0</ele><time>2026-04-20T17:38:38Z</time></trkpt><trkpt lat="37.8978725161909" lon="-2.8553955677956346"><ele>1471.0</ele><time>2026-04-20T17:38:39Z</time></trkpt><trkpt lat="37.89778806065209" lon="-2.8554368531223613"><ele>1470.0</ele><time>2026-04-20T17:38:40Z</time></trkpt><trkpt lat="37.89771086076021" lon="-2.855444061086768"><ele>1470.0</ele><time>2026-04-20T17:38:41Z</time></trkpt><trkpt lat="37.89762593546952" lon="-2.855409734122478"><ele>1470.0</ele><time>2026-04-20T17:38:42Z</time></trkpt><trkpt lat="37.89756292098758" lon="-2.855325572361517"><ele>1470.0</ele><time>2026-04-20T17:38:43Z</time></trkpt><trkpt lat="37.897505197141854" lon="-2.855189329299411"><ele>1470.0</ele><time>2026-04-20T17:38:44Z</time></trkpt><trkpt lat="37.897434268488624" lon="-2.855035734113863"><ele>1470.0</ele><time>2026-04-20T17:38:45Z</time></trkpt><trkpt lat="37.89730544798442" lon="-2.854903790808064"><ele>1469.6666666666667</ele><time>2026-04-20T17:38:46Z</time></trkpt><trkpt lat="37.89715249888226" lon="-2.8547972292897885"><ele>1469.3333333333335</ele><time>2026-04-20T17:38:47Z</time></trkpt><trkpt lat="37.897009715806" lon="-2.854692395694795"><ele>1469.0</ele><time>2026-04-20T17:38:48Z</time></trkpt><trkpt lat="37.896897429147955" lon="-2.8545690630200737"><ele>1469.0</ele><time>2026-04-20T17:38:49Z</time></trkpt><trkpt lat="37.89679439330528" lon="-2.8544306894336393"><ele>1469.0</ele><time>2026-04-20T17:38:50Z</time></trkpt><trkpt lat="37.896709523088276" lon="-2.8543109295997247"><ele>1469.0</ele><time>2026-04-20T17:38:51Z</time></trkpt><trkpt lat="37.896633951805214" lon="-2.8541989775218966"><ele>1469.0</ele><time>2026-04-20T17:38:52Z</time></trkpt><trkpt lat="37.89656640814033" lon="-2.8541095371530862"><ele>1468.8000000000002</ele><time>2026-04-20T17:38:53Z</time></trkpt><trkpt lat="37.896489985034904" lon="-2.8540501685209154"><ele>1468.6000000000001</ele><time>2026-04-20T17:38:54Z</time></trkpt><trkpt lat="37.89639378581646" lon="-2.8540304637522733"><ele>1468.4</ele><time>2026-04-20T17:38:55Z</time></trkpt><trkpt lat="37.89628635359249" lon="-2.854054574315686"><ele>1468.2</ele><time>2026-04-20T17:38:56Z</time></trkpt><trkpt lat="37.89618378101368" lon="-2.8541362532400454"><ele>1468.0</ele><time>2026-04-20T17:38:57Z</time></trkpt><trkpt lat="37.89609479698943" lon="-2.854245736011418"><ele>1466.2</ele><time>2026-04-20T17:38:58Z</time></trkpt><trkpt lat="37.89602557236357" lon="-2.854359741860331"><ele>1464.4</ele><time>2026-04-20T17:38:59Z</time></trkpt><trkpt lat="37.8959835715832" lon="-2.8544587272246535"><ele>1462.6000000000001</ele><time>2026-04-20T17:39:00Z</time></trkpt><trkpt lat="37.89597282257813" lon="-2.85458204232848"><ele>1460.8000000000002</ele><time>2026-04-20T17:39:01Z</time></trkpt><trkpt lat="37.895982772870624" lon="-2.8547070812098227"><ele>1459.0</ele><time>2026-04-20T17:39:02Z</time></trkpt><trkpt lat="37.896031035877826" lon="-2.8548393796796687"><ele>1459.0</ele><time>2026-04-20T17:39:03Z</time></trkpt><trkpt lat="37.89610624480703" lon="-2.854980338469462"><ele>1459.0</ele><time>2026-04-20T17:39:04Z</time></trkpt><trkpt lat="37.896176822211736" lon="-2.8551109346679695"><ele>1459.0</ele><time>2026-04-20T17:39:05Z</time></trkpt><trkpt lat="37.89621649315536" lon="-2.855224117319885"><ele>1459.0</ele><time>2026-04-20T17:39:05.999Z</time></trkpt><trkpt lat="37.89622882493376" lon="-2.855337896426664"><ele>1459.0</ele><time>2026-04-20T17:39:06.999Z</time></trkpt><trkpt lat="37.89619583185385" lon="-2.85544363497263"><ele>1459.6</ele><time>2026-04-20T17:39:07.999Z</time></trkpt><trkpt lat="37.89613507096407" lon="-2.855538403130765"><ele>1460.2</ele><time>2026-04-20T17:39:08.999Z</time></trkpt><trkpt lat="37.89604426437203" lon="-2.85560494265519"><ele>1460.8</ele><time>2026-04-20T17:39:09.999Z</time></trkpt><trkpt lat="37.895950334797696" lon="-2.855634902877508"><ele>1461.3999999999999</ele><time>2026-04-20T17:39:10.999Z</time></trkpt><trkpt lat="37.895846998961396" lon="-2.8556237876889052"><ele>1462.0</ele><time>2026-04-20T17:39:11.999Z</time></trkpt><trkpt lat="37.895733290356375" lon="-2.855561253898731"><ele>1458.75</ele><time>2026-04-20T17:39:12.999Z</time></trkpt><trkpt lat="37.89559808610993" lon="-2.855469455160818"><ele>1455.5</ele><time>2026-04-20T17:39:13.999Z</time></trkpt><trkpt lat="37.89548658777792" lon="-2.855385433535799"><ele>1452.25</ele><time>2026-04-20T17:39:14.999Z</time></trkpt><trkpt lat="37.895387037039846" lon="-2.855350949896527"><ele>1449.0</ele><time>2026-04-20T17:39:15.999Z</time></trkpt><trkpt lat="37.89527317951997" lon="-2.855351882102924"><ele>1449.0</ele><time>2026-04-20T17:39:16.999Z</time></trkpt><trkpt lat="37.895166391559286" lon="-2.8553994927479573"><ele>1449.0</ele><time>2026-04-20T17:39:17.999Z</time></trkpt><trkpt lat="37.895050294683614" lon="-2.8554728472418884"><ele>1449.0</ele><time>2026-04-20T17:39:18.999Z</time></trkpt><trkpt lat="37.894910689022005" lon="-2.855515816571308"><ele>1449.0</ele><time>2026-04-20T17:39:19.999Z</time></trkpt><trkpt lat="37.894763296230664" lon="-2.8555375808080306"><ele>1445.25</ele><time>2026-04-20T17:39:20.999Z</time></trkpt><trkpt lat="37.894641872846144" lon="-2.8555756888115003"><ele>1441.5</ele><time>2026-04-20T17:39:21.999Z</time></trkpt><trkpt lat="37.89453240286123" lon="-2.855645945366529"><ele>1437.75</ele><time>2026-04-20T17:39:22.999Z</time></trkpt><trkpt lat="37.89441651792295" lon="-2.8557473941445113"><ele>1434.0</ele><time>2026-04-20T17:39:23.999Z</time></trkpt><trkpt lat="37.89430861791879" lon="-2.8558544716312233"><ele>1431.25</ele><time>2026-04-20T17:39:24.999Z</time></trkpt><trkpt lat="37.894206422663295" lon="-2.8559783462999757"><ele>1428.5</ele><time>2026-04-20T17:39:25.999Z</time></trkpt><trkpt lat="37.89411696194323" lon="-2.8561035646288757"><ele>1425.75</ele><time>2026-04-20T17:39:26.999Z</time></trkpt><trkpt lat="37.894042775858736" lon="-2.856217655740244"><ele>1423.0</ele><time>2026-04-20T17:39:27.999Z</time></trkpt><trkpt lat="37.89396833277468" lon="-2.856331166447425"><ele>1423.0</ele><time>2026-04-20T17:39:28.999Z</time></trkpt><trkpt lat="37.89385676426708" lon="-2.8564504700511826"><ele>1423.0</ele><time>2026-04-20T17:39:29.999Z</time></trkpt><trkpt lat="37.89377533839423" lon="-2.85655382061858"><ele>1423.0</ele><time>2026-04-20T17:39:30.999Z</time></trkpt><trkpt lat="37.893702089571015" lon="-2.8566195827474052"><ele>1423.0</ele><time>2026-04-20T17:39:31.999Z</time></trkpt><trkpt lat="37.89362690652206" lon="-2.8566628858523133"><ele>1423.0</ele><time>2026-04-20T17:39:32.999Z</time></trkpt><trkpt lat="37.89354594967713" lon="-2.856685251547927"><ele>1423.0</ele><time>2026-04-20T17:39:33.999Z</time></trkpt><trkpt lat="37.89346311898609" lon="-2.856696391968598"><ele>1423.0</ele><time>2026-04-20T17:39:34.999Z</time></trkpt><trkpt lat="37.89338041064071" lon="-2.856706344663939"><ele>1423.0</ele><time>2026-04-20T17:39:35.999Z</time></trkpt><trkpt lat="37.893295322432245" lon="-2.8567322992153703"><ele>1423.0</ele><time>2026-04-20T17:39:36.999Z</time></trkpt><trkpt lat="37.89320208859006" lon="-2.8567725685620546"><ele>1423.0</ele><time>2026-04-20T17:39:37.999Z</time></trkpt><trkpt lat="37.893117304608445" lon="-2.856852919862495"><ele>1420.25</ele><time>2026-04-20T17:39:38.999Z</time></trkpt><trkpt lat="37.89303355060269" lon="-2.8569707049672495"><ele>1417.5</ele><time>2026-04-20T17:39:39.999Z</time></trkpt><trkpt lat="37.89293839930569" lon="-2.857107871145582"><ele>1414.75</ele><time>2026-04-20T17:39:40.999Z</time></trkpt><trkpt lat="37.89283815910235" lon="-2.8572435937439686"><ele>1412.0</ele><time>2026-04-20T17:39:41.999Z</time></trkpt><trkpt lat="37.89275698040964" lon="-2.8573718159479493"><ele>1412.0</ele><time>2026-04-20T17:39:42.999Z</time></trkpt><trkpt lat="37.89268931254517" lon="-2.857507275300912"><ele>1412.0</ele><time>2026-04-20T17:39:43.999Z</time></trkpt><trkpt lat="37.89264321096342" lon="-2.857626850520238"><ele>1412.0</ele><time>2026-04-20T17:39:44.999Z</time></trkpt><trkpt lat="37.89259137615648" lon="-2.8577240496905985"><ele>1412.0</ele><time>2026-04-20T17:39:45.999Z</time></trkpt><trkpt lat="37.89251466063384" lon="-2.8577981663509924"><ele>1412.0</ele><time>2026-04-20T17:39:46.999Z</time></trkpt><trkpt lat="37.892400259796226" lon="-2.8578555135803976"><ele>1411.25</ele><time>2026-04-20T17:39:47.999Z</time></trkpt><trkpt lat="37.892247928092075" lon="-2.857908987836198"><ele>1410.5</ele><time>2026-04-20T17:39:48.999Z</time></trkpt><trkpt lat="37.89211775364215" lon="-2.857961444505062"><ele>1409.75</ele><time>2026-04-20T17:39:49.999Z</time></trkpt><trkpt lat="37.89200881660013" lon="-2.8580136172884356"><ele>1409.0</ele><time>2026-04-20T17:39:50.999Z</time></trkpt><trkpt lat="37.891920681775346" lon="-2.858052657578123"><ele>1409.0</ele><time>2026-04-20T17:39:51.999Z</time></trkpt><trkpt lat="37.891846714029036" lon="-2.8580986813313065"><ele>1409.0</ele><time>2026-04-20T17:39:52.999Z</time></trkpt><trkpt lat="37.8917999254915" lon="-2.8581821452938514"><ele>1409.0</ele><time>2026-04-20T17:39:53.999Z</time></trkpt><trkpt lat="37.891771847010425" lon="-2.858270855655409"><ele>1409.0</ele><time>2026-04-20T17:39:54.999Z</time></trkpt><trkpt lat="37.891754399973436" lon="-2.8583769213946506"><ele>1409.0</ele><time>2026-04-20T17:39:55.999Z</time></trkpt><trkpt lat="37.89176576070641" lon="-2.8584990362366973"><ele>1409.0</ele><time>2026-04-20T17:39:56.999Z</time></trkpt><trkpt lat="37.89180566575505" lon="-2.858641019731627"><ele>1409.25</ele><time>2026-04-20T17:39:57.999Z</time></trkpt><trkpt lat="37.89185809394342" lon="-2.858798299267528"><ele>1409.5</ele><time>2026-04-20T17:39:58.999Z</time></trkpt><trkpt lat="37.89191426046251" lon="-2.858896344998046"><ele>1409.75</ele><time>2026-04-20T17:39:59.999Z</time></trkpt><trkpt lat="37.89199644154097" lon="-2.858990059446463"><ele>1410.0</ele><time>2026-04-20T17:40:00.999Z</time></trkpt><trkpt lat="37.892081670641645" lon="-2.859087686421264"><ele>1410.0</ele><time>2026-04-20T17:40:01.999Z</time></trkpt><trkpt lat="37.892187386124796" lon="-2.859088721666303"><ele>1410.0</ele><time>2026-04-20T17:40:03.999Z</time></trkpt><trkpt lat="37.89229676030857" lon="-2.85909483649186"><ele>1410.0</ele><time>2026-04-20T17:40:04.999Z</time></trkpt><trkpt lat="37.89239206255521" lon="-2.8591084812818663"><ele>1410.0</ele><time>2026-04-20T17:40:05.999Z</time></trkpt><trkpt lat="37.89253717358691" lon="-2.8590653477819736"><ele>1408.5</ele><time>2026-04-20T17:40:06.999Z</time></trkpt><trkpt lat="37.89263496163419" lon="-2.8590662809331158"><ele>1407.0</ele><time>2026-04-20T17:40:07.999Z</time></trkpt><trkpt lat="37.89275892268538" lon="-2.859138103211573"><ele>1405.5</ele><time>2026-04-20T17:40:08.999Z</time></trkpt><trkpt lat="37.89290428600049" lon="-2.8592025534503134"><ele>1404.0</ele><time>2026-04-20T17:40:09.999Z</time></trkpt><trkpt lat="37.89301261942778" lon="-2.85921745990464"><ele>1404.0</ele><time>2026-04-20T17:40:10.999Z</time></trkpt><trkpt lat="37.893140112321085" lon="-2.8592282846894537"><ele>1404.0</ele><time>2026-04-20T17:40:11.999Z</time></trkpt><trkpt lat="37.893273570340725" lon="-2.8592296954744385"><ele>1404.0</ele><time>2026-04-20T17:40:12.999Z</time></trkpt><trkpt lat="37.893387542414466" lon="-2.8592439936730614"><ele>1404.0</ele><time>2026-04-20T17:40:13.999Z</time></trkpt><trkpt lat="37.89349397941992" lon="-2.8592936798626347"><ele>1403.6666666666667</ele><time>2026-04-20T17:40:14.999Z</time></trkpt><trkpt lat="37.893613015691706" lon="-2.859388324753601"><ele>1403.3333333333335</ele><time>2026-04-20T17:40:15.999Z</time></trkpt><trkpt lat="37.89374222542038" lon="-2.859520305573082"><ele>1403.0</ele><time>2026-04-20T17:40:16.998Z</time></trkpt><trkpt lat="37.89388322552902" lon="-2.8596117892445028"><ele>1403.0</ele><time>2026-04-20T17:40:17.998Z</time></trkpt><trkpt lat="37.894026975234766" lon="-2.8596627156011953"><ele>1403.0</ele><time>2026-04-20T17:40:18.998Z</time></trkpt><trkpt lat="37.89416590579752" lon="-2.859687937022449"><ele>1403.0</ele><time>2026-04-20T17:40:19.998Z</time></trkpt><trkpt lat="37.89428940772238" lon="-2.8597175693847383"><ele>1403.0</ele><time>2026-04-20T17:40:20.998Z</time></trkpt><trkpt lat="37.894386494311455" lon="-2.8597439238086304"><ele>1402.75</ele><time>2026-04-20T17:40:21.998Z</time></trkpt><trkpt lat="37.89449755495085" lon="-2.859804769472304"><ele>1402.5</ele><time>2026-04-20T17:40:22.998Z</time></trkpt><trkpt lat="37.89461358492801" lon="-2.8599155218659416"><ele>1402.25</ele><time>2026-04-20T17:40:23.998Z</time></trkpt><trkpt lat="37.89471035601392" lon="-2.8600234457058704"><ele>1402.0</ele><time>2026-04-20T17:40:24.998Z</time></trkpt><trkpt lat="37.89478488259582" lon="-2.8600915526244464"><ele>1401.1999999999998</ele><time>2026-04-20T17:40:25.998Z</time></trkpt><trkpt lat="37.89482427866053" lon="-2.860177145594126"><ele>1400.4</ele><time>2026-04-20T17:40:26.998Z</time></trkpt><trkpt lat="37.89485450612071" lon="-2.860275652017774"><ele>1399.6</ele><time>2026-04-20T17:40:27.998Z</time></trkpt><trkpt lat="37.894856595485386" lon="-2.860410570693311"><ele>1398.8000000000002</ele><time>2026-04-20T17:40:29Z</time></trkpt><trkpt lat="37.894822556602264" lon="-2.86056740801628"><ele>1398.0</ele><time>2026-04-20T17:40:30Z</time></trkpt><trkpt lat="37.89477822783853" lon="-2.860741673736555"><ele>1398.0</ele><time>2026-04-20T17:40:31Z</time></trkpt><trkpt lat="37.89475914531903" lon="-2.860886904926495"><ele>1398.0</ele><time>2026-04-20T17:40:32Z</time></trkpt><trkpt lat="37.894791108623565" lon="-2.8610067320952073"><ele>1398.0</ele><time>2026-04-20T17:40:33Z</time></trkpt><trkpt lat="37.89485926666478" lon="-2.8611555185464232"><ele>1398.0</ele><time>2026-04-20T17:40:34Z</time></trkpt><trkpt lat="37.89495505496739" lon="-2.861308244145579"><ele>1398.6666666666667</ele><time>2026-04-20T17:40:35Z</time></trkpt><trkpt lat="37.895031303897284" lon="-2.8614676371184746"><ele>1399.3333333333335</ele><time>2026-04-20T17:40:36Z</time></trkpt><trkpt lat="37.89509509487896" lon="-2.8616377601242737"><ele>1400.0</ele><time>2026-04-20T17:40:37Z</time></trkpt><trkpt lat="37.89514269220337" lon="-2.8618517504442096"><ele>1395.3333333333335</ele><time>2026-04-20T17:40:38Z</time></trkpt><trkpt lat="37.895181957119775" lon="-2.8620713798144997"><ele>1390.6666666666667</ele><time>2026-04-20T17:40:39Z</time></trkpt><trkpt lat="37.89523171224247" lon="-2.862281165744088"><ele>1386.0</ele><time>2026-04-20T17:40:40Z</time></trkpt><trkpt lat="37.895282830925126" lon="-2.8624622908796424"><ele>1382.75</ele><time>2026-04-20T17:40:41Z</time></trkpt><trkpt lat="37.89535698285619" lon="-2.8626170607849852"><ele>1379.5</ele><time>2026-04-20T17:40:42Z</time></trkpt><trkpt lat="37.895445073060436" lon="-2.862769239507346"><ele>1376.25</ele><time>2026-04-20T17:40:43Z</time></trkpt><trkpt lat="37.895528295973705" lon="-2.862905499014853"><ele>1373.0</ele><time>2026-04-20T17:40:44Z</time></trkpt><trkpt lat="37.89559586201765" lon="-2.8630390266232535"><ele>1373.0</ele><time>2026-04-20T17:40:45Z</time></trkpt><trkpt lat="37.895637959074804" lon="-2.863192402556977"><ele>1373.0</ele><time>2026-04-20T17:40:46Z</time></trkpt><trkpt lat="37.895666737399395" lon="-2.8633720185316247"><ele>1373.0</ele><time>2026-04-20T17:40:47Z</time></trkpt><trkpt lat="37.895686346145375" lon="-2.8635450213219356"><ele>1373.0</ele><time>2026-04-20T17:40:48Z</time></trkpt><trkpt lat="37.895687974756356" lon="-2.863720893006735"><ele>1373.25</ele><time>2026-04-20T17:40:49Z</time></trkpt><trkpt lat="37.89567032606497" lon="-2.8638774927019255"><ele>1373.5</ele><time>2026-04-20T17:40:50Z</time></trkpt><trkpt lat="37.895645663737575" lon="-2.86401937108089"><ele>1373.75</ele><time>2026-04-20T17:40:51Z</time></trkpt><trkpt lat="37.89561505274797" lon="-2.864153333694134"><ele>1374.0</ele><time>2026-04-20T17:40:52Z</time></trkpt><trkpt lat="37.89554935258113" lon="-2.8643138919815234"><ele>1370.25</ele><time>2026-04-20T17:40:53Z</time></trkpt><trkpt lat="37.89547868704289" lon="-2.864465898909046"><ele>1366.5</ele><time>2026-04-20T17:40:54Z</time></trkpt><trkpt lat="37.895414017880206" lon="-2.8646026386764496"><ele>1362.75</ele><time>2026-04-20T17:40:55Z</time></trkpt><trkpt lat="37.89537022896277" lon="-2.8647395087292877"><ele>1359.0</ele><time>2026-04-20T17:40:56Z</time></trkpt><trkpt lat="37.89532570772113" lon="-2.8648470145651803"><ele>1359.0</ele><time>2026-04-20T17:40:57Z</time></trkpt><trkpt lat="37.895253800079125" lon="-2.8649605273597154"><ele>1359.0</ele><time>2026-04-20T17:40:58Z</time></trkpt><trkpt lat="37.89514480024511" lon="-2.8650647850633417"><ele>1359.0</ele><time>2026-04-20T17:40:59Z</time></trkpt><trkpt lat="37.8950344545241" lon="-2.8651717259926244"><ele>1359.0</ele><time>2026-04-20T17:41:00Z</time></trkpt><trkpt lat="37.89494119711087" lon="-2.8652497623707416"><ele>1366.25</ele><time>2026-04-20T17:41:01Z</time></trkpt><trkpt lat="37.89485756599987" lon="-2.8653766008253907"><ele>1373.5</ele><time>2026-04-20T17:41:02Z</time></trkpt><trkpt lat="37.89477616161647" lon="-2.8655383561667485"><ele>1380.75</ele><time>2026-04-20T17:41:03Z</time></trkpt><trkpt lat="37.89470879367062" lon="-2.8656792653033376"><ele>1388.0</ele><time>2026-04-20T17:41:04Z</time></trkpt><trkpt lat="37.89464284022748" lon="-2.865832932897873"><ele>1386.3333333333335</ele><time>2026-04-20T17:41:05Z</time></trkpt><trkpt lat="37.89458427292735" lon="-2.8659920940285772"><ele>1384.6666666666667</ele><time>2026-04-20T17:41:06Z</time></trkpt><trkpt lat="37.89451342748909" lon="-2.8661642463802215"><ele>1383.0</ele><time>2026-04-20T17:41:07Z</time></trkpt><trkpt lat="37.89440773984158" lon="-2.866337374008553"><ele>1383.0</ele><time>2026-04-20T17:41:07.999Z</time></trkpt><trkpt lat="37.89429422898471" lon="-2.866504631138053"><ele>1383.0</ele><time>2026-04-20T17:41:08.999Z</time></trkpt><trkpt lat="37.89417341006086" lon="-2.866679125412094"><ele>1383.0</ele><time>2026-04-20T17:41:09.999Z</time></trkpt><trkpt lat="37.894073750487664" lon="-2.866845612298261"><ele>1385.75</ele><time>2026-04-20T17:41:10.999Z</time></trkpt><trkpt lat="37.89400486202101" lon="-2.866986963559702"><ele>1388.5</ele><time>2026-04-20T17:41:11.999Z</time></trkpt><trkpt lat="37.89394203720553" lon="-2.867118518890508"><ele>1391.25</ele><time>2026-04-20T17:41:12.999Z</time></trkpt><trkpt lat="37.89385543304046" lon="-2.867229804119196"><ele>1394.0</ele><time>2026-04-20T17:41:13.999Z</time></trkpt><trkpt lat="37.89379903131273" lon="-2.8673310853323177"><ele>1394.0</ele><time>2026-04-20T17:41:14.999Z</time></trkpt><trkpt lat="37.893752185461885" lon="-2.867426307431127"><ele>1394.0</ele><time>2026-04-20T17:41:15.999Z</time></trkpt><trkpt lat="37.89371791994181" lon="-2.867541693879379"><ele>1394.0</ele><time>2026-04-20T17:41:16.999Z</time></trkpt><trkpt lat="37.893715362384896" lon="-2.8677100915161273"><ele>1394.0</ele><time>2026-04-20T17:41:17.999Z</time></trkpt><trkpt lat="37.89372200375485" lon="-2.8678738592387463"><ele>1394.0</ele><time>2026-04-20T17:41:18.999Z</time></trkpt><trkpt lat="37.89368944098932" lon="-2.8680107636654624"><ele>1395.0</ele><time>2026-04-20T17:41:19.999Z</time></trkpt><trkpt lat="37.89363283881376" lon="-2.868139358400027"><ele>1396.0</ele><time>2026-04-20T17:41:20.999Z</time></trkpt><trkpt lat="37.89356597351053" lon="-2.868239989100463"><ele>1397.0</ele><time>2026-04-20T17:41:21.999Z</time></trkpt><trkpt lat="37.89347571932458" lon="-2.868302283784664"><ele>1398.0</ele><time>2026-04-20T17:41:22.999Z</time></trkpt><trkpt lat="37.89337826258407" lon="-2.8683475238534837"><ele>1399.0</ele><time>2026-04-20T17:41:23.999Z</time></trkpt><trkpt lat="37.89330673938656" lon="-2.868373365470178"><ele>1399.0</ele><time>2026-04-20T17:41:24.999Z</time></trkpt><trkpt lat="37.893187194963005" lon="-2.868376424107201"><ele>1399.0</ele><time>2026-04-20T17:41:26.999Z</time></trkpt><trkpt lat="37.89312062716566" lon="-2.86836814986337"><ele>1399.0</ele><time>2026-04-20T17:41:27.999Z</time></trkpt><trkpt lat="37.893052835225085" lon="-2.868343807514955"><ele>1399.0</ele><time>2026-04-20T17:41:28.999Z</time></trkpt><trkpt lat="37.892986246443925" lon="-2.8683149023336356"><ele>1399.0</ele><time>2026-04-20T17:41:29.999Z</time></trkpt><trkpt lat="37.892918349513884" lon="-2.86829056655317"><ele>1399.0</ele><time>2026-04-20T17:41:30.999Z</time></trkpt><trkpt lat="37.89285238511445" lon="-2.8682660560326427"><ele>1399.0</ele><time>2026-04-20T17:41:31.999Z</time></trkpt><trkpt lat="37.89278628121353" lon="-2.8682363558753146"><ele>1399.0</ele><time>2026-04-20T17:41:32.999Z</time></trkpt><trkpt lat="37.8927195075343" lon="-2.868198180717169"><ele>1399.0</ele><time>2026-04-20T17:41:33.999Z</time></trkpt><trkpt lat="37.892650456810514" lon="-2.8681553804346445"><ele>1399.0</ele><time>2026-04-20T17:41:34.999Z</time></trkpt><trkpt lat="37.892573649088675" lon="-2.86812592755169"><ele>1399.0</ele><time>2026-04-20T17:41:35.999Z</time></trkpt><trkpt lat="37.89249121818718" lon="-2.8680839540556624"><ele>1399.0</ele><time>2026-04-20T17:41:36.999Z</time></trkpt><trkpt lat="37.89241543441947" lon="-2.8680458949735277"><ele>1399.8333333333333</ele><time>2026-04-20T17:41:37.999Z</time></trkpt><trkpt lat="37.89233717968658" lon="-2.868021510820466"><ele>1400.6666666666665</ele><time>2026-04-20T17:41:38.999Z</time></trkpt><trkpt lat="37.8922631553358" lon="-2.868010288819818"><ele>1401.5</ele><time>2026-04-20T17:41:39.999Z</time></trkpt><trkpt lat="37.89218201019847" lon="-2.8680259059843918"><ele>1402.3333333333333</ele><time>2026-04-20T17:41:40.999Z</time></trkpt><trkpt lat="37.89209609727424" lon="-2.8680774396812474"><ele>1403.1666666666667</ele><time>2026-04-20T17:41:41.999Z</time></trkpt><trkpt lat="37.892019079510085" lon="-2.868125071217741"><ele>1404.0</ele><time>2026-04-20T17:41:42.999Z</time></trkpt><trkpt lat="37.89193176121815" lon="-2.8681585003836547"><ele>1404.0</ele><time>2026-04-20T17:41:43.999Z</time></trkpt><trkpt lat="37.89184076655133" lon="-2.868180976732931"><ele>1404.0</ele><time>2026-04-20T17:41:44.999Z</time></trkpt><trkpt lat="37.89175025301966" lon="-2.8681933225553418"><ele>1404.0</ele><time>2026-04-20T17:41:45.999Z</time></trkpt><trkpt lat="37.89165870701485" lon="-2.868187303074606"><ele>1404.0</ele><time>2026-04-20T17:41:46.999Z</time></trkpt><trkpt lat="37.89156409102064" lon="-2.8681683026376343"><ele>1404.0</ele><time>2026-04-20T17:41:47.999Z</time></trkpt><trkpt lat="37.8914820044758" lon="-2.8681182581438107"><ele>1403.4</ele><time>2026-04-20T17:41:48.999Z</time></trkpt><trkpt lat="37.89140291686365" lon="-2.8680311863356245"><ele>1402.8000000000002</ele><time>2026-04-20T17:41:49.999Z</time></trkpt><trkpt lat="37.891319060890005" lon="-2.8679406803582306"><ele>1402.1999999999998</ele><time>2026-04-20T17:41:50.999Z</time></trkpt><trkpt lat="37.89123295015109" lon="-2.867846497068481"><ele>1401.6</ele><time>2026-04-20T17:41:51.999Z</time></trkpt><trkpt lat="37.891135416728794" lon="-2.8677689262996515"><ele>1401.0</ele><time>2026-04-20T17:41:52.999Z</time></trkpt><trkpt lat="37.89101959944075" lon="-2.8677248963773567"><ele>1400.0</ele><time>2026-04-20T17:41:53.999Z</time></trkpt><trkpt lat="37.89088426992736" lon="-2.8677143617668546"><ele>1399.0</ele><time>2026-04-20T17:41:54.999Z</time></trkpt><trkpt lat="37.89074473273613" lon="-2.8677414497148535"><ele>1398.0</ele><time>2026-04-20T17:41:55.999Z</time></trkpt><trkpt lat="37.890598942791" lon="-2.86779452676789"><ele>1397.0</ele><time>2026-04-20T17:41:56.999Z</time></trkpt><trkpt lat="37.890431484808076" lon="-2.8678538866007544"><ele>1397.0</ele><time>2026-04-20T17:41:57.999Z</time></trkpt><trkpt lat="37.89027886959214" lon="-2.867923401242613"><ele>1397.0</ele><time>2026-04-20T17:41:58.999Z</time></trkpt><trkpt lat="37.89012391877073" lon="-2.8680168909530206"><ele>1397.0</ele><time>2026-04-20T17:41:59.999Z</time></trkpt><trkpt lat="37.88996837842635" lon="-2.8681280618279956"><ele>1395.6666666666667</ele><time>2026-04-20T17:42:00.999Z</time></trkpt><trkpt lat="37.88981752247589" lon="-2.8682373714180156"><ele>1394.3333333333333</ele><time>2026-04-20T17:42:01.999Z</time></trkpt><trkpt lat="37.88964837264795" lon="-2.8683197785469474"><ele>1393.0</ele><time>2026-04-20T17:42:02.999Z</time></trkpt><trkpt lat="37.88947150182911" lon="-2.8684148917444103"><ele>1392.6666666666665</ele><time>2026-04-20T17:42:03.999Z</time></trkpt><trkpt lat="37.88931462355699" lon="-2.868519661878461"><ele>1392.3333333333333</ele><time>2026-04-20T17:42:04.999Z</time></trkpt><trkpt lat="37.889177891205975" lon="-2.8686197522114565"><ele>1392.0</ele><time>2026-04-20T17:42:05.999Z</time></trkpt><trkpt lat="37.889056335606995" lon="-2.8687179261936016"><ele>1391.0</ele><time>2026-04-20T17:42:06.999Z</time></trkpt><trkpt lat="37.888942233014916" lon="-2.868805855313557"><ele>1390.0</ele><time>2026-04-20T17:42:07.999Z</time></trkpt><trkpt lat="37.88881595391467" lon="-2.8688654692073103"><ele>1389.0</ele><time>2026-04-20T17:42:08.999Z</time></trkpt><trkpt lat="37.88868757154431" lon="-2.8689025011170926"><ele>1388.0</ele><time>2026-04-20T17:42:09.999Z</time></trkpt><trkpt lat="37.88856802590157" lon="-2.868930682480199"><ele>1388.0</ele><time>2026-04-20T17:42:10.999Z</time></trkpt><trkpt lat="37.88845812938534" lon="-2.868950847143602"><ele>1388.0</ele><time>2026-04-20T17:42:11.999Z</time></trkpt><trkpt lat="37.88835468705722" lon="-2.868971624139125"><ele>1388.0</ele><time>2026-04-20T17:42:12.999Z</time></trkpt><trkpt lat="37.88826999375895" lon="-2.869011937940339"><ele>1388.0</ele><time>2026-04-20T17:42:13.999Z</time></trkpt><trkpt lat="37.888201238215764" lon="-2.86908466944791"><ele>1388.0</ele><time>2026-04-20T17:42:14.999Z</time></trkpt><trkpt lat="37.88816190350789" lon="-2.8691835340197156"><ele>1386.8000000000002</ele><time>2026-04-20T17:42:15.999Z</time></trkpt><trkpt lat="37.8881407861977" lon="-2.869313366968526"><ele>1385.6</ele><time>2026-04-20T17:42:16.999Z</time></trkpt><trkpt lat="37.88810822018015" lon="-2.8694516872428064"><ele>1384.4</ele><time>2026-04-20T17:42:17.999Z</time></trkpt><trkpt lat="37.888047800217095" lon="-2.8695651311625494"><ele>1383.1999999999998</ele><time>2026-04-20T17:42:18.999Z</time></trkpt><trkpt lat="37.88797544497" lon="-2.869639505880525"><ele>1382.0</ele><time>2026-04-20T17:42:19.999Z</time></trkpt><trkpt lat="37.8878767282643" lon="-2.869693798796397"><ele>1382.0</ele><time>2026-04-20T17:42:20.999Z</time></trkpt><trkpt lat="37.88774183124651" lon="-2.8697272492298262"><ele>1382.0</ele><time>2026-04-20T17:42:21.999Z</time></trkpt><trkpt lat="37.887579412391545" lon="-2.8697569162306142"><ele>1382.0</ele><time>2026-04-20T17:42:22.999Z</time></trkpt><trkpt lat="37.88740928213015" lon="-2.8697910188160702"><ele>1380.0</ele><time>2026-04-20T17:42:23.998Z</time></trkpt><trkpt lat="37.88725689835562" lon="-2.8698274023088466"><ele>1378.0</ele><time>2026-04-20T17:42:24.998Z</time></trkpt><trkpt lat="37.887122627264766" lon="-2.869860082197591"><ele>1376.0</ele><time>2026-04-20T17:42:25.998Z</time></trkpt><trkpt lat="37.88700537449344" lon="-2.86989747770907"><ele>1374.0</ele><time>2026-04-20T17:42:26.998Z</time></trkpt><trkpt lat="37.886890797031555" lon="-2.869944740460998"><ele>1374.0</ele><time>2026-04-20T17:42:27.998Z</time></trkpt><trkpt lat="37.88677558631349" lon="-2.8700084123746916"><ele>1374.0</ele><time>2026-04-20T17:42:28.998Z</time></trkpt><trkpt lat="37.886644715887414" lon="-2.8700881218603085"><ele>1374.0</ele><time>2026-04-20T17:42:29.998Z</time></trkpt><trkpt lat="37.88650929132358" lon="-2.870168721668802"><ele>1374.0</ele><time>2026-04-20T17:42:30.998Z</time></trkpt><trkpt lat="37.88637898566452" lon="-2.8702422687830595"><ele>1371.5</ele><time>2026-04-20T17:42:31.998Z</time></trkpt><trkpt lat="37.88625050126245" lon="-2.870295495692505"><ele>1369.0</ele><time>2026-04-20T17:42:32.998Z</time></trkpt><trkpt lat="37.88613017100704" lon="-2.8703380729786585"><ele>1366.5</ele><time>2026-04-20T17:42:33.998Z</time></trkpt><trkpt lat="37.88602102289156" lon="-2.8703733541998475"><ele>1364.0</ele><time>2026-04-20T17:42:35Z</time></trkpt><trkpt lat="37.885909924992696" lon="-2.8703974665856844"><ele>1361.8000000000002</ele><time>2026-04-20T17:42:36Z</time></trkpt><trkpt lat="37.885801519950924" lon="-2.870402104292032"><ele>1359.6000000000001</ele><time>2026-04-20T17:42:37Z</time></trkpt><trkpt lat="37.88569453684315" lon="-2.870389714097692"><ele>1357.4</ele><time>2026-04-20T17:42:38Z</time></trkpt><trkpt lat="37.885591961457116" lon="-2.870364692735985"><ele>1355.2</ele><time>2026-04-20T17:42:39Z</time></trkpt><trkpt lat="37.88548359771361" lon="-2.8703288025360862"><ele>1353.0</ele><time>2026-04-20T17:42:40Z</time></trkpt><trkpt lat="37.885360111973746" lon="-2.870286316714823"><ele>1353.0</ele><time>2026-04-20T17:42:41Z</time></trkpt><trkpt lat="37.88524065620799" lon="-2.8702325849837393"><ele>1353.0</ele><time>2026-04-20T17:42:42Z</time></trkpt><trkpt lat="37.88513377389733" lon="-2.8701701273692892"><ele>1353.0</ele><time>2026-04-20T17:42:43Z</time></trkpt><trkpt lat="37.885035273663306" lon="-2.870114423538962"><ele>1353.0</ele><time>2026-04-20T17:42:44Z</time></trkpt><trkpt lat="37.88493399149779" lon="-2.8700720367082218"><ele>1353.0</ele><time>2026-04-20T17:42:45Z</time></trkpt><trkpt lat="37.88484168982243" lon="-2.8700276893473324"><ele>1353.0</ele><time>2026-04-20T17:42:46Z</time></trkpt><trkpt lat="37.88473735616035" lon="-2.8700086595369982"><ele>1353.0</ele><time>2026-04-20T17:42:47Z</time></trkpt><trkpt lat="37.88464227927589" lon="-2.869999462602804"><ele>1353.0</ele><time>2026-04-20T17:42:48Z</time></trkpt><trkpt lat="37.88455516809188" lon="-2.87000419320507"><ele>1353.0</ele><time>2026-04-20T17:42:49Z</time></trkpt><trkpt lat="37.88448588609071" lon="-2.870038984878221"><ele>1353.0</ele><time>2026-04-20T17:42:50Z</time></trkpt><trkpt lat="37.884434678586196" lon="-2.8701031073394865"><ele>1353.0</ele><time>2026-04-20T17:42:51Z</time></trkpt><trkpt lat="37.88440101985311" lon="-2.8702009995930275"><ele>1353.0</ele><time>2026-04-20T17:42:52Z</time></trkpt><trkpt lat="37.88439163314449" lon="-2.8703150055484987"><ele>1353.0</ele><time>2026-04-20T17:42:53Z</time></trkpt><trkpt lat="37.88441194358647" lon="-2.8704235378454963"><ele>1353.0</ele><time>2026-04-20T17:42:54Z</time></trkpt><trkpt lat="37.884464091383066" lon="-2.870503989654791"><ele>1353.0</ele><time>2026-04-20T17:42:55Z</time></trkpt><trkpt lat="37.8845401362111" lon="-2.8705769900900515"><ele>1349.5</ele><time>2026-04-20T17:42:56Z</time></trkpt><trkpt lat="37.884651660498214" lon="-2.8706411110824557"><ele>1346.0</ele><time>2026-04-20T17:42:57Z</time></trkpt><trkpt lat="37.88479272259339" lon="-2.8707218192346975"><ele>1342.5</ele><time>2026-04-20T17:42:58Z</time></trkpt><trkpt lat="37.8849262390818" lon="-2.870821539409025"><ele>1339.0</ele><time>2026-04-20T17:42:59Z</time></trkpt><trkpt lat="37.885042901680116" lon="-2.8709240110310663"><ele>1340.8000000000002</ele><time>2026-04-20T17:43:00Z</time></trkpt><trkpt lat="37.8851467572942" lon="-2.8710259546995056"><ele>1342.6000000000001</ele><time>2026-04-20T17:43:01Z</time></trkpt><trkpt lat="37.88523446535902" lon="-2.871108233955685"><ele>1344.4</ele><time>2026-04-20T17:43:02Z</time></trkpt><trkpt lat="37.88529985384884" lon="-2.871182230617216"><ele>1346.2</ele><time>2026-04-20T17:43:03Z</time></trkpt><trkpt lat="37.88533552246625" lon="-2.8712773915810597"><ele>1348.0</ele><time>2026-04-20T17:43:04Z</time></trkpt><trkpt lat="37.885343372349716" lon="-2.871397068944843"><ele>1348.0</ele><time>2026-04-20T17:43:05Z</time></trkpt><trkpt lat="37.88533477761957" lon="-2.871540126514399"><ele>1348.0</ele><time>2026-04-20T17:43:06Z</time></trkpt><trkpt lat="37.88529555230733" lon="-2.8716816772254656"><ele>1348.0</ele><time>2026-04-20T17:43:07Z</time></trkpt><trkpt lat="37.885254432467335" lon="-2.8718215670753504"><ele>1348.0</ele><time>2026-04-20T17:43:08Z</time></trkpt><trkpt lat="37.885211784692316" lon="-2.8719353743460343"><ele>1348.0</ele><time>2026-04-20T17:43:09Z</time></trkpt><trkpt lat="37.885153813095194" lon="-2.872033073011377"><ele>1345.0</ele><time>2026-04-20T17:43:10Z</time></trkpt><trkpt lat="37.885073398253375" lon="-2.8721065266582073"><ele>1342.0</ele><time>2026-04-20T17:43:11Z</time></trkpt><trkpt lat="37.88497630899434" lon="-2.872149828600311"><ele>1339.0</ele><time>2026-04-20T17:43:12Z</time></trkpt><trkpt lat="37.884864457711764" lon="-2.8721904198186956"><ele>1336.0</ele><time>2026-04-20T17:43:13Z</time></trkpt><trkpt lat="37.88476373447543" lon="-2.8722458967730264"><ele>1333.0</ele><time>2026-04-20T17:43:14Z</time></trkpt><trkpt lat="37.88467487323276" lon="-2.8723107490021924"><ele>1333.0</ele><time>2026-04-20T17:43:15Z</time></trkpt><trkpt lat="37.884591869941566" lon="-2.8723846009620413"><ele>1333.0</ele><time>2026-04-20T17:43:15.999Z</time></trkpt><trkpt lat="37.88450932087736" lon="-2.8724497604393746"><ele>1333.0</ele><time>2026-04-20T17:43:16.999Z</time></trkpt><trkpt lat="37.88442460905328" lon="-2.872507679956006"><ele>1333.0</ele><time>2026-04-20T17:43:17.999Z</time></trkpt><trkpt lat="37.88433782268821" lon="-2.872553303665058"><ele>1333.0</ele><time>2026-04-20T17:43:18.999Z</time></trkpt><trkpt lat="37.88425111341572" lon="-2.8725851636029267"><ele>1331.8333333333333</ele><time>2026-04-20T17:43:19.999Z</time></trkpt><trkpt lat="37.88416811882149" lon="-2.8726270402978957"><ele>1330.6666666666665</ele><time>2026-04-20T17:43:20.999Z</time></trkpt><trkpt lat="37.88409062558513" lon="-2.872656326420114"><ele>1329.5</ele><time>2026-04-20T17:43:21.999Z</time></trkpt><trkpt lat="37.88401374702343" lon="-2.8726849194720434"><ele>1328.3333333333333</ele><time>2026-04-20T17:43:22.999Z</time></trkpt><trkpt lat="37.883938516431776" lon="-2.87271561214777"><ele>1327.1666666666667</ele><time>2026-04-20T17:43:23.999Z</time></trkpt><trkpt lat="37.88386345293213" lon="-2.872747814472989"><ele>1326.0</ele><time>2026-04-20T17:43:24.999Z</time></trkpt><trkpt lat="37.88379708363332" lon="-2.8727776910870104"><ele>1326.0</ele><time>2026-04-20T17:43:25.999Z</time></trkpt><trkpt lat="37.88373460631903" lon="-2.8728006182178647"><ele>1326.0</ele><time>2026-04-20T17:43:26.999Z</time></trkpt><trkpt lat="37.88363470320061" lon="-2.872889937195913"><ele>1326.0</ele><time>2026-04-20T17:43:28.999Z</time></trkpt><trkpt lat="37.88360437613554" lon="-2.8729602390693425"><ele>1326.0</ele><time>2026-04-20T17:43:29.999Z</time></trkpt><trkpt lat="37.883592013041465" lon="-2.8731058751878504"><ele>1326.0</ele><time>2026-04-20T17:43:31.999Z</time></trkpt><trkpt lat="37.88364722531651" lon="-2.873232676355931"><ele>1326.0</ele><time>2026-04-20T17:43:33.999Z</time></trkpt><trkpt lat="37.883716604117716" lon="-2.8733717097645326"><ele>1326.0</ele><time>2026-04-20T17:43:35.999Z</time></trkpt><trkpt lat="37.883736153192935" lon="-2.873465865468383"><ele>1326.0</ele><time>2026-04-20T17:43:36.999Z</time></trkpt><trkpt lat="37.883728207218745" lon="-2.873562167998304"><ele>1326.0</ele><time>2026-04-20T17:43:37.999Z</time></trkpt><trkpt lat="37.88370090914274" lon="-2.873643669585829"><ele>1326.0</ele><time>2026-04-20T17:43:38.999Z</time></trkpt><trkpt lat="37.883672771218414" lon="-2.873719053457706"><ele>1326.0</ele><time>2026-04-20T17:43:39.999Z</time></trkpt><trkpt lat="37.88363509566483" lon="-2.873800971493513"><ele>1327.6666666666667</ele><time>2026-04-20T17:43:40.999Z</time></trkpt><trkpt lat="37.88359485609037" lon="-2.8738786736297284"><ele>1329.3333333333333</ele><time>2026-04-20T17:43:41.999Z</time></trkpt><trkpt lat="37.88354084176111" lon="-2.8739456211371652"><ele>1331.0</ele><time>2026-04-20T17:43:42.999Z</time></trkpt><trkpt lat="37.88345792890125" lon="-2.87401730840522"><ele>1332.6666666666665</ele><time>2026-04-20T17:43:43.999Z</time></trkpt><trkpt lat="37.88338339633355" lon="-2.8740936563700177"><ele>1334.3333333333333</ele><time>2026-04-20T17:43:44.999Z</time></trkpt><trkpt lat="37.883313483259414" lon="-2.8741726890096166"><ele>1336.0</ele><time>2026-04-20T17:43:45.999Z</time></trkpt><trkpt lat="37.88324127696867" lon="-2.8742502680646305"><ele>1334.6</ele><time>2026-04-20T17:43:46.999Z</time></trkpt><trkpt lat="37.883159410584426" lon="-2.8743223540518845"><ele>1333.1999999999998</ele><time>2026-04-20T17:43:47.999Z</time></trkpt><trkpt lat="37.88307196001394" lon="-2.874383632421243"><ele>1331.8000000000002</ele><time>2026-04-20T17:43:48.999Z</time></trkpt><trkpt lat="37.88298230879015" lon="-2.874430054150648"><ele>1330.4</ele><time>2026-04-20T17:43:49.999Z</time></trkpt><trkpt lat="37.88288907525923" lon="-2.8744760797747193"><ele>1329.0</ele><time>2026-04-20T17:43:50.999Z</time></trkpt><trkpt lat="37.882807853896246" lon="-2.8745290632647817"><ele>1329.0</ele><time>2026-04-20T17:43:51.999Z</time></trkpt><trkpt lat="37.88274197282035" lon="-2.8746165671281125"><ele>1329.0</ele><time>2026-04-20T17:43:52.999Z</time></trkpt><trkpt lat="37.882693103116615" lon="-2.8747333386592273"><ele>1329.0</ele><time>2026-04-20T17:43:53.999Z</time></trkpt><trkpt lat="37.88263855491923" lon="-2.8748475807812155"><ele>1329.0</ele><time>2026-04-20T17:43:54.999Z</time></trkpt><trkpt lat="37.88257600587574" lon="-2.8749530434176487"><ele>1329.0</ele><time>2026-04-20T17:43:55.999Z</time></trkpt><trkpt lat="37.882492388681364" lon="-2.875035689518836"><ele>1327.8000000000002</ele><time>2026-04-20T17:43:56.999Z</time></trkpt><trkpt lat="37.88240281977659" lon="-2.875110452526729"><ele>1326.6000000000001</ele><time>2026-04-20T17:43:57.999Z</time></trkpt><trkpt lat="37.88231724749566" lon="-2.8751848903356705"><ele>1325.4</ele><time>2026-04-20T17:43:58.999Z</time></trkpt><trkpt lat="37.88223609387413" lon="-2.8752626354709827"><ele>1324.2</ele><time>2026-04-20T17:43:59.999Z</time></trkpt><trkpt lat="37.88215945200489" lon="-2.875344561728156"><ele>1323.0</ele><time>2026-04-20T17:44:00.999Z</time></trkpt><trkpt lat="37.88209615832991" lon="-2.8754346313708634"><ele>1323.0</ele><time>2026-04-20T17:44:01.999Z</time></trkpt><trkpt lat="37.88205958147336" lon="-2.875545759198571"><ele>1323.0</ele><time>2026-04-20T17:44:02.999Z</time></trkpt><trkpt lat="37.8820460811855" lon="-2.875667962605709"><ele>1323.0</ele><time>2026-04-20T17:44:03.999Z</time></trkpt><trkpt lat="37.88204081506068" lon="-2.8757825675189106"><ele>1323.0</ele><time>2026-04-20T17:44:04.999Z</time></trkpt><trkpt lat="37.88202915875519" lon="-2.875886576727107"><ele>1323.0</ele><time>2026-04-20T17:44:05.999Z</time></trkpt><trkpt lat="37.8820056935513" lon="-2.875982402007941"><ele>1323.0</ele><time>2026-04-20T17:44:06.999Z</time></trkpt><trkpt lat="37.88199200181542" lon="-2.876078080155273"><ele>1324.1666666666667</ele><time>2026-04-20T17:44:07.999Z</time></trkpt><trkpt lat="37.881981120533574" lon="-2.8761727153206587"><ele>1325.3333333333333</ele><time>2026-04-20T17:44:08.999Z</time></trkpt><trkpt lat="37.881980839625804" lon="-2.8762776386041313"><ele>1326.5</ele><time>2026-04-20T17:44:09.999Z</time></trkpt><trkpt lat="37.8819867718513" lon="-2.876388199290036"><ele>1327.6666666666665</ele><time>2026-04-20T17:44:10.999Z</time></trkpt><trkpt lat="37.88198983244885" lon="-2.8764965104190594"><ele>1328.8333333333333</ele><time>2026-04-20T17:44:11.999Z</time></trkpt><trkpt lat="37.88198257995583" lon="-2.8765986673063173"><ele>1330.0</ele><time>2026-04-20T17:44:12.999Z</time></trkpt><trkpt lat="37.881946502631116" lon="-2.876692792242426"><ele>1330.0</ele><time>2026-04-20T17:44:13.999Z</time></trkpt><trkpt lat="37.88189296482873" lon="-2.876767844005665"><ele>1330.0</ele><time>2026-04-20T17:44:14.999Z</time></trkpt><trkpt lat="37.881849890358964" lon="-2.876840495938291"><ele>1330.0</ele><time>2026-04-20T17:44:15.999Z</time></trkpt><trkpt lat="37.88181498923899" lon="-2.8769330502368167"><ele>1330.0</ele><time>2026-04-20T17:44:16.999Z</time></trkpt><trkpt lat="37.88178846438497" lon="-2.87702927532142"><ele>1330.0</ele><time>2026-04-20T17:44:17.999Z</time></trkpt><trkpt lat="37.88176394204308" lon="-2.877126262633066"><ele>1330.0</ele><time>2026-04-20T17:44:18.999Z</time></trkpt><trkpt lat="37.88174406296602" lon="-2.8772290198214425"><ele>1324.8333333333333</ele><time>2026-04-20T17:44:19.999Z</time></trkpt><trkpt lat="37.8817339209651" lon="-2.8773315111738804"><ele>1319.6666666666665</ele><time>2026-04-20T17:44:20.999Z</time></trkpt><trkpt lat="37.881741069875325" lon="-2.8774436600072337"><ele>1314.5</ele><time>2026-04-20T17:44:21.999Z</time></trkpt><trkpt lat="37.88176104202122" lon="-2.877550324943104"><ele>1309.3333333333333</ele><time>2026-04-20T17:44:22.999Z</time></trkpt><trkpt lat="37.881779995008664" lon="-2.8776613362914434"><ele>1304.1666666666667</ele><time>2026-04-20T17:44:23.999Z</time></trkpt><trkpt lat="37.88179601170726" lon="-2.8777826993949804"><ele>1299.0</ele><time>2026-04-20T17:44:24.999Z</time></trkpt><trkpt lat="37.88180985988007" lon="-2.877908318740161"><ele>1299.0</ele><time>2026-04-20T17:44:25.999Z</time></trkpt><trkpt lat="37.88182160728609" lon="-2.8780333118206"><ele>1299.0</ele><time>2026-04-20T17:44:26.999Z</time></trkpt><trkpt lat="37.88183184423354" lon="-2.878148702872854"><ele>1299.0</ele><time>2026-04-20T17:44:27.999Z</time></trkpt><trkpt lat="37.88183697926956" lon="-2.878266801078738"><ele>1299.0</ele><time>2026-04-20T17:44:28.999Z</time></trkpt><trkpt lat="37.8818469380715" lon="-2.8783794300818673"><ele>1299.0</ele><time>2026-04-20T17:44:29.999Z</time></trkpt><trkpt lat="37.881863104522004" lon="-2.8784792895821387"><ele>1297.3333333333333</ele><time>2026-04-20T17:44:30.999Z</time></trkpt><trkpt lat="37.88193549179189" lon="-2.878611717475042"><ele>1295.6666666666667</ele><time>2026-04-20T17:44:32.999Z</time></trkpt><trkpt lat="37.882006324084756" lon="-2.878657525190421"><ele>1294.0</ele><time>2026-04-20T17:44:33.999Z</time></trkpt><trkpt lat="37.8820741905221" lon="-2.8786777767045733"><ele>1292.3333333333335</ele><time>2026-04-20T17:44:34.999Z</time></trkpt><trkpt lat="37.88214872719834" lon="-2.878652516932863"><ele>1290.6666666666667</ele><time>2026-04-20T17:44:35.999Z</time></trkpt><trkpt lat="37.88222225997385" lon="-2.878601669990086"><ele>1289.0</ele><time>2026-04-20T17:44:36.998Z</time></trkpt><trkpt lat="37.88226858225864" lon="-2.8785066567019566"><ele>1291.0</ele><time>2026-04-20T17:44:37.998Z</time></trkpt><trkpt lat="37.88231092480657" lon="-2.87841377396293"><ele>1293.0</ele><time>2026-04-20T17:44:38.998Z</time></trkpt><trkpt lat="37.88238191843459" lon="-2.8783070942179534"><ele>1295.0</ele><time>2026-04-20T17:44:39.998Z</time></trkpt><trkpt lat="37.88244371602269" lon="-2.878185372177962"><ele>1297.0</ele><time>2026-04-20T17:44:40.999Z</time></trkpt><trkpt lat="37.88249930748865" lon="-2.8780887469207017"><ele>1299.0</ele><time>2026-04-20T17:44:41.999Z</time></trkpt><trkpt lat="37.88255702430008" lon="-2.878010244443901"><ele>1296.5</ele><time>2026-04-20T17:44:42.999Z</time></trkpt><trkpt lat="37.88264150961617" lon="-2.8779675285219426"><ele>1294.0</ele><time>2026-04-20T17:44:43.999Z</time></trkpt><trkpt lat="37.8827545686772" lon="-2.877952224428487"><ele>1291.5</ele><time>2026-04-20T17:44:44.999Z</time></trkpt><trkpt lat="37.88289777998701" lon="-2.877965852060545"><ele>1289.0</ele><time>2026-04-20T17:44:45.999Z</time></trkpt><trkpt lat="37.8830499834887" lon="-2.8779823173398342"><ele>1289.0</ele><time>2026-04-20T17:44:46.999Z</time></trkpt><trkpt lat="37.88320020981458" lon="-2.8779643358120772"><ele>1289.0</ele><time>2026-04-20T17:44:47.999Z</time></trkpt><trkpt lat="37.883336306306745" lon="-2.877923496104366"><ele>1289.0</ele><time>2026-04-20T17:44:48.999Z</time></trkpt><trkpt lat="37.88346684825324" lon="-2.8778770136463074"><ele>1289.0</ele><time>2026-04-20T17:44:49.999Z</time></trkpt><trkpt lat="37.88358859890631" lon="-2.8778362705046705"><ele>1289.3333333333335</ele><time>2026-04-20T17:44:50.999Z</time></trkpt><trkpt lat="37.88370534626799" lon="-2.877756663885516"><ele>1289.6666666666667</ele><time>2026-04-20T17:44:51.999Z</time></trkpt><trkpt lat="37.88382426160439" lon="-2.877649972278363"><ele>1290.0</ele><time>2026-04-20T17:44:52.999Z</time></trkpt><trkpt lat="37.883980535976306" lon="-2.8775235639574883"><ele>1290.0</ele><time>2026-04-20T17:44:53.999Z</time></trkpt><trkpt lat="37.884129198690985" lon="-2.8773689437159344"><ele>1290.0</ele><time>2026-04-20T17:44:54.999Z</time></trkpt><trkpt lat="37.8842987860745" lon="-2.877215849674072"><ele>1290.0</ele><time>2026-04-20T17:44:55.999Z</time></trkpt><trkpt lat="37.88449612802747" lon="-2.8770589538685836"><ele>1289.6666666666667</ele><time>2026-04-20T17:44:56.999Z</time></trkpt><trkpt lat="37.88467049868534" lon="-2.876930608825525"><ele>1289.3333333333335</ele><time>2026-04-20T17:44:57.999Z</time></trkpt><trkpt lat="37.88482387742178" lon="-2.876798016321503"><ele>1289.0</ele><time>2026-04-20T17:44:58.999Z</time></trkpt><trkpt lat="37.88495648031344" lon="-2.8766896380690294"><ele>1289.0</ele><time>2026-04-20T17:44:59.999Z</time></trkpt><trkpt lat="37.88508009700178" lon="-2.87658423994086"><ele>1289.0</ele><time>2026-04-20T17:45:00.999Z</time></trkpt><trkpt lat="37.88520072365929" lon="-2.876486793974656"><ele>1289.0</ele><time>2026-04-20T17:45:01.999Z</time></trkpt><trkpt lat="37.88530671490158" lon="-2.8763933079537765"><ele>1289.0</ele><time>2026-04-20T17:45:02.999Z</time></trkpt><trkpt lat="37.885397001558296" lon="-2.8763281197669426"><ele>1287.8000000000002</ele><time>2026-04-20T17:45:03.999Z</time></trkpt><trkpt lat="37.88547551150153" lon="-2.876275199054672"><ele>1286.6000000000001</ele><time>2026-04-20T17:45:04.999Z</time></trkpt><trkpt lat="37.885565466628165" lon="-2.8762449660170257"><ele>1285.4</ele><time>2026-04-20T17:45:05.999Z</time></trkpt><trkpt lat="37.88567021994609" lon="-2.8762461531878802"><ele>1284.2</ele><time>2026-04-20T17:45:06.999Z</time></trkpt><trkpt lat="37.88577256315331" lon="-2.8763004943803687"><ele>1283.0</ele><time>2026-04-20T17:45:07.999Z</time></trkpt><trkpt lat="37.88587344395499" lon="-2.8763707534712286"><ele>1281.75</ele><time>2026-04-20T17:45:08.999Z</time></trkpt><trkpt lat="37.885971417522256" lon="-2.8764462760731946"><ele>1280.5</ele><time>2026-04-20T17:45:09.999Z</time></trkpt><trkpt lat="37.88606580142854" lon="-2.876575469738534"><ele>1279.25</ele><time>2026-04-20T17:45:10.999Z</time></trkpt><trkpt lat="37.886170590457304" lon="-2.8767268250496727"><ele>1278.0</ele><time>2026-04-20T17:45:11.999Z</time></trkpt><trkpt lat="37.88627601439151" lon="-2.8768881048144266"><ele>1277.6666666666667</ele><time>2026-04-20T17:45:12.999Z</time></trkpt><trkpt lat="37.88638879424915" lon="-2.877049915875878"><ele>1277.3333333333335</ele><time>2026-04-20T17:45:13.999Z</time></trkpt><trkpt lat="37.88649088339282" lon="-2.877190625013616"><ele>1277.0</ele><time>2026-04-20T17:45:14.999Z</time></trkpt><trkpt lat="37.88659013141213" lon="-2.877328772111545"><ele>1277.0</ele><time>2026-04-20T17:45:15.999Z</time></trkpt><trkpt lat="37.88667235365741" lon="-2.8774423756956624"><ele>1277.0</ele><time>2026-04-20T17:45:16.999Z</time></trkpt><trkpt lat="37.88674343860102" lon="-2.8775382060195733"><ele>1277.0</ele><time>2026-04-20T17:45:17.999Z</time></trkpt><trkpt lat="37.88678808601183" lon="-2.8776388516165214"><ele>1277.0</ele><time>2026-04-20T17:45:18.999Z</time></trkpt><trkpt lat="37.88682038438332" lon="-2.877743305717394"><ele>1277.0</ele><time>2026-04-20T17:45:19.999Z</time></trkpt><trkpt lat="37.88683431881792" lon="-2.877866027021797"><ele>1279.0</ele><time>2026-04-20T17:45:20.999Z</time></trkpt><trkpt lat="37.886815092364365" lon="-2.8779828704066603"><ele>1281.0</ele><time>2026-04-20T17:45:21.999Z</time></trkpt><trkpt lat="37.88677063846135" lon="-2.878093587402183"><ele>1283.0</ele><time>2026-04-20T17:45:22.999Z</time></trkpt><trkpt lat="37.88670817076102" lon="-2.878213249186215"><ele>1285.0</ele><time>2026-04-20T17:45:23.999Z</time></trkpt><trkpt lat="37.88664819085338" lon="-2.878363538976781"><ele>1287.0</ele><time>2026-04-20T17:45:24.999Z</time></trkpt><trkpt lat="37.88657290855608" lon="-2.878529952159355"><ele>1291.3333333333333</ele><time>2026-04-20T17:45:25.999Z</time></trkpt><trkpt lat="37.886490253333015" lon="-2.878705829778713"><ele>1295.6666666666665</ele><time>2026-04-20T17:45:26.999Z</time></trkpt><trkpt lat="37.88640352149555" lon="-2.8788889423342745"><ele>1300.0</ele><time>2026-04-20T17:45:27.999Z</time></trkpt><trkpt lat="37.88631800933765" lon="-2.8790697865713826"><ele>1300.0</ele><time>2026-04-20T17:45:28.999Z</time></trkpt><trkpt lat="37.88625379492754" lon="-2.879232095222873"><ele>1300.0</ele><time>2026-04-20T17:45:29.999Z</time></trkpt><trkpt lat="37.88619251727954" lon="-2.8793568573082373"><ele>1300.0</ele><time>2026-04-20T17:45:30.999Z</time></trkpt><trkpt lat="37.88614216876494" lon="-2.879460385921889"><ele>1300.0</ele><time>2026-04-20T17:45:31.999Z</time></trkpt><trkpt lat="37.88612260175054" lon="-2.8795647995538314"><ele>1300.0</ele><time>2026-04-20T17:45:32.999Z</time></trkpt><trkpt lat="37.88613056575784" lon="-2.8796940804347257"><ele>1301.0</ele><time>2026-04-20T17:45:33.999Z</time></trkpt><trkpt lat="37.88617096677527" lon="-2.879820886262421"><ele>1302.0</ele><time>2026-04-20T17:45:34.999Z</time></trkpt><trkpt lat="37.886236271652244" lon="-2.8799241395346997"><ele>1303.0</ele><time>2026-04-20T17:45:35.999Z</time></trkpt><trkpt lat="37.88633455681928" lon="-2.8800349919505885"><ele>1304.0</ele><time>2026-04-20T17:45:36.999Z</time></trkpt><trkpt lat="37.8864419124523" lon="-2.880171661559727"><ele>1301.0</ele><time>2026-04-20T17:45:37.999Z</time></trkpt><trkpt lat="37.886558771679056" lon="-2.880344823209136"><ele>1298.0</ele><time>2026-04-20T17:45:38.999Z</time></trkpt><trkpt lat="37.88662754665525" lon="-2.880540612881838"><ele>1295.0</ele><time>2026-04-20T17:45:39.999Z</time></trkpt><trkpt lat="37.88670090710141" lon="-2.8807081428119004"><ele>1299.3333333333335</ele><time>2026-04-20T17:45:40.999Z</time></trkpt><trkpt lat="37.88676303353481" lon="-2.880869808672388"><ele>1303.6666666666667</ele><time>2026-04-20T17:45:41.999Z</time></trkpt><trkpt lat="37.88686905850944" lon="-2.8810249465709834"><ele>1308.0</ele><time>2026-04-20T17:45:42.999Z</time></trkpt><trkpt lat="37.88698058054125" lon="-2.881175407896045"><ele>1308.0</ele><time>2026-04-20T17:45:43.999Z</time></trkpt><trkpt lat="37.887096700023385" lon="-2.8813087031777624"><ele>1308.0</ele><time>2026-04-20T17:45:44.999Z</time></trkpt><trkpt lat="37.88720890446823" lon="-2.8814260105297747"><ele>1308.0</ele><time>2026-04-20T17:45:45.999Z</time></trkpt><trkpt lat="37.88729229489074" lon="-2.8815517850423076"><ele>1308.0</ele><time>2026-04-20T17:45:46.999Z</time></trkpt><trkpt lat="37.88738290512074" lon="-2.8816737862930086"><ele>1309.6000000000001</ele><time>2026-04-20T17:45:47.999Z</time></trkpt><trkpt lat="37.88746142974981" lon="-2.881774680628466"><ele>1311.2</ele><time>2026-04-20T17:45:48.999Z</time></trkpt><trkpt lat="37.887526125176514" lon="-2.8818611535227223"><ele>1312.8</ele><time>2026-04-20T17:45:49.999Z</time></trkpt><trkpt lat="37.887593136766675" lon="-2.8819453708006053"><ele>1314.4</ele><time>2026-04-20T17:45:50.999Z</time></trkpt><trkpt lat="37.88767073048088" lon="-2.882007698976407"><ele>1316.0</ele><time>2026-04-20T17:45:51.999Z</time></trkpt><trkpt lat="37.8877334334233" lon="-2.8820894539170223"><ele>1316.0</ele><time>2026-04-20T17:45:52.999Z</time></trkpt><trkpt lat="37.887800890413395" lon="-2.882150044277018"><ele>1316.0</ele><time>2026-04-20T17:45:53.999Z</time></trkpt><trkpt lat="37.887875247006455" lon="-2.8822083853910128"><ele>1316.0</ele><time>2026-04-20T17:45:54.999Z</time></trkpt><trkpt lat="37.8879527122512" lon="-2.88226043454101"><ele>1316.0</ele><time>2026-04-20T17:45:55.999Z</time></trkpt><trkpt lat="37.88802949085356" lon="-2.8823201817860986"><ele>1316.0</ele><time>2026-04-20T17:45:56.999Z</time></trkpt><trkpt lat="37.88809365056372" lon="-2.882391339535887"><ele>1316.0</ele><time>2026-04-20T17:45:57.999Z</time></trkpt><trkpt lat="37.88821075662393" lon="-2.8824506645807757"><ele>1316.0</ele><time>2026-04-20T17:45:58.999Z</time></trkpt><trkpt lat="37.88835988034946" lon="-2.88255279104126"><ele>1316.0</ele><time>2026-04-20T17:45:59.999Z</time></trkpt><trkpt lat="37.888507747555856" lon="-2.8827120478142145"><ele>1316.0</ele><time>2026-04-20T17:46:00.999Z</time></trkpt><trkpt lat="37.888664738057024" lon="-2.882825318224638"><ele>1315.3333333333335</ele><time>2026-04-20T17:46:01.999Z</time></trkpt><trkpt lat="37.888839894073975" lon="-2.882967770329763"><ele>1314.6666666666667</ele><time>2026-04-20T17:46:02.999Z</time></trkpt><trkpt lat="37.88897852199003" lon="-2.883085388706296"><ele>1314.0</ele><time>2026-04-20T17:46:03.999Z</time></trkpt><trkpt lat="37.889104101068824" lon="-2.883200653533014"><ele>1314.0</ele><time>2026-04-20T17:46:04.999Z</time></trkpt><trkpt lat="37.88921717883091" lon="-2.88329350693096"><ele>1314.0</ele><time>2026-04-20T17:46:05.999Z</time></trkpt><trkpt lat="37.88932660535837" lon="-2.8833954331235416"><ele>1314.0</ele><time>2026-04-20T17:46:06.999Z</time></trkpt><trkpt lat="37.889450098235" lon="-2.883474067203761"><ele>1314.0</ele><time>2026-04-20T17:46:07.999Z</time></trkpt><trkpt lat="37.8895994977577" lon="-2.883554649019504"><ele>1315.3333333333333</ele><time>2026-04-20T17:46:08.999Z</time></trkpt><trkpt lat="37.889802184319215" lon="-2.8836296507595516"><ele>1316.6666666666665</ele><time>2026-04-20T17:46:09.999Z</time></trkpt><trkpt lat="37.88996871409179" lon="-2.8837144929895606"><ele>1318.0</ele><time>2026-04-20T17:46:10.999Z</time></trkpt><trkpt lat="37.89011404229848" lon="-2.88376757387419"><ele>1323.25</ele><time>2026-04-20T17:46:11.999Z</time></trkpt><trkpt lat="37.890233009735276" lon="-2.8838074876058606"><ele>1328.5</ele><time>2026-04-20T17:46:12.999Z</time></trkpt><trkpt lat="37.89033983543117" lon="-2.8838661178766274"><ele>1333.75</ele><time>2026-04-20T17:46:13.999Z</time></trkpt><trkpt lat="37.890469589864644" lon="-2.8839569347841874"><ele>1339.0</ele><time>2026-04-20T17:46:14.999Z</time></trkpt><trkpt lat="37.8906090867426" lon="-2.8840779332014965"><ele>1339.0</ele><time>2026-04-20T17:46:15.999Z</time></trkpt><trkpt lat="37.89075935598873" lon="-2.884202685705895"><ele>1339.0</ele><time>2026-04-20T17:46:16.999Z</time></trkpt><trkpt lat="37.89091256022207" lon="-2.884312492327733"><ele>1339.0</ele><time>2026-04-20T17:46:17.999Z</time></trkpt><trkpt lat="37.89103309774619" lon="-2.8844434777885133"><ele>1342.0</ele><time>2026-04-20T17:46:18.999Z</time></trkpt><trkpt lat="37.89115038561779" lon="-2.884578955173257"><ele>1345.0</ele><time>2026-04-20T17:46:19.999Z</time></trkpt><trkpt lat="37.891254004404516" lon="-2.884734791085675"><ele>1348.0</ele><time>2026-04-20T17:46:20.999Z</time></trkpt><trkpt lat="37.89135083462658" lon="-2.884901489671257"><ele>1348.0</ele><time>2026-04-20T17:46:21.999Z</time></trkpt><trkpt lat="37.89147754868789" lon="-2.8850643914440277"><ele>1348.0</ele><time>2026-04-20T17:46:22.999Z</time></trkpt><trkpt lat="37.89159449569884" lon="-2.885217370655323"><ele>1348.0</ele><time>2026-04-20T17:46:23.999Z</time></trkpt><trkpt lat="37.89172726303298" lon="-2.8853617582907547"><ele>1350.6666666666665</ele><time>2026-04-20T17:46:24.999Z</time></trkpt><trkpt lat="37.89187064794539" lon="-2.8854991468689537"><ele>1353.3333333333333</ele><time>2026-04-20T17:46:25.999Z</time></trkpt><trkpt lat="37.89201153199945" lon="-2.8856461556047766"><ele>1356.0</ele><time>2026-04-20T17:46:26.999Z</time></trkpt><trkpt lat="37.89214202580768" lon="-2.88577293000265"><ele>1356.0</ele><time>2026-04-20T17:46:27.999Z</time></trkpt><trkpt lat="37.89224718074886" lon="-2.8859151155428275"><ele>1356.0</ele><time>2026-04-20T17:46:28.999Z</time></trkpt><trkpt lat="37.89235535052562" lon="-2.8860810502493552"><ele>1356.0</ele><time>2026-04-20T17:46:29.999Z</time></trkpt><trkpt lat="37.892458023253155" lon="-2.886193076461622"><ele>1358.75</ele><time>2026-04-20T17:46:30.999Z</time></trkpt><trkpt lat="37.89253810215174" lon="-2.8863055484719737"><ele>1361.5</ele><time>2026-04-20T17:46:31.999Z</time></trkpt><trkpt lat="37.892600445521765" lon="-2.886447156332145"><ele>1364.25</ele><time>2026-04-20T17:46:32.999Z</time></trkpt><trkpt lat="37.89263673591272" lon="-2.8866117875970327"><ele>1367.0</ele><time>2026-04-20T17:46:33.999Z</time></trkpt><trkpt lat="37.892681280647984" lon="-2.8867254674796765"><ele>1360.3333333333335</ele><time>2026-04-20T17:46:34.999Z</time></trkpt><trkpt lat="37.89275929859106" lon="-2.8868526261143064"><ele>1353.6666666666667</ele><time>2026-04-20T17:46:35.999Z</time></trkpt><trkpt lat="37.892906197389735" lon="-2.8869429463743317"><ele>1347.0</ele><time>2026-04-20T17:46:36.999Z</time></trkpt><trkpt lat="37.893033401154696" lon="-2.887081690506612"><ele>1347.0</ele><time>2026-04-20T17:46:37.999Z</time></trkpt><trkpt lat="37.8931403840958" lon="-2.8871959854076574"><ele>1347.0</ele><time>2026-04-20T17:46:38.999Z</time></trkpt><trkpt lat="37.893228482423396" lon="-2.8872928736048866"><ele>1347.0</ele><time>2026-04-20T17:46:39.999Z</time></trkpt><trkpt lat="37.89330899981956" lon="-2.887372998556257"><ele>1347.0</ele><time>2026-04-20T17:46:40.999Z</time></trkpt><trkpt lat="37.89342552038767" lon="-2.887401082481679"><ele>1349.75</ele><time>2026-04-20T17:46:41.999Z</time></trkpt><trkpt lat="37.89350349537583" lon="-2.8874062672779064"><ele>1352.5</ele><time>2026-04-20T17:46:42.999Z</time></trkpt><trkpt lat="37.89358756086567" lon="-2.8873258596061926"><ele>1355.25</ele><time>2026-04-20T17:46:43.998Z</time></trkpt><trkpt lat="37.893723892651494" lon="-2.8872757657819896"><ele>1358.0</ele><time>2026-04-20T17:46:44.998Z</time></trkpt><trkpt lat="37.89385366666986" lon="-2.88728121285944"><ele>1358.0</ele><time>2026-04-20T17:46:45.998Z</time></trkpt><trkpt lat="37.894008130142424" lon="-2.887285909385283"><ele>1358.0</ele><time>2026-04-20T17:46:46.998Z</time></trkpt><trkpt lat="37.89415045642754" lon="-2.8873024216306926"><ele>1358.0</ele><time>2026-04-20T17:46:47.998Z</time></trkpt><trkpt lat="37.89430124689676" lon="-2.887317885656688"><ele>1358.0</ele><time>2026-04-20T17:46:48.998Z</time></trkpt><trkpt lat="37.89443907606689" lon="-2.8873240385905006"><ele>1361.75</ele><time>2026-04-20T17:46:49.998Z</time></trkpt><trkpt lat="37.89456902966896" lon="-2.887378355177773"><ele>1365.5</ele><time>2026-04-20T17:46:50.998Z</time></trkpt><trkpt lat="37.89471015191773" lon="-2.8874367570516375"><ele>1369.25</ele><time>2026-04-20T17:46:51.998Z</time></trkpt><trkpt lat="37.89484888873304" lon="-2.8875082231652955"><ele>1373.0</ele><time>2026-04-20T17:46:52.999Z</time></trkpt><trkpt lat="37.89496124263193" lon="-2.8875676868613684"><ele>1373.6666666666667</ele><time>2026-04-20T17:46:53.999Z</time></trkpt><trkpt lat="37.895030859083384" lon="-2.8876256479527744"><ele>1374.3333333333335</ele><time>2026-04-20T17:46:54.999Z</time></trkpt><trkpt lat="37.895082003436805" lon="-2.8876957879860137"><ele>1375.0</ele><time>2026-04-20T17:46:55.999Z</time></trkpt><trkpt lat="37.89512351922404" lon="-2.887778292584927"><ele>1375.6666666666667</ele><time>2026-04-20T17:46:56.999Z</time></trkpt><trkpt lat="37.895130504179235" lon="-2.887890310181772"><ele>1376.3333333333333</ele><time>2026-04-20T17:46:57.999Z</time></trkpt><trkpt lat="37.895093293449534" lon="-2.8879726160494634"><ele>1377.0</ele><time>2026-04-20T17:46:58.999Z</time></trkpt><trkpt lat="37.89502567697922" lon="-2.888083226344146"><ele>1377.0</ele><time>2026-04-20T17:46:59.999Z</time></trkpt><trkpt lat="37.89492809454643" lon="-2.8882096493031204"><ele>1377.0</ele><time>2026-04-20T17:47:00.999Z</time></trkpt><trkpt lat="37.89482547029803" lon="-2.8883573442270385"><ele>1377.0</ele><time>2026-04-20T17:47:01.999Z</time></trkpt><trkpt lat="37.894763333476824" lon="-2.888520779446582"><ele>1377.0</ele><time>2026-04-20T17:47:02.999Z</time></trkpt><trkpt lat="37.89471014884191" lon="-2.88867702622615"><ele>1382.6666666666667</ele><time>2026-04-20T17:47:03.999Z</time></trkpt><trkpt lat="37.894605533863256" lon="-2.888824191834396"><ele>1388.3333333333335</ele><time>2026-04-20T17:47:04.999Z</time></trkpt><trkpt lat="37.89446790472221" lon="-2.8889547763581276"><ele>1394.0</ele><time>2026-04-20T17:47:05.999Z</time></trkpt><trkpt lat="37.894352144361044" lon="-2.8890770468729343"><ele>1394.0</ele><time>2026-04-20T17:47:06.999Z</time></trkpt><trkpt lat="37.8942762285463" lon="-2.8892228062877066"><ele>1394.0</ele><time>2026-04-20T17:47:07.999Z</time></trkpt><trkpt lat="37.89422036416291" lon="-2.889368887278356"><ele>1394.0</ele><time>2026-04-20T17:47:08.999Z</time></trkpt><trkpt lat="37.894177509859475" lon="-2.8895066188470233"><ele>1394.0</ele><time>2026-04-20T17:47:09.999Z</time></trkpt><trkpt lat="37.89414932876493" lon="-2.8896169254975006"><ele>1393.6</ele><time>2026-04-20T17:47:10.999Z</time></trkpt><trkpt lat="37.89415905182086" lon="-2.889716161571442"><ele>1393.2</ele><time>2026-04-20T17:47:11.999Z</time></trkpt><trkpt lat="37.894209870132336" lon="-2.889818447513379"><ele>1392.8</ele><time>2026-04-20T17:47:12.999Z</time></trkpt><trkpt lat="37.89431443044188" lon="-2.889901616193338"><ele>1392.3999999999999</ele><time>2026-04-20T17:47:13.999Z</time></trkpt><trkpt lat="37.89438680920322" lon="-2.8900251482890136"><ele>1392.0</ele><time>2026-04-20T17:47:14.999Z</time></trkpt><trkpt lat="37.89444371404784" lon="-2.8901559448877148"><ele>1392.0</ele><time>2026-04-20T17:47:15.999Z</time></trkpt><trkpt lat="37.89447844782612" lon="-2.8903261700082763"><ele>1392.0</ele><time>2026-04-20T17:47:16.999Z</time></trkpt><trkpt lat="37.894521879529066" lon="-2.8905190991646634"><ele>1392.0</ele><time>2026-04-20T17:47:17.999Z</time></trkpt><trkpt lat="37.89455615864843" lon="-2.8906818451176908"><ele>1392.0</ele><time>2026-04-20T17:47:18.999Z</time></trkpt><trkpt lat="37.89457350416182" lon="-2.8908289877067452"><ele>1388.25</ele><time>2026-04-20T17:47:19.999Z</time></trkpt><trkpt lat="37.8945962198508" lon="-2.890967427568179"><ele>1384.5</ele><time>2026-04-20T17:47:20.999Z</time></trkpt><trkpt lat="37.894634341448715" lon="-2.8910753109173397"><ele>1380.75</ele><time>2026-04-20T17:47:21.999Z</time></trkpt><trkpt lat="37.894691323866525" lon="-2.8912110906633024"><ele>1377.0</ele><time>2026-04-20T17:47:22.999Z</time></trkpt><trkpt lat="37.89476832601613" lon="-2.8913341916315414"><ele>1377.0</ele><time>2026-04-20T17:47:23.999Z</time></trkpt><trkpt lat="37.8948844204563" lon="-2.8914318797739225"><ele>1377.0</ele><time>2026-04-20T17:47:24.999Z</time></trkpt><trkpt lat="37.895012549336016" lon="-2.891527481795034"><ele>1377.0</ele><time>2026-04-20T17:47:25.999Z</time></trkpt><trkpt lat="37.89512419317214" lon="-2.891626723375817"><ele>1377.0</ele><time>2026-04-20T17:47:26.999Z</time></trkpt><trkpt lat="37.89522220459301" lon="-2.8917563845656686"><ele>1379.6666666666667</ele><time>2026-04-20T17:47:27.999Z</time></trkpt><trkpt lat="37.89532376516601" lon="-2.8919082329542554"><ele>1382.3333333333335</ele><time>2026-04-20T17:47:28.999Z</time></trkpt><trkpt lat="37.895425281388746" lon="-2.892080988938657"><ele>1385.0</ele><time>2026-04-20T17:47:29.999Z</time></trkpt><trkpt lat="37.89553632033019" lon="-2.8922572697984803"><ele>1385.0</ele><time>2026-04-20T17:47:30.999Z</time></trkpt><trkpt lat="37.89564625646604" lon="-2.892422027806972"><ele>1385.0</ele><time>2026-04-20T17:47:31.999Z</time></trkpt><trkpt lat="37.89574627633507" lon="-2.892581165148249"><ele>1385.0</ele><time>2026-04-20T17:47:32.999Z</time></trkpt><trkpt lat="37.895842207061506" lon="-2.8927270312583593"><ele>1385.25</ele><time>2026-04-20T17:47:33.999Z</time></trkpt><trkpt lat="37.895924023766035" lon="-2.8928829809267587"><ele>1385.5</ele><time>2026-04-20T17:47:34.999Z</time></trkpt><trkpt lat="37.895995971903005" lon="-2.8930195849655385"><ele>1385.75</ele><time>2026-04-20T17:47:35.999Z</time></trkpt><trkpt lat="37.89605392562516" lon="-2.89313906873507"><ele>1386.0</ele><time>2026-04-20T17:47:36.999Z</time></trkpt><trkpt lat="37.89611347228678" lon="-2.8932466478449714"><ele>1386.0</ele><time>2026-04-20T17:47:37.999Z</time></trkpt><trkpt lat="37.89613426620903" lon="-2.89336515554616"><ele>1386.0</ele><time>2026-04-20T17:47:38.999Z</time></trkpt><trkpt lat="37.896135291603905" lon="-2.8934834969682184"><ele>1386.0</ele><time>2026-04-20T17:47:39.999Z</time></trkpt><trkpt lat="37.89612559375819" lon="-2.8935991876855867"><ele>1386.0</ele><time>2026-04-20T17:47:40.999Z</time></trkpt><trkpt lat="37.89612410698416" lon="-2.893707949938302"><ele>1386.0</ele><time>2026-04-20T17:47:41.999Z</time></trkpt><trkpt lat="37.896143478744996" lon="-2.8937968431047927"><ele>1386.0</ele><time>2026-04-20T17:47:42.999Z</time></trkpt><trkpt lat="37.89617531126774" lon="-2.893877457603762"><ele>1387.1999999999998</ele><time>2026-04-20T17:47:43.999Z</time></trkpt><trkpt lat="37.89621052473112" lon="-2.893953723493353"><ele>1388.3999999999999</ele><time>2026-04-20T17:47:44.999Z</time></trkpt><trkpt lat="37.89630393807272" lon="-2.8939511584527615"><ele>1389.6</ele><time>2026-04-20T17:47:45.999Z</time></trkpt><trkpt lat="37.896387170962036" lon="-2.8939718611296557"><ele>1390.8</ele><time>2026-04-20T17:47:46.999Z</time></trkpt><trkpt lat="37.89650044886435" lon="-2.89397529266486"><ele>1392.0</ele><time>2026-04-20T17:47:47.999Z</time></trkpt><trkpt lat="37.89666903655037" lon="-2.893982918563387"><ele>1392.3333333333333</ele><time>2026-04-20T17:47:48.999Z</time></trkpt><trkpt lat="37.896870079505796" lon="-2.894039141568375"><ele>1392.6666666666665</ele><time>2026-04-20T17:47:49.999Z</time></trkpt><trkpt lat="37.897080597132195" lon="-2.8941071942971286"><ele>1393.0</ele><time>2026-04-20T17:47:50.999Z</time></trkpt><trkpt lat="37.89728057578308" lon="-2.894147132829364"><ele>1393.0</ele><time>2026-04-20T17:47:51.999Z</time></trkpt><trkpt lat="37.89744647018055" lon="-2.894178020847724"><ele>1393.0</ele><time>2026-04-20T17:47:52.999Z</time></trkpt><trkpt lat="37.897572950282665" lon="-2.8941899805635596"><ele>1393.0</ele><time>2026-04-20T17:47:53.999Z</time></trkpt><trkpt lat="37.89770069022013" lon="-2.8941530492005083"><ele>1393.0</ele><time>2026-04-20T17:47:54.999Z</time></trkpt><trkpt lat="37.8978412001243" lon="-2.894109332217783"><ele>1393.6666666666665</ele><time>2026-04-20T17:47:55.999Z</time></trkpt><trkpt lat="37.89800341402775" lon="-2.894034552084881"><ele>1394.3333333333333</ele><time>2026-04-20T17:47:56.999Z</time></trkpt><trkpt lat="37.898174103706296" lon="-2.893960351537462"><ele>1395.0</ele><time>2026-04-20T17:47:57.999Z</time></trkpt><trkpt lat="37.898366225798405" lon="-2.8939259171691636"><ele>1395.0</ele><time>2026-04-20T17:47:58.999Z</time></trkpt><trkpt lat="37.89853971585927" lon="-2.893915180906492"><ele>1395.0</ele><time>2026-04-20T17:47:59.999Z</time></trkpt><trkpt lat="37.898684850165345" lon="-2.893904014898322"><ele>1395.0</ele><time>2026-04-20T17:48:00.999Z</time></trkpt><trkpt lat="37.898807778722514" lon="-2.8939037427845626"><ele>1395.0</ele><time>2026-04-20T17:48:01.999Z</time></trkpt><trkpt lat="37.8989374105302" lon="-2.8939304366885334"><ele>1395.0</ele><time>2026-04-20T17:48:02.999Z</time></trkpt><trkpt lat="37.89907162371195" lon="-2.8940053646079393"><ele>1395.0</ele><time>2026-04-20T17:48:03.999Z</time></trkpt><trkpt lat="37.899171873802636" lon="-2.8940967759065503"><ele>1395.0</ele><time>2026-04-20T17:48:04.999Z</time></trkpt><trkpt lat="37.8992759128989" lon="-2.894192515771957"><ele>1395.0</ele><time>2026-04-20T17:48:05.999Z</time></trkpt><trkpt lat="37.899379899338705" lon="-2.8943483822550324"><ele>1396.5</ele><time>2026-04-20T17:48:06.999Z</time></trkpt><trkpt lat="37.89948023516476" lon="-2.894519944180922"><ele>1398.0</ele><time>2026-04-20T17:48:07.999Z</time></trkpt><trkpt lat="37.89957180410872" lon="-2.894640821816806"><ele>1399.5</ele><time>2026-04-20T17:48:08.999Z</time></trkpt><trkpt lat="37.89965414881322" lon="-2.8947117937329816"><ele>1401.0</ele><time>2026-04-20T17:48:09.999Z</time></trkpt><trkpt lat="37.89975864594973" lon="-2.894741827146245"><ele>1401.0</ele><time>2026-04-20T17:48:10.999Z</time></trkpt><trkpt lat="37.89988371391672" lon="-2.8947507266645833"><ele>1401.0</ele><time>2026-04-20T17:48:11.999Z</time></trkpt><trkpt lat="37.900046547345866" lon="-2.894752822163474"><ele>1401.0</ele><time>2026-04-20T17:48:12.999Z</time></trkpt><trkpt lat="37.90020442022377" lon="-2.8947364977913432"><ele>1401.0</ele><time>2026-04-20T17:48:13.999Z</time></trkpt><trkpt lat="37.900342837860514" lon="-2.8946738698702226"><ele>1402.0</ele><time>2026-04-20T17:48:14.999Z</time></trkpt><trkpt lat="37.90049964420996" lon="-2.8946083721267146"><ele>1403.0</ele><time>2026-04-20T17:48:15.999Z</time></trkpt><trkpt lat="37.90065895891033" lon="-2.894532909108205"><ele>1404.0</ele><time>2026-04-20T17:48:16.999Z</time></trkpt><trkpt lat="37.900825223415616" lon="-2.894503347300328"><ele>1405.25</ele><time>2026-04-20T17:48:17.999Z</time></trkpt><trkpt lat="37.90099665062439" lon="-2.894490617828471"><ele>1406.5</ele><time>2026-04-20T17:48:18.999Z</time></trkpt><trkpt lat="37.90113365221257" lon="-2.894476306611618"><ele>1407.75</ele><time>2026-04-20T17:48:19.999Z</time></trkpt><trkpt lat="37.90126480221508" lon="-2.8944414132000325"><ele>1409.0</ele><time>2026-04-20T17:48:20.999Z</time></trkpt><trkpt lat="37.90139535226296" lon="-2.894342993519284"><ele>1407.0</ele><time>2026-04-20T17:48:21.999Z</time></trkpt><trkpt lat="37.901551382390025" lon="-2.894250889709557"><ele>1405.0</ele><time>2026-04-20T17:48:22.999Z</time></trkpt><trkpt lat="37.90168314082866" lon="-2.8941412936460105"><ele>1403.0</ele><time>2026-04-20T17:48:23.999Z</time></trkpt><trkpt lat="37.90180048531664" lon="-2.8940637396459183"><ele>1403.0</ele><time>2026-04-20T17:48:24.999Z</time></trkpt><trkpt lat="37.901911211256035" lon="-2.8940154378992062"><ele>1403.0</ele><time>2026-04-20T17:48:25.999Z</time></trkpt><trkpt lat="37.90201663282994" lon="-2.89398913792821"><ele>1403.0</ele><time>2026-04-20T17:48:26.999Z</time></trkpt><trkpt lat="37.902112976827155" lon="-2.893980224842435"><ele>1403.0</ele><time>2026-04-20T17:48:27.999Z</time></trkpt><trkpt lat="37.90221604360689" lon="-2.894021366868353"><ele>1403.0</ele><time>2026-04-20T17:48:28.999Z</time></trkpt><trkpt lat="37.90233403899693" lon="-2.8941045388403253"><ele>1403.0</ele><time>2026-04-20T17:48:29.999Z</time></trkpt><trkpt lat="37.90246108891896" lon="-2.8942051262180226"><ele>1403.0</ele><time>2026-04-20T17:48:30.999Z</time></trkpt><trkpt lat="37.90260655531216" lon="-2.894276582939785"><ele>1403.0</ele><time>2026-04-20T17:48:31.999Z</time></trkpt><trkpt lat="37.90277339108318" lon="-2.8942935838535124"><ele>1407.25</ele><time>2026-04-20T17:48:32.999Z</time></trkpt><trkpt lat="37.90292733483269" lon="-2.8942961568790126"><ele>1411.5</ele><time>2026-04-20T17:48:33.999Z</time></trkpt><trkpt lat="37.90305108908118" lon="-2.8943134014151104"><ele>1415.75</ele><time>2026-04-20T17:48:34.999Z</time></trkpt><trkpt lat="37.90316510263686" lon="-2.8943667391221624"><ele>1420.0</ele><time>2026-04-20T17:48:35.999Z</time></trkpt><trkpt lat="37.903285295151946" lon="-2.894474782370605"><ele>1418.0</ele><time>2026-04-20T17:48:36.999Z</time></trkpt><trkpt lat="37.90342488917586" lon="-2.894580187668351"><ele>1416.0</ele><time>2026-04-20T17:48:37.999Z</time></trkpt><trkpt lat="37.90359725367837" lon="-2.8946361033815626"><ele>1414.0</ele><time>2026-04-20T17:48:38.999Z</time></trkpt><trkpt lat="37.90376933104412" lon="-2.8947139490123543"><ele>1414.0</ele><time>2026-04-20T17:48:39.999Z</time></trkpt><trkpt lat="37.903912093480784" lon="-2.8947698514414943"><ele>1414.0</ele><time>2026-04-20T17:48:40.999Z</time></trkpt><trkpt lat="37.90404103509522" lon="-2.8948148250182224"><ele>1414.0</ele><time>2026-04-20T17:48:41.999Z</time></trkpt><trkpt lat="37.90415452455833" lon="-2.8948399304041375"><ele>1414.0</ele><time>2026-04-20T17:48:42.999Z</time></trkpt><trkpt lat="37.90425641550385" lon="-2.8948556440115976"><ele>1414.5</ele><time>2026-04-20T17:48:43.999Z</time></trkpt><trkpt lat="37.90435150948445" lon="-2.8948989895678605"><ele>1415.0</ele><time>2026-04-20T17:48:44.999Z</time></trkpt><trkpt lat="37.90446145431032" lon="-2.8949823364659824"><ele>1415.5</ele><time>2026-04-20T17:48:45.999Z</time></trkpt><trkpt lat="37.90457439761062" lon="-2.8950974966147287"><ele>1416.0</ele><time>2026-04-20T17:48:46.999Z</time></trkpt><trkpt lat="37.904699347771775" lon="-2.895206626099432"><ele>1416.0</ele><time>2026-04-20T17:48:47.999Z</time></trkpt><trkpt lat="37.90484555342637" lon="-2.895283188443356"><ele>1416.0</ele><time>2026-04-20T17:48:48.999Z</time></trkpt><trkpt lat="37.905001279105896" lon="-2.8953381230039668"><ele>1416.0</ele><time>2026-04-20T17:48:49.999Z</time></trkpt><trkpt lat="37.90513478922965" lon="-2.8954204245000743"><ele>1421.3333333333333</ele><time>2026-04-20T17:48:50.999Z</time></trkpt><trkpt lat="37.90525956528463" lon="-2.895529665290134"><ele>1426.6666666666665</ele><time>2026-04-20T17:48:51.999Z</time></trkpt><trkpt lat="37.90536962923799" lon="-2.8956889365730962"><ele>1432.0</ele><time>2026-04-20T17:48:52.999Z</time></trkpt><trkpt lat="37.905479116728145" lon="-2.895857818255835"><ele>1430.3333333333333</ele><time>2026-04-20T17:48:53.999Z</time></trkpt><trkpt lat="37.90559264886698" lon="-2.8960257410138794"><ele>1428.6666666666667</ele><time>2026-04-20T17:48:54.999Z</time></trkpt><trkpt lat="37.905709781561036" lon="-2.8961843642732967"><ele>1427.0</ele><time>2026-04-20T17:48:55.999Z</time></trkpt><trkpt lat="37.905823911185806" lon="-2.8963316966377475"><ele>1427.3999999999999</ele><time>2026-04-20T17:48:56.999Z</time></trkpt><trkpt lat="37.90591924604445" lon="-2.8964597066578257"><ele>1427.8</ele><time>2026-04-20T17:48:57.999Z</time></trkpt><trkpt lat="37.905985462430124" lon="-2.8965701038858778"><ele>1428.2</ele><time>2026-04-20T17:48:58.999Z</time></trkpt><trkpt lat="37.906066877972876" lon="-2.8966401196942773"><ele>1428.6</ele><time>2026-04-20T17:48:59.999Z</time></trkpt><trkpt lat="37.90614066047942" lon="-2.896706659343972"><ele>1429.0</ele><time>2026-04-20T17:49:00.999Z</time></trkpt><trkpt lat="37.90622409400267" lon="-2.896767964989862"><ele>1429.0</ele><time>2026-04-20T17:49:01.999Z</time></trkpt><trkpt lat="37.90631351495736" lon="-2.8968276934056476"><ele>1429.0</ele><time>2026-04-20T17:49:02.999Z</time></trkpt><trkpt lat="37.906406315169434" lon="-2.89686727516886"><ele>1429.0</ele><time>2026-04-20T17:49:03.999Z</time></trkpt><trkpt lat="37.90649498377614" lon="-2.8969054741078892"><ele>1429.0</ele><time>2026-04-20T17:49:04.999Z</time></trkpt><trkpt lat="37.9065628467337" lon="-2.896928734173605"><ele>1429.0</ele><time>2026-04-20T17:49:05.999Z</time></trkpt><trkpt lat="37.90665416114686" lon="-2.896935387296773"><ele>1429.0</ele><time>2026-04-20T17:49:08Z</time></trkpt><trkpt lat="37.90672278583786" lon="-2.896951671307161"><ele>1429.0</ele><time>2026-04-20T17:49:10Z</time></trkpt><trkpt lat="37.906796220764214" lon="-2.896967206782928"><ele>1429.0</ele><time>2026-04-20T17:49:13Z</time></trkpt><trkpt lat="37.90688418600073" lon="-2.8969802763706713"><ele>1429.0</ele><time>2026-04-20T17:49:16Z</time></trkpt><trkpt lat="37.90697032032201" lon="-2.896994205372953"><ele>1429.0</ele><time>2026-04-20T17:49:19Z</time></trkpt><trkpt lat="37.90705914325343" lon="-2.897020089837611"><ele>1429.0</ele><time>2026-04-20T17:49:22Z</time></trkpt><trkpt lat="37.90719923545231" lon="-2.8970370606238154"><ele>1430.2</ele><time>2026-04-20T17:49:24Z</time></trkpt><trkpt lat="37.90727472610381" lon="-2.8970525759831185"><ele>1431.4</ele><time>2026-04-20T17:49:25Z</time></trkpt><trkpt lat="37.90737592126308" lon="-2.8970726004501905"><ele>1432.6</ele><time>2026-04-20T17:49:26Z</time></trkpt><trkpt lat="37.907498987129635" lon="-2.897098163071835"><ele>1433.8</ele><time>2026-04-20T17:49:27Z</time></trkpt><trkpt lat="37.907639009709555" lon="-2.897143761923674"><ele>1435.0</ele><time>2026-04-20T17:49:28Z</time></trkpt><trkpt lat="37.90773299666579" lon="-2.897196756709415"><ele>1436.5</ele><time>2026-04-20T17:49:29Z</time></trkpt><trkpt lat="37.90783435199509" lon="-2.8972089929544333"><ele>1438.0</ele><time>2026-04-20T17:49:30Z</time></trkpt><trkpt lat="37.90790833393167" lon="-2.8972433847339523"><ele>1439.5</ele><time>2026-04-20T17:49:31Z</time></trkpt><trkpt lat="37.90799266508612" lon="-2.8972923859866833"><ele>1441.0</ele><time>2026-04-20T17:49:33Z</time></trkpt><trkpt lat="37.908083969157026" lon="-2.897355745985799"><ele>1442.5</ele><time>2026-04-20T17:49:43Z</time></trkpt><trkpt lat="37.90813923727342" lon="-2.8973986609639804"><ele>1444.0</ele><time>2026-04-20T17:49:44Z</time></trkpt><trkpt lat="37.90820434131673" lon="-2.8974916792908227"><ele>1444.0</ele><time>2026-04-20T17:49:45Z</time></trkpt><trkpt lat="37.90829554498581" lon="-2.8975579093333685"><ele>1444.0</ele><time>2026-04-20T17:49:46Z</time></trkpt><trkpt lat="37.90840068084831" lon="-2.8976443888050603"><ele>1444.0</ele><time>2026-04-20T17:49:47Z</time></trkpt><trkpt lat="37.90850868799915" lon="-2.897730320657122"><ele>1444.0</ele><time>2026-04-20T17:49:48Z</time></trkpt><trkpt lat="37.908607208634976" lon="-2.8978161260867"><ele>1444.3333333333333</ele><time>2026-04-20T17:49:49Z</time></trkpt><trkpt lat="37.90869912444716" lon="-2.897889347901612"><ele>1444.6666666666665</ele><time>2026-04-20T17:49:50Z</time></trkpt><trkpt lat="37.908778628845695" lon="-2.8979533426305872"><ele>1445.0</ele><time>2026-04-20T17:49:51Z</time></trkpt><trkpt lat="37.90884696675151" lon="-2.8980090067676634"><ele>1445.3333333333333</ele><time>2026-04-20T17:49:52Z</time></trkpt><trkpt lat="37.908902318651506" lon="-2.8980650726114896"><ele>1445.6666666666667</ele><time>2026-04-20T17:49:53Z</time></trkpt><trkpt lat="37.90894781860431" lon="-2.8981430355337765"><ele>1446.0</ele><time>2026-04-20T17:49:54Z</time></trkpt><trkpt lat="37.90900715276031" lon="-2.8983435458303375"><ele>1446.8</ele><time>2026-04-20T17:49:55.999Z</time></trkpt><trkpt lat="37.90900755875435" lon="-2.898458909903556"><ele>1447.6</ele><time>2026-04-20T17:49:56.999Z</time></trkpt><trkpt lat="37.9089848990453" lon="-2.898572294242497"><ele>1448.4</ele><time>2026-04-20T17:49:57.999Z</time></trkpt><trkpt lat="37.908937433524954" lon="-2.8986772056258236"><ele>1449.2</ele><time>2026-04-20T17:49:58.999Z</time></trkpt><trkpt lat="37.908876739259505" lon="-2.898773288504174"><ele>1450.0</ele><time>2026-04-20T17:49:59.999Z</time></trkpt><trkpt lat="37.90880472614153" lon="-2.8988729222589353"><ele>1450.0</ele><time>2026-04-20T17:50:00.999Z</time></trkpt><trkpt lat="37.90872719405179" lon="-2.898968053452886"><ele>1450.0</ele><time>2026-04-20T17:50:01.999Z</time></trkpt><trkpt lat="37.908647167820554" lon="-2.89905700319671"><ele>1450.0</ele><time>2026-04-20T17:50:02.999Z</time></trkpt><trkpt lat="37.90858397467859" lon="-2.8991357660851076"><ele>1450.0</ele><time>2026-04-20T17:50:03.999Z</time></trkpt><trkpt lat="37.90853114603697" lon="-2.8992105315350107"><ele>1450.0</ele><time>2026-04-20T17:50:04.999Z</time></trkpt><trkpt lat="37.9084703427693" lon="-2.899313082738891"><ele>1451.0</ele><time>2026-04-20T17:50:06.999Z</time></trkpt><trkpt lat="37.908406218020474" lon="-2.899350358216903"><ele>1446.0</ele><time>2026-04-20T17:50:09.999Z</time></trkpt></trkseg><trkseg><trkpt lat="37.908340446327" lon="-2.8993758547138393"><ele>1446.0</ele><time>2026-04-20T18:04:23.999Z</time></trkpt><trkpt lat="37.9082158472842" lon="-2.8994599874512477"><ele>1446.0</ele><time>2026-04-20T18:04:25.999Z</time></trkpt><trkpt lat="37.9081443937799" lon="-2.8995225123625183"><ele>1446.0</ele><time>2026-04-20T18:04:26.999Z</time></trkpt><trkpt lat="37.90807194799188" lon="-2.8995791471056145"><ele>1446.0</ele><time>2026-04-20T18:04:27.999Z</time></trkpt><trkpt lat="37.90799005810877" lon="-2.8996707578102847"><ele>1446.0</ele><time>2026-04-20T18:04:28.999Z</time></trkpt><trkpt lat="37.90789998557787" lon="-2.899791942626776"><ele>1446.0</ele><time>2026-04-20T18:04:29.999Z</time></trkpt><trkpt lat="37.90781059982628" lon="-2.89992178283159"><ele>1446.0</ele><time>2026-04-20T18:04:30.999Z</time></trkpt><trkpt lat="37.907722500711216" lon="-2.9000676833591834"><ele>1446.0</ele><time>2026-04-20T18:04:31.999Z</time></trkpt><trkpt lat="37.90765501242308" lon="-2.90022223777387"><ele>1446.0</ele><time>2026-04-20T18:04:32.999Z</time></trkpt><trkpt lat="37.90758188327808" lon="-2.900374102465841"><ele>1447.0</ele><time>2026-04-20T18:04:33.999Z</time></trkpt><trkpt lat="37.90751765412348" lon="-2.90052386833118"><ele>1448.0</ele><time>2026-04-20T18:04:34.999Z</time></trkpt><trkpt lat="37.90746905275027" lon="-2.900667040185528"><ele>1449.0</ele><time>2026-04-20T18:04:35.999Z</time></trkpt><trkpt lat="37.90744225624163" lon="-2.9007948524643097"><ele>1450.0</ele><time>2026-04-20T18:04:36.999Z</time></trkpt><trkpt lat="37.90743858194612" lon="-2.9008965505764377"><ele>1451.0</ele><time>2026-04-20T18:04:37.999Z</time></trkpt><trkpt lat="37.90746200869202" lon="-2.9010303285272845"><ele>1451.8</ele><time>2026-04-20T18:04:38.999Z</time></trkpt><trkpt lat="37.90749037474855" lon="-2.901194715327613"><ele>1452.6</ele><time>2026-04-20T18:04:39.999Z</time></trkpt><trkpt lat="37.90751993919521" lon="-2.90132592744845"><ele>1453.4</ele><time>2026-04-20T18:04:40.999Z</time></trkpt><trkpt lat="37.90756414776697" lon="-2.9014345200874256"><ele>1454.2</ele><time>2026-04-20T18:04:41.999Z</time></trkpt><trkpt lat="37.907626489409594" lon="-2.901547713960213"><ele>1455.0</ele><time>2026-04-20T18:04:42.999Z</time></trkpt><trkpt lat="37.907733067608085" lon="-2.9015921736503802"><ele>1455.6666666666667</ele><time>2026-04-20T18:04:43.999Z</time></trkpt><trkpt lat="37.90785021446399" lon="-2.901676947089072"><ele>1456.3333333333335</ele><time>2026-04-20T18:04:44.999Z</time></trkpt><trkpt lat="37.90799151196606" lon="-2.9017774171582773"><ele>1457.0</ele><time>2026-04-20T18:04:45.999Z</time></trkpt><trkpt lat="37.90812954699633" lon="-2.9018655779737763"><ele>1458.3333333333335</ele><time>2026-04-20T18:04:46.999Z</time></trkpt><trkpt lat="37.90827788416155" lon="-2.9019528396136436"><ele>1459.6666666666667</ele><time>2026-04-20T18:04:47.999Z</time></trkpt><trkpt lat="37.90843676411345" lon="-2.902012770349357"><ele>1461.0</ele><time>2026-04-20T18:04:48.999Z</time></trkpt><trkpt lat="37.90858591505601" lon="-2.9020482298363723"><ele>1461.25</ele><time>2026-04-20T18:04:49.999Z</time></trkpt><trkpt lat="37.908703610860975" lon="-2.902089072231972"><ele>1461.5</ele><time>2026-04-20T18:04:50.999Z</time></trkpt><trkpt lat="37.90881237821715" lon="-2.902117416496438"><ele>1461.75</ele><time>2026-04-20T18:04:51.999Z</time></trkpt><trkpt lat="37.90893086833804" lon="-2.9021118946406474"><ele>1462.0</ele><time>2026-04-20T18:04:52.999Z</time></trkpt><trkpt lat="37.90908669716034" lon="-2.902052692231181"><ele>1461.6666666666665</ele><time>2026-04-20T18:04:53.999Z</time></trkpt><trkpt lat="37.90925479111961" lon="-2.901989063293392"><ele>1461.3333333333333</ele><time>2026-04-20T18:04:54.999Z</time></trkpt><trkpt lat="37.90942226475508" lon="-2.9019209642065125"><ele>1461.0</ele><time>2026-04-20T18:04:55.999Z</time></trkpt><trkpt lat="37.90956945917757" lon="-2.9018566751633883"><ele>1461.0</ele><time>2026-04-20T18:04:56.999Z</time></trkpt><trkpt lat="37.90969983453687" lon="-2.901788139471444"><ele>1461.0</ele><time>2026-04-20T18:04:57.999Z</time></trkpt><trkpt lat="37.909814680259466" lon="-2.9017471074978607"><ele>1461.0</ele><time>2026-04-20T18:04:58.999Z</time></trkpt><trkpt lat="37.9099025806874" lon="-2.901709332583616"><ele>1461.0</ele><time>2026-04-20T18:04:59.999Z</time></trkpt><trkpt lat="37.9099828928083" lon="-2.901692882865286"><ele>1461.0</ele><time>2026-04-20T18:05:00.999Z</time></trkpt><trkpt lat="37.9100623768721" lon="-2.901705186585017"><ele>1457.6</ele><time>2026-04-20T18:05:01.999Z</time></trkpt><trkpt lat="37.91013141434951" lon="-2.901748761481549"><ele>1454.1999999999998</ele><time>2026-04-20T18:05:02.999Z</time></trkpt><trkpt lat="37.91018439697665" lon="-2.901806854311484"><ele>1450.8000000000002</ele><time>2026-04-20T18:05:03.999Z</time></trkpt><trkpt lat="37.910232972491464" lon="-2.9019010922791764"><ele>1447.4</ele><time>2026-04-20T18:05:04.999Z</time></trkpt><trkpt lat="37.91025741109158" lon="-2.902040331613174"><ele>1444.0</ele><time>2026-04-20T18:05:05.999Z</time></trkpt><trkpt lat="37.91028388974012" lon="-2.902185565427905"><ele>1444.0</ele><time>2026-04-20T18:05:06.998Z</time></trkpt><trkpt lat="37.910328655547666" lon="-2.9022887163858626"><ele>1444.0</ele><time>2026-04-20T18:05:07.998Z</time></trkpt><trkpt lat="37.91041961442205" lon="-2.9023577295817518"><ele>1444.0</ele><time>2026-04-20T18:05:08.998Z</time></trkpt><trkpt lat="37.91052712588439" lon="-2.902389259823172"><ele>1444.0</ele><time>2026-04-20T18:05:09.998Z</time></trkpt><trkpt lat="37.910661283194784" lon="-2.9024446704489804"><ele>1444.0</ele><time>2026-04-20T18:05:10.998Z</time></trkpt><trkpt lat="37.91078572607018" lon="-2.9024939420000497"><ele>1444.0</ele><time>2026-04-20T18:05:11.998Z</time></trkpt><trkpt lat="37.91087815726001" lon="-2.902540970170938"><ele>1444.0</ele><time>2026-04-20T18:05:12.998Z</time></trkpt><trkpt lat="37.91094317689684" lon="-2.902609007269574"><ele>1444.0</ele><time>2026-04-20T18:05:13.998Z</time></trkpt><trkpt lat="37.91099192015295" lon="-2.9027311216347074"><ele>1444.0</ele><time>2026-04-20T18:05:14.998Z</time></trkpt><trkpt lat="37.91107446711485" lon="-2.9028453072864457"><ele>1440.8333333333333</ele><time>2026-04-20T18:05:15.998Z</time></trkpt><trkpt lat="37.91114508782309" lon="-2.9029333805649493"><ele>1437.6666666666665</ele><time>2026-04-20T18:05:16.998Z</time></trkpt><trkpt lat="37.91122338654791" lon="-2.9029851730789336"><ele>1434.5</ele><time>2026-04-20T18:05:17.998Z</time></trkpt><trkpt lat="37.91128411913797" lon="-2.90304544422293"><ele>1431.3333333333333</ele><time>2026-04-20T18:05:18.998Z</time></trkpt><trkpt lat="37.91131848412873" lon="-2.9031278973967973"><ele>1428.1666666666667</ele><time>2026-04-20T18:05:19.998Z</time></trkpt><trkpt lat="37.911325906960684" lon="-2.903221771436613"><ele>1425.0</ele><time>2026-04-20T18:05:20.998Z</time></trkpt><trkpt lat="37.91131286952005" lon="-2.9033421204139502"><ele>1421.2</ele><time>2026-04-20T18:05:21.998Z</time></trkpt><trkpt lat="37.911280246228074" lon="-2.903457310943308"><ele>1417.4</ele><time>2026-04-20T18:05:22.998Z</time></trkpt><trkpt lat="37.91124756268047" lon="-2.90356448362482"><ele>1413.6</ele><time>2026-04-20T18:05:23.998Z</time></trkpt><trkpt lat="37.911186411040894" lon="-2.9036449911866726"><ele>1409.8</ele><time>2026-04-20T18:05:24.998Z</time></trkpt><trkpt lat="37.9110998406759" lon="-2.903710443815258"><ele>1406.0</ele><time>2026-04-20T18:05:25.998Z</time></trkpt><trkpt lat="37.91100700782807" lon="-2.9037630259380136"><ele>1410.5</ele><time>2026-04-20T18:05:26.998Z</time></trkpt><trkpt lat="37.91089996548628" lon="-2.9038016636633928"><ele>1415.0</ele><time>2026-04-20T18:05:27.998Z</time></trkpt><trkpt lat="37.910773884075276" lon="-2.903828983746208"><ele>1419.5</ele><time>2026-04-20T18:05:28.998Z</time></trkpt><trkpt lat="37.91065473303557" lon="-2.9038419852091715"><ele>1424.0</ele><time>2026-04-20T18:05:29.998Z</time></trkpt><trkpt lat="37.9105517271837" lon="-2.9038610341481523"><ele>1424.0</ele><time>2026-04-20T18:05:30.998Z</time></trkpt><trkpt lat="37.91045305420604" lon="-2.9039205837103825"><ele>1424.0</ele><time>2026-04-20T18:05:31.998Z</time></trkpt><trkpt lat="37.91034612819235" lon="-2.9040185952372792"><ele>1424.0</ele><time>2026-04-20T18:05:32.998Z</time></trkpt><trkpt lat="37.91022411952271" lon="-2.904138127846927"><ele>1424.0</ele><time>2026-04-20T18:05:33.998Z</time></trkpt><trkpt lat="37.910101851799325" lon="-2.904260942092741"><ele>1420.0</ele><time>2026-04-20T18:05:34.998Z</time></trkpt><trkpt lat="37.90999764465299" lon="-2.9043915922799073"><ele>1416.0</ele><time>2026-04-20T18:05:35.998Z</time></trkpt><trkpt lat="37.90988318414571" lon="-2.9044931506924687"><ele>1412.0</ele><time>2026-04-20T18:05:36.998Z</time></trkpt><trkpt lat="37.90977071002194" lon="-2.9045876826138444"><ele>1408.0</ele><time>2026-04-20T18:05:37.998Z</time></trkpt><trkpt lat="37.90964257851586" lon="-2.9046722577002195"><ele>1408.0</ele><time>2026-04-20T18:05:38.998Z</time></trkpt><trkpt lat="37.909513350080466" lon="-2.9047589229403417"><ele>1408.0</ele><time>2026-04-20T18:05:39.999Z</time></trkpt><trkpt lat="37.909386282824876" lon="-2.904835068226982"><ele>1408.0</ele><time>2026-04-20T18:05:40.999Z</time></trkpt><trkpt lat="37.909269004467326" lon="-2.904895789206216"><ele>1408.0</ele><time>2026-04-20T18:05:41.999Z</time></trkpt><trkpt lat="37.90917546623696" lon="-2.9049897187302833"><ele>1406.75</ele><time>2026-04-20T18:05:42.999Z</time></trkpt><trkpt lat="37.9090772645397" lon="-2.905070681967137"><ele>1405.5</ele><time>2026-04-20T18:05:43.999Z</time></trkpt><trkpt lat="37.90898261989029" lon="-2.905162914660061"><ele>1404.25</ele><time>2026-04-20T18:05:44.999Z</time></trkpt><trkpt lat="37.90889535653369" lon="-2.905263943996235"><ele>1403.0</ele><time>2026-04-20T18:05:45.999Z</time></trkpt><trkpt lat="37.908807393363986" lon="-2.9053739783729537"><ele>1403.0</ele><time>2026-04-20T18:05:46.999Z</time></trkpt><trkpt lat="37.908734969465584" lon="-2.9054561309355096"><ele>1403.0</ele><time>2026-04-20T18:05:47.999Z</time></trkpt><trkpt lat="37.90867937169704" lon="-2.9055265335250344"><ele>1403.0</ele><time>2026-04-20T18:05:48.999Z</time></trkpt><trkpt lat="37.90862310500681" lon="-2.90560918589882"><ele>1403.0</ele><time>2026-04-20T18:05:49.999Z</time></trkpt><trkpt lat="37.90858760891511" lon="-2.905709252267979"><ele>1403.0</ele><time>2026-04-20T18:05:50.999Z</time></trkpt><trkpt lat="37.90859577709643" lon="-2.9058586086637903"><ele>1401.25</ele><time>2026-04-20T18:05:51.999Z</time></trkpt><trkpt lat="37.908613082480336" lon="-2.90601865897114"><ele>1399.5</ele><time>2026-04-20T18:05:52.999Z</time></trkpt><trkpt lat="37.90861812375569" lon="-2.9061796290945185"><ele>1397.75</ele><time>2026-04-20T18:05:53.999Z</time></trkpt><trkpt lat="37.908617385180584" lon="-2.906326241823981"><ele>1396.0</ele><time>2026-04-20T18:05:54.999Z</time></trkpt><trkpt lat="37.90864359581803" lon="-2.906480173102035"><ele>1396.0</ele><time>2026-04-20T18:05:55.999Z</time></trkpt><trkpt lat="37.908699019502244" lon="-2.9066407558740543"><ele>1396.0</ele><time>2026-04-20T18:05:56.999Z</time></trkpt><trkpt lat="37.90877424395534" lon="-2.9068076443178983"><ele>1396.0</ele><time>2026-04-20T18:05:57.999Z</time></trkpt><trkpt lat="37.908839508884526" lon="-2.906989942077361"><ele>1396.0</ele><time>2026-04-20T18:05:58.999Z</time></trkpt><trkpt lat="37.90890076156418" lon="-2.9071684121045878"><ele>1395.75</ele><time>2026-04-20T18:05:59.999Z</time></trkpt><trkpt lat="37.90896092652866" lon="-2.9073330528549746"><ele>1395.5</ele><time>2026-04-20T18:06:00.999Z</time></trkpt><trkpt lat="37.90901403906076" lon="-2.907475658099652"><ele>1395.25</ele><time>2026-04-20T18:06:01.999Z</time></trkpt><trkpt lat="37.90906318354612" lon="-2.9076151883315786"><ele>1395.0</ele><time>2026-04-20T18:06:02.999Z</time></trkpt><trkpt lat="37.90910786648792" lon="-2.9077392752070024"><ele>1395.0</ele><time>2026-04-20T18:06:03.999Z</time></trkpt><trkpt lat="37.90914992230942" lon="-2.9078498820478496"><ele>1395.0</ele><time>2026-04-20T18:06:04.999Z</time></trkpt><trkpt lat="37.90918666867672" lon="-2.907961879069485"><ele>1395.0</ele><time>2026-04-20T18:06:05.999Z</time></trkpt><trkpt lat="37.909206171592906" lon="-2.9080715601804323"><ele>1395.0</ele><time>2026-04-20T18:06:06.999Z</time></trkpt><trkpt lat="37.9092108632459" lon="-2.9082009366184414"><ele>1395.0</ele><time>2026-04-20T18:06:07.999Z</time></trkpt><trkpt lat="37.90919108022707" lon="-2.9083374233982533"><ele>1393.8333333333333</ele><time>2026-04-20T18:06:08.999Z</time></trkpt><trkpt lat="37.90915720187826" lon="-2.908458324029953"><ele>1392.6666666666667</ele><time>2026-04-20T18:06:09.999Z</time></trkpt><trkpt lat="37.909124438427064" lon="-2.9085662034573283"><ele>1391.5</ele><time>2026-04-20T18:06:10.999Z</time></trkpt><trkpt lat="37.9090800291301" lon="-2.90865657108401"><ele>1390.3333333333335</ele><time>2026-04-20T18:06:11.999Z</time></trkpt><trkpt lat="37.90902165225218" lon="-2.9087378990072654"><ele>1389.1666666666667</ele><time>2026-04-20T18:06:12.999Z</time></trkpt><trkpt lat="37.908962626044726" lon="-2.908799131195044"><ele>1388.0</ele><time>2026-04-20T18:06:13.999Z</time></trkpt><trkpt lat="37.908889765184426" lon="-2.9088284579926627"><ele>1388.0</ele><time>2026-04-20T18:06:14.999Z</time></trkpt><trkpt lat="37.908814082027256" lon="-2.908831818133852"><ele>1388.0</ele><time>2026-04-20T18:06:15.999Z</time></trkpt><trkpt lat="37.90873183872113" lon="-2.908822551497013"><ele>1388.0</ele><time>2026-04-20T18:06:16.999Z</time></trkpt><trkpt lat="37.90866203217464" lon="-2.908776654706251"><ele>1388.0</ele><time>2026-04-20T18:06:17.999Z</time></trkpt><trkpt lat="37.90861378600587" lon="-2.9086932966341625"><ele>1388.0</ele><time>2026-04-20T18:06:18.999Z</time></trkpt><trkpt lat="37.90858722592132" lon="-2.9086052002368565"><ele>1388.0</ele><time>2026-04-20T18:06:19.999Z</time></trkpt><trkpt lat="37.90861571557156" lon="-2.908495071556539"><ele>1387.8333333333335</ele><time>2026-04-20T18:06:20.999Z</time></trkpt><trkpt lat="37.90860889794213" lon="-2.9083767550102495"><ele>1387.6666666666667</ele><time>2026-04-20T18:06:21.999Z</time></trkpt><trkpt lat="37.90859899023759" lon="-2.908250796185332"><ele>1387.5</ele><time>2026-04-20T18:06:22.999Z</time></trkpt><trkpt lat="37.908572119985266" lon="-2.908148666456849"><ele>1387.3333333333333</ele><time>2026-04-20T18:06:23.999Z</time></trkpt><trkpt lat="37.90853700237753" lon="-2.9080651455331967"><ele>1387.1666666666665</ele><time>2026-04-20T18:06:24.999Z</time></trkpt><trkpt lat="37.90847326598002" lon="-2.9079949924824766"><ele>1387.0</ele><time>2026-04-20T18:06:25.999Z</time></trkpt><trkpt lat="37.90836608079477" lon="-2.907969400622725"><ele>1387.0</ele><time>2026-04-20T18:06:26.999Z</time></trkpt><trkpt lat="37.90825860501055" lon="-2.907939276195891"><ele>1387.0</ele><time>2026-04-20T18:06:27.999Z</time></trkpt><trkpt lat="37.90814021785223" lon="-2.9079168579184116"><ele>1387.0</ele><time>2026-04-20T18:06:28.999Z</time></trkpt><trkpt lat="37.908019968291136" lon="-2.9079171062109888"><ele>1387.0</ele><time>2026-04-20T18:06:29.999Z</time></trkpt><trkpt lat="37.90788577843215" lon="-2.907932537023577"><ele>1387.0</ele><time>2026-04-20T18:06:30.999Z</time></trkpt><trkpt lat="37.907742232712856" lon="-2.907975916150561"><ele>1387.0</ele><time>2026-04-20T18:06:31.999Z</time></trkpt><trkpt lat="37.90760584674242" lon="-2.9080186913691035"><ele>1387.0</ele><time>2026-04-20T18:06:32.999Z</time></trkpt><trkpt lat="37.90748681640026" lon="-2.9080504454554266"><ele>1387.0</ele><time>2026-04-20T18:06:33.999Z</time></trkpt><trkpt lat="37.90737653285613" lon="-2.9080705053140146"><ele>1382.25</ele><time>2026-04-20T18:06:34.999Z</time></trkpt><trkpt lat="37.907272797773054" lon="-2.908086256088968"><ele>1377.5</ele><time>2026-04-20T18:06:35.999Z</time></trkpt><trkpt lat="37.907172216340946" lon="-2.908071394963566"><ele>1372.75</ele><time>2026-04-20T18:06:36.999Z</time></trkpt><trkpt lat="37.90705586826214" lon="-2.90802242164041"><ele>1368.0</ele><time>2026-04-20T18:06:37.999Z</time></trkpt><trkpt lat="37.90693040009552" lon="-2.9079925611001456"><ele>1368.0</ele><time>2026-04-20T18:06:38.999Z</time></trkpt><trkpt lat="37.9068269541099" lon="-2.907947769795155"><ele>1368.0</ele><time>2026-04-20T18:06:39.999Z</time></trkpt><trkpt lat="37.90673220177277" lon="-2.9078825729553284"><ele>1368.0</ele><time>2026-04-20T18:06:40.999Z</time></trkpt><trkpt lat="37.90664531669581" lon="-2.9078035971887313"><ele>1368.0</ele><time>2026-04-20T18:06:41.999Z</time></trkpt><trkpt lat="37.906559512926236" lon="-2.9077178228861302"><ele>1368.0</ele><time>2026-04-20T18:06:42.999Z</time></trkpt><trkpt lat="37.90647447798307" lon="-2.9076788838547882"><ele>1364.75</ele><time>2026-04-20T18:06:43.999Z</time></trkpt><trkpt lat="37.906393273917445" lon="-2.907714055151698"><ele>1361.5</ele><time>2026-04-20T18:06:44.999Z</time></trkpt><trkpt lat="37.906291719191444" lon="-2.9077450835085004"><ele>1358.25</ele><time>2026-04-20T18:06:45.999Z</time></trkpt><trkpt lat="37.906187505211676" lon="-2.9078180297707554"><ele>1355.0</ele><time>2026-04-20T18:06:46.999Z</time></trkpt><trkpt lat="37.90606040584237" lon="-2.9078951093488676"><ele>1355.0</ele><time>2026-04-20T18:06:47.999Z</time></trkpt><trkpt lat="37.90593713439091" lon="-2.9079869850363558"><ele>1355.0</ele><time>2026-04-20T18:06:48.999Z</time></trkpt><trkpt lat="37.90580111197877" lon="-2.9081049768393745"><ele>1355.0</ele><time>2026-04-20T18:06:49.999Z</time></trkpt><trkpt lat="37.90567427903785" lon="-2.90822086029213"><ele>1355.6666666666667</ele><time>2026-04-20T18:06:50.999Z</time></trkpt><trkpt lat="37.905546235247854" lon="-2.908336100483013"><ele>1356.3333333333333</ele><time>2026-04-20T18:06:51.999Z</time></trkpt><trkpt lat="37.90541558241697" lon="-2.9084408512686406"><ele>1357.0</ele><time>2026-04-20T18:06:52.999Z</time></trkpt><trkpt lat="37.905297400396925" lon="-2.9085358024166017"><ele>1353.5</ele><time>2026-04-20T18:06:53.999Z</time></trkpt><trkpt lat="37.90517946012528" lon="-2.9086283284877883"><ele>1350.0</ele><time>2026-04-20T18:06:54.999Z</time></trkpt><trkpt lat="37.905062211268444" lon="-2.908711096845788"><ele>1346.5</ele><time>2026-04-20T18:06:55.999Z</time></trkpt><trkpt lat="37.90495740730425" lon="-2.908782023072661"><ele>1343.0</ele><time>2026-04-20T18:06:56.999Z</time></trkpt><trkpt lat="37.904862740768074" lon="-2.9088436160368096"><ele>1343.0</ele><time>2026-04-20T18:06:57.999Z</time></trkpt><trkpt lat="37.90478026362981" lon="-2.908893738259195"><ele>1343.0</ele><time>2026-04-20T18:06:58.999Z</time></trkpt><trkpt lat="37.904699606335605" lon="-2.9089338954824324"><ele>1343.0</ele><time>2026-04-20T18:06:59.998Z</time></trkpt><trkpt lat="37.90460394390373" lon="-2.9089646436802137"><ele>1343.0</ele><time>2026-04-20T18:07:00.998Z</time></trkpt><trkpt lat="37.9045104512049" lon="-2.90895748425702"><ele>1343.0</ele><time>2026-04-20T18:07:01.998Z</time></trkpt><trkpt lat="37.904409013808944" lon="-2.908888344186273"><ele>1343.0</ele><time>2026-04-20T18:07:02.998Z</time></trkpt><trkpt lat="37.90430297102131" lon="-2.908817637108736"><ele>1343.0</ele><time>2026-04-20T18:07:03.998Z</time></trkpt><trkpt lat="37.904197728925745" lon="-2.9087302910517585"><ele>1343.0</ele><time>2026-04-20T18:07:04.998Z</time></trkpt><trkpt lat="37.9041217733736" lon="-2.9086661708078902"><ele>1343.0</ele><time>2026-04-20T18:07:05.998Z</time></trkpt><trkpt lat="37.90404964729627" lon="-2.908622063508905"><ele>1343.0</ele><time>2026-04-20T18:07:06.998Z</time></trkpt><trkpt lat="37.90398350539693" lon="-2.908612322557994"><ele>1343.3333333333335</ele><time>2026-04-20T18:07:07.998Z</time></trkpt><trkpt lat="37.90390962599552" lon="-2.908661516137052"><ele>1343.6666666666667</ele><time>2026-04-20T18:07:08.998Z</time></trkpt><trkpt lat="37.903844049722125" lon="-2.9087155446885142"><ele>1344.0</ele><time>2026-04-20T18:07:09.998Z</time></trkpt><trkpt lat="37.903802120005345" lon="-2.9088058571724345"><ele>1344.3333333333333</ele><time>2026-04-20T18:07:10.998Z</time></trkpt><trkpt lat="37.90380473365806" lon="-2.9089100661701917"><ele>1344.6666666666665</ele><time>2026-04-20T18:07:11.998Z</time></trkpt><trkpt lat="37.903816231999826" lon="-2.909025827161809"><ele>1345.0</ele><time>2026-04-20T18:07:12.998Z</time></trkpt><trkpt lat="37.90386692993656" lon="-2.9091418395982256"><ele>1342.75</ele><time>2026-04-20T18:07:13.998Z</time></trkpt><trkpt lat="37.90394319825444" lon="-2.909271144413867"><ele>1340.5</ele><time>2026-04-20T18:07:14.998Z</time></trkpt><trkpt lat="37.90404536109716" lon="-2.9094043539321977"><ele>1338.25</ele><time>2026-04-20T18:07:15.998Z</time></trkpt><trkpt lat="37.90414412923703" lon="-2.909527186557221"><ele>1336.0</ele><time>2026-04-20T18:07:16.998Z</time></trkpt><trkpt lat="37.90423759202823" lon="-2.909593068660061"><ele>1334.6</ele><time>2026-04-20T18:07:17.998Z</time></trkpt><trkpt lat="37.904330852989574" lon="-2.9096066309898294"><ele>1333.1999999999998</ele><time>2026-04-20T18:07:18.998Z</time></trkpt><trkpt lat="37.90442889768781" lon="-2.9096454293293594"><ele>1331.8000000000002</ele><time>2026-04-20T18:07:19.998Z</time></trkpt><trkpt lat="37.904523039193116" lon="-2.9096240321029487"><ele>1330.4</ele><time>2026-04-20T18:07:20.998Z</time></trkpt><trkpt lat="37.904617734016206" lon="-2.909541549706803"><ele>1329.0</ele><time>2026-04-20T18:07:21.998Z</time></trkpt><trkpt lat="37.90471232899137" lon="-2.909423675172407"><ele>1329.0</ele><time>2026-04-20T18:07:22.998Z</time></trkpt><trkpt lat="37.90482470821097" lon="-2.9092691867763607"><ele>1329.0</ele><time>2026-04-20T18:07:23.998Z</time></trkpt><trkpt lat="37.9049263632741" lon="-2.9091573960688133"><ele>1329.0</ele><time>2026-04-20T18:07:24.998Z</time></trkpt><trkpt lat="37.90504622224774" lon="-2.9090612405783776"><ele>1329.0</ele><time>2026-04-20T18:07:25.998Z</time></trkpt><trkpt lat="37.90515706139305" lon="-2.9089834632819076"><ele>1327.25</ele><time>2026-04-20T18:07:26.998Z</time></trkpt><trkpt lat="37.90529105683835" lon="-2.9089213408645325"><ele>1325.5</ele><time>2026-04-20T18:07:27.998Z</time></trkpt><trkpt lat="37.90543174647902" lon="-2.9088525095352007"><ele>1323.75</ele><time>2026-04-20T18:07:28.998Z</time></trkpt><trkpt lat="37.905551019159695" lon="-2.9087754381825066"><ele>1322.0</ele><time>2026-04-20T18:07:29.998Z</time></trkpt><trkpt lat="37.90564335480905" lon="-2.9087274143786437"><ele>1322.0</ele><time>2026-04-20T18:07:30.998Z</time></trkpt><trkpt lat="37.90572001614008" lon="-2.908670573923114"><ele>1322.0</ele><time>2026-04-20T18:07:31.998Z</time></trkpt><trkpt lat="37.905804469834834" lon="-2.90860112246072"><ele>1322.0</ele><time>2026-04-20T18:07:32.998Z</time></trkpt><trkpt lat="37.9058783785859" lon="-2.9085691270841587"><ele>1322.0</ele><time>2026-04-20T18:07:33.998Z</time></trkpt><trkpt lat="37.90595078117854" lon="-2.9085468912644803"><ele>1322.0</ele><time>2026-04-20T18:07:34.998Z</time></trkpt><trkpt lat="37.90604263666655" lon="-2.9085706016510486"><ele>1322.0</ele><time>2026-04-20T18:07:35.998Z</time></trkpt><trkpt lat="37.906126508623416" lon="-2.9086365606439433"><ele>1322.3999999999999</ele><time>2026-04-20T18:07:36.998Z</time></trkpt><trkpt lat="37.90619852636841" lon="-2.9087283973979416"><ele>1322.8</ele><time>2026-04-20T18:07:37.998Z</time></trkpt><trkpt lat="37.906261145363914" lon="-2.9088484139179704"><ele>1323.2</ele><time>2026-04-20T18:07:38.998Z</time></trkpt><trkpt lat="37.90631762661556" lon="-2.908957558346328"><ele>1323.6</ele><time>2026-04-20T18:07:39.998Z</time></trkpt><trkpt lat="37.90638161616002" lon="-2.909032481128874"><ele>1324.0</ele><time>2026-04-20T18:07:40.998Z</time></trkpt><trkpt lat="37.90648806388815" lon="-2.9090807922791977"><ele>1324.0</ele><time>2026-04-20T18:07:41.998Z</time></trkpt><trkpt lat="37.906622879155776" lon="-2.9091183156492932"><ele>1324.0</ele><time>2026-04-20T18:07:42.998Z</time></trkpt><trkpt lat="37.90677818009707" lon="-2.9091472469362927"><ele>1324.0</ele><time>2026-04-20T18:07:43.998Z</time></trkpt><trkpt lat="37.906911196534274" lon="-2.9091852915631646"><ele>1324.0</ele><time>2026-04-20T18:07:44.998Z</time></trkpt><trkpt lat="37.90703971670411" lon="-2.9092368741309524"><ele>1325.2</ele><time>2026-04-20T18:07:45.998Z</time></trkpt><trkpt lat="37.90715512563612" lon="-2.909284288505063"><ele>1326.4</ele><time>2026-04-20T18:07:46.998Z</time></trkpt><trkpt lat="37.907257430938536" lon="-2.9093293387063603"><ele>1327.6</ele><time>2026-04-20T18:07:47.998Z</time></trkpt><trkpt lat="37.90734869793555" lon="-2.909376140850465"><ele>1328.8</ele><time>2026-04-20T18:07:48.998Z</time></trkpt><trkpt lat="37.90741768375735" lon="-2.909436051683091"><ele>1330.0</ele><time>2026-04-20T18:07:49.998Z</time></trkpt><trkpt lat="37.90746892955783" lon="-2.9095230921743367"><ele>1330.0</ele><time>2026-04-20T18:07:50.998Z</time></trkpt><trkpt lat="37.907501605994014" lon="-2.9096268848853786"><ele>1330.0</ele><time>2026-04-20T18:07:51.998Z</time></trkpt><trkpt lat="37.90750362280941" lon="-2.909731169728245"><ele>1330.0</ele><time>2026-04-20T18:07:52.998Z</time></trkpt><trkpt lat="37.90747553931276" lon="-2.9098281570966624"><ele>1330.0</ele><time>2026-04-20T18:07:53.999Z</time></trkpt><trkpt lat="37.90741371136983" lon="-2.9099162986296188"><ele>1330.0</ele><time>2026-04-20T18:07:54.999Z</time></trkpt><trkpt lat="37.9073104827334" lon="-2.910001570266919"><ele>1332.75</ele><time>2026-04-20T18:07:55.999Z</time></trkpt><trkpt lat="37.90719289887687" lon="-2.910110801477065"><ele>1335.5</ele><time>2026-04-20T18:07:56.999Z</time></trkpt><trkpt lat="37.907075661634174" lon="-2.910232329963252"><ele>1338.25</ele><time>2026-04-20T18:07:57.999Z</time></trkpt><trkpt lat="37.906977402011236" lon="-2.9103664069136452"><ele>1341.0</ele><time>2026-04-20T18:07:58.999Z</time></trkpt><trkpt lat="37.906900525798605" lon="-2.9104791647957744"><ele>1341.0</ele><time>2026-04-20T18:07:59.999Z</time></trkpt><trkpt lat="37.906830711891885" lon="-2.9105633111163334"><ele>1341.0</ele><time>2026-04-20T18:08:00.999Z</time></trkpt><trkpt lat="37.90678424427267" lon="-2.910656126830301"><ele>1341.0</ele><time>2026-04-20T18:08:01.999Z</time></trkpt><trkpt lat="37.90676612274773" lon="-2.9107606203886585"><ele>1341.0</ele><time>2026-04-20T18:08:02.999Z</time></trkpt><trkpt lat="37.906778412272054" lon="-2.9109005345654753"><ele>1341.0</ele><time>2026-04-20T18:08:03.999Z</time></trkpt><trkpt lat="37.9067963246664" lon="-2.9110664962044783"><ele>1337.8</ele><time>2026-04-20T18:08:04.999Z</time></trkpt><trkpt lat="37.906809985316634" lon="-2.9112154026864236"><ele>1334.6</ele><time>2026-04-20T18:08:05.999Z</time></trkpt><trkpt lat="37.906831061691264" lon="-2.9113443539402986"><ele>1331.4</ele><time>2026-04-20T18:08:06.999Z</time></trkpt><trkpt lat="37.90687200524012" lon="-2.9114370052205087"><ele>1328.2</ele><time>2026-04-20T18:08:07.999Z</time></trkpt><trkpt lat="37.906945928527065" lon="-2.9115282760503263"><ele>1325.0</ele><time>2026-04-20T18:08:08.999Z</time></trkpt><trkpt lat="37.90702881201881" lon="-2.911625135731388"><ele>1325.0</ele><time>2026-04-20T18:08:09.999Z</time></trkpt><trkpt lat="37.90709408343074" lon="-2.9117350407997398"><ele>1325.0</ele><time>2026-04-20T18:08:10.999Z</time></trkpt><trkpt lat="37.90712280787736" lon="-2.91185942115326"><ele>1325.0</ele><time>2026-04-20T18:08:11.999Z</time></trkpt><trkpt lat="37.90712690818046" lon="-2.912002842330898"><ele>1325.0</ele><time>2026-04-20T18:08:12.999Z</time></trkpt><trkpt lat="37.907098135953845" lon="-2.912146375369417"><ele>1325.0</ele><time>2026-04-20T18:08:13.999Z</time></trkpt><trkpt lat="37.90704099283324" lon="-2.9122874818584537"><ele>1322.5</ele><time>2026-04-20T18:08:14.999Z</time></trkpt><trkpt lat="37.90697145870737" lon="-2.912434825185263"><ele>1320.0</ele><time>2026-04-20T18:08:15.999Z</time></trkpt><trkpt lat="37.90691787831831" lon="-2.9125717597583507"><ele>1317.5</ele><time>2026-04-20T18:08:16.999Z</time></trkpt><trkpt lat="37.90688099397816" lon="-2.912704927757027"><ele>1315.0</ele><time>2026-04-20T18:08:17.999Z</time></trkpt><trkpt lat="37.90686033858804" lon="-2.9128308384492807"><ele>1313.1666666666665</ele><time>2026-04-20T18:08:18.999Z</time></trkpt><trkpt lat="37.90685222372253" lon="-2.912943158480701"><ele>1311.3333333333333</ele><time>2026-04-20T18:08:19.999Z</time></trkpt><trkpt lat="37.90685282231111" lon="-2.913029869813228"><ele>1309.5</ele><time>2026-04-20T18:08:20.999Z</time></trkpt><trkpt lat="37.90685834340983" lon="-2.9131162684761436"><ele>1307.6666666666667</ele><time>2026-04-20T18:08:22.999Z</time></trkpt><trkpt lat="37.90688109277343" lon="-2.9132072532475677"><ele>1305.8333333333335</ele><time>2026-04-20T18:08:51.999Z</time></trkpt><trkpt lat="37.90691884222183" lon="-2.913282518610596"><ele>1304.0</ele><time>2026-04-20T18:08:52.999Z</time></trkpt><trkpt lat="37.90697743309181" lon="-2.913349242390693"><ele>1302.25</ele><time>2026-04-20T18:08:53.999Z</time></trkpt><trkpt lat="37.907072093619846" lon="-2.913422488499004"><ele>1300.5</ele><time>2026-04-20T18:08:54.999Z</time></trkpt><trkpt lat="37.90718996416331" lon="-2.9135087892039566"><ele>1298.75</ele><time>2026-04-20T18:08:55.999Z</time></trkpt><trkpt lat="37.907308659853825" lon="-2.9135792011604837"><ele>1297.0</ele><time>2026-04-20T18:08:56.999Z</time></trkpt><trkpt lat="37.90739585964683" lon="-2.9136315695215727"><ele>1297.0</ele><time>2026-04-20T18:08:57.999Z</time></trkpt><trkpt lat="37.907457235390346" lon="-2.913694709001246"><ele>1297.0</ele><time>2026-04-20T18:08:58.999Z</time></trkpt><trkpt lat="37.90750292665387" lon="-2.913759389691578"><ele>1297.0</ele><time>2026-04-20T18:08:59.999Z</time></trkpt><trkpt lat="37.9075342508442" lon="-2.913832611246155"><ele>1297.0</ele><time>2026-04-20T18:09:00.999Z</time></trkpt><trkpt lat="37.907561691467194" lon="-2.9139158458689063"><ele>1297.0</ele><time>2026-04-20T18:09:01.999Z</time></trkpt><trkpt lat="37.907577439814446" lon="-2.914013483037983"><ele>1297.0</ele><time>2026-04-20T18:09:02.999Z</time></trkpt><trkpt lat="37.90757286527165" lon="-2.914118481002561"><ele>1297.0</ele><time>2026-04-20T18:09:03.999Z</time></trkpt><trkpt lat="37.90753832113756" lon="-2.914221019901921"><ele>1296.1999999999998</ele><time>2026-04-20T18:09:04.999Z</time></trkpt><trkpt lat="37.907473448906586" lon="-2.9143395320036554"><ele>1295.4</ele><time>2026-04-20T18:09:05.999Z</time></trkpt><trkpt lat="37.9074232987584" lon="-2.9144519775741844"><ele>1294.6</ele><time>2026-04-20T18:09:06.999Z</time></trkpt><trkpt lat="37.90739945190141" lon="-2.914549630658069"><ele>1293.8000000000002</ele><time>2026-04-20T18:09:07.999Z</time></trkpt><trkpt lat="37.907418440806495" lon="-2.9146576412780476"><ele>1293.0</ele><time>2026-04-20T18:09:08.998Z</time></trkpt><trkpt lat="37.90746139913793" lon="-2.9147761843334656"><ele>1293.0</ele><time>2026-04-20T18:09:09.998Z</time></trkpt><trkpt lat="37.907519010517575" lon="-2.9148770095149477"><ele>1293.0</ele><time>2026-04-20T18:09:10.998Z</time></trkpt><trkpt lat="37.907555490562366" lon="-2.91498138908291"><ele>1293.0</ele><time>2026-04-20T18:09:11.998Z</time></trkpt><trkpt lat="37.9075546720382" lon="-2.9151036013070244"><ele>1293.0</ele><time>2026-04-20T18:09:12.998Z</time></trkpt><trkpt lat="37.90751421557272" lon="-2.915220594080404"><ele>1293.0</ele><time>2026-04-20T18:09:13.998Z</time></trkpt><trkpt lat="37.907440350258696" lon="-2.9153307907852906"><ele>1294.0</ele><time>2026-04-20T18:09:14.998Z</time></trkpt><trkpt lat="37.90734675305031" lon="-2.915427417975094"><ele>1295.0</ele><time>2026-04-20T18:09:15.998Z</time></trkpt><trkpt lat="37.90725003113257" lon="-2.9155309193501955"><ele>1296.0</ele><time>2026-04-20T18:09:16.998Z</time></trkpt><trkpt lat="37.9071623905915" lon="-2.9156378795244136"><ele>1297.0</ele><time>2026-04-20T18:09:17.998Z</time></trkpt><trkpt lat="37.90707802903845" lon="-2.9157547444844183"><ele>1297.0</ele><time>2026-04-20T18:09:18.998Z</time></trkpt><trkpt lat="37.90699834383069" lon="-2.9158883392246007"><ele>1297.0</ele><time>2026-04-20T18:09:19.998Z</time></trkpt><trkpt lat="37.90693184917765" lon="-2.9160186292598373"><ele>1297.0</ele><time>2026-04-20T18:09:20.998Z</time></trkpt><trkpt lat="37.90688244259394" lon="-2.9161467475308998"><ele>1297.0</ele><time>2026-04-20T18:09:21.998Z</time></trkpt><trkpt lat="37.90684674878596" lon="-2.9163069503064647"><ele>1298.0</ele><time>2026-04-20T18:09:22.998Z</time></trkpt><trkpt lat="37.90682716256366" lon="-2.9164928809903397"><ele>1299.0</ele><time>2026-04-20T18:09:23.998Z</time></trkpt><trkpt lat="37.906800766937984" lon="-2.916665621007098"><ele>1300.0</ele><time>2026-04-20T18:09:24.998Z</time></trkpt><trkpt lat="37.906789099031585" lon="-2.916790251876367"><ele>1301.0</ele><time>2026-04-20T18:09:25.998Z</time></trkpt><trkpt lat="37.90679628457399" lon="-2.9169149698612036"><ele>1296.75</ele><time>2026-04-20T18:09:26.998Z</time></trkpt><trkpt lat="37.90683922617183" lon="-2.917056976248122"><ele>1292.5</ele><time>2026-04-20T18:09:27.998Z</time></trkpt><trkpt lat="37.906905964108894" lon="-2.917226663846879"><ele>1288.25</ele><time>2026-04-20T18:09:28.998Z</time></trkpt><trkpt lat="37.9069569391545" lon="-2.917372231562591"><ele>1284.0</ele><time>2026-04-20T18:09:29.998Z</time></trkpt><trkpt lat="37.9069978740209" lon="-2.9174715486608576"><ele>1284.0</ele><time>2026-04-20T18:09:30.998Z</time></trkpt><trkpt lat="37.907055222692804" lon="-2.9175573915820423"><ele>1284.0</ele><time>2026-04-20T18:09:31.998Z</time></trkpt><trkpt lat="37.907139755391945" lon="-2.917612933058219"><ele>1284.0</ele><time>2026-04-20T18:09:32.998Z</time></trkpt><trkpt lat="37.90724546689021" lon="-2.917634483043392"><ele>1284.0</ele><time>2026-04-20T18:09:33.998Z</time></trkpt><trkpt lat="37.90738271087845" lon="-2.9176192619408265"><ele>1284.0</ele><time>2026-04-20T18:09:34.998Z</time></trkpt><trkpt lat="37.907536440726275" lon="-2.9176145763384147"><ele>1276.0</ele><time>2026-04-20T18:09:35.998Z</time></trkpt><trkpt lat="37.907700683017566" lon="-2.917626454259106"><ele>1268.0</ele><time>2026-04-20T18:09:36.998Z</time></trkpt><trkpt lat="37.907865236475914" lon="-2.917685105475544"><ele>1260.0</ele><time>2026-04-20T18:09:37.998Z</time></trkpt><trkpt lat="37.908037244410785" lon="-2.917743982299404"><ele>1260.0</ele><time>2026-04-20T18:09:38.998Z</time></trkpt><trkpt lat="37.90819211766316" lon="-2.9178129287908727"><ele>1260.0</ele><time>2026-04-20T18:09:39.998Z</time></trkpt><trkpt lat="37.908324102641814" lon="-2.917888041281765"><ele>1260.0</ele><time>2026-04-20T18:09:40.998Z</time></trkpt><trkpt lat="37.908452129421505" lon="-2.9179316145135967"><ele>1260.0</ele><time>2026-04-20T18:09:41.998Z</time></trkpt><trkpt lat="37.90857390502859" lon="-2.917968924263677"><ele>1259.0</ele><time>2026-04-20T18:09:42.998Z</time></trkpt><trkpt lat="37.90870825136333" lon="-2.9179560083666396"><ele>1258.0</ele><time>2026-04-20T18:09:43.998Z</time></trkpt><trkpt lat="37.90885940987142" lon="-2.9179186584684182"><ele>1257.0</ele><time>2026-04-20T18:09:44.998Z</time></trkpt><trkpt lat="37.909012278580505" lon="-2.9178580355083708"><ele>1256.0</ele><time>2026-04-20T18:09:45.998Z</time></trkpt><trkpt lat="37.909140126260084" lon="-2.9178384686254484"><ele>1256.2</ele><time>2026-04-20T18:09:46.998Z</time></trkpt><trkpt lat="37.90924790235005" lon="-2.917779985081971"><ele>1256.3999999999999</ele><time>2026-04-20T18:09:47.998Z</time></trkpt><trkpt lat="37.909333268269066" lon="-2.917722530964592"><ele>1256.6</ele><time>2026-04-20T18:09:48.998Z</time></trkpt><trkpt lat="37.909378781152746" lon="-2.917614283236123"><ele>1256.8</ele><time>2026-04-20T18:09:49.998Z</time></trkpt><trkpt lat="37.90942250258217" lon="-2.9174951258238817"><ele>1257.0</ele><time>2026-04-20T18:09:50.998Z</time></trkpt><trkpt lat="37.909475787911404" lon="-2.9173496214062293"><ele>1257.0</ele><time>2026-04-20T18:09:51.997Z</time></trkpt><trkpt lat="37.90953054529793" lon="-2.9172021013785825"><ele>1257.0</ele><time>2026-04-20T18:09:52.997Z</time></trkpt><trkpt lat="37.909590024698375" lon="-2.9170729583676285"><ele>1257.0</ele><time>2026-04-20T18:09:53.997Z</time></trkpt><trkpt lat="37.909654814776566" lon="-2.9169635968393863"><ele>1257.0</ele><time>2026-04-20T18:09:54.997Z</time></trkpt><trkpt lat="37.90973979488421" lon="-2.9168843784648972"><ele>1257.0</ele><time>2026-04-20T18:09:55.997Z</time></trkpt><trkpt lat="37.90981531689551" lon="-2.91681814932181"><ele>1257.0</ele><time>2026-04-20T18:09:56.997Z</time></trkpt><trkpt lat="37.909918395458185" lon="-2.9167828278204158"><ele>1257.0</ele><time>2026-04-20T18:09:57.998Z</time></trkpt><trkpt lat="37.91003201278119" lon="-2.916771576319944"><ele>1257.0</ele><time>2026-04-20T18:09:58.998Z</time></trkpt><trkpt lat="37.9101443684297" lon="-2.9167565402323694"><ele>1257.0</ele><time>2026-04-20T18:09:59.998Z</time></trkpt><trkpt lat="37.91025104821904" lon="-2.9167003116869537"><ele>1255.25</ele><time>2026-04-20T18:10:00.998Z</time></trkpt><trkpt lat="37.91033700983255" lon="-2.9166085238101522"><ele>1253.5</ele><time>2026-04-20T18:10:01.998Z</time></trkpt><trkpt lat="37.9104307655814" lon="-2.916482293896861"><ele>1251.75</ele><time>2026-04-20T18:10:02.998Z</time></trkpt><trkpt lat="37.91049161319161" lon="-2.9163522754055133"><ele>1250.0</ele><time>2026-04-20T18:10:03.998Z</time></trkpt><trkpt lat="37.91055077393791" lon="-2.9162301509071593"><ele>1250.0</ele><time>2026-04-20T18:10:04.998Z</time></trkpt><trkpt lat="37.9106067946788" lon="-2.916128437486332"><ele>1250.0</ele><time>2026-04-20T18:10:05.998Z</time></trkpt><trkpt lat="37.910687494237415" lon="-2.916045498880249"><ele>1250.0</ele><time>2026-04-20T18:10:06.998Z</time></trkpt><trkpt lat="37.91078628236918" lon="-2.915998939902243"><ele>1250.0</ele><time>2026-04-20T18:10:07.998Z</time></trkpt><trkpt lat="37.910895660122684" lon="-2.9159709449383757"><ele>1250.0</ele><time>2026-04-20T18:10:08.998Z</time></trkpt><trkpt lat="37.910990024927216" lon="-2.9159676908625647"><ele>1246.2</ele><time>2026-04-20T18:10:09.998Z</time></trkpt><trkpt lat="37.911076487045854" lon="-2.9159141214745636"><ele>1242.4</ele><time>2026-04-20T18:10:10.998Z</time></trkpt><trkpt lat="37.91115286410263" lon="-2.915874221730563"><ele>1238.6</ele><time>2026-04-20T18:10:11.998Z</time></trkpt><trkpt lat="37.91116598237146" lon="-2.9157409760286086"><ele>1234.8</ele><time>2026-04-20T18:10:12.998Z</time></trkpt><trkpt lat="37.91112618958389" lon="-2.915638135855101"><ele>1231.0</ele><time>2026-04-20T18:10:13.998Z</time></trkpt><trkpt lat="37.91108719327343" lon="-2.9155170508061232"><ele>1231.0</ele><time>2026-04-20T18:10:14.998Z</time></trkpt><trkpt lat="37.91100129516842" lon="-2.9154143312089738"><ele>1231.0</ele><time>2026-04-20T18:10:15.998Z</time></trkpt><trkpt lat="37.910919724393516" lon="-2.9152797313231904"><ele>1231.0</ele><time>2026-04-20T18:10:16.999Z</time></trkpt><trkpt lat="37.910833604480494" lon="-2.9151168614314407"><ele>1231.0</ele><time>2026-04-20T18:10:17.999Z</time></trkpt><trkpt lat="37.91077412389003" lon="-2.914955438768305"><ele>1240.0</ele><time>2026-04-20T18:10:18.999Z</time></trkpt><trkpt lat="37.91073587461866" lon="-2.9147677211785212"><ele>1249.0</ele><time>2026-04-20T18:10:19.999Z</time></trkpt><trkpt lat="37.910721845612116" lon="-2.9145679545545216"><ele>1258.0</ele><time>2026-04-20T18:10:20.999Z</time></trkpt><trkpt lat="37.910713024692285" lon="-2.9143678940679267"><ele>1257.6</ele><time>2026-04-20T18:10:21.999Z</time></trkpt><trkpt lat="37.910708535819914" lon="-2.9141954686099685"><ele>1257.1999999999998</ele><time>2026-04-20T18:10:22.999Z</time></trkpt><trkpt lat="37.91071540584268" lon="-2.9140600444835107"><ele>1256.8</ele><time>2026-04-20T18:10:23.999Z</time></trkpt><trkpt lat="37.91074442968373" lon="-2.913951121972689"><ele>1256.3999999999999</ele><time>2026-04-20T18:10:24.999Z</time></trkpt><trkpt lat="37.91077947215299" lon="-2.9138614381531416"><ele>1256.0</ele><time>2026-04-20T18:10:25.999Z</time></trkpt><trkpt lat="37.91082344172405" lon="-2.9137930843430437"><ele>1256.0</ele><time>2026-04-20T18:10:26.999Z</time></trkpt><trkpt lat="37.91090628037034" lon="-2.913773427029845"><ele>1256.0</ele><time>2026-04-20T18:10:27.999Z</time></trkpt><trkpt lat="37.911018469199114" lon="-2.9137794760980853"><ele>1256.0</ele><time>2026-04-20T18:10:28.999Z</time></trkpt><trkpt lat="37.91112641883121" lon="-2.913821768173058"><ele>1256.0</ele><time>2026-04-20T18:10:29.999Z</time></trkpt><trkpt lat="37.91122736990301" lon="-2.913909643030659"><ele>1256.0</ele><time>2026-04-20T18:10:30.999Z</time></trkpt><trkpt lat="37.91129469764444" lon="-2.914047162091516"><ele>1255.0</ele><time>2026-04-20T18:10:31.999Z</time></trkpt><trkpt lat="37.911371626754345" lon="-2.914160409773248"><ele>1254.0</ele><time>2026-04-20T18:10:32.999Z</time></trkpt><trkpt lat="37.91144386072227" lon="-2.9142560524745678"><ele>1253.0</ele><time>2026-04-20T18:10:33.999Z</time></trkpt><trkpt lat="37.9115515587452" lon="-2.9143121788615853"><ele>1252.0</ele><time>2026-04-20T18:10:34.999Z</time></trkpt><trkpt lat="37.91168457206092" lon="-2.914338473808026"><ele>1247.5</ele><time>2026-04-20T18:10:35.999Z</time></trkpt><trkpt lat="37.91181079825882" lon="-2.914370456312472"><ele>1243.0</ele><time>2026-04-20T18:10:36.999Z</time></trkpt><trkpt lat="37.91192072250148" lon="-2.91442315627211"><ele>1238.5</ele><time>2026-04-20T18:10:37.999Z</time></trkpt><trkpt lat="37.91200599618562" lon="-2.914514403202213"><ele>1234.0</ele><time>2026-04-20T18:10:38.999Z</time></trkpt><trkpt lat="37.91207948142624" lon="-2.914604921128161"><ele>1234.0</ele><time>2026-04-20T18:10:39.999Z</time></trkpt><trkpt lat="37.912142532503694" lon="-2.9146790957909388"><ele>1234.0</ele><time>2026-04-20T18:10:40.999Z</time></trkpt><trkpt lat="37.9122064796881" lon="-2.9147311026726586"><ele>1234.0</ele><time>2026-04-20T18:10:41.999Z</time></trkpt><trkpt lat="37.9122957609203" lon="-2.9147660813236276"><ele>1234.0</ele><time>2026-04-20T18:10:43.999Z</time></trkpt><trkpt lat="37.91237419865452" lon="-2.9147929005085262"><ele>1234.0</ele><time>2026-04-20T18:21:23.999Z</time></trkpt><trkpt lat="37.91244533115386" lon="-2.9148146429333703"><ele>1234.0</ele><time>2026-04-20T18:21:57.999Z</time></trkpt><trkpt lat="37.912570292117856" lon="-2.914826798009674"><ele>1235.2</ele><time>2026-04-20T18:21:59.999Z</time></trkpt><trkpt lat="37.91266218779398" lon="-2.9148424787352427"><ele>1236.4</ele><time>2026-04-20T18:22:00.999Z</time></trkpt><trkpt lat="37.912771344550116" lon="-2.91485534673961"><ele>1237.6</ele><time>2026-04-20T18:22:01.999Z</time></trkpt><trkpt lat="37.912873818661595" lon="-2.9148600663475412"><ele>1238.8</ele><time>2026-04-20T18:22:02.999Z</time></trkpt><trkpt lat="37.91297308716235" lon="-2.914856113206554"><ele>1240.0</ele><time>2026-04-20T18:22:03.999Z</time></trkpt><trkpt lat="37.91307225119895" lon="-2.9148636322010324"><ele>1240.0</ele><time>2026-04-20T18:22:04.999Z</time></trkpt><trkpt lat="37.91318083430862" lon="-2.9148639896901667"><ele>1240.0</ele><time>2026-04-20T18:22:05.999Z</time></trkpt><trkpt lat="37.91328487264283" lon="-2.9148750264940415"><ele>1240.0</ele><time>2026-04-20T18:22:06.999Z</time></trkpt><trkpt lat="37.913375223357555" lon="-2.914900630468076"><ele>1240.0</ele><time>2026-04-20T18:22:07.999Z</time></trkpt><trkpt lat="37.913459417935165" lon="-2.914927859810863"><ele>1240.0</ele><time>2026-04-20T18:22:08.999Z</time></trkpt><trkpt lat="37.91353388317603" lon="-2.9149534113313185"><ele>1241.0</ele><time>2026-04-20T18:22:09.999Z</time></trkpt><trkpt lat="37.9136095770989" lon="-2.9149937535890755"><ele>1242.0</ele><time>2026-04-20T18:22:10.999Z</time></trkpt><trkpt lat="37.91368353396647" lon="-2.915034142414793"><ele>1243.0</ele><time>2026-04-20T18:22:11.999Z</time></trkpt><trkpt lat="37.913762383523576" lon="-2.915098521048972"><ele>1244.0</ele><time>2026-04-20T18:22:12.999Z</time></trkpt><trkpt lat="37.913824496188184" lon="-2.915150821476249"><ele>1245.0</ele><time>2026-04-20T18:22:13.999Z</time></trkpt><trkpt lat="37.913889362924266" lon="-2.915225328514426"><ele>1246.0</ele><time>2026-04-20T18:22:14.999Z</time></trkpt><trkpt lat="37.9139510833361" lon="-2.9153101800772965"><ele>1244.6</ele><time>2026-04-20T18:22:15.999Z</time></trkpt><trkpt lat="37.9140138453222" lon="-2.9153941852944323"><ele>1243.1999999999998</ele><time>2026-04-20T18:22:16.999Z</time></trkpt><trkpt lat="37.914074546614444" lon="-2.9154841010654886"><ele>1241.8000000000002</ele><time>2026-04-20T18:22:17.999Z</time></trkpt><trkpt lat="37.91415043821289" lon="-2.9155727138609855"><ele>1240.4</ele><time>2026-04-20T18:22:18.999Z</time></trkpt><trkpt lat="37.91422950290747" lon="-2.915661694459403"><ele>1239.0</ele><time>2026-04-20T18:22:19.999Z</time></trkpt><trkpt lat="37.91431539555883" lon="-2.9157344967612757"><ele>1239.0</ele><time>2026-04-20T18:22:20.998Z</time></trkpt><trkpt lat="37.914396687460666" lon="-2.9158078454483385"><ele>1239.0</ele><time>2026-04-20T18:22:21.998Z</time></trkpt><trkpt lat="37.91447555383801" lon="-2.9158806112381583"><ele>1239.0</ele><time>2026-04-20T18:22:22.998Z</time></trkpt><trkpt lat="37.914538532897595" lon="-2.9159678248971286"><ele>1239.0</ele><time>2026-04-20T18:22:23.998Z</time></trkpt><trkpt lat="37.9145904899329" lon="-2.9160789828822553"><ele>1239.0</ele><time>2026-04-20T18:22:24.998Z</time></trkpt><trkpt lat="37.9146345264396" lon="-2.916216816936466"><ele>1235.25</ele><time>2026-04-20T18:22:25.998Z</time></trkpt><trkpt lat="37.91467072932462" lon="-2.9163668112118635"><ele>1231.5</ele><time>2026-04-20T18:22:26.998Z</time></trkpt><trkpt lat="37.914712997144214" lon="-2.916508414006114"><ele>1227.75</ele><time>2026-04-20T18:22:28Z</time></trkpt><trkpt lat="37.914772327384114" lon="-2.916623418025842"><ele>1224.0</ele><time>2026-04-20T18:22:29Z</time></trkpt><trkpt lat="37.91483884460934" lon="-2.9167328037732707"><ele>1224.4</ele><time>2026-04-20T18:22:30Z</time></trkpt><trkpt lat="37.914900378803914" lon="-2.9168397310779297"><ele>1224.8000000000002</ele><time>2026-04-20T18:22:31Z</time></trkpt><trkpt lat="37.91497375961413" lon="-2.9169472631939213"><ele>1225.1999999999998</ele><time>2026-04-20T18:22:32Z</time></trkpt><trkpt lat="37.915040937238444" lon="-2.9170460265694085"><ele>1225.6</ele><time>2026-04-20T18:22:33Z</time></trkpt><trkpt lat="37.915095140973264" lon="-2.9171377522725686"><ele>1226.0</ele><time>2026-04-20T18:22:34Z</time></trkpt><trkpt lat="37.915122462648014" lon="-2.9172443266968044"><ele>1226.0</ele><time>2026-04-20T18:22:35Z</time></trkpt><trkpt lat="37.91511530234821" lon="-2.9173846018114227"><ele>1226.0</ele><time>2026-04-20T18:22:36Z</time></trkpt><trkpt lat="37.91508300845529" lon="-2.917509163141167"><ele>1226.0</ele><time>2026-04-20T18:22:37Z</time></trkpt><trkpt lat="37.91504965340263" lon="-2.9176307800876122"><ele>1226.0</ele><time>2026-04-20T18:22:38Z</time></trkpt><trkpt lat="37.915031964300304" lon="-2.9177376935855883"><ele>1226.0</ele><time>2026-04-20T18:22:39Z</time></trkpt><trkpt lat="37.915034480361825" lon="-2.9178564356416166"><ele>1223.6</ele><time>2026-04-20T18:22:40Z</time></trkpt><trkpt lat="37.91506325740836" lon="-2.9179866262763223"><ele>1221.1999999999998</ele><time>2026-04-20T18:22:41Z</time></trkpt><trkpt lat="37.91511738771403" lon="-2.918102353717288"><ele>1218.8000000000002</ele><time>2026-04-20T18:22:42Z</time></trkpt><trkpt lat="37.91519029892113" lon="-2.918191454374713"><ele>1216.4</ele><time>2026-04-20T18:22:43Z</time></trkpt><trkpt lat="37.91526675862814" lon="-2.918275766419812"><ele>1214.0</ele><time>2026-04-20T18:22:44Z</time></trkpt><trkpt lat="37.91534029936593" lon="-2.9183604086773127"><ele>1211.0</ele><time>2026-04-20T18:22:45Z</time></trkpt><trkpt lat="37.91541329400357" lon="-2.918455130360511"><ele>1208.0</ele><time>2026-04-20T18:22:46Z</time></trkpt><trkpt lat="37.91547878383276" lon="-2.9185516153684694"><ele>1205.0</ele><time>2026-04-20T18:22:47Z</time></trkpt><trkpt lat="37.915534159288136" lon="-2.91865600771614"><ele>1202.0</ele><time>2026-04-20T18:22:48Z</time></trkpt><trkpt lat="37.915566249353525" lon="-2.9187748969405747"><ele>1199.0</ele><time>2026-04-20T18:22:49Z</time></trkpt><trkpt lat="37.91557992215183" lon="-2.918903984812949"><ele>1199.0</ele><time>2026-04-20T18:22:50Z</time></trkpt><trkpt lat="37.91558157427841" lon="-2.919021750956409"><ele>1199.0</ele><time>2026-04-20T18:22:51Z</time></trkpt><trkpt lat="37.91560105304203" lon="-2.919135490681823"><ele>1199.0</ele><time>2026-04-20T18:22:52Z</time></trkpt><trkpt lat="37.91564433421477" lon="-2.9192561972265056"><ele>1199.0</ele><time>2026-04-20T18:22:53Z</time></trkpt><trkpt lat="37.91570910071055" lon="-2.919359101147886"><ele>1199.0</ele><time>2026-04-20T18:22:54Z</time></trkpt><trkpt lat="37.91579085949604" lon="-2.9194540692659143"><ele>1196.5</ele><time>2026-04-20T18:22:55Z</time></trkpt><trkpt lat="37.91589009442299" lon="-2.9195287653323647"><ele>1194.0</ele><time>2026-04-20T18:22:56Z</time></trkpt><trkpt lat="37.916001194178506" lon="-2.919575837425202"><ele>1191.5</ele><time>2026-04-20T18:22:57Z</time></trkpt><trkpt lat="37.91612637891335" lon="-2.91961749375128"><ele>1189.0</ele><time>2026-04-20T18:22:58Z</time></trkpt><trkpt lat="37.91625578133707" lon="-2.9196533514355143"><ele>1189.0</ele><time>2026-04-20T18:22:59Z</time></trkpt><trkpt lat="37.91637884280222" lon="-2.9196963193979966"><ele>1189.0</ele><time>2026-04-20T18:23:00Z</time></trkpt><trkpt lat="37.91648540827466" lon="-2.91975484474591"><ele>1189.0</ele><time>2026-04-20T18:23:01Z</time></trkpt><trkpt lat="37.91658213183153" lon="-2.919836104620091"><ele>1189.0</ele><time>2026-04-20T18:23:02Z</time></trkpt><trkpt lat="37.91666516604983" lon="-2.9199445752799704"><ele>1189.0</ele><time>2026-04-20T18:23:03Z</time></trkpt><trkpt lat="37.91672877808996" lon="-2.9200639325556685"><ele>1189.0</ele><time>2026-04-20T18:23:04Z</time></trkpt><trkpt lat="37.91679537732879" lon="-2.9201985120653866"><ele>1189.0</ele><time>2026-04-20T18:23:05Z</time></trkpt><trkpt lat="37.91685093826297" lon="-2.920315187160809"><ele>1189.0</ele><time>2026-04-20T18:23:05.999Z</time></trkpt><trkpt lat="37.91692295984705" lon="-2.920393101562651"><ele>1189.0</ele><time>2026-04-20T18:23:06.999Z</time></trkpt><trkpt lat="37.91702307881712" lon="-2.920445012687338"><ele>1187.75</ele><time>2026-04-20T18:23:07.999Z</time></trkpt><trkpt lat="37.91714285066283" lon="-2.9204593988882728"><ele>1186.5</ele><time>2026-04-20T18:23:08.999Z</time></trkpt><trkpt lat="37.91725431065249" lon="-2.9204766373303737"><ele>1185.25</ele><time>2026-04-20T18:23:09.999Z</time></trkpt><trkpt lat="37.91735906888487" lon="-2.9205251648399"><ele>1184.0</ele><time>2026-04-20T18:23:10.999Z</time></trkpt><trkpt lat="37.91746832045272" lon="-2.920590084902863"><ele>1184.0</ele><time>2026-04-20T18:23:11.999Z</time></trkpt><trkpt lat="37.91756024286361" lon="-2.920664482708694"><ele>1184.0</ele><time>2026-04-20T18:23:12.999Z</time></trkpt><trkpt lat="37.91763321672832" lon="-2.9207513800537814"><ele>1184.0</ele><time>2026-04-20T18:23:13.999Z</time></trkpt><trkpt lat="37.917677890855856" lon="-2.9208593996549497"><ele>1184.0</ele><time>2026-04-20T18:23:14.999Z</time></trkpt><trkpt lat="37.91770019428257" lon="-2.920993061931918"><ele>1184.0</ele><time>2026-04-20T18:23:15.999Z</time></trkpt><trkpt lat="37.91770235271404" lon="-2.921130546225428"><ele>1182.4</ele><time>2026-04-20T18:23:16.999Z</time></trkpt><trkpt lat="37.91769188125421" lon="-2.92126450973883"><ele>1180.8000000000002</ele><time>2026-04-20T18:23:17.999Z</time></trkpt><trkpt lat="37.917659243881715" lon="-2.9213911864828064"><ele>1179.1999999999998</ele><time>2026-04-20T18:23:18.999Z</time></trkpt><trkpt lat="37.91760223475624" lon="-2.921500401290968"><ele>1177.6</ele><time>2026-04-20T18:23:19.999Z</time></trkpt><trkpt lat="37.91752288132675" lon="-2.921589843276548"><ele>1176.0</ele><time>2026-04-20T18:23:20.999Z</time></trkpt><trkpt lat="37.91744773583033" lon="-2.9216829801929607"><ele>1174.0</ele><time>2026-04-20T18:23:21.999Z</time></trkpt><trkpt lat="37.917393603358164" lon="-2.921790589030802"><ele>1172.0</ele><time>2026-04-20T18:23:22.999Z</time></trkpt><trkpt lat="37.917364320227364" lon="-2.9219180843150463"><ele>1170.0</ele><time>2026-04-20T18:23:23.999Z</time></trkpt><trkpt lat="37.917348907645234" lon="-2.9220525601075806"><ele>1168.0</ele><time>2026-04-20T18:23:24.999Z</time></trkpt><trkpt lat="37.91731444508959" lon="-2.9221758366589694"><ele>1166.0</ele><time>2026-04-20T18:23:25.999Z</time></trkpt><trkpt lat="37.917256189139856" lon="-2.922281660020095"><ele>1166.0</ele><time>2026-04-20T18:23:26.999Z</time></trkpt><trkpt lat="37.917191351052836" lon="-2.9223697286150974"><ele>1166.0</ele><time>2026-04-20T18:23:27.999Z</time></trkpt><trkpt lat="37.91713509448909" lon="-2.9224581006514487"><ele>1166.0</ele><time>2026-04-20T18:23:28.999Z</time></trkpt><trkpt lat="37.91710635416734" lon="-2.9225532038187807"><ele>1166.0</ele><time>2026-04-20T18:23:29.999Z</time></trkpt><trkpt lat="37.917126623055104" lon="-2.92265435251905"><ele>1166.0</ele><time>2026-04-20T18:23:30.999Z</time></trkpt><trkpt lat="37.917180873396404" lon="-2.922744431742723"><ele>1166.0</ele><time>2026-04-20T18:23:31.999Z</time></trkpt><trkpt lat="37.91727713654326" lon="-2.922805844804293"><ele>1162.75</ele><time>2026-04-20T18:23:32.999Z</time></trkpt><trkpt lat="37.917383068042454" lon="-2.922824270155005"><ele>1159.5</ele><time>2026-04-20T18:23:33.999Z</time></trkpt><trkpt lat="37.917497787869024" lon="-2.9227429973574126"><ele>1156.25</ele><time>2026-04-20T18:23:34.999Z</time></trkpt><trkpt lat="37.91763669105878" lon="-2.922699336654564"><ele>1153.0</ele><time>2026-04-20T18:23:35.999Z</time></trkpt><trkpt lat="37.91778969146328" lon="-2.9226152816426443"><ele>1153.5</ele><time>2026-04-20T18:23:36.999Z</time></trkpt><trkpt lat="37.91792952516126" lon="-2.9225538088446545"><ele>1154.0</ele><time>2026-04-20T18:23:37.999Z</time></trkpt><trkpt lat="37.91805776002063" lon="-2.922493431438744"><ele>1154.5</ele><time>2026-04-20T18:23:38.999Z</time></trkpt><trkpt lat="37.91817322799553" lon="-2.922436173887415"><ele>1155.0</ele><time>2026-04-20T18:23:39.999Z</time></trkpt><trkpt lat="37.91827760292686" lon="-2.9223763952880244"><ele>1155.0</ele><time>2026-04-20T18:23:40.999Z</time></trkpt><trkpt lat="37.91837257291805" lon="-2.922298237828634"><ele>1155.0</ele><time>2026-04-20T18:23:41.999Z</time></trkpt><trkpt lat="37.91845652783276" lon="-2.922212918995456"><ele>1155.0</ele><time>2026-04-20T18:23:42.999Z</time></trkpt><trkpt lat="37.91851925234229" lon="-2.9220809617441517"><ele>1155.0</ele><time>2026-04-20T18:23:43.999Z</time></trkpt><trkpt lat="37.918596698697364" lon="-2.921943429047702"><ele>1151.0</ele><time>2026-04-20T18:23:44.999Z</time></trkpt><trkpt lat="37.9186923449625" lon="-2.921790843698895"><ele>1147.0</ele><time>2026-04-20T18:23:45.999Z</time></trkpt><trkpt lat="37.91876172656679" lon="-2.9216399431033544"><ele>1143.0</ele><time>2026-04-20T18:23:46.999Z</time></trkpt><trkpt lat="37.91883256420426" lon="-2.921503398058217"><ele>1139.0</ele><time>2026-04-20T18:23:47.999Z</time></trkpt><trkpt lat="37.918900610204425" lon="-2.9213731288523186"><ele>1139.0</ele><time>2026-04-20T18:23:48.999Z</time></trkpt><trkpt lat="37.918972217892325" lon="-2.921238052033694"><ele>1139.0</ele><time>2026-04-20T18:23:49.999Z</time></trkpt><trkpt lat="37.919033001374146" lon="-2.9211060595089875"><ele>1139.0</ele><time>2026-04-20T18:23:50.999Z</time></trkpt><trkpt lat="37.91909666249801" lon="-2.920978294310482"><ele>1139.0</ele><time>2026-04-20T18:23:51.999Z</time></trkpt><trkpt lat="37.919160187603325" lon="-2.920844485146702"><ele>1141.4</ele><time>2026-04-20T18:23:52.999Z</time></trkpt><trkpt lat="37.91922283704126" lon="-2.920723277832053"><ele>1143.8000000000002</ele><time>2026-04-20T18:23:53.999Z</time></trkpt><trkpt lat="37.919285928374656" lon="-2.9206244335468456"><ele>1146.1999999999998</ele><time>2026-04-20T18:23:54.999Z</time></trkpt><trkpt lat="37.91936429290487" lon="-2.9205501224804116"><ele>1148.6</ele><time>2026-04-20T18:23:55.999Z</time></trkpt><trkpt lat="37.919442377707526" lon="-2.9205146403459183"><ele>1151.0</ele><time>2026-04-20T18:23:56.999Z</time></trkpt><trkpt lat="37.91952690774365" lon="-2.920489653783341"><ele>1151.0</ele><time>2026-04-20T18:23:57.999Z</time></trkpt><trkpt lat="37.919608843368415" lon="-2.9204970308707785"><ele>1151.0</ele><time>2026-04-20T18:23:58.999Z</time></trkpt><trkpt lat="37.9196975437705" lon="-2.9205304947231996"><ele>1151.0</ele><time>2026-04-20T18:23:59.999Z</time></trkpt><trkpt lat="37.91979218887141" lon="-2.920594876465523"><ele>1151.0</ele><time>2026-04-20T18:24:00.999Z</time></trkpt><trkpt lat="37.91989265390626" lon="-2.920682786302214"><ele>1151.0</ele><time>2026-04-20T18:24:01.999Z</time></trkpt><trkpt lat="37.91998510535095" lon="-2.9207879552669014"><ele>1151.0</ele><time>2026-04-20T18:24:02.999Z</time></trkpt><trkpt lat="37.920040152648305" lon="-2.920898557994143"><ele>1151.0</ele><time>2026-04-20T18:24:03.999Z</time></trkpt><trkpt lat="37.92011345197148" lon="-2.9210264136803414"><ele>1151.0</ele><time>2026-04-20T18:24:04.999Z</time></trkpt><trkpt lat="37.92018505180389" lon="-2.921135682533653"><ele>1151.0</ele><time>2026-04-20T18:24:05.999Z</time></trkpt><trkpt lat="37.920268309655896" lon="-2.9212039138642214"><ele>1151.0</ele><time>2026-04-20T18:24:06.999Z</time></trkpt><trkpt lat="37.920384078798925" lon="-2.921250152143834"><ele>1142.5</ele><time>2026-04-20T18:24:07.999Z</time></trkpt><trkpt lat="37.920512124097066" lon="-2.921264923295479"><ele>1134.0</ele><time>2026-04-20T18:24:08.999Z</time></trkpt><trkpt lat="37.92063765124061" lon="-2.921256454773106"><ele>1125.5</ele><time>2026-04-20T18:24:09.999Z</time></trkpt><trkpt lat="37.92073529152048" lon="-2.9211918320464365"><ele>1117.0</ele><time>2026-04-20T18:24:10.999Z</time></trkpt><trkpt lat="37.92084020173847" lon="-2.9211053517969185"><ele>1117.75</ele><time>2026-04-20T18:24:11.998Z</time></trkpt><trkpt lat="37.920954249585904" lon="-2.9210125260262614"><ele>1118.5</ele><time>2026-04-20T18:24:12.998Z</time></trkpt><trkpt lat="37.9210830392602" lon="-2.9209253901748213"><ele>1119.25</ele><time>2026-04-20T18:24:13.998Z</time></trkpt><trkpt lat="37.9211944445023" lon="-2.9208473562256283"><ele>1120.0</ele><time>2026-04-20T18:24:14.998Z</time></trkpt><trkpt lat="37.921284031685175" lon="-2.9207710857954883"><ele>1120.0</ele><time>2026-04-20T18:24:15.998Z</time></trkpt><trkpt lat="37.92134948045666" lon="-2.9206880179084527"><ele>1120.0</ele><time>2026-04-20T18:24:16.998Z</time></trkpt><trkpt lat="37.92139394746502" lon="-2.9205667673851057"><ele>1120.0</ele><time>2026-04-20T18:24:17.998Z</time></trkpt><trkpt lat="37.92142374321509" lon="-2.92044066639548"><ele>1120.0</ele><time>2026-04-20T18:24:18.998Z</time></trkpt><trkpt lat="37.92147287014396" lon="-2.9203222787233307"><ele>1120.0</ele><time>2026-04-20T18:24:19.998Z</time></trkpt><trkpt lat="37.92152162379896" lon="-2.9202276858360436"><ele>1120.0</ele><time>2026-04-20T18:24:20.998Z</time></trkpt><trkpt lat="37.92168212683788" lon="-2.9201529865702263"><ele>1120.0</ele><time>2026-04-20T18:24:22.998Z</time></trkpt><trkpt lat="37.92180607299869" lon="-2.9201524142225974"><ele>1120.0</ele><time>2026-04-20T18:24:23.998Z</time></trkpt><trkpt lat="37.921932148897646" lon="-2.920178800125217"><ele>1120.0</ele><time>2026-04-20T18:24:24.998Z</time></trkpt><trkpt lat="37.92205936135177" lon="-2.9202337929219584"><ele>1115.75</ele><time>2026-04-20T18:24:25.998Z</time></trkpt><trkpt lat="37.922184370606935" lon="-2.920297075475824"><ele>1111.5</ele><time>2026-04-20T18:24:26.998Z</time></trkpt><trkpt lat="37.92230104560777" lon="-2.920355823679596"><ele>1107.25</ele><time>2026-04-20T18:24:27.998Z</time></trkpt><trkpt lat="37.9224341366229" lon="-2.9203790237009555"><ele>1103.0</ele><time>2026-04-20T18:24:28.998Z</time></trkpt><trkpt lat="37.922583747230505" lon="-2.9203850968636513"><ele>1100.25</ele><time>2026-04-20T18:24:29.998Z</time></trkpt><trkpt lat="37.922732882052294" lon="-2.920374409159809"><ele>1097.5</ele><time>2026-04-20T18:24:30.998Z</time></trkpt><trkpt lat="37.922871851474945" lon="-2.920364035050903"><ele>1094.75</ele><time>2026-04-20T18:24:31.998Z</time></trkpt><trkpt lat="37.92301020872854" lon="-2.9203587113303704"><ele>1092.0</ele><time>2026-04-20T18:24:32.998Z</time></trkpt><trkpt lat="37.92314679562926" lon="-2.920341773345071"><ele>1092.0</ele><time>2026-04-20T18:24:34Z</time></trkpt><trkpt lat="37.92328029759706" lon="-2.920263734017878"><ele>1092.0</ele><time>2026-04-20T18:24:35Z</time></trkpt><trkpt lat="37.92342228768948" lon="-2.9202269763359676"><ele>1092.0</ele><time>2026-04-20T18:24:36Z</time></trkpt><trkpt lat="37.92356601188196" lon="-2.920176966041971"><ele>1092.0</ele><time>2026-04-20T18:24:37Z</time></trkpt><trkpt lat="37.92370705543717" lon="-2.92015441123311"><ele>1088.6666666666667</ele><time>2026-04-20T18:24:38Z</time></trkpt><trkpt lat="37.9238466177885" lon="-2.9201383156859384"><ele>1085.3333333333335</ele><time>2026-04-20T18:24:39Z</time></trkpt><trkpt lat="37.924000349420616" lon="-2.9201112763736283"><ele>1082.0</ele><time>2026-04-20T18:24:40Z</time></trkpt><trkpt lat="37.9241623417544" lon="-2.9200832216894406"><ele>1085.5</ele><time>2026-04-20T18:24:41Z</time></trkpt><trkpt lat="37.92431124266758" lon="-2.920056002761233"><ele>1089.0</ele><time>2026-04-20T18:24:42Z</time></trkpt><trkpt lat="37.9244581535812" lon="-2.9200319269059984"><ele>1092.5</ele><time>2026-04-20T18:24:43Z</time></trkpt><trkpt lat="37.92459999164303" lon="-2.9200045494931968"><ele>1096.0</ele><time>2026-04-20T18:24:44Z</time></trkpt><trkpt lat="37.92474094352013" lon="-2.9199883333461862"><ele>1096.0</ele><time>2026-04-20T18:24:45Z</time></trkpt><trkpt lat="37.92486887458046" lon="-2.9199578459940665"><ele>1096.0</ele><time>2026-04-20T18:24:46Z</time></trkpt><trkpt lat="37.92497802250873" lon="-2.919887795386665"><ele>1096.0</ele><time>2026-04-20T18:24:47Z</time></trkpt><trkpt lat="37.9250847967737" lon="-2.919817644640936"><ele>1096.0</ele><time>2026-04-20T18:24:48Z</time></trkpt><trkpt lat="37.9251870329178" lon="-2.9197454033818198"><ele>1093.0</ele><time>2026-04-20T18:24:49Z</time></trkpt><trkpt lat="37.92527719597014" lon="-2.9196823506579923"><ele>1090.0</ele><time>2026-04-20T18:24:50Z</time></trkpt><trkpt lat="37.925353623213965" lon="-2.9196542101073493"><ele>1087.0</ele><time>2026-04-20T18:24:51Z</time></trkpt><trkpt lat="37.92541634411158" lon="-2.9196103460169356"><ele>1084.0</ele><time>2026-04-20T18:24:52Z</time></trkpt><trkpt lat="37.92548559822257" lon="-2.9196126476450015"><ele>1081.0</ele><time>2026-04-20T18:24:53Z</time></trkpt><trkpt lat="37.925538205994926" lon="-2.9197279833729852"><ele>1078.0</ele><time>2026-04-20T18:24:54Z</time></trkpt><trkpt lat="37.92555545211787" lon="-2.9198264347641056"><ele>1078.0</ele><time>2026-04-20T18:24:55Z</time></trkpt><trkpt lat="37.92552291659369" lon="-2.9199261749781202"><ele>1078.0</ele><time>2026-04-20T18:24:56Z</time></trkpt><trkpt lat="37.925453553207625" lon="-2.920011430791093"><ele>1078.0</ele><time>2026-04-20T18:24:57Z</time></trkpt><trkpt lat="37.92535511940149" lon="-2.9200835507458764"><ele>1078.0</ele><time>2026-04-20T18:24:58Z</time></trkpt><trkpt lat="37.925240919429925" lon="-2.9201307535849037"><ele>1078.0</ele><time>2026-04-20T18:24:59Z</time></trkpt><trkpt lat="37.92511809672161" lon="-2.9201838552987383"><ele>1076.5</ele><time>2026-04-20T18:25:00Z</time></trkpt><trkpt lat="37.924992080721466" lon="-2.920242406320055"><ele>1075.0</ele><time>2026-04-20T18:25:01Z</time></trkpt><trkpt lat="37.92486230708319" lon="-2.920299529969289"><ele>1073.5</ele><time>2026-04-20T18:25:02Z</time></trkpt><trkpt lat="37.92472925903881" lon="-2.920357253543713"><ele>1072.0</ele><time>2026-04-20T18:25:03Z</time></trkpt><trkpt lat="37.924600781586676" lon="-2.920407000365525"><ele>1072.0</ele><time>2026-04-20T18:25:04Z</time></trkpt><trkpt lat="37.92447518905811" lon="-2.9204691867499255"><ele>1072.0</ele><time>2026-04-20T18:25:05Z</time></trkpt><trkpt lat="37.92435093662679" lon="-2.920560421975891"><ele>1072.0</ele><time>2026-04-20T18:25:06Z</time></trkpt><trkpt lat="37.92421788009003" lon="-2.9206721340307658"><ele>1072.0</ele><time>2026-04-20T18:25:07Z</time></trkpt><trkpt lat="37.92407992493532" lon="-2.920789761342796"><ele>1070.5</ele><time>2026-04-20T18:25:08Z</time></trkpt><trkpt lat="37.92394397370211" lon="-2.920897196402835"><ele>1069.0</ele><time>2026-04-20T18:25:09Z</time></trkpt><trkpt lat="37.92382286280829" lon="-2.9209948862167416"><ele>1067.5</ele><time>2026-04-20T18:25:10Z</time></trkpt><trkpt lat="37.92370679411523" lon="-2.9210881699650915"><ele>1066.0</ele><time>2026-04-20T18:25:11Z</time></trkpt><trkpt lat="37.9235917382853" lon="-2.9211855482422493"><ele>1066.0</ele><time>2026-04-20T18:25:12Z</time></trkpt><trkpt lat="37.92347334058883" lon="-2.921278585705587"><ele>1066.0</ele><time>2026-04-20T18:25:13Z</time></trkpt><trkpt lat="37.92334803641685" lon="-2.921355617705597"><ele>1066.0</ele><time>2026-04-20T18:25:14Z</time></trkpt><trkpt lat="37.92322129763167" lon="-2.9214110631859413"><ele>1066.0</ele><time>2026-04-20T18:25:15Z</time></trkpt><trkpt lat="37.923091507513746" lon="-2.921465688423864"><ele>1068.25</ele><time>2026-04-20T18:25:16Z</time></trkpt><trkpt lat="37.922961950444765" lon="-2.921514339341372"><ele>1070.5</ele><time>2026-04-20T18:25:16.999Z</time></trkpt><trkpt lat="37.92283200727222" lon="-2.9215722353010194"><ele>1072.75</ele><time>2026-04-20T18:25:17.999Z</time></trkpt><trkpt lat="37.922706479379464" lon="-2.9216328124229167"><ele>1075.0</ele><time>2026-04-20T18:25:18.999Z</time></trkpt><trkpt lat="37.9225872667141" lon="-2.921727351899287"><ele>1074.75</ele><time>2026-04-20T18:25:19.999Z</time></trkpt><trkpt lat="37.92247816915918" lon="-2.921845797846869"><ele>1074.5</ele><time>2026-04-20T18:25:20.999Z</time></trkpt><trkpt lat="37.922367649840965" lon="-2.9219751374085723"><ele>1074.25</ele><time>2026-04-20T18:25:21.999Z</time></trkpt><trkpt lat="37.92225337324699" lon="-2.9221047074221325"><ele>1074.0</ele><time>2026-04-20T18:25:22.999Z</time></trkpt><trkpt lat="37.92213495844058" lon="-2.92223564428087"><ele>1074.0</ele><time>2026-04-20T18:25:23.999Z</time></trkpt><trkpt lat="37.92201260752308" lon="-2.922375782717426"><ele>1074.0</ele><time>2026-04-20T18:25:24.999Z</time></trkpt><trkpt lat="37.92187786590012" lon="-2.9225108823026127"><ele>1074.0</ele><time>2026-04-20T18:25:25.999Z</time></trkpt><trkpt lat="37.92174617842479" lon="-2.9226396923744193"><ele>1073.0</ele><time>2026-04-20T18:25:26.999Z</time></trkpt><trkpt lat="37.9216349571223" lon="-2.9227702817025722"><ele>1072.0</ele><time>2026-04-20T18:25:27.999Z</time></trkpt><trkpt lat="37.921534439045296" lon="-2.9228831694517448"><ele>1071.0</ele><time>2026-04-20T18:25:28.999Z</time></trkpt><trkpt lat="37.92143653026615" lon="-2.922991245312127"><ele>1070.0</ele><time>2026-04-20T18:25:29.999Z</time></trkpt><trkpt lat="37.9213423722011" lon="-2.9231006433705553"><ele>1070.0</ele><time>2026-04-20T18:25:30.999Z</time></trkpt><trkpt lat="37.92123069100209" lon="-2.9231809894214247"><ele>1070.0</ele><time>2026-04-20T18:25:31.999Z</time></trkpt><trkpt lat="37.92110481267104" lon="-2.923230338520051"><ele>1070.0</ele><time>2026-04-20T18:25:32.999Z</time></trkpt><trkpt lat="37.92095787944539" lon="-2.9232717410410944"><ele>1070.0</ele><time>2026-04-20T18:25:33.999Z</time></trkpt><trkpt lat="37.92081613469939" lon="-2.9233430058192584"><ele>1069.75</ele><time>2026-04-20T18:25:34.999Z</time></trkpt><trkpt lat="37.920681331965405" lon="-2.923395343006276"><ele>1069.5</ele><time>2026-04-20T18:25:35.999Z</time></trkpt><trkpt lat="37.92056504926885" lon="-2.923440665581778"><ele>1069.25</ele><time>2026-04-20T18:25:36.999Z</time></trkpt><trkpt lat="37.920462610149734" lon="-2.923496103477511"><ele>1069.0</ele><time>2026-04-20T18:25:37.999Z</time></trkpt><trkpt lat="37.92036422357907" lon="-2.9235672646168713"><ele>1065.5</ele><time>2026-04-20T18:25:38.999Z</time></trkpt><trkpt lat="37.92027757135064" lon="-2.9236468871748067"><ele>1062.0</ele><time>2026-04-20T18:25:39.999Z</time></trkpt><trkpt lat="37.9202225998046" lon="-2.9237858675001225"><ele>1058.5</ele><time>2026-04-20T18:25:40.999Z</time></trkpt><trkpt lat="37.920197141542396" lon="-2.9239465426829985"><ele>1055.0</ele><time>2026-04-20T18:25:41.999Z</time></trkpt><trkpt lat="37.92017496782656" lon="-2.9241199519933314"><ele>1054.6666666666667</ele><time>2026-04-20T18:25:42.999Z</time></trkpt><trkpt lat="37.92013171974606" lon="-2.924301327295089"><ele>1054.3333333333333</ele><time>2026-04-20T18:25:43.999Z</time></trkpt><trkpt lat="37.92006615982565" lon="-2.924480796372407"><ele>1054.0</ele><time>2026-04-20T18:25:44.999Z</time></trkpt><trkpt lat="37.91997560130552" lon="-2.9246364430989122"><ele>1054.0</ele><time>2026-04-20T18:25:45.999Z</time></trkpt><trkpt lat="37.91988489236708" lon="-2.9247610322927557"><ele>1054.0</ele><time>2026-04-20T18:25:46.999Z</time></trkpt><trkpt lat="37.91981445607021" lon="-2.924894632300577"><ele>1054.0</ele><time>2026-04-20T18:25:47.999Z</time></trkpt><trkpt lat="37.91977916582496" lon="-2.9250484926329605"><ele>1054.0</ele><time>2026-04-20T18:25:48.999Z</time></trkpt><trkpt lat="37.91978303304275" lon="-2.925205229983751"><ele>1052.0</ele><time>2026-04-20T18:25:49.999Z</time></trkpt><trkpt lat="37.919817075263936" lon="-2.925364996322492"><ele>1050.0</ele><time>2026-04-20T18:25:50.999Z</time></trkpt><trkpt lat="37.91986293603099" lon="-2.9255320923859855"><ele>1048.0</ele><time>2026-04-20T18:25:51.999Z</time></trkpt><trkpt lat="37.919899306636175" lon="-2.9256891519131334"><ele>1046.0</ele><time>2026-04-20T18:25:52.999Z</time></trkpt><trkpt lat="37.919904868733816" lon="-2.925830814419461"><ele>1042.3999999999999</ele><time>2026-04-20T18:25:53.999Z</time></trkpt><trkpt lat="37.919880842967686" lon="-2.9259673542162963"><ele>1038.8</ele><time>2026-04-20T18:25:54.999Z</time></trkpt><trkpt lat="37.91984619666771" lon="-2.926085250702459"><ele>1035.1999999999998</ele><time>2026-04-20T18:25:55.999Z</time></trkpt><trkpt lat="37.91978369288383" lon="-2.9262113136708816"><ele>1031.6</ele><time>2026-04-20T18:25:56.999Z</time></trkpt><trkpt lat="37.919695741044656" lon="-2.926318336396213"><ele>1028.0</ele><time>2026-04-20T18:25:57.999Z</time></trkpt><trkpt lat="37.919585750458666" lon="-2.92642186752124"><ele>1028.0</ele><time>2026-04-20T18:25:58.999Z</time></trkpt><trkpt lat="37.91946038936528" lon="-2.9265230198591796"><ele>1028.0</ele><time>2026-04-20T18:25:59.999Z</time></trkpt><trkpt lat="37.919346332408715" lon="-2.926616337179989"><ele>1028.0</ele><time>2026-04-20T18:26:00.999Z</time></trkpt><trkpt lat="37.91924119765906" lon="-2.9266928011181967"><ele>1028.0</ele><time>2026-04-20T18:26:01.999Z</time></trkpt><trkpt lat="37.91914099647284" lon="-2.9267368377541136"><ele>1029.4</ele><time>2026-04-20T18:26:02.999Z</time></trkpt><trkpt lat="37.91903491442004" lon="-2.9267504277061525"><ele>1030.8</ele><time>2026-04-20T18:26:03.999Z</time></trkpt><trkpt lat="37.9189237291393" lon="-2.926741932608113"><ele>1032.2</ele><time>2026-04-20T18:26:04.999Z</time></trkpt><trkpt lat="37.91880529869495" lon="-2.9267039330856677"><ele>1033.6</ele><time>2026-04-20T18:26:05.999Z</time></trkpt><trkpt lat="37.91870413005984" lon="-2.926666995721927"><ele>1035.0</ele><time>2026-04-20T18:26:06.999Z</time></trkpt><trkpt lat="37.918623579714364" lon="-2.92666798840609"><ele>1035.0</ele><time>2026-04-20T18:26:07.999Z</time></trkpt><trkpt lat="37.918562599484254" lon="-2.926726026904192"><ele>1035.0</ele><time>2026-04-20T18:26:08.999Z</time></trkpt><trkpt lat="37.91851958713567" lon="-2.926811369480352"><ele>1035.0</ele><time>2026-04-20T18:26:09.999Z</time></trkpt><trkpt lat="37.9185220947834" lon="-2.926923987083677"><ele>1035.0</ele><time>2026-04-20T18:26:10.999Z</time></trkpt><trkpt lat="37.91857529128029" lon="-2.927018339400297"><ele>1035.0</ele><time>2026-04-20T18:26:11.999Z</time></trkpt><trkpt lat="37.91865382725954" lon="-2.9270706495718275"><ele>1035.0</ele><time>2026-04-20T18:26:12.999Z</time></trkpt><trkpt lat="37.918759702413475" lon="-2.9270737714124437"><ele>1028.0</ele><time>2026-04-20T18:26:13.999Z</time></trkpt><trkpt lat="37.91888617378269" lon="-2.9270889276263583"><ele>1021.0</ele><time>2026-04-20T18:26:14.999Z</time></trkpt><trkpt lat="37.91902232641261" lon="-2.92708180547213"><ele>1014.0</ele><time>2026-04-20T18:26:15.999Z</time></trkpt><trkpt lat="37.91917555418698" lon="-2.927074821640112"><ele>1007.0</ele><time>2026-04-20T18:26:16.999Z</time></trkpt><trkpt lat="37.91934140624314" lon="-2.927074626559089"><ele>1005.3333333333334</ele><time>2026-04-20T18:26:17.999Z</time></trkpt><trkpt lat="37.919528374191245" lon="-2.9270704163103307"><ele>1003.6666666666667</ele><time>2026-04-20T18:26:18.999Z</time></trkpt><trkpt lat="37.91971315123133" lon="-2.9270874516600447"><ele>1002.0</ele><time>2026-04-20T18:26:19.999Z</time></trkpt><trkpt lat="37.919888366421546" lon="-2.9271131470641327"><ele>1002.0</ele><time>2026-04-20T18:26:20.999Z</time></trkpt><trkpt lat="37.92005970555421" lon="-2.927142717462163"><ele>1002.0</ele><time>2026-04-20T18:26:21.999Z</time></trkpt><trkpt lat="37.920213610483025" lon="-2.927166932723795"><ele>1002.0</ele><time>2026-04-20T18:26:22.999Z</time></trkpt><trkpt lat="37.920362097247896" lon="-2.9271865507476935"><ele>1000.0</ele><time>2026-04-20T18:26:23.999Z</time></trkpt><trkpt lat="37.920504699836165" lon="-2.927194806378243"><ele>998.0</ele><time>2026-04-20T18:26:24.999Z</time></trkpt><trkpt lat="37.92065142687048" lon="-2.92714579748016"><ele>996.0</ele><time>2026-04-20T18:26:25.999Z</time></trkpt><trkpt lat="37.92079626747389" lon="-2.927132096293544"><ele>994.0</ele><time>2026-04-20T18:26:26.998Z</time></trkpt><trkpt lat="37.92094019201678" lon="-2.927145776468047"><ele>993.75</ele><time>2026-04-20T18:26:27.998Z</time></trkpt><trkpt lat="37.921077444259616" lon="-2.9271418816130867"><ele>993.5</ele><time>2026-04-20T18:26:28.998Z</time></trkpt><trkpt lat="37.92120759388654" lon="-2.9271342169862673"><ele>993.25</ele><time>2026-04-20T18:26:29.998Z</time></trkpt><trkpt lat="37.921340616913454" lon="-2.927118789130139"><ele>993.0</ele><time>2026-04-20T18:26:30.998Z</time></trkpt><trkpt lat="37.92146872391354" lon="-2.927083748671114"><ele>993.0</ele><time>2026-04-20T18:26:31.998Z</time></trkpt><trkpt lat="37.92160029149821" lon="-2.9270534422197687"><ele>993.0</ele><time>2026-04-20T18:26:32.998Z</time></trkpt><trkpt lat="37.92172195861069" lon="-2.927022959175801"><ele>993.0</ele><time>2026-04-20T18:26:33.998Z</time></trkpt><trkpt lat="37.921840180304045" lon="-2.9269562423715363"><ele>993.0</ele><time>2026-04-20T18:26:34.998Z</time></trkpt><trkpt lat="37.921954594887985" lon="-2.9268741927838278"><ele>992.75</ele><time>2026-04-20T18:26:35.998Z</time></trkpt><trkpt lat="37.922065861256634" lon="-2.92678271852113"><ele>992.5</ele><time>2026-04-20T18:26:36.998Z</time></trkpt><trkpt lat="37.92218065359057" lon="-2.926681753131858"><ele>992.25</ele><time>2026-04-20T18:26:37.998Z</time></trkpt><trkpt lat="37.92230700644518" lon="-2.926599194484296"><ele>992.0</ele><time>2026-04-20T18:26:38.998Z</time></trkpt><trkpt lat="37.92242679217465" lon="-2.926525646872209"><ele>992.0</ele><time>2026-04-20T18:26:40Z</time></trkpt><trkpt lat="37.92254713780082" lon="-2.926478683166282"><ele>992.0</ele><time>2026-04-20T18:26:41Z</time></trkpt><trkpt lat="37.92266300647107" lon="-2.926449927931205"><ele>992.0</ele><time>2026-04-20T18:26:42Z</time></trkpt><trkpt lat="37.92277822040383" lon="-2.9264237389620384"><ele>992.0</ele><time>2026-04-20T18:26:43Z</time></trkpt><trkpt lat="37.92291144127367" lon="-2.92642722639449"><ele>994.25</ele><time>2026-04-20T18:26:44Z</time></trkpt><trkpt lat="37.923043984632656" lon="-2.926446552872592"><ele>996.5</ele><time>2026-04-20T18:26:45Z</time></trkpt><trkpt lat="37.92317045463574" lon="-2.9264838276888825"><ele>998.75</ele><time>2026-04-20T18:26:46Z</time></trkpt><trkpt lat="37.9232896038157" lon="-2.92652741726775"><ele>1001.0</ele><time>2026-04-20T18:26:47Z</time></trkpt><trkpt lat="37.92340029174485" lon="-2.9265728960097515"><ele>1001.0</ele><time>2026-04-20T18:26:48Z</time></trkpt><trkpt lat="37.92351090926851" lon="-2.9266083073382863"><ele>1000.9999999999999</ele><time>2026-04-20T18:26:49Z</time></trkpt><trkpt lat="37.92362103709922" lon="-2.9266422430330636"><ele>1000.9999999999999</ele><time>2026-04-20T18:26:50Z</time></trkpt><trkpt lat="37.923728529922684" lon="-2.926688991670498"><ele>1001.0</ele><time>2026-04-20T18:26:51Z</time></trkpt><trkpt lat="37.92382617122431" lon="-2.9267455214731672"><ele>1001.0</ele><time>2026-04-20T18:26:52Z</time></trkpt><trkpt lat="37.92391106774775" lon="-2.9268196101548654"><ele>1000.0</ele><time>2026-04-20T18:26:53Z</time></trkpt><trkpt lat="37.92399579124813" lon="-2.926916966372088"><ele>999.0</ele><time>2026-04-20T18:26:54Z</time></trkpt><trkpt lat="37.92405931926072" lon="-2.927033556015245"><ele>998.0</ele><time>2026-04-20T18:26:55Z</time></trkpt><trkpt lat="37.924099652570355" lon="-2.927178235616659"><ele>997.0</ele><time>2026-04-20T18:26:56Z</time></trkpt><trkpt lat="37.924128512032844" lon="-2.9273377866632337"><ele>997.0</ele><time>2026-04-20T18:26:57Z</time></trkpt><trkpt lat="37.92412223473498" lon="-2.9275119642663103"><ele>997.0</ele><time>2026-04-20T18:26:58Z</time></trkpt><trkpt lat="37.92408504003571" lon="-2.9277240036376853"><ele>997.0</ele><time>2026-04-20T18:26:59Z</time></trkpt><trkpt lat="37.92405804144686" lon="-2.927954352438976"><ele>999.3333333333333</ele><time>2026-04-20T18:27:00Z</time></trkpt><trkpt lat="37.92403211554983" lon="-2.928162997271301"><ele>1001.6666666666667</ele><time>2026-04-20T18:27:01Z</time></trkpt><trkpt lat="37.92401283824488" lon="-2.928382685833193"><ele>1004.0</ele><time>2026-04-20T18:27:02Z</time></trkpt><trkpt lat="37.92398065586226" lon="-2.9285873597604195"><ele>1006.0</ele><time>2026-04-20T18:27:03Z</time></trkpt><trkpt lat="37.92394650302441" lon="-2.9287521167055783"><ele>1008.0</ele><time>2026-04-20T18:27:04Z</time></trkpt><trkpt lat="37.923873082845446" lon="-2.9288818318116374"><ele>1010.0</ele><time>2026-04-20T18:27:05Z</time></trkpt><trkpt lat="37.92378683423147" lon="-2.9289992295409952"><ele>1012.0</ele><time>2026-04-20T18:27:06Z</time></trkpt><trkpt lat="37.92367899058832" lon="-2.929131441423665"><ele>1012.0</ele><time>2026-04-20T18:27:07Z</time></trkpt><trkpt lat="37.923517660204304" lon="-2.929200323429906"><ele>1012.0</ele><time>2026-04-20T18:27:08Z</time></trkpt><trkpt lat="37.92335500288809" lon="-2.9293202359095614"><ele>1012.0</ele><time>2026-04-20T18:27:09Z</time></trkpt><trkpt lat="37.92318141823359" lon="-2.929440027944264"><ele>1016.6666666666666</ele><time>2026-04-20T18:27:10Z</time></trkpt><trkpt lat="37.92303835480487" lon="-2.929550632451806"><ele>1021.3333333333333</ele><time>2026-04-20T18:27:11Z</time></trkpt><trkpt lat="37.92291777152762" lon="-2.9296563376044147"><ele>1026.0</ele><time>2026-04-20T18:27:12Z</time></trkpt><trkpt lat="37.922806593122026" lon="-2.9297740180085916"><ele>1026.0</ele><time>2026-04-20T18:27:13Z</time></trkpt><trkpt lat="37.92272498191579" lon="-2.929915359593778"><ele>1026.0</ele><time>2026-04-20T18:27:14Z</time></trkpt><trkpt lat="37.92270121386855" lon="-2.9300896252608486"><ele>1026.0</ele><time>2026-04-20T18:27:15Z</time></trkpt><trkpt lat="37.92266671738027" lon="-2.93028392630917"><ele>1026.0</ele><time>2026-04-20T18:27:16Z</time></trkpt><trkpt lat="37.92262701289875" lon="-2.9304974030725806"><ele>1026.3333333333333</ele><time>2026-04-20T18:27:17Z</time></trkpt><trkpt lat="37.92260357423721" lon="-2.9307378810037656"><ele>1026.6666666666665</ele><time>2026-04-20T18:27:18Z</time></trkpt><trkpt lat="37.922574251688964" lon="-2.9309740785119196"><ele>1027.0</ele><time>2026-04-20T18:27:19Z</time></trkpt><trkpt lat="37.922546664300256" lon="-2.931165847059406"><ele>1027.0</ele><time>2026-04-20T18:27:20Z</time></trkpt><trkpt lat="37.92252392003302" lon="-2.931332450892363"><ele>1027.0</ele><time>2026-04-20T18:27:21Z</time></trkpt><trkpt lat="37.92249433232049" lon="-2.9314852911220735"><ele>1027.0</ele><time>2026-04-20T18:27:22Z</time></trkpt><trkpt lat="37.922402156956224" lon="-2.9316032204550253"><ele>1027.0</ele><time>2026-04-20T18:27:23Z</time></trkpt><trkpt lat="37.92230180791454" lon="-2.9317254101281534"><ele>1028.75</ele><time>2026-04-20T18:27:24Z</time></trkpt><trkpt lat="37.922188269039225" lon="-2.931849769338735"><ele>1030.5</ele><time>2026-04-20T18:27:25Z</time></trkpt><trkpt lat="37.92209451205479" lon="-2.9319884134429133"><ele>1032.25</ele><time>2026-04-20T18:27:25.999Z</time></trkpt><trkpt lat="37.92204295876991" lon="-2.932135056735932"><ele>1034.0</ele><time>2026-04-20T18:27:26.999Z</time></trkpt><trkpt lat="37.92201642131658" lon="-2.9323141354960174"><ele>1034.0</ele><time>2026-04-20T18:27:27.999Z</time></trkpt><trkpt lat="37.92199140053404" lon="-2.9324553787095002"><ele>1034.0</ele><time>2026-04-20T18:27:28.999Z</time></trkpt><trkpt lat="37.9219300317982" lon="-2.9325966773768672"><ele>1034.0</ele><time>2026-04-20T18:27:29.999Z</time></trkpt><trkpt lat="37.9218249483679" lon="-2.9326978318371877"><ele>1034.0</ele><time>2026-04-20T18:27:30.999Z</time></trkpt><trkpt lat="37.921702522935796" lon="-2.932782170810287"><ele>1038.0</ele><time>2026-04-20T18:27:31.999Z</time></trkpt><trkpt lat="37.921570177698236" lon="-2.932844372657177"><ele>1042.0</ele><time>2026-04-20T18:27:32.999Z</time></trkpt><trkpt lat="37.921450557844565" lon="-2.93285537650789"><ele>1046.0</ele><time>2026-04-20T18:27:33.999Z</time></trkpt><trkpt lat="37.92132622638603" lon="-2.932831370753746"><ele>1050.0</ele><time>2026-04-20T18:27:34.999Z</time></trkpt><trkpt lat="37.92119998188919" lon="-2.932791121512502"><ele>1050.0</ele><time>2026-04-20T18:27:35.999Z</time></trkpt><trkpt lat="37.921090359284904" lon="-2.9327418164460517"><ele>1050.0</ele><time>2026-04-20T18:27:36.999Z</time></trkpt><trkpt lat="37.92102377380695" lon="-2.9326669426015353"><ele>1050.0</ele><time>2026-04-20T18:27:37.999Z</time></trkpt><trkpt lat="37.920994690903996" lon="-2.9325100031566356"><ele>1050.0</ele><time>2026-04-20T18:27:38.999Z</time></trkpt><trkpt lat="37.92100361523231" lon="-2.9323468559551196"><ele>1048.6</ele><time>2026-04-20T18:27:39.999Z</time></trkpt><trkpt lat="37.920974487071696" lon="-2.932214464345335"><ele>1047.2</ele><time>2026-04-20T18:27:40.999Z</time></trkpt><trkpt lat="37.92091337792051" lon="-2.932129163455049"><ele>1045.8</ele><time>2026-04-20T18:27:41.999Z</time></trkpt><trkpt lat="37.92081634253673" lon="-2.9321027732437384"><ele>1044.4</ele><time>2026-04-20T18:27:42.999Z</time></trkpt><trkpt lat="37.92067866795528" lon="-2.932124248566198"><ele>1043.0</ele><time>2026-04-20T18:27:43.999Z</time></trkpt><trkpt lat="37.920516228660446" lon="-2.9321589606807685"><ele>1043.0</ele><time>2026-04-20T18:27:44.999Z</time></trkpt><trkpt lat="37.9203674580165" lon="-2.9321886317193364"><ele>1043.0</ele><time>2026-04-20T18:27:45.999Z</time></trkpt><trkpt lat="37.92025093280773" lon="-2.932238122821344"><ele>1043.0</ele><time>2026-04-20T18:27:46.999Z</time></trkpt><trkpt lat="37.92018180733808" lon="-2.9323233022567954"><ele>1043.0</ele><time>2026-04-20T18:27:47.999Z</time></trkpt><trkpt lat="37.92015032758459" lon="-2.932451174589229"><ele>1045.75</ele><time>2026-04-20T18:27:48.999Z</time></trkpt><trkpt lat="37.9201662137146" lon="-2.9325893577092947"><ele>1048.5</ele><time>2026-04-20T18:27:49.999Z</time></trkpt><trkpt lat="37.920248276778814" lon="-2.9327066111556426"><ele>1051.25</ele><time>2026-04-20T18:27:50.999Z</time></trkpt><trkpt lat="37.920369336387786" lon="-2.932768814991331"><ele>1054.0</ele><time>2026-04-20T18:27:51.999Z</time></trkpt><trkpt lat="37.92050462140462" lon="-2.9328207099208883"><ele>1054.0</ele><time>2026-04-20T18:27:52.999Z</time></trkpt><trkpt lat="37.92063704682841" lon="-2.9329018898704224"><ele>1054.0</ele><time>2026-04-20T18:27:53.999Z</time></trkpt><trkpt lat="37.920767628396014" lon="-2.933031151564904"><ele>1054.0</ele><time>2026-04-20T18:27:54.999Z</time></trkpt><trkpt lat="37.920915856543196" lon="-2.933189265459661"><ele>1053.0</ele><time>2026-04-20T18:27:55.999Z</time></trkpt><trkpt lat="37.92105850566854" lon="-2.9333007207459425"><ele>1052.0</ele><time>2026-04-20T18:27:56.999Z</time></trkpt><trkpt lat="37.92118389113979" lon="-2.933380529403839"><ele>1051.0</ele><time>2026-04-20T18:27:57.999Z</time></trkpt><trkpt lat="37.92130958301001" lon="-2.9334203578841014"><ele>1050.0</ele><time>2026-04-20T18:27:58.999Z</time></trkpt><trkpt lat="37.92146509889529" lon="-2.933385345505643"><ele>1053.3333333333333</ele><time>2026-04-20T18:27:59.999Z</time></trkpt><trkpt lat="37.92163978505397" lon="-2.9333905803094242"><ele>1056.6666666666665</ele><time>2026-04-20T18:28:00.999Z</time></trkpt><trkpt lat="37.921797620447855" lon="-2.933392116406452"><ele>1060.0</ele><time>2026-04-20T18:28:01.999Z</time></trkpt><trkpt lat="37.92192886699813" lon="-2.933322882583747"><ele>1060.0</ele><time>2026-04-20T18:28:02.999Z</time></trkpt><trkpt lat="37.92205888332383" lon="-2.933248858259663"><ele>1060.0</ele><time>2026-04-20T18:28:03.999Z</time></trkpt><trkpt lat="37.92221529341665" lon="-2.933171819849819"><ele>1060.0</ele><time>2026-04-20T18:28:04.999Z</time></trkpt><trkpt lat="37.92235788702346" lon="-2.9330870670550877"><ele>1060.0</ele><time>2026-04-20T18:28:05.999Z</time></trkpt><trkpt lat="37.92248655542397" lon="-2.933036678038963"><ele>1060.0</ele><time>2026-04-20T18:28:06.999Z</time></trkpt><trkpt lat="37.92261173659723" lon="-2.933009041637423"><ele>1060.0</ele><time>2026-04-20T18:28:07.999Z</time></trkpt><trkpt lat="37.92272124486406" lon="-2.9330060560807913"><ele>1060.0</ele><time>2026-04-20T18:28:08.999Z</time></trkpt><trkpt lat="37.922818353448505" lon="-2.933029334793167"><ele>1061.0</ele><time>2026-04-20T18:28:09.999Z</time></trkpt><trkpt lat="37.9229055178454" lon="-2.9331137248864874"><ele>1062.0</ele><time>2026-04-20T18:28:10.999Z</time></trkpt><trkpt lat="37.92297391358841" lon="-2.933263013952465"><ele>1063.0</ele><time>2026-04-20T18:28:11.999Z</time></trkpt><trkpt lat="37.9230827398463" lon="-2.9334406793722527"><ele>1064.0</ele><time>2026-04-20T18:28:12.999Z</time></trkpt><trkpt lat="37.923209195407935" lon="-2.9336334411046754"><ele>1064.0</ele><time>2026-04-20T18:28:13.999Z</time></trkpt><trkpt lat="37.92335183521148" lon="-2.933785121979691"><ele>1064.0</ele><time>2026-04-20T18:28:14.999Z</time></trkpt><trkpt lat="37.92346982370795" lon="-2.9338913767718364"><ele>1064.0</ele><time>2026-04-20T18:28:15.999Z</time></trkpt><trkpt lat="37.923557348685115" lon="-2.9339886637232953"><ele>1064.0</ele><time>2026-04-20T18:28:16.999Z</time></trkpt><trkpt lat="37.9236289234353" lon="-2.934082889982318"><ele>1057.6000000000001</ele><time>2026-04-20T18:28:17.999Z</time></trkpt><trkpt lat="37.92365199048508" lon="-2.9341947725023583"><ele>1051.2</ele><time>2026-04-20T18:28:18.999Z</time></trkpt><trkpt lat="37.923656661040425" lon="-2.934294817187762"><ele>1044.8000000000002</ele><time>2026-04-20T18:28:19.999Z</time></trkpt><trkpt lat="37.92361088895386" lon="-2.9344055449907986"><ele>1038.4</ele><time>2026-04-20T18:28:20.999Z</time></trkpt><trkpt lat="37.92353239378168" lon="-2.9345061319510926"><ele>1032.0</ele><time>2026-04-20T18:28:21.999Z</time></trkpt><trkpt lat="37.9234196478677" lon="-2.9345904626486186"><ele>1039.0</ele><time>2026-04-20T18:28:22.999Z</time></trkpt><trkpt lat="37.92329754135583" lon="-2.9346947456986245"><ele>1046.0</ele><time>2026-04-20T18:28:23.999Z</time></trkpt><trkpt lat="37.92316954124728" lon="-2.9348152858828835"><ele>1053.0</ele><time>2026-04-20T18:28:24.999Z</time></trkpt><trkpt lat="37.923053840916346" lon="-2.9349396789185387"><ele>1048.25</ele><time>2026-04-20T18:28:25.999Z</time></trkpt><trkpt lat="37.92298485931571" lon="-2.9350744453398296"><ele>1043.5</ele><time>2026-04-20T18:28:26.999Z</time></trkpt><trkpt lat="37.92293868846255" lon="-2.935212715668929"><ele>1038.75</ele><time>2026-04-20T18:28:27.999Z</time></trkpt><trkpt lat="37.92294684658656" lon="-2.9353612261486552"><ele>1034.0</ele><time>2026-04-20T18:28:28.999Z</time></trkpt><trkpt lat="37.92293860742205" lon="-2.9355231840599387"><ele>1034.0</ele><time>2026-04-20T18:28:29.999Z</time></trkpt><trkpt lat="37.922918539400136" lon="-2.9356745189127036"><ele>1034.0</ele><time>2026-04-20T18:28:30.999Z</time></trkpt><trkpt lat="37.92285869171908" lon="-2.93582121571572"><ele>1034.0</ele><time>2026-04-20T18:28:31.999Z</time></trkpt><trkpt lat="37.92276486251417" lon="-2.935965828902265"><ele>1034.0</ele><time>2026-04-20T18:28:32.999Z</time></trkpt><trkpt lat="37.9226307304325" lon="-2.93612046587864"><ele>1043.3333333333335</ele><time>2026-04-20T18:28:33.998Z</time></trkpt><trkpt lat="37.922510464153085" lon="-2.936321600876655"><ele>1052.6666666666667</ele><time>2026-04-20T18:28:34.998Z</time></trkpt><trkpt lat="37.92241557603187" lon="-2.9365327991205254"><ele>1062.0</ele><time>2026-04-20T18:28:35.998Z</time></trkpt><trkpt lat="37.92236222614168" lon="-2.9367954977695585"><ele>1062.0</ele><time>2026-04-20T18:28:36.998Z</time></trkpt><trkpt lat="37.922280026620626" lon="-2.9370763467445125"><ele>1062.0</ele><time>2026-04-20T18:28:37.998Z</time></trkpt><trkpt lat="37.92217884874106" lon="-2.937319598176233"><ele>1063.6666666666667</ele><time>2026-04-20T18:28:38.998Z</time></trkpt><trkpt lat="37.92210110884624" lon="-2.9375602549908977"><ele>1065.3333333333335</ele><time>2026-04-20T18:28:39.998Z</time></trkpt><trkpt lat="37.92203941335598" lon="-2.9377798914146114"><ele>1067.0</ele><time>2026-04-20T18:28:40.998Z</time></trkpt><trkpt lat="37.92198900841667" lon="-2.9379742834179186"><ele>1067.0</ele><time>2026-04-20T18:28:41.998Z</time></trkpt><trkpt lat="37.92193262283263" lon="-2.938150088372646"><ele>1067.0</ele><time>2026-04-20T18:28:42.998Z</time></trkpt><trkpt lat="37.92188885578052" lon="-2.9383303593721553"><ele>1067.0</ele><time>2026-04-20T18:28:43.998Z</time></trkpt><trkpt lat="37.92188129488624" lon="-2.938533281689554"><ele>1067.75</ele><time>2026-04-20T18:28:44.998Z</time></trkpt><trkpt lat="37.92185913227418" lon="-2.9387273144085837"><ele>1068.5</ele><time>2026-04-20T18:28:46Z</time></trkpt><trkpt lat="37.921872958775836" lon="-2.9389027459031136"><ele>1069.25</ele><time>2026-04-20T18:28:47Z</time></trkpt><trkpt lat="37.921871890743866" lon="-2.9390585345163673"><ele>1070.0</ele><time>2026-04-20T18:28:48Z</time></trkpt><trkpt lat="37.92181071572152" lon="-2.939241866169216"><ele>1073.75</ele><time>2026-04-20T18:28:49Z</time></trkpt><trkpt lat="37.92173039912198" lon="-2.9394306778195762"><ele>1077.5</ele><time>2026-04-20T18:28:50Z</time></trkpt><trkpt lat="37.92165661831552" lon="-2.939596758282754"><ele>1081.25</ele><time>2026-04-20T18:28:51Z</time></trkpt><trkpt lat="37.921602752876105" lon="-2.93973123695596"><ele>1085.0</ele><time>2026-04-20T18:28:52Z</time></trkpt><trkpt lat="37.92151324246167" lon="-2.9398106001084043"><ele>1085.0</ele><time>2026-04-20T18:28:53Z</time></trkpt><trkpt lat="37.921426314636335" lon="-2.939892179220775"><ele>1085.0</ele><time>2026-04-20T18:28:54Z</time></trkpt><trkpt lat="37.92128305541432" lon="-2.939952958280023"><ele>1085.0</ele><time>2026-04-20T18:28:55Z</time></trkpt><trkpt lat="37.921154913996766" lon="-2.940048853178732"><ele>1085.0</ele><time>2026-04-20T18:28:56Z</time></trkpt><trkpt lat="37.92103122134136" lon="-2.940131374235371"><ele>1086.0</ele><time>2026-04-20T18:28:57Z</time></trkpt><trkpt lat="37.9209499947183" lon="-2.940281292319251"><ele>1087.0</ele><time>2026-04-20T18:28:58Z</time></trkpt><trkpt lat="37.92088023930596" lon="-2.940431222238145"><ele>1088.0</ele><time>2026-04-20T18:28:59Z</time></trkpt><trkpt lat="37.92082337488739" lon="-2.940602063667583"><ele>1089.0</ele><time>2026-04-20T18:29:00Z</time></trkpt><trkpt lat="37.92080353684119" lon="-2.9407950588759264"><ele>1088.6666666666667</ele><time>2026-04-20T18:29:01Z</time></trkpt><trkpt lat="37.92077436110667" lon="-2.9409862350398437"><ele>1088.3333333333335</ele><time>2026-04-20T18:29:02Z</time></trkpt><trkpt lat="37.92075909477563" lon="-2.941177473064608"><ele>1088.0</ele><time>2026-04-20T18:29:03Z</time></trkpt><trkpt lat="37.92077762409745" lon="-2.9413781090528617"><ele>1088.0</ele><time>2026-04-20T18:29:04Z</time></trkpt><trkpt lat="37.92078259680105" lon="-2.9415627394443122"><ele>1088.0</ele><time>2026-04-20T18:29:05Z</time></trkpt><trkpt lat="37.920799567692505" lon="-2.9417217500847808"><ele>1088.0</ele><time>2026-04-20T18:29:06Z</time></trkpt><trkpt lat="37.920806573247226" lon="-2.941876633503621"><ele>1088.0</ele><time>2026-04-20T18:29:07Z</time></trkpt><trkpt lat="37.92085576878913" lon="-2.9420170309941915"><ele>1086.2</ele><time>2026-04-20T18:29:08Z</time></trkpt><trkpt lat="37.92097318220293" lon="-2.942096016010326"><ele>1084.4</ele><time>2026-04-20T18:29:09Z</time></trkpt><trkpt lat="37.92104938013341" lon="-2.942191949472364"><ele>1082.6000000000001</ele><time>2026-04-20T18:29:10Z</time></trkpt><trkpt lat="37.92110570062739" lon="-2.9423042576533094"><ele>1080.8</ele><time>2026-04-20T18:29:11Z</time></trkpt><trkpt lat="37.921136000965234" lon="-2.9424256199096264"><ele>1079.0</ele><time>2026-04-20T18:29:12Z</time></trkpt><trkpt lat="37.92112853056954" lon="-2.9425504264630336"><ele>1078.0</ele><time>2026-04-20T18:29:13Z</time></trkpt><trkpt lat="37.92108051936614" lon="-2.942710522220891"><ele>1077.0</ele><time>2026-04-20T18:29:14Z</time></trkpt><trkpt lat="37.92100088876691" lon="-2.9428766814709997"><ele>1076.0</ele><time>2026-04-20T18:29:15Z</time></trkpt><trkpt lat="37.9209172032161" lon="-2.943049327809116"><ele>1075.0</ele><time>2026-04-20T18:29:16Z</time></trkpt><trkpt lat="37.9208508966206" lon="-2.9432228530045754"><ele>1076.0</ele><time>2026-04-20T18:29:17Z</time></trkpt><trkpt lat="37.92081508411599" lon="-2.9433997738431166"><ele>1077.0</ele><time>2026-04-20T18:29:18Z</time></trkpt><trkpt lat="37.92083156209956" lon="-2.943567987388892"><ele>1078.0</ele><time>2026-04-20T18:29:19Z</time></trkpt><trkpt lat="37.92088607762486" lon="-2.943742355365933"><ele>1079.0</ele><time>2026-04-20T18:29:20Z</time></trkpt><trkpt lat="37.92094631496937" lon="-2.943926654981685"><ele>1079.0</ele><time>2026-04-20T18:29:21Z</time></trkpt><trkpt lat="37.92098379111588" lon="-2.944134815715773"><ele>1079.0</ele><time>2026-04-20T18:29:22Z</time></trkpt><trkpt lat="37.92101487415357" lon="-2.9443171988584442"><ele>1079.0</ele><time>2026-04-20T18:29:23Z</time></trkpt><trkpt lat="37.92101417666579" lon="-2.9445078004290037"><ele>1076.5</ele><time>2026-04-20T18:29:24Z</time></trkpt><trkpt lat="37.92099117277311" lon="-2.9446688894915343"><ele>1074.0</ele><time>2026-04-20T18:29:25Z</time></trkpt><trkpt lat="37.920956912502184" lon="-2.94481397161877"><ele>1071.5</ele><time>2026-04-20T18:29:26Z</time></trkpt><trkpt lat="37.920888554387" lon="-2.9449551328587127"><ele>1069.0</ele><time>2026-04-20T18:29:27Z</time></trkpt><trkpt lat="37.92078987065353" lon="-2.9450731750351444"><ele>1068.0</ele><time>2026-04-20T18:29:28Z</time></trkpt><trkpt lat="37.920687021898615" lon="-2.9451860829829046"><ele>1067.0</ele><time>2026-04-20T18:29:29Z</time></trkpt><trkpt lat="37.92055831117791" lon="-2.9452644407524877"><ele>1066.0</ele><time>2026-04-20T18:29:30Z</time></trkpt><trkpt lat="37.92039959613912" lon="-2.945358161013293"><ele>1066.0</ele><time>2026-04-20T18:29:31Z</time></trkpt><trkpt lat="37.92022727119996" lon="-2.9454628264787592"><ele>1066.0</ele><time>2026-04-20T18:29:32Z</time></trkpt><trkpt lat="37.92007938857035" lon="-2.945597471792009"><ele>1066.0</ele><time>2026-04-20T18:29:33Z</time></trkpt><trkpt lat="37.91992385362082" lon="-2.9457030582837427"><ele>1066.25</ele><time>2026-04-20T18:29:34Z</time></trkpt><trkpt lat="37.91979029904464" lon="-2.945780852817038"><ele>1066.5</ele><time>2026-04-20T18:29:35Z</time></trkpt><trkpt lat="37.91966917250306" lon="-2.945816174976623"><ele>1066.75</ele><time>2026-04-20T18:29:36Z</time></trkpt><trkpt lat="37.91953740881048" lon="-2.9458750503704696"><ele>1067.0</ele><time>2026-04-20T18:29:37Z</time></trkpt><trkpt lat="37.919384261070505" lon="-2.9458947382814564"><ele>1068.6666666666667</ele><time>2026-04-20T18:29:37.999Z</time></trkpt><trkpt lat="37.91923212063817" lon="-2.945910857134277"><ele>1070.3333333333333</ele><time>2026-04-20T18:29:38.999Z</time></trkpt><trkpt lat="37.91905749683436" lon="-2.945936442196974"><ele>1072.0</ele><time>2026-04-20T18:29:39.999Z</time></trkpt><trkpt lat="37.91887728527928" lon="-2.9459692749323914"><ele>1072.0</ele><time>2026-04-20T18:29:40.999Z</time></trkpt><trkpt lat="37.9186898117209" lon="-2.946019376950519"><ele>1072.0</ele><time>2026-04-20T18:29:41.999Z</time></trkpt><trkpt lat="37.91850241198902" lon="-2.9460803518748135"><ele>1072.0</ele><time>2026-04-20T18:29:42.999Z</time></trkpt><trkpt lat="37.91831561679608" lon="-2.946129955539055"><ele>1074.3333333333333</ele><time>2026-04-20T18:29:43.999Z</time></trkpt><trkpt lat="37.918146867808424" lon="-2.9461957939017744"><ele>1076.6666666666667</ele><time>2026-04-20T18:29:44.999Z</time></trkpt><trkpt lat="37.91799646289214" lon="-2.946275742928192"><ele>1079.0</ele><time>2026-04-20T18:29:45.999Z</time></trkpt><trkpt lat="37.91785770535263" lon="-2.9463446200736234"><ele>1079.0</ele><time>2026-04-20T18:29:46.999Z</time></trkpt><trkpt lat="37.91773154520476" lon="-2.946425347545087"><ele>1079.0</ele><time>2026-04-20T18:29:47.999Z</time></trkpt><trkpt lat="37.91760110904914" lon="-2.9465071181016227"><ele>1079.0</ele><time>2026-04-20T18:29:48.999Z</time></trkpt><trkpt lat="37.91749342627644" lon="-2.9466470315502096"><ele>1079.0</ele><time>2026-04-20T18:29:49.999Z</time></trkpt><trkpt lat="37.917386267064224" lon="-2.9468008993877803"><ele>1079.0</ele><time>2026-04-20T18:29:50.999Z</time></trkpt><trkpt lat="37.91728322131169" lon="-2.9469715328023005"><ele>1079.0</ele><time>2026-04-20T18:29:51.999Z</time></trkpt><trkpt lat="37.917186198699454" lon="-2.9471473783366537"><ele>1079.0</ele><time>2026-04-20T18:29:52.999Z</time></trkpt><trkpt lat="37.91710087134437" lon="-2.9473099107858878"><ele>1079.0</ele><time>2026-04-20T18:29:53.999Z</time></trkpt><trkpt lat="37.917041610153476" lon="-2.947479993566964"><ele>1079.0</ele><time>2026-04-20T18:29:54.999Z</time></trkpt><trkpt lat="37.917003395991514" lon="-2.9476370217562606"><ele>1079.0</ele><time>2026-04-20T18:29:55.999Z</time></trkpt><trkpt lat="37.91696302494129" lon="-2.947773839445419"><ele>1079.0</ele><time>2026-04-20T18:29:56.999Z</time></trkpt><trkpt lat="37.91689250713973" lon="-2.947898289596516"><ele>1081.0</ele><time>2026-04-20T18:29:57.999Z</time></trkpt><trkpt lat="37.91678098350417" lon="-2.9480083179707313"><ele>1083.0</ele><time>2026-04-20T18:29:58.999Z</time></trkpt><trkpt lat="37.916653680955214" lon="-2.94811325926816"><ele>1085.0</ele><time>2026-04-20T18:29:59.999Z</time></trkpt><trkpt lat="37.916520680724865" lon="-2.9482220125287943"><ele>1085.0</ele><time>2026-04-20T18:30:00.999Z</time></trkpt><trkpt lat="37.91640156345454" lon="-2.948332506920748"><ele>1085.0</ele><time>2026-04-20T18:30:01.999Z</time></trkpt><trkpt lat="37.916307055787456" lon="-2.94846240641986"><ele>1085.0</ele><time>2026-04-20T18:30:02.999Z</time></trkpt><trkpt lat="37.91622967146489" lon="-2.9486129415201905"><ele>1085.0</ele><time>2026-04-20T18:30:03.999Z</time></trkpt><trkpt lat="37.916174946374085" lon="-2.948783844559256"><ele>1083.6666666666667</ele><time>2026-04-20T18:30:04.999Z</time></trkpt><trkpt lat="37.91616199082991" lon="-2.9489639064551296"><ele>1082.3333333333333</ele><time>2026-04-20T18:30:05.999Z</time></trkpt><trkpt lat="37.91616351212406" lon="-2.949162150717085"><ele>1081.0</ele><time>2026-04-20T18:30:06.999Z</time></trkpt><trkpt lat="37.91618647789496" lon="-2.949390119683977"><ele>1081.0</ele><time>2026-04-20T18:30:07.999Z</time></trkpt><trkpt lat="37.91624471139338" lon="-2.949610853301757"><ele>1081.0</ele><time>2026-04-20T18:30:08.999Z</time></trkpt><trkpt lat="37.91627614051478" lon="-2.949812622072019"><ele>1081.0</ele><time>2026-04-20T18:30:09.999Z</time></trkpt><trkpt lat="37.91629011648574" lon="-2.9500192763952966"><ele>1079.0</ele><time>2026-04-20T18:30:10.999Z</time></trkpt><trkpt lat="37.9162775072975" lon="-2.950208377004683"><ele>1077.0</ele><time>2026-04-20T18:30:11.999Z</time></trkpt><trkpt lat="37.91623668610388" lon="-2.9504189658555053"><ele>1075.0</ele><time>2026-04-20T18:30:12.999Z</time></trkpt><trkpt lat="37.91617166811618" lon="-2.9506300028228196"><ele>1075.0</ele><time>2026-04-20T18:30:13.999Z</time></trkpt><trkpt lat="37.91611083904574" lon="-2.95082582912015"><ele>1075.0</ele><time>2026-04-20T18:30:14.999Z</time></trkpt><trkpt lat="37.916059786567345" lon="-2.951001126287144"><ele>1075.0</ele><time>2026-04-20T18:30:15.999Z</time></trkpt><trkpt lat="37.91601293162991" lon="-2.951165337894355"><ele>1075.6</ele><time>2026-04-20T18:30:16.999Z</time></trkpt><trkpt lat="37.91597970765013" lon="-2.9513165638759036"><ele>1076.2</ele><time>2026-04-20T18:30:17.999Z</time></trkpt><trkpt lat="37.915951629264455" lon="-2.9514564859594716"><ele>1076.8</ele><time>2026-04-20T18:30:18.999Z</time></trkpt><trkpt lat="37.91593872558131" lon="-2.95157829975052"><ele>1077.4</ele><time>2026-04-20T18:30:19.999Z</time></trkpt><trkpt lat="37.915943773321814" lon="-2.9516943049860167"><ele>1078.0</ele><time>2026-04-20T18:30:20.999Z</time></trkpt><trkpt lat="37.915967387879185" lon="-2.951798199462774"><ele>1078.0</ele><time>2026-04-20T18:30:21.999Z</time></trkpt><trkpt lat="37.91603812006147" lon="-2.9518987781913744"><ele>1078.0</ele><time>2026-04-20T18:30:22.999Z</time></trkpt><trkpt lat="37.916132270391195" lon="-2.9519609239135094"><ele>1078.0</ele><time>2026-04-20T18:30:23.999Z</time></trkpt><trkpt lat="37.916253604631834" lon="-2.9519686642903995"><ele>1078.0</ele><time>2026-04-20T18:30:24.999Z</time></trkpt><trkpt lat="37.916358852988566" lon="-2.9519757500109165"><ele>1078.0</ele><time>2026-04-20T18:30:25.999Z</time></trkpt><trkpt lat="37.91645843520006" lon="-2.951994537043876"><ele>1078.0</ele><time>2026-04-20T18:30:26.999Z</time></trkpt><trkpt lat="37.9165344883125" lon="-2.95211530692416"><ele>1078.0</ele><time>2026-04-20T18:30:27.999Z</time></trkpt><trkpt lat="37.916569644579724" lon="-2.952232442429182"><ele>1078.0</ele><time>2026-04-20T18:30:28.999Z</time></trkpt><trkpt lat="37.91657069758408" lon="-2.9523552484347415"><ele>1078.0</ele><time>2026-04-20T18:30:29.999Z</time></trkpt><trkpt lat="37.91653844544547" lon="-2.95248102494969"><ele>1078.0</ele><time>2026-04-20T18:30:30.999Z</time></trkpt><trkpt lat="37.91649159353963" lon="-2.952619497381612"><ele>1077.6666666666665</ele><time>2026-04-20T18:30:31.999Z</time></trkpt><trkpt lat="37.91645013094947" lon="-2.9528012760767193"><ele>1077.3333333333333</ele><time>2026-04-20T18:30:32.999Z</time></trkpt><trkpt lat="37.916411111075206" lon="-2.9529923315818922"><ele>1077.0</ele><time>2026-04-20T18:30:33.999Z</time></trkpt><trkpt lat="37.916422021199466" lon="-2.953184650791063"><ele>1079.6666666666667</ele><time>2026-04-20T18:30:34.999Z</time></trkpt><trkpt lat="37.91645264176383" lon="-2.9534053039388226"><ele>1082.3333333333335</ele><time>2026-04-20T18:30:35.999Z</time></trkpt><trkpt lat="37.91648431279053" lon="-2.953622433473082"><ele>1085.0</ele><time>2026-04-20T18:30:36.999Z</time></trkpt><trkpt lat="37.916499273281374" lon="-2.9538117352696953"><ele>1085.0</ele><time>2026-04-20T18:30:37.999Z</time></trkpt><trkpt lat="37.916512993580646" lon="-2.9539727277879546"><ele>1085.0</ele><time>2026-04-20T18:30:38.999Z</time></trkpt><trkpt lat="37.91652210457223" lon="-2.9540887978048924"><ele>1085.0</ele><time>2026-04-20T18:30:39.999Z</time></trkpt><trkpt lat="37.91653180323929" lon="-2.9541894696760473"><ele>1085.0</ele><time>2026-04-20T18:30:40.999Z</time></trkpt><trkpt lat="37.91659635626645" lon="-2.954306020323225"><ele>1085.0</ele><time>2026-04-20T18:30:42.999Z</time></trkpt><trkpt lat="37.91669518779275" lon="-2.9542987595442214"><ele>1088.0</ele><time>2026-04-20T18:30:44.999Z</time></trkpt><trkpt lat="37.91684430575259" lon="-2.9542696640931894"><ele>1091.0</ele><time>2026-04-20T18:30:46.998Z</time></trkpt><trkpt lat="37.91693639332623" lon="-2.9542149180238932"><ele>1094.0</ele><time>2026-04-20T18:30:47.998Z</time></trkpt><trkpt lat="37.91700694163751" lon="-2.954102292407217"><ele>1097.0</ele><time>2026-04-20T18:30:48.998Z</time></trkpt><trkpt lat="37.91710103809348" lon="-2.9539776868901026"><ele>1097.0</ele><time>2026-04-20T18:30:49.998Z</time></trkpt><trkpt lat="37.91720326797605" lon="-2.9538728524122777"><ele>1097.0</ele><time>2026-04-20T18:30:50.998Z</time></trkpt><trkpt lat="37.91731118004919" lon="-2.95382654311934"><ele>1097.0</ele><time>2026-04-20T18:30:52Z</time></trkpt><trkpt lat="37.91741419615219" lon="-2.9538068704929215"><ele>1097.0</ele><time>2026-04-20T18:30:53Z</time></trkpt><trkpt lat="37.91752377423005" lon="-2.9538276326534305"><ele>1100.0</ele><time>2026-04-20T18:30:54Z</time></trkpt><trkpt lat="37.91763911339837" lon="-2.953872787515334"><ele>1103.0</ele><time>2026-04-20T18:30:55Z</time></trkpt><trkpt lat="37.91773341019179" lon="-2.95381783979326"><ele>1106.0</ele><time>2026-04-20T18:30:56Z</time></trkpt><trkpt lat="37.917796164919025" lon="-2.9537240060951246"><ele>1109.0</ele><time>2026-04-20T18:30:57Z</time></trkpt><trkpt lat="37.91789785189577" lon="-2.953623332670798"><ele>1109.0</ele><time>2026-04-20T18:30:58Z</time></trkpt><trkpt lat="37.91802956988843" lon="-2.9535765699273684"><ele>1109.0</ele><time>2026-04-20T18:30:59Z</time></trkpt><trkpt lat="37.91817167543751" lon="-2.953539550096341"><ele>1109.0</ele><time>2026-04-20T18:31:00Z</time></trkpt><trkpt lat="37.918321601356574" lon="-2.953524538188551"><ele>1109.0</ele><time>2026-04-20T18:31:01Z</time></trkpt><trkpt lat="37.91844984126401" lon="-2.953522007674992"><ele>1111.2</ele><time>2026-04-20T18:31:02Z</time></trkpt><trkpt lat="37.91855755505889" lon="-2.95353856305188"><ele>1113.4</ele><time>2026-04-20T18:31:03Z</time></trkpt><trkpt lat="37.918647184511514" lon="-2.9535980413878558"><ele>1115.6</ele><time>2026-04-20T18:31:04Z</time></trkpt><trkpt lat="37.918740600130775" lon="-2.9536770378549315"><ele>1117.8</ele><time>2026-04-20T18:31:05Z</time></trkpt><trkpt lat="37.91882928430218" lon="-2.9537595279183835"><ele>1120.0</ele><time>2026-04-20T18:31:06Z</time></trkpt><trkpt lat="37.91891057091364" lon="-2.953812292025637"><ele>1120.0</ele><time>2026-04-20T18:31:07Z</time></trkpt><trkpt lat="37.918991834836376" lon="-2.953810062987686"><ele>1120.0</ele><time>2026-04-20T18:31:08Z</time></trkpt><trkpt lat="37.91905650641655" lon="-2.9537184362419557"><ele>1120.0</ele><time>2026-04-20T18:31:09Z</time></trkpt><trkpt lat="37.91906809287053" lon="-2.953596833648195"><ele>1120.0</ele><time>2026-04-20T18:31:10Z</time></trkpt><trkpt lat="37.919092671676225" lon="-2.9534538240325543"><ele>1120.0</ele><time>2026-04-20T18:31:11Z</time></trkpt><trkpt lat="37.919161035802844" lon="-2.953304661762174"><ele>1116.3333333333333</ele><time>2026-04-20T18:31:12Z</time></trkpt><trkpt lat="37.91927433456344" lon="-2.9531891272667257"><ele>1112.6666666666667</ele><time>2026-04-20T18:31:13Z</time></trkpt><trkpt lat="37.91940500811698" lon="-2.9530761496001285"><ele>1109.0</ele><time>2026-04-20T18:31:14Z</time></trkpt><trkpt lat="37.91954213072056" lon="-2.952986714722659"><ele>1109.0</ele><time>2026-04-20T18:31:15Z</time></trkpt><trkpt lat="37.91968054983128" lon="-2.952927353050106"><ele>1109.0</ele><time>2026-04-20T18:31:16Z</time></trkpt><trkpt lat="37.919829444936305" lon="-2.9529328443156695"><ele>1109.0</ele><time>2026-04-20T18:31:17Z</time></trkpt><trkpt lat="37.919979244449884" lon="-2.952958118130065"><ele>1109.0</ele><time>2026-04-20T18:31:18Z</time></trkpt><trkpt lat="37.92014023189193" lon="-2.9530040965353024"><ele>1109.0</ele><time>2026-04-20T18:31:19Z</time></trkpt><trkpt lat="37.920303395256774" lon="-2.953063467406076"><ele>1109.0</ele><time>2026-04-20T18:31:20Z</time></trkpt><trkpt lat="37.92044209660116" lon="-2.953135197387942"><ele>1109.0</ele><time>2026-04-20T18:31:21Z</time></trkpt><trkpt lat="37.92057822564708" lon="-2.9531842569914892"><ele>1109.0</ele><time>2026-04-20T18:31:22Z</time></trkpt><trkpt lat="37.920705125924535" lon="-2.9532017479306822"><ele>1109.0</ele><time>2026-04-20T18:31:23Z</time></trkpt><trkpt lat="37.920827409139264" lon="-2.9531646134914395"><ele>1109.0</ele><time>2026-04-20T18:31:24Z</time></trkpt><trkpt lat="37.920966390293074" lon="-2.953122509056338"><ele>1109.0</ele><time>2026-04-20T18:31:25Z</time></trkpt><trkpt lat="37.92111755230469" lon="-2.9530823025650204"><ele>1114.3333333333335</ele><time>2026-04-20T18:31:26Z</time></trkpt><trkpt lat="37.92127900305067" lon="-2.953065029675425"><ele>1119.6666666666667</ele><time>2026-04-20T18:31:27Z</time></trkpt><trkpt lat="37.921449715628825" lon="-2.9530978168636888"><ele>1125.0</ele><time>2026-04-20T18:31:28Z</time></trkpt><trkpt lat="37.92159742590071" lon="-2.95314049245005"><ele>1125.0</ele><time>2026-04-20T18:31:29Z</time></trkpt><trkpt lat="37.92172817118462" lon="-2.9531099458116086"><ele>1125.0</ele><time>2026-04-20T18:31:30Z</time></trkpt><trkpt lat="37.92184243908899" lon="-2.953046800847877"><ele>1125.0</ele><time>2026-04-20T18:31:31Z</time></trkpt><trkpt lat="37.921967824294235" lon="-2.9529651378735964"><ele>1125.0</ele><time>2026-04-20T18:31:32Z</time></trkpt><trkpt lat="37.922114737833134" lon="-2.95287312609826"><ele>1129.6666666666667</ele><time>2026-04-20T18:31:33Z</time></trkpt><trkpt lat="37.92227433155521" lon="-2.9527527877880457"><ele>1134.3333333333335</ele><time>2026-04-20T18:31:34Z</time></trkpt><trkpt lat="37.92245570699072" lon="-2.952584618847437"><ele>1139.0</ele><time>2026-04-20T18:31:35Z</time></trkpt><trkpt lat="37.92263195773444" lon="-2.9524299758346255"><ele>1139.0</ele><time>2026-04-20T18:31:36Z</time></trkpt><trkpt lat="37.92277669834141" lon="-2.9523009547894996"><ele>1139.0</ele><time>2026-04-20T18:31:37Z</time></trkpt><trkpt lat="37.92290808839088" lon="-2.952181053278581"><ele>1139.0</ele><time>2026-04-20T18:31:38Z</time></trkpt><trkpt lat="37.92302982532005" lon="-2.952069960791142"><ele>1139.0</ele><time>2026-04-20T18:31:39Z</time></trkpt><trkpt lat="37.923139109118154" lon="-2.9519732817199533"><ele>1139.0</ele><time>2026-04-20T18:31:40Z</time></trkpt><trkpt lat="37.92324017647131" lon="-2.9519021495183773"><ele>1139.0</ele><time>2026-04-20T18:31:41Z</time></trkpt><trkpt lat="37.92332845255052" lon="-2.951858012359296"><ele>1139.0</ele><time>2026-04-20T18:31:41.999Z</time></trkpt><trkpt lat="37.92343184404117" lon="-2.9518759620086463"><ele>1139.0</ele><time>2026-04-20T18:31:42.999Z</time></trkpt><trkpt lat="37.92354115199219" lon="-2.9519225701072185"><ele>1141.5</ele><time>2026-04-20T18:31:43.999Z</time></trkpt><trkpt lat="37.92367967912697" lon="-2.952008764852272"><ele>1144.0</ele><time>2026-04-20T18:31:44.999Z</time></trkpt><trkpt lat="37.92382832142772" lon="-2.95209724327725"><ele>1146.5</ele><time>2026-04-20T18:31:45.999Z</time></trkpt><trkpt lat="37.92395387956925" lon="-2.952125316095179"><ele>1149.0</ele><time>2026-04-20T18:31:46.999Z</time></trkpt><trkpt lat="37.92406336611033" lon="-2.952131763473634"><ele>1149.0</ele><time>2026-04-20T18:31:47.999Z</time></trkpt><trkpt lat="37.92416380401824" lon="-2.952066896371197"><ele>1149.0</ele><time>2026-04-20T18:31:48.999Z</time></trkpt><trkpt lat="37.9242958102882" lon="-2.95196485952137"><ele>1149.0</ele><time>2026-04-20T18:31:49.999Z</time></trkpt><trkpt lat="37.924470810312926" lon="-2.9518862500523255"><ele>1144.3333333333333</ele><time>2026-04-20T18:31:50.999Z</time></trkpt><trkpt lat="37.9246675682052" lon="-2.951805712117351"><ele>1139.6666666666665</ele><time>2026-04-20T18:31:51.999Z</time></trkpt><trkpt lat="37.92483453784808" lon="-2.951725608293338"><ele>1135.0</ele><time>2026-04-20T18:31:52.999Z</time></trkpt><trkpt lat="37.92496126809344" lon="-2.9516285647293197"><ele>1149.3333333333333</ele><time>2026-04-20T18:31:53.999Z</time></trkpt><trkpt lat="37.92507356070906" lon="-2.951492968612597"><ele>1163.6666666666667</ele><time>2026-04-20T18:31:54.999Z</time></trkpt><trkpt lat="37.92519532817069" lon="-2.9513197585168447"><ele>1178.0</ele><time>2026-04-20T18:31:55.999Z</time></trkpt><trkpt lat="37.92533106388025" lon="-2.951143995376203"><ele>1178.0</ele><time>2026-04-20T18:31:56.999Z</time></trkpt><trkpt lat="37.92547101529821" lon="-2.950998525310156"><ele>1178.0</ele><time>2026-04-20T18:31:57.999Z</time></trkpt><trkpt lat="37.92560057689554" lon="-2.9508760731498644"><ele>1178.0</ele><time>2026-04-20T18:31:58.999Z</time></trkpt><trkpt lat="37.925719601119596" lon="-2.950779275072783"><ele>1179.25</ele><time>2026-04-20T18:31:59.999Z</time></trkpt><trkpt lat="37.92583418477292" lon="-2.9506938002162095"><ele>1180.5</ele><time>2026-04-20T18:32:00.999Z</time></trkpt><trkpt lat="37.92595557770753" lon="-2.9506091099899763"><ele>1181.75</ele><time>2026-04-20T18:32:01.999Z</time></trkpt><trkpt lat="37.926089009205874" lon="-2.950513523522803"><ele>1183.0</ele><time>2026-04-20T18:32:02.999Z</time></trkpt><trkpt lat="37.9262285984557" lon="-2.9504160250596088"><ele>1183.0</ele><time>2026-04-20T18:32:03.999Z</time></trkpt><trkpt lat="37.92638735133335" lon="-2.950340875314267"><ele>1183.0</ele><time>2026-04-20T18:32:04.999Z</time></trkpt><trkpt lat="37.92653470637939" lon="-2.9502788964723865"><ele>1183.0</ele><time>2026-04-20T18:32:05.999Z</time></trkpt><trkpt lat="37.926658010499224" lon="-2.950179061887856"><ele>1177.6666666666665</ele><time>2026-04-20T18:32:06.999Z</time></trkpt><trkpt lat="37.92676660968378" lon="-2.950037375706143"><ele>1172.3333333333333</ele><time>2026-04-20T18:32:07.999Z</time></trkpt><trkpt lat="37.92688505063231" lon="-2.9498897769921193"><ele>1167.0</ele><time>2026-04-20T18:32:08.999Z</time></trkpt><trkpt lat="37.92702071479978" lon="-2.949743347964656"><ele>1167.0</ele><time>2026-04-20T18:32:09.999Z</time></trkpt><trkpt lat="37.92716277733227" lon="-2.949632413584789"><ele>1167.0</ele><time>2026-04-20T18:32:10.999Z</time></trkpt><trkpt lat="37.92732879037907" lon="-2.9495451858568607"><ele>1167.0</ele><time>2026-04-20T18:32:11.999Z</time></trkpt><trkpt lat="37.92747098931492" lon="-2.94942068036335"><ele>1171.5</ele><time>2026-04-20T18:32:12.999Z</time></trkpt><trkpt lat="37.92758363246176" lon="-2.9493077297364643"><ele>1176.0</ele><time>2026-04-20T18:32:13.999Z</time></trkpt><trkpt lat="37.92769233962153" lon="-2.9492418425483815"><ele>1180.5</ele><time>2026-04-20T18:32:14.999Z</time></trkpt><trkpt lat="37.927782831112474" lon="-2.9491943747359843"><ele>1185.0</ele><time>2026-04-20T18:32:15.999Z</time></trkpt><trkpt lat="37.92789032801494" lon="-2.9492081740678575"><ele>1185.0</ele><time>2026-04-20T18:32:16.999Z</time></trkpt><trkpt lat="37.92801675527337" lon="-2.949258130635693"><ele>1185.0</ele><time>2026-04-20T18:32:17.999Z</time></trkpt><trkpt lat="37.92815319500226" lon="-2.9493596014776178"><ele>1185.0</ele><time>2026-04-20T18:32:18.999Z</time></trkpt><trkpt lat="37.92828357983966" lon="-2.949404798002206"><ele>1185.0</ele><time>2026-04-20T18:32:19.999Z</time></trkpt><trkpt lat="37.92839323531603" lon="-2.9493642531319995"><ele>1185.6666666666667</ele><time>2026-04-20T18:32:20.999Z</time></trkpt><trkpt lat="37.92851159783586" lon="-2.949291749631181"><ele>1186.3333333333335</ele><time>2026-04-20T18:32:21.999Z</time></trkpt><trkpt lat="37.928672253747344" lon="-2.949202565285916"><ele>1187.0</ele><time>2026-04-20T18:32:22.999Z</time></trkpt><trkpt lat="37.92884610785296" lon="-2.9491122177252755"><ele>1184.0</ele><time>2026-04-20T18:32:23.999Z</time></trkpt><trkpt lat="37.92898959872223" lon="-2.949071669174991"><ele>1181.0</ele><time>2026-04-20T18:32:24.999Z</time></trkpt><trkpt lat="37.92912405407023" lon="-2.949059326096607"><ele>1178.0</ele><time>2026-04-20T18:32:25.999Z</time></trkpt><trkpt lat="37.92927763984027" lon="-2.949104801755942"><ele>1175.0</ele><time>2026-04-20T18:32:26.999Z</time></trkpt><trkpt lat="37.92941462796725" lon="-2.949109962147817"><ele>1175.0</ele><time>2026-04-20T18:32:27.999Z</time></trkpt><trkpt lat="37.92952129686375" lon="-2.949062562856745"><ele>1175.0</ele><time>2026-04-20T18:32:28.999Z</time></trkpt><trkpt lat="37.929618342918346" lon="-2.9489564054961512"><ele>1175.0</ele><time>2026-04-20T18:32:29.999Z</time></trkpt><trkpt lat="37.92974374394048" lon="-2.948805394101671"><ele>1175.0</ele><time>2026-04-20T18:32:30.999Z</time></trkpt><trkpt lat="37.92989154527771" lon="-2.9486366255468295"><ele>1175.0</ele><time>2026-04-20T18:32:31.999Z</time></trkpt><trkpt lat="37.93002025001739" lon="-2.9484879649945244"><ele>1175.0</ele><time>2026-04-20T18:32:32.999Z</time></trkpt><trkpt lat="37.930100867876455" lon="-2.948375770255301"><ele>1175.0</ele><time>2026-04-20T18:32:33.999Z</time></trkpt><trkpt lat="37.930158531115595" lon="-2.9482614590099065"><ele>1175.0</ele><time>2026-04-20T18:32:34.999Z</time></trkpt><trkpt lat="37.930143424661445" lon="-2.94812079782691"><ele>1174.3333333333335</ele><time>2026-04-20T18:32:35.999Z</time></trkpt><trkpt lat="37.93015821840422" lon="-2.9479250422478978"><ele>1173.6666666666667</ele><time>2026-04-20T18:32:36.999Z</time></trkpt><trkpt lat="37.9302105007343" lon="-2.9477056838175697"><ele>1173.0</ele><time>2026-04-20T18:32:37.999Z</time></trkpt><trkpt lat="37.93030921369379" lon="-2.9475280237151447"><ele>1173.0</ele><time>2026-04-20T18:32:38.999Z</time></trkpt><trkpt lat="37.93038164678674" lon="-2.947385113521265"><ele>1173.0</ele><time>2026-04-20T18:32:39.999Z</time></trkpt><trkpt lat="37.93048193602027" lon="-2.947321613144295"><ele>1173.0</ele><time>2026-04-20T18:32:40.999Z</time></trkpt><trkpt lat="37.93057707155852" lon="-2.947296832727494"><ele>1173.0</ele><time>2026-04-20T18:32:41.999Z</time></trkpt><trkpt lat="37.93069082755889" lon="-2.9473469673793353"><ele>1173.0</ele><time>2026-04-20T18:32:42.999Z</time></trkpt><trkpt lat="37.93082303452994" lon="-2.9474016029387062"><ele>1173.0</ele><time>2026-04-20T18:32:43.999Z</time></trkpt><trkpt lat="37.93093548503445" lon="-2.947319136510004"><ele>1173.0</ele><time>2026-04-20T18:32:44.999Z</time></trkpt><trkpt lat="37.93108314045952" lon="-2.947203979182722"><ele>1173.0</ele><time>2026-04-20T18:32:45.999Z</time></trkpt><trkpt lat="37.93123801551396" lon="-2.9470842442649086"><ele>1173.5</ele><time>2026-04-20T18:32:46.999Z</time></trkpt><trkpt lat="37.93134579696308" lon="-2.946967662909368"><ele>1174.0</ele><time>2026-04-20T18:32:47.998Z</time></trkpt><trkpt lat="37.93139650788828" lon="-2.946816151103365"><ele>1174.5</ele><time>2026-04-20T18:32:48.998Z</time></trkpt><trkpt lat="37.93147679586883" lon="-2.9466495500000325"><ele>1175.0</ele><time>2026-04-20T18:32:49.998Z</time></trkpt><trkpt lat="37.93156292263575" lon="-2.9465393875330195"><ele>1182.6666666666667</ele><time>2026-04-20T18:32:50.998Z</time></trkpt><trkpt lat="37.93174008341065" lon="-2.946436803505414"><ele>1190.3333333333333</ele><time>2026-04-20T18:32:51.998Z</time></trkpt><trkpt lat="37.931911651190084" lon="-2.9463064804491252"><ele>1198.0</ele><time>2026-04-20T18:32:52.998Z</time></trkpt><trkpt lat="37.9321069114141" lon="-2.946180690752351"><ele>1198.0</ele><time>2026-04-20T18:32:53.998Z</time></trkpt><trkpt lat="37.932268866957855" lon="-2.9460354398019435"><ele>1198.0</ele><time>2026-04-20T18:32:54.998Z</time></trkpt><trkpt lat="37.9324042981648" lon="-2.9459029877780867"><ele>1198.0</ele><time>2026-04-20T18:32:55.998Z</time></trkpt><trkpt lat="37.93254019609911" lon="-2.9457777703634225"><ele>1198.0</ele><time>2026-04-20T18:32:56.998Z</time></trkpt><trkpt lat="37.93268494727517" lon="-2.9457006614755397"><ele>1198.0</ele><time>2026-04-20T18:32:58Z</time></trkpt><trkpt lat="37.932850355368494" lon="-2.9456684652463125"><ele>1198.0</ele><time>2026-04-20T18:32:59Z</time></trkpt><trkpt lat="37.9329905194548" lon="-2.945592971838772"><ele>1198.0</ele><time>2026-04-20T18:33:00Z</time></trkpt><trkpt lat="37.933112222595135" lon="-2.9454724696417824"><ele>1198.0</ele><time>2026-04-20T18:33:01Z</time></trkpt><trkpt lat="37.933239668159985" lon="-2.945307900048639"><ele>1198.0</ele><time>2026-04-20T18:33:02Z</time></trkpt><trkpt lat="37.93337723548591" lon="-2.945125403612811"><ele>1201.6666666666665</ele><time>2026-04-20T18:33:03Z</time></trkpt><trkpt lat="37.93352227705354" lon="-2.944946566343252"><ele>1205.3333333333333</ele><time>2026-04-20T18:33:04Z</time></trkpt><trkpt lat="37.933658014912844" lon="-2.9447919604464423"><ele>1209.0</ele><time>2026-04-20T18:33:05Z</time></trkpt><trkpt lat="37.933820734263925" lon="-2.9446698868452414"><ele>1209.0</ele><time>2026-04-20T18:33:06Z</time></trkpt><trkpt lat="37.93395835406714" lon="-2.944532178046509"><ele>1209.0</ele><time>2026-04-20T18:33:07Z</time></trkpt><trkpt lat="37.93410701737184" lon="-2.9444180249306315"><ele>1209.0</ele><time>2026-04-20T18:33:08Z</time></trkpt><trkpt lat="37.93424167858393" lon="-2.9443156724320962"><ele>1212.0</ele><time>2026-04-20T18:33:09Z</time></trkpt><trkpt lat="37.93436151611158" lon="-2.9442113191769215"><ele>1215.0</ele><time>2026-04-20T18:33:10Z</time></trkpt><trkpt lat="37.934448886686454" lon="-2.9441173046472593"><ele>1218.0</ele><time>2026-04-20T18:33:11Z</time></trkpt><trkpt lat="37.93449516915516" lon="-2.943995712273722"><ele>1221.0</ele><time>2026-04-20T18:33:12Z</time></trkpt><trkpt lat="37.93451906524206" lon="-2.9438397848840547"><ele>1221.0</ele><time>2026-04-20T18:33:13Z</time></trkpt><trkpt lat="37.934577998595366" lon="-2.9436637498751175"><ele>1221.0</ele><time>2026-04-20T18:33:14Z</time></trkpt><trkpt lat="37.9346593475486" lon="-2.9435241321190437"><ele>1221.0</ele><time>2026-04-20T18:33:15Z</time></trkpt><trkpt lat="37.93476161246181" lon="-2.943433246597118"><ele>1221.0</ele><time>2026-04-20T18:33:16Z</time></trkpt><trkpt lat="37.93489371730705" lon="-2.943373514247766"><ele>1222.3333333333333</ele><time>2026-04-20T18:33:17Z</time></trkpt><trkpt lat="37.935050118514674" lon="-2.9433218553770932"><ele>1223.6666666666665</ele><time>2026-04-20T18:33:18Z</time></trkpt><trkpt lat="37.93523011288203" lon="-2.943254130120254"><ele>1225.0</ele><time>2026-04-20T18:33:19Z</time></trkpt><trkpt lat="37.93539866754907" lon="-2.9431867606697506"><ele>1225.0</ele><time>2026-04-20T18:33:20Z</time></trkpt><trkpt lat="37.935531065662836" lon="-2.943093195507383"><ele>1225.0</ele><time>2026-04-20T18:33:21Z</time></trkpt><trkpt lat="37.935646889711954" lon="-2.9429672156724194"><ele>1225.0</ele><time>2026-04-20T18:33:22Z</time></trkpt><trkpt lat="37.93577076319109" lon="-2.9428143875151656"><ele>1226.3333333333333</ele><time>2026-04-20T18:33:23Z</time></trkpt><trkpt lat="37.93590374740808" lon="-2.942673933814701"><ele>1227.6666666666667</ele><time>2026-04-20T18:33:24Z</time></trkpt><trkpt lat="37.93603575075803" lon="-2.942558704387085"><ele>1229.0</ele><time>2026-04-20T18:33:25Z</time></trkpt><trkpt lat="37.93619288419554" lon="-2.9424696958865155"><ele>1229.0</ele><time>2026-04-20T18:33:26Z</time></trkpt><trkpt lat="37.93632739236622" lon="-2.942407037754947"><ele>1229.0</ele><time>2026-04-20T18:33:27Z</time></trkpt><trkpt lat="37.93644604740864" lon="-2.942332204778431"><ele>1229.0</ele><time>2026-04-20T18:33:28Z</time></trkpt><trkpt lat="37.93653162671709" lon="-2.942227000578271"><ele>1229.0</ele><time>2026-04-20T18:33:29Z</time></trkpt><trkpt lat="37.93660365653515" lon="-2.942060485767128"><ele>1229.0</ele><time>2026-04-20T18:33:30Z</time></trkpt><trkpt lat="37.936707358746624" lon="-2.941839187860045"><ele>1229.0</ele><time>2026-04-20T18:33:31Z</time></trkpt><trkpt lat="37.936774337438244" lon="-2.941681991927704"><ele>1229.0</ele><time>2026-04-20T18:33:32Z</time></trkpt><trkpt lat="37.93680703564998" lon="-2.94149669343864"><ele>1233.0</ele><time>2026-04-20T18:33:33Z</time></trkpt><trkpt lat="37.936822148703115" lon="-2.9412969858871305"><ele>1237.0</ele><time>2026-04-20T18:33:34Z</time></trkpt><trkpt lat="37.936841956637394" lon="-2.9410734102522222"><ele>1241.0</ele><time>2026-04-20T18:33:35Z</time></trkpt><trkpt lat="37.936865895612634" lon="-2.940851867288492"><ele>1241.0</ele><time>2026-04-20T18:33:36Z</time></trkpt><trkpt lat="37.93689232318155" lon="-2.94065729265864"><ele>1241.0</ele><time>2026-04-20T18:33:37Z</time></trkpt><trkpt lat="37.9369299902527" lon="-2.9405000178754497"><ele>1241.0</ele><time>2026-04-20T18:33:38Z</time></trkpt><trkpt lat="37.936972468999585" lon="-2.9403491362303256"><ele>1241.0</ele><time>2026-04-20T18:33:39Z</time></trkpt><trkpt lat="37.93700995631669" lon="-2.940216040307801"><ele>1241.0</ele><time>2026-04-20T18:33:40Z</time></trkpt><trkpt lat="37.93706614730507" lon="-2.9400968237588616"><ele>1241.0</ele><time>2026-04-20T18:33:41Z</time></trkpt><trkpt lat="37.93715873118761" lon="-2.9400089957408895"><ele>1241.0</ele><time>2026-04-20T18:33:42Z</time></trkpt><trkpt lat="37.937271219535944" lon="-2.9399201218185267"><ele>1241.0</ele><time>2026-04-20T18:33:43Z</time></trkpt><trkpt lat="37.93742057271218" lon="-2.939816189638212"><ele>1242.25</ele><time>2026-04-20T18:33:44Z</time></trkpt><trkpt lat="37.93755025361354" lon="-2.939700672973528"><ele>1243.5</ele><time>2026-04-20T18:33:45Z</time></trkpt><trkpt lat="37.93764878001055" lon="-2.93955160397242"><ele>1244.75</ele><time>2026-04-20T18:33:46Z</time></trkpt><trkpt lat="37.9377396716252" lon="-2.939435399486636"><ele>1246.0</ele><time>2026-04-20T18:33:47Z</time></trkpt><trkpt lat="37.93784325873413" lon="-2.9393577890414613"><ele>1246.0</ele><time>2026-04-20T18:33:47.999Z</time></trkpt><trkpt lat="37.937966492620376" lon="-2.939307196207487"><ele>1246.0</ele><time>2026-04-20T18:33:48.999Z</time></trkpt><trkpt lat="37.9381108621458" lon="-2.9393007453253053"><ele>1246.0</ele><time>2026-04-20T18:33:49.999Z</time></trkpt><trkpt lat="37.93827121697562" lon="-2.939335688919673"><ele>1246.0</ele><time>2026-04-20T18:33:50.999Z</time></trkpt><trkpt lat="37.9384399110877" lon="-2.9393844650848786"><ele>1247.6666666666665</ele><time>2026-04-20T18:33:51.999Z</time></trkpt><trkpt lat="37.93861302696242" lon="-2.9394175259260775"><ele>1249.3333333333333</ele><time>2026-04-20T18:33:52.999Z</time></trkpt><trkpt lat="37.938787594217644" lon="-2.9393723629171946"><ele>1251.0</ele><time>2026-04-20T18:33:53.999Z</time></trkpt><trkpt lat="37.93897270640286" lon="-2.9393437692751414"><ele>1251.0</ele><time>2026-04-20T18:33:54.999Z</time></trkpt><trkpt lat="37.93916376567535" lon="-2.9392921509481607"><ele>1251.0</ele><time>2026-04-20T18:33:55.999Z</time></trkpt><trkpt lat="37.9393609322842" lon="-2.9392811836883768"><ele>1251.0</ele><time>2026-04-20T18:33:56.999Z</time></trkpt><trkpt lat="37.93957983466806" lon="-2.9393083980072356"><ele>1254.0</ele><time>2026-04-20T18:33:57.999Z</time></trkpt><trkpt lat="37.939786342646755" lon="-2.939341077785501"><ele>1257.0</ele><time>2026-04-20T18:33:58.999Z</time></trkpt><trkpt lat="37.93998425922595" lon="-2.9393373411936357"><ele>1260.0</ele><time>2026-04-20T18:33:59.999Z</time></trkpt><trkpt lat="37.94017826308527" lon="-2.93927352180432"><ele>1263.0</ele><time>2026-04-20T18:34:00.999Z</time></trkpt><trkpt lat="37.94036340440603" lon="-2.939239946287555"><ele>1266.0</ele><time>2026-04-20T18:34:01.999Z</time></trkpt><trkpt lat="37.9405212893735" lon="-2.9391983146756435"><ele>1269.0</ele><time>2026-04-20T18:34:02.999Z</time></trkpt><trkpt lat="37.940644143633904" lon="-2.9391776844811073"><ele>1267.6666666666667</ele><time>2026-04-20T18:34:03.999Z</time></trkpt><trkpt lat="37.940752965421055" lon="-2.939166573156657"><ele>1266.3333333333333</ele><time>2026-04-20T18:34:04.999Z</time></trkpt><trkpt lat="37.94084263567859" lon="-2.9391769946329487"><ele>1265.0</ele><time>2026-04-20T18:34:05.999Z</time></trkpt><trkpt lat="37.94091952852368" lon="-2.93919895088984"><ele>1263.6666666666665</ele><time>2026-04-20T18:34:06.999Z</time></trkpt><trkpt lat="37.94098555656441" lon="-2.9392279786796873"><ele>1262.3333333333333</ele><time>2026-04-20T18:34:07.999Z</time></trkpt><trkpt lat="37.941063106156825" lon="-2.9392659760475626"><ele>1261.0</ele><time>2026-04-20T18:34:09.999Z</time></trkpt><trkpt lat="37.941126859731995" lon="-2.9393025065694753"><ele>1261.0</ele><time>2026-04-20T18:39:49Z</time></trkpt><trkpt lat="37.94119682781008" lon="-2.939396591579097"><ele>1261.0</ele><time>2026-04-20T18:39:52Z</time></trkpt><trkpt lat="37.94127105845857" lon="-2.93949396831623"><ele>1261.0</ele><time>2026-04-20T18:39:54Z</time></trkpt><trkpt lat="37.941330499762884" lon="-2.939566702809341"><ele>1261.0</ele><time>2026-04-20T18:39:55Z</time></trkpt><trkpt lat="37.94139868187912" lon="-2.939629186471493"><ele>1261.0</ele><time>2026-04-20T18:39:56Z</time></trkpt><trkpt lat="37.94147954446307" lon="-2.939691100712536"><ele>1261.0</ele><time>2026-04-20T18:39:57Z</time></trkpt><trkpt lat="37.941574023736514" lon="-2.9397357531383848"><ele>1261.0</ele><time>2026-04-20T18:39:58Z</time></trkpt><trkpt lat="37.94168193704613" lon="-2.939756453318224"><ele>1261.0</ele><time>2026-04-20T18:39:59Z</time></trkpt><trkpt lat="37.941793667544914" lon="-2.9397664978898157"><ele>1261.0</ele><time>2026-04-20T18:40:00Z</time></trkpt><trkpt lat="37.941908938739076" lon="-2.9397685253153982"><ele>1261.0</ele><time>2026-04-20T18:40:01Z</time></trkpt><trkpt lat="37.94202260282946" lon="-2.939798111271903"><ele>1259.6</ele><time>2026-04-20T18:40:02Z</time></trkpt><trkpt lat="37.94214453783705" lon="-2.939829438149023"><ele>1258.1999999999998</ele><time>2026-04-20T18:40:03Z</time></trkpt><trkpt lat="37.942253301730744" lon="-2.939852278742296"><ele>1256.8000000000002</ele><time>2026-04-20T18:40:04Z</time></trkpt><trkpt lat="37.94234436828124" lon="-2.939846123135991"><ele>1255.4</ele><time>2026-04-20T18:40:05Z</time></trkpt><trkpt lat="37.94242696983386" lon="-2.939819413690426"><ele>1254.0</ele><time>2026-04-20T18:40:06Z</time></trkpt><trkpt lat="37.942508002990095" lon="-2.9397671449927794"><ele>1250.2</ele><time>2026-04-20T18:40:07Z</time></trkpt><trkpt lat="37.942588417451596" lon="-2.9396961061708833"><ele>1246.4</ele><time>2026-04-20T18:40:08Z</time></trkpt><trkpt lat="37.94267382833714" lon="-2.93964296710129"><ele>1242.6</ele><time>2026-04-20T18:40:09Z</time></trkpt><trkpt lat="37.942757165759026" lon="-2.9396240354678107"><ele>1238.8</ele><time>2026-04-20T18:40:10Z</time></trkpt><trkpt lat="37.94284556796214" lon="-2.939638546185569"><ele>1235.0</ele><time>2026-04-20T18:40:11Z</time></trkpt><trkpt lat="37.942929146406" lon="-2.9396723506163553"><ele>1235.0</ele><time>2026-04-20T18:40:12Z</time></trkpt><trkpt lat="37.94301217794459" lon="-2.9397367205398828"><ele>1235.0</ele><time>2026-04-20T18:40:13Z</time></trkpt><trkpt lat="37.94309666326646" lon="-2.939850069291871"><ele>1235.0</ele><time>2026-04-20T18:40:13.999Z</time></trkpt><trkpt lat="37.94319253699278" lon="-2.9399773393526942"><ele>1235.0</ele><time>2026-04-20T18:40:14.999Z</time></trkpt><trkpt lat="37.94329703339973" lon="-2.940095322624018"><ele>1235.0</ele><time>2026-04-20T18:40:15.999Z</time></trkpt><trkpt lat="37.94340021736144" lon="-2.9402064713155225"><ele>1235.0</ele><time>2026-04-20T18:40:16.999Z</time></trkpt><trkpt lat="37.94349060616893" lon="-2.940311060877078"><ele>1235.0</ele><time>2026-04-20T18:40:17.999Z</time></trkpt><trkpt lat="37.943583495147756" lon="-2.940404530441967"><ele>1235.0</ele><time>2026-04-20T18:40:18.999Z</time></trkpt><trkpt lat="37.94368919688111" lon="-2.940470555788226"><ele>1235.0</ele><time>2026-04-20T18:40:19.999Z</time></trkpt><trkpt lat="37.943799196816755" lon="-2.9404624906683616"><ele>1235.0</ele><time>2026-04-20T18:40:20.999Z</time></trkpt><trkpt lat="37.94390045961397" lon="-2.940491085014155"><ele>1235.0</ele><time>2026-04-20T18:40:21.999Z</time></trkpt><trkpt lat="37.94399320664836" lon="-2.9405092142269673"><ele>1235.0</ele><time>2026-04-20T18:40:22.999Z</time></trkpt><trkpt lat="37.94406749327999" lon="-2.9405848751073034"><ele>1235.0</ele><time>2026-04-20T18:40:23.999Z</time></trkpt><trkpt lat="37.944136922811616" lon="-2.9407056396998206"><ele>1235.0</ele><time>2026-04-20T18:40:24.999Z</time></trkpt><trkpt lat="37.94418291190516" lon="-2.9408689395004095"><ele>1235.0</ele><time>2026-04-20T18:40:25.999Z</time></trkpt><trkpt lat="37.94423503390812" lon="-2.9409988373149565"><ele>1235.0</ele><time>2026-04-20T18:40:26.999Z</time></trkpt><trkpt lat="37.94432128335018" lon="-2.9410978885059276"><ele>1235.0</ele><time>2026-04-20T18:40:27.999Z</time></trkpt><trkpt lat="37.944450276838445" lon="-2.9411189853350304"><ele>1238.0</ele><time>2026-04-20T18:40:28.999Z</time></trkpt><trkpt lat="37.94459916406283" lon="-2.9411509638307525"><ele>1241.0</ele><time>2026-04-20T18:40:29.999Z</time></trkpt><trkpt lat="37.944755038253746" lon="-2.9411446161002703"><ele>1244.0</ele><time>2026-04-20T18:40:30.999Z</time></trkpt><trkpt lat="37.944900031454644" lon="-2.9411609011689026"><ele>1244.0</ele><time>2026-04-20T18:40:31.999Z</time></trkpt><trkpt lat="37.94504304459867" lon="-2.9411955656070123"><ele>1244.0</ele><time>2026-04-20T18:40:32.999Z</time></trkpt><trkpt lat="37.94518495104466" lon="-2.9412571696576806"><ele>1244.0</ele><time>2026-04-20T18:40:33.999Z</time></trkpt><trkpt lat="37.94531522474294" lon="-2.9413248360189863"><ele>1244.0</ele><time>2026-04-20T18:40:34.999Z</time></trkpt><trkpt lat="37.94544169598038" lon="-2.941386084578364"><ele>1239.0</ele><time>2026-04-20T18:40:35.999Z</time></trkpt><trkpt lat="37.94558713479497" lon="-2.9414071494222824"><ele>1234.0</ele><time>2026-04-20T18:40:36.999Z</time></trkpt><trkpt lat="37.94572763819349" lon="-2.9414193382116043"><ele>1229.0</ele><time>2026-04-20T18:40:37.999Z</time></trkpt><trkpt lat="37.945865398163605" lon="-2.941440002779782"><ele>1224.0</ele><time>2026-04-20T18:40:38.999Z</time></trkpt><trkpt lat="37.946027519174514" lon="-2.9414239764857966"><ele>1219.25</ele><time>2026-04-20T18:40:39.999Z</time></trkpt><trkpt lat="37.9461590429318" lon="-2.9414520132404234"><ele>1214.5</ele><time>2026-04-20T18:40:40.999Z</time></trkpt><trkpt lat="37.946287418253256" lon="-2.9414553084226926"><ele>1209.75</ele><time>2026-04-20T18:40:41.999Z</time></trkpt><trkpt lat="37.94641614954844" lon="-2.9414384565372664"><ele>1205.0</ele><time>2026-04-20T18:40:42.999Z</time></trkpt><trkpt lat="37.94655298783134" lon="-2.9414063477832437"><ele>1205.0</ele><time>2026-04-20T18:40:43.999Z</time></trkpt><trkpt lat="37.9466843303133" lon="-2.941381168063843"><ele>1205.0</ele><time>2026-04-20T18:40:44.999Z</time></trkpt><trkpt lat="37.946811858768946" lon="-2.941355053401515"><ele>1205.0</ele><time>2026-04-20T18:40:45.999Z</time></trkpt><trkpt lat="37.94694438514982" lon="-2.9413391426759325"><ele>1205.0</ele><time>2026-04-20T18:40:46.999Z</time></trkpt><trkpt lat="37.94706773337013" lon="-2.9413261855180175"><ele>1203.6666666666667</ele><time>2026-04-20T18:40:47.999Z</time></trkpt><trkpt lat="37.94717065145025" lon="-2.9413173025375774"><ele>1202.3333333333335</ele><time>2026-04-20T18:40:48.999Z</time></trkpt><trkpt lat="37.94724634663045" lon="-2.9413050496895865"><ele>1201.0</ele><time>2026-04-20T18:40:49.999Z</time></trkpt><trkpt lat="37.94732817657068" lon="-2.941299281772686"><ele>1199.6666666666667</ele><time>2026-04-20T18:40:51.999Z</time></trkpt><trkpt lat="37.94739113446201" lon="-2.941295028224836"><ele>1198.3333333333333</ele><time>2026-04-20T18:40:55.999Z</time></trkpt><trkpt lat="37.947317908810774" lon="-2.9413171465829375"><ele>1197.0</ele><time>2026-04-20T18:40:59.999Z</time></trkpt><trkpt lat="37.947241714776325" lon="-2.9413046192343466"><ele>1197.0</ele><time>2026-04-20T18:41:00.999Z</time></trkpt><trkpt lat="37.94715985372588" lon="-2.9413534594784267"><ele>1197.0</ele><time>2026-04-20T18:41:01.999Z</time></trkpt><trkpt lat="37.94708651283646" lon="-2.941387127003376"><ele>1197.0</ele><time>2026-04-20T18:41:02.999Z</time></trkpt><trkpt lat="37.94702806431821" lon="-2.941421758778167"><ele>1197.0</ele><time>2026-04-20T18:41:03.999Z</time></trkpt><trkpt lat="37.946952123080685" lon="-2.9414585931069666"><ele>1197.0</ele><time>2026-04-20T18:41:05.999Z</time></trkpt><trkpt lat="37.946929720235595" lon="-2.9413593751321856"><ele>1197.0</ele><time>2026-04-20T18:43:47Z</time></trkpt><trkpt lat="37.94702335663544" lon="-2.9413456843440082"><ele>1197.0</ele><time>2026-04-20T18:43:50Z</time></trkpt><trkpt lat="37.947105091605145" lon="-2.941314691420104"><ele>1197.0</ele><time>2026-04-20T18:43:52Z</time></trkpt><trkpt lat="37.947230793273235" lon="-2.9413235197249388"><ele>1197.0</ele><time>2026-04-20T18:43:54Z</time></trkpt><trkpt lat="37.947298117995565" lon="-2.941309961208329"><ele>1197.0</ele><time>2026-04-20T18:43:55Z</time></trkpt><trkpt lat="37.947360608482974" lon="-2.941329384099579"><ele>1197.0</ele><time>2026-04-20T18:43:56Z</time></trkpt><trkpt lat="37.94743449014301" lon="-2.94133650625953"><ele>1197.0</ele><time>2026-04-20T18:43:57Z</time></trkpt><trkpt lat="37.94753120940193" lon="-2.9413822700475953"><ele>1197.5</ele><time>2026-04-20T18:43:58Z</time></trkpt><trkpt lat="37.947640742041216" lon="-2.941428798330412"><ele>1198.0</ele><time>2026-04-20T18:43:59Z</time></trkpt><trkpt lat="37.94776300074634" lon="-2.9415049219327702"><ele>1198.5</ele><time>2026-04-20T18:44:00Z</time></trkpt><trkpt lat="37.94787913568758" lon="-2.9415858973741518"><ele>1199.0</ele><time>2026-04-20T18:44:01Z</time></trkpt><trkpt lat="37.94800282218639" lon="-2.941662487451315"><ele>1193.0</ele><time>2026-04-20T18:44:02Z</time></trkpt><trkpt lat="37.948126841095736" lon="-2.941741905369783"><ele>1187.0</ele><time>2026-04-20T18:44:03Z</time></trkpt><trkpt lat="37.94824563721995" lon="-2.9418116169809294"><ele>1181.0</ele><time>2026-04-20T18:44:04Z</time></trkpt><trkpt lat="37.94836681901706" lon="-2.9418267199529713"><ele>1175.0</ele><time>2026-04-20T18:44:05Z</time></trkpt><trkpt lat="37.94848763453987" lon="-2.9418304550167584"><ele>1177.75</ele><time>2026-04-20T18:44:06Z</time></trkpt><trkpt lat="37.94859844095263" lon="-2.9417975732212196"><ele>1180.5</ele><time>2026-04-20T18:44:07Z</time></trkpt><trkpt lat="37.94871508978411" lon="-2.9417415025821625"><ele>1183.25</ele><time>2026-04-20T18:44:08Z</time></trkpt><trkpt lat="37.94884024970961" lon="-2.941664885561354"><ele>1186.0</ele><time>2026-04-20T18:44:09Z</time></trkpt><trkpt lat="37.9489781536344" lon="-2.9415675361350027"><ele>1186.0</ele><time>2026-04-20T18:44:10Z</time></trkpt><trkpt lat="37.949131186451886" lon="-2.9414764318223097"><ele>1186.0</ele><time>2026-04-20T18:44:11Z</time></trkpt><trkpt lat="37.949294738074016" lon="-2.94138976348438"><ele>1186.0</ele><time>2026-04-20T18:44:12Z</time></trkpt><trkpt lat="37.94944849279352" lon="-2.941264316244126"><ele>1185.0</ele><time>2026-04-20T18:44:13Z</time></trkpt><trkpt lat="37.949600353120616" lon="-2.9411349539856926"><ele>1184.0</ele><time>2026-04-20T18:44:14Z</time></trkpt><trkpt lat="37.94975446174207" lon="-2.9409952711444722"><ele>1183.0</ele><time>2026-04-20T18:44:15Z</time></trkpt><trkpt lat="37.94991038240775" lon="-2.9408580612578117"><ele>1176.6666666666665</ele><time>2026-04-20T18:44:16Z</time></trkpt><trkpt lat="37.95007227315963" lon="-2.94072206877321"><ele>1170.3333333333333</ele><time>2026-04-20T18:44:17Z</time></trkpt><trkpt lat="37.950228002045186" lon="-2.9405959921664366"><ele>1164.0</ele><time>2026-04-20T18:44:18Z</time></trkpt><trkpt lat="37.9503696017675" lon="-2.940465871539226"><ele>1164.0</ele><time>2026-04-20T18:44:19Z</time></trkpt><trkpt lat="37.95051068458998" lon="-2.9403589197625073"><ele>1164.0</ele><time>2026-04-20T18:44:20Z</time></trkpt><trkpt lat="37.950634873822146" lon="-2.9402490229464244"><ele>1164.0</ele><time>2026-04-20T18:44:21Z</time></trkpt><trkpt lat="37.95075457943763" lon="-2.940148062715532"><ele>1164.0</ele><time>2026-04-20T18:44:21.999Z</time></trkpt><trkpt lat="37.950862807680856" lon="-2.940066810533506"><ele>1164.0</ele><time>2026-04-20T18:44:22.999Z</time></trkpt><trkpt lat="37.95096287370661" lon="-2.9400076914515756"><ele>1164.0</ele><time>2026-04-20T18:44:23.999Z</time></trkpt><trkpt lat="37.951069817139555" lon="-2.9399864114970016"><ele>1164.0</ele><time>2026-04-20T18:44:24.999Z</time></trkpt><trkpt lat="37.95117975645353" lon="-2.9400042534004935"><ele>1166.25</ele><time>2026-04-20T18:44:25.999Z</time></trkpt><trkpt lat="37.95127446571577" lon="-2.940050534914681"><ele>1168.5</ele><time>2026-04-20T18:44:26.999Z</time></trkpt><trkpt lat="37.95135473319515" lon="-2.940136291693663"><ele>1170.75</ele><time>2026-04-20T18:44:27.999Z</time></trkpt><trkpt lat="37.9514138236231" lon="-2.940288979625445"><ele>1173.0</ele><time>2026-04-20T18:44:28.999Z</time></trkpt><trkpt lat="37.95147251224604" lon="-2.9404692938245756"><ele>1173.0</ele><time>2026-04-20T18:44:29.999Z</time></trkpt><trkpt lat="37.95154819387" lon="-2.9406422654223947"><ele>1173.0</ele><time>2026-04-20T18:44:30.999Z</time></trkpt><trkpt lat="37.95163605295578" lon="-2.9408222348309048"><ele>1173.0</ele><time>2026-04-20T18:44:31.999Z</time></trkpt><trkpt lat="37.951713208397315" lon="-2.9409874406294785"><ele>1176.5</ele><time>2026-04-20T18:44:32.999Z</time></trkpt><trkpt lat="37.95178908336462" lon="-2.9411410774505944"><ele>1180.0</ele><time>2026-04-20T18:44:33.999Z</time></trkpt><trkpt lat="37.951849585640105" lon="-2.941311485860244"><ele>1183.5</ele><time>2026-04-20T18:44:34.999Z</time></trkpt><trkpt lat="37.95191085484977" lon="-2.941484027849375"><ele>1187.0</ele><time>2026-04-20T18:44:35.999Z</time></trkpt><trkpt lat="37.95195308348694" lon="-2.941674108595381"><ele>1180.3333333333335</ele><time>2026-04-20T18:44:36.999Z</time></trkpt><trkpt lat="37.95198754102899" lon="-2.9418586554500954"><ele>1173.6666666666667</ele><time>2026-04-20T18:44:37.999Z</time></trkpt><trkpt lat="37.95204819465308" lon="-2.942039984017746"><ele>1167.0</ele><time>2026-04-20T18:44:38.999Z</time></trkpt><trkpt lat="37.95213736101368" lon="-2.942198242635254"><ele>1167.0</ele><time>2026-04-20T18:44:39.999Z</time></trkpt><trkpt lat="37.952223961074246" lon="-2.942331940021031"><ele>1167.0</ele><time>2026-04-20T18:44:40.999Z</time></trkpt><trkpt lat="37.95231933876935" lon="-2.942445990032918"><ele>1167.0</ele><time>2026-04-20T18:44:41.999Z</time></trkpt><trkpt lat="37.95243822028334" lon="-2.9425403021067793"><ele>1167.0</ele><time>2026-04-20T18:44:42.999Z</time></trkpt><trkpt lat="37.95257466153966" lon="-2.9426274980415266"><ele>1168.75</ele><time>2026-04-20T18:44:43.999Z</time></trkpt><trkpt lat="37.952704639454765" lon="-2.942709928800448"><ele>1170.5</ele><time>2026-04-20T18:44:44.999Z</time></trkpt><trkpt lat="37.95280398747852" lon="-2.942789696113499"><ele>1172.25</ele><time>2026-04-20T18:44:45.999Z</time></trkpt><trkpt lat="37.952878849728144" lon="-2.9428986258695904"><ele>1174.0</ele><time>2026-04-20T18:44:46.999Z</time></trkpt><trkpt lat="37.95294976768335" lon="-2.94303623316723"><ele>1174.0</ele><time>2026-04-20T18:44:47.999Z</time></trkpt><trkpt lat="37.9529923941876" lon="-2.9432242062525784"><ele>1174.0</ele><time>2026-04-20T18:44:48.999Z</time></trkpt><trkpt lat="37.95301802804737" lon="-2.9434169838399167"><ele>1174.0</ele><time>2026-04-20T18:44:49.999Z</time></trkpt><trkpt lat="37.95303832428633" lon="-2.9436171705142806"><ele>1171.0</ele><time>2026-04-20T18:44:50.999Z</time></trkpt><trkpt lat="37.95304164376098" lon="-2.943833934777833"><ele>1168.0</ele><time>2026-04-20T18:44:51.999Z</time></trkpt><trkpt lat="37.953037034925835" lon="-2.9440587572569736"><ele>1165.0</ele><time>2026-04-20T18:44:52.999Z</time></trkpt><trkpt lat="37.953036229683406" lon="-2.944276236294129"><ele>1163.0</ele><time>2026-04-20T18:44:53.999Z</time></trkpt><trkpt lat="37.95303957414625" lon="-2.94450082034197"><ele>1161.0</ele><time>2026-04-20T18:44:54.999Z</time></trkpt><trkpt lat="37.953045017862756" lon="-2.9447434012128517"><ele>1159.0</ele><time>2026-04-20T18:44:55.999Z</time></trkpt><trkpt lat="37.953051104090264" lon="-2.9449499949852087"><ele>1157.0</ele><time>2026-04-20T18:44:56.999Z</time></trkpt><trkpt lat="37.95305863263821" lon="-2.9451424464223908"><ele>1155.0</ele><time>2026-04-20T18:44:57.999Z</time></trkpt><trkpt lat="37.95306037264408" lon="-2.94531808188132"><ele>1153.0</ele><time>2026-04-20T18:44:58.999Z</time></trkpt><trkpt lat="37.953066706295616" lon="-2.9454639614226963"><ele>1151.0</ele><time>2026-04-20T18:44:59.999Z</time></trkpt><trkpt lat="37.953071189128664" lon="-2.9455772993429106"><ele>1151.0</ele><time>2026-04-20T18:45:00.999Z</time></trkpt><trkpt lat="37.95307139736266" lon="-2.9456620234431647"><ele>1151.0</ele><time>2026-04-20T18:45:01.999Z</time></trkpt><trkpt lat="37.95299041480908" lon="-2.9457757329210614"><ele>1151.0</ele><time>2026-04-20T18:45:03.999Z</time></trkpt><trkpt lat="37.95291302044574" lon="-2.945787577922249"><ele>1151.0</ele><time>2026-04-20T18:45:04.999Z</time></trkpt><trkpt lat="37.95284704848035" lon="-2.9457908447652574"><ele>1151.0</ele><time>2026-04-20T18:45:05.999Z</time></trkpt><trkpt lat="37.95278063791445" lon="-2.94571822875594"><ele>1151.0</ele><time>2026-04-20T18:45:06.999Z</time></trkpt><trkpt lat="37.95274702422446" lon="-2.945593014745566"><ele>1151.0</ele><time>2026-04-20T18:45:07.999Z</time></trkpt><trkpt lat="37.95275697512352" lon="-2.9454430977122645"><ele>1151.0</ele><time>2026-04-20T18:45:08.999Z</time></trkpt><trkpt lat="37.95277533770764" lon="-2.945297849124348"><ele>1151.0</ele><time>2026-04-20T18:45:09.999Z</time></trkpt><trkpt lat="37.952782950708915" lon="-2.945138176935412"><ele>1151.0</ele><time>2026-04-20T18:45:10.999Z</time></trkpt><trkpt lat="37.95276495478646" lon="-2.9449759207310415"><ele>1153.6666666666667</ele><time>2026-04-20T18:45:11.999Z</time></trkpt><trkpt lat="37.952728902983694" lon="-2.9447979223947476"><ele>1156.3333333333333</ele><time>2026-04-20T18:45:12.999Z</time></trkpt><trkpt lat="37.952684869421624" lon="-2.9446002207888324"><ele>1159.0</ele><time>2026-04-20T18:45:13.999Z</time></trkpt><trkpt lat="37.95263918730247" lon="-2.9443996758406494"><ele>1161.0</ele><time>2026-04-20T18:45:14.999Z</time></trkpt><trkpt lat="37.95259498929045" lon="-2.9441893584299774"><ele>1163.0</ele><time>2026-04-20T18:45:15.999Z</time></trkpt><trkpt lat="37.952558966667176" lon="-2.944003814765091"><ele>1165.0</ele><time>2026-04-20T18:45:16.999Z</time></trkpt><trkpt lat="37.952515513451765" lon="-2.9438337181023484"><ele>1159.5</ele><time>2026-04-20T18:45:17.999Z</time></trkpt><trkpt lat="37.95245716172485" lon="-2.9436814066959123"><ele>1154.0</ele><time>2026-04-20T18:45:18.999Z</time></trkpt><trkpt lat="37.95238540411596" lon="-2.9435359515666093"><ele>1148.5</ele><time>2026-04-20T18:45:19.999Z</time></trkpt><trkpt lat="37.95229027752841" lon="-2.943416971398713"><ele>1143.0</ele><time>2026-04-20T18:45:20.999Z</time></trkpt><trkpt lat="37.95216961625011" lon="-2.9433226601994638"><ele>1143.0</ele><time>2026-04-20T18:45:21.999Z</time></trkpt><trkpt lat="37.95203264367286" lon="-2.9432240058764623"><ele>1143.0</ele><time>2026-04-20T18:45:22.999Z</time></trkpt><trkpt lat="37.951906914890735" lon="-2.9431017958917516"><ele>1143.0</ele><time>2026-04-20T18:45:23.998Z</time></trkpt><trkpt lat="37.95176786002268" lon="-2.9429969866682266"><ele>1142.25</ele><time>2026-04-20T18:45:24.998Z</time></trkpt><trkpt lat="37.95164797029858" lon="-2.9428749490382566"><ele>1141.5</ele><time>2026-04-20T18:45:25.998Z</time></trkpt><trkpt lat="37.951538021591425" lon="-2.9427539591326117"><ele>1140.75</ele><time>2026-04-20T18:45:26.998Z</time></trkpt><trkpt lat="37.95145884931585" lon="-2.9426052884094234"><ele>1140.0</ele><time>2026-04-20T18:45:27.998Z</time></trkpt><trkpt lat="37.95138741443668" lon="-2.942454170162798"><ele>1140.0</ele><time>2026-04-20T18:45:28.998Z</time></trkpt><trkpt lat="37.951308655135506" lon="-2.94229797919263"><ele>1140.0</ele><time>2026-04-20T18:45:29.998Z</time></trkpt><trkpt lat="37.951249068782886" lon="-2.942161364360732"><ele>1140.0</ele><time>2026-04-20T18:45:30.998Z</time></trkpt><trkpt lat="37.951193926409466" lon="-2.9420593584987755"><ele>1140.0</ele><time>2026-04-20T18:45:31.998Z</time></trkpt><trkpt lat="37.95112390570889" lon="-2.941995037438669"><ele>1140.0</ele><time>2026-04-20T18:45:32.998Z</time></trkpt><trkpt lat="37.951048117966344" lon="-2.941953774346586"><ele>1140.0</ele><time>2026-04-20T18:45:34Z</time></trkpt><trkpt lat="37.95094094637657" lon="-2.94199276473492"><ele>1140.0</ele><time>2026-04-20T18:45:35Z</time></trkpt><trkpt lat="37.9508466826218" lon="-2.942092856243142"><ele>1140.0</ele><time>2026-04-20T18:45:36Z</time></trkpt><trkpt lat="37.95076536740081" lon="-2.9422243695964245"><ele>1140.0</ele><time>2026-04-20T18:45:37Z</time></trkpt><trkpt lat="37.95068827079956" lon="-2.9423802798608114"><ele>1134.3333333333333</ele><time>2026-04-20T18:45:38Z</time></trkpt><trkpt lat="37.95059267809484" lon="-2.9425361135304646"><ele>1128.6666666666665</ele><time>2026-04-20T18:45:39Z</time></trkpt><trkpt lat="37.950480087159384" lon="-2.942688460903535"><ele>1123.0</ele><time>2026-04-20T18:45:40Z</time></trkpt><trkpt lat="37.950354735547165" lon="-2.9428585242148597"><ele>1122.3333333333333</ele><time>2026-04-20T18:45:41Z</time></trkpt><trkpt lat="37.95023714529375" lon="-2.943019650793911"><ele>1121.6666666666667</ele><time>2026-04-20T18:45:42Z</time></trkpt><trkpt lat="37.95011654944085" lon="-2.943186093165156"><ele>1121.0</ele><time>2026-04-20T18:45:43Z</time></trkpt><trkpt lat="37.94998630193548" lon="-2.9433435187282138"><ele>1112.0</ele><time>2026-04-20T18:45:44Z</time></trkpt><trkpt lat="37.949845766572224" lon="-2.943489333260916"><ele>1103.0</ele><time>2026-04-20T18:45:45Z</time></trkpt><trkpt lat="37.9497067230743" lon="-2.9436175188005196"><ele>1094.0</ele><time>2026-04-20T18:45:46Z</time></trkpt><trkpt lat="37.94957284329843" lon="-2.943741243651355"><ele>1094.0</ele><time>2026-04-20T18:45:47Z</time></trkpt><trkpt lat="37.949454243135655" lon="-2.9438591146809063"><ele>1094.0</ele><time>2026-04-20T18:45:48Z</time></trkpt><trkpt lat="37.94932817604452" lon="-2.943978002603016"><ele>1094.0</ele><time>2026-04-20T18:45:49Z</time></trkpt><trkpt lat="37.949173116394974" lon="-2.944089465085613"><ele>1092.6666666666667</ele><time>2026-04-20T18:45:50Z</time></trkpt><trkpt lat="37.9489999563648" lon="-2.944206821216742"><ele>1091.3333333333333</ele><time>2026-04-20T18:45:51Z</time></trkpt><trkpt lat="37.948829089655405" lon="-2.9443145074496817"><ele>1090.0</ele><time>2026-04-20T18:45:52Z</time></trkpt><trkpt lat="37.94867733327587" lon="-2.944410576777157"><ele>1090.0</ele><time>2026-04-20T18:45:53Z</time></trkpt><trkpt lat="37.94855503793161" lon="-2.9445024703473694"><ele>1090.0</ele><time>2026-04-20T18:45:54Z</time></trkpt><trkpt lat="37.94845782849823" lon="-2.9445941616277396"><ele>1090.0</ele><time>2026-04-20T18:45:55Z</time></trkpt><trkpt lat="37.94839873458734" lon="-2.9447385444916407"><ele>1090.0</ele><time>2026-04-20T18:45:56Z</time></trkpt><trkpt lat="37.94836237900318" lon="-2.9449182073829454"><ele>1087.0</ele><time>2026-04-20T18:45:57Z</time></trkpt><trkpt lat="37.94830704297222" lon="-2.9450692008735992"><ele>1084.0</ele><time>2026-04-20T18:45:58Z</time></trkpt><trkpt lat="37.9482471803857" lon="-2.9451626257513914"><ele>1081.0</ele><time>2026-04-20T18:45:59Z</time></trkpt><trkpt lat="37.948133407144766" lon="-2.9452187833816477"><ele>1078.0</ele><time>2026-04-20T18:46:00Z</time></trkpt><trkpt lat="37.94802363770272" lon="-2.945241598051942"><ele>1078.0</ele><time>2026-04-20T18:46:01Z</time></trkpt><trkpt lat="37.94790587404847" lon="-2.945197027276907"><ele>1078.0</ele><time>2026-04-20T18:46:02Z</time></trkpt><trkpt lat="37.94777320087519" lon="-2.9451091030189227"><ele>1078.0</ele><time>2026-04-20T18:46:03Z</time></trkpt><trkpt lat="37.94763803104994" lon="-2.945001643749529"><ele>1078.0</ele><time>2026-04-20T18:46:04Z</time></trkpt><trkpt lat="37.947508488263004" lon="-2.9449636149168916"><ele>1081.0</ele><time>2026-04-20T18:46:05Z</time></trkpt><trkpt lat="37.94739607359574" lon="-2.9449593035989396"><ele>1084.0</ele><time>2026-04-20T18:46:06Z</time></trkpt><trkpt lat="37.94725885730263" lon="-2.9449848196041453"><ele>1087.0</ele><time>2026-04-20T18:46:07Z</time></trkpt><trkpt lat="37.94712547638726" lon="-2.9450421167950758"><ele>1090.0</ele><time>2026-04-20T18:46:08Z</time></trkpt><trkpt lat="37.94701926804752" lon="-2.94511970729881"><ele>1090.0</ele><time>2026-04-20T18:46:09Z</time></trkpt><trkpt lat="37.94694020745786" lon="-2.945227399451647"><ele>1090.0</ele><time>2026-04-20T18:46:10Z</time></trkpt><trkpt lat="37.94691089178411" lon="-2.945381494976285"><ele>1090.0</ele><time>2026-04-20T18:46:11Z</time></trkpt><trkpt lat="37.946944206261854" lon="-2.945562755703642"><ele>1090.0</ele><time>2026-04-20T18:46:12Z</time></trkpt><trkpt lat="37.94697648872831" lon="-2.94577168365129"><ele>1085.0</ele><time>2026-04-20T18:46:13Z</time></trkpt><trkpt lat="37.94700999808788" lon="-2.9460287974988626"><ele>1080.0</ele><time>2026-04-20T18:46:14Z</time></trkpt><trkpt lat="37.94702063264006" lon="-2.9462762053410687"><ele>1075.0</ele><time>2026-04-20T18:46:15Z</time></trkpt><trkpt lat="37.946996077505425" lon="-2.946529416598646"><ele>1070.0</ele><time>2026-04-20T18:46:16Z</time></trkpt><trkpt lat="37.94696389769323" lon="-2.946775520950448"><ele>1065.0</ele><time>2026-04-20T18:46:17Z</time></trkpt><trkpt lat="37.94693526845008" lon="-2.947024293120129"><ele>1060.0</ele><time>2026-04-20T18:46:18Z</time></trkpt><trkpt lat="37.94691555870998" lon="-2.9472426294069725"><ele>1060.0</ele><time>2026-04-20T18:46:19Z</time></trkpt><trkpt lat="37.94684523956595" lon="-2.947427913009652"><ele>1060.0</ele><time>2026-04-20T18:46:20Z</time></trkpt><trkpt lat="37.946792143377564" lon="-2.9476127053840178"><ele>1060.0</ele><time>2026-04-20T18:46:21Z</time></trkpt><trkpt lat="37.94678048263804" lon="-2.9477985526173343"><ele>1056.5</ele><time>2026-04-20T18:46:22Z</time></trkpt><trkpt lat="37.94676562796545" lon="-2.947948082254122"><ele>1053.0</ele><time>2026-04-20T18:46:23Z</time></trkpt><trkpt lat="37.94669676474333" lon="-2.948073401237812"><ele>1049.5</ele><time>2026-04-20T18:46:23.999Z</time></trkpt><trkpt lat="37.9465916733015" lon="-2.948181182188045"><ele>1046.0</ele><time>2026-04-20T18:46:24.999Z</time></trkpt><trkpt lat="37.94648639004634" lon="-2.948308497202623"><ele>1047.8</ele><time>2026-04-20T18:46:25.999Z</time></trkpt><trkpt lat="37.946413216969226" lon="-2.9484417588491736"><ele>1049.6</ele><time>2026-04-20T18:46:26.999Z</time></trkpt><trkpt lat="37.94634562435141" lon="-2.948548171604949"><ele>1051.4</ele><time>2026-04-20T18:46:27.999Z</time></trkpt><trkpt lat="37.946311644794505" lon="-2.9486455688695923"><ele>1053.2</ele><time>2026-04-20T18:46:28.999Z</time></trkpt><trkpt lat="37.94631414676195" lon="-2.9487288508778344"><ele>1055.0</ele><time>2026-04-20T18:46:29.999Z</time></trkpt><trkpt lat="37.94637396340176" lon="-2.9487900262869364"><ele>1055.0</ele><time>2026-04-20T18:46:30.999Z</time></trkpt><trkpt lat="37.94646711215575" lon="-2.9487816700856864"><ele>1055.0</ele><time>2026-04-20T18:46:31.999Z</time></trkpt><trkpt lat="37.9465390800113" lon="-2.948676917224449"><ele>1055.0</ele><time>2026-04-20T18:46:32.999Z</time></trkpt><trkpt lat="37.94652117436804" lon="-2.9485363320479756"><ele>1055.0</ele><time>2026-04-20T18:46:33.999Z</time></trkpt><trkpt lat="37.946555520959485" lon="-2.948391560049628"><ele>1055.0</ele><time>2026-04-20T18:46:34.999Z</time></trkpt><trkpt lat="37.946585053930434" lon="-2.9482678073739526"><ele>1052.75</ele><time>2026-04-20T18:46:35.999Z</time></trkpt><trkpt lat="37.946697535987404" lon="-2.9481816474390605"><ele>1050.5</ele><time>2026-04-20T18:46:36.999Z</time></trkpt><trkpt lat="37.946814161059116" lon="-2.9481013841564514"><ele>1048.25</ele><time>2026-04-20T18:46:37.999Z</time></trkpt><trkpt lat="37.9468860643609" lon="-2.947970472713815"><ele>1046.0</ele><time>2026-04-20T18:46:38.999Z</time></trkpt><trkpt lat="37.94692125648219" lon="-2.9478073304632257"><ele>1046.0</ele><time>2026-04-20T18:46:39.999Z</time></trkpt><trkpt lat="37.94698993816894" lon="-2.9476029412896816"><ele>1046.0</ele><time>2026-04-20T18:46:40.999Z</time></trkpt><trkpt lat="37.94708090550977" lon="-2.947455268646804"><ele>1046.0</ele><time>2026-04-20T18:46:41.999Z</time></trkpt><trkpt lat="37.947165370375345" lon="-2.9473178130888438"><ele>1050.6666666666667</ele><time>2026-04-20T18:46:42.999Z</time></trkpt><trkpt lat="37.94719039825766" lon="-2.9471530428491577"><ele>1055.3333333333333</ele><time>2026-04-20T18:46:43.999Z</time></trkpt><trkpt lat="37.94723048256109" lon="-2.9469360145574783"><ele>1060.0</ele><time>2026-04-20T18:46:44.999Z</time></trkpt><trkpt lat="37.9472904636553" lon="-2.9466973399627108"><ele>1065.0</ele><time>2026-04-20T18:46:45.999Z</time></trkpt><trkpt lat="37.947349091560575" lon="-2.946463728804647"><ele>1070.0</ele><time>2026-04-20T18:46:46.999Z</time></trkpt><trkpt lat="37.94739969908488" lon="-2.9462638094195985"><ele>1075.0</ele><time>2026-04-20T18:46:47.999Z</time></trkpt><trkpt lat="37.947439746064056" lon="-2.9461130017926966"><ele>1075.0</ele><time>2026-04-20T18:46:48.999Z</time></trkpt><trkpt lat="37.94748781524283" lon="-2.9459987285366087"><ele>1075.0</ele><time>2026-04-20T18:46:49.999Z</time></trkpt><trkpt lat="37.94756691407652" lon="-2.945920336550013"><ele>1075.0</ele><time>2026-04-20T18:46:50.999Z</time></trkpt><trkpt lat="37.947675613219914" lon="-2.9459001245450493"><ele>1075.0</ele><time>2026-04-20T18:46:51.999Z</time></trkpt><trkpt lat="37.947808985543574" lon="-2.9459148561002424"><ele>1075.0</ele><time>2026-04-20T18:46:52.999Z</time></trkpt><trkpt lat="37.94796458890251" lon="-2.945955234611664"><ele>1068.75</ele><time>2026-04-20T18:46:53.999Z</time></trkpt><trkpt lat="37.94810542754575" lon="-2.9459875252256977"><ele>1062.5</ele><time>2026-04-20T18:46:54.999Z</time></trkpt><trkpt lat="37.94823767024569" lon="-2.9459806528196055"><ele>1056.25</ele><time>2026-04-20T18:46:55.999Z</time></trkpt><trkpt lat="37.94834893062251" lon="-2.945966162698289"><ele>1050.0</ele><time>2026-04-20T18:46:56.999Z</time></trkpt><trkpt lat="37.94845404599505" lon="-2.945944339331373"><ele>1052.25</ele><time>2026-04-20T18:46:57.999Z</time></trkpt><trkpt lat="37.948560148831795" lon="-2.945933874492872"><ele>1054.5</ele><time>2026-04-20T18:46:58.999Z</time></trkpt><trkpt lat="37.948679269537585" lon="-2.9458918260795826"><ele>1056.75</ele><time>2026-04-20T18:46:59.999Z</time></trkpt><trkpt lat="37.948797634030974" lon="-2.9457933881604483"><ele>1059.0</ele><time>2026-04-20T18:47:00.999Z</time></trkpt><trkpt lat="37.94894125983356" lon="-2.945707834263882"><ele>1059.0</ele><time>2026-04-20T18:47:01.999Z</time></trkpt><trkpt lat="37.94907538973056" lon="-2.945576925091869"><ele>1059.0</ele><time>2026-04-20T18:47:02.999Z</time></trkpt><trkpt lat="37.94921602985479" lon="-2.9454583851484446"><ele>1059.0</ele><time>2026-04-20T18:47:03.999Z</time></trkpt><trkpt lat="37.94937155288925" lon="-2.945350021572404"><ele>1062.0</ele><time>2026-04-20T18:47:04.999Z</time></trkpt><trkpt lat="37.949538153758475" lon="-2.945243956345609"><ele>1065.0</ele><time>2026-04-20T18:47:05.999Z</time></trkpt><trkpt lat="37.94969482731241" lon="-2.9451404349128434"><ele>1068.0</ele><time>2026-04-20T18:47:06.999Z</time></trkpt><trkpt lat="37.94984258333052" lon="-2.9450386104111863"><ele>1068.0</ele><time>2026-04-20T18:47:07.999Z</time></trkpt><trkpt lat="37.949979240759774" lon="-2.9449386871545364"><ele>1068.0</ele><time>2026-04-20T18:47:08.999Z</time></trkpt><trkpt lat="37.950111613792956" lon="-2.9448650574534914"><ele>1068.0</ele><time>2026-04-20T18:47:09.999Z</time></trkpt><trkpt lat="37.950229747979954" lon="-2.944781421456064"><ele>1068.0</ele><time>2026-04-20T18:47:10.999Z</time></trkpt><trkpt lat="37.95032377683437" lon="-2.944713343146625"><ele>1068.0</ele><time>2026-04-20T18:47:11.999Z</time></trkpt><trkpt lat="37.95040872688018" lon="-2.944677717850205"><ele>1068.0</ele><time>2026-04-20T18:47:12.999Z</time></trkpt><trkpt lat="37.95050503835731" lon="-2.944695340013752"><ele>1068.0</ele><time>2026-04-20T18:47:13.999Z</time></trkpt><trkpt lat="37.950581814982336" lon="-2.9447776516010746"><ele>1068.0</ele><time>2026-04-20T18:47:14.999Z</time></trkpt><trkpt lat="37.950632521234624" lon="-2.9449087262599605"><ele>1068.0</ele><time>2026-04-20T18:47:15.999Z</time></trkpt><trkpt lat="37.95065339716228" lon="-2.945076266113271"><ele>1068.0</ele><time>2026-04-20T18:47:16.999Z</time></trkpt><trkpt lat="37.95065140140487" lon="-2.9452750572242388"><ele>1068.0</ele><time>2026-04-20T18:47:17.999Z</time></trkpt><trkpt lat="37.95064974656037" lon="-2.945471430647941"><ele>1068.0</ele><time>2026-04-20T18:47:18.999Z</time></trkpt><trkpt lat="37.95065539942524" lon="-2.9456853505247773"><ele>1068.0</ele><time>2026-04-20T18:47:19.999Z</time></trkpt><trkpt lat="37.9506737553511" lon="-2.9458765542691654"><ele>1068.0</ele><time>2026-04-20T18:47:20.999Z</time></trkpt><trkpt lat="37.95070760640692" lon="-2.9460541313041553"><ele>1068.0</ele><time>2026-04-20T18:47:21.999Z</time></trkpt><trkpt lat="37.950755842933624" lon="-2.9462137482676183"><ele>1068.0</ele><time>2026-04-20T18:47:22.998Z</time></trkpt><trkpt lat="37.950831486614014" lon="-2.9463532317549856"><ele>1068.0</ele><time>2026-04-20T18:47:23.998Z</time></trkpt><trkpt lat="37.950950962246395" lon="-2.9464568819139743"><ele>1068.0</ele><time>2026-04-20T18:47:24.998Z</time></trkpt><trkpt lat="37.95109243382754" lon="-2.9465729231953257"><ele>1068.0</ele><time>2026-04-20T18:47:25.998Z</time></trkpt><trkpt lat="37.9512409739768" lon="-2.9467220144283566"><ele>1065.0</ele><time>2026-04-20T18:47:26.998Z</time></trkpt><trkpt lat="37.95140024011494" lon="-2.9468523748102076"><ele>1062.0</ele><time>2026-04-20T18:47:27.998Z</time></trkpt><trkpt lat="37.951564815788856" lon="-2.9469948972515154"><ele>1059.0</ele><time>2026-04-20T18:47:28.998Z</time></trkpt><trkpt lat="37.95173113763632" lon="-2.9471428131729565"><ele>1059.0</ele><time>2026-04-20T18:47:29.998Z</time></trkpt><trkpt lat="37.951907928131476" lon="-2.947286710100153"><ele>1059.0</ele><time>2026-04-20T18:47:30.998Z</time></trkpt><trkpt lat="37.95207923310103" lon="-2.9474332459926917"><ele>1059.0</ele><time>2026-04-20T18:47:31.998Z</time></trkpt><trkpt lat="37.952241016544285" lon="-2.9475763129599333"><ele>1053.3333333333333</ele><time>2026-04-20T18:47:32.998Z</time></trkpt><trkpt lat="37.95238095649819" lon="-2.9477129263552144"><ele>1047.6666666666665</ele><time>2026-04-20T18:47:33.998Z</time></trkpt><trkpt lat="37.9525117699474" lon="-2.94786560459061"><ele>1042.0</ele><time>2026-04-20T18:47:34.998Z</time></trkpt><trkpt lat="37.952628014423006" lon="-2.94798847313436"><ele>1042.0</ele><time>2026-04-20T18:47:35.998Z</time></trkpt><trkpt lat="37.95274407299525" lon="-2.9480982612429885"><ele>1042.0</ele><time>2026-04-20T18:47:36.998Z</time></trkpt><trkpt lat="37.95284910469916" lon="-2.9481932795952903"><ele>1042.0</ele><time>2026-04-20T18:47:37.998Z</time></trkpt><trkpt lat="37.9529566280227" lon="-2.9482765686571955"><ele>1042.0</ele><time>2026-04-20T18:47:38.998Z</time></trkpt><trkpt lat="37.95308196879412" lon="-2.9483556403848046"><ele>1030.3333333333333</ele><time>2026-04-20T18:47:40Z</time></trkpt><trkpt lat="37.953269233679485" lon="-2.948398673238637"><ele>1018.6666666666667</ele><time>2026-04-20T18:47:41Z</time></trkpt><trkpt lat="37.95348261585428" lon="-2.948431088599902"><ele>1007.0</ele><time>2026-04-20T18:47:42Z</time></trkpt><trkpt lat="37.953728490600476" lon="-2.948428335853447"><ele>1007.0</ele><time>2026-04-20T18:47:43Z</time></trkpt><trkpt lat="37.9539392012541" lon="-2.9484517462475255"><ele>1007.0</ele><time>2026-04-20T18:47:44Z</time></trkpt><trkpt lat="37.95412737818288" lon="-2.948489756062459"><ele>1007.0</ele><time>2026-04-20T18:47:45Z</time></trkpt><trkpt lat="37.95432778947197" lon="-2.94857330160844"><ele>1015.0</ele><time>2026-04-20T18:47:46Z</time></trkpt><trkpt lat="37.95455071828282" lon="-2.948701062686801"><ele>1023.0</ele><time>2026-04-20T18:47:47Z</time></trkpt><trkpt lat="37.95477048614288" lon="-2.9488567921176037"><ele>1023.0</ele><time>2026-04-20T18:47:48Z</time></trkpt><trkpt lat="37.95498121496897" lon="-2.948984081963271"><ele>1023.0</ele><time>2026-04-20T18:47:49Z</time></trkpt><trkpt lat="37.95516968610237" lon="-2.949075341972827"><ele>1023.0</ele><time>2026-04-20T18:47:50Z</time></trkpt><trkpt lat="37.95532773183943" lon="-2.9491429078195983"><ele>1025.2</ele><time>2026-04-20T18:47:51Z</time></trkpt><trkpt lat="37.95547386955902" lon="-2.94917734888651"><ele>1027.4</ele><time>2026-04-20T18:47:52Z</time></trkpt><trkpt lat="37.95559649395325" lon="-2.949196337439412"><ele>1029.6000000000001</ele><time>2026-04-20T18:47:53Z</time></trkpt><trkpt lat="37.95568846931139" lon="-2.949211606537143"><ele>1031.8</ele><time>2026-04-20T18:47:54Z</time></trkpt><trkpt lat="37.95576581589245" lon="-2.9492454882410035"><ele>1034.0</ele><time>2026-04-20T18:47:55Z</time></trkpt><trkpt lat="37.955825976496484" lon="-2.9492931299390786"><ele>1025.6000000000001</ele><time>2026-04-20T18:47:56Z</time></trkpt><trkpt lat="37.95579739244038" lon="-2.949416491297081"><ele>1017.2</ele><time>2026-04-20T18:47:57Z</time></trkpt><trkpt lat="37.95573469229159" lon="-2.9494826638786207"><ele>1008.8000000000001</ele><time>2026-04-20T18:47:58Z</time></trkpt><trkpt lat="37.955646201835826" lon="-2.9494969079167297"><ele>1000.4000000000001</ele><time>2026-04-20T18:47:59Z</time></trkpt><trkpt lat="37.955526934224615" lon="-2.9494285220445913"><ele>992.0</ele><time>2026-04-20T18:48:00Z</time></trkpt><trkpt lat="37.95536515951205" lon="-2.9493252137925157"><ele>992.0</ele><time>2026-04-20T18:48:01Z</time></trkpt><trkpt lat="37.95514274412177" lon="-2.949229548614415"><ele>992.0</ele><time>2026-04-20T18:48:02Z</time></trkpt><trkpt lat="37.954881210691596" lon="-2.9491518136144736"><ele>1007.5</ele><time>2026-04-20T18:48:03Z</time></trkpt><trkpt lat="37.95464165579823" lon="-2.949074487944927"><ele>1023.0</ele><time>2026-04-20T18:48:04Z</time></trkpt><trkpt lat="37.95444266199478" lon="-2.9489939212558927"><ele>1023.0</ele><time>2026-04-20T18:48:05Z</time></trkpt><trkpt lat="37.95426835794643" lon="-2.948924280788818"><ele>1023.0</ele><time>2026-04-20T18:48:06Z</time></trkpt><trkpt lat="37.95408649479667" lon="-2.9489004316656926"><ele>1023.0</ele><time>2026-04-20T18:48:07Z</time></trkpt><trkpt lat="37.95389319159722" lon="-2.9489125635732147"><ele>1015.0</ele><time>2026-04-20T18:48:08Z</time></trkpt><trkpt lat="37.9536663620739" lon="-2.9489597781218744"><ele>1007.0</ele><time>2026-04-20T18:48:09Z</time></trkpt><trkpt lat="37.95343384386832" lon="-2.9490008960842267"><ele>1003.6666666666667</ele><time>2026-04-20T18:48:10Z</time></trkpt><trkpt lat="37.95323746937083" lon="-2.9490227732898626"><ele>1000.3333333333333</ele><time>2026-04-20T18:48:11Z</time></trkpt><trkpt lat="37.9530882820516" lon="-2.949037332835571"><ele>997.0</ele><time>2026-04-20T18:48:12Z</time></trkpt><trkpt lat="37.952896173670496" lon="-2.9490439688591628"><ele>997.0</ele><time>2026-04-20T18:48:13Z</time></trkpt><trkpt lat="37.95274458750954" lon="-2.949023883105614"><ele>997.0</ele><time>2026-04-20T18:48:14Z</time></trkpt><trkpt lat="37.95258979617568" lon="-2.9489539922209667"><ele>997.0</ele><time>2026-04-20T18:48:15Z</time></trkpt><trkpt lat="37.952381874490925" lon="-2.948837070909225"><ele>991.0</ele><time>2026-04-20T18:48:16Z</time></trkpt><trkpt lat="37.952150087044764" lon="-2.9486944285527956"><ele>985.0</ele><time>2026-04-20T18:48:17Z</time></trkpt><trkpt lat="37.95194721919732" lon="-2.948562234576432"><ele>985.0</ele><time>2026-04-20T18:48:18Z</time></trkpt><trkpt lat="37.95178052332682" lon="-2.948473753921847"><ele>985.0</ele><time>2026-04-20T18:48:19Z</time></trkpt><trkpt lat="37.95160165475842" lon="-2.948405090312665"><ele>985.0</ele><time>2026-04-20T18:48:20Z</time></trkpt><trkpt lat="37.951389630222664" lon="-2.94835728380464"><ele>989.6666666666666</ele><time>2026-04-20T18:48:21Z</time></trkpt><trkpt lat="37.95120265767056" lon="-2.9483186529258867"><ele>994.3333333333333</ele><time>2026-04-20T18:48:22Z</time></trkpt><trkpt lat="37.95103906353508" lon="-2.948264265922231"><ele>999.0</ele><time>2026-04-20T18:48:23Z</time></trkpt><trkpt lat="37.950902528026134" lon="-2.948203925911593"><ele>992.6666666666667</ele><time>2026-04-20T18:48:24Z</time></trkpt><trkpt lat="37.950742465819424" lon="-2.9480847265078474"><ele>986.3333333333334</ele><time>2026-04-20T18:48:25Z</time></trkpt><trkpt lat="37.95054825980252" lon="-2.947929873712785"><ele>980.0</ele><time>2026-04-20T18:48:26Z</time></trkpt><trkpt lat="37.950342531527106" lon="-2.9477959038926924"><ele>980.0</ele><time>2026-04-20T18:48:26.999Z</time></trkpt><trkpt lat="37.95016333455268" lon="-2.9476750402213665"><ele>980.0</ele><time>2026-04-20T18:48:27.999Z</time></trkpt><trkpt lat="37.95000177954428" lon="-2.947565811040065"><ele>980.0</ele><time>2026-04-20T18:48:28.999Z</time></trkpt><trkpt lat="37.94986932757219" lon="-2.947473114674033"><ele>981.0</ele><time>2026-04-20T18:48:29.999Z</time></trkpt><trkpt lat="37.94976385717797" lon="-2.947417731805182"><ele>982.0</ele><time>2026-04-20T18:48:30.999Z</time></trkpt><trkpt lat="37.94966827576041" lon="-2.9473913893760764"><ele>983.0</ele><time>2026-04-20T18:48:31.999Z</time></trkpt><trkpt lat="37.94956679502201" lon="-2.9474574282214485"><ele>984.0</ele><time>2026-04-20T18:48:32.999Z</time></trkpt><trkpt lat="37.94940279010224" lon="-2.947561204315292"><ele>977.6666666666667</ele><time>2026-04-20T18:48:33.999Z</time></trkpt><trkpt lat="37.94924537070319" lon="-2.9476930758472646"><ele>971.3333333333334</ele><time>2026-04-20T18:48:34.999Z</time></trkpt><trkpt lat="37.949125722098" lon="-2.9478170629880456"><ele>965.0</ele><time>2026-04-20T18:48:35.999Z</time></trkpt><trkpt lat="37.94901980658734" lon="-2.947932765688084"><ele>965.0</ele><time>2026-04-20T18:48:36.999Z</time></trkpt><trkpt lat="37.94893258662553" lon="-2.948054943754867"><ele>965.0</ele><time>2026-04-20T18:48:37.999Z</time></trkpt><trkpt lat="37.948881614698934" lon="-2.948201759803428"><ele>965.0</ele><time>2026-04-20T18:48:38.999Z</time></trkpt><trkpt lat="37.94884436768926" lon="-2.9483088650938116"><ele>965.0</ele><time>2026-04-20T18:48:39.999Z</time></trkpt><trkpt lat="37.948791686326786" lon="-2.9484400397595336"><ele>962.0</ele><time>2026-04-20T18:48:40.999Z</time></trkpt><trkpt lat="37.9487324903535" lon="-2.9485548981818384"><ele>959.0</ele><time>2026-04-20T18:48:41.999Z</time></trkpt><trkpt lat="37.94865650093248" lon="-2.9486988197668316"><ele>956.0</ele><time>2026-04-20T18:48:42.999Z</time></trkpt><trkpt lat="37.94859068743527" lon="-2.9488175941387715"><ele>953.0</ele><time>2026-04-20T18:48:43.999Z</time></trkpt><trkpt lat="37.94852372075321" lon="-2.948931514834185"><ele>953.0</ele><time>2026-04-20T18:48:44.999Z</time></trkpt><trkpt lat="37.94845519188321" lon="-2.949038375641947"><ele>953.0</ele><time>2026-04-20T18:48:45.999Z</time></trkpt><trkpt lat="37.94837323565806" lon="-2.94914882210342"><ele>953.0</ele><time>2026-04-20T18:48:46.999Z</time></trkpt><trkpt lat="37.94828525663201" lon="-2.949252851171123"><ele>953.0</ele><time>2026-04-20T18:48:47.999Z</time></trkpt><trkpt lat="37.948197277847825" lon="-2.9493500886883255"><ele>953.5</ele><time>2026-04-20T18:48:48.999Z</time></trkpt><trkpt lat="37.94811032873415" lon="-2.9494461363803777"><ele>954.0</ele><time>2026-04-20T18:48:49.999Z</time></trkpt><trkpt lat="37.94802624316099" lon="-2.9495462170990208"><ele>954.5</ele><time>2026-04-20T18:48:50.999Z</time></trkpt><trkpt lat="37.94792541191048" lon="-2.9496562155576695"><ele>955.0</ele><time>2026-04-20T18:48:51.999Z</time></trkpt><trkpt lat="37.947827038696346" lon="-2.9497760625508196"><ele>955.0</ele><time>2026-04-20T18:48:52.999Z</time></trkpt><trkpt lat="37.94771908333364" lon="-2.94989882206547"><ele>955.0</ele><time>2026-04-20T18:48:53.999Z</time></trkpt><trkpt lat="37.9476101195097" lon="-2.95002218347821"><ele>955.0</ele><time>2026-04-20T18:48:54.999Z</time></trkpt><trkpt lat="37.94751845855497" lon="-2.9501500928888387"><ele>955.0</ele><time>2026-04-20T18:48:55.999Z</time></trkpt><trkpt lat="37.94743511560286" lon="-2.950301407199338"><ele>954.6666666666666</ele><time>2026-04-20T18:48:56.999Z</time></trkpt><trkpt lat="37.94739049734286" lon="-2.9504852965509123"><ele>954.3333333333333</ele><time>2026-04-20T18:48:57.999Z</time></trkpt><trkpt lat="37.947354250811536" lon="-2.950676527858975"><ele>954.0</ele><time>2026-04-20T18:48:58.999Z</time></trkpt><trkpt lat="37.94731733038223" lon="-2.9508652065500414"><ele>952.5</ele><time>2026-04-20T18:48:59.999Z</time></trkpt><trkpt lat="37.947260364691836" lon="-2.9510342727014427"><ele>951.0</ele><time>2026-04-20T18:49:00.999Z</time></trkpt><trkpt lat="37.94718794963167" lon="-2.9511892759581833"><ele>949.5</ele><time>2026-04-20T18:49:01.999Z</time></trkpt><trkpt lat="37.94711367670739" lon="-2.951338311578623"><ele>948.0</ele><time>2026-04-20T18:49:02.999Z</time></trkpt><trkpt lat="37.94703720534081" lon="-2.9514868173225315"><ele>948.0</ele><time>2026-04-20T18:49:03.999Z</time></trkpt><trkpt lat="37.946959405793315" lon="-2.9516405226753997"><ele>948.0</ele><time>2026-04-20T18:49:04.999Z</time></trkpt><trkpt lat="37.94688444172917" lon="-2.9517853026742675"><ele>948.0</ele><time>2026-04-20T18:49:05.999Z</time></trkpt><trkpt lat="37.946804860833474" lon="-2.951920291838994"><ele>948.0</ele><time>2026-04-20T18:49:06.999Z</time></trkpt><trkpt lat="37.94671708274953" lon="-2.9520367636174893"><ele>947.75</ele><time>2026-04-20T18:49:07.999Z</time></trkpt><trkpt lat="37.94662258172311" lon="-2.9521351435824092"><ele>947.5</ele><time>2026-04-20T18:49:08.999Z</time></trkpt><trkpt lat="37.946530167215705" lon="-2.9522438968086737"><ele>947.25</ele><time>2026-04-20T18:49:09.999Z</time></trkpt><trkpt lat="37.94642586304387" lon="-2.952304020770029"><ele>947.0</ele><time>2026-04-20T18:49:10.999Z</time></trkpt><trkpt lat="37.946296178621374" lon="-2.9523606997389864"><ele>947.0</ele><time>2026-04-20T18:49:11.999Z</time></trkpt><trkpt lat="37.94615042641612" lon="-2.9524110436527735"><ele>947.0</ele><time>2026-04-20T18:49:12.999Z</time></trkpt><trkpt lat="37.946024804694034" lon="-2.952442438519198"><ele>947.0</ele><time>2026-04-20T18:49:13.999Z</time></trkpt><trkpt lat="37.945915485629115" lon="-2.95249910694984"><ele>947.0</ele><time>2026-04-20T18:49:14.999Z</time></trkpt><trkpt lat="37.945822464886106" lon="-2.952579754801694"><ele>945.5</ele><time>2026-04-20T18:49:15.999Z</time></trkpt><trkpt lat="37.94577024143208" lon="-2.9527220268643486"><ele>944.0</ele><time>2026-04-20T18:49:16.999Z</time></trkpt><trkpt lat="37.94569087140217" lon="-2.9528617113995197"><ele>942.5</ele><time>2026-04-20T18:49:17.999Z</time></trkpt><trkpt lat="37.94559438770054" lon="-2.952990897246396"><ele>941.0</ele><time>2026-04-20T18:49:18.999Z</time></trkpt><trkpt lat="37.94550575314481" lon="-2.9531290932965772"><ele>941.0</ele><time>2026-04-20T18:49:19.999Z</time></trkpt><trkpt lat="37.94539777115538" lon="-2.953238453133614"><ele>941.0</ele><time>2026-04-20T18:49:20.999Z</time></trkpt><trkpt lat="37.9452703835489" lon="-2.9533333330754687"><ele>941.0</ele><time>2026-04-20T18:49:21.999Z</time></trkpt><trkpt lat="37.945145494392435" lon="-2.953432889154588"><ele>941.0</ele><time>2026-04-20T18:49:22.999Z</time></trkpt><trkpt lat="37.944998886466124" lon="-2.9535622743562047"><ele>936.0</ele><time>2026-04-20T18:49:23.999Z</time></trkpt><trkpt lat="37.94486763832807" lon="-2.953679891621312"><ele>931.0</ele><time>2026-04-20T18:49:24.998Z</time></trkpt><trkpt lat="37.944706745396346" lon="-2.953791699006951"><ele>926.0</ele><time>2026-04-20T18:49:25.998Z</time></trkpt><trkpt lat="37.94451747418277" lon="-2.9538787582393624"><ele>926.0</ele><time>2026-04-20T18:49:26.998Z</time></trkpt><trkpt lat="37.94431119984262" lon="-2.9539547068891756"><ele>926.0</ele><time>2026-04-20T18:49:27.998Z</time></trkpt><trkpt lat="37.944122792663165" lon="-2.9540155420297407"><ele>926.0</ele><time>2026-04-20T18:49:28.998Z</time></trkpt><trkpt lat="37.94395415336415" lon="-2.954087145708401"><ele>921.0</ele><time>2026-04-20T18:49:29.998Z</time></trkpt><trkpt lat="37.943791521144554" lon="-2.9542271686240795"><ele>916.0</ele><time>2026-04-20T18:49:30.998Z</time></trkpt><trkpt lat="37.9436458592691" lon="-2.954424660930841"><ele>911.0</ele><time>2026-04-20T18:49:31.998Z</time></trkpt><trkpt lat="37.943504723496694" lon="-2.954654917921337"><ele>917.5</ele><time>2026-04-20T18:49:32.998Z</time></trkpt><trkpt lat="37.94332397683754" lon="-2.9548287275645144"><ele>924.0</ele><time>2026-04-20T18:49:33.998Z</time></trkpt><trkpt lat="37.94311025120942" lon="-2.954981957786173"><ele>914.0</ele><time>2026-04-20T18:49:34.998Z</time></trkpt><trkpt lat="37.94288556120425" lon="-2.955119758510636"><ele>904.0</ele><time>2026-04-20T18:49:35.998Z</time></trkpt><trkpt lat="37.942686385595906" lon="-2.955234132697351"><ele>908.6666666666666</ele><time>2026-04-20T18:49:36.998Z</time></trkpt><trkpt lat="37.94250364381919" lon="-2.955380398014213"><ele>913.3333333333333</ele><time>2026-04-20T18:49:37.998Z</time></trkpt><trkpt lat="37.94234063265578" lon="-2.9555261624518883"><ele>918.0</ele><time>2026-04-20T18:49:38.998Z</time></trkpt><trkpt lat="37.942202620383156" lon="-2.9557000281699883"><ele>912.3333333333333</ele><time>2026-04-20T18:49:39.998Z</time></trkpt><trkpt lat="37.94206188357659" lon="-2.9558862168111735"><ele>906.6666666666666</ele><time>2026-04-20T18:49:40.998Z</time></trkpt><trkpt lat="37.94189703718049" lon="-2.9560347862057763"><ele>901.0</ele><time>2026-04-20T18:49:41.998Z</time></trkpt><trkpt lat="37.94169886754868" lon="-2.9561501420681915"><ele>901.0</ele><time>2026-04-20T18:49:42.998Z</time></trkpt><trkpt lat="37.94149353771577" lon="-2.956238611818848"><ele>901.0</ele><time>2026-04-20T18:49:43.998Z</time></trkpt><trkpt lat="37.94129109822473" lon="-2.956309666037688"><ele>901.0</ele><time>2026-04-20T18:49:44.998Z</time></trkpt><trkpt lat="37.941106389560744" lon="-2.9563506539046567"><ele>901.0</ele><time>2026-04-20T18:49:46Z</time></trkpt><trkpt lat="37.94095309745273" lon="-2.956377919216767"><ele>901.0</ele><time>2026-04-20T18:49:47Z</time></trkpt><trkpt lat="37.94082693819318" lon="-2.956394435230888"><ele>901.0</ele><time>2026-04-20T18:49:48Z</time></trkpt><trkpt lat="37.940719845793495" lon="-2.956409161286872"><ele>901.0</ele><time>2026-04-20T18:49:49Z</time></trkpt><trkpt lat="37.94062233575151" lon="-2.956422901814965"><ele>903.25</ele><time>2026-04-20T18:49:50Z</time></trkpt><trkpt lat="37.94050288609972" lon="-2.9564347757390594"><ele>905.5</ele><time>2026-04-20T18:49:51Z</time></trkpt><trkpt lat="37.940370580068254" lon="-2.956450274113421"><ele>907.75</ele><time>2026-04-20T18:49:52Z</time></trkpt><trkpt lat="37.94023752802662" lon="-2.956451906921748"><ele>910.0</ele><time>2026-04-20T18:49:53Z</time></trkpt><trkpt lat="37.94010926708234" lon="-2.9564463810514163"><ele>911.0</ele><time>2026-04-20T18:49:54Z</time></trkpt><trkpt lat="37.939978837742544" lon="-2.9564304093663303"><ele>912.0</ele><time>2026-04-20T18:49:55Z</time></trkpt><trkpt lat="37.93985444129882" lon="-2.9563963614190203"><ele>913.0</ele><time>2026-04-20T18:49:56Z</time></trkpt><trkpt lat="37.93972674864192" lon="-2.9563627771537746"><ele>914.0</ele><time>2026-04-20T18:49:57Z</time></trkpt><trkpt lat="37.93959462398532" lon="-2.956320789788605"><ele>914.0</ele><time>2026-04-20T18:49:58Z</time></trkpt><trkpt lat="37.93946084271669" lon="-2.9562576484962197"><ele>914.0</ele><time>2026-04-20T18:49:59Z</time></trkpt><trkpt lat="37.93932555447678" lon="-2.9561644182939024"><ele>914.0</ele><time>2026-04-20T18:50:00Z</time></trkpt><trkpt lat="37.93919727543331" lon="-2.9560727410902348"><ele>914.0</ele><time>2026-04-20T18:50:01Z</time></trkpt><trkpt lat="37.939079525563436" lon="-2.9559849120652233"><ele>912.75</ele><time>2026-04-20T18:50:02Z</time></trkpt><trkpt lat="37.93896254542835" lon="-2.9559099533047855"><ele>911.5</ele><time>2026-04-20T18:50:03Z</time></trkpt><trkpt lat="37.93883960705919" lon="-2.95588302907783"><ele>910.25</ele><time>2026-04-20T18:50:04Z</time></trkpt><trkpt lat="37.93870677522971" lon="-2.955920627082324"><ele>909.0</ele><time>2026-04-20T18:50:05Z</time></trkpt><trkpt lat="37.938572987751165" lon="-2.955947977315769"><ele>909.0</ele><time>2026-04-20T18:50:06Z</time></trkpt><trkpt lat="37.93844468971435" lon="-2.956022055538473"><ele>909.0</ele><time>2026-04-20T18:50:07Z</time></trkpt><trkpt lat="37.93833988394947" lon="-2.9561081324271496"><ele>909.0</ele><time>2026-04-20T18:50:08Z</time></trkpt><trkpt lat="37.93825840436392" lon="-2.9562220084802675"><ele>909.0</ele><time>2026-04-20T18:50:09Z</time></trkpt><trkpt lat="37.938202358786704" lon="-2.9563826626971346"><ele>911.3333333333333</ele><time>2026-04-20T18:50:10Z</time></trkpt><trkpt lat="37.93817227319838" lon="-2.9565777435220664"><ele>913.6666666666666</ele><time>2026-04-20T18:50:11Z</time></trkpt><trkpt lat="37.93814186791831" lon="-2.9568030268368206"><ele>916.0</ele><time>2026-04-20T18:50:12Z</time></trkpt><trkpt lat="37.93808684244278" lon="-2.957024745271821"><ele>911.0</ele><time>2026-04-20T18:50:13Z</time></trkpt><trkpt lat="37.93802734356883" lon="-2.957249603861483"><ele>906.0</ele><time>2026-04-20T18:50:14Z</time></trkpt><trkpt lat="37.9379823049015" lon="-2.9574417515000078"><ele>901.0</ele><time>2026-04-20T18:50:15Z</time></trkpt><trkpt lat="37.93796728528929" lon="-2.9576176493484896"><ele>896.3333333333333</ele><time>2026-04-20T18:50:16Z</time></trkpt><trkpt lat="37.93801925696852" lon="-2.9577766527267872"><ele>891.6666666666667</ele><time>2026-04-20T18:50:17Z</time></trkpt><trkpt lat="37.93806973514423" lon="-2.9579785769800844"><ele>887.0</ele><time>2026-04-20T18:50:18Z</time></trkpt><trkpt lat="37.93810471225173" lon="-2.9581669333682616"><ele>887.0</ele><time>2026-04-20T18:50:19Z</time></trkpt><trkpt lat="37.93808124174543" lon="-2.9583597752536"><ele>887.0</ele><time>2026-04-20T18:50:20Z</time></trkpt><trkpt lat="37.93800776410266" lon="-2.9585741602256252"><ele>887.0</ele><time>2026-04-20T18:50:21Z</time></trkpt><trkpt lat="37.93790493381408" lon="-2.9587946466045607"><ele>882.6666666666667</ele><time>2026-04-20T18:50:22Z</time></trkpt><trkpt lat="37.93780822851553" lon="-2.959007913821624"><ele>878.3333333333333</ele><time>2026-04-20T18:50:23Z</time></trkpt><trkpt lat="37.937758309922756" lon="-2.959254109815742"><ele>874.0</ele><time>2026-04-20T18:50:24Z</time></trkpt><trkpt lat="37.93774098299167" lon="-2.9595457279760424"><ele>870.5</ele><time>2026-04-20T18:50:25Z</time></trkpt><trkpt lat="37.93771769973419" lon="-2.959854424188035"><ele>867.0</ele><time>2026-04-20T18:50:26Z</time></trkpt><trkpt lat="37.93768899758089" lon="-2.960127982896946"><ele>866.6666666666667</ele><time>2026-04-20T18:50:27Z</time></trkpt><trkpt lat="37.93765980631164" lon="-2.960362874764225"><ele>866.3333333333334</ele><time>2026-04-20T18:50:28Z</time></trkpt><trkpt lat="37.93759948255249" lon="-2.960585242462643"><ele>866.0</ele><time>2026-04-20T18:50:29Z</time></trkpt><trkpt lat="37.937505110395755" lon="-2.960798804139174"><ele>875.6666666666667</ele><time>2026-04-20T18:50:30Z</time></trkpt><trkpt lat="37.937413387744456" lon="-2.9609912954863415"><ele>885.3333333333333</ele><time>2026-04-20T18:50:31Z</time></trkpt><trkpt lat="37.937364122213815" lon="-2.9611993047464065"><ele>895.0</ele><time>2026-04-20T18:50:31.999Z</time></trkpt><trkpt lat="37.93736214723369" lon="-2.9614523054784474"><ele>894.5</ele><time>2026-04-20T18:50:32.999Z</time></trkpt><trkpt lat="37.937384981964364" lon="-2.9617255542812964"><ele>894.0</ele><time>2026-04-20T18:50:33.999Z</time></trkpt><trkpt lat="37.93744583131049" lon="-2.9620255500233963"><ele>894.0</ele><time>2026-04-20T18:50:34.999Z</time></trkpt><trkpt lat="37.93753195068395" lon="-2.9623515479465943"><ele>894.0</ele><time>2026-04-20T18:50:35.999Z</time></trkpt><trkpt lat="37.93760005884555" lon="-2.9626986712958416"><ele>883.5</ele><time>2026-04-20T18:50:36.999Z</time></trkpt><trkpt lat="37.93763032347962" lon="-2.9630197699640544"><ele>873.0</ele><time>2026-04-20T18:50:37.999Z</time></trkpt><trkpt lat="37.937641261798696" lon="-2.963311962519763"><ele>874.0</ele><time>2026-04-20T18:50:38.999Z</time></trkpt><trkpt lat="37.93764220215452" lon="-2.9635786083529543"><ele>875.0</ele><time>2026-04-20T18:50:39.999Z</time></trkpt><trkpt lat="37.937653759967624" lon="-2.963822235211333"><ele>876.0</ele><time>2026-04-20T18:50:40.999Z</time></trkpt><trkpt lat="37.9376845279076" lon="-2.964046910035908"><ele>879.0</ele><time>2026-04-20T18:50:41.999Z</time></trkpt><trkpt lat="37.93774300281845" lon="-2.9642489293327494"><ele>882.0</ele><time>2026-04-20T18:50:42.999Z</time></trkpt><trkpt lat="37.93784349923439" lon="-2.9644427530807453"><ele>885.0</ele><time>2026-04-20T18:50:43.999Z</time></trkpt><trkpt lat="37.93798447460586" lon="-2.9646188063703867"><ele>885.0</ele><time>2026-04-20T18:50:44.999Z</time></trkpt><trkpt lat="37.93815743389168" lon="-2.9647667186914712"><ele>885.0</ele><time>2026-04-20T18:50:45.999Z</time></trkpt><trkpt lat="37.9383161528485" lon="-2.9648834294730078"><ele>885.0</ele><time>2026-04-20T18:50:46.999Z</time></trkpt><trkpt lat="37.9384439429714" lon="-2.964999261851094"><ele>880.0</ele><time>2026-04-20T18:50:47.999Z</time></trkpt><trkpt lat="37.938522049595306" lon="-2.9651178259701214"><ele>875.0</ele><time>2026-04-20T18:50:48.999Z</time></trkpt><trkpt lat="37.938560811764624" lon="-2.9652563235084015"><ele>870.0</ele><time>2026-04-20T18:50:49.999Z</time></trkpt><trkpt lat="37.93855378593131" lon="-2.965426647835985"><ele>865.0</ele><time>2026-04-20T18:50:50.999Z</time></trkpt><trkpt lat="37.938500351323476" lon="-2.9656160456539133"><ele>865.0</ele><time>2026-04-20T18:50:51.999Z</time></trkpt><trkpt lat="37.93840289972772" lon="-2.9658309207535694"><ele>865.0</ele><time>2026-04-20T18:50:52.999Z</time></trkpt><trkpt lat="37.938287376417016" lon="-2.966065439703073"><ele>865.0</ele><time>2026-04-20T18:50:53.999Z</time></trkpt><trkpt lat="37.93820336964175" lon="-2.966296604176807"><ele>866.0</ele><time>2026-04-20T18:50:54.999Z</time></trkpt><trkpt lat="37.93815216358341" lon="-2.9665600353324852"><ele>867.0</ele><time>2026-04-20T18:50:55.999Z</time></trkpt><trkpt lat="37.93812940611864" lon="-2.9668373244312503"><ele>868.0</ele><time>2026-04-20T18:50:56.999Z</time></trkpt><trkpt lat="37.93811285449744" lon="-2.9670839655443633"><ele>868.0</ele><time>2026-04-20T18:50:57.999Z</time></trkpt><trkpt lat="37.938064353939325" lon="-2.9673011771053717"><ele>868.0</ele><time>2026-04-20T18:50:58.999Z</time></trkpt><trkpt lat="37.93796652105012" lon="-2.967480908669551"><ele>868.0</ele><time>2026-04-20T18:50:59.999Z</time></trkpt><trkpt lat="37.93782322811148" lon="-2.9676617948997435"><ele>871.0</ele><time>2026-04-20T18:51:00.999Z</time></trkpt><trkpt lat="37.93764550705278" lon="-2.967835270535229"><ele>874.0</ele><time>2026-04-20T18:51:01.999Z</time></trkpt><trkpt lat="37.93749244300167" lon="-2.9679901361311187"><ele>877.0</ele><time>2026-04-20T18:51:02.999Z</time></trkpt><trkpt lat="37.93739253005763" lon="-2.9681193899973968"><ele>877.0</ele><time>2026-04-20T18:51:03.999Z</time></trkpt><trkpt lat="37.93734246501132" lon="-2.968288611110125"><ele>877.0</ele><time>2026-04-20T18:51:04.999Z</time></trkpt><trkpt lat="37.937314777513976" lon="-2.968526193305296"><ele>877.0</ele><time>2026-04-20T18:51:05.999Z</time></trkpt><trkpt lat="37.93727768824706" lon="-2.9687790360259334"><ele>872.0</ele><time>2026-04-20T18:51:06.999Z</time></trkpt><trkpt lat="37.93717056077136" lon="-2.9690210530402488"><ele>867.0</ele><time>2026-04-20T18:51:07.999Z</time></trkpt><trkpt lat="37.93701978443188" lon="-2.9692607412663556"><ele>871.5</ele><time>2026-04-20T18:51:08.999Z</time></trkpt><trkpt lat="37.93685491433737" lon="-2.969499666240086"><ele>876.0</ele><time>2026-04-20T18:51:09.999Z</time></trkpt><trkpt lat="37.93671102286293" lon="-2.969714252731487"><ele>876.0</ele><time>2026-04-20T18:51:10.999Z</time></trkpt><trkpt lat="37.93657345720445" lon="-2.9699058912949163"><ele>876.0</ele><time>2026-04-20T18:51:11.999Z</time></trkpt><trkpt lat="37.936426580087804" lon="-2.970070326444669"><ele>876.0</ele><time>2026-04-20T18:51:12.999Z</time></trkpt><trkpt lat="37.936261263526056" lon="-2.9702127698982013"><ele>869.5</ele><time>2026-04-20T18:51:13.999Z</time></trkpt><trkpt lat="37.93606059615465" lon="-2.970336283446365"><ele>863.0</ele><time>2026-04-20T18:51:14.999Z</time></trkpt><trkpt lat="37.93581156371229" lon="-2.9704363589605403"><ele>863.0</ele><time>2026-04-20T18:51:15.999Z</time></trkpt><trkpt lat="37.93556286378239" lon="-2.970507457895608"><ele>863.0</ele><time>2026-04-20T18:51:16.999Z</time></trkpt><trkpt lat="37.93534111539094" lon="-2.9705708412032408"><ele>863.0</ele><time>2026-04-20T18:51:17.999Z</time></trkpt><trkpt lat="37.93514200536298" lon="-2.970642632377612"><ele>863.0</ele><time>2026-04-20T18:51:18.999Z</time></trkpt><trkpt lat="37.934960861134286" lon="-2.9707086629803827"><ele>863.0</ele><time>2026-04-20T18:51:19.999Z</time></trkpt><trkpt lat="37.93479985266782" lon="-2.970758559192642"><ele>866.0</ele><time>2026-04-20T18:51:20.999Z</time></trkpt><trkpt lat="37.93464514708643" lon="-2.970791651049256"><ele>869.0</ele><time>2026-04-20T18:51:21.999Z</time></trkpt><trkpt lat="37.93450276586971" lon="-2.9708087729210564"><ele>872.0</ele><time>2026-04-20T18:51:22.999Z</time></trkpt><trkpt lat="37.93436092538045" lon="-2.9708443456058986"><ele>875.0</ele><time>2026-04-20T18:51:23.999Z</time></trkpt><trkpt lat="37.93423253455844" lon="-2.9709127553017276"><ele>871.25</ele><time>2026-04-20T18:51:24.999Z</time></trkpt><trkpt lat="37.9341086731577" lon="-2.9709514926441845"><ele>867.5</ele><time>2026-04-20T18:51:25.999Z</time></trkpt><trkpt lat="37.933998691723275" lon="-2.9710114873523596"><ele>863.75</ele><time>2026-04-20T18:51:26.999Z</time></trkpt><trkpt lat="37.93389219015857" lon="-2.971069604789098"><ele>860.0</ele><time>2026-04-20T18:51:27.999Z</time></trkpt><trkpt lat="37.93379704980601" lon="-2.9711397765828296"><ele>860.0</ele><time>2026-04-20T18:51:28.999Z</time></trkpt><trkpt lat="37.93372014207266" lon="-2.9712426701650907"><ele>860.0</ele><time>2026-04-20T18:51:29.998Z</time></trkpt><trkpt lat="37.93364526735555" lon="-2.9713595528655516"><ele>860.0</ele><time>2026-04-20T18:51:30.998Z</time></trkpt><trkpt lat="37.93359458779508" lon="-2.971497163715668"><ele>860.0</ele><time>2026-04-20T18:51:31.998Z</time></trkpt><trkpt lat="37.933578025964124" lon="-2.971655368301535"><ele>860.0</ele><time>2026-04-20T18:51:32.998Z</time></trkpt><trkpt lat="37.93360364234838" lon="-2.9718226509675256"><ele>860.0</ele><time>2026-04-20T18:51:33.998Z</time></trkpt><trkpt lat="37.9336664184921" lon="-2.9719910140166235"><ele>860.0</ele><time>2026-04-20T18:51:34.998Z</time></trkpt><trkpt lat="37.933751661855865" lon="-2.9721453577139094"><ele>860.0</ele><time>2026-04-20T18:51:35.998Z</time></trkpt><trkpt lat="37.93383932023052" lon="-2.972278688294278"><ele>860.0</ele><time>2026-04-20T18:51:36.998Z</time></trkpt><trkpt lat="37.933916693774165" lon="-2.972402291170712"><ele>860.0</ele><time>2026-04-20T18:51:37.998Z</time></trkpt><trkpt lat="37.93398147305085" lon="-2.9725279867479952"><ele>860.0</ele><time>2026-04-20T18:51:38.998Z</time></trkpt><trkpt lat="37.93403713903922" lon="-2.972649396512812"><ele>860.0</ele><time>2026-04-20T18:51:39.998Z</time></trkpt><trkpt lat="37.934065997919596" lon="-2.972765683806461"><ele>859.4285714285714</ele><time>2026-04-20T18:51:40.998Z</time></trkpt><trkpt lat="37.93406762338444" lon="-2.9728683566399035"><ele>858.8571428571429</ele><time>2026-04-20T18:51:41.998Z</time></trkpt><trkpt lat="37.934033568898826" lon="-2.9729610147905046"><ele>858.2857142857143</ele><time>2026-04-20T18:51:42.998Z</time></trkpt><trkpt lat="37.933991660955215" lon="-2.973030952436332"><ele>857.7142857142858</ele><time>2026-04-20T18:51:43.998Z</time></trkpt><trkpt lat="37.93393736507725" lon="-2.9730865156361026"><ele>857.1428571428571</ele><time>2026-04-20T18:51:44.998Z</time></trkpt><trkpt lat="37.93386829309855" lon="-2.973118059438448"><ele>856.5714285714287</ele><time>2026-04-20T18:51:45.998Z</time></trkpt><trkpt lat="37.933795338783305" lon="-2.9731146607926346"><ele>856.0</ele><time>2026-04-20T18:51:46.998Z</time></trkpt><trkpt lat="37.933719193576145" lon="-2.973070275198753"><ele>856.0</ele><time>2026-04-20T18:51:47.998Z</time></trkpt><trkpt lat="37.93364702115143" lon="-2.9729779704122823"><ele>855.9999999999999</ele><time>2026-04-20T18:51:48.998Z</time></trkpt><trkpt lat="37.93358386120588" lon="-2.9728660013797312"><ele>855.9999999999999</ele><time>2026-04-20T18:51:49.998Z</time></trkpt><trkpt lat="37.933553033173986" lon="-2.9727380562093804"><ele>856.0</ele><time>2026-04-20T18:51:50.998Z</time></trkpt><trkpt lat="37.93351944347589" lon="-2.9726077952397256"><ele>856.0</ele><time>2026-04-20T18:51:52Z</time></trkpt><trkpt lat="37.933480814747426" lon="-2.9724637741300075"><ele>857.0</ele><time>2026-04-20T18:51:53Z</time></trkpt><trkpt lat="37.93343316233656" lon="-2.9723252160935685"><ele>858.0</ele><time>2026-04-20T18:51:54Z</time></trkpt><trkpt lat="37.93336650174206" lon="-2.9721915752754837"><ele>859.0</ele><time>2026-04-20T18:51:55Z</time></trkpt><trkpt lat="37.933278119074174" lon="-2.972065001051356"><ele>860.0</ele><time>2026-04-20T18:51:56Z</time></trkpt><trkpt lat="37.93316413417891" lon="-2.9719401244275976"><ele>860.5</ele><time>2026-04-20T18:51:57Z</time></trkpt><trkpt lat="37.93305126092448" lon="-2.9718370039806445"><ele>861.0</ele><time>2026-04-20T18:51:58Z</time></trkpt><trkpt lat="37.93294289402376" lon="-2.971732367506527"><ele>861.5</ele><time>2026-04-20T18:51:59Z</time></trkpt><trkpt lat="37.932825510197766" lon="-2.971617845233986"><ele>862.0</ele><time>2026-04-20T18:52:00Z</time></trkpt><trkpt lat="37.932703452142114" lon="-2.9715030227111647"><ele>860.6666666666666</ele><time>2026-04-20T18:52:01Z</time></trkpt><trkpt lat="37.93256000421836" lon="-2.971393450662781"><ele>859.3333333333333</ele><time>2026-04-20T18:52:02Z</time></trkpt><trkpt lat="37.932359643854156" lon="-2.9712897668670464"><ele>858.0</ele><time>2026-04-20T18:52:03Z</time></trkpt><trkpt lat="37.93210850670549" lon="-2.971171319202928"><ele>858.0</ele><time>2026-04-20T18:52:04Z</time></trkpt><trkpt lat="37.93184862204729" lon="-2.9710338763172772"><ele>858.0</ele><time>2026-04-20T18:52:05Z</time></trkpt><trkpt lat="37.931618020271266" lon="-2.970897525635959"><ele>859.0</ele><time>2026-04-20T18:52:06Z</time></trkpt><trkpt lat="37.93140464539949" lon="-2.9707427198554113"><ele>860.0</ele><time>2026-04-20T18:52:07Z</time></trkpt><trkpt lat="37.93119463678927" lon="-2.970639207671218"><ele>860.0</ele><time>2026-04-20T18:52:08Z</time></trkpt><trkpt lat="37.93100234730751" lon="-2.970516980212871"><ele>860.0</ele><time>2026-04-20T18:52:09Z</time></trkpt><trkpt lat="37.9308116271802" lon="-2.9703673079762907"><ele>860.0</ele><time>2026-04-20T18:52:10Z</time></trkpt><trkpt lat="37.9306002407913" lon="-2.9702533327776965"><ele>857.0</ele><time>2026-04-20T18:52:11Z</time></trkpt><trkpt lat="37.93040006902186" lon="-2.9701689158256"><ele>854.0</ele><time>2026-04-20T18:52:12Z</time></trkpt><trkpt lat="37.93021183146676" lon="-2.970105522185502"><ele>851.0</ele><time>2026-04-20T18:52:13Z</time></trkpt><trkpt lat="37.930023342432776" lon="-2.9700602031999397"><ele>847.0</ele><time>2026-04-20T18:52:14Z</time></trkpt><trkpt lat="37.92984226819342" lon="-2.970030872669245"><ele>843.0</ele><time>2026-04-20T18:52:15Z</time></trkpt><trkpt lat="37.92966560422643" lon="-2.970016763471124"><ele>839.0</ele><time>2026-04-20T18:52:16Z</time></trkpt><trkpt lat="37.9295018941794" lon="-2.9700180859699574"><ele>839.0</ele><time>2026-04-20T18:52:17Z</time></trkpt><trkpt lat="37.92936465600656" lon="-2.9700508670512047"><ele>839.0</ele><time>2026-04-20T18:52:18Z</time></trkpt><trkpt lat="37.92920877303691" lon="-2.9701014057403734"><ele>839.0</ele><time>2026-04-20T18:52:19Z</time></trkpt><trkpt lat="37.929086395466804" lon="-2.9701121547229508"><ele>839.0</ele><time>2026-04-20T18:52:20Z</time></trkpt><trkpt lat="37.92896921522863" lon="-2.970083502787681"><ele>844.0</ele><time>2026-04-20T18:52:21Z</time></trkpt><trkpt lat="37.928860533009264" lon="-2.969975881854814"><ele>849.0</ele><time>2026-04-20T18:52:22Z</time></trkpt><trkpt lat="37.9287526966235" lon="-2.969819600581824"><ele>854.0</ele><time>2026-04-20T18:52:23Z</time></trkpt><trkpt lat="37.92862319925734" lon="-2.969702474121753"><ele>854.0</ele><time>2026-04-20T18:52:24Z</time></trkpt><trkpt lat="37.928500020810716" lon="-2.96962221910193"><ele>854.0</ele><time>2026-04-20T18:52:25Z</time></trkpt><trkpt lat="37.92839015941986" lon="-2.969583415262891"><ele>854.0</ele><time>2026-04-20T18:52:26Z</time></trkpt><trkpt lat="37.928288979067204" lon="-2.9695700423971076"><ele>854.0</ele><time>2026-04-20T18:52:27Z</time></trkpt><trkpt lat="37.92818852466202" lon="-2.969577869418899"><ele>851.6</ele><time>2026-04-20T18:52:28Z</time></trkpt><trkpt lat="37.92810705979896" lon="-2.9696377780289427"><ele>849.2</ele><time>2026-04-20T18:52:29Z</time></trkpt><trkpt lat="37.92804424625224" lon="-2.969742880535038"><ele>846.8000000000001</ele><time>2026-04-20T18:52:30Z</time></trkpt><trkpt lat="37.92802164269916" lon="-2.9698752589702284"><ele>844.4000000000001</ele><time>2026-04-20T18:52:31Z</time></trkpt><trkpt lat="37.92805678658459" lon="-2.970014710751242"><ele>842.0</ele><time>2026-04-20T18:52:32Z</time></trkpt><trkpt lat="37.9281312648209" lon="-2.9701591582148406"><ele>841.25</ele><time>2026-04-20T18:52:33Z</time></trkpt><trkpt lat="37.928210029060885" lon="-2.9703546424532976"><ele>840.5</ele><time>2026-04-20T18:52:34Z</time></trkpt><trkpt lat="37.92825368230024" lon="-2.970515545614302"><ele>839.75</ele><time>2026-04-20T18:52:35Z</time></trkpt><trkpt lat="37.928264890050855" lon="-2.9706787645848025"><ele>839.0</ele><time>2026-04-20T18:52:35.999Z</time></trkpt><trkpt lat="37.9282268242674" lon="-2.970855588277977"><ele>835.6666666666667</ele><time>2026-04-20T18:52:36.999Z</time></trkpt><trkpt lat="37.92814361380971" lon="-2.971015438371905"><ele>832.3333333333333</ele><time>2026-04-20T18:52:37.999Z</time></trkpt><trkpt lat="37.928002490176304" lon="-2.9711806112879877"><ele>829.0</ele><time>2026-04-20T18:52:38.999Z</time></trkpt><trkpt lat="37.92785132421871" lon="-2.971380837253859"><ele>829.0</ele><time>2026-04-20T18:52:39.999Z</time></trkpt><trkpt lat="37.92771099285539" lon="-2.971641174819362"><ele>829.0</ele><time>2026-04-20T18:52:40.999Z</time></trkpt><trkpt lat="37.92759829261117" lon="-2.9718953003383466"><ele>844.0</ele><time>2026-04-20T18:52:41.999Z</time></trkpt><trkpt lat="37.92748236274505" lon="-2.972156512031437"><ele>859.0</ele><time>2026-04-20T18:52:42.999Z</time></trkpt><trkpt lat="37.927386063382194" lon="-2.9724743094372776"><ele>853.0</ele><time>2026-04-20T18:52:43.999Z</time></trkpt><trkpt lat="37.92731395290296" lon="-2.972810806392601"><ele>847.0</ele><time>2026-04-20T18:52:44.999Z</time></trkpt><trkpt lat="37.92725282593857" lon="-2.9730968791488643"><ele>846.3333333333333</ele><time>2026-04-20T18:52:45.999Z</time></trkpt><trkpt lat="37.927191853227534" lon="-2.9733662822351485"><ele>845.6666666666667</ele><time>2026-04-20T18:52:46.999Z</time></trkpt><trkpt lat="37.927117557706275" lon="-2.973623720312446"><ele>845.0</ele><time>2026-04-20T18:52:47.999Z</time></trkpt><trkpt lat="37.927020498752384" lon="-2.9738566172929284"><ele>845.0</ele><time>2026-04-20T18:52:48.999Z</time></trkpt><trkpt lat="37.92691976973868" lon="-2.974072821268851"><ele>845.0</ele><time>2026-04-20T18:52:49.999Z</time></trkpt><trkpt lat="37.9268123982925" lon="-2.9742703646867663"><ele>845.0</ele><time>2026-04-20T18:52:50.999Z</time></trkpt><trkpt lat="37.92674506605935" lon="-2.9745102335263827"><ele>856.0</ele><time>2026-04-20T18:52:51.999Z</time></trkpt><trkpt lat="37.926727259069445" lon="-2.9748030604386733"><ele>867.0</ele><time>2026-04-20T18:52:52.999Z</time></trkpt><trkpt lat="37.92670631880847" lon="-2.9750874764268813"><ele>867.0</ele><time>2026-04-20T18:52:53.999Z</time></trkpt><trkpt lat="37.926656758782414" lon="-2.975391699117689"><ele>867.0</ele><time>2026-04-20T18:52:54.999Z</time></trkpt><trkpt lat="37.92660510118759" lon="-2.9756599677432574"><ele>864.6666666666667</ele><time>2026-04-20T18:52:55.999Z</time></trkpt><trkpt lat="37.926561860420314" lon="-2.975899805562985"><ele>862.3333333333334</ele><time>2026-04-20T18:52:56.999Z</time></trkpt><trkpt lat="37.926522858406926" lon="-2.976126553448851"><ele>860.0</ele><time>2026-04-20T18:52:57.999Z</time></trkpt><trkpt lat="37.92647447542312" lon="-2.9763422671810993"><ele>860.0</ele><time>2026-04-20T18:52:58.999Z</time></trkpt><trkpt lat="37.92639324831071" lon="-2.976551619086398"><ele>860.0</ele><time>2026-04-20T18:52:59.999Z</time></trkpt><trkpt lat="37.92628053269551" lon="-2.976744901572938"><ele>860.0</ele><time>2026-04-20T18:53:00.999Z</time></trkpt><trkpt lat="37.92617635553359" lon="-2.9769143712430335"><ele>859.0</ele><time>2026-04-20T18:53:01.999Z</time></trkpt><trkpt lat="37.92607666230351" lon="-2.9770714388401434"><ele>858.0</ele><time>2026-04-20T18:53:02.999Z</time></trkpt><trkpt lat="37.926005517319425" lon="-2.9772380845882105"><ele>857.0</ele><time>2026-04-20T18:53:03.999Z</time></trkpt><trkpt lat="37.92596218782703" lon="-2.977430676984582"><ele>860.6666666666667</ele><time>2026-04-20T18:53:04.999Z</time></trkpt><trkpt lat="37.92595567899502" lon="-2.9776388646662335"><ele>864.3333333333333</ele><time>2026-04-20T18:53:05.999Z</time></trkpt><trkpt lat="37.92598361072271" lon="-2.97785787408617"><ele>868.0</ele><time>2026-04-20T18:53:06.999Z</time></trkpt><trkpt lat="37.92606357766482" lon="-2.978063674135922"><ele>868.0</ele><time>2026-04-20T18:53:07.999Z</time></trkpt><trkpt lat="37.926141986957276" lon="-2.9782453236640705"><ele>868.0</ele><time>2026-04-20T18:53:08.999Z</time></trkpt><trkpt lat="37.92621409678678" lon="-2.9783922588293716"><ele>868.0</ele><time>2026-04-20T18:53:09.999Z</time></trkpt><trkpt lat="37.926235783652466" lon="-2.9785531756655965"><ele>868.0</ele><time>2026-04-20T18:53:10.999Z</time></trkpt><trkpt lat="37.92620902161144" lon="-2.978731457143267"><ele>867.0</ele><time>2026-04-20T18:53:11.999Z</time></trkpt><trkpt lat="37.92612238990233" lon="-2.9789385278372995"><ele>866.0</ele><time>2026-04-20T18:53:12.999Z</time></trkpt><trkpt lat="37.925997984803246" lon="-2.9791818419804303"><ele>865.0</ele><time>2026-04-20T18:53:13.999Z</time></trkpt><trkpt lat="37.92584500234279" lon="-2.9794218090944313"><ele>870.5</ele><time>2026-04-20T18:53:14.999Z</time></trkpt><trkpt lat="37.92572537564594" lon="-2.979647653032147"><ele>876.0</ele><time>2026-04-20T18:53:15.999Z</time></trkpt><trkpt lat="37.92558922230104" lon="-2.979894440020511"><ele>871.0</ele><time>2026-04-20T18:53:16.999Z</time></trkpt><trkpt lat="37.925463385208964" lon="-2.9801093207319287"><ele>866.0</ele><time>2026-04-20T18:53:17.999Z</time></trkpt><trkpt lat="37.92533266605908" lon="-2.980295253118497"><ele>861.0</ele><time>2026-04-20T18:53:18.999Z</time></trkpt><trkpt lat="37.92522332172509" lon="-2.9804977552360343"><ele>861.0</ele><time>2026-04-20T18:53:19.999Z</time></trkpt><trkpt lat="37.92515502093775" lon="-2.9807393056622966"><ele>861.0</ele><time>2026-04-20T18:53:20.999Z</time></trkpt><trkpt lat="37.925122259635806" lon="-2.980971943212852"><ele>861.0</ele><time>2026-04-20T18:53:21.999Z</time></trkpt><trkpt lat="37.92508813921458" lon="-2.9811659969194966"><ele>868.5</ele><time>2026-04-20T18:53:22.999Z</time></trkpt><trkpt lat="37.925036119513116" lon="-2.9813303545468584"><ele>876.0</ele><time>2026-04-20T18:53:23.999Z</time></trkpt><trkpt lat="37.92496080121215" lon="-2.981466008771273"><ele>883.5</ele><time>2026-04-20T18:53:24.999Z</time></trkpt><trkpt lat="37.92485611776967" lon="-2.9815565567417552"><ele>891.0</ele><time>2026-04-20T18:53:25.999Z</time></trkpt><trkpt lat="37.92471784163723" lon="-2.9816168974887916"><ele>891.0</ele><time>2026-04-20T18:53:26.999Z</time></trkpt><trkpt lat="37.92454358972038" lon="-2.9816510729967587"><ele>891.0</ele><time>2026-04-20T18:53:27.999Z</time></trkpt><trkpt lat="37.92433486298695" lon="-2.9816627155092243"><ele>891.0</ele><time>2026-04-20T18:53:28.999Z</time></trkpt><trkpt lat="37.924127827707444" lon="-2.981700550015974"><ele>888.0</ele><time>2026-04-20T18:53:29.999Z</time></trkpt><trkpt lat="37.92393787841627" lon="-2.9817966512175174"><ele>885.0</ele><time>2026-04-20T18:53:30.999Z</time></trkpt><trkpt lat="37.92375533725051" lon="-2.9819451703340167"><ele>882.0</ele><time>2026-04-20T18:53:31.999Z</time></trkpt><trkpt lat="37.923582389129486" lon="-2.9821044751411963"><ele>882.0</ele><time>2026-04-20T18:53:32.999Z</time></trkpt><trkpt lat="37.92343239808775" lon="-2.9822370451410776"><ele>882.0</ele><time>2026-04-20T18:53:33.998Z</time></trkpt><trkpt lat="37.923276139393934" lon="-2.982326768007906"><ele>882.0</ele><time>2026-04-20T18:53:34.998Z</time></trkpt><trkpt lat="37.923099969267646" lon="-2.9823944400952103"><ele>880.3333333333333</ele><time>2026-04-20T18:53:35.998Z</time></trkpt><trkpt lat="37.92293295927932" lon="-2.9824434905755632"><ele>878.6666666666666</ele><time>2026-04-20T18:53:36.998Z</time></trkpt><trkpt lat="37.9227917075551" lon="-2.9824991210304437"><ele>877.0</ele><time>2026-04-20T18:53:37.998Z</time></trkpt><trkpt lat="37.92265113037655" lon="-2.98256308187026"><ele>883.0</ele><time>2026-04-20T18:53:38.998Z</time></trkpt><trkpt lat="37.92252062736825" lon="-2.982632682136107"><ele>889.0</ele><time>2026-04-20T18:53:39.998Z</time></trkpt><trkpt lat="37.92241681908464" lon="-2.982736464907533"><ele>895.0</ele><time>2026-04-20T18:53:40.998Z</time></trkpt><trkpt lat="37.92233292514548" lon="-2.982839268268157"><ele>901.0</ele><time>2026-04-20T18:53:41.998Z</time></trkpt><trkpt lat="37.922297341609664" lon="-2.983008852734741"><ele>901.0</ele><time>2026-04-20T18:53:42.998Z</time></trkpt><trkpt lat="37.92228674667042" lon="-2.9831968572044034"><ele>901.0</ele><time>2026-04-20T18:53:43.998Z</time></trkpt><trkpt lat="37.922274355698306" lon="-2.9833951802425887"><ele>901.0</ele><time>2026-04-20T18:53:44.998Z</time></trkpt><trkpt lat="37.922249649321095" lon="-2.9835981530735394"><ele>901.0</ele><time>2026-04-20T18:53:45.998Z</time></trkpt><trkpt lat="37.92222394285334" lon="-2.983799655421319"><ele>901.0</ele><time>2026-04-20T18:53:46.998Z</time></trkpt><trkpt lat="37.92220253627667" lon="-2.983987324894789"><ele>901.0</ele><time>2026-04-20T18:53:47.998Z</time></trkpt><trkpt lat="37.922205676926836" lon="-2.9841942337104346"><ele>901.0</ele><time>2026-04-20T18:53:48.998Z</time></trkpt><trkpt lat="37.922241453752704" lon="-2.9843922900720394"><ele>901.0</ele><time>2026-04-20T18:53:49.998Z</time></trkpt><trkpt lat="37.922309123284094" lon="-2.9845865117992667"><ele>901.0</ele><time>2026-04-20T18:53:50.998Z</time></trkpt><trkpt lat="37.92238457336437" lon="-2.984779035854255"><ele>901.0</ele><time>2026-04-20T18:53:51.998Z</time></trkpt><trkpt lat="37.92243155776015" lon="-2.9849661684145556"><ele>901.0</ele><time>2026-04-20T18:53:52.998Z</time></trkpt><trkpt lat="37.922454158805" lon="-2.9851499689003007"><ele>901.0</ele><time>2026-04-20T18:53:53.998Z</time></trkpt><trkpt lat="37.9224541420591" lon="-2.985335387367758"><ele>901.0</ele><time>2026-04-20T18:53:54.998Z</time></trkpt><trkpt lat="37.92243027562866" lon="-2.985535677854006"><ele>898.6666666666666</ele><time>2026-04-20T18:53:55.998Z</time></trkpt><trkpt lat="37.92238859004004" lon="-2.985732764304188"><ele>896.3333333333333</ele><time>2026-04-20T18:53:56.998Z</time></trkpt><trkpt lat="37.92235221637657" lon="-2.985922100104603"><ele>894.0</ele><time>2026-04-20T18:53:58Z</time></trkpt><trkpt lat="37.92232005629838" lon="-2.986088702751589"><ele>890.5</ele><time>2026-04-20T18:53:59Z</time></trkpt><trkpt lat="37.922270263483064" lon="-2.986239786961116"><ele>887.0</ele><time>2026-04-20T18:54:00Z</time></trkpt><trkpt lat="37.92220657137444" lon="-2.9863902942047247"><ele>883.5</ele><time>2026-04-20T18:54:01Z</time></trkpt><trkpt lat="37.922124498443395" lon="-2.986507631501957"><ele>880.0</ele><time>2026-04-20T18:54:02Z</time></trkpt><trkpt lat="37.92204662030298" lon="-2.986616815475845"><ele>881.25</ele><time>2026-04-20T18:54:03Z</time></trkpt><trkpt lat="37.921959103194204" lon="-2.9867142661002495"><ele>882.5</ele><time>2026-04-20T18:54:04Z</time></trkpt><trkpt lat="37.921874529391594" lon="-2.986814481686089"><ele>883.75</ele><time>2026-04-20T18:54:05Z</time></trkpt><trkpt lat="37.92178007729534" lon="-2.9869038261033736"><ele>885.0</ele><time>2026-04-20T18:54:06Z</time></trkpt><trkpt lat="37.9216784429118" lon="-2.986989144151454"><ele>885.0</ele><time>2026-04-20T18:54:07Z</time></trkpt><trkpt lat="37.92157645957189" lon="-2.9870610796183708"><ele>885.0</ele><time>2026-04-20T18:54:08Z</time></trkpt><trkpt lat="37.92145916095551" lon="-2.987111220498171"><ele>885.0</ele><time>2026-04-20T18:54:09Z</time></trkpt><trkpt lat="37.92134026114062" lon="-2.987138374505989"><ele>885.0</ele><time>2026-04-20T18:54:10Z</time></trkpt><trkpt lat="37.92122508664271" lon="-2.987160375662468"><ele>885.0</ele><time>2026-04-20T18:54:11Z</time></trkpt><trkpt lat="37.92112995750756" lon="-2.9871748061028334"><ele>885.0</ele><time>2026-04-20T18:54:12Z</time></trkpt><trkpt lat="37.921032407939435" lon="-2.987209408430484"><ele>885.0</ele><time>2026-04-20T18:54:13Z</time></trkpt><trkpt lat="37.92095152489694" lon="-2.987275110787705"><ele>885.0</ele><time>2026-04-20T18:54:14Z</time></trkpt><trkpt lat="37.92088836094434" lon="-2.987354795783619"><ele>885.0</ele><time>2026-04-20T18:54:15Z</time></trkpt><trkpt lat="37.9208377003094" lon="-2.9874471705573606"><ele>887.0</ele><time>2026-04-20T18:54:16Z</time></trkpt><trkpt lat="37.920806654816666" lon="-2.987573740677023"><ele>889.0</ele><time>2026-04-20T18:54:17Z</time></trkpt><trkpt lat="37.92075516737979" lon="-2.9876983527497316"><ele>891.0</ele><time>2026-04-20T18:54:18Z</time></trkpt><trkpt lat="37.92073099281944" lon="-2.9878385093714614"><ele>893.0</ele><time>2026-04-20T18:54:19Z</time></trkpt><trkpt lat="37.92071031744948" lon="-2.987975857078221"><ele>895.0</ele><time>2026-04-20T18:54:20Z</time></trkpt><trkpt lat="37.92068850279611" lon="-2.988100387226945"><ele>894.9999999999999</ele><time>2026-04-20T18:54:21Z</time></trkpt><trkpt lat="37.92066310500796" lon="-2.9882103574937635"><ele>895.0</ele><time>2026-04-20T18:54:22Z</time></trkpt><trkpt lat="37.92064302037509" lon="-2.988314125015806"><ele>895.0</ele><time>2026-04-20T18:54:23Z</time></trkpt><trkpt lat="37.920639664127584" lon="-2.9884192655244526"><ele>895.0</ele><time>2026-04-20T18:54:24Z</time></trkpt><trkpt lat="37.92064889049721" lon="-2.988528875617763"><ele>894.9999999999999</ele><time>2026-04-20T18:54:25Z</time></trkpt><trkpt lat="37.920678898916464" lon="-2.988635408500619"><ele>895.0</ele><time>2026-04-20T18:54:26Z</time></trkpt><trkpt lat="37.92074453899064" lon="-2.9887327648786375"><ele>899.0</ele><time>2026-04-20T18:54:27Z</time></trkpt><trkpt lat="37.92084472332147" lon="-2.9888063048920097"><ele>903.0</ele><time>2026-04-20T18:54:28Z</time></trkpt><trkpt lat="37.92095147558357" lon="-2.98887011783117"><ele>907.0</ele><time>2026-04-20T18:54:29Z</time></trkpt><trkpt lat="37.921045339990584" lon="-2.988929500131677"><ele>911.0</ele><time>2026-04-20T18:54:30Z</time></trkpt><trkpt lat="37.92112948181513" lon="-2.9889930445385073"><ele>915.0</ele><time>2026-04-20T18:54:31Z</time></trkpt><trkpt lat="37.921209067101124" lon="-2.98905493126565"><ele>912.5</ele><time>2026-04-20T18:54:32Z</time></trkpt><trkpt lat="37.92127648590042" lon="-2.989107797669766"><ele>910.0</ele><time>2026-04-20T18:54:33Z</time></trkpt><trkpt lat="37.92133066142622" lon="-2.989164879846444"><ele>907.5</ele><time>2026-04-20T18:54:34Z</time></trkpt><trkpt lat="37.921373764401736" lon="-2.989247900627367"><ele>905.0</ele><time>2026-04-20T18:54:35Z</time></trkpt><trkpt lat="37.92141729431556" lon="-2.98935623539324"><ele>902.5</ele><time>2026-04-20T18:54:36Z</time></trkpt><trkpt lat="37.92146935236551" lon="-2.9894519116235325"><ele>900.0</ele><time>2026-04-20T18:54:37Z</time></trkpt><trkpt lat="37.92150786340654" lon="-2.9895442235964174"><ele>900.0</ele><time>2026-04-20T18:54:37.999Z</time></trkpt><trkpt lat="37.92152832301892" lon="-2.989648498276664"><ele>900.0</ele><time>2026-04-20T18:54:38.999Z</time></trkpt><trkpt lat="37.92156649843574" lon="-2.989727493998836"><ele>900.0</ele><time>2026-04-20T18:54:39.999Z</time></trkpt><trkpt lat="37.921622109028704" lon="-2.9898136823680073"><ele>900.0</ele><time>2026-04-20T18:54:40.999Z</time></trkpt><trkpt lat="37.92167902901936" lon="-2.9898938387448624"><ele>900.0</ele><time>2026-04-20T18:54:41.999Z</time></trkpt><trkpt lat="37.921721101503216" lon="-2.9899796336070716"><ele>900.0</ele><time>2026-04-20T18:54:42.999Z</time></trkpt><trkpt lat="37.921767681268456" lon="-2.9900607811618354"><ele>894.8</ele><time>2026-04-20T18:54:43.999Z</time></trkpt><trkpt lat="37.92181887643966" lon="-2.990137653320773"><ele>889.6</ele><time>2026-04-20T18:54:44.999Z</time></trkpt><trkpt lat="37.92185935837767" lon="-2.9902234383849287"><ele>884.4000000000001</ele><time>2026-04-20T18:54:45.999Z</time></trkpt><trkpt lat="37.921898403743306" lon="-2.990362468673735"><ele>879.2</ele><time>2026-04-20T18:54:47.999Z</time></trkpt><trkpt lat="37.92189095565077" lon="-2.99050665591686"><ele>874.0</ele><time>2026-04-20T18:54:49.999Z</time></trkpt><trkpt lat="37.92188870705193" lon="-2.99063890713997"><ele>874.0</ele><time>2026-04-20T18:54:51.999Z</time></trkpt><trkpt lat="37.92188011619757" lon="-2.9907975706440735"><ele>874.0000000000001</ele><time>2026-04-20T18:54:53.999Z</time></trkpt><trkpt lat="37.921908596765604" lon="-2.9908841992375987"><ele>874.0000000000001</ele><time>2026-04-20T18:54:54.999Z</time></trkpt><trkpt lat="37.92193407560193" lon="-2.9909874510596737"><ele>874.0</ele><time>2026-04-20T18:54:55.999Z</time></trkpt><trkpt lat="37.921952143478244" lon="-2.9911000495365005"><ele>874.0</ele><time>2026-04-20T18:54:56.999Z</time></trkpt><trkpt lat="37.92199077496382" lon="-2.9911980104406015"><ele>874.8571428571428</ele><time>2026-04-20T18:54:57.999Z</time></trkpt><trkpt lat="37.92201747388653" lon="-2.9912752220344343"><ele>875.7142857142858</ele><time>2026-04-20T18:54:58.999Z</time></trkpt><trkpt lat="37.92204374703869" lon="-2.991354138835181"><ele>876.5714285714286</ele><time>2026-04-20T18:54:59.999Z</time></trkpt><trkpt lat="37.92206295061939" lon="-2.991431360523889"><ele>877.4285714285713</ele><time>2026-04-20T18:55:00.999Z</time></trkpt><trkpt lat="37.92208201881605" lon="-2.9915083979021446"><ele>878.2857142857142</ele><time>2026-04-20T18:55:01.999Z</time></trkpt><trkpt lat="37.922100949803294" lon="-2.991588554068853"><ele>879.1428571428571</ele><time>2026-04-20T18:55:02.999Z</time></trkpt><trkpt lat="37.92212470863813" lon="-2.991674949648745"><ele>880.0</ele><time>2026-04-20T18:55:03.999Z</time></trkpt><trkpt lat="37.92216641032898" lon="-2.991761441849857"><ele>881.4</ele><time>2026-04-20T18:55:04.999Z</time></trkpt><trkpt lat="37.922217064285086" lon="-2.9918571527459643"><ele>882.8</ele><time>2026-04-20T18:55:05.999Z</time></trkpt><trkpt lat="37.92226892150971" lon="-2.9919473019600407"><ele>884.2</ele><time>2026-04-20T18:55:06.999Z</time></trkpt><trkpt lat="37.92231319675362" lon="-2.992056849607654"><ele>885.6</ele><time>2026-04-20T18:55:07.999Z</time></trkpt><trkpt lat="37.922386102782696" lon="-2.992219817940119"><ele>887.0</ele><time>2026-04-20T18:55:08.999Z</time></trkpt><trkpt lat="37.92243814466179" lon="-2.9924579028228404"><ele>886.0</ele><time>2026-04-20T18:55:09.999Z</time></trkpt><trkpt lat="37.92249195429177" lon="-2.9926465452785576"><ele>885.0</ele><time>2026-04-20T18:55:10.999Z</time></trkpt><trkpt lat="37.92254938782606" lon="-2.992825356758213"><ele>884.0</ele><time>2026-04-20T18:55:11.999Z</time></trkpt><trkpt lat="37.92259364899021" lon="-2.9929887816572323"><ele>883.0</ele><time>2026-04-20T18:55:12.999Z</time></trkpt><trkpt lat="37.92264026641426" lon="-2.9931300954664284"><ele>881.4</ele><time>2026-04-20T18:55:13.999Z</time></trkpt><trkpt lat="37.922662577317936" lon="-2.993263692900443"><ele>879.8</ele><time>2026-04-20T18:55:14.999Z</time></trkpt><trkpt lat="37.9226630781042" lon="-2.9933913724450334"><ele>878.2</ele><time>2026-04-20T18:55:15.999Z</time></trkpt><trkpt lat="37.922645562644476" lon="-2.993522235207884"><ele>876.6</ele><time>2026-04-20T18:55:16.999Z</time></trkpt><trkpt lat="37.92259411746947" lon="-2.9936615317448867"><ele>875.0</ele><time>2026-04-20T18:55:17.999Z</time></trkpt><trkpt lat="37.92251121995266" lon="-2.993796343834109"><ele>875.0</ele><time>2026-04-20T18:55:18.999Z</time></trkpt><trkpt lat="37.92240241883616" lon="-2.9939112643600234"><ele>875.0</ele><time>2026-04-20T18:55:19.999Z</time></trkpt><trkpt lat="37.92229489711509" lon="-2.994009350537742"><ele>875.0</ele><time>2026-04-20T18:55:20.999Z</time></trkpt><trkpt lat="37.92219450070261" lon="-2.994095355894038"><ele>875.0</ele><time>2026-04-20T18:55:21.999Z</time></trkpt><trkpt lat="37.922101105267515" lon="-2.994184243491537"><ele>872.2</ele><time>2026-04-20T18:55:22.999Z</time></trkpt><trkpt lat="37.92201731035733" lon="-2.9942717102174337"><ele>869.4</ele><time>2026-04-20T18:55:23.999Z</time></trkpt><trkpt lat="37.92193740376965" lon="-2.9943552393212016"><ele>866.5999999999999</ele><time>2026-04-20T18:55:24.999Z</time></trkpt><trkpt lat="37.92187292377902" lon="-2.9944362108028018"><ele>863.8</ele><time>2026-04-20T18:55:25.999Z</time></trkpt><trkpt lat="37.921811004756094" lon="-2.9945244493226375"><ele>861.0</ele><time>2026-04-20T18:55:26.999Z</time></trkpt><trkpt lat="37.92175470438874" lon="-2.9946083681236177"><ele>861.5</ele><time>2026-04-20T18:55:27.999Z</time></trkpt><trkpt lat="37.92170823139802" lon="-2.994679381017017"><ele>862.0</ele><time>2026-04-20T18:55:28.999Z</time></trkpt><trkpt lat="37.92165915394139" lon="-2.9947657134524155"><ele>862.5</ele><time>2026-04-20T18:55:29.999Z</time></trkpt><trkpt lat="37.92161525425859" lon="-2.9948574007387356"><ele>863.0</ele><time>2026-04-20T18:55:30.999Z</time></trkpt><trkpt lat="37.92159069450534" lon="-2.994965221800135"><ele>863.5</ele><time>2026-04-20T18:55:31.999Z</time></trkpt><trkpt lat="37.921574848665244" lon="-2.9950608788279185"><ele>864.0</ele><time>2026-04-20T18:55:32.999Z</time></trkpt><trkpt lat="37.92151304882443" lon="-2.995107362766828"><ele>864.0</ele><time>2026-04-20T18:55:33.999Z</time></trkpt><trkpt lat="37.92146641312947" lon="-2.9951919509478957"><ele>864.0</ele><time>2026-04-20T18:55:35.998Z</time></trkpt><trkpt lat="37.92131940723817" lon="-2.9950779029766923"><ele>864.0</ele><time>2026-04-20T18:55:36.998Z</time></trkpt><trkpt lat="37.92122544605836" lon="-2.9950759696917206"><ele>864.0</ele><time>2026-04-20T18:55:37.998Z</time></trkpt><trkpt lat="37.92112069182766" lon="-2.995119525213589"><ele>864.0</ele><time>2026-04-20T18:55:38.998Z</time></trkpt><trkpt lat="37.9210323690902" lon="-2.9952355331489326"><ele>864.0</ele><time>2026-04-20T18:55:39.998Z</time></trkpt><trkpt lat="37.92095650736345" lon="-2.9954097695630724"><ele>864.0</ele><time>2026-04-20T18:55:40.998Z</time></trkpt><trkpt lat="37.92084552618345" lon="-2.9955708712837903"><ele>865.3333333333333</ele><time>2026-04-20T18:55:41.998Z</time></trkpt><trkpt lat="37.92072132993382" lon="-2.995729808480906"><ele>866.6666666666666</ele><time>2026-04-20T18:55:42.998Z</time></trkpt><trkpt lat="37.92055318396887" lon="-2.9958935162764417"><ele>868.0</ele><time>2026-04-20T18:55:43.998Z</time></trkpt><trkpt lat="37.92038482355742" lon="-2.9960290922305344"><ele>868.0</ele><time>2026-04-20T18:55:44.998Z</time></trkpt><trkpt lat="37.92023436481812" lon="-2.996140169732037"><ele>868.0</ele><time>2026-04-20T18:55:45.998Z</time></trkpt><trkpt lat="37.920074103944934" lon="-2.99624153962492"><ele>868.0</ele><time>2026-04-20T18:55:46.998Z</time></trkpt><trkpt lat="37.919928726582164" lon="-2.9963215069868774"><ele>871.5999999999999</ele><time>2026-04-20T18:55:47.998Z</time></trkpt><trkpt lat="37.91980789397149" lon="-2.996395639118052"><ele>875.1999999999999</ele><time>2026-04-20T18:55:48.998Z</time></trkpt><trkpt lat="37.919696687421" lon="-2.996461298897185"><ele>878.8</ele><time>2026-04-20T18:55:49.998Z</time></trkpt><trkpt lat="37.91961000134188" lon="-2.996517626895086"><ele>882.4</ele><time>2026-04-20T18:55:50.998Z</time></trkpt><trkpt lat="37.919544095486444" lon="-2.9965851719843086"><ele>886.0</ele><time>2026-04-20T18:55:51.998Z</time></trkpt><trkpt lat="37.91948645107411" lon="-2.99666855384051"><ele>884.8</ele><time>2026-04-20T18:55:52.998Z</time></trkpt><trkpt lat="37.919444912425845" lon="-2.9967751207624103"><ele>883.5999999999999</ele><time>2026-04-20T18:55:53.998Z</time></trkpt><trkpt lat="37.91944218753122" lon="-2.996898551550745"><ele>882.4</ele><time>2026-04-20T18:55:54.998Z</time></trkpt><trkpt lat="37.919453322419855" lon="-2.9970191557842853"><ele>881.2</ele><time>2026-04-20T18:55:55.998Z</time></trkpt><trkpt lat="37.91947869530079" lon="-2.997185067536898"><ele>880.0</ele><time>2026-04-20T18:55:56.998Z</time></trkpt><trkpt lat="37.91949663607547" lon="-2.997328451164065"><ele>880.0</ele><time>2026-04-20T18:55:57.998Z</time></trkpt><trkpt lat="37.91948939098363" lon="-2.9974700162158525"><ele>880.0</ele><time>2026-04-20T18:55:58.998Z</time></trkpt><trkpt lat="37.91945581264979" lon="-2.99760415080904"><ele>880.0</ele><time>2026-04-20T18:55:59.998Z</time></trkpt><trkpt lat="37.91940258732851" lon="-2.997719713268651"><ele>880.0</ele><time>2026-04-20T18:56:00.998Z</time></trkpt><trkpt lat="37.91933149006914" lon="-2.9978173101615955"><ele>880.0</ele><time>2026-04-20T18:56:01.998Z</time></trkpt><trkpt lat="37.9192558590808" lon="-2.9979166926199725"><ele>882.75</ele><time>2026-04-20T18:56:02.998Z</time></trkpt><trkpt lat="37.91917293668565" lon="-2.998004071352318"><ele>885.5</ele><time>2026-04-20T18:56:04Z</time></trkpt><trkpt lat="37.91907437404494" lon="-2.9980584436387425"><ele>888.25</ele><time>2026-04-20T18:56:05Z</time></trkpt><trkpt lat="37.91894697436747" lon="-2.998068165206913"><ele>891.0</ele><time>2026-04-20T18:56:06Z</time></trkpt><trkpt lat="37.91880412861103" lon="-2.9980516900125664"><ele>891.0</ele><time>2026-04-20T18:56:07Z</time></trkpt><trkpt lat="37.91867960493426" lon="-2.9980330237643833"><ele>890.9999999999999</ele><time>2026-04-20T18:56:08Z</time></trkpt><trkpt lat="37.918588049582105" lon="-2.997998860633855"><ele>890.9999999999999</ele><time>2026-04-20T18:56:09Z</time></trkpt><trkpt lat="37.91851244494907" lon="-2.997963150156108"><ele>891.0</ele><time>2026-04-20T18:56:10Z</time></trkpt><trkpt lat="37.91846704219969" lon="-2.997880136548814"><ele>891.0</ele><time>2026-04-20T18:56:11Z</time></trkpt><trkpt lat="37.918349388239264" lon="-2.997873280754469"><ele>893.25</ele><time>2026-04-20T18:56:13Z</time></trkpt><trkpt lat="37.91828993681831" lon="-2.997908728964776"><ele>895.5</ele><time>2026-04-20T18:56:14Z</time></trkpt><trkpt lat="37.91820837037212" lon="-2.9979744268428345"><ele>897.75</ele><time>2026-04-20T18:56:15Z</time></trkpt><trkpt lat="37.91810573173066" lon="-2.9980946841373073"><ele>900.0</ele><time>2026-04-20T18:56:16Z</time></trkpt><trkpt lat="37.91798544770152" lon="-2.9982277098820482"><ele>893.0</ele><time>2026-04-20T18:56:17Z</time></trkpt><trkpt lat="37.91786698652082" lon="-2.9983733869181477"><ele>886.0</ele><time>2026-04-20T18:56:18Z</time></trkpt><trkpt lat="37.91774171577576" lon="-2.998510973276351"><ele>879.0</ele><time>2026-04-20T18:56:19Z</time></trkpt><trkpt lat="37.91761800141811" lon="-2.9986468475741996"><ele>882.3333333333333</ele><time>2026-04-20T18:56:20Z</time></trkpt><trkpt lat="37.91749407661835" lon="-2.9987718219879644"><ele>885.6666666666666</ele><time>2026-04-20T18:56:21Z</time></trkpt><trkpt lat="37.91737153022221" lon="-2.9988902115181078"><ele>889.0</ele><time>2026-04-20T18:56:22Z</time></trkpt><trkpt lat="37.91724962827881" lon="-2.999009233776109"><ele>889.0</ele><time>2026-04-20T18:56:23Z</time></trkpt><trkpt lat="37.917123190362155" lon="-2.9991185300702212"><ele>889.0</ele><time>2026-04-20T18:56:24Z</time></trkpt><trkpt lat="37.91699327867087" lon="-2.9992172834766437"><ele>889.0</ele><time>2026-04-20T18:56:25Z</time></trkpt><trkpt lat="37.91686056997203" lon="-2.9993112970563316"><ele>884.75</ele><time>2026-04-20T18:56:26Z</time></trkpt><trkpt lat="37.916726094662344" lon="-2.999395785669928"><ele>880.5</ele><time>2026-04-20T18:56:27Z</time></trkpt><trkpt lat="37.916590028431116" lon="-2.99946914809922"><ele>876.25</ele><time>2026-04-20T18:56:28Z</time></trkpt><trkpt lat="37.91645587975787" lon="-2.999529377384244"><ele>872.0</ele><time>2026-04-20T18:56:29Z</time></trkpt><trkpt lat="37.91632570770344" lon="-2.9995771670582734"><ele>872.0</ele><time>2026-04-20T18:56:30Z</time></trkpt><trkpt lat="37.91619972898771" lon="-2.9996253708615863"><ele>872.0</ele><time>2026-04-20T18:56:31Z</time></trkpt><trkpt lat="37.91607945987158" lon="-2.9996768137804493"><ele>872.0</ele><time>2026-04-20T18:56:32Z</time></trkpt><trkpt lat="37.915963089505595" lon="-2.999726545430576"><ele>872.0</ele><time>2026-04-20T18:56:33Z</time></trkpt><trkpt lat="37.91585878659781" lon="-2.999771623701976"><ele>871.75</ele><time>2026-04-20T18:56:34Z</time></trkpt><trkpt lat="37.91573919974297" lon="-2.999819848815205"><ele>871.5</ele><time>2026-04-20T18:56:35Z</time></trkpt><trkpt lat="37.91562471329948" lon="-2.999865040232276"><ele>871.25</ele><time>2026-04-20T18:56:36Z</time></trkpt><trkpt lat="37.91551848712255" lon="-2.999914076138758"><ele>871.0</ele><time>2026-04-20T18:56:37Z</time></trkpt><trkpt lat="37.9154161312796" lon="-2.9999577088073526"><ele>871.0</ele><time>2026-04-20T18:56:38Z</time></trkpt><trkpt lat="37.91531220380249" lon="-3.000003649332735"><ele>870.9999999999999</ele><time>2026-04-20T18:56:39Z</time></trkpt><trkpt lat="37.9152030008323" lon="-3.000049348003363"><ele>870.9999999999999</ele><time>2026-04-20T18:56:40Z</time></trkpt><trkpt lat="37.91510912303953" lon="-3.000093500386711"><ele>871.0</ele><time>2026-04-20T18:56:41Z</time></trkpt><trkpt lat="37.915026304995244" lon="-3.0001250353340114"><ele>871.0</ele><time>2026-04-20T18:56:41.999Z</time></trkpt><trkpt lat="37.91493907889204" lon="-3.0001700324637977"><ele>869.8333333333333</ele><time>2026-04-20T18:56:42.999Z</time></trkpt><trkpt lat="37.91485172831211" lon="-3.0002123098454763"><ele>868.6666666666666</ele><time>2026-04-20T18:56:43.999Z</time></trkpt><trkpt lat="37.9147739428083" lon="-3.0002478471465936"><ele>867.5</ele><time>2026-04-20T18:56:44.999Z</time></trkpt><trkpt lat="37.914703059249746" lon="-3.0002897216377025"><ele>866.3333333333333</ele><time>2026-04-20T18:56:45.999Z</time></trkpt><trkpt lat="37.914633906204514" lon="-3.0003213810514495"><ele>865.1666666666666</ele><time>2026-04-20T18:56:46.999Z</time></trkpt><trkpt lat="37.91456471944264" lon="-3.000339660859614"><ele>864.0</ele><time>2026-04-20T18:56:47.999Z</time></trkpt><trkpt lat="37.91449966795133" lon="-3.000353112400949"><ele>864.0</ele><time>2026-04-20T18:56:48.999Z</time></trkpt><trkpt lat="37.91438289420617" lon="-3.0004076040216696"><ele>864.0000000000001</ele><time>2026-04-20T18:56:50.999Z</time></trkpt><trkpt lat="37.91431657986328" lon="-3.0004292144312883"><ele>864.0000000000001</ele><time>2026-04-20T18:56:51.999Z</time></trkpt><trkpt lat="37.91420844067533" lon="-3.000423966719271"><ele>864.0</ele><time>2026-04-20T18:56:53.999Z</time></trkpt><trkpt lat="37.91413736646599" lon="-3.0004277330220743"><ele>864.0</ele><time>2026-04-20T18:56:55.999Z</time></trkpt><trkpt lat="37.91405255362214" lon="-3.0004117323941397"><ele>862.6666666666666</ele><time>2026-04-20T18:56:57.999Z</time></trkpt><trkpt lat="37.9139839710192" lon="-3.0004038371914215"><ele>861.3333333333333</ele><time>2026-04-20T18:56:58.999Z</time></trkpt><trkpt lat="37.91391271155087" lon="-3.000395634051644"><ele>860.0</ele><time>2026-04-20T18:56:59.999Z</time></trkpt><trkpt lat="37.91380845001748" lon="-3.0004144575923797"><ele>858.6666666666666</ele><time>2026-04-20T18:57:01.999Z</time></trkpt><trkpt lat="37.91374464760903" lon="-3.0004759598098567"><ele>857.3333333333333</ele><time>2026-04-20T18:57:04.999Z</time></trkpt><trkpt lat="37.913647353715376" lon="-3.0004807308365473"><ele>856.0</ele><time>2026-04-20T18:57:05.999Z</time></trkpt><trkpt lat="37.91357027394227" lon="-3.000479740827238"><ele>856.0</ele><time>2026-04-20T18:57:06.999Z</time></trkpt><trkpt lat="37.91345840983585" lon="-3.000494089620604"><ele>855.9999999999999</ele><time>2026-04-20T18:57:08.999Z</time></trkpt><trkpt lat="37.91339497501614" lon="-3.000512551434311"><ele>855.9999999999999</ele><time>2026-04-20T18:57:09.999Z</time></trkpt><trkpt lat="37.91330993663414" lon="-3.0005429188659627"><ele>856.0</ele><time>2026-04-20T18:57:11.999Z</time></trkpt><trkpt lat="37.91321283485144" lon="-3.000562259704238"><ele>856.0</ele><time>2026-04-20T18:57:13.999Z</time></trkpt><trkpt lat="37.91312874963551" lon="-3.000511011745049"><ele>854.0</ele><time>2026-04-20T18:57:16.999Z</time></trkpt><trkpt lat="37.91313783650261" lon="-3.000354972087195"><ele>851.9999999999999</ele><time>2026-04-20T18:57:18.999Z</time></trkpt><trkpt lat="37.912984094102605" lon="-3.0002862630093388"><ele>850.0</ele><time>2026-04-20T18:57:22.999Z</time></trkpt><trkpt lat="37.91289906366544" lon="-3.0002643836072105"><ele>848.0</ele><time>2026-04-20T18:57:23.999Z</time></trkpt><trkpt lat="37.912832120021356" lon="-3.0002494862437468"><ele>846.0</ele><time>2026-04-20T18:57:24.999Z</time></trkpt><trkpt lat="37.9127532631395" lon="-3.000223611722509"><ele>846.0</ele><time>2026-04-20T18:57:26.999Z</time></trkpt><trkpt lat="37.91264247965517" lon="-3.000181014610898"><ele>846.0</ele><time>2026-04-20T18:57:28.999Z</time></trkpt><trkpt lat="37.91253137726772" lon="-3.0001220098845818"><ele>846.0</ele><time>2026-04-20T18:57:30.999Z</time></trkpt><trkpt lat="37.91246917619537" lon="-3.0000888931476646"><ele>846.0</ele><time>2026-04-20T18:57:31.999Z</time></trkpt><trkpt lat="37.912412045262535" lon="-3.000055211294186"><ele>846.0</ele><time>2026-04-20T18:57:32.999Z</time></trkpt><trkpt lat="37.91229857899176" lon="-3.0000007068761474"><ele>845.3333333333334</ele><time>2026-04-20T18:57:34.999Z</time></trkpt><trkpt lat="37.91223968176344" lon="-2.999963606584306"><ele>844.6666666666667</ele><time>2026-04-20T18:57:35.999Z</time></trkpt><trkpt lat="37.91218076727266" lon="-2.9999312760574828"><ele>844.0</ele><time>2026-04-20T18:57:36.999Z</time></trkpt><trkpt lat="37.91207385428329" lon="-2.999886775040072"><ele>843.3333333333334</ele><time>2026-04-20T18:57:38.999Z</time></trkpt><trkpt lat="37.91197331709044" lon="-2.99982291720867"><ele>842.6666666666667</ele><time>2026-04-20T18:57:40.998Z</time></trkpt><trkpt lat="37.91188874492344" lon="-2.9997698376741724"><ele>842.0</ele><time>2026-04-20T18:57:42.998Z</time></trkpt><trkpt lat="37.91181571721205" lon="-2.999756510965789"><ele>841.4000000000001</ele><time>2026-04-20T18:57:45.998Z</time></trkpt><trkpt lat="37.91171461218953" lon="-2.999794586313258"><ele>840.8000000000001</ele><time>2026-04-20T18:57:47.998Z</time></trkpt><trkpt lat="37.911623211959785" lon="-2.9997973220805774"><ele>840.2</ele><time>2026-04-20T18:57:49.998Z</time></trkpt><trkpt lat="37.91156146144697" lon="-2.999815963932354"><ele>839.6</ele><time>2026-04-20T18:57:51.998Z</time></trkpt><trkpt lat="37.91149229389017" lon="-2.999827414558193"><ele>839.0</ele><time>2026-04-20T18:57:54.998Z</time></trkpt><trkpt lat="37.91138226621286" lon="-2.999706186158271"><ele>839.0</ele><time>2026-04-20T18:58:11Z</time></trkpt><trkpt lat="37.911334935601474" lon="-2.9996327771449867"><ele>839.0</ele><time>2026-04-20T18:58:13Z</time></trkpt><trkpt lat="37.911296417429355" lon="-2.9995690639236483"><ele>839.0</ele><time>2026-04-20T18:58:27Z</time></trkpt><trkpt lat="37.911228511255" lon="-2.9995386048142025"><ele>839.0</ele><time>2026-04-20T18:58:29Z</time></trkpt><trkpt lat="37.911163372702475" lon="-2.9994906516594004"><ele>839.0</ele><time>2026-04-20T18:58:31Z</time></trkpt><trkpt lat="37.91109461253474" lon="-2.9994454020194823"><ele>839.0</ele><time>2026-04-20T18:58:33Z</time></trkpt><trkpt lat="37.91101885281521" lon="-2.999406725705874"><ele>839.0</ele><time>2026-04-20T18:58:35Z</time></trkpt><trkpt lat="37.910947758250536" lon="-2.9993623521834007"><ele>839.0000000000001</ele><time>2026-04-20T18:58:37Z</time></trkpt><trkpt lat="37.910854851454566" lon="-2.999340332690356"><ele>839.0</ele><time>2026-04-20T18:58:40Z</time></trkpt><trkpt lat="37.910915351870116" lon="-2.9993748219838605"><ele>839.0</ele><time>2026-04-20T19:03:54.999Z</time></trkpt><trkpt lat="37.91103680062644" lon="-2.9993886546036523"><ele>839.0</ele><time>2026-04-20T19:11:19Z</time></trkpt><trkpt lat="37.91098582715338" lon="-2.9994413472545007"><ele>839.0000000000001</ele><time>2026-04-20T19:11:44.999Z</time></trkpt><trkpt lat="37.91105234982201" lon="-2.9994560591544928"><ele>839.0</ele><time>2026-04-20T19:12:01.999Z</time></trkpt><trkpt lat="37.910991517590794" lon="-2.999529854030428"><ele>839.0</ele><time>2026-04-20T19:14:04.999Z</time></trkpt><trkpt lat="37.91092417050405" lon="-2.999530658885429"><ele>839.0</ele><time>2026-04-20T19:14:09.999Z</time></trkpt></trkseg><trkseg><trkpt lat="37.91707573895228" lon="-3.0204312268543045"><ele>797.0000000000001</ele><time>2026-04-21T09:32:49.999Z</time></trkpt><trkpt lat="37.91713211046324" lon="-3.020476041539926"><ele>797.0</ele><time>2026-04-21T09:32:53.999Z</time></trkpt><trkpt lat="37.91720238440547" lon="-3.0205718515002316"><ele>797.0</ele><time>2026-04-21T09:32:57.999Z</time></trkpt><trkpt lat="37.91727161322175" lon="-3.020663563522427"><ele>797.0</ele><time>2026-04-21T09:32:59.999Z</time></trkpt><trkpt lat="37.91730561484541" lon="-3.0207410013834095"><ele>797.0000000000001</ele><time>2026-04-21T09:33:01.999Z</time></trkpt><trkpt lat="37.917335700144804" lon="-3.0208270129371138"><ele>797.0</ele><time>2026-04-21T09:33:04.999Z</time></trkpt><trkpt lat="37.91739048531647" lon="-3.020883317149998"><ele>797.0000000000001</ele><time>2026-04-21T09:33:07.999Z</time></trkpt><trkpt lat="37.91743251797862" lon="-3.0209573713191453"><ele>797.0</ele><time>2026-04-21T09:33:09.999Z</time></trkpt><trkpt lat="37.91747987276196" lon="-3.0210383690438127"><ele>797.0</ele><time>2026-04-21T09:33:12.999Z</time></trkpt><trkpt lat="37.917408167238854" lon="-3.021037707537614"><ele>797.0</ele><time>2026-04-21T09:33:15.999Z</time></trkpt><trkpt lat="37.91736950480686" lon="-3.0209315006568924"><ele>797.0000000000001</ele><time>2026-04-21T09:33:17.999Z</time></trkpt><trkpt lat="37.91733251212644" lon="-3.020846942160823"><ele>797.0</ele><time>2026-04-21T09:33:18.999Z</time></trkpt><trkpt lat="37.91729252207378" lon="-3.020766785215506"><ele>797.0</ele><time>2026-04-21T09:33:19.999Z</time></trkpt><trkpt lat="37.917249304141734" lon="-3.0207050519376732"><ele>797.0</ele><time>2026-04-21T09:33:20.999Z</time></trkpt><trkpt lat="37.91716174506576" lon="-3.0206198779758804"><ele>797.0</ele><time>2026-04-21T09:33:22.999Z</time></trkpt><trkpt lat="37.91706959342453" lon="-3.020494424951102"><ele>797.0</ele><time>2026-04-21T09:33:24.999Z</time></trkpt><trkpt lat="37.91701233602805" lon="-3.0204226901268316"><ele>797.0</ele><time>2026-04-21T09:33:25.999Z</time></trkpt><trkpt lat="37.9169549204808" lon="-3.020355267380172"><ele>797.0</ele><time>2026-04-21T09:33:26.999Z</time></trkpt><trkpt lat="37.91689508778439" lon="-3.0202919614558397"><ele>797.0</ele><time>2026-04-21T09:33:27.999Z</time></trkpt><trkpt lat="37.91683292167397" lon="-3.020230282538118"><ele>797.0</ele><time>2026-04-21T09:33:28.999Z</time></trkpt><trkpt lat="37.91678028459333" lon="-3.0201780577470694"><ele>797.0</ele><time>2026-04-21T09:33:29.999Z</time></trkpt><trkpt lat="37.9166917252957" lon="-3.0200890140391445"><ele>797.0</ele><time>2026-04-21T09:33:31.999Z</time></trkpt><trkpt lat="37.916600752408925" lon="-3.0199950887006644"><ele>795.3333333333334</ele><time>2026-04-21T09:33:33.999Z</time></trkpt><trkpt lat="37.916558725047324" lon="-3.019927631520018"><ele>793.6666666666667</ele><time>2026-04-21T09:33:34.999Z</time></trkpt><trkpt lat="37.91650261205855" lon="-3.019883782504025"><ele>792.0</ele><time>2026-04-21T09:33:35.999Z</time></trkpt><trkpt lat="37.916432169075684" lon="-3.0198172056501305"><ele>790.3333333333333</ele><time>2026-04-21T09:33:36.999Z</time></trkpt><trkpt lat="37.916350339625616" lon="-3.0197260778424155"><ele>788.6666666666666</ele><time>2026-04-21T09:33:37.999Z</time></trkpt><trkpt lat="37.91626226472532" lon="-3.0196301204953513"><ele>787.0</ele><time>2026-04-21T09:33:38.999Z</time></trkpt><trkpt lat="37.91617377972685" lon="-3.0195326899433104"><ele>787.0</ele><time>2026-04-21T09:33:39.999Z</time></trkpt><trkpt lat="37.916089652476344" lon="-3.0194312746732983"><ele>787.0</ele><time>2026-04-21T09:33:40.999Z</time></trkpt><trkpt lat="37.916013584066235" lon="-3.019324316076852"><ele>787.0</ele><time>2026-04-21T09:33:41.999Z</time></trkpt><trkpt lat="37.91593545182928" lon="-3.019214907373966"><ele>787.0</ele><time>2026-04-21T09:33:42.999Z</time></trkpt><trkpt lat="37.915869953266736" lon="-3.0191040306077626"><ele>786.4999999999999</ele><time>2026-04-21T09:33:43.999Z</time></trkpt><trkpt lat="37.91580191832248" lon="-3.0190190042328964"><ele>786.0</ele><time>2026-04-21T09:33:44.999Z</time></trkpt><trkpt lat="37.9157378829426" lon="-3.018931561450648"><ele>785.5</ele><time>2026-04-21T09:33:45.999Z</time></trkpt><trkpt lat="37.915685257218016" lon="-3.018845187000055"><ele>785.0</ele><time>2026-04-21T09:33:46.999Z</time></trkpt><trkpt lat="37.91562984125187" lon="-3.018765680533751"><ele>784.4999999999999</ele><time>2026-04-21T09:33:47.999Z</time></trkpt><trkpt lat="37.91557293891809" lon="-3.0186944408745298"><ele>784.0</ele><time>2026-04-21T09:33:48.999Z</time></trkpt><trkpt lat="37.91551237349294" lon="-3.0186419994349167"><ele>784.0</ele><time>2026-04-21T09:33:49.999Z</time></trkpt><trkpt lat="37.91546120273648" lon="-3.0185837802045046"><ele>784.0</ele><time>2026-04-21T09:33:50.998Z</time></trkpt><trkpt lat="37.915377371539584" lon="-3.0186141902403096"><ele>784.0</ele><time>2026-04-21T09:33:51.998Z</time></trkpt><trkpt lat="37.91522872993688" lon="-3.0186300990223462"><ele>784.0</ele><time>2026-04-21T09:33:53.998Z</time></trkpt><trkpt lat="37.91527791338529" lon="-3.0185616845952876"><ele>784.0</ele><time>2026-04-21T09:33:54.998Z</time></trkpt><trkpt lat="37.91526919249518" lon="-3.018467034121708"><ele>784.0</ele><time>2026-04-21T09:33:57.998Z</time></trkpt><trkpt lat="37.91535196053213" lon="-3.018359054382502"><ele>784.0</ele><time>2026-04-21T09:33:59.998Z</time></trkpt><trkpt lat="37.915368813112465" lon="-3.018211777963286"><ele>784.0</ele><time>2026-04-21T09:34:01.998Z</time></trkpt><trkpt lat="37.915317832824734" lon="-3.018123842367452"><ele>784.0</ele><time>2026-04-21T09:34:02.998Z</time></trkpt><trkpt lat="37.91528270288319" lon="-3.0180207024571746"><ele>784.0</ele><time>2026-04-21T09:34:03.998Z</time></trkpt><trkpt lat="37.915224654934605" lon="-3.017924657601951"><ele>781.75</ele><time>2026-04-21T09:34:04.998Z</time></trkpt><trkpt lat="37.91519415543823" lon="-3.017779648889035"><ele>779.5</ele><time>2026-04-21T09:34:05.998Z</time></trkpt><trkpt lat="37.91517298917538" lon="-3.017644240789357"><ele>777.25</ele><time>2026-04-21T09:34:06.998Z</time></trkpt><trkpt lat="37.91514796769854" lon="-3.0175036568117726"><ele>775.0</ele><time>2026-04-21T09:34:07.998Z</time></trkpt><trkpt lat="37.91511825283745" lon="-3.0173583959623818"><ele>773.6</ele><time>2026-04-21T09:34:08.998Z</time></trkpt><trkpt lat="37.91509016031671" lon="-3.0172148977246347"><ele>772.2</ele><time>2026-04-21T09:34:09.998Z</time></trkpt><trkpt lat="37.91509540540367" lon="-3.0170704056486"><ele>770.8</ele><time>2026-04-21T09:34:10.998Z</time></trkpt><trkpt lat="37.915115576732404" lon="-3.016931819808094"><ele>769.4</ele><time>2026-04-21T09:34:11.998Z</time></trkpt><trkpt lat="37.915134905285974" lon="-3.016806702487842"><ele>768.0</ele><time>2026-04-21T09:34:12.998Z</time></trkpt><trkpt lat="37.91515081888196" lon="-3.016677867164744"><ele>766.0</ele><time>2026-04-21T09:34:13.998Z</time></trkpt><trkpt lat="37.91516522205685" lon="-3.016554009234639"><ele>764.0</ele><time>2026-04-21T09:34:14.999Z</time></trkpt><trkpt lat="37.91516784841184" lon="-3.0164291519198048"><ele>762.0</ele><time>2026-04-21T09:34:15.999Z</time></trkpt><trkpt lat="37.91516211423805" lon="-3.016307258111282"><ele>760.0</ele><time>2026-04-21T09:34:16.999Z</time></trkpt><trkpt lat="37.91513891847232" lon="-3.0161900718012213"><ele>758.0</ele><time>2026-04-21T09:34:17.999Z</time></trkpt><trkpt lat="37.9150886656419" lon="-3.0160739232375753"><ele>758.5999999999999</ele><time>2026-04-21T09:34:18.999Z</time></trkpt><trkpt lat="37.91501047555868" lon="-3.0159671598134214"><ele>759.1999999999999</ele><time>2026-04-21T09:34:19.999Z</time></trkpt><trkpt lat="37.914914063081895" lon="-3.015880685106134"><ele>759.8</ele><time>2026-04-21T09:34:20.999Z</time></trkpt><trkpt lat="37.91481058913744" lon="-3.0158168267147243"><ele>760.4</ele><time>2026-04-21T09:34:21.999Z</time></trkpt><trkpt lat="37.914728879076094" lon="-3.0157469700699515"><ele>761.0</ele><time>2026-04-21T09:34:22.999Z</time></trkpt><trkpt lat="37.91467014297441" lon="-3.0156564104017285"><ele>761.0</ele><time>2026-04-21T09:34:23.999Z</time></trkpt><trkpt lat="37.91463435950996" lon="-3.0155500863092954"><ele>761.0</ele><time>2026-04-21T09:34:24.999Z</time></trkpt><trkpt lat="37.91462813137377" lon="-3.0154325998051594"><ele>761.0</ele><time>2026-04-21T09:34:25.999Z</time></trkpt><trkpt lat="37.91464613015647" lon="-3.015319242144155"><ele>761.0</ele><time>2026-04-21T09:34:26.999Z</time></trkpt><trkpt lat="37.91466021822975" lon="-3.015213843662009"><ele>761.0</ele><time>2026-04-21T09:34:27.999Z</time></trkpt><trkpt lat="37.91463652382074" lon="-3.015131606989814"><ele>761.0</ele><time>2026-04-21T09:34:28.999Z</time></trkpt><trkpt lat="37.91458002108697" lon="-3.015056485912241"><ele>761.0</ele><time>2026-04-21T09:34:29.999Z</time></trkpt><trkpt lat="37.91450179831607" lon="-3.014989293663229"><ele>761.0</ele><time>2026-04-21T09:34:30.999Z</time></trkpt><trkpt lat="37.914429784784616" lon="-3.014883992515144"><ele>761.0</ele><time>2026-04-21T09:34:31.999Z</time></trkpt><trkpt lat="37.914288382228726" lon="-3.0148537950720415"><ele>761.0</ele><time>2026-04-21T09:34:32.999Z</time></trkpt><trkpt lat="37.91416004234061" lon="-3.014787035634226"><ele>762.3333333333333</ele><time>2026-04-21T09:34:33.999Z</time></trkpt><trkpt lat="37.91402596687264" lon="-3.0146983961257594"><ele>763.6666666666666</ele><time>2026-04-21T09:34:34.999Z</time></trkpt><trkpt lat="37.913894862624026" lon="-3.014579495002266"><ele>765.0</ele><time>2026-04-21T09:34:35.999Z</time></trkpt><trkpt lat="37.91377877739888" lon="-3.0144359242656464"><ele>765.0</ele><time>2026-04-21T09:34:36.999Z</time></trkpt><trkpt lat="37.913691268211586" lon="-3.014303841715935"><ele>765.0</ele><time>2026-04-21T09:34:37.999Z</time></trkpt><trkpt lat="37.91360163199646" lon="-3.0141995039726392"><ele>765.0</ele><time>2026-04-21T09:34:38.999Z</time></trkpt><trkpt lat="37.91349242679487" lon="-3.014129803973292"><ele>765.0</ele><time>2026-04-21T09:34:39.999Z</time></trkpt><trkpt lat="37.913359538841156" lon="-3.014068377113017"><ele>765.0</ele><time>2026-04-21T09:34:40.999Z</time></trkpt><trkpt lat="37.91320829812385" lon="-3.0140237733513113"><ele>765.0</ele><time>2026-04-21T09:34:41.999Z</time></trkpt><trkpt lat="37.9130535373119" lon="-3.014033249442093"><ele>765.0</ele><time>2026-04-21T09:34:42.999Z</time></trkpt><trkpt lat="37.912897180531715" lon="-3.0140607399528556"><ele>765.0</ele><time>2026-04-21T09:34:43.999Z</time></trkpt><trkpt lat="37.91273550855674" lon="-3.014125695433847"><ele>765.0</ele><time>2026-04-21T09:34:44.999Z</time></trkpt><trkpt lat="37.91255621057119" lon="-3.014208958705821"><ele>765.0</ele><time>2026-04-21T09:34:45.999Z</time></trkpt><trkpt lat="37.91236989642258" lon="-3.0142947729071934"><ele>771.3333333333333</ele><time>2026-04-21T09:34:46.999Z</time></trkpt><trkpt lat="37.912191421077736" lon="-3.014376976594534"><ele>777.6666666666666</ele><time>2026-04-21T09:34:47.999Z</time></trkpt><trkpt lat="37.91200571065631" lon="-3.0144423847424657"><ele>784.0</ele><time>2026-04-21T09:34:48.999Z</time></trkpt><trkpt lat="37.91183059891896" lon="-3.014522574460481"><ele>784.0</ele><time>2026-04-21T09:34:49.999Z</time></trkpt><trkpt lat="37.91167412394839" lon="-3.0145803317971622"><ele>784.0</ele><time>2026-04-21T09:34:50.999Z</time></trkpt><trkpt lat="37.91154353734172" lon="-3.0146586319527775"><ele>784.0</ele><time>2026-04-21T09:34:51.999Z</time></trkpt><trkpt lat="37.911423805978664" lon="-3.014726933281901"><ele>784.0</ele><time>2026-04-21T09:34:52.999Z</time></trkpt><trkpt lat="37.91130635270371" lon="-3.014805098319317"><ele>784.0</ele><time>2026-04-21T09:34:53.999Z</time></trkpt><trkpt lat="37.91119276746992" lon="-3.0148937557335995"><ele>784.0</ele><time>2026-04-21T09:34:54.999Z</time></trkpt><trkpt lat="37.91107693934386" lon="-3.0149839781555814"><ele>784.0</ele><time>2026-04-21T09:34:55.999Z</time></trkpt><trkpt lat="37.9109637576524" lon="-3.015070588050274"><ele>784.0</ele><time>2026-04-21T09:34:56.999Z</time></trkpt><trkpt lat="37.91084859343325" lon="-3.015157557490974"><ele>787.75</ele><time>2026-04-21T09:34:57.999Z</time></trkpt><trkpt lat="37.91073137705172" lon="-3.015234392630513"><ele>791.5</ele><time>2026-04-21T09:34:58.999Z</time></trkpt><trkpt lat="37.910608065896646" lon="-3.0152858096017505"><ele>795.25</ele><time>2026-04-21T09:34:59.999Z</time></trkpt><trkpt lat="37.91046863055443" lon="-3.0152980996985934"><ele>799.0</ele><time>2026-04-21T09:35:00.999Z</time></trkpt><trkpt lat="37.910321686089034" lon="-3.015329691195504"><ele>799.0</ele><time>2026-04-21T09:35:01.999Z</time></trkpt><trkpt lat="37.91017709585322" lon="-3.015357121974707"><ele>799.0</ele><time>2026-04-21T09:35:02.999Z</time></trkpt><trkpt lat="37.91002614966785" lon="-3.0154077341399437"><ele>799.0</ele><time>2026-04-21T09:35:03.999Z</time></trkpt><trkpt lat="37.90987307976505" lon="-3.015457159983145"><ele>799.0</ele><time>2026-04-21T09:35:04.999Z</time></trkpt><trkpt lat="37.90972907613574" lon="-3.015518058087357"><ele>799.0</ele><time>2026-04-21T09:35:05.999Z</time></trkpt><trkpt lat="37.9095768289464" lon="-3.0156036603943663"><ele>799.0</ele><time>2026-04-21T09:35:06.999Z</time></trkpt><trkpt lat="37.9094048463615" lon="-3.0157159846563553"><ele>804.0</ele><time>2026-04-21T09:35:07.999Z</time></trkpt><trkpt lat="37.90921315789236" lon="-3.015820801646765"><ele>809.0</ele><time>2026-04-21T09:35:08.999Z</time></trkpt><trkpt lat="37.90902352798537" lon="-3.015927835211779"><ele>814.0</ele><time>2026-04-21T09:35:09.999Z</time></trkpt><trkpt lat="37.908818976722515" lon="-3.0160281893499383"><ele>814.0</ele><time>2026-04-21T09:35:10.999Z</time></trkpt><trkpt lat="37.90863214206586" lon="-3.0161167215998455"><ele>814.0</ele><time>2026-04-21T09:35:11.999Z</time></trkpt><trkpt lat="37.90847663580348" lon="-3.016190408735259"><ele>814.0</ele><time>2026-04-21T09:35:12.999Z</time></trkpt><trkpt lat="37.90833022027596" lon="-3.01624090066153"><ele>813.6666666666666</ele><time>2026-04-21T09:35:13.999Z</time></trkpt><trkpt lat="37.90819031406205" lon="-3.0163174935453694"><ele>813.3333333333333</ele><time>2026-04-21T09:35:14.999Z</time></trkpt><trkpt lat="37.908045049968166" lon="-3.0164096182439026"><ele>813.0</ele><time>2026-04-21T09:35:15.999Z</time></trkpt><trkpt lat="37.90789276767643" lon="-3.0165155070386427"><ele>813.0</ele><time>2026-04-21T09:35:16.999Z</time></trkpt><trkpt lat="37.90774587107262" lon="-3.0166222358096797"><ele>813.0</ele><time>2026-04-21T09:35:17.999Z</time></trkpt><trkpt lat="37.90761572170501" lon="-3.016720106597302"><ele>813.0</ele><time>2026-04-21T09:35:18.999Z</time></trkpt><trkpt lat="37.907519554168765" lon="-3.0167896703994117"><ele>813.0</ele><time>2026-04-21T09:35:19.999Z</time></trkpt><trkpt lat="37.90745723246759" lon="-3.016831515964939"><ele>814.2</ele><time>2026-04-21T09:35:20.999Z</time></trkpt><trkpt lat="37.90732705409042" lon="-3.0166570205015097"><ele>815.4</ele><time>2026-04-21T09:35:24.999Z</time></trkpt><trkpt lat="37.907276330854636" lon="-3.0165638793305116"><ele>816.6</ele><time>2026-04-21T09:35:26.999Z</time></trkpt><trkpt lat="37.907237421003735" lon="-3.0164985356817167"><ele>817.8000000000001</ele><time>2026-04-21T09:35:27.999Z</time></trkpt><trkpt lat="37.90719412106424" lon="-3.0164256110745646"><ele>819.0</ele><time>2026-04-21T09:35:28.999Z</time></trkpt><trkpt lat="37.90715182621802" lon="-3.0163477895522295"><ele>819.0</ele><time>2026-04-21T09:35:29.999Z</time></trkpt><trkpt lat="37.907100856338424" lon="-3.01622543681604"><ele>819.0</ele><time>2026-04-21T09:35:31.999Z</time></trkpt><trkpt lat="37.90703445008975" lon="-3.0161341279154303"><ele>819.0</ele><time>2026-04-21T09:35:33.999Z</time></trkpt><trkpt lat="37.90693714919564" lon="-3.0160493827887405"><ele>819.0</ele><time>2026-04-21T09:35:35.999Z</time></trkpt><trkpt lat="37.90686441576592" lon="-3.016010874717497"><ele>819.0</ele><time>2026-04-21T09:35:36.999Z</time></trkpt><trkpt lat="37.906799567865235" lon="-3.0159408909135856"><ele>820.6666666666666</ele><time>2026-04-21T09:35:37.999Z</time></trkpt><trkpt lat="37.90671650047697" lon="-3.0159110179899025"><ele>822.3333333333333</ele><time>2026-04-21T09:35:38.999Z</time></trkpt><trkpt lat="37.90664242549534" lon="-3.0158766421671013"><ele>824.0</ele><time>2026-04-21T09:35:39.999Z</time></trkpt><trkpt lat="37.90656217288373" lon="-3.015851193650641"><ele>825.6666666666666</ele><time>2026-04-21T09:35:40.999Z</time></trkpt><trkpt lat="37.90648433777673" lon="-3.015832835945043"><ele>827.3333333333333</ele><time>2026-04-21T09:35:41.999Z</time></trkpt><trkpt lat="37.90639889950883" lon="-3.0158181715856918"><ele>829.0</ele><time>2026-04-21T09:35:42.999Z</time></trkpt><trkpt lat="37.90631394627472" lon="-3.015794552276415"><ele>826.0</ele><time>2026-04-21T09:35:43.999Z</time></trkpt><trkpt lat="37.906220156745675" lon="-3.01578315773457"><ele>823.0</ele><time>2026-04-21T09:35:44.999Z</time></trkpt><trkpt lat="37.90611903327891" lon="-3.015785391432286"><ele>820.0</ele><time>2026-04-21T09:35:45.999Z</time></trkpt><trkpt lat="37.906021615114426" lon="-3.0157843938399007"><ele>817.0</ele><time>2026-04-21T09:35:46.999Z</time></trkpt><trkpt lat="37.90593327972545" lon="-3.015778872171957"><ele>814.0</ele><time>2026-04-21T09:35:47.999Z</time></trkpt><trkpt lat="37.905847100789906" lon="-3.0157678630053497"><ele>814.0</ele><time>2026-04-21T09:35:48.999Z</time></trkpt><trkpt lat="37.90577636627169" lon="-3.015713716743733"><ele>814.0</ele><time>2026-04-21T09:35:49.999Z</time></trkpt><trkpt lat="37.90571903671451" lon="-3.015626176357046"><ele>814.0</ele><time>2026-04-21T09:35:50.999Z</time></trkpt><trkpt lat="37.9056731272978" lon="-3.0154996342313947"><ele>814.0</ele><time>2026-04-21T09:35:51.999Z</time></trkpt><trkpt lat="37.90563279249712" lon="-3.015379535296413"><ele>814.0</ele><time>2026-04-21T09:35:52.999Z</time></trkpt><trkpt lat="37.90557010653969" lon="-3.0152580193610494"><ele>814.0</ele><time>2026-04-21T09:35:53.999Z</time></trkpt><trkpt lat="37.90551235062472" lon="-3.0151365692712067"><ele>814.0</ele><time>2026-04-21T09:35:54.999Z</time></trkpt><trkpt lat="37.905471122615936" lon="-3.01501199121885"><ele>814.0</ele><time>2026-04-21T09:35:55.999Z</time></trkpt><trkpt lat="37.90544023555886" lon="-3.014888006800653"><ele>814.0</ele><time>2026-04-21T09:35:56.996Z</time></trkpt><trkpt lat="37.90542242072146" lon="-3.01476448950112"><ele>814.0</ele><time>2026-04-21T09:35:57.996Z</time></trkpt><trkpt lat="37.90540824029899" lon="-3.014643739442038"><ele>812.8000000000001</ele><time>2026-04-21T09:35:58.996Z</time></trkpt><trkpt lat="37.905395832489845" lon="-3.0145133296181377"><ele>811.6</ele><time>2026-04-21T09:35:59.996Z</time></trkpt><trkpt lat="37.905358471385654" lon="-3.0143905754543017"><ele>810.4</ele><time>2026-04-21T09:36:00.996Z</time></trkpt><trkpt lat="37.90529034188182" lon="-3.014301517999636"><ele>809.2</ele><time>2026-04-21T09:36:01.996Z</time></trkpt><trkpt lat="37.90524681025324" lon="-3.01420781412599"><ele>808.0</ele><time>2026-04-21T09:36:02.996Z</time></trkpt><trkpt lat="37.90520104562358" lon="-3.014132742227721"><ele>808.0</ele><time>2026-04-21T09:36:03.996Z</time></trkpt><trkpt lat="37.90517625178742" lon="-3.0140548594723864"><ele>808.0</ele><time>2026-04-21T09:36:04.996Z</time></trkpt><trkpt lat="37.90516919587847" lon="-3.013909220799241"><ele>808.0</ele><time>2026-04-21T09:36:06.996Z</time></trkpt><trkpt lat="37.90515758184952" lon="-3.013819822300563"><ele>808.0</ele><time>2026-04-21T09:36:09.997Z</time></trkpt><trkpt lat="37.90506722377233" lon="-3.013874644160898"><ele>808.0</ele><time>2026-04-21T09:36:13.997Z</time></trkpt><trkpt lat="37.90499884288168" lon="-3.0140059078705894"><ele>810.2</ele><time>2026-04-21T09:36:15.997Z</time></trkpt><trkpt lat="37.90497603917262" lon="-3.0140965565453643"><ele>812.4</ele><time>2026-04-21T09:36:16.997Z</time></trkpt><trkpt lat="37.90495924594586" lon="-3.01421208223367"><ele>814.6</ele><time>2026-04-21T09:36:17.997Z</time></trkpt><trkpt lat="37.90493954283775" lon="-3.0143324255076975"><ele>816.8000000000001</ele><time>2026-04-21T09:36:18.998Z</time></trkpt><trkpt lat="37.904901179545405" lon="-3.0144664248390076"><ele>819.0</ele><time>2026-04-21T09:36:19.998Z</time></trkpt><trkpt lat="37.90487585756934" lon="-3.0146106191436375"><ele>819.0</ele><time>2026-04-21T09:36:20.998Z</time></trkpt><trkpt lat="37.90483852833669" lon="-3.01473569291846"><ele>819.0</ele><time>2026-04-21T09:36:21.998Z</time></trkpt><trkpt lat="37.904807732810774" lon="-3.014851263335417"><ele>819.0</ele><time>2026-04-21T09:36:22.998Z</time></trkpt><trkpt lat="37.90476036489978" lon="-3.0149503954461743"><ele>819.0</ele><time>2026-04-21T09:36:23.998Z</time></trkpt><trkpt lat="37.90469881628701" lon="-3.0150338634062868"><ele>819.0</ele><time>2026-04-21T09:36:24.998Z</time></trkpt><trkpt lat="37.90463376528749" lon="-3.0150980424102642"><ele>820.8333333333334</ele><time>2026-04-21T09:36:25.998Z</time></trkpt><trkpt lat="37.904554809597585" lon="-3.0151368367918443"><ele>822.6666666666667</ele><time>2026-04-21T09:36:26.998Z</time></trkpt><trkpt lat="37.90448125109573" lon="-3.015171360777779"><ele>824.5</ele><time>2026-04-21T09:36:27.998Z</time></trkpt><trkpt lat="37.90444716658018" lon="-3.0152604762582995"><ele>826.3333333333334</ele><time>2026-04-21T09:36:29.998Z</time></trkpt><trkpt lat="37.904491545757196" lon="-3.015337379815845"><ele>828.1666666666667</ele><time>2026-04-21T09:36:30.998Z</time></trkpt><trkpt lat="37.904455561842866" lon="-3.0154916578795006"><ele>830.0</ele><time>2026-04-21T09:36:32.998Z</time></trkpt><trkpt lat="37.90441118313553" lon="-3.015563452628294"><ele>830.0000000000001</ele><time>2026-04-21T09:36:33.998Z</time></trkpt><trkpt lat="37.90438486352685" lon="-3.0156445887946304"><ele>830.0</ele><time>2026-04-21T09:36:34.998Z</time></trkpt><trkpt lat="37.90433797499231" lon="-3.015720457470214"><ele>830.0</ele><time>2026-04-21T09:36:35.998Z</time></trkpt><trkpt lat="37.90429078450438" lon="-3.0158058890355286"><ele>830.0</ele><time>2026-04-21T09:36:36.998Z</time></trkpt><trkpt lat="37.90423781847052" lon="-3.0158903360102967"><ele>830.0000000000001</ele><time>2026-04-21T09:36:37.998Z</time></trkpt><trkpt lat="37.904180148870196" lon="-3.0159724455484844"><ele>830.0</ele><time>2026-04-21T09:36:38.998Z</time></trkpt><trkpt lat="37.9041608260045" lon="-3.016081863101337"><ele>834.8333333333334</ele><time>2026-04-21T09:36:39.998Z</time></trkpt><trkpt lat="37.904115106168724" lon="-3.0161847864138807"><ele>839.6666666666667</ele><time>2026-04-21T09:36:40.998Z</time></trkpt><trkpt lat="37.90409198285406" lon="-3.0162905033778507"><ele>844.5</ele><time>2026-04-21T09:36:41.998Z</time></trkpt><trkpt lat="37.90406222188401" lon="-3.0163932823008075"><ele>849.3333333333333</ele><time>2026-04-21T09:36:42.999Z</time></trkpt><trkpt lat="37.90403950516717" lon="-3.01649618654461"><ele>854.1666666666666</ele><time>2026-04-21T09:36:43.999Z</time></trkpt><trkpt lat="37.90402010895827" lon="-3.0166022423591827"><ele>859.0</ele><time>2026-04-21T09:36:44.999Z</time></trkpt><trkpt lat="37.904010437629836" lon="-3.0167008405957927"><ele>860.8333333333333</ele><time>2026-04-21T09:36:45.999Z</time></trkpt><trkpt lat="37.90399683583941" lon="-3.0167976246894814"><ele>862.6666666666666</ele><time>2026-04-21T09:36:46.999Z</time></trkpt><trkpt lat="37.90399386193611" lon="-3.0168961607739413"><ele>864.5</ele><time>2026-04-21T09:36:47.999Z</time></trkpt><trkpt lat="37.90400659638234" lon="-3.0169988831059817"><ele>866.3333333333333</ele><time>2026-04-21T09:36:48.999Z</time></trkpt><trkpt lat="37.90405050649786" lon="-3.0170864231920955"><ele>868.1666666666666</ele><time>2026-04-21T09:36:49.999Z</time></trkpt><trkpt lat="37.90410972492503" lon="-3.0171521695910615"><ele>870.0</ele><time>2026-04-21T09:36:50.999Z</time></trkpt><trkpt lat="37.904165150295384" lon="-3.017214796667769"><ele>870.0</ele><time>2026-04-21T09:36:51.999Z</time></trkpt><trkpt lat="37.90419626201119" lon="-3.0172905378494614"><ele>870.0</ele><time>2026-04-21T09:36:52.999Z</time></trkpt><trkpt lat="37.90421375745153" lon="-3.0174093249828955"><ele>870.0</ele><time>2026-04-21T09:36:54.999Z</time></trkpt><trkpt lat="37.904100800856284" lon="-3.017479413982451"><ele>870.0</ele><time>2026-04-21T09:36:56.999Z</time></trkpt><trkpt lat="37.90401244018685" lon="-3.017555615208999"><ele>870.0</ele><time>2026-04-21T09:36:58.999Z</time></trkpt><trkpt lat="37.903903925179435" lon="-3.0176224724396485"><ele>871.8571428571429</ele><time>2026-04-21T09:37:00.999Z</time></trkpt><trkpt lat="37.903849336258375" lon="-3.0176653579081765"><ele>873.7142857142858</ele><time>2026-04-21T09:37:01.999Z</time></trkpt><trkpt lat="37.903800375525" lon="-3.0177201722105904"><ele>875.5714285714287</ele><time>2026-04-21T09:37:02.999Z</time></trkpt><trkpt lat="37.903761248147696" lon="-3.0177959395909606"><ele>877.4285714285714</ele><time>2026-04-21T09:37:03.999Z</time></trkpt><trkpt lat="37.90372336512108" lon="-3.0178802619575973"><ele>879.2857142857142</ele><time>2026-04-21T09:37:04.999Z</time></trkpt><trkpt lat="37.903683151827295" lon="-3.017975600148628"><ele>881.1428571428572</ele><time>2026-04-21T09:37:05.999Z</time></trkpt><trkpt lat="37.90364556152207" lon="-3.0180733542966065"><ele>883.0</ele><time>2026-04-21T09:37:06.999Z</time></trkpt><trkpt lat="37.9036044325468" lon="-3.018159924102199"><ele>882.9999999999999</ele><time>2026-04-21T09:37:07.999Z</time></trkpt><trkpt lat="37.90357447050027" lon="-3.018270094937048"><ele>883.0</ele><time>2026-04-21T09:37:08.999Z</time></trkpt><trkpt lat="37.90352807598878" lon="-3.0183652495595217"><ele>883.0</ele><time>2026-04-21T09:37:09.999Z</time></trkpt><trkpt lat="37.903498156999476" lon="-3.0184628120878383"><ele>883.0</ele><time>2026-04-21T09:37:10.999Z</time></trkpt><trkpt lat="37.903470515920205" lon="-3.018543816403748"><ele>882.9999999999999</ele><time>2026-04-21T09:37:11.999Z</time></trkpt><trkpt lat="37.90344299488969" lon="-3.0186244611466475"><ele>883.0</ele><time>2026-04-21T09:37:12.999Z</time></trkpt><trkpt lat="37.90339788811023" lon="-3.0186874741485537"><ele>886.1666666666666</ele><time>2026-04-21T09:37:13.999Z</time></trkpt><trkpt lat="37.90334786091016" lon="-3.018757380129331"><ele>889.3333333333333</ele><time>2026-04-21T09:37:14.999Z</time></trkpt><trkpt lat="37.90330798687692" lon="-3.018843152687443"><ele>892.5</ele><time>2026-04-21T09:37:15.999Z</time></trkpt><trkpt lat="37.90325726724298" lon="-3.0189282457951276"><ele>895.6666666666667</ele><time>2026-04-21T09:37:16.999Z</time></trkpt><trkpt lat="37.90319617201734" lon="-3.0190069196158267"><ele>898.8333333333334</ele><time>2026-04-21T09:37:17.999Z</time></trkpt><trkpt lat="37.903155083487185" lon="-3.019099981687249"><ele>902.0</ele><time>2026-04-21T09:37:18.999Z</time></trkpt><trkpt lat="37.90310840798463" lon="-3.0191935289822505"><ele>902.2</ele><time>2026-04-21T09:37:19.999Z</time></trkpt><trkpt lat="37.903053443952814" lon="-3.019276200208581"><ele>902.4000000000001</ele><time>2026-04-21T09:37:20.999Z</time></trkpt><trkpt lat="37.90299478566289" lon="-3.019367436399379"><ele>902.5999999999999</ele><time>2026-04-21T09:37:21.999Z</time></trkpt><trkpt lat="37.90291538555186" lon="-3.0194367240302005"><ele>902.8</ele><time>2026-04-21T09:37:22.999Z</time></trkpt><trkpt lat="37.90282753958228" lon="-3.019505937859397"><ele>903.0</ele><time>2026-04-21T09:37:23.999Z</time></trkpt><trkpt lat="37.90273968769186" lon="-3.019567821466065"><ele>903.0</ele><time>2026-04-21T09:37:24.999Z</time></trkpt><trkpt lat="37.90264839039946" lon="-3.019620123625741"><ele>903.0</ele><time>2026-04-21T09:37:25.999Z</time></trkpt><trkpt lat="37.90254896910896" lon="-3.019661190060942"><ele>903.0</ele><time>2026-04-21T09:37:26.999Z</time></trkpt><trkpt lat="37.90245003272706" lon="-3.019707995516951"><ele>903.0</ele><time>2026-04-21T09:37:27.999Z</time></trkpt><trkpt lat="37.90234764765745" lon="-3.019772126351353"><ele>903.0</ele><time>2026-04-21T09:37:28.999Z</time></trkpt><trkpt lat="37.902265735768275" lon="-3.0198488695472987"><ele>904.8</ele><time>2026-04-21T09:37:29.999Z</time></trkpt><trkpt lat="37.90219201614107" lon="-3.0199198455931495"><ele>906.5999999999999</ele><time>2026-04-21T09:37:30.999Z</time></trkpt><trkpt lat="37.90210575011829" lon="-3.020000661820818"><ele>908.4000000000001</ele><time>2026-04-21T09:37:31.999Z</time></trkpt><trkpt lat="37.902015838772456" lon="-3.020086782745604"><ele>910.2</ele><time>2026-04-21T09:37:32.999Z</time></trkpt><trkpt lat="37.901935467889246" lon="-3.0201684580700716"><ele>912.0</ele><time>2026-04-21T09:37:33.999Z</time></trkpt><trkpt lat="37.90186297803218" lon="-3.0202553293452366"><ele>912.0</ele><time>2026-04-21T09:37:34.999Z</time></trkpt><trkpt lat="37.90179107881506" lon="-3.0203431231205906"><ele>912.0</ele><time>2026-04-21T09:37:35.999Z</time></trkpt><trkpt lat="37.90171365776952" lon="-3.0204273891569837"><ele>912.0</ele><time>2026-04-21T09:37:36.999Z</time></trkpt><trkpt lat="37.901641086975495" lon="-3.020506980184216"><ele>912.0</ele><time>2026-04-21T09:37:37.999Z</time></trkpt><trkpt lat="37.901562830635335" lon="-3.0205967471767106"><ele>912.0</ele><time>2026-04-21T09:37:38.999Z</time></trkpt><trkpt lat="37.901462956846665" lon="-3.020685492522995"><ele>913.4000000000001</ele><time>2026-04-21T09:37:39.999Z</time></trkpt><trkpt lat="37.901369813572686" lon="-3.020768470834974"><ele>914.8000000000001</ele><time>2026-04-21T09:37:40.999Z</time></trkpt><trkpt lat="37.901282581440974" lon="-3.020844567615893"><ele>916.2</ele><time>2026-04-21T09:37:41.999Z</time></trkpt><trkpt lat="37.901199087338576" lon="-3.02092049134447"><ele>917.6</ele><time>2026-04-21T09:37:42.999Z</time></trkpt><trkpt lat="37.90111298408516" lon="-3.0209991633793605"><ele>919.0</ele><time>2026-04-21T09:37:43.999Z</time></trkpt><trkpt lat="37.90103669834585" lon="-3.0210713039538435"><ele>919.0</ele><time>2026-04-21T09:37:44.999Z</time></trkpt><trkpt lat="37.900975372264604" lon="-3.0211130512851874"><ele>918.9999999999999</ele><time>2026-04-21T09:37:45.999Z</time></trkpt><trkpt lat="37.90092011275307" lon="-3.0211603669349487"><ele>919.0</ele><time>2026-04-21T09:37:46.999Z</time></trkpt><trkpt lat="37.90085582145146" lon="-3.0212486057766017"><ele>919.0</ele><time>2026-04-21T09:37:47.999Z</time></trkpt><trkpt lat="37.90078934074756" lon="-3.0212836219654617"><ele>918.9999999999999</ele><time>2026-04-21T09:37:48.999Z</time></trkpt><trkpt lat="37.90073441144499" lon="-3.0213301614895918"><ele>919.0</ele><time>2026-04-21T09:37:49.999Z</time></trkpt><trkpt lat="37.9006805515159" lon="-3.0214002335774865"><ele>919.0</ele><time>2026-04-21T09:37:50.999Z</time></trkpt><trkpt lat="37.9006153765064" lon="-3.02143404867702"><ele>919.8333333333333</ele><time>2026-04-21T09:37:51.999Z</time></trkpt><trkpt lat="37.900561118356514" lon="-3.021500256571403"><ele>920.6666666666666</ele><time>2026-04-21T09:37:52.999Z</time></trkpt><trkpt lat="37.90049745878675" lon="-3.021551081916419"><ele>921.5</ele><time>2026-04-21T09:37:53.999Z</time></trkpt><trkpt lat="37.90043240292545" lon="-3.021608322477985"><ele>922.3333333333333</ele><time>2026-04-21T09:37:54.999Z</time></trkpt><trkpt lat="37.90036365891445" lon="-3.021674809517381"><ele>923.1666666666666</ele><time>2026-04-21T09:37:55.999Z</time></trkpt><trkpt lat="37.90028887453095" lon="-3.0217231744907576"><ele>924.0</ele><time>2026-04-21T09:37:56.999Z</time></trkpt><trkpt lat="37.90020639851146" lon="-3.02178204743417"><ele>924.0</ele><time>2026-04-21T09:37:57.999Z</time></trkpt><trkpt lat="37.90011022487664" lon="-3.021855491796268"><ele>924.0000000000001</ele><time>2026-04-21T09:37:58.999Z</time></trkpt><trkpt lat="37.90001560090368" lon="-3.0219403105688207"><ele>924.0000000000001</ele><time>2026-04-21T09:37:59.999Z</time></trkpt><trkpt lat="37.89993391214918" lon="-3.0220206031633805"><ele>924.0</ele><time>2026-04-21T09:38:00.999Z</time></trkpt><trkpt lat="37.8998691369201" lon="-3.0220925343703082"><ele>924.0</ele><time>2026-04-21T09:38:01.999Z</time></trkpt><trkpt lat="37.899811713799785" lon="-3.0221683518158633"><ele>927.3333333333334</ele><time>2026-04-21T09:38:02.997Z</time></trkpt><trkpt lat="37.899755391311736" lon="-3.0222314335217155"><ele>930.6666666666667</ele><time>2026-04-21T09:38:03.997Z</time></trkpt><trkpt lat="37.89969595951791" lon="-3.0222707786654976"><ele>934.0</ele><time>2026-04-21T09:38:04.997Z</time></trkpt><trkpt lat="37.89964032125531" lon="-3.0223149673979703"><ele>937.3333333333334</ele><time>2026-04-21T09:38:05.997Z</time></trkpt><trkpt lat="37.899575543217544" lon="-3.022331814195866"><ele>940.6666666666667</ele><time>2026-04-21T09:38:06.998Z</time></trkpt><trkpt lat="37.89948141190532" lon="-3.0223153742088846"><ele>944.0</ele><time>2026-04-21T09:38:07.998Z</time></trkpt><trkpt lat="37.89937812119336" lon="-3.02233344441578"><ele>944.0</ele><time>2026-04-21T09:38:08.998Z</time></trkpt><trkpt lat="37.899262512870955" lon="-3.0223379306346634"><ele>944.0000000000001</ele><time>2026-04-21T09:38:09.998Z</time></trkpt><trkpt lat="37.89916752321948" lon="-3.022349593008312"><ele>944.0000000000001</ele><time>2026-04-21T09:38:10.998Z</time></trkpt><trkpt lat="37.89908202508465" lon="-3.022361986186812"><ele>944.0</ele><time>2026-04-21T09:38:11.998Z</time></trkpt><trkpt lat="37.898999397771604" lon="-3.022373963235197"><ele>944.0</ele><time>2026-04-21T09:38:12.998Z</time></trkpt><trkpt lat="37.8989116725868" lon="-3.0223725649452056"><ele>946.5000000000001</ele><time>2026-04-21T09:38:13.998Z</time></trkpt><trkpt lat="37.89883063762908" lon="-3.0224123975784933"><ele>949.0</ele><time>2026-04-21T09:38:14.998Z</time></trkpt><trkpt lat="37.89874639323484" lon="-3.0224185422496896"><ele>951.5</ele><time>2026-04-21T09:38:15.998Z</time></trkpt><trkpt lat="37.89867492350062" lon="-3.0224524173421856"><ele>954.0</ele><time>2026-04-21T09:38:16.998Z</time></trkpt><trkpt lat="37.898604893464714" lon="-3.0224672469323304"><ele>956.5000000000001</ele><time>2026-04-21T09:38:17.998Z</time></trkpt><trkpt lat="37.89853801207607" lon="-3.0224877948741944"><ele>959.0</ele><time>2026-04-21T09:38:18.998Z</time></trkpt><trkpt lat="37.898465005394016" lon="-3.0225041722078116"><ele>954.0</ele><time>2026-04-21T09:38:19.998Z</time></trkpt><trkpt lat="37.898389624472344" lon="-3.022521217966388"><ele>949.0000000000001</ele><time>2026-04-21T09:38:20.998Z</time></trkpt><trkpt lat="37.89829811357801" lon="-3.022516538171579"><ele>944.0000000000001</ele><time>2026-04-21T09:38:21.998Z</time></trkpt><trkpt lat="37.8981934680792" lon="-3.0225218917856935"><ele>939.0</ele><time>2026-04-21T09:38:22.999Z</time></trkpt><trkpt lat="37.898071891040026" lon="-3.0225156368324546"><ele>934.0</ele><time>2026-04-21T09:38:23.999Z</time></trkpt><trkpt lat="37.89794717772609" lon="-3.0224890250567573"><ele>937.2</ele><time>2026-04-21T09:38:24.999Z</time></trkpt><trkpt lat="37.89782160110529" lon="-3.0224676694691732"><ele>940.4000000000001</ele><time>2026-04-21T09:38:25.999Z</time></trkpt><trkpt lat="37.89770536171362" lon="-3.0224466966160257"><ele>943.6</ele><time>2026-04-21T09:38:26.999Z</time></trkpt><trkpt lat="37.897601924545775" lon="-3.0224361084885984"><ele>946.8</ele><time>2026-04-21T09:38:27.999Z</time></trkpt><trkpt lat="37.89751422335112" lon="-3.022425821451863"><ele>950.0</ele><time>2026-04-21T09:38:28.999Z</time></trkpt><trkpt lat="37.89744112698526" lon="-3.0224155436693017"><ele>950.0000000000001</ele><time>2026-04-21T09:38:29.999Z</time></trkpt><trkpt lat="37.89737701040906" lon="-3.022385746174052"><ele>950.0</ele><time>2026-04-21T09:38:30.999Z</time></trkpt><trkpt lat="37.89731025796773" lon="-3.0223456498496915"><ele>950.0</ele><time>2026-04-21T09:38:31.999Z</time></trkpt><trkpt lat="37.897237698092674" lon="-3.022312143898835"><ele>950.0</ele><time>2026-04-21T09:38:32.999Z</time></trkpt><trkpt lat="37.897146296175954" lon="-3.0223211032657273"><ele>950.0000000000001</ele><time>2026-04-21T09:38:33.999Z</time></trkpt><trkpt lat="37.897066540194366" lon="-3.0223494997118916"><ele>950.0</ele><time>2026-04-21T09:38:34.999Z</time></trkpt><trkpt lat="37.89698722658187" lon="-3.02236287845426"><ele>950.0000000000001</ele><time>2026-04-21T09:38:35.999Z</time></trkpt><trkpt lat="37.89690553436706" lon="-3.022352713537021"><ele>950.0</ele><time>2026-04-21T09:38:36.999Z</time></trkpt><trkpt lat="37.896822291410615" lon="-3.0223496206616773"><ele>950.0</ele><time>2026-04-21T09:38:37.999Z</time></trkpt><trkpt lat="37.89673570982208" lon="-3.0223657743487693"><ele>950.0</ele><time>2026-04-21T09:38:38.999Z</time></trkpt><trkpt lat="37.896649314303666" lon="-3.02236562500993"><ele>950.0000000000001</ele><time>2026-04-21T09:38:39.999Z</time></trkpt><trkpt lat="37.896563014456625" lon="-3.0223546819556435"><ele>950.0</ele><time>2026-04-21T09:38:40.999Z</time></trkpt><trkpt lat="37.89649538711454" lon="-3.022342739546167"><ele>949.3333333333334</ele><time>2026-04-21T09:38:41.999Z</time></trkpt><trkpt lat="37.89641684407618" lon="-3.022316345432079"><ele>948.6666666666667</ele><time>2026-04-21T09:38:43.999Z</time></trkpt><trkpt lat="37.896350278605546" lon="-3.0222496851369103"><ele>948.0</ele><time>2026-04-21T09:38:45.999Z</time></trkpt><trkpt lat="37.896299369655246" lon="-3.022201181730811"><ele>947.3333333333333</ele><time>2026-04-21T09:38:47.999Z</time></trkpt><trkpt lat="37.896244605823114" lon="-3.0222666196758143"><ele>946.6666666666666</ele><time>2026-04-21T09:38:51Z</time></trkpt><trkpt lat="37.89623714683438" lon="-3.022389211335828"><ele>946.0</ele><time>2026-04-21T09:38:53Z</time></trkpt><trkpt lat="37.89622856527766" lon="-3.0224770122857727"><ele>942.4285714285714</ele><time>2026-04-21T09:38:54Z</time></trkpt><trkpt lat="37.89622070409324" lon="-3.022572010879726"><ele>938.8571428571429</ele><time>2026-04-21T09:38:55Z</time></trkpt><trkpt lat="37.89622376506553" lon="-3.0226575236703006"><ele>935.2857142857143</ele><time>2026-04-21T09:38:56Z</time></trkpt><trkpt lat="37.89624496215682" lon="-3.022734993543943"><ele>931.7142857142858</ele><time>2026-04-21T09:38:57Z</time></trkpt><trkpt lat="37.89627812499026" lon="-3.0228068544314586"><ele>928.1428571428571</ele><time>2026-04-21T09:38:58Z</time></trkpt><trkpt lat="37.89631134403942" lon="-3.0228930056360066"><ele>924.5714285714287</ele><time>2026-04-21T09:38:59Z</time></trkpt><trkpt lat="37.8963375459872" lon="-3.0229881981472753"><ele>921.0000000000001</ele><time>2026-04-21T09:39:00Z</time></trkpt><trkpt lat="37.89634741171727" lon="-3.0230835517427455"><ele>921.0</ele><time>2026-04-21T09:39:01Z</time></trkpt><trkpt lat="37.89633567069694" lon="-3.0231886370963266"><ele>920.9999999999999</ele><time>2026-04-21T09:39:02Z</time></trkpt><trkpt lat="37.89631664150909" lon="-3.0232901926012388"><ele>920.9999999999999</ele><time>2026-04-21T09:39:03Z</time></trkpt><trkpt lat="37.896291102481015" lon="-3.0233814922305533"><ele>921.0</ele><time>2026-04-21T09:39:04Z</time></trkpt><trkpt lat="37.89627454136741" lon="-3.023531522876786"><ele>921.0</ele><time>2026-04-21T09:39:06Z</time></trkpt><trkpt lat="37.896315070700716" lon="-3.023710829730508"><ele>918.4</ele><time>2026-04-21T09:39:08Z</time></trkpt><trkpt lat="37.89633121276553" lon="-3.0238222208753442"><ele>915.8</ele><time>2026-04-21T09:39:09Z</time></trkpt><trkpt lat="37.89634352679558" lon="-3.0239372131132516"><ele>913.1999999999999</ele><time>2026-04-21T09:39:10Z</time></trkpt><trkpt lat="37.89635822519913" lon="-3.024054910516748"><ele>910.5999999999999</ele><time>2026-04-21T09:39:11Z</time></trkpt><trkpt lat="37.896374097493734" lon="-3.024176912719252"><ele>908.0</ele><time>2026-04-21T09:39:12Z</time></trkpt><trkpt lat="37.89638707212205" lon="-3.0242894980634167"><ele>907.5000000000001</ele><time>2026-04-21T09:39:13Z</time></trkpt><trkpt lat="37.89637837119987" lon="-3.024382218502096"><ele>907.0</ele><time>2026-04-21T09:39:14Z</time></trkpt><trkpt lat="37.89639882634226" lon="-3.024469680873684"><ele>906.5</ele><time>2026-04-21T09:39:15Z</time></trkpt><trkpt lat="37.896403272710195" lon="-3.024561429605622"><ele>906.0</ele><time>2026-04-21T09:39:16Z</time></trkpt><trkpt lat="37.89640780964672" lon="-3.024656705283956"><ele>905.5000000000001</ele><time>2026-04-21T09:39:17Z</time></trkpt><trkpt lat="37.896398015867405" lon="-3.024757414865035"><ele>905.0</ele><time>2026-04-21T09:39:18Z</time></trkpt><trkpt lat="37.8964134016858" lon="-3.024872723743868"><ele>907.0</ele><time>2026-04-21T09:39:19Z</time></trkpt><trkpt lat="37.896457049949824" lon="-3.024984207273152"><ele>909.0</ele><time>2026-04-21T09:39:20Z</time></trkpt><trkpt lat="37.896483052791496" lon="-3.0251202544997233"><ele>911.0</ele><time>2026-04-21T09:39:21Z</time></trkpt><trkpt lat="37.89650939582022" lon="-3.025258081881158"><ele>913.0</ele><time>2026-04-21T09:39:22Z</time></trkpt><trkpt lat="37.89653888246432" lon="-3.0253798556639393"><ele>915.0</ele><time>2026-04-21T09:39:23Z</time></trkpt><trkpt lat="37.89656743194318" lon="-3.025481153265034"><ele>915.0</ele><time>2026-04-21T09:39:24Z</time></trkpt><trkpt lat="37.89659813557021" lon="-3.025561409806208"><ele>915.0</ele><time>2026-04-21T09:39:25Z</time></trkpt><trkpt lat="37.896666532266856" lon="-3.025680642798751"><ele>915.0</ele><time>2026-04-21T09:39:27Z</time></trkpt><trkpt lat="37.896734078507265" lon="-3.025780097371673"><ele>915.0</ele><time>2026-04-21T09:39:29Z</time></trkpt><trkpt lat="37.896830219048866" lon="-3.025880801144652"><ele>915.0</ele><time>2026-04-21T09:39:30Z</time></trkpt><trkpt lat="37.89664911452466" lon="-3.0259822589925434"><ele>916.6666666666666</ele><time>2026-04-21T09:39:31Z</time></trkpt><trkpt lat="37.89659766398543" lon="-3.0260714087723466"><ele>918.3333333333333</ele><time>2026-04-21T09:39:33Z</time></trkpt><trkpt lat="37.89664859813482" lon="-3.0260191014105726"><ele>920.0</ele><time>2026-04-21T09:40:09.999Z</time></trkpt><trkpt lat="37.89667619423848" lon="-3.025936602182796"><ele>921.6666666666666</ele><time>2026-04-21T09:40:11.999Z</time></trkpt><trkpt lat="37.89669986549319" lon="-3.025849381721751"><ele>923.3333333333333</ele><time>2026-04-21T09:40:14.999Z</time></trkpt><trkpt lat="37.896695827525754" lon="-3.025937338940538"><ele>925.0</ele><time>2026-04-21T09:40:18.999Z</time></trkpt><trkpt lat="37.8968170531125" lon="-3.0260456553504476"><ele>919.9999999999999</ele><time>2026-04-21T09:40:19.999Z</time></trkpt><trkpt lat="37.896821663646975" lon="-3.0261980572872256"><ele>915.0</ele><time>2026-04-21T09:40:21.999Z</time></trkpt><trkpt lat="37.896844030900006" lon="-3.026276725566899"><ele>910.0</ele><time>2026-04-21T09:40:22.999Z</time></trkpt><trkpt lat="37.896900194233986" lon="-3.026341685643756"><ele>905.0</ele><time>2026-04-21T09:40:23.999Z</time></trkpt><trkpt lat="37.896936438877155" lon="-3.0264198429235845"><ele>899.9999999999999</ele><time>2026-04-21T09:40:24.999Z</time></trkpt><trkpt lat="37.89697913286703" lon="-3.0264994319811866"><ele>895.0</ele><time>2026-04-21T09:40:26Z</time></trkpt><trkpt lat="37.89702337404356" lon="-3.0265792043061244"><ele>897.3333333333333</ele><time>2026-04-21T09:40:27Z</time></trkpt><trkpt lat="37.89706971027888" lon="-3.026662754277684"><ele>899.6666666666666</ele><time>2026-04-21T09:40:28Z</time></trkpt><trkpt lat="37.897117361041275" lon="-3.026743398264499"><ele>902.0</ele><time>2026-04-21T09:40:29Z</time></trkpt><trkpt lat="37.89715821788873" lon="-3.0268342003485906"><ele>904.3333333333333</ele><time>2026-04-21T09:40:30Z</time></trkpt><trkpt lat="37.89721570117588" lon="-3.026910797618509"><ele>906.6666666666666</ele><time>2026-04-21T09:40:31Z</time></trkpt><trkpt lat="37.89727547224913" lon="-3.026974882849698"><ele>909.0</ele><time>2026-04-21T09:40:32Z</time></trkpt><trkpt lat="37.8973360364002" lon="-3.0270325683293553"><ele>909.0</ele><time>2026-04-21T09:40:33Z</time></trkpt><trkpt lat="37.89740103486974" lon="-3.027084975997752"><ele>909.0000000000001</ele><time>2026-04-21T09:40:34Z</time></trkpt><trkpt lat="37.8974785512177" lon="-3.0271371000574594"><ele>909.0000000000001</ele><time>2026-04-21T09:40:35Z</time></trkpt><trkpt lat="37.89755939021994" lon="-3.027181543894095"><ele>909.0</ele><time>2026-04-21T09:40:36Z</time></trkpt><trkpt lat="37.897653488662044" lon="-3.0272245954065915"><ele>909.0</ele><time>2026-04-21T09:40:37Z</time></trkpt><trkpt lat="37.89775064866181" lon="-3.0272633654294654"><ele>908.0</ele><time>2026-04-21T09:40:38Z</time></trkpt><trkpt lat="37.89784555568345" lon="-3.027301955278427"><ele>907.0000000000001</ele><time>2026-04-21T09:40:39Z</time></trkpt><trkpt lat="37.89793188970856" lon="-3.0273406361560276"><ele>906.0000000000001</ele><time>2026-04-21T09:40:40Z</time></trkpt><trkpt lat="37.89801972567271" lon="-3.027369246923226"><ele>905.0</ele><time>2026-04-21T09:40:41Z</time></trkpt><trkpt lat="37.89810142534557" lon="-3.0274221023815833"><ele>904.0</ele><time>2026-04-21T09:40:42Z</time></trkpt><trkpt lat="37.898181334269395" lon="-3.027479111913156"><ele>904.0</ele><time>2026-04-21T09:40:43Z</time></trkpt><trkpt lat="37.89824923754506" lon="-3.027556147675309"><ele>904.0000000000001</ele><time>2026-04-21T09:40:44Z</time></trkpt><trkpt lat="37.89832025378778" lon="-3.0276487762016417"><ele>904.0000000000001</ele><time>2026-04-21T09:40:45Z</time></trkpt><trkpt lat="37.898398215385505" lon="-3.027742485293621"><ele>904.0</ele><time>2026-04-21T09:40:46Z</time></trkpt><trkpt lat="37.89847452346042" lon="-3.0278460994506893"><ele>904.0</ele><time>2026-04-21T09:40:47Z</time></trkpt><trkpt lat="37.89854084510534" lon="-3.027948617016121"><ele>904.2</ele><time>2026-04-21T09:40:48Z</time></trkpt><trkpt lat="37.89860438320837" lon="-3.0280426702832197"><ele>904.4000000000001</ele><time>2026-04-21T09:40:49Z</time></trkpt><trkpt lat="37.89866887179291" lon="-3.028133424062555"><ele>904.6</ele><time>2026-04-21T09:40:50Z</time></trkpt><trkpt lat="37.89873837040978" lon="-3.0282159361457617"><ele>904.8</ele><time>2026-04-21T09:40:51Z</time></trkpt><trkpt lat="37.89881445234055" lon="-3.0283010376871653"><ele>905.0</ele><time>2026-04-21T09:40:52Z</time></trkpt><trkpt lat="37.89888519353155" lon="-3.028388743977784"><ele>905.0</ele><time>2026-04-21T09:40:53Z</time></trkpt><trkpt lat="37.89895049770828" lon="-3.028480720804853"><ele>905.0</ele><time>2026-04-21T09:40:54Z</time></trkpt><trkpt lat="37.899003607105506" lon="-3.0285682468031094"><ele>905.0</ele><time>2026-04-21T09:40:55Z</time></trkpt><trkpt lat="37.89905412905926" lon="-3.028662788542511"><ele>905.0</ele><time>2026-04-21T09:40:56Z</time></trkpt><trkpt lat="37.89910609331301" lon="-3.028773832833188"><ele>905.0</ele><time>2026-04-21T09:40:57Z</time></trkpt><trkpt lat="37.89916358587566" lon="-3.02888513420057"><ele>905.0</ele><time>2026-04-21T09:40:58Z</time></trkpt><trkpt lat="37.89922351983213" lon="-3.0289946155890495"><ele>905.0</ele><time>2026-04-21T09:40:59Z</time></trkpt><trkpt lat="37.89928300300643" lon="-3.0290991594337857"><ele>905.0</ele><time>2026-04-21T09:41:00Z</time></trkpt><trkpt lat="37.89933373836675" lon="-3.0292013201242276"><ele>905.0</ele><time>2026-04-21T09:41:01Z</time></trkpt><trkpt lat="37.89938381446775" lon="-3.0293129316985357"><ele>905.0</ele><time>2026-04-21T09:41:02Z</time></trkpt><trkpt lat="37.89942580139117" lon="-3.029434174675451"><ele>904.6</ele><time>2026-04-21T09:41:03Z</time></trkpt><trkpt lat="37.899462261584084" lon="-3.0295639346893877"><ele>904.2</ele><time>2026-04-21T09:41:04Z</time></trkpt><trkpt lat="37.899497621958176" lon="-3.029690036422239"><ele>903.8</ele><time>2026-04-21T09:41:05Z</time></trkpt><trkpt lat="37.899534169870954" lon="-3.0298075844879433"><ele>903.4</ele><time>2026-04-21T09:41:06.001Z</time></trkpt><trkpt lat="37.89957372655822" lon="-3.0299171167219745"><ele>903.0</ele><time>2026-04-21T09:41:07.001Z</time></trkpt><trkpt lat="37.899613813037185" lon="-3.0300215252873057"><ele>903.0</ele><time>2026-04-21T09:41:08.001Z</time></trkpt><trkpt lat="37.89965432347278" lon="-3.030120149562341"><ele>903.0</ele><time>2026-04-21T09:41:09.001Z</time></trkpt><trkpt lat="37.89969867518984" lon="-3.030213207240489"><ele>903.0</ele><time>2026-04-21T09:41:10.001Z</time></trkpt><trkpt lat="37.89974012556248" lon="-3.0303066940602466"><ele>903.0</ele><time>2026-04-21T09:41:11.001Z</time></trkpt><trkpt lat="37.899782391987316" lon="-3.0304002825523226"><ele>903.0</ele><time>2026-04-21T09:41:12.001Z</time></trkpt><trkpt lat="37.89982023537251" lon="-3.0304995781845276"><ele>903.0</ele><time>2026-04-21T09:41:13.001Z</time></trkpt><trkpt lat="37.899859775419884" lon="-3.0306011592850712"><ele>903.0</ele><time>2026-04-21T09:41:14.001Z</time></trkpt><trkpt lat="37.89989649183194" lon="-3.030701971788042"><ele>903.0</ele><time>2026-04-21T09:41:15.001Z</time></trkpt><trkpt lat="37.899934432029106" lon="-3.030807211014727"><ele>903.0</ele><time>2026-04-21T09:41:16.001Z</time></trkpt><trkpt lat="37.89997665104094" lon="-3.030915588980735"><ele>903.0</ele><time>2026-04-21T09:41:17.001Z</time></trkpt><trkpt lat="37.900008331457585" lon="-3.0310274391680307"><ele>903.0</ele><time>2026-04-21T09:41:18.001Z</time></trkpt><trkpt lat="37.90003755281637" lon="-3.031140581702628"><ele>901.8333333333334</ele><time>2026-04-21T09:41:19.001Z</time></trkpt><trkpt lat="37.90006246916921" lon="-3.0312469049292647"><ele>900.6666666666667</ele><time>2026-04-21T09:41:20.001Z</time></trkpt><trkpt lat="37.90008151301739" lon="-3.031346722070544"><ele>899.5</ele><time>2026-04-21T09:41:21.001Z</time></trkpt><trkpt lat="37.90008967539923" lon="-3.031449131990648"><ele>898.3333333333334</ele><time>2026-04-21T09:41:22.001Z</time></trkpt><trkpt lat="37.900113287733646" lon="-3.0315586966348853"><ele>897.1666666666667</ele><time>2026-04-21T09:41:23.001Z</time></trkpt><trkpt lat="37.900119089764374" lon="-3.031670993983823"><ele>896.0</ele><time>2026-04-21T09:41:24.001Z</time></trkpt><trkpt lat="37.90012489410461" lon="-3.0317815649587665"><ele>891.8</ele><time>2026-04-21T09:41:25.001Z</time></trkpt><trkpt lat="37.90013234498992" lon="-3.031894090828312"><ele>887.5999999999999</ele><time>2026-04-21T09:41:26.001Z</time></trkpt><trkpt lat="37.900129289342765" lon="-3.0320072321053586"><ele>883.4</ele><time>2026-04-21T09:41:27.001Z</time></trkpt><trkpt lat="37.900144357388086" lon="-3.0321217001165133"><ele>879.2</ele><time>2026-04-21T09:41:28.001Z</time></trkpt><trkpt lat="37.900186215780536" lon="-3.032222434333173"><ele>875.0</ele><time>2026-04-21T09:41:29.001Z</time></trkpt><trkpt lat="37.900217988000925" lon="-3.0323310609716034"><ele>875.0</ele><time>2026-04-21T09:41:30.001Z</time></trkpt><trkpt lat="37.90022368537126" lon="-3.0324489744040055"><ele>875.0</ele><time>2026-04-21T09:41:31.001Z</time></trkpt><trkpt lat="37.90024625773722" lon="-3.032557831348888"><ele>875.0</ele><time>2026-04-21T09:41:32.001Z</time></trkpt><trkpt lat="37.90026801877742" lon="-3.0326669870894145"><ele>875.0</ele><time>2026-04-21T09:41:33.001Z</time></trkpt><trkpt lat="37.90028515384341" lon="-3.0327852835326454"><ele>875.0</ele><time>2026-04-21T09:41:34.001Z</time></trkpt><trkpt lat="37.90032780136494" lon="-3.0328894706362837"><ele>874.2</ele><time>2026-04-21T09:41:35.001Z</time></trkpt><trkpt lat="37.90036201424494" lon="-3.033003947071853"><ele>873.4</ele><time>2026-04-21T09:41:36.001Z</time></trkpt><trkpt lat="37.90039289750397" lon="-3.033103835918619"><ele>872.5999999999999</ele><time>2026-04-21T09:41:37.001Z</time></trkpt><trkpt lat="37.900426751472025" lon="-3.0332318475418236"><ele>871.8</ele><time>2026-04-21T09:41:38.001Z</time></trkpt><trkpt lat="37.900456393005946" lon="-3.0333462599085474"><ele>871.0</ele><time>2026-04-21T09:41:39.001Z</time></trkpt><trkpt lat="37.90050059527917" lon="-3.0334529366092324"><ele>871.0</ele><time>2026-04-21T09:41:40.001Z</time></trkpt><trkpt lat="37.90056353223152" lon="-3.0335435561752684"><ele>870.9999999999999</ele><time>2026-04-21T09:41:41.001Z</time></trkpt><trkpt lat="37.90059649586493" lon="-3.0336482936765803"><ele>870.9999999999999</ele><time>2026-04-21T09:41:42.001Z</time></trkpt><trkpt lat="37.900637722175716" lon="-3.033750185583308"><ele>871.0</ele><time>2026-04-21T09:41:43.001Z</time></trkpt><trkpt lat="37.90066564829075" lon="-3.033863421935705"><ele>871.0</ele><time>2026-04-21T09:41:44.001Z</time></trkpt><trkpt lat="37.900685178973106" lon="-3.0339878248790977"><ele>871.0</ele><time>2026-04-21T09:41:45.001Z</time></trkpt><trkpt lat="37.900703291435775" lon="-3.0341239770323565"><ele>870.9999999999999</ele><time>2026-04-21T09:41:46.001Z</time></trkpt><trkpt lat="37.90071072350129" lon="-3.034269438983425"><ele>870.9999999999999</ele><time>2026-04-21T09:41:47.001Z</time></trkpt><trkpt lat="37.90072916640558" lon="-3.034413081781749"><ele>871.0</ele><time>2026-04-21T09:41:48.001Z</time></trkpt><trkpt lat="37.90071684619528" lon="-3.0345499378854317"><ele>871.0</ele><time>2026-04-21T09:41:49.001Z</time></trkpt><trkpt lat="37.90072637311508" lon="-3.034669725980775"><ele>870.8333333333333</ele><time>2026-04-21T09:41:50.001Z</time></trkpt><trkpt lat="37.9007192446285" lon="-3.034784045360071"><ele>870.6666666666666</ele><time>2026-04-21T09:41:51.001Z</time></trkpt><trkpt lat="37.900715837410516" lon="-3.0348927023020003"><ele>870.5</ele><time>2026-04-21T09:41:52.001Z</time></trkpt><trkpt lat="37.90072581491571" lon="-3.035001100281338"><ele>870.3333333333333</ele><time>2026-04-21T09:41:53.001Z</time></trkpt><trkpt lat="37.90073433538963" lon="-3.035103911096632"><ele>870.1666666666666</ele><time>2026-04-21T09:41:54.001Z</time></trkpt><trkpt lat="37.90074469798773" lon="-3.035195882477034"><ele>870.0</ele><time>2026-04-21T09:41:55.001Z</time></trkpt><trkpt lat="37.90076220943704" lon="-3.035286018694293"><ele>869.2</ele><time>2026-04-21T09:41:56.001Z</time></trkpt><trkpt lat="37.900782564769635" lon="-3.035386375256086"><ele>868.4</ele><time>2026-04-21T09:41:57.001Z</time></trkpt><trkpt lat="37.90081470381216" lon="-3.035499316043156"><ele>867.5999999999999</ele><time>2026-04-21T09:41:58.001Z</time></trkpt><trkpt lat="37.90086543056911" lon="-3.03561998102131"><ele>866.8</ele><time>2026-04-21T09:41:59.001Z</time></trkpt><trkpt lat="37.90088212149376" lon="-3.0357625173181417"><ele>866.0</ele><time>2026-04-21T09:42:00.001Z</time></trkpt><trkpt lat="37.9009030027767" lon="-3.0359043276109006"><ele>860.5</ele><time>2026-04-21T09:42:01.002Z</time></trkpt><trkpt lat="37.90092293761069" lon="-3.0360412519934608"><ele>855.0</ele><time>2026-04-21T09:42:02.002Z</time></trkpt><trkpt lat="37.900965693642576" lon="-3.0361763580628494"><ele>849.5</ele><time>2026-04-21T09:42:03.002Z</time></trkpt><trkpt lat="37.90100056169013" lon="-3.0363125389353454"><ele>844.0</ele><time>2026-04-21T09:42:04.002Z</time></trkpt><trkpt lat="37.90102741458619" lon="-3.036451827954847"><ele>844.0</ele><time>2026-04-21T09:42:05.002Z</time></trkpt><trkpt lat="37.901055148272796" lon="-3.0365863878248742"><ele>844.0</ele><time>2026-04-21T09:42:06.002Z</time></trkpt><trkpt lat="37.901074923424254" lon="-3.0367235166324327"><ele>844.0</ele><time>2026-04-21T09:42:07.002Z</time></trkpt><trkpt lat="37.901093183140354" lon="-3.0368647598034206"><ele>844.0</ele><time>2026-04-21T09:42:08.002Z</time></trkpt><trkpt lat="37.90114338404598" lon="-3.036997967936553"><ele>844.0</ele><time>2026-04-21T09:42:09.002Z</time></trkpt><trkpt lat="37.901152421339994" lon="-3.0371477956325723"><ele>844.0</ele><time>2026-04-21T09:42:10.002Z</time></trkpt><trkpt lat="37.90116838414745" lon="-3.0372930940006597"><ele>844.0</ele><time>2026-04-21T09:42:11.002Z</time></trkpt><trkpt lat="37.90119362128104" lon="-3.0374380296834085"><ele>844.0</ele><time>2026-04-21T09:42:12.002Z</time></trkpt><trkpt lat="37.9012117046439" lon="-3.037581415212464"><ele>844.0</ele><time>2026-04-21T09:42:13.002Z</time></trkpt><trkpt lat="37.90123778382784" lon="-3.0377164326123305"><ele>843.2</ele><time>2026-04-21T09:42:14.002Z</time></trkpt><trkpt lat="37.90126929929355" lon="-3.0378442384814535"><ele>842.4000000000001</ele><time>2026-04-21T09:42:15Z</time></trkpt><trkpt lat="37.90129771535143" lon="-3.0379767691128756"><ele>841.6</ele><time>2026-04-21T09:42:16Z</time></trkpt><trkpt lat="37.90132189623649" lon="-3.038108808701344"><ele>840.8</ele><time>2026-04-21T09:42:17Z</time></trkpt><trkpt lat="37.90134337257919" lon="-3.038236439105016"><ele>840.0</ele><time>2026-04-21T09:42:18Z</time></trkpt><trkpt lat="37.90137397516032" lon="-3.038356829852527"><ele>839.8</ele><time>2026-04-21T09:42:19Z</time></trkpt><trkpt lat="37.90138480088322" lon="-3.038483983970763"><ele>839.6</ele><time>2026-04-21T09:42:20Z</time></trkpt><trkpt lat="37.90138083517745" lon="-3.0386206809624925"><ele>839.4000000000001</ele><time>2026-04-21T09:42:21Z</time></trkpt><trkpt lat="37.90140013737536" lon="-3.0387626172469178"><ele>839.2</ele><time>2026-04-21T09:42:22Z</time></trkpt><trkpt lat="37.90141573000723" lon="-3.038905173232822"><ele>839.0</ele><time>2026-04-21T09:42:23Z</time></trkpt><trkpt lat="37.90143355240071" lon="-3.0390543981797693"><ele>838.25</ele><time>2026-04-21T09:42:24Z</time></trkpt><trkpt lat="37.90145371643579" lon="-3.0392077823881305"><ele>837.5</ele><time>2026-04-21T09:42:25Z</time></trkpt><trkpt lat="37.90147272855644" lon="-3.0393545434772853"><ele>836.75</ele><time>2026-04-21T09:42:26Z</time></trkpt><trkpt lat="37.90149436389556" lon="-3.0394981030375923"><ele>836.0</ele><time>2026-04-21T09:42:27Z</time></trkpt><trkpt lat="37.90151562269972" lon="-3.0396366019020338"><ele>836.0</ele><time>2026-04-21T09:42:28Z</time></trkpt><trkpt lat="37.901537104652235" lon="-3.0397715169985893"><ele>836.0</ele><time>2026-04-21T09:42:29Z</time></trkpt><trkpt lat="37.90156612738302" lon="-3.0399028188382498"><ele>836.0</ele><time>2026-04-21T09:42:30Z</time></trkpt><trkpt lat="37.90158909970384" lon="-3.0400284643989153"><ele>836.0</ele><time>2026-04-21T09:42:31Z</time></trkpt><trkpt lat="37.90160766678015" lon="-3.0401476642998784"><ele>836.0</ele><time>2026-04-21T09:42:32Z</time></trkpt><trkpt lat="37.90162503227358" lon="-3.040257950748199"><ele>835.3333333333334</ele><time>2026-04-21T09:42:33Z</time></trkpt><trkpt lat="37.90164476268845" lon="-3.0403646502631725"><ele>834.6666666666667</ele><time>2026-04-21T09:42:34Z</time></trkpt><trkpt lat="37.90165485497243" lon="-3.0404600584338985"><ele>834.0</ele><time>2026-04-21T09:42:35Z</time></trkpt><trkpt lat="37.90167644961445" lon="-3.0405877878145677"><ele>833.3333333333333</ele><time>2026-04-21T09:42:37Z</time></trkpt><trkpt lat="37.90168382140573" lon="-3.0406867546117877"><ele>832.6666666666666</ele><time>2026-04-21T09:42:40Z</time></trkpt><trkpt lat="37.90169952242651" lon="-3.0407931525734657"><ele>832.0</ele><time>2026-04-21T09:42:58.001Z</time></trkpt><trkpt lat="37.90158232310046" lon="-3.0409242877116234"><ele>830.6</ele><time>2026-04-21T09:43:00.001Z</time></trkpt><trkpt lat="37.90150435754723" lon="-3.0409632314930874"><ele>829.2</ele><time>2026-04-21T09:43:01.001Z</time></trkpt><trkpt lat="37.901410234271005" lon="-3.0409910149552606"><ele>827.8</ele><time>2026-04-21T09:43:02.001Z</time></trkpt><trkpt lat="37.901308176759024" lon="-3.0409953320107395"><ele>826.4</ele><time>2026-04-21T09:43:03.001Z</time></trkpt><trkpt lat="37.90119542882537" lon="-3.0409708941565468"><ele>825.0</ele><time>2026-04-21T09:43:04.001Z</time></trkpt><trkpt lat="37.90108108273987" lon="-3.040937398714601"><ele>825.0</ele><time>2026-04-21T09:43:05.001Z</time></trkpt><trkpt lat="37.90096583667877" lon="-3.0409000033716445"><ele>825.0</ele><time>2026-04-21T09:43:06.001Z</time></trkpt><trkpt lat="37.90084602511138" lon="-3.04086137782019"><ele>825.0</ele><time>2026-04-21T09:43:07.001Z</time></trkpt><trkpt lat="37.90072221462372" lon="-3.040823273370133"><ele>825.0</ele><time>2026-04-21T09:43:08.001Z</time></trkpt><trkpt lat="37.90060816742134" lon="-3.040789282065205"><ele>826.0</ele><time>2026-04-21T09:43:09.001Z</time></trkpt><trkpt lat="37.90049582035993" lon="-3.040760211470073"><ele>827.0</ele><time>2026-04-21T09:43:10.001Z</time></trkpt><trkpt lat="37.900379713466556" lon="-3.0407449369889665"><ele>828.0</ele><time>2026-04-21T09:43:11.001Z</time></trkpt><trkpt lat="37.90024116099625" lon="-3.0407617647614322"><ele>829.0</ele><time>2026-04-21T09:43:12.001Z</time></trkpt><trkpt lat="37.90008466492599" lon="-3.040805712677588"><ele>824.3333333333333</ele><time>2026-04-21T09:43:13.001Z</time></trkpt><trkpt lat="37.89988772184603" lon="-3.0408692436657674"><ele>819.6666666666667</ele><time>2026-04-21T09:43:14.001Z</time></trkpt><trkpt lat="37.89969452587737" lon="-3.040932383994397"><ele>815.0</ele><time>2026-04-21T09:43:15.001Z</time></trkpt><trkpt lat="37.89951102705664" lon="-3.0409903835856094"><ele>815.0</ele><time>2026-04-21T09:43:16.001Z</time></trkpt><trkpt lat="37.89934763675449" lon="-3.0410431634746824"><ele>815.0</ele><time>2026-04-21T09:43:17.001Z</time></trkpt><trkpt lat="37.89919448179336" lon="-3.041088258906415"><ele>815.0</ele><time>2026-04-21T09:43:18.001Z</time></trkpt><trkpt lat="37.89904959457903" lon="-3.041102785628973"><ele>816.25</ele><time>2026-04-21T09:43:19.001Z</time></trkpt><trkpt lat="37.89890543213149" lon="-3.041087055167501"><ele>817.5</ele><time>2026-04-21T09:43:20.001Z</time></trkpt><trkpt lat="37.89876255993883" lon="-3.0410493442988105"><ele>818.75</ele><time>2026-04-21T09:43:21.001Z</time></trkpt><trkpt lat="37.89862204272829" lon="-3.041009442037536"><ele>820.0</ele><time>2026-04-21T09:43:22.001Z</time></trkpt><trkpt lat="37.89849116725377" lon="-3.0409778783740204"><ele>820.0</ele><time>2026-04-21T09:43:23.001Z</time></trkpt><trkpt lat="37.89837506622214" lon="-3.0409740672377503"><ele>820.0</ele><time>2026-04-21T09:43:24.001Z</time></trkpt><trkpt lat="37.89826731106517" lon="-3.0410036932197366"><ele>820.0</ele><time>2026-04-21T09:43:25.001Z</time></trkpt><trkpt lat="37.89811636493004" lon="-3.0411886131383823"><ele>820.0</ele><time>2026-04-21T09:43:27.001Z</time></trkpt><trkpt lat="37.898056123183814" lon="-3.0413180152378416"><ele>820.0</ele><time>2026-04-21T09:43:28.001Z</time></trkpt><trkpt lat="37.89802916649256" lon="-3.0414636259942625"><ele>820.0</ele><time>2026-04-21T09:43:29.001Z</time></trkpt><trkpt lat="37.898050748144506" lon="-3.0416128588616824"><ele>820.0</ele><time>2026-04-21T09:43:30.001Z</time></trkpt><trkpt lat="37.89810415071432" lon="-3.0417792832520867"><ele>820.0</ele><time>2026-04-21T09:43:31.001Z</time></trkpt><trkpt lat="37.898153351698696" lon="-3.0419869749662864"><ele>817.6666666666666</ele><time>2026-04-21T09:43:32.001Z</time></trkpt><trkpt lat="37.89822821213972" lon="-3.0421982489098967"><ele>815.3333333333333</ele><time>2026-04-21T09:43:33.001Z</time></trkpt><trkpt lat="37.89828743213828" lon="-3.0424131536731376"><ele>813.0</ele><time>2026-04-21T09:43:34.001Z</time></trkpt><trkpt lat="37.8983379259677" lon="-3.0426213653748904"><ele>812.3333333333333</ele><time>2026-04-21T09:43:35.001Z</time></trkpt><trkpt lat="37.89837588432882" lon="-3.0428163091611276"><ele>811.6666666666666</ele><time>2026-04-21T09:43:36.001Z</time></trkpt><trkpt lat="37.8984032222016" lon="-3.043027964856235"><ele>811.0</ele><time>2026-04-21T09:43:37.001Z</time></trkpt><trkpt lat="37.89841256228666" lon="-3.0432575794254966"><ele>810.6666666666666</ele><time>2026-04-21T09:43:38.001Z</time></trkpt><trkpt lat="37.898412206052946" lon="-3.043490022366879"><ele>810.3333333333333</ele><time>2026-04-21T09:43:39.001Z</time></trkpt><trkpt lat="37.898396967071065" lon="-3.043725963213586"><ele>810.0</ele><time>2026-04-21T09:43:40.001Z</time></trkpt><trkpt lat="37.89839392363848" lon="-3.0439462277916527"><ele>810.0</ele><time>2026-04-21T09:43:41.001Z</time></trkpt><trkpt lat="37.8983748417989" lon="-3.0441263750625605"><ele>810.0</ele><time>2026-04-21T09:43:42.001Z</time></trkpt><trkpt lat="37.89833135167638" lon="-3.0442714075326243"><ele>810.0</ele><time>2026-04-21T09:43:43.001Z</time></trkpt><trkpt lat="37.8982787710533" lon="-3.044391545159389"><ele>810.0</ele><time>2026-04-21T09:43:44.001Z</time></trkpt><trkpt lat="37.89819885183428" lon="-3.044486951560022"><ele>808.5</ele><time>2026-04-21T09:43:45.001Z</time></trkpt><trkpt lat="37.89807924504167" lon="-3.0445473431743544"><ele>807.0</ele><time>2026-04-21T09:43:46.001Z</time></trkpt><trkpt lat="37.89795854318767" lon="-3.0445807410836405"><ele>805.5</ele><time>2026-04-21T09:43:47.001Z</time></trkpt><trkpt lat="37.897838172763635" lon="-3.044565595645536"><ele>804.0</ele><time>2026-04-21T09:43:48.001Z</time></trkpt><trkpt lat="37.897704531373016" lon="-3.044512325397457"><ele>804.6666666666667</ele><time>2026-04-21T09:43:49.001Z</time></trkpt><trkpt lat="37.89755486461798" lon="-3.044420934670898"><ele>805.3333333333334</ele><time>2026-04-21T09:43:50.001Z</time></trkpt><trkpt lat="37.89739019366418" lon="-3.044337342064488"><ele>806.0</ele><time>2026-04-21T09:43:51.001Z</time></trkpt><trkpt lat="37.8972245244067" lon="-3.044239830964548"><ele>806.0</ele><time>2026-04-21T09:43:52.001Z</time></trkpt><trkpt lat="37.89704802038433" lon="-3.0441441598208483"><ele>806.0</ele><time>2026-04-21T09:43:53.002Z</time></trkpt><trkpt lat="37.896879120110306" lon="-3.044038308029062"><ele>806.0</ele><time>2026-04-21T09:43:54.002Z</time></trkpt><trkpt lat="37.89672430374637" lon="-3.0439244396297607"><ele>805.3333333333334</ele><time>2026-04-21T09:43:55.002Z</time></trkpt><trkpt lat="37.89656459798516" lon="-3.043854920700425"><ele>804.6666666666667</ele><time>2026-04-21T09:43:56.002Z</time></trkpt><trkpt lat="37.89642254558397" lon="-3.043772559617186"><ele>804.0</ele><time>2026-04-21T09:43:57.002Z</time></trkpt><trkpt lat="37.8962798646183" lon="-3.043691613035046"><ele>804.0</ele><time>2026-04-21T09:43:58.002Z</time></trkpt><trkpt lat="37.89614342044722" lon="-3.043619791094934"><ele>804.0</ele><time>2026-04-21T09:43:59.002Z</time></trkpt><trkpt lat="37.89601391389965" lon="-3.0435610784258347"><ele>804.0</ele><time>2026-04-21T09:44:00.002Z</time></trkpt><trkpt lat="37.89590492267192" lon="-3.0435295102090385"><ele>804.0</ele><time>2026-04-21T09:44:01.002Z</time></trkpt><trkpt lat="37.89579272924048" lon="-3.0435370307705165"><ele>802.0</ele><time>2026-04-21T09:44:02.002Z</time></trkpt><trkpt lat="37.895697295557945" lon="-3.0436006194041267"><ele>800.0</ele><time>2026-04-21T09:44:03.002Z</time></trkpt><trkpt lat="37.89561233497592" lon="-3.0436886461493406"><ele>798.0</ele><time>2026-04-21T09:44:04.002Z</time></trkpt><trkpt lat="37.895567018977346" lon="-3.043816883012732"><ele>796.0</ele><time>2026-04-21T09:44:05.002Z</time></trkpt><trkpt lat="37.89555251333052" lon="-3.0439612978024364"><ele>794.0</ele><time>2026-04-21T09:44:06.002Z</time></trkpt><trkpt lat="37.89558185094729" lon="-3.0441035428953844"><ele>792.75</ele><time>2026-04-21T09:44:07.002Z</time></trkpt><trkpt lat="37.89564713710833" lon="-3.044260217534417"><ele>791.5</ele><time>2026-04-21T09:44:08.002Z</time></trkpt><trkpt lat="37.895757993690026" lon="-3.0444105233554173"><ele>790.25</ele><time>2026-04-21T09:44:09.002Z</time></trkpt><trkpt lat="37.89585526596261" lon="-3.044549303220967"><ele>789.0</ele><time>2026-04-21T09:44:10.002Z</time></trkpt><trkpt lat="37.895918234845304" lon="-3.0446981692144277"><ele>789.5</ele><time>2026-04-21T09:44:11.002Z</time></trkpt><trkpt lat="37.895964681182555" lon="-3.0448673467885925"><ele>790.0</ele><time>2026-04-21T09:44:12.002Z</time></trkpt><trkpt lat="37.895993396156655" lon="-3.045048306872454"><ele>790.5</ele><time>2026-04-21T09:44:13.002Z</time></trkpt><trkpt lat="37.89599779668836" lon="-3.045233582322842"><ele>791.0</ele><time>2026-04-21T09:44:14.002Z</time></trkpt><trkpt lat="37.895974287919096" lon="-3.0454303408468646"><ele>791.0</ele><time>2026-04-21T09:44:15.002Z</time></trkpt><trkpt lat="37.89594411610187" lon="-3.0456467163684398"><ele>791.0</ele><time>2026-04-21T09:44:16.002Z</time></trkpt><trkpt lat="37.89590292837443" lon="-3.0458670417985663"><ele>791.0</ele><time>2026-04-21T09:44:17.002Z</time></trkpt><trkpt lat="37.89588991298038" lon="-3.0460818120702093"><ele>791.0</ele><time>2026-04-21T09:44:18.002Z</time></trkpt><trkpt lat="37.89588549876786" lon="-3.0463227241191775"><ele>791.0</ele><time>2026-04-21T09:44:19.002Z</time></trkpt><trkpt lat="37.89586558498011" lon="-3.0465483307286085"><ele>791.0</ele><time>2026-04-21T09:44:20.002Z</time></trkpt><trkpt lat="37.89586145272401" lon="-3.046754997306813"><ele>790.25</ele><time>2026-04-21T09:44:21.001Z</time></trkpt><trkpt lat="37.89585782285875" lon="-3.046933061204162"><ele>789.5</ele><time>2026-04-21T09:44:22.001Z</time></trkpt><trkpt lat="37.89584387128876" lon="-3.0470791875001546"><ele>788.75</ele><time>2026-04-21T09:44:23.001Z</time></trkpt><trkpt lat="37.895815442154166" lon="-3.0472129273072386"><ele>788.0</ele><time>2026-04-21T09:44:24.001Z</time></trkpt><trkpt lat="37.895738724013405" lon="-3.0473262505359324"><ele>788.0</ele><time>2026-04-21T09:44:25.001Z</time></trkpt><trkpt lat="37.89562516558752" lon="-3.047409248106405"><ele>788.0</ele><time>2026-04-21T09:44:26.001Z</time></trkpt><trkpt lat="37.89547326924347" lon="-3.0474542233372937"><ele>788.0</ele><time>2026-04-21T09:44:27.001Z</time></trkpt><trkpt lat="37.895294606128225" lon="-3.0475142620337947"><ele>788.0</ele><time>2026-04-21T09:44:28.001Z</time></trkpt><trkpt lat="37.89509034089602" lon="-3.0475836759717625"><ele>788.0</ele><time>2026-04-21T09:44:29.001Z</time></trkpt><trkpt lat="37.89488763165285" lon="-3.0476525611186354"><ele>788.0</ele><time>2026-04-21T09:44:30.001Z</time></trkpt><trkpt lat="37.89471995362925" lon="-3.047710064452737"><ele>788.0</ele><time>2026-04-21T09:44:31.001Z</time></trkpt><trkpt lat="37.89458202154728" lon="-3.0477642172672614"><ele>788.0</ele><time>2026-04-21T09:44:32.001Z</time></trkpt><trkpt lat="37.894466027247525" lon="-3.0478286880396466"><ele>788.0</ele><time>2026-04-21T09:44:33.001Z</time></trkpt><trkpt lat="37.894374966898354" lon="-3.047922547032281"><ele>788.0</ele><time>2026-04-21T09:44:34.001Z</time></trkpt><trkpt lat="37.89429650522312" lon="-3.0480612303508727"><ele>788.6666666666667</ele><time>2026-04-21T09:44:35.001Z</time></trkpt><trkpt lat="37.89422054555554" lon="-3.048231593405535"><ele>789.3333333333333</ele><time>2026-04-21T09:44:36.001Z</time></trkpt><trkpt lat="37.89413951787149" lon="-3.0484223718395396"><ele>790.0</ele><time>2026-04-21T09:44:37.001Z</time></trkpt><trkpt lat="37.89405497822091" lon="-3.048617702434789"><ele>790.0</ele><time>2026-04-21T09:44:38.001Z</time></trkpt><trkpt lat="37.89397022957189" lon="-3.048811882528861"><ele>790.0</ele><time>2026-04-21T09:44:39.001Z</time></trkpt><trkpt lat="37.893884521002974" lon="-3.049008349530691"><ele>790.0</ele><time>2026-04-21T09:44:40.001Z</time></trkpt><trkpt lat="37.89380005618922" lon="-3.0492020492040814"><ele>787.0</ele><time>2026-04-21T09:44:41.001Z</time></trkpt><trkpt lat="37.893715232844905" lon="-3.0493950115031385"><ele>784.0</ele><time>2026-04-21T09:44:42.001Z</time></trkpt><trkpt lat="37.893632448489555" lon="-3.049582982242537"><ele>781.0</ele><time>2026-04-21T09:44:43.001Z</time></trkpt><trkpt lat="37.89353867050706" lon="-3.0497595350861935"><ele>781.0</ele><time>2026-04-21T09:44:44.001Z</time></trkpt><trkpt lat="37.89346540681016" lon="-3.049931013634324"><ele>781.0</ele><time>2026-04-21T09:44:45.001Z</time></trkpt><trkpt lat="37.89339312510924" lon="-3.050097663006245"><ele>781.0</ele><time>2026-04-21T09:44:46.001Z</time></trkpt><trkpt lat="37.89330484208664" lon="-3.050273452086203"><ele>782.3333333333333</ele><time>2026-04-21T09:44:47.001Z</time></trkpt><trkpt lat="37.89319027104273" lon="-3.050436446834611"><ele>783.6666666666667</ele><time>2026-04-21T09:44:48.001Z</time></trkpt><trkpt lat="37.89304954814767" lon="-3.0505773512600936"><ele>785.0</ele><time>2026-04-21T09:44:49.001Z</time></trkpt><trkpt lat="37.89288991446356" lon="-3.0506933100789633"><ele>784.0</ele><time>2026-04-21T09:44:50.001Z</time></trkpt><trkpt lat="37.89272724186839" lon="-3.050798370529146"><ele>783.0</ele><time>2026-04-21T09:44:51.001Z</time></trkpt><trkpt lat="37.89256550437229" lon="-3.0509135489179093"><ele>782.0</ele><time>2026-04-21T09:44:52.001Z</time></trkpt><trkpt lat="37.89242548482824" lon="-3.0510370418780766"><ele>783.5</ele><time>2026-04-21T09:44:53.001Z</time></trkpt><trkpt lat="37.89230211356725" lon="-3.0511263526867527"><ele>785.0</ele><time>2026-04-21T09:44:54.001Z</time></trkpt><trkpt lat="37.892187578188555" lon="-3.0512152865234707"><ele>786.5</ele><time>2026-04-21T09:44:55.001Z</time></trkpt><trkpt lat="37.8920904720683" lon="-3.0513224450774605"><ele>788.0</ele><time>2026-04-21T09:44:56.001Z</time></trkpt><trkpt lat="37.89202910840847" lon="-3.051460750158066"><ele>788.0</ele><time>2026-04-21T09:44:57.001Z</time></trkpt><trkpt lat="37.89199109008956" lon="-3.0516173821614747"><ele>788.0</ele><time>2026-04-21T09:44:58.001Z</time></trkpt><trkpt lat="37.89195396784997" lon="-3.0517991975978993"><ele>788.0</ele><time>2026-04-21T09:44:59.001Z</time></trkpt><trkpt lat="37.89192072364473" lon="-3.0519497492395664"><ele>788.0</ele><time>2026-04-21T09:45:00.001Z</time></trkpt><trkpt lat="37.89189031893245" lon="-3.052084316609073"><ele>788.1666666666667</ele><time>2026-04-21T09:45:01.001Z</time></trkpt><trkpt lat="37.89186366760877" lon="-3.052208383733383"><ele>788.3333333333334</ele><time>2026-04-21T09:45:02.001Z</time></trkpt><trkpt lat="37.891841786818084" lon="-3.0523207110629698"><ele>788.5</ele><time>2026-04-21T09:45:03.001Z</time></trkpt><trkpt lat="37.8918273816604" lon="-3.0524271410145545"><ele>788.6666666666667</ele><time>2026-04-21T09:45:04.001Z</time></trkpt><trkpt lat="37.89182495355249" lon="-3.0525263853708724"><ele>788.8333333333334</ele><time>2026-04-21T09:45:05.001Z</time></trkpt><trkpt lat="37.891833658651414" lon="-3.0526181735192233"><ele>789.0</ele><time>2026-04-21T09:45:06.001Z</time></trkpt><trkpt lat="37.891854424539865" lon="-3.052719520709726"><ele>789.2</ele><time>2026-04-21T09:45:07.001Z</time></trkpt><trkpt lat="37.891891546274096" lon="-3.052836078754938"><ele>789.4000000000001</ele><time>2026-04-21T09:45:08.001Z</time></trkpt><trkpt lat="37.891936252544525" lon="-3.0529622652500126"><ele>789.6</ele><time>2026-04-21T09:45:09.001Z</time></trkpt><trkpt lat="37.891974723333014" lon="-3.053096331952031"><ele>789.8</ele><time>2026-04-21T09:45:10.001Z</time></trkpt><trkpt lat="37.892019490083065" lon="-3.0532213876764884"><ele>790.0</ele><time>2026-04-21T09:45:11.001Z</time></trkpt><trkpt lat="37.892064646822874" lon="-3.053345728187242"><ele>790.0</ele><time>2026-04-21T09:45:12.001Z</time></trkpt><trkpt lat="37.89211006708339" lon="-3.05347756094992"><ele>790.0</ele><time>2026-04-21T09:45:13.001Z</time></trkpt><trkpt lat="37.89215738968543" lon="-3.0536096813595233"><ele>790.0</ele><time>2026-04-21T09:45:14.001Z</time></trkpt><trkpt lat="37.89220170233312" lon="-3.053734792671902"><ele>790.0</ele><time>2026-04-21T09:45:15.001Z</time></trkpt><trkpt lat="37.892245030420824" lon="-3.053852951286235"><ele>790.0</ele><time>2026-04-21T09:45:16.001Z</time></trkpt><trkpt lat="37.89228918331032" lon="-3.053969885951256"><ele>790.0</ele><time>2026-04-21T09:45:17.001Z</time></trkpt><trkpt lat="37.89234888767276" lon="-3.05408297577868"><ele>790.0</ele><time>2026-04-21T09:45:18.001Z</time></trkpt><trkpt lat="37.89241835700257" lon="-3.0541885691445176"><ele>790.0</ele><time>2026-04-21T09:45:19.001Z</time></trkpt><trkpt lat="37.89249686779036" lon="-3.0542872419957097"><ele>790.0</ele><time>2026-04-21T09:45:20.001Z</time></trkpt><trkpt lat="37.89257393521971" lon="-3.0543887339725253"><ele>790.0</ele><time>2026-04-21T09:45:21.001Z</time></trkpt><trkpt lat="37.89265880906906" lon="-3.054493930699755"><ele>788.75</ele><time>2026-04-21T09:45:22.001Z</time></trkpt><trkpt lat="37.89274212375414" lon="-3.0545999510180493"><ele>787.5</ele><time>2026-04-21T09:45:23.001Z</time></trkpt><trkpt lat="37.8928194908006" lon="-3.0547021200524376"><ele>786.25</ele><time>2026-04-21T09:45:24.001Z</time></trkpt><trkpt lat="37.89289550745608" lon="-3.054804567622319"><ele>785.0</ele><time>2026-04-21T09:45:25.001Z</time></trkpt><trkpt lat="37.8929725433624" lon="-3.05490808357469"><ele>783.5</ele><time>2026-04-21T09:45:26.001Z</time></trkpt><trkpt lat="37.893042795839214" lon="-3.05502204541356"><ele>782.0</ele><time>2026-04-21T09:45:27.001Z</time></trkpt><trkpt lat="37.893098204021236" lon="-3.055158264742825"><ele>780.5</ele><time>2026-04-21T09:45:28.001Z</time></trkpt><trkpt lat="37.89313287217343" lon="-3.0553159708877073"><ele>779.0</ele><time>2026-04-21T09:45:29.001Z</time></trkpt><trkpt lat="37.893149508909374" lon="-3.055476306486209"><ele>779.0</ele><time>2026-04-21T09:45:30.001Z</time></trkpt><trkpt lat="37.89316003268551" lon="-3.055631094248553"><ele>779.0</ele><time>2026-04-21T09:45:31.001Z</time></trkpt><trkpt lat="37.89317470708075" lon="-3.0557838885164395"><ele>779.0</ele><time>2026-04-21T09:45:32.001Z</time></trkpt><trkpt lat="37.89319101858241" lon="-3.055932825089277"><ele>779.0</ele><time>2026-04-21T09:45:33.001Z</time></trkpt><trkpt lat="37.893207164907594" lon="-3.0560818458784946"><ele>777.25</ele><time>2026-04-21T09:45:34.001Z</time></trkpt><trkpt lat="37.89322555911478" lon="-3.0562337250834934"><ele>775.5</ele><time>2026-04-21T09:45:35.001Z</time></trkpt><trkpt lat="37.8932542624685" lon="-3.056386056765014"><ele>773.75</ele><time>2026-04-21T09:45:36.001Z</time></trkpt><trkpt lat="37.89329302472704" lon="-3.056523812139538"><ele>772.0</ele><time>2026-04-21T09:45:37.001Z</time></trkpt><trkpt lat="37.89332853245644" lon="-3.0566462908310457"><ele>770.6</ele><time>2026-04-21T09:45:38.001Z</time></trkpt><trkpt lat="37.89336763596099" lon="-3.056768067255369"><ele>769.2</ele><time>2026-04-21T09:45:39.001Z</time></trkpt><trkpt lat="37.89340971156779" lon="-3.056889042653742"><ele>767.8</ele><time>2026-04-21T09:45:40.001Z</time></trkpt><trkpt lat="37.89345815967817" lon="-3.057020122692914"><ele>766.4</ele><time>2026-04-21T09:45:41.001Z</time></trkpt><trkpt lat="37.893518521327046" lon="-3.0571529731842477"><ele>765.0</ele><time>2026-04-21T09:45:42.001Z</time></trkpt><trkpt lat="37.89359676249023" lon="-3.057284954801406"><ele>765.0</ele><time>2026-04-21T09:45:43.002Z</time></trkpt><trkpt lat="37.893662408607646" lon="-3.0574062300217886"><ele>765.0</ele><time>2026-04-21T09:45:44.002Z</time></trkpt><trkpt lat="37.893758540866514" lon="-3.057543312134317"><ele>765.0</ele><time>2026-04-21T09:45:45.002Z</time></trkpt><trkpt lat="37.89384065701401" lon="-3.05768591976724"><ele>765.0</ele><time>2026-04-21T09:45:46.002Z</time></trkpt><trkpt lat="37.89391047921374" lon="-3.0578429970792103"><ele>763.75</ele><time>2026-04-21T09:45:47.002Z</time></trkpt><trkpt lat="37.89396655502357" lon="-3.0580075497449135"><ele>762.5</ele><time>2026-04-21T09:45:48.002Z</time></trkpt><trkpt lat="37.89400909464324" lon="-3.0581702720734456"><ele>761.25</ele><time>2026-04-21T09:45:49.002Z</time></trkpt><trkpt lat="37.89403706447057" lon="-3.058330392918691"><ele>760.0</ele><time>2026-04-21T09:45:50.002Z</time></trkpt><trkpt lat="37.89404983730773" lon="-3.0584890489157717"><ele>758.0</ele><time>2026-04-21T09:45:51.002Z</time></trkpt><trkpt lat="37.89405577037402" lon="-3.0586479389415375"><ele>756.0</ele><time>2026-04-21T09:45:52.002Z</time></trkpt><trkpt lat="37.89404844746828" lon="-3.058805730641584"><ele>754.0</ele><time>2026-04-21T09:45:53.002Z</time></trkpt><trkpt lat="37.8940226694227" lon="-3.0589617287284554"><ele>752.0</ele><time>2026-04-21T09:45:54.002Z</time></trkpt><trkpt lat="37.893989275129094" lon="-3.0591243468641665"><ele>751.0</ele><time>2026-04-21T09:45:55.002Z</time></trkpt><trkpt lat="37.89394329127696" lon="-3.059288753248578"><ele>750.0</ele><time>2026-04-21T09:45:56.002Z</time></trkpt><trkpt lat="37.89388531312434" lon="-3.059453637956416"><ele>749.0</ele><time>2026-04-21T09:45:57.002Z</time></trkpt><trkpt lat="37.893810473580174" lon="-3.05960923306925"><ele>748.0</ele><time>2026-04-21T09:45:58.002Z</time></trkpt><trkpt lat="37.89372058632696" lon="-3.059752091544041"><ele>748.0</ele><time>2026-04-21T09:45:59.002Z</time></trkpt><trkpt lat="37.893624316376304" lon="-3.059880365822046"><ele>748.0</ele><time>2026-04-21T09:46:00.002Z</time></trkpt><trkpt lat="37.893531502132504" lon="-3.0600062053008346"><ele>748.0</ele><time>2026-04-21T09:46:01.002Z</time></trkpt><trkpt lat="37.89341619616738" lon="-3.060117314341964"><ele>748.0</ele><time>2026-04-21T09:46:02.002Z</time></trkpt><trkpt lat="37.8932850803776" lon="-3.0602411115451984"><ele>745.6666666666667</ele><time>2026-04-21T09:46:03.002Z</time></trkpt><trkpt lat="37.89313093005538" lon="-3.0603826143649577"><ele>743.3333333333334</ele><time>2026-04-21T09:46:04.002Z</time></trkpt><trkpt lat="37.892967056004686" lon="-3.0605323408509078"><ele>741.0</ele><time>2026-04-21T09:46:05.002Z</time></trkpt><trkpt lat="37.892802380751114" lon="-3.060681077769847"><ele>741.3333333333334</ele><time>2026-04-21T09:46:06.002Z</time></trkpt><trkpt lat="37.89263401250439" lon="-3.0608320986929995"><ele>741.6666666666667</ele><time>2026-04-21T09:46:07.002Z</time></trkpt><trkpt lat="37.89247336171706" lon="-3.0609777839048595"><ele>742.0</ele><time>2026-04-21T09:46:08.002Z</time></trkpt><trkpt lat="37.89231973855437" lon="-3.061113052339707"><ele>740.3333333333334</ele><time>2026-04-21T09:46:09.002Z</time></trkpt><trkpt lat="37.892163188760705" lon="-3.0612341879339167"><ele>738.6666666666666</ele><time>2026-04-21T09:46:10.002Z</time></trkpt><trkpt lat="37.891992625857185" lon="-3.0613527867345547"><ele>737.0</ele><time>2026-04-21T09:46:11.002Z</time></trkpt><trkpt lat="37.89182092719655" lon="-3.0614719565754087"><ele>735.6666666666666</ele><time>2026-04-21T09:46:12.002Z</time></trkpt><trkpt lat="37.891656390498866" lon="-3.061586155575803"><ele>734.3333333333334</ele><time>2026-04-21T09:46:13.002Z</time></trkpt><trkpt lat="37.891503347458695" lon="-3.0616923771965863"><ele>733.0</ele><time>2026-04-21T09:46:14.002Z</time></trkpt><trkpt lat="37.89135540227077" lon="-3.0617950606422872"><ele>733.0</ele><time>2026-04-21T09:46:15.002Z</time></trkpt><trkpt lat="37.89120510763272" lon="-3.0619001016180714"><ele>733.0</ele><time>2026-04-21T09:46:16.002Z</time></trkpt><trkpt lat="37.89105455630441" lon="-3.0620082190829097"><ele>733.0</ele><time>2026-04-21T09:46:17.002Z</time></trkpt><trkpt lat="37.890913773134194" lon="-3.0621114436856036"><ele>731.5</ele><time>2026-04-21T09:46:18.002Z</time></trkpt><trkpt lat="37.89078293910929" lon="-3.0622073742130542"><ele>730.0</ele><time>2026-04-21T09:46:19.002Z</time></trkpt><trkpt lat="37.89066918554035" lon="-3.06231401512135"><ele>728.5</ele><time>2026-04-21T09:46:20.002Z</time></trkpt><trkpt lat="37.89057476539262" lon="-3.0624502758908156"><ele>727.0</ele><time>2026-04-21T09:46:21.002Z</time></trkpt><trkpt lat="37.890478576215486" lon="-3.062627008240271"><ele>727.0</ele><time>2026-04-21T09:46:22.002Z</time></trkpt><trkpt lat="37.890367152542986" lon="-3.062818677014985"><ele>727.0</ele><time>2026-04-21T09:46:23.002Z</time></trkpt><trkpt lat="37.890256099186146" lon="-3.0630097088043735"><ele>727.0</ele><time>2026-04-21T09:46:24.002Z</time></trkpt><trkpt lat="37.89016150845579" lon="-3.063178785390551"><ele>728.0</ele><time>2026-04-21T09:46:25.002Z</time></trkpt><trkpt lat="37.8900917352928" lon="-3.063336390518444"><ele>729.0</ele><time>2026-04-21T09:46:26.002Z</time></trkpt><trkpt lat="37.89004536602003" lon="-3.0634965488121066"><ele>730.0</ele><time>2026-04-21T09:46:27.003Z</time></trkpt><trkpt lat="37.89002545246573" lon="-3.0636524037549204"><ele>731.0</ele><time>2026-04-21T09:46:28.003Z</time></trkpt><trkpt lat="37.89003776908106" lon="-3.063793515873039"><ele>731.0</ele><time>2026-04-21T09:46:29.003Z</time></trkpt><trkpt lat="37.890093021001455" lon="-3.063945202810368"><ele>731.0</ele><time>2026-04-21T09:46:30.003Z</time></trkpt><trkpt lat="37.89017336402719" lon="-3.0641792956445197"><ele>731.0</ele><time>2026-04-21T09:46:31.003Z</time></trkpt><trkpt lat="37.890266887177496" lon="-3.064371045580202"><ele>729.6666666666666</ele><time>2026-04-21T09:46:32.003Z</time></trkpt><trkpt lat="37.89034733017701" lon="-3.064596088826113"><ele>728.3333333333334</ele><time>2026-04-21T09:46:33.003Z</time></trkpt><trkpt lat="37.89043891057251" lon="-3.0648164894940315"><ele>727.0</ele><time>2026-04-21T09:46:34.003Z</time></trkpt><trkpt lat="37.890521050994295" lon="-3.0650166257316247"><ele>723.0</ele><time>2026-04-21T09:46:35.003Z</time></trkpt><trkpt lat="37.890598640008776" lon="-3.065209953683219"><ele>719.0</ele><time>2026-04-21T09:46:36.002Z</time></trkpt><trkpt lat="37.890665733271085" lon="-3.0653939759075635"><ele>715.0</ele><time>2026-04-21T09:46:37.002Z</time></trkpt><trkpt lat="37.89070587250748" lon="-3.065592592402919"><ele>712.3333333333334</ele><time>2026-04-21T09:46:38.002Z</time></trkpt><trkpt lat="37.89072250380196" lon="-3.065807677430561"><ele>709.6666666666666</ele><time>2026-04-21T09:46:39.002Z</time></trkpt><trkpt lat="37.890711833806016" lon="-3.0660438733428026"><ele>707.0</ele><time>2026-04-21T09:46:40.002Z</time></trkpt><trkpt lat="37.89067512013523" lon="-3.0662953940073243"><ele>707.0</ele><time>2026-04-21T09:46:41.002Z</time></trkpt><trkpt lat="37.8906326415428" lon="-3.0665570270716556"><ele>707.0</ele><time>2026-04-21T09:46:42.002Z</time></trkpt><trkpt lat="37.89061096777493" lon="-3.0668367814465647"><ele>707.0</ele><time>2026-04-21T09:46:43.002Z</time></trkpt><trkpt lat="37.89057610232965" lon="-3.0671145562896545"><ele>705.6666666666666</ele><time>2026-04-21T09:46:44.002Z</time></trkpt><trkpt lat="37.890540877131265" lon="-3.0673951972702747"><ele>704.3333333333334</ele><time>2026-04-21T09:46:45.002Z</time></trkpt><trkpt lat="37.89050913228135" lon="-3.0676481103434483"><ele>703.0</ele><time>2026-04-21T09:46:46.002Z</time></trkpt><trkpt lat="37.89047812809185" lon="-3.0678951224962376"><ele>702.0</ele><time>2026-04-21T09:46:47.002Z</time></trkpt><trkpt lat="37.890449806022794" lon="-3.0681294093099147"><ele>701.0</ele><time>2026-04-21T09:46:48.002Z</time></trkpt><trkpt lat="37.89042487526322" lon="-3.06834993958011"><ele>700.0</ele><time>2026-04-21T09:46:49.002Z</time></trkpt><trkpt lat="37.89039828890439" lon="-3.06857090422706"><ele>699.6666666666667</ele><time>2026-04-21T09:46:50.002Z</time></trkpt><trkpt lat="37.890364031684776" lon="-3.068795815922201"><ele>699.3333333333334</ele><time>2026-04-21T09:46:51.002Z</time></trkpt><trkpt lat="37.89029884245638" lon="-3.0690111795343507"><ele>699.0</ele><time>2026-04-21T09:46:52.002Z</time></trkpt><trkpt lat="37.89024023483631" lon="-3.0692245437380605"><ele>697.6666666666666</ele><time>2026-04-21T09:46:53.002Z</time></trkpt><trkpt lat="37.89018389882698" lon="-3.069418991256741"><ele>696.3333333333333</ele><time>2026-04-21T09:46:54.002Z</time></trkpt><trkpt lat="37.890140543928005" lon="-3.0696018684869437"><ele>695.0</ele><time>2026-04-21T09:46:55.002Z</time></trkpt><trkpt lat="37.89006736618665" lon="-3.069752952281681"><ele>694.0</ele><time>2026-04-21T09:46:56.002Z</time></trkpt><trkpt lat="37.889977830393065" lon="-3.069887075020919"><ele>693.0</ele><time>2026-04-21T09:46:57.002Z</time></trkpt><trkpt lat="37.88982544237474" lon="-3.0699647950034272"><ele>692.0</ele><time>2026-04-21T09:46:58.002Z</time></trkpt><trkpt lat="37.889664168533976" lon="-3.0700262333573454"><ele>691.6666666666666</ele><time>2026-04-21T09:46:59.002Z</time></trkpt><trkpt lat="37.88948004432063" lon="-3.070061749980863"><ele>691.3333333333334</ele><time>2026-04-21T09:47:00.002Z</time></trkpt><trkpt lat="37.88928520309301" lon="-3.070126944089794"><ele>691.0</ele><time>2026-04-21T09:47:01.002Z</time></trkpt><trkpt lat="37.889084527667016" lon="-3.070179234371961"><ele>689.3333333333334</ele><time>2026-04-21T09:47:02.002Z</time></trkpt><trkpt lat="37.88887839994238" lon="-3.0702329453712767"><ele>687.6666666666666</ele><time>2026-04-21T09:47:03.002Z</time></trkpt><trkpt lat="37.88867641184281" lon="-3.070285291639208"><ele>686.0</ele><time>2026-04-21T09:47:04.002Z</time></trkpt><trkpt lat="37.88847520494959" lon="-3.0703378555814385"><ele>684.6666666666666</ele><time>2026-04-21T09:47:05.002Z</time></trkpt><trkpt lat="37.888268938476564" lon="-3.0703900929208157"><ele>683.3333333333334</ele><time>2026-04-21T09:47:06.002Z</time></trkpt><trkpt lat="37.88806651247046" lon="-3.070449747550256"><ele>682.0</ele><time>2026-04-21T09:47:07.002Z</time></trkpt><trkpt lat="37.88786163062145" lon="-3.0705080381394536"><ele>682.0</ele><time>2026-04-21T09:47:08.002Z</time></trkpt><trkpt lat="37.88765334114837" lon="-3.0705648744989085"><ele>682.0</ele><time>2026-04-21T09:47:09.001Z</time></trkpt><trkpt lat="37.88743987803242" lon="-3.0706210558907574"><ele>682.0</ele><time>2026-04-21T09:47:10.001Z</time></trkpt><trkpt lat="37.88722814964475" lon="-3.0706754772040274"><ele>682.0</ele><time>2026-04-21T09:47:11.001Z</time></trkpt><trkpt lat="37.88701610072982" lon="-3.0707310350363737"><ele>682.0</ele><time>2026-04-21T09:47:12.001Z</time></trkpt><trkpt lat="37.88680364106005" lon="-3.070793079823523"><ele>682.0</ele><time>2026-04-21T09:47:13.001Z</time></trkpt><trkpt lat="37.886596010552815" lon="-3.070856232810498"><ele>682.0</ele><time>2026-04-21T09:47:14.001Z</time></trkpt><trkpt lat="37.88639569079671" lon="-3.0709175117158525"><ele>682.0</ele><time>2026-04-21T09:47:15.001Z</time></trkpt><trkpt lat="37.8862009059408" lon="-3.0709805546747337"><ele>682.0</ele><time>2026-04-21T09:47:16.001Z</time></trkpt><trkpt lat="37.886005487679114" lon="-3.071043802604509"><ele>682.3333333333334</ele><time>2026-04-21T09:47:17.001Z</time></trkpt><trkpt lat="37.885808206996344" lon="-3.0711100631620116"><ele>682.6666666666666</ele><time>2026-04-21T09:47:18.001Z</time></trkpt><trkpt lat="37.88560795064909" lon="-3.071178651377946"><ele>683.0</ele><time>2026-04-21T09:47:19.001Z</time></trkpt><trkpt lat="37.885410492542654" lon="-3.07124896816461"><ele>683.0</ele><time>2026-04-21T09:47:20.001Z</time></trkpt><trkpt lat="37.885211798296545" lon="-3.0713197264945995"><ele>683.0</ele><time>2026-04-21T09:47:21.002Z</time></trkpt><trkpt lat="37.885010594588806" lon="-3.0713866851215803"><ele>683.0</ele><time>2026-04-21T09:47:22.002Z</time></trkpt><trkpt lat="37.88481352197244" lon="-3.0714517182237544"><ele>684.6666666666666</ele><time>2026-04-21T09:47:23.002Z</time></trkpt><trkpt lat="37.88461402279072" lon="-3.0715196401818186"><ele>686.3333333333334</ele><time>2026-04-21T09:47:24.002Z</time></trkpt><trkpt lat="37.88441544586636" lon="-3.0715878935849688"><ele>688.0</ele><time>2026-04-21T09:47:25.002Z</time></trkpt><trkpt lat="37.88421429353679" lon="-3.0716491336099483"><ele>689.0</ele><time>2026-04-21T09:47:26.002Z</time></trkpt><trkpt lat="37.88401014986548" lon="-3.0716955337333642"><ele>690.0</ele><time>2026-04-21T09:47:27.002Z</time></trkpt><trkpt lat="37.88380336968651" lon="-3.071740019742046"><ele>691.0</ele><time>2026-04-21T09:47:28.002Z</time></trkpt><trkpt lat="37.88359302111465" lon="-3.0717837018807095"><ele>691.6666666666667</ele><time>2026-04-21T09:47:29.002Z</time></trkpt><trkpt lat="37.88338204858097" lon="-3.071820838916137"><ele>692.3333333333334</ele><time>2026-04-21T09:47:30.002Z</time></trkpt><trkpt lat="37.883166381833014" lon="-3.071852902399677"><ele>693.0</ele><time>2026-04-21T09:47:31.002Z</time></trkpt><trkpt lat="37.88295029475944" lon="-3.0718713472952817"><ele>693.0</ele><time>2026-04-21T09:47:32.002Z</time></trkpt><trkpt lat="37.88273414582334" lon="-3.0718771181765776"><ele>693.0</ele><time>2026-04-21T09:47:33.002Z</time></trkpt><trkpt lat="37.8825220927083" lon="-3.07188698928244"><ele>693.0</ele><time>2026-04-21T09:47:34.002Z</time></trkpt><trkpt lat="37.882305907617905" lon="-3.071897052734222"><ele>693.6666666666666</ele><time>2026-04-21T09:47:35.002Z</time></trkpt><trkpt lat="37.88209648207265" lon="-3.071906688335581"><ele>694.3333333333333</ele><time>2026-04-21T09:47:36.002Z</time></trkpt><trkpt lat="37.881885829411374" lon="-3.071914597801247"><ele>695.0</ele><time>2026-04-21T09:47:37.002Z</time></trkpt><trkpt lat="37.88167377736904" lon="-3.0719225598098356"><ele>695.3333333333333</ele><time>2026-04-21T09:47:38.002Z</time></trkpt><trkpt lat="37.8814634548978" lon="-3.0719333014278924"><ele>695.6666666666666</ele><time>2026-04-21T09:47:39.002Z</time></trkpt><trkpt lat="37.88125237916676" lon="-3.0719449675375037"><ele>696.0</ele><time>2026-04-21T09:47:40.002Z</time></trkpt><trkpt lat="37.88103906263082" lon="-3.071952298093035"><ele>697.0</ele><time>2026-04-21T09:47:41.002Z</time></trkpt><trkpt lat="37.8808284073015" lon="-3.0719568174346645"><ele>698.0</ele><time>2026-04-21T09:47:42.002Z</time></trkpt><trkpt lat="37.880618770133324" lon="-3.071964960266464"><ele>699.0</ele><time>2026-04-21T09:47:43.002Z</time></trkpt><trkpt lat="37.88041185822738" lon="-3.071972943686261"><ele>699.0</ele><time>2026-04-21T09:47:44.002Z</time></trkpt><trkpt lat="37.88019825127471" lon="-3.0719808457146307"><ele>699.0</ele><time>2026-04-21T09:47:45.002Z</time></trkpt><trkpt lat="37.879983383781585" lon="-3.0719850208026607"><ele>699.0</ele><time>2026-04-21T09:47:46.002Z</time></trkpt><trkpt lat="37.87976428309561" lon="-3.0719964222564182"><ele>700.0</ele><time>2026-04-21T09:47:47.002Z</time></trkpt><trkpt lat="37.87954074700639" lon="-3.072012186010598"><ele>701.0</ele><time>2026-04-21T09:47:48.002Z</time></trkpt><trkpt lat="37.879316641996915" lon="-3.0720351106216164"><ele>702.0</ele><time>2026-04-21T09:47:49.002Z</time></trkpt><trkpt lat="37.87909078910584" lon="-3.07206099789884"><ele>706.5</ele><time>2026-04-21T09:47:50.002Z</time></trkpt><trkpt lat="37.878866409814" lon="-3.0720867162695833"><ele>711.0</ele><time>2026-04-21T09:47:51.002Z</time></trkpt><trkpt lat="37.87863675431552" lon="-3.0721130394028378"><ele>715.5</ele><time>2026-04-21T09:47:52.002Z</time></trkpt><trkpt lat="37.878407725528724" lon="-3.072139290700829"><ele>720.0</ele><time>2026-04-21T09:47:53.002Z</time></trkpt><trkpt lat="37.87817676203378" lon="-3.0721649755282523"><ele>720.0</ele><time>2026-04-21T09:47:54.002Z</time></trkpt><trkpt lat="37.87794660226556" lon="-3.0721905220525554"><ele>720.0</ele><time>2026-04-21T09:47:55.002Z</time></trkpt><trkpt lat="37.877716882121696" lon="-3.0722160197824397"><ele>720.6666666666666</ele><time>2026-04-21T09:47:56.002Z</time></trkpt><trkpt lat="37.87748830095225" lon="-3.072241391093143"><ele>721.3333333333333</ele><time>2026-04-21T09:47:57.002Z</time></trkpt><trkpt lat="37.87727151926781" lon="-3.0722626799962036"><ele>722.0</ele><time>2026-04-21T09:47:58.002Z</time></trkpt><trkpt lat="37.877075917990005" lon="-3.0722565642944186"><ele>722.0</ele><time>2026-04-21T09:47:59.002Z</time></trkpt><trkpt lat="37.876877817834554" lon="-3.0722561768030188"><ele>722.0</ele><time>2026-04-21T09:48:00.002Z</time></trkpt><trkpt lat="37.87666818845955" lon="-3.0722570796229696"><ele>722.0</ele><time>2026-04-21T09:48:01.002Z</time></trkpt><trkpt lat="37.87646042392182" lon="-3.072215732481031"><ele>722.0</ele><time>2026-04-21T09:48:02.002Z</time></trkpt><trkpt lat="37.87624769379523" lon="-3.0721548420677847"><ele>722.0</ele><time>2026-04-21T09:48:03.002Z</time></trkpt><trkpt lat="37.876030678903" lon="-3.0720736419234447"><ele>722.0</ele><time>2026-04-21T09:48:04.002Z</time></trkpt><trkpt lat="37.87580922597382" lon="-3.0719776216370147"><ele>721.0</ele><time>2026-04-21T09:48:05.002Z</time></trkpt><trkpt lat="37.87558418722295" lon="-3.0718805721673843"><ele>720.0</ele><time>2026-04-21T09:48:06.002Z</time></trkpt><trkpt lat="37.87535779430578" lon="-3.071782939986178"><ele>720.0</ele><time>2026-04-21T09:48:07.002Z</time></trkpt><trkpt lat="37.87513033724368" lon="-3.0716848488931356"><ele>720.0</ele><time>2026-04-21T09:48:08.002Z</time></trkpt><trkpt lat="37.87490889568497" lon="-3.071589351991619"><ele>720.0</ele><time>2026-04-21T09:48:09.002Z</time></trkpt><trkpt lat="37.87468503709692" lon="-3.0714761884701702"><ele>720.0</ele><time>2026-04-21T09:48:10.002Z</time></trkpt><trkpt lat="37.87445822912931" lon="-3.071377540249977"><ele>716.0</ele><time>2026-04-21T09:48:11.002Z</time></trkpt><trkpt lat="37.874229482194636" lon="-3.071294705509717"><ele>712.0</ele><time>2026-04-21T09:48:12.002Z</time></trkpt><trkpt lat="37.87400651466155" lon="-3.071194634337801"><ele>712.0</ele><time>2026-04-21T09:48:13.002Z</time></trkpt><trkpt lat="37.87380164443757" lon="-3.0710317478026252"><ele>712.0</ele><time>2026-04-21T09:48:14.002Z</time></trkpt><trkpt lat="37.87358485086637" lon="-3.0709162117354065"><ele>711.6666666666667</ele><time>2026-04-21T09:48:15.002Z</time></trkpt><trkpt lat="37.87337782475169" lon="-3.0708026025216384"><ele>711.3333333333334</ele><time>2026-04-21T09:48:16.002Z</time></trkpt><trkpt lat="37.87317447934457" lon="-3.0706939232868264"><ele>711.0</ele><time>2026-04-21T09:48:17.002Z</time></trkpt><trkpt lat="37.872978583247814" lon="-3.0705999290853034"><ele>711.0</ele><time>2026-04-21T09:48:18.002Z</time></trkpt><trkpt lat="37.872779698229614" lon="-3.070493342646204"><ele>711.0</ele><time>2026-04-21T09:48:19.002Z</time></trkpt><trkpt lat="37.87257860876375" lon="-3.0703802235238133"><ele>711.0</ele><time>2026-04-21T09:48:20.002Z</time></trkpt><trkpt lat="37.87237981201807" lon="-3.0702653869159255"><ele>709.6666666666666</ele><time>2026-04-21T09:48:21.002Z</time></trkpt><trkpt lat="37.87217681582622" lon="-3.0701516575908863"><ele>708.3333333333333</ele><time>2026-04-21T09:48:22.002Z</time></trkpt><trkpt lat="37.87197193934416" lon="-3.0700395770174835"><ele>707.0</ele><time>2026-04-21T09:48:23.002Z</time></trkpt><trkpt lat="37.87177354145507" lon="-3.069930810550195"><ele>707.0</ele><time>2026-04-21T09:48:24.002Z</time></trkpt><trkpt lat="37.87157215178623" lon="-3.0698243292081964"><ele>707.0</ele><time>2026-04-21T09:48:25.002Z</time></trkpt><trkpt lat="37.8713701476901" lon="-3.0697163627622186"><ele>707.0</ele><time>2026-04-21T09:48:26.002Z</time></trkpt><trkpt lat="37.87116538769383" lon="-3.069607458632198"><ele>707.0</ele><time>2026-04-21T09:48:27.002Z</time></trkpt><trkpt lat="37.870962468626985" lon="-3.0694959696780173"><ele>707.0</ele><time>2026-04-21T09:48:28.002Z</time></trkpt><trkpt lat="37.87076190665577" lon="-3.069383186221099"><ele>707.0</ele><time>2026-04-21T09:48:29.002Z</time></trkpt><trkpt lat="37.87056278590082" lon="-3.0692700306051246"><ele>707.0</ele><time>2026-04-21T09:48:30.002Z</time></trkpt><trkpt lat="37.870363170400054" lon="-3.069156133507588"><ele>707.0</ele><time>2026-04-21T09:48:31.002Z</time></trkpt><trkpt lat="37.87016276215444" lon="-3.0690320943239096"><ele>707.0</ele><time>2026-04-21T09:48:32.002Z</time></trkpt><trkpt lat="37.86996448322697" lon="-3.0688992681985376"><ele>707.3333333333333</ele><time>2026-04-21T09:48:33.003Z</time></trkpt><trkpt lat="37.869769936118935" lon="-3.068766741225812"><ele>707.6666666666666</ele><time>2026-04-21T09:48:34.003Z</time></trkpt><trkpt lat="37.86957534893423" lon="-3.068633790600406"><ele>708.0</ele><time>2026-04-21T09:48:35.003Z</time></trkpt><trkpt lat="37.869379446493824" lon="-3.0685025928377034"><ele>708.0</ele><time>2026-04-21T09:48:36.003Z</time></trkpt><trkpt lat="37.86918704903106" lon="-3.0683791121152155"><ele>708.0</ele><time>2026-04-21T09:48:37.003Z</time></trkpt><trkpt lat="37.86900188630038" lon="-3.0682566329354257"><ele>708.0</ele><time>2026-04-21T09:48:38.003Z</time></trkpt><trkpt lat="37.86882811940675" lon="-3.0681400936321936"><ele>708.0</ele><time>2026-04-21T09:48:39.003Z</time></trkpt><trkpt lat="37.8686631526733" lon="-3.06802537921783"><ele>708.0</ele><time>2026-04-21T09:48:40.003Z</time></trkpt><trkpt lat="37.86850307614331" lon="-3.0679156317324394"><ele>708.0</ele><time>2026-04-21T09:48:41.003Z</time></trkpt><trkpt lat="37.86833981718746" lon="-3.0678074718729498"><ele>705.3333333333334</ele><time>2026-04-21T09:48:42.002Z</time></trkpt><trkpt lat="37.868177623481714" lon="-3.067704562589086"><ele>702.6666666666667</ele><time>2026-04-21T09:48:43.002Z</time></trkpt><trkpt lat="37.86800381836511" lon="-3.0676067107925187"><ele>700.0</ele><time>2026-04-21T09:48:44.002Z</time></trkpt><trkpt lat="37.867816423688645" lon="-3.067523682740534"><ele>700.0</ele><time>2026-04-21T09:48:45.002Z</time></trkpt><trkpt lat="37.8676183105268" lon="-3.0674616542607773"><ele>700.0</ele><time>2026-04-21T09:48:46.002Z</time></trkpt><trkpt lat="37.86741732479838" lon="-3.0673968074652858"><ele>700.0</ele><time>2026-04-21T09:48:47.002Z</time></trkpt><trkpt lat="37.86722662908329" lon="-3.067333078384491"><ele>700.3333333333334</ele><time>2026-04-21T09:48:48.002Z</time></trkpt><trkpt lat="37.867046303764894" lon="-3.0672818491302216"><ele>700.6666666666666</ele><time>2026-04-21T09:48:49.002Z</time></trkpt><trkpt lat="37.866865919870534" lon="-3.0672386683968105"><ele>701.0</ele><time>2026-04-21T09:48:50.002Z</time></trkpt><trkpt lat="37.86668176049272" lon="-3.0672235304429907"><ele>699.6666666666666</ele><time>2026-04-21T09:48:51.002Z</time></trkpt><trkpt lat="37.866499993235344" lon="-3.0672420413465566"><ele>698.3333333333334</ele><time>2026-04-21T09:48:52.002Z</time></trkpt><trkpt lat="37.8663233381693" lon="-3.067278978638796"><ele>697.0</ele><time>2026-04-21T09:48:53.002Z</time></trkpt><trkpt lat="37.86614762031007" lon="-3.0673406810390267"><ele>697.0</ele><time>2026-04-21T09:48:54.002Z</time></trkpt><trkpt lat="37.86597559318436" lon="-3.067426479197209"><ele>697.0</ele><time>2026-04-21T09:48:55.002Z</time></trkpt><trkpt lat="37.8658102952653" lon="-3.0675408553111185"><ele>697.0</ele><time>2026-04-21T09:48:56.002Z</time></trkpt><trkpt lat="37.86566289661717" lon="-3.067696858371186"><ele>694.6666666666667</ele><time>2026-04-21T09:48:57.002Z</time></trkpt><trkpt lat="37.865515278745086" lon="-3.0678652559410913"><ele>692.3333333333334</ele><time>2026-04-21T09:48:58.002Z</time></trkpt><trkpt lat="37.86538461340436" lon="-3.068056192956081"><ele>690.0</ele><time>2026-04-21T09:48:59.002Z</time></trkpt><trkpt lat="37.8652793125979" lon="-3.0682694825208143"><ele>689.6666666666666</ele><time>2026-04-21T09:49:00.002Z</time></trkpt><trkpt lat="37.86519283573722" lon="-3.0684935346199076"><ele>689.3333333333333</ele><time>2026-04-21T09:49:01.002Z</time></trkpt><trkpt lat="37.86512793714186" lon="-3.06873111829419"><ele>689.0</ele><time>2026-04-21T09:49:02.002Z</time></trkpt><trkpt lat="37.86509394270883" lon="-3.0689852102282975"><ele>688.3333333333333</ele><time>2026-04-21T09:49:03.002Z</time></trkpt><trkpt lat="37.86508226260278" lon="-3.069237541064132"><ele>687.6666666666666</ele><time>2026-04-21T09:49:04.001Z</time></trkpt><trkpt lat="37.86509083732114" lon="-3.0695009185633824"><ele>687.0</ele><time>2026-04-21T09:49:05.001Z</time></trkpt><trkpt lat="37.86511999179226" lon="-3.069761926604296"><ele>684.0</ele><time>2026-04-21T09:49:06.001Z</time></trkpt><trkpt lat="37.86516425916189" lon="-3.070029416924734"><ele>681.0</ele><time>2026-04-21T09:49:07.001Z</time></trkpt><trkpt lat="37.86522376235153" lon="-3.070304087430852"><ele>678.0</ele><time>2026-04-21T09:49:08.001Z</time></trkpt><trkpt lat="37.86527652309951" lon="-3.0705687152209373"><ele>677.0</ele><time>2026-04-21T09:49:09.001Z</time></trkpt><trkpt lat="37.865325563630726" lon="-3.0708277999202607"><ele>676.0</ele><time>2026-04-21T09:49:10.001Z</time></trkpt><trkpt lat="37.86537716481001" lon="-3.0710788116600938"><ele>675.0</ele><time>2026-04-21T09:49:11.001Z</time></trkpt><trkpt lat="37.865432334398776" lon="-3.071316825395855"><ele>675.0</ele><time>2026-04-21T09:49:12.001Z</time></trkpt><trkpt lat="37.86548190601317" lon="-3.071546065724518"><ele>675.0</ele><time>2026-04-21T09:49:13.001Z</time></trkpt><trkpt lat="37.86552381182928" lon="-3.0717675437015823"><ele>675.0</ele><time>2026-04-21T09:49:14.001Z</time></trkpt><trkpt lat="37.865547645254175" lon="-3.071996675924887"><ele>675.0</ele><time>2026-04-21T09:49:15.001Z</time></trkpt><trkpt lat="37.865543379764766" lon="-3.0722387063954097"><ele>675.0</ele><time>2026-04-21T09:49:16.001Z</time></trkpt><trkpt lat="37.86552055946903" lon="-3.0724913476625377"><ele>675.0</ele><time>2026-04-21T09:49:17.001Z</time></trkpt><trkpt lat="37.86550455901509" lon="-3.072743183298697"><ele>672.3333333333334</ele><time>2026-04-21T09:49:18.001Z</time></trkpt><trkpt lat="37.86553332612552" lon="-3.072965826344033"><ele>669.6666666666667</ele><time>2026-04-21T09:49:19.001Z</time></trkpt><trkpt lat="37.865564582590494" lon="-3.0731750013660286"><ele>667.0</ele><time>2026-04-21T09:49:20.001Z</time></trkpt><trkpt lat="37.865614682551396" lon="-3.073382750001877"><ele>665.3333333333334</ele><time>2026-04-21T09:49:21.001Z</time></trkpt><trkpt lat="37.86566892526563" lon="-3.073589943063774"><ele>663.6666666666666</ele><time>2026-04-21T09:49:22.001Z</time></trkpt><trkpt lat="37.865695373873805" lon="-3.0737929502107724"><ele>662.0</ele><time>2026-04-21T09:49:23.001Z</time></trkpt><trkpt lat="37.865708730526414" lon="-3.073949697273865"><ele>662.0</ele><time>2026-04-21T09:49:24.001Z</time></trkpt><trkpt lat="37.86569249956085" lon="-3.074109702232505"><ele>662.0</ele><time>2026-04-21T09:49:25.001Z</time></trkpt><trkpt lat="37.86563534222534" lon="-3.074288547467355"><ele>662.0</ele><time>2026-04-21T09:49:26.001Z</time></trkpt><trkpt lat="37.86554483312334" lon="-3.074460831799635"><ele>662.0</ele><time>2026-04-21T09:49:27.001Z</time></trkpt><trkpt lat="37.865426350849916" lon="-3.074626346733336"><ele>662.0</ele><time>2026-04-21T09:49:28.001Z</time></trkpt><trkpt lat="37.86533572918531" lon="-3.0748214604251203"><ele>662.0</ele><time>2026-04-21T09:49:29.001Z</time></trkpt><trkpt lat="37.865252132727434" lon="-3.075016228917883"><ele>662.0</ele><time>2026-04-21T09:49:30.001Z</time></trkpt><trkpt lat="37.86518009995384" lon="-3.075215166453517"><ele>660.3333333333333</ele><time>2026-04-21T09:49:31.001Z</time></trkpt><trkpt lat="37.86513026371278" lon="-3.0754064443918208"><ele>658.6666666666666</ele><time>2026-04-21T09:49:32.001Z</time></trkpt><trkpt lat="37.865109781876235" lon="-3.0756025118611903"><ele>657.0</ele><time>2026-04-21T09:49:33.001Z</time></trkpt><trkpt lat="37.86509508452206" lon="-3.0758215838541765"><ele>653.6666666666666</ele><time>2026-04-21T09:49:34.001Z</time></trkpt><trkpt lat="37.8650608759542" lon="-3.076039074494183"><ele>650.3333333333333</ele><time>2026-04-21T09:49:35.001Z</time></trkpt><trkpt lat="37.86501144079083" lon="-3.0762501698620075"><ele>647.0</ele><time>2026-04-21T09:49:36.001Z</time></trkpt><trkpt lat="37.864934337438086" lon="-3.0764566084852247"><ele>645.6666666666666</ele><time>2026-04-21T09:49:37.001Z</time></trkpt><trkpt lat="37.864857878567236" lon="-3.0766773054584777"><ele>644.3333333333334</ele><time>2026-04-21T09:49:38.001Z</time></trkpt><trkpt lat="37.864764185708374" lon="-3.0769025366871374"><ele>643.0</ele><time>2026-04-21T09:49:39.001Z</time></trkpt><trkpt lat="37.86466253226764" lon="-3.077135379788183"><ele>643.0</ele><time>2026-04-21T09:49:40.001Z</time></trkpt><trkpt lat="37.86455358446972" lon="-3.0773722286949288"><ele>643.0</ele><time>2026-04-21T09:49:41.001Z</time></trkpt><trkpt lat="37.86443963210058" lon="-3.0776138992626803"><ele>643.0</ele><time>2026-04-21T09:49:42.001Z</time></trkpt><trkpt lat="37.86431842573941" lon="-3.077866548839825"><ele>636.5</ele><time>2026-04-21T09:49:43.001Z</time></trkpt><trkpt lat="37.86419514113964" lon="-3.078120787036533"><ele>630.0</ele><time>2026-04-21T09:49:44.001Z</time></trkpt><trkpt lat="37.864068208268876" lon="-3.078375920146671"><ele>628.0</ele><time>2026-04-21T09:49:45.001Z</time></trkpt><trkpt lat="37.863948627681374" lon="-3.0786156296151486"><ele>626.0</ele><time>2026-04-21T09:49:46.001Z</time></trkpt><trkpt lat="37.86382750016383" lon="-3.0788548930553183"><ele>624.0</ele><time>2026-04-21T09:49:47.001Z</time></trkpt><trkpt lat="37.86371154573763" lon="-3.079083793333571"><ele>624.0</ele><time>2026-04-21T09:49:48.001Z</time></trkpt><trkpt lat="37.86359708030962" lon="-3.0793097572017527"><ele>624.0</ele><time>2026-04-21T09:49:49.001Z</time></trkpt><trkpt lat="37.86348069689572" lon="-3.079543464687629"><ele>624.0</ele><time>2026-04-21T09:49:50.001Z</time></trkpt><trkpt lat="37.8633630854309" lon="-3.0797763705898147"><ele>621.3333333333334</ele><time>2026-04-21T09:49:51.001Z</time></trkpt><trkpt lat="37.86324805177939" lon="-3.0800003942303724"><ele>618.6666666666667</ele><time>2026-04-21T09:49:52.001Z</time></trkpt><trkpt lat="37.86314013298007" lon="-3.080210502974792"><ele>616.0</ele><time>2026-04-21T09:49:53.001Z</time></trkpt><trkpt lat="37.863042053091114" lon="-3.0804040058193762"><ele>616.0</ele><time>2026-04-21T09:49:54.001Z</time></trkpt><trkpt lat="37.86295597949685" lon="-3.0805851241265585"><ele>616.0</ele><time>2026-04-21T09:49:55.001Z</time></trkpt><trkpt lat="37.86289669888039" lon="-3.0807613362528077"><ele>616.0</ele><time>2026-04-21T09:49:56.001Z</time></trkpt><trkpt lat="37.86287719035806" lon="-3.0809308194214546"><ele>614.3333333333334</ele><time>2026-04-21T09:49:57.001Z</time></trkpt><trkpt lat="37.86289803507004" lon="-3.0811077580058925"><ele>612.6666666666666</ele><time>2026-04-21T09:49:58.001Z</time></trkpt><trkpt lat="37.86293938118594" lon="-3.081313519554016"><ele>611.0</ele><time>2026-04-21T09:49:59.001Z</time></trkpt><trkpt lat="37.862997127871836" lon="-3.0815436271805594"><ele>610.0</ele><time>2026-04-21T09:50:00.001Z</time></trkpt><trkpt lat="37.86304779832059" lon="-3.0817998507674633"><ele>609.0</ele><time>2026-04-21T09:50:01.001Z</time></trkpt><trkpt lat="37.8631124533667" lon="-3.0820589619259935"><ele>608.0</ele><time>2026-04-21T09:50:02.001Z</time></trkpt><trkpt lat="37.86317463742862" lon="-3.0823095703011862"><ele>607.6666666666666</ele><time>2026-04-21T09:50:03.001Z</time></trkpt><trkpt lat="37.86322643473008" lon="-3.0825593595656904"><ele>607.3333333333334</ele><time>2026-04-21T09:50:04.001Z</time></trkpt><trkpt lat="37.86328093629467" lon="-3.0828049262418813"><ele>607.0</ele><time>2026-04-21T09:50:05.001Z</time></trkpt><trkpt lat="37.863305704481675" lon="-3.0830471679212827"><ele>606.6666666666667</ele><time>2026-04-21T09:50:06.001Z</time></trkpt><trkpt lat="37.86332642104437" lon="-3.083273293416817"><ele>606.3333333333334</ele><time>2026-04-21T09:50:07.001Z</time></trkpt><trkpt lat="37.863343650094805" lon="-3.0834841309462275"><ele>606.0</ele><time>2026-04-21T09:50:08.001Z</time></trkpt><trkpt lat="37.863360145662014" lon="-3.0836859925769264"><ele>606.0</ele><time>2026-04-21T09:50:09.001Z</time></trkpt><trkpt lat="37.863374831873664" lon="-3.083858279807907"><ele>606.0</ele><time>2026-04-21T09:50:10.001Z</time></trkpt><trkpt lat="37.86337678327549" lon="-3.0840111328268422"><ele>606.0</ele><time>2026-04-21T09:50:11.001Z</time></trkpt><trkpt lat="37.86339535756917" lon="-3.084139826882062"><ele>606.0</ele><time>2026-04-21T09:50:12.001Z</time></trkpt><trkpt lat="37.86341594281546" lon="-3.084250520787862"><ele>605.6666666666666</ele><time>2026-04-21T09:50:13.001Z</time></trkpt><trkpt lat="37.86343540602877" lon="-3.0843597104048412"><ele>605.3333333333334</ele><time>2026-04-21T09:50:14.001Z</time></trkpt><trkpt lat="37.86346256983397" lon="-3.0844703792195522"><ele>605.0</ele><time>2026-04-21T09:50:15.001Z</time></trkpt><trkpt lat="37.86349741018006" lon="-3.084585197351323"><ele>604.6666666666667</ele><time>2026-04-21T09:50:16.001Z</time></trkpt><trkpt lat="37.86352521796421" lon="-3.084688628850907"><ele>604.3333333333334</ele><time>2026-04-21T09:50:17.001Z</time></trkpt><trkpt lat="37.86352365989318" lon="-3.0847743427739207"><ele>604.0</ele><time>2026-04-21T09:50:18.001Z</time></trkpt><trkpt lat="37.863508350122316" lon="-3.0848586886865723"><ele>604.0</ele><time>2026-04-21T09:50:19.001Z</time></trkpt><trkpt lat="37.863444944447785" lon="-3.084930814062462"><ele>604.0</ele><time>2026-04-21T09:50:20.001Z</time></trkpt><trkpt lat="37.863355140339195" lon="-3.084975574552029"><ele>604.0</ele><time>2026-04-21T09:50:21.001Z</time></trkpt><trkpt lat="37.86323469933554" lon="-3.084947298915221"><ele>604.0</ele><time>2026-04-21T09:50:22.001Z</time></trkpt><trkpt lat="37.86311348551907" lon="-3.084919051722353"><ele>604.0</ele><time>2026-04-21T09:50:23.001Z</time></trkpt><trkpt lat="37.86298881072346" lon="-3.0848757763546084"><ele>604.0</ele><time>2026-04-21T09:50:24.001Z</time></trkpt><trkpt lat="37.86284824165375" lon="-3.084850421604182"><ele>604.0</ele><time>2026-04-21T09:50:25.001Z</time></trkpt><trkpt lat="37.86270037424688" lon="-3.084897812181398"><ele>604.0</ele><time>2026-04-21T09:50:26.001Z</time></trkpt><trkpt lat="37.86254044750738" lon="-3.084943303242851"><ele>602.75</ele><time>2026-04-21T09:50:27.001Z</time></trkpt><trkpt lat="37.86237997761853" lon="-3.0849786023388215"><ele>601.5</ele><time>2026-04-21T09:50:28.001Z</time></trkpt><trkpt lat="37.86224349394327" lon="-3.085027904984474"><ele>600.25</ele><time>2026-04-21T09:50:29.001Z</time></trkpt><trkpt lat="37.86211785182484" lon="-3.0850699313277694"><ele>599.0</ele><time>2026-04-21T09:50:30.001Z</time></trkpt><trkpt lat="37.86200139762908" lon="-3.085104291788923"><ele>599.0</ele><time>2026-04-21T09:50:31.001Z</time></trkpt><trkpt lat="37.86189190353397" lon="-3.0851481119906525"><ele>599.0</ele><time>2026-04-21T09:50:32.001Z</time></trkpt><trkpt lat="37.86178517420548" lon="-3.0851878597511506"><ele>599.0</ele><time>2026-04-21T09:50:33.001Z</time></trkpt><trkpt lat="37.861683682658324" lon="-3.085225397693752"><ele>599.0</ele><time>2026-04-21T09:50:34.001Z</time></trkpt><trkpt lat="37.86158846878006" lon="-3.0852605509982474"><ele>599.0</ele><time>2026-04-21T09:50:35.001Z</time></trkpt><trkpt lat="37.86149547355285" lon="-3.0852920638324335"><ele>598.3333333333333</ele><time>2026-04-21T09:50:36.001Z</time></trkpt><trkpt lat="37.86141327468686" lon="-3.0853125919164497"><ele>597.6666666666666</ele><time>2026-04-21T09:50:37.001Z</time></trkpt><trkpt lat="37.86133958625294" lon="-3.0853193273333597"><ele>597.0</ele><time>2026-04-21T09:50:38.001Z</time></trkpt><trkpt lat="37.8612608134513" lon="-3.08532813451264"><ele>596.3333333333334</ele><time>2026-04-21T09:50:39.003Z</time></trkpt><trkpt lat="37.861186988415874" lon="-3.0853430539679323"><ele>595.6666666666667</ele><time>2026-04-21T09:50:40.003Z</time></trkpt><trkpt lat="37.86111487297708" lon="-3.0853650627671096"><ele>595.0</ele><time>2026-04-21T09:50:41.003Z</time></trkpt><trkpt lat="37.861043542427645" lon="-3.085389359831324"><ele>595.0</ele><time>2026-04-21T09:50:42.003Z</time></trkpt><trkpt lat="37.860970951033465" lon="-3.0854152100134136"><ele>595.0</ele><time>2026-04-21T09:50:43.002Z</time></trkpt><trkpt lat="37.86090324484993" lon="-3.085439651826241"><ele>595.0</ele><time>2026-04-21T09:50:44.002Z</time></trkpt><trkpt lat="37.86084131196801" lon="-3.085462864873843"><ele>595.0</ele><time>2026-04-21T09:50:45.002Z</time></trkpt><trkpt lat="37.86074281840304" lon="-3.08552432356726"><ele>595.0</ele><time>2026-04-21T09:50:47.002Z</time></trkpt><trkpt lat="37.86068419528876" lon="-3.0856117984643157"><ele>595.0</ele><time>2026-04-21T09:50:49.002Z</time></trkpt><trkpt lat="37.86065504666294" lon="-3.0857050893902276"><ele>593.6</ele><time>2026-04-21T09:50:51.002Z</time></trkpt><trkpt lat="37.86065887799508" lon="-3.0858445792963463"><ele>592.2</ele><time>2026-04-21T09:50:53.002Z</time></trkpt><trkpt lat="37.86065735063853" lon="-3.0859614516809333"><ele>590.8</ele><time>2026-04-21T09:50:55.002Z</time></trkpt><trkpt lat="37.86066409834261" lon="-3.086074126100752"><ele>589.4</ele><time>2026-04-21T09:50:58.002Z</time></trkpt><trkpt lat="37.8606690462344" lon="-3.0861567469803384"><ele>588.0</ele><time>2026-04-21T09:51:00.002Z</time></trkpt><trkpt lat="37.860546350529184" lon="-3.086263675186617"><ele>588.0</ele><time>2026-04-21T09:51:02.001Z</time></trkpt><trkpt lat="37.860579257866604" lon="-3.0863624168831065"><ele>588.0</ele><time>2026-04-21T09:51:05.001Z</time></trkpt><trkpt lat="37.86070544574396" lon="-3.0864145671828416"><ele>588.0</ele><time>2026-04-21T09:51:08.001Z</time></trkpt><trkpt lat="37.860511274190294" lon="-3.08646554750908"><ele>588.0</ele><time>2026-04-21T09:51:11.001Z</time></trkpt><trkpt lat="37.860453833241785" lon="-3.086432493911726"><ele>588.0</ele><time>2026-04-21T09:53:28Z</time></trkpt><trkpt lat="37.860436533187126" lon="-3.0863524812516863"><ele>588.0</ele><time>2026-04-21T09:53:33Z</time></trkpt><trkpt lat="37.860404939980874" lon="-3.0862810306565476"><ele>588.0</ele><time>2026-04-21T09:53:36Z</time></trkpt><trkpt lat="37.86050208784385" lon="-3.0862191563960506"><ele>588.0</ele><time>2026-04-21T09:54:07Z</time></trkpt><trkpt lat="37.86043524693045" lon="-3.0860834721977173"><ele>588.0</ele><time>2026-04-21T09:54:14Z</time></trkpt><trkpt lat="37.86043811675054" lon="-3.086182211849671"><ele>588.0</ele><time>2026-04-21T09:54:20Z</time></trkpt><trkpt lat="37.86043166742202" lon="-3.086267805406649"><ele>588.0</ele><time>2026-04-21T09:54:23Z</time></trkpt><trkpt lat="37.86043966558396" lon="-3.08634870377112"><ele>588.0</ele><time>2026-04-21T09:54:25Z</time></trkpt><trkpt lat="37.860385082085976" lon="-3.0862489709232843"><ele>588.0</ele><time>2026-04-21T09:56:08Z</time></trkpt><trkpt lat="37.8604468084685" lon="-3.0861418519207384"><ele>588.0</ele><time>2026-04-21T09:56:10Z</time></trkpt><trkpt lat="37.86051981973588" lon="-3.086049727977257"><ele>588.0</ele><time>2026-04-21T09:56:11.999Z</time></trkpt><trkpt lat="37.86057734092061" lon="-3.086003425855031"><ele>588.0</ele><time>2026-04-21T09:56:13.999Z</time></trkpt><trkpt lat="37.86062928186932" lon="-3.085915569213561"><ele>588.0</ele><time>2026-04-21T09:56:16.999Z</time></trkpt><trkpt lat="37.86063729825553" lon="-3.085825808313524"><ele>588.0</ele><time>2026-04-21T09:56:19.999Z</time></trkpt><trkpt lat="37.86061988102148" lon="-3.085733643949791"><ele>588.0</ele><time>2026-04-21T09:56:22.999Z</time></trkpt><trkpt lat="37.860602102242325" lon="-3.085644320176635"><ele>588.0</ele><time>2026-04-21T09:56:24.999Z</time></trkpt><trkpt lat="37.86059397515527" lon="-3.0855506121886163"><ele>588.0</ele><time>2026-04-21T09:56:27.999Z</time></trkpt><trkpt lat="37.86064447733501" lon="-3.0854611425773744"><ele>588.0</ele><time>2026-04-21T09:56:50.999Z</time></trkpt><trkpt lat="37.860693005432935" lon="-3.085341381927354"><ele>587.6</ele><time>2026-04-21T09:56:52.999Z</time></trkpt><trkpt lat="37.860668940376904" lon="-3.0851607404216383"><ele>587.1999999999999</ele><time>2026-04-21T09:56:54.999Z</time></trkpt><trkpt lat="37.860624792367695" lon="-3.0850684708659513"><ele>586.8</ele><time>2026-04-21T09:56:55.999Z</time></trkpt><trkpt lat="37.860569951886454" lon="-3.084971865665677"><ele>586.4</ele><time>2026-04-21T09:56:57.001Z</time></trkpt><trkpt lat="37.86049945992924" lon="-3.084876076165711"><ele>586.0</ele><time>2026-04-21T09:56:58.001Z</time></trkpt><trkpt lat="37.86042499070234" lon="-3.0847834628811506"><ele>585.5</ele><time>2026-04-21T09:56:59.001Z</time></trkpt><trkpt lat="37.860350366837366" lon="-3.084679071455967"><ele>585.0</ele><time>2026-04-21T09:57:00.001Z</time></trkpt><trkpt lat="37.860265783758344" lon="-3.084570874090987"><ele>584.5</ele><time>2026-04-21T09:57:01.001Z</time></trkpt><trkpt lat="37.86018112473265" lon="-3.084456535287638"><ele>584.0</ele><time>2026-04-21T09:57:02.001Z</time></trkpt><trkpt lat="37.860085767646524" lon="-3.084336570658472"><ele>583.75</ele><time>2026-04-21T09:57:03.001Z</time></trkpt><trkpt lat="37.85997426848442" lon="-3.0842223981641173"><ele>583.5</ele><time>2026-04-21T09:57:04.001Z</time></trkpt><trkpt lat="37.85985304097953" lon="-3.0841157382723794"><ele>583.25</ele><time>2026-04-21T09:57:05.001Z</time></trkpt><trkpt lat="37.859717426213486" lon="-3.084029170697419"><ele>583.0</ele><time>2026-04-21T09:57:06.001Z</time></trkpt><trkpt lat="37.859559601085124" lon="-3.0839555669120613"><ele>583.0</ele><time>2026-04-21T09:57:07.001Z</time></trkpt><trkpt lat="37.85940673610879" lon="-3.0838763791745603"><ele>583.0</ele><time>2026-04-21T09:57:08.001Z</time></trkpt><trkpt lat="37.85925062085332" lon="-3.0837957570468575"><ele>583.0</ele><time>2026-04-21T09:57:09.001Z</time></trkpt><trkpt lat="37.85908528874707" lon="-3.0837150378463254"><ele>580.0</ele><time>2026-04-21T09:57:10.001Z</time></trkpt><trkpt lat="37.85892503140835" lon="-3.0836352816139745"><ele>577.0</ele><time>2026-04-21T09:57:11.001Z</time></trkpt><trkpt lat="37.858770856971276" lon="-3.083556463255061"><ele>574.0</ele><time>2026-04-21T09:57:12Z</time></trkpt><trkpt lat="37.8586152079783" lon="-3.083479884239615"><ele>574.0</ele><time>2026-04-21T09:57:13Z</time></trkpt><trkpt lat="37.85845580996729" lon="-3.0833972666876996"><ele>574.0</ele><time>2026-04-21T09:57:14Z</time></trkpt><trkpt lat="37.8582831156933" lon="-3.0833242289549894"><ele>574.0</ele><time>2026-04-21T09:57:15Z</time></trkpt><trkpt lat="37.85810231928841" lon="-3.083268094836102"><ele>572.0</ele><time>2026-04-21T09:57:16Z</time></trkpt><trkpt lat="37.85791921798341" lon="-3.083227178451419"><ele>570.0</ele><time>2026-04-21T09:57:17Z</time></trkpt><trkpt lat="37.857734566233205" lon="-3.083194124373178"><ele>568.0</ele><time>2026-04-21T09:57:18Z</time></trkpt><trkpt lat="37.857554400378554" lon="-3.0831668772468657"><ele>564.6666666666667</ele><time>2026-04-21T09:57:19Z</time></trkpt><trkpt lat="37.85737648937602" lon="-3.0831365358602567"><ele>561.3333333333334</ele><time>2026-04-21T09:57:20Z</time></trkpt><trkpt lat="37.857206094389916" lon="-3.083107733442909"><ele>558.0</ele><time>2026-04-21T09:57:21Z</time></trkpt><trkpt lat="37.85704156009052" lon="-3.0830839294571937"><ele>558.0</ele><time>2026-04-21T09:57:22Z</time></trkpt><trkpt lat="37.856882337094724" lon="-3.0830366081596847"><ele>558.0</ele><time>2026-04-21T09:57:23Z</time></trkpt><trkpt lat="37.856722277142175" lon="-3.082955051221325"><ele>558.0</ele><time>2026-04-21T09:57:24Z</time></trkpt><trkpt lat="37.85657190633792" lon="-3.0828423503922453"><ele>557.6666666666666</ele><time>2026-04-21T09:57:25Z</time></trkpt><trkpt lat="37.856432137979084" lon="-3.0826908757577676"><ele>557.3333333333333</ele><time>2026-04-21T09:57:26Z</time></trkpt><trkpt lat="37.856304568117814" lon="-3.0825088161041605"><ele>557.0</ele><time>2026-04-21T09:57:27Z</time></trkpt><trkpt lat="37.856190583667974" lon="-3.0823140940088787"><ele>558.0</ele><time>2026-04-21T09:57:28Z</time></trkpt><trkpt lat="37.85607442850984" lon="-3.082107820650097"><ele>559.0</ele><time>2026-04-21T09:57:29Z</time></trkpt><trkpt lat="37.85595774503673" lon="-3.081897621329171"><ele>560.0</ele><time>2026-04-21T09:57:30Z</time></trkpt><trkpt lat="37.85584055314083" lon="-3.0816821594319252"><ele>561.3333333333333</ele><time>2026-04-21T09:57:31Z</time></trkpt><trkpt lat="37.85572334653994" lon="-3.081468700403094"><ele>562.6666666666666</ele><time>2026-04-21T09:57:32Z</time></trkpt><trkpt lat="37.85561594276603" lon="-3.081273601745232"><ele>564.0</ele><time>2026-04-21T09:57:33Z</time></trkpt><trkpt lat="37.85551262210897" lon="-3.0810803454574156"><ele>564.0</ele><time>2026-04-21T09:57:34Z</time></trkpt><trkpt lat="37.85540556224742" lon="-3.0808856871908774"><ele>564.0</ele><time>2026-04-21T09:57:35Z</time></trkpt><trkpt lat="37.85529578195765" lon="-3.0806979712948537"><ele>564.0</ele><time>2026-04-21T09:57:36Z</time></trkpt><trkpt lat="37.85517471899665" lon="-3.080517864358209"><ele>565.6666666666666</ele><time>2026-04-21T09:57:37Z</time></trkpt><trkpt lat="37.855040418299616" lon="-3.0803550749594044"><ele>567.3333333333333</ele><time>2026-04-21T09:57:38Z</time></trkpt><trkpt lat="37.854884203731864" lon="-3.0802176396456566"><ele>569.0</ele><time>2026-04-21T09:57:39Z</time></trkpt><trkpt lat="37.854703874621634" lon="-3.0801022444723776"><ele>569.0</ele><time>2026-04-21T09:57:40Z</time></trkpt><trkpt lat="37.85451350938668" lon="-3.0800126575743287"><ele>569.0</ele><time>2026-04-21T09:57:41Z</time></trkpt><trkpt lat="37.854327414035325" lon="-3.079950818514795"><ele>569.0</ele><time>2026-04-21T09:57:42Z</time></trkpt><trkpt lat="37.85415407894363" lon="-3.0799069203663567"><ele>568.3333333333333</ele><time>2026-04-21T09:57:43Z</time></trkpt><trkpt lat="37.853981388069" lon="-3.079859043663357"><ele>567.6666666666666</ele><time>2026-04-21T09:57:44Z</time></trkpt><trkpt lat="37.85382243340902" lon="-3.079797207859844"><ele>567.0</ele><time>2026-04-21T09:57:45Z</time></trkpt><trkpt lat="37.853688908178" lon="-3.0797290760042477"><ele>567.0</ele><time>2026-04-21T09:57:46Z</time></trkpt><trkpt lat="37.85357821270848" lon="-3.079651189603216"><ele>567.0</ele><time>2026-04-21T09:57:47Z</time></trkpt><trkpt lat="37.853483229868814" lon="-3.0795575538337676"><ele>567.0</ele><time>2026-04-21T09:57:48Z</time></trkpt><trkpt lat="37.853389404466725" lon="-3.0794512091663195"><ele>567.0</ele><time>2026-04-21T09:57:49Z</time></trkpt><trkpt lat="37.8532937303287" lon="-3.079362200611044"><ele>569.0</ele><time>2026-04-21T09:57:50Z</time></trkpt><trkpt lat="37.85322501967457" lon="-3.079280613868402"><ele>571.0</ele><time>2026-04-21T09:57:51Z</time></trkpt><trkpt lat="37.853189848518596" lon="-3.0792039403450286"><ele>573.0</ele><time>2026-04-21T09:57:52Z</time></trkpt><trkpt lat="37.853164623720524" lon="-3.0791256727640897"><ele>575.0</ele><time>2026-04-21T09:57:53Z</time></trkpt><trkpt lat="37.85313594106841" lon="-3.0790325203223614"><ele>577.0</ele><time>2026-04-21T09:57:54Z</time></trkpt><trkpt lat="37.85310279488017" lon="-3.078927015084895"><ele>579.0</ele><time>2026-04-21T09:57:55Z</time></trkpt><trkpt lat="37.85312714805421" lon="-3.0787757625781356"><ele>579.3333333333334</ele><time>2026-04-21T09:57:56Z</time></trkpt><trkpt lat="37.8531284199367" lon="-3.0785907556552687"><ele>579.6666666666667</ele><time>2026-04-21T09:57:57Z</time></trkpt><trkpt lat="37.85310477173043" lon="-3.0783827150635785"><ele>580.0</ele><time>2026-04-21T09:57:58Z</time></trkpt><trkpt lat="37.853073399265426" lon="-3.0781556185466035"><ele>580.3333333333334</ele><time>2026-04-21T09:57:59Z</time></trkpt><trkpt lat="37.853045480931655" lon="-3.0779141280044846"><ele>580.6666666666666</ele><time>2026-04-21T09:58:00Z</time></trkpt><trkpt lat="37.85300347646557" lon="-3.077660644556446"><ele>581.0</ele><time>2026-04-21T09:58:01Z</time></trkpt><trkpt lat="37.85298555051329" lon="-3.0774084671381585"><ele>579.6666666666666</ele><time>2026-04-21T09:58:02Z</time></trkpt><trkpt lat="37.85293143358955" lon="-3.0771887206951236"><ele>578.3333333333334</ele><time>2026-04-21T09:58:02.999Z</time></trkpt><trkpt lat="37.85283559174802" lon="-3.0770034350173576"><ele>577.0</ele><time>2026-04-21T09:58:03.999Z</time></trkpt><trkpt lat="37.852708201630335" lon="-3.0768258389243557"><ele>580.3333333333334</ele><time>2026-04-21T09:58:04.999Z</time></trkpt><trkpt lat="37.85256253548632" lon="-3.0766355146639697"><ele>583.6666666666666</ele><time>2026-04-21T09:58:05.999Z</time></trkpt><trkpt lat="37.852404276385194" lon="-3.0764625264708694"><ele>587.0</ele><time>2026-04-21T09:58:06.999Z</time></trkpt><trkpt lat="37.85226190522171" lon="-3.0762897949576273"><ele>587.0</ele><time>2026-04-21T09:58:07.999Z</time></trkpt><trkpt lat="37.85213287874809" lon="-3.07612826038222"><ele>587.0</ele><time>2026-04-21T09:58:08.999Z</time></trkpt><trkpt lat="37.85200492417148" lon="-3.0759775711879347"><ele>587.0</ele><time>2026-04-21T09:58:09.999Z</time></trkpt><trkpt lat="37.85188340257009" lon="-3.075833506245917"><ele>588.0</ele><time>2026-04-21T09:58:10.999Z</time></trkpt><trkpt lat="37.851757348841154" lon="-3.0756919907935485"><ele>589.0</ele><time>2026-04-21T09:58:11.999Z</time></trkpt><trkpt lat="37.85161886147705" lon="-3.07556105911483"><ele>590.0</ele><time>2026-04-21T09:58:12.999Z</time></trkpt><trkpt lat="37.85145433721312" lon="-3.075522208645859"><ele>590.0</ele><time>2026-04-21T09:58:13.999Z</time></trkpt><trkpt lat="37.85128282820107" lon="-3.075496606448354"><ele>590.0</ele><time>2026-04-21T09:58:14.999Z</time></trkpt><trkpt lat="37.85110791215586" lon="-3.07548273101264"><ele>590.0</ele><time>2026-04-21T09:58:15.999Z</time></trkpt><trkpt lat="37.850928446162" lon="-3.075465740118406"><ele>593.6666666666666</ele><time>2026-04-21T09:58:16.999Z</time></trkpt><trkpt lat="37.85075395771289" lon="-3.0754467940981347"><ele>597.3333333333334</ele><time>2026-04-21T09:58:17.999Z</time></trkpt><trkpt lat="37.85058891218851" lon="-3.0754181710105977"><ele>601.0</ele><time>2026-04-21T09:58:18.999Z</time></trkpt><trkpt lat="37.85042381241908" lon="-3.07535643088427"><ele>601.0</ele><time>2026-04-21T09:58:19.999Z</time></trkpt><trkpt lat="37.85027040706361" lon="-3.07525679225504"><ele>601.0</ele><time>2026-04-21T09:58:20.999Z</time></trkpt><trkpt lat="37.85012082065769" lon="-3.0751252726070137"><ele>601.0</ele><time>2026-04-21T09:58:21.999Z</time></trkpt><trkpt lat="37.849995225517176" lon="-3.0749687947243967"><ele>600.6666666666667</ele><time>2026-04-21T09:58:22.999Z</time></trkpt><trkpt lat="37.84987975523261" lon="-3.074800827007015"><ele>600.3333333333334</ele><time>2026-04-21T09:58:23.999Z</time></trkpt><trkpt lat="37.84978169157447" lon="-3.074647478064574"><ele>600.0</ele><time>2026-04-21T09:58:24.999Z</time></trkpt><trkpt lat="37.84967850149222" lon="-3.0745092030309524"><ele>600.0</ele><time>2026-04-21T09:58:25.999Z</time></trkpt><trkpt lat="37.84955224869144" lon="-3.074391863609168"><ele>600.0</ele><time>2026-04-21T09:58:26.999Z</time></trkpt><trkpt lat="37.84940273615693" lon="-3.074310830937592"><ele>600.0</ele><time>2026-04-21T09:58:27.999Z</time></trkpt><trkpt lat="37.849234950581206" lon="-3.0742791936999647"><ele>605.0</ele><time>2026-04-21T09:58:28.999Z</time></trkpt><trkpt lat="37.849067222385784" lon="-3.074281916986896"><ele>610.0</ele><time>2026-04-21T09:58:29.999Z</time></trkpt><trkpt lat="37.84889397052634" lon="-3.0743006573615226"><ele>615.0</ele><time>2026-04-21T09:58:30.999Z</time></trkpt><trkpt lat="37.84874530864625" lon="-3.074286012605322"><ele>615.0</ele><time>2026-04-21T09:58:31.999Z</time></trkpt><trkpt lat="37.84858584224803" lon="-3.0742513828766325"><ele>615.0</ele><time>2026-04-21T09:58:32.999Z</time></trkpt><trkpt lat="37.84843901999093" lon="-3.0741584946478366"><ele>615.0</ele><time>2026-04-21T09:58:33.999Z</time></trkpt><trkpt lat="37.84831794628615" lon="-3.0740120779066276"><ele>617.3333333333334</ele><time>2026-04-21T09:58:34.999Z</time></trkpt><trkpt lat="37.84821422381412" lon="-3.0738222568722153"><ele>619.6666666666667</ele><time>2026-04-21T09:58:35.999Z</time></trkpt><trkpt lat="37.84813331318937" lon="-3.073591318671124"><ele>622.0</ele><time>2026-04-21T09:58:36.999Z</time></trkpt><trkpt lat="37.84805850388639" lon="-3.073353409080224"><ele>619.0</ele><time>2026-04-21T09:58:37.999Z</time></trkpt><trkpt lat="37.84797393530667" lon="-3.073126717771405"><ele>616.0</ele><time>2026-04-21T09:58:38.999Z</time></trkpt><trkpt lat="37.847863074198045" lon="-3.0729369480185347"><ele>613.0</ele><time>2026-04-21T09:58:39.999Z</time></trkpt><trkpt lat="37.84773178295914" lon="-3.0727714175952867"><ele>619.3333333333334</ele><time>2026-04-21T09:58:40.999Z</time></trkpt><trkpt lat="37.84757969415928" lon="-3.0726418340735044"><ele>625.6666666666666</ele><time>2026-04-21T09:58:41.999Z</time></trkpt><trkpt lat="37.847395211339034" lon="-3.0726264265080863"><ele>632.0</ele><time>2026-04-21T09:58:42.999Z</time></trkpt><trkpt lat="37.84722587118811" lon="-3.0725818260230695"><ele>632.0</ele><time>2026-04-21T09:58:43.999Z</time></trkpt><trkpt lat="37.84704564475743" lon="-3.0725684320984876"><ele>632.0</ele><time>2026-04-21T09:58:44.999Z</time></trkpt><trkpt lat="37.84685810140599" lon="-3.0726144670326483"><ele>632.0</ele><time>2026-04-21T09:58:45.999Z</time></trkpt><trkpt lat="37.846680387431135" lon="-3.0726870723016275"><ele>635.0</ele><time>2026-04-21T09:58:46.999Z</time></trkpt><trkpt lat="37.84653394420688" lon="-3.0727745170641674"><ele>638.0</ele><time>2026-04-21T09:58:47.999Z</time></trkpt><trkpt lat="37.846392939268476" lon="-3.072846826389445"><ele>641.0</ele><time>2026-04-21T09:58:48.999Z</time></trkpt><trkpt lat="37.84626734966741" lon="-3.072869477847915"><ele>644.0</ele><time>2026-04-21T09:58:49.999Z</time></trkpt><trkpt lat="37.84616137693911" lon="-3.0729013865937995"><ele>644.0</ele><time>2026-04-21T09:58:50.999Z</time></trkpt><trkpt lat="37.8460807283177" lon="-3.0729274623979803"><ele>644.0</ele><time>2026-04-21T09:58:51.999Z</time></trkpt><trkpt lat="37.84602335464017" lon="-3.0729797517205384"><ele>644.0</ele><time>2026-04-21T09:58:52.999Z</time></trkpt><trkpt lat="37.846041602107995" lon="-3.0731147897839324"><ele>644.0</ele><time>2026-04-21T09:58:54.999Z</time></trkpt><trkpt lat="37.84620475881469" lon="-3.0731625873637802"><ele>644.0</ele><time>2026-04-21T09:58:56.999Z</time></trkpt><trkpt lat="37.8462687381371" lon="-3.0731084277656553"><ele>644.0</ele><time>2026-04-21T09:58:57.999Z</time></trkpt><trkpt lat="37.846344099102005" lon="-3.0730770842868464"><ele>644.0</ele><time>2026-04-21T09:58:58.999Z</time></trkpt><trkpt lat="37.84644183226918" lon="-3.0730439104435963"><ele>644.0</ele><time>2026-04-21T09:58:59.999Z</time></trkpt><trkpt lat="37.84654429595478" lon="-3.07299176441114"><ele>644.0</ele><time>2026-04-21T09:59:00.999Z</time></trkpt><trkpt lat="37.846650622812874" lon="-3.0729496730377237"><ele>644.0</ele><time>2026-04-21T09:59:01.999Z</time></trkpt><trkpt lat="37.84674736353177" lon="-3.072883768957599"><ele>641.0</ele><time>2026-04-21T09:59:03Z</time></trkpt><trkpt lat="37.846861400129185" lon="-3.0728608299048856"><ele>638.0</ele><time>2026-04-21T09:59:04Z</time></trkpt><trkpt lat="37.84697691521833" lon="-3.0728626085384034"><ele>635.0</ele><time>2026-04-21T09:59:05Z</time></trkpt><trkpt lat="37.84709785646556" lon="-3.0729144739202985"><ele>632.0</ele><time>2026-04-21T09:59:06Z</time></trkpt><trkpt lat="37.84721404084602" lon="-3.07299795786823"><ele>632.0</ele><time>2026-04-21T09:59:07Z</time></trkpt><trkpt lat="37.84730320303057" lon="-3.073100831882253"><ele>632.0</ele><time>2026-04-21T09:59:08Z</time></trkpt><trkpt lat="37.84735781567017" lon="-3.073238852337041"><ele>632.0</ele><time>2026-04-21T09:59:09Z</time></trkpt><trkpt lat="37.84736956402318" lon="-3.0734014661926743"><ele>632.0</ele><time>2026-04-21T09:59:10Z</time></trkpt><trkpt lat="37.847402821788954" lon="-3.0735736621298817"><ele>630.6666666666666</ele><time>2026-04-21T09:59:11Z</time></trkpt><trkpt lat="37.847490025133304" lon="-3.0737363100734707"><ele>629.3333333333334</ele><time>2026-04-21T09:59:12Z</time></trkpt><trkpt lat="37.847579029708" lon="-3.0739277119189796"><ele>628.0</ele><time>2026-04-21T09:59:13Z</time></trkpt><trkpt lat="37.84764124207574" lon="-3.074140210093225"><ele>628.0</ele><time>2026-04-21T09:59:14Z</time></trkpt><trkpt lat="37.84767592807296" lon="-3.0743603803686512"><ele>628.0</ele><time>2026-04-21T09:59:15Z</time></trkpt><trkpt lat="37.84769405993154" lon="-3.074576203098278"><ele>628.0</ele><time>2026-04-21T09:59:16Z</time></trkpt><trkpt lat="37.84771111725245" lon="-3.07479471589473"><ele>630.0</ele><time>2026-04-21T09:59:17Z</time></trkpt><trkpt lat="37.84772542182199" lon="-3.075014218103759"><ele>632.0</ele><time>2026-04-21T09:59:18Z</time></trkpt><trkpt lat="37.84772536507073" lon="-3.075221824121061"><ele>634.0</ele><time>2026-04-21T09:59:19Z</time></trkpt><trkpt lat="37.84768919027232" lon="-3.0754242264281864"><ele>634.0</ele><time>2026-04-21T09:59:20Z</time></trkpt><trkpt lat="37.847641625012216" lon="-3.075620651450736"><ele>634.0</ele><time>2026-04-21T09:59:21Z</time></trkpt><trkpt lat="37.84764130780518" lon="-3.0758181380828526"><ele>634.0</ele><time>2026-04-21T09:59:22Z</time></trkpt><trkpt lat="37.8477057998242" lon="-3.075997359289036"><ele>638.5</ele><time>2026-04-21T09:59:23Z</time></trkpt><trkpt lat="37.847710378668474" lon="-3.0761762585823678"><ele>643.0</ele><time>2026-04-21T09:59:24Z</time></trkpt><trkpt lat="37.84766588828152" lon="-3.076357067650951"><ele>647.5</ele><time>2026-04-21T09:59:25Z</time></trkpt><trkpt lat="37.84758774993858" lon="-3.0765172787587782"><ele>652.0</ele><time>2026-04-21T09:59:26Z</time></trkpt><trkpt lat="37.847495351783984" lon="-3.076638305798879"><ele>657.25</ele><time>2026-04-21T09:59:27Z</time></trkpt><trkpt lat="37.84739989970062" lon="-3.076722197637165"><ele>662.5</ele><time>2026-04-21T09:59:28Z</time></trkpt><trkpt lat="37.84727270726069" lon="-3.076698799549066"><ele>667.75</ele><time>2026-04-21T09:59:29Z</time></trkpt><trkpt lat="37.84718449674586" lon="-3.076624090784552"><ele>673.0</ele><time>2026-04-21T09:59:30Z</time></trkpt><trkpt lat="37.8471177371634" lon="-3.0765262949439305"><ele>673.25</ele><time>2026-04-21T09:59:31Z</time></trkpt><trkpt lat="37.84707318090892" lon="-3.076391392698979"><ele>673.5</ele><time>2026-04-21T09:59:32Z</time></trkpt><trkpt lat="37.847057608482864" lon="-3.0762253100455093"><ele>673.75</ele><time>2026-04-21T09:59:33Z</time></trkpt><trkpt lat="37.847039355356074" lon="-3.0760346221565373"><ele>674.0</ele><time>2026-04-21T09:59:34Z</time></trkpt><trkpt lat="37.84700328881907" lon="-3.0758610920129654"><ele>673.0</ele><time>2026-04-21T09:59:35Z</time></trkpt><trkpt lat="37.846936356621406" lon="-3.0757272214678495"><ele>672.0</ele><time>2026-04-21T09:59:36Z</time></trkpt><trkpt lat="37.84684012716739" lon="-3.0756543040173963"><ele>671.0</ele><time>2026-04-21T09:59:37Z</time></trkpt><trkpt lat="37.84673450296449" lon="-3.0756774862756284"><ele>670.0</ele><time>2026-04-21T09:59:38Z</time></trkpt><trkpt lat="37.84663730482097" lon="-3.0757290552016543"><ele>677.5</ele><time>2026-04-21T09:59:39Z</time></trkpt><trkpt lat="37.84659597785211" lon="-3.0758770566944436"><ele>685.0</ele><time>2026-04-21T09:59:40Z</time></trkpt><trkpt lat="37.846569597441395" lon="-3.07603113042585"><ele>692.5</ele><time>2026-04-21T09:59:41Z</time></trkpt><trkpt lat="37.84655109831209" lon="-3.076200948504828"><ele>700.0</ele><time>2026-04-21T09:59:42Z</time></trkpt><trkpt lat="37.846493280693046" lon="-3.0763228718431734"><ele>700.0</ele><time>2026-04-21T09:59:43Z</time></trkpt><trkpt lat="37.84643157563879" lon="-3.0764172026546777"><ele>700.0</ele><time>2026-04-21T09:59:44Z</time></trkpt><trkpt lat="37.84630825136396" lon="-3.0764333259552523"><ele>700.0</ele><time>2026-04-21T09:59:45Z</time></trkpt><trkpt lat="37.84618310070627" lon="-3.0763976514429663"><ele>700.0</ele><time>2026-04-21T09:59:46Z</time></trkpt><trkpt lat="37.846068234128566" lon="-3.07628878349862"><ele>703.6666666666667</ele><time>2026-04-21T09:59:47Z</time></trkpt><trkpt lat="37.84592494956205" lon="-3.0761708528339153"><ele>707.3333333333334</ele><time>2026-04-21T09:59:48Z</time></trkpt><trkpt lat="37.845744754271855" lon="-3.076121727643997"><ele>711.0</ele><time>2026-04-21T09:59:49Z</time></trkpt><trkpt lat="37.845578555138474" lon="-3.0761671673527826"><ele>711.0</ele><time>2026-04-21T09:59:50Z</time></trkpt><trkpt lat="37.845378198082244" lon="-3.076225998184146"><ele>711.0</ele><time>2026-04-21T09:59:50.999Z</time></trkpt><trkpt lat="37.845169995551764" lon="-3.076283488783155"><ele>711.0</ele><time>2026-04-21T09:59:51.999Z</time></trkpt><trkpt lat="37.844952415961124" lon="-3.0763422903962425"><ele>712.3333333333334</ele><time>2026-04-21T09:59:52.999Z</time></trkpt><trkpt lat="37.844734519331205" lon="-3.0763903955643954"><ele>713.6666666666667</ele><time>2026-04-21T09:59:53.999Z</time></trkpt><trkpt lat="37.844536719854325" lon="-3.0764109457091164"><ele>715.0</ele><time>2026-04-21T09:59:54.999Z</time></trkpt><trkpt lat="37.84435885306906" lon="-3.0764294044299976"><ele>717.6666666666667</ele><time>2026-04-21T09:59:55.999Z</time></trkpt><trkpt lat="37.844187208829915" lon="-3.0764285538285483"><ele>720.3333333333334</ele><time>2026-04-21T09:59:56.999Z</time></trkpt><trkpt lat="37.84401575796557" lon="-3.0764094139268265"><ele>723.0</ele><time>2026-04-21T09:59:57.999Z</time></trkpt><trkpt lat="37.84385152092981" lon="-3.0763791003742393"><ele>723.0</ele><time>2026-04-21T09:59:58.999Z</time></trkpt><trkpt lat="37.84369199710598" lon="-3.0763313783516195"><ele>723.0</ele><time>2026-04-21T09:59:59.999Z</time></trkpt><trkpt lat="37.8435386325942" lon="-3.076279191346231"><ele>723.0</ele><time>2026-04-21T10:00:00.999Z</time></trkpt><trkpt lat="37.84339985629348" lon="-3.0762234830108146"><ele>726.2</ele><time>2026-04-21T10:00:01.999Z</time></trkpt><trkpt lat="37.84328865891657" lon="-3.0761650474110733"><ele>729.4</ele><time>2026-04-21T10:00:02.999Z</time></trkpt><trkpt lat="37.843208928654164" lon="-3.076092894607353"><ele>732.6</ele><time>2026-04-21T10:00:03.999Z</time></trkpt><trkpt lat="37.84317121509714" lon="-3.0759807420850356"><ele>735.8000000000001</ele><time>2026-04-21T10:00:04.999Z</time></trkpt><trkpt lat="37.843142191972746" lon="-3.075863419123982"><ele>739.0</ele><time>2026-04-21T10:00:05.999Z</time></trkpt><trkpt lat="37.84316591402598" lon="-3.075748166373796"><ele>740.0</ele><time>2026-04-21T10:00:06.999Z</time></trkpt><trkpt lat="37.84320318428147" lon="-3.0756572490687284"><ele>741.0</ele><time>2026-04-21T10:00:07.999Z</time></trkpt><trkpt lat="37.843251044767115" lon="-3.0755784292300548"><ele>742.0</ele><time>2026-04-21T10:00:08.999Z</time></trkpt><trkpt lat="37.84327458132799" lon="-3.075482039122419"><ele>743.0</ele><time>2026-04-21T10:00:09.999Z</time></trkpt><trkpt lat="37.843313599067535" lon="-3.0753973123208866"><ele>744.0</ele><time>2026-04-21T10:00:10.999Z</time></trkpt><trkpt lat="37.84332379230107" lon="-3.0753168150780383"><ele>745.0</ele><time>2026-04-21T10:00:11.999Z</time></trkpt><trkpt lat="37.843302088027535" lon="-3.0751765467847934"><ele>745.0</ele><time>2026-04-21T10:00:13.999Z</time></trkpt><trkpt lat="37.84320237704245" lon="-3.075117242409623"><ele>745.0</ele><time>2026-04-21T10:00:15.999Z</time></trkpt><trkpt lat="37.84310556621085" lon="-3.0750619380848097"><ele>745.0</ele><time>2026-04-21T10:00:17.999Z</time></trkpt><trkpt lat="37.84298905681319" lon="-3.0751261357042723"><ele>745.0</ele><time>2026-04-21T10:00:19.999Z</time></trkpt><trkpt lat="37.84290418698533" lon="-3.0751636917786596"><ele>745.0</ele><time>2026-04-21T10:00:20.999Z</time></trkpt><trkpt lat="37.84280525395583" lon="-3.075209567646193"><ele>745.0</ele><time>2026-04-21T10:00:21.999Z</time></trkpt><trkpt lat="37.84270682019258" lon="-3.075261697841437"><ele>745.0</ele><time>2026-04-21T10:00:22.999Z</time></trkpt><trkpt lat="37.84260021662333" lon="-3.075318800820918"><ele>745.0</ele><time>2026-04-21T10:00:23.999Z</time></trkpt><trkpt lat="37.842484035112214" lon="-3.0753871273153157"><ele>745.0</ele><time>2026-04-21T10:00:24.999Z</time></trkpt><trkpt lat="37.842362087046844" lon="-3.0754576646890843"><ele>746.5</ele><time>2026-04-21T10:00:25.999Z</time></trkpt><trkpt lat="37.84223596629954" lon="-3.0755288054706074"><ele>748.0</ele><time>2026-04-21T10:00:26.999Z</time></trkpt><trkpt lat="37.84209883586962" lon="-3.0756060864692754"><ele>749.5</ele><time>2026-04-21T10:00:27.999Z</time></trkpt><trkpt lat="37.841966245076925" lon="-3.075681613658051"><ele>751.0</ele><time>2026-04-21T10:00:28.999Z</time></trkpt><trkpt lat="37.84182875146643" lon="-3.0757575174921623"><ele>753.5</ele><time>2026-04-21T10:00:29.999Z</time></trkpt><trkpt lat="37.84169009370423" lon="-3.075833377879438"><ele>756.0</ele><time>2026-04-21T10:00:30.999Z</time></trkpt><trkpt lat="37.84155488499014" lon="-3.075914867874043"><ele>758.5</ele><time>2026-04-21T10:00:31.999Z</time></trkpt><trkpt lat="37.84142082604177" lon="-3.0759945759633363"><ele>761.0</ele><time>2026-04-21T10:00:32.999Z</time></trkpt><trkpt lat="37.84128577519655" lon="-3.076086374881846"><ele>761.0</ele><time>2026-04-21T10:00:33.999Z</time></trkpt><trkpt lat="37.84115920474763" lon="-3.076191776464131"><ele>761.0</ele><time>2026-04-21T10:00:34.999Z</time></trkpt><trkpt lat="37.84104544783412" lon="-3.0763260149226963"><ele>761.0</ele><time>2026-04-21T10:00:35.999Z</time></trkpt><trkpt lat="37.84095768274966" lon="-3.076476300932503"><ele>763.0</ele><time>2026-04-21T10:00:36.999Z</time></trkpt><trkpt lat="37.840899162091375" lon="-3.0766436478486647"><ele>765.0</ele><time>2026-04-21T10:00:37.999Z</time></trkpt><trkpt lat="37.840868305141896" lon="-3.0768296700329105"><ele>767.0</ele><time>2026-04-21T10:00:38.999Z</time></trkpt><trkpt lat="37.84086477519517" lon="-3.0770213743787447"><ele>769.0</ele><time>2026-04-21T10:00:39.999Z</time></trkpt><trkpt lat="37.84089154064337" lon="-3.077219544813256"><ele>769.0</ele><time>2026-04-21T10:00:40.999Z</time></trkpt><trkpt lat="37.840952999955945" lon="-3.077399889431039"><ele>769.0</ele><time>2026-04-21T10:00:41.999Z</time></trkpt><trkpt lat="37.84104979152538" lon="-3.077568432617286"><ele>769.0</ele><time>2026-04-21T10:00:42.999Z</time></trkpt><trkpt lat="37.84117458738878" lon="-3.0777198692570114"><ele>768.0</ele><time>2026-04-21T10:00:43.999Z</time></trkpt><trkpt lat="37.84132932474092" lon="-3.0778670058468567"><ele>767.0</ele><time>2026-04-21T10:00:44.999Z</time></trkpt><trkpt lat="37.84149393431797" lon="-3.0780105563340467"><ele>766.0</ele><time>2026-04-21T10:00:45.999Z</time></trkpt><trkpt lat="37.841639938164775" lon="-3.078146322111969"><ele>767.3333333333334</ele><time>2026-04-21T10:00:46.999Z</time></trkpt><trkpt lat="37.8417700808141" lon="-3.0782822982151514"><ele>768.6666666666667</ele><time>2026-04-21T10:00:47.999Z</time></trkpt><trkpt lat="37.84190190002801" lon="-3.078428619255896"><ele>770.0</ele><time>2026-04-21T10:00:48.999Z</time></trkpt><trkpt lat="37.84203028776194" lon="-3.0785835239968105"><ele>770.0</ele><time>2026-04-21T10:00:49.999Z</time></trkpt><trkpt lat="37.84214655480032" lon="-3.078752438317043"><ele>770.0</ele><time>2026-04-21T10:00:50.999Z</time></trkpt><trkpt lat="37.84225540419624" lon="-3.078938816373937"><ele>770.0</ele><time>2026-04-21T10:00:51.999Z</time></trkpt><trkpt lat="37.84235417749597" lon="-3.0791388034727087"><ele>774.3333333333334</ele><time>2026-04-21T10:00:52.999Z</time></trkpt><trkpt lat="37.842443352559776" lon="-3.079347555039533"><ele>778.6666666666667</ele><time>2026-04-21T10:00:53.999Z</time></trkpt><trkpt lat="37.84251565122199" lon="-3.0795606470212307"><ele>783.0</ele><time>2026-04-21T10:00:54.999Z</time></trkpt><trkpt lat="37.84258085383613" lon="-3.079789733081301"><ele>781.0</ele><time>2026-04-21T10:00:55.998Z</time></trkpt><trkpt lat="37.84263693202709" lon="-3.080031976416438"><ele>779.0</ele><time>2026-04-21T10:00:56.998Z</time></trkpt><trkpt lat="37.842669307875326" lon="-3.0802846091408225"><ele>777.0</ele><time>2026-04-21T10:00:57.998Z</time></trkpt><trkpt lat="37.84269030264301" lon="-3.0805421651649034"><ele>776.3333333333333</ele><time>2026-04-21T10:00:58.998Z</time></trkpt><trkpt lat="37.84270099932944" lon="-3.080800985709357"><ele>775.6666666666666</ele><time>2026-04-21T10:00:59.998Z</time></trkpt><trkpt lat="37.842707807406605" lon="-3.0810636868474686"><ele>775.0</ele><time>2026-04-21T10:01:00.998Z</time></trkpt><trkpt lat="37.84271495589539" lon="-3.081327489380743"><ele>775.0</ele><time>2026-04-21T10:01:01.998Z</time></trkpt><trkpt lat="37.84272389000854" lon="-3.081584133873033"><ele>775.0</ele><time>2026-04-21T10:01:02.998Z</time></trkpt><trkpt lat="37.842737552471725" lon="-3.081834195714143"><ele>775.0</ele><time>2026-04-21T10:01:03.998Z</time></trkpt><trkpt lat="37.84275580367605" lon="-3.0820804894372373"><ele>775.3333333333333</ele><time>2026-04-21T10:01:04.998Z</time></trkpt><trkpt lat="37.84278134919484" lon="-3.0823157058428867"><ele>775.6666666666667</ele><time>2026-04-21T10:01:05.998Z</time></trkpt><trkpt lat="37.842820093883645" lon="-3.082568028517994"><ele>776.0</ele><time>2026-04-21T10:01:06.998Z</time></trkpt><trkpt lat="37.84286580970096" lon="-3.082816038376199"><ele>778.3333333333334</ele><time>2026-04-21T10:01:07.998Z</time></trkpt><trkpt lat="37.84291922203401" lon="-3.0830636867586763"><ele>780.6666666666667</ele><time>2026-04-21T10:01:09Z</time></trkpt><trkpt lat="37.84296953221799" lon="-3.0833128942561974"><ele>783.0</ele><time>2026-04-21T10:01:10Z</time></trkpt><trkpt lat="37.84301951787091" lon="-3.083566883165526"><ele>786.6666666666667</ele><time>2026-04-21T10:01:11Z</time></trkpt><trkpt lat="37.843069289655844" lon="-3.0838192777006768"><ele>790.3333333333334</ele><time>2026-04-21T10:01:12Z</time></trkpt><trkpt lat="37.84312119492888" lon="-3.084061117102072"><ele>794.0</ele><time>2026-04-21T10:01:13Z</time></trkpt><trkpt lat="37.84316583944826" lon="-3.084271274680451"><ele>797.0</ele><time>2026-04-21T10:01:14Z</time></trkpt><trkpt lat="37.84320532161347" lon="-3.0844692703300156"><ele>800.0</ele><time>2026-04-21T10:01:15Z</time></trkpt><trkpt lat="37.843228714308324" lon="-3.0846824918163787"><ele>803.0</ele><time>2026-04-21T10:01:16Z</time></trkpt><trkpt lat="37.843220770645445" lon="-3.0849037797738954"><ele>806.3333333333334</ele><time>2026-04-21T10:01:17Z</time></trkpt><trkpt lat="37.843181602171754" lon="-3.085140938636356"><ele>809.6666666666667</ele><time>2026-04-21T10:01:18Z</time></trkpt><trkpt lat="37.84312418023232" lon="-3.085398936046384"><ele>813.0</ele><time>2026-04-21T10:01:19Z</time></trkpt><trkpt lat="37.84306317908499" lon="-3.085674405416379"><ele>812.3333333333333</ele><time>2026-04-21T10:01:20Z</time></trkpt><trkpt lat="37.84301192158513" lon="-3.085935737165612"><ele>811.6666666666666</ele><time>2026-04-21T10:01:21Z</time></trkpt><trkpt lat="37.8429659515692" lon="-3.086163417777109"><ele>811.0</ele><time>2026-04-21T10:01:22Z</time></trkpt><trkpt lat="37.84292127229021" lon="-3.086376528593356"><ele>811.0</ele><time>2026-04-21T10:01:23Z</time></trkpt><trkpt lat="37.84289641168265" lon="-3.086578597988401"><ele>811.0</ele><time>2026-04-21T10:01:24Z</time></trkpt><trkpt lat="37.8428414104573" lon="-3.0867572451458796"><ele>811.0</ele><time>2026-04-21T10:01:25Z</time></trkpt><trkpt lat="37.84279216668071" lon="-3.086946021672217"><ele>809.0</ele><time>2026-04-21T10:01:26Z</time></trkpt><trkpt lat="37.84271188520174" lon="-3.08713220709267"><ele>807.0</ele><time>2026-04-21T10:01:27Z</time></trkpt><trkpt lat="37.84261510970966" lon="-3.0873205405891793"><ele>805.0</ele><time>2026-04-21T10:01:28Z</time></trkpt><trkpt lat="37.84250556213014" lon="-3.08750287333472"><ele>814.0</ele><time>2026-04-21T10:01:29Z</time></trkpt><trkpt lat="37.8424111908433" lon="-3.0876952630894117"><ele>823.0</ele><time>2026-04-21T10:01:30Z</time></trkpt><trkpt lat="37.84233474575547" lon="-3.087889108053191"><ele>832.0</ele><time>2026-04-21T10:01:31Z</time></trkpt><trkpt lat="37.8422667077407" lon="-3.0880767342829136"><ele>827.3333333333333</ele><time>2026-04-21T10:01:32Z</time></trkpt><trkpt lat="37.84219738226164" lon="-3.0882669129517035"><ele>822.6666666666667</ele><time>2026-04-21T10:01:33Z</time></trkpt><trkpt lat="37.84212852848834" lon="-3.08845277545695"><ele>818.0</ele><time>2026-04-21T10:01:34Z</time></trkpt><trkpt lat="37.84205815911465" lon="-3.0886366355761994"><ele>818.0</ele><time>2026-04-21T10:01:35Z</time></trkpt><trkpt lat="37.841990123752424" lon="-3.0888291098443794"><ele>818.0</ele><time>2026-04-21T10:01:36Z</time></trkpt><trkpt lat="37.841934903928035" lon="-3.089036386720497"><ele>818.0</ele><time>2026-04-21T10:01:37Z</time></trkpt><trkpt lat="37.84191034207649" lon="-3.0892536955397034"><ele>815.6666666666667</ele><time>2026-04-21T10:01:38Z</time></trkpt><trkpt lat="37.84190941584052" lon="-3.089466881769966"><ele>813.3333333333333</ele><time>2026-04-21T10:01:39Z</time></trkpt><trkpt lat="37.841923909899904" lon="-3.0896809627123587"><ele>811.0</ele><time>2026-04-21T10:01:40Z</time></trkpt><trkpt lat="37.84196229061859" lon="-3.0898749344860947"><ele>810.0</ele><time>2026-04-21T10:01:41Z</time></trkpt><trkpt lat="37.841994200672545" lon="-3.0900774972010736"><ele>809.0</ele><time>2026-04-21T10:01:42Z</time></trkpt><trkpt lat="37.842011881001525" lon="-3.0902934679043157"><ele>808.0</ele><time>2026-04-21T10:01:43Z</time></trkpt><trkpt lat="37.842009491342225" lon="-3.0905182204408796"><ele>808.0</ele><time>2026-04-21T10:01:44Z</time></trkpt><trkpt lat="37.84198393352924" lon="-3.0907537033287196"><ele>808.0</ele><time>2026-04-21T10:01:45Z</time></trkpt><trkpt lat="37.84196576119169" lon="-3.0909863460620115"><ele>808.0</ele><time>2026-04-21T10:01:46Z</time></trkpt><trkpt lat="37.84189061045048" lon="-3.091257075481242"><ele>819.5</ele><time>2026-04-21T10:01:47Z</time></trkpt><trkpt lat="37.84179003689359" lon="-3.0915530757475613"><ele>831.0</ele><time>2026-04-21T10:01:48Z</time></trkpt><trkpt lat="37.841659358319305" lon="-3.091863471772337"><ele>831.0</ele><time>2026-04-21T10:01:49Z</time></trkpt><trkpt lat="37.841529040580575" lon="-3.092197424902849"><ele>831.0</ele><time>2026-04-21T10:01:50Z</time></trkpt><trkpt lat="37.841401139020604" lon="-3.0925399539609595"><ele>828.5</ele><time>2026-04-21T10:01:50.999Z</time></trkpt><trkpt lat="37.841262843967634" lon="-3.092856595314403"><ele>826.0</ele><time>2026-04-21T10:01:51.999Z</time></trkpt><trkpt lat="37.84116195295557" lon="-3.093154732850557"><ele>825.0</ele><time>2026-04-21T10:01:52.999Z</time></trkpt><trkpt lat="37.84105974285072" lon="-3.093425467503612"><ele>824.0</ele><time>2026-04-21T10:01:53.999Z</time></trkpt><trkpt lat="37.84096195065652" lon="-3.0936862321104024"><ele>828.3333333333334</ele><time>2026-04-21T10:01:54.999Z</time></trkpt><trkpt lat="37.8408647756846" lon="-3.0939327788246467"><ele>832.6666666666667</ele><time>2026-04-21T10:01:55.999Z</time></trkpt><trkpt lat="37.840754296860226" lon="-3.0941674438690763"><ele>837.0</ele><time>2026-04-21T10:01:56.999Z</time></trkpt><trkpt lat="37.84061632857916" lon="-3.0943902033569546"><ele>837.0</ele><time>2026-04-21T10:01:57.999Z</time></trkpt><trkpt lat="37.840461966752486" lon="-3.0945957660571826"><ele>837.0</ele><time>2026-04-21T10:01:58.999Z</time></trkpt><trkpt lat="37.84029158407633" lon="-3.09476851898618"><ele>837.0</ele><time>2026-04-21T10:01:59.999Z</time></trkpt><trkpt lat="37.840106937237174" lon="-3.094918985224586"><ele>840.5</ele><time>2026-04-21T10:02:00.999Z</time></trkpt><trkpt lat="37.839912049362916" lon="-3.0950596889774333"><ele>844.0</ele><time>2026-04-21T10:02:01.999Z</time></trkpt><trkpt lat="37.83970660226132" lon="-3.0951769067037493"><ele>844.0</ele><time>2026-04-21T10:02:02.999Z</time></trkpt><trkpt lat="37.83949401341391" lon="-3.0952697915002454"><ele>844.0</ele><time>2026-04-21T10:02:03.999Z</time></trkpt><trkpt lat="37.839266751583246" lon="-3.0953333129552796"><ele>848.5</ele><time>2026-04-21T10:02:04.999Z</time></trkpt><trkpt lat="37.83904149504082" lon="-3.0953656035719876"><ele>853.0</ele><time>2026-04-21T10:02:05.999Z</time></trkpt><trkpt lat="37.83881725292861" lon="-3.095361495375445"><ele>853.0</ele><time>2026-04-21T10:02:06.999Z</time></trkpt><trkpt lat="37.83858829237503" lon="-3.0953330556368823"><ele>853.0</ele><time>2026-04-21T10:02:07.999Z</time></trkpt><trkpt lat="37.838344436260606" lon="-3.0952354824660837"><ele>853.5</ele><time>2026-04-21T10:02:08.999Z</time></trkpt><trkpt lat="37.83810736886145" lon="-3.0951668291899135"><ele>854.0</ele><time>2026-04-21T10:02:09.999Z</time></trkpt><trkpt lat="37.83787108518881" lon="-3.0951169824265428"><ele>854.0</ele><time>2026-04-21T10:02:10.999Z</time></trkpt><trkpt lat="37.8376362514848" lon="-3.09507187268658"><ele>854.0</ele><time>2026-04-21T10:02:11.999Z</time></trkpt><trkpt lat="37.83740004324378" lon="-3.095050751148777"><ele>851.0</ele><time>2026-04-21T10:02:12.999Z</time></trkpt><trkpt lat="37.83716460059147" lon="-3.095071443145359"><ele>848.0</ele><time>2026-04-21T10:02:13.999Z</time></trkpt><trkpt lat="37.836917855210835" lon="-3.0951146402037053"><ele>850.0</ele><time>2026-04-21T10:02:14.999Z</time></trkpt><trkpt lat="37.8366782550737" lon="-3.0951838907002522"><ele>852.0</ele><time>2026-04-21T10:02:15.999Z</time></trkpt><trkpt lat="37.836446151863484" lon="-3.095293072982923"><ele>852.0</ele><time>2026-04-21T10:02:16.999Z</time></trkpt><trkpt lat="37.836227376815636" lon="-3.095443849965568"><ele>852.0</ele><time>2026-04-21T10:02:17.999Z</time></trkpt><trkpt lat="37.83602373054296" lon="-3.09561905785308"><ele>847.0</ele><time>2026-04-21T10:02:18.999Z</time></trkpt><trkpt lat="37.83584093002244" lon="-3.0958144350546126"><ele>842.0</ele><time>2026-04-21T10:02:19.999Z</time></trkpt><trkpt lat="37.83568808990928" lon="-3.096004994654005"><ele>842.0</ele><time>2026-04-21T10:02:20.999Z</time></trkpt><trkpt lat="37.83555615985419" lon="-3.096177226948052"><ele>842.0</ele><time>2026-04-21T10:02:21.999Z</time></trkpt><trkpt lat="37.83541135005574" lon="-3.0963016895890285"><ele>842.0</ele><time>2026-04-21T10:02:22.999Z</time></trkpt><trkpt lat="37.83524999681845" lon="-3.0964127662949865"><ele>841.0</ele><time>2026-04-21T10:02:23.999Z</time></trkpt><trkpt lat="37.83505843829901" lon="-3.096520387664843"><ele>840.0</ele><time>2026-04-21T10:02:24.999Z</time></trkpt><trkpt lat="37.83486549573364" lon="-3.0965995265606647"><ele>839.0</ele><time>2026-04-21T10:02:25.999Z</time></trkpt><trkpt lat="37.83470264454357" lon="-3.0966955423737113"><ele>839.0</ele><time>2026-04-21T10:02:26.999Z</time></trkpt><trkpt lat="37.83456739229251" lon="-3.0968094590603474"><ele>839.0</ele><time>2026-04-21T10:02:27.999Z</time></trkpt><trkpt lat="37.83447282757771" lon="-3.096966132403498"><ele>839.0</ele><time>2026-04-21T10:02:28.999Z</time></trkpt><trkpt lat="37.83439373762077" lon="-3.0971588212475636"><ele>839.0</ele><time>2026-04-21T10:02:29.999Z</time></trkpt><trkpt lat="37.8343391943089" lon="-3.0974020907673454"><ele>839.0</ele><time>2026-04-21T10:02:30.999Z</time></trkpt><trkpt lat="37.83428707025287" lon="-3.097682281930717"><ele>839.0</ele><time>2026-04-21T10:02:31.999Z</time></trkpt><trkpt lat="37.834222478855246" lon="-3.097969342452847"><ele>836.3333333333334</ele><time>2026-04-21T10:02:32.999Z</time></trkpt><trkpt lat="37.834180026282" lon="-3.0982229966274732"><ele>833.6666666666667</ele><time>2026-04-21T10:02:33.999Z</time></trkpt><trkpt lat="37.83413652919496" lon="-3.09844573524634"><ele>831.0</ele><time>2026-04-21T10:02:34.999Z</time></trkpt><trkpt lat="37.83408765660329" lon="-3.0986454131806047"><ele>828.3333333333333</ele><time>2026-04-21T10:02:35.999Z</time></trkpt><trkpt lat="37.83401497584092" lon="-3.0988325928618634"><ele>825.6666666666666</ele><time>2026-04-21T10:02:36.999Z</time></trkpt><trkpt lat="37.8339040113579" lon="-3.0990051334894853"><ele>823.0</ele><time>2026-04-21T10:02:37.999Z</time></trkpt><trkpt lat="37.83375158827025" lon="-3.0991459025318857"><ele>822.0</ele><time>2026-04-21T10:02:38.999Z</time></trkpt><trkpt lat="37.83357848716687" lon="-3.0992533129021904"><ele>821.0</ele><time>2026-04-21T10:02:39.999Z</time></trkpt><trkpt lat="37.83340209237401" lon="-3.099352438259635"><ele>820.0</ele><time>2026-04-21T10:02:40.999Z</time></trkpt><trkpt lat="37.8332196626718" lon="-3.099360753644685"><ele>820.0</ele><time>2026-04-21T10:02:41.999Z</time></trkpt><trkpt lat="37.83303732472137" lon="-3.0993270084191726"><ele>820.0</ele><time>2026-04-21T10:02:42.999Z</time></trkpt><trkpt lat="37.83286808859644" lon="-3.09923957155018"><ele>820.0</ele><time>2026-04-21T10:02:43.999Z</time></trkpt><trkpt lat="37.832701679452036" lon="-3.099161086175663"><ele>818.0</ele><time>2026-04-21T10:02:44.999Z</time></trkpt><trkpt lat="37.832544747559055" lon="-3.099140334253715"><ele>816.0</ele><time>2026-04-21T10:02:45.999Z</time></trkpt><trkpt lat="37.83236525106489" lon="-3.09918098782462"><ele>814.0</ele><time>2026-04-21T10:02:46.999Z</time></trkpt><trkpt lat="37.83215856734903" lon="-3.0992731575332173"><ele>814.0</ele><time>2026-04-21T10:02:47.999Z</time></trkpt><trkpt lat="37.83193800498864" lon="-3.0993897241495696"><ele>814.0</ele><time>2026-04-21T10:02:48.999Z</time></trkpt><trkpt lat="37.831747714040105" lon="-3.0995117062863535"><ele>812.6666666666666</ele><time>2026-04-21T10:02:49.999Z</time></trkpt><trkpt lat="37.83157897887573" lon="-3.099647981052987"><ele>811.3333333333333</ele><time>2026-04-21T10:02:50.999Z</time></trkpt><trkpt lat="37.83141507524731" lon="-3.0997953889444165"><ele>810.0</ele><time>2026-04-21T10:02:51.999Z</time></trkpt><trkpt lat="37.831268605145134" lon="-3.099938167393141"><ele>806.3333333333333</ele><time>2026-04-21T10:02:52.999Z</time></trkpt><trkpt lat="37.83113511911726" lon="-3.100078614915987"><ele>802.6666666666666</ele><time>2026-04-21T10:02:53.999Z</time></trkpt><trkpt lat="37.830980567642015" lon="-3.1001807809298665"><ele>799.0</ele><time>2026-04-21T10:02:54.999Z</time></trkpt><trkpt lat="37.83081047148352" lon="-3.1002221545396416"><ele>798.3333333333333</ele><time>2026-04-21T10:02:55.999Z</time></trkpt><trkpt lat="37.83062297297455" lon="-3.1002136999535965"><ele>797.6666666666667</ele><time>2026-04-21T10:02:56.998Z</time></trkpt><trkpt lat="37.83042376308999" lon="-3.100160164596067"><ele>797.0</ele><time>2026-04-21T10:02:57.998Z</time></trkpt><trkpt lat="37.830224205859246" lon="-3.1000954776203695"><ele>794.3333333333334</ele><time>2026-04-21T10:02:58.998Z</time></trkpt><trkpt lat="37.83003588386501" lon="-3.1000482767036854"><ele>791.6666666666667</ele><time>2026-04-21T10:02:59.998Z</time></trkpt><trkpt lat="37.829855389073614" lon="-3.100058945869801"><ele>789.0</ele><time>2026-04-21T10:03:00.998Z</time></trkpt><trkpt lat="37.82967775884646" lon="-3.1001329104971678"><ele>789.0</ele><time>2026-04-21T10:03:01.998Z</time></trkpt><trkpt lat="37.82952092265551" lon="-3.100261176767818"><ele>789.0</ele><time>2026-04-21T10:03:02.998Z</time></trkpt><trkpt lat="37.82937508015341" lon="-3.1004347640350267"><ele>789.0</ele><time>2026-04-21T10:03:03.998Z</time></trkpt><trkpt lat="37.82925398858212" lon="-3.1006491267968026"><ele>786.0</ele><time>2026-04-21T10:03:04.998Z</time></trkpt><trkpt lat="37.82915133345877" lon="-3.1008601428480924"><ele>783.0</ele><time>2026-04-21T10:03:05.998Z</time></trkpt><trkpt lat="37.82904912442121" lon="-3.1010298720641196"><ele>780.0</ele><time>2026-04-21T10:03:06.998Z</time></trkpt><trkpt lat="37.828940943655226" lon="-3.1011562537193913"><ele>780.0</ele><time>2026-04-21T10:03:07.998Z</time></trkpt><trkpt lat="37.82880466881975" lon="-3.1012437362572736"><ele>780.0</ele><time>2026-04-21T10:03:08.998Z</time></trkpt><trkpt lat="37.82863772646344" lon="-3.1012986294447935"><ele>780.0</ele><time>2026-04-21T10:03:09.998Z</time></trkpt><trkpt lat="37.82845799582023" lon="-3.101303204182389"><ele>779.0</ele><time>2026-04-21T10:03:10.998Z</time></trkpt><trkpt lat="37.82827326129576" lon="-3.1012585006776208"><ele>778.0</ele><time>2026-04-21T10:03:11.998Z</time></trkpt><trkpt lat="37.82809699010032" lon="-3.101162214325785"><ele>777.0</ele><time>2026-04-21T10:03:12.998Z</time></trkpt><trkpt lat="37.82795704060171" lon="-3.1010300811190823"><ele>777.0</ele><time>2026-04-21T10:03:13.998Z</time></trkpt><trkpt lat="37.827847931933604" lon="-3.100862228308404"><ele>777.0</ele><time>2026-04-21T10:03:15Z</time></trkpt><trkpt lat="37.82776289491842" lon="-3.100644403152277"><ele>777.0</ele><time>2026-04-21T10:03:16Z</time></trkpt><trkpt lat="37.827692536414055" lon="-3.100409535523842"><ele>778.0</ele><time>2026-04-21T10:03:17Z</time></trkpt><trkpt lat="37.827579601981704" lon="-3.1001927252022834"><ele>779.0</ele><time>2026-04-21T10:03:18Z</time></trkpt><trkpt lat="37.827424170570765" lon="-3.1000153398418036"><ele>780.0</ele><time>2026-04-21T10:03:19Z</time></trkpt><trkpt lat="37.827246736318756" lon="-3.0998687199380215"><ele>780.0</ele><time>2026-04-21T10:03:20Z</time></trkpt><trkpt lat="37.82706383386252" lon="-3.0997582106853128"><ele>780.0</ele><time>2026-04-21T10:03:21Z</time></trkpt><trkpt lat="37.82687894917957" lon="-3.0996806251874736"><ele>780.0</ele><time>2026-04-21T10:03:22Z</time></trkpt><trkpt lat="37.82668514594294" lon="-3.099618621540766"><ele>775.0</ele><time>2026-04-21T10:03:23Z</time></trkpt><trkpt lat="37.8264905518246" lon="-3.099559540304967"><ele>770.0</ele><time>2026-04-21T10:03:24Z</time></trkpt><trkpt lat="37.82630758510609" lon="-3.099499430622183"><ele>765.0</ele><time>2026-04-21T10:03:25Z</time></trkpt><trkpt lat="37.826149591328296" lon="-3.0994173912513596"><ele>765.0</ele><time>2026-04-21T10:03:26Z</time></trkpt><trkpt lat="37.826007178712565" lon="-3.0992978167438405"><ele>765.0</ele><time>2026-04-21T10:03:27Z</time></trkpt><trkpt lat="37.825882199992776" lon="-3.099141150002374"><ele>765.0</ele><time>2026-04-21T10:03:28Z</time></trkpt><trkpt lat="37.82578051781642" lon="-3.0989461504542906"><ele>763.6666666666666</ele><time>2026-04-21T10:03:29Z</time></trkpt><trkpt lat="37.82571178925717" lon="-3.098718808183231"><ele>762.3333333333333</ele><time>2026-04-21T10:03:30Z</time></trkpt><trkpt lat="37.82567609995143" lon="-3.098471207279255"><ele>761.0</ele><time>2026-04-21T10:03:31Z</time></trkpt><trkpt lat="37.825655231834645" lon="-3.0982205375796648"><ele>761.0</ele><time>2026-04-21T10:03:32Z</time></trkpt><trkpt lat="37.825617093243146" lon="-3.097967574448653"><ele>761.0</ele><time>2026-04-21T10:03:33Z</time></trkpt><trkpt lat="37.82555392460352" lon="-3.0977405165407825"><ele>761.0</ele><time>2026-04-21T10:03:34Z</time></trkpt><trkpt lat="37.8254620682519" lon="-3.0975501043278326"><ele>760.3333333333333</ele><time>2026-04-21T10:03:35Z</time></trkpt><trkpt lat="37.8253325383677" lon="-3.097380401285189"><ele>759.6666666666666</ele><time>2026-04-21T10:03:36Z</time></trkpt><trkpt lat="37.82517308600869" lon="-3.09723601469076"><ele>759.0</ele><time>2026-04-21T10:03:37Z</time></trkpt><trkpt lat="37.82499651423912" lon="-3.0971232729872122"><ele>759.0</ele><time>2026-04-21T10:03:38Z</time></trkpt><trkpt lat="37.824796736810804" lon="-3.0970484792512143"><ele>759.0</ele><time>2026-04-21T10:03:39Z</time></trkpt><trkpt lat="37.82458194084266" lon="-3.096982584446874"><ele>759.0</ele><time>2026-04-21T10:03:40Z</time></trkpt><trkpt lat="37.82436648727854" lon="-3.0969012627564947"><ele>757.6666666666666</ele><time>2026-04-21T10:03:41Z</time></trkpt><trkpt lat="37.82415607293535" lon="-3.0967936675527414"><ele>756.3333333333333</ele><time>2026-04-21T10:03:42Z</time></trkpt><trkpt lat="37.82398337269403" lon="-3.096661677670044"><ele>755.0</ele><time>2026-04-21T10:03:43Z</time></trkpt><trkpt lat="37.82380383406733" lon="-3.0965329761146547"><ele>754.3333333333333</ele><time>2026-04-21T10:03:44Z</time></trkpt><trkpt lat="37.82365321398038" lon="-3.0963865908175654"><ele>753.6666666666666</ele><time>2026-04-21T10:03:45Z</time></trkpt><trkpt lat="37.82352130452058" lon="-3.096233389286237"><ele>753.0</ele><time>2026-04-21T10:03:46Z</time></trkpt><trkpt lat="37.8234061244135" lon="-3.096061535226035"><ele>753.0</ele><time>2026-04-21T10:03:47Z</time></trkpt><trkpt lat="37.823319124182795" lon="-3.0958506064750164"><ele>753.0</ele><time>2026-04-21T10:03:48Z</time></trkpt><trkpt lat="37.823250087757714" lon="-3.095614750676382"><ele>753.0</ele><time>2026-04-21T10:03:49Z</time></trkpt><trkpt lat="37.82316661175867" lon="-3.0953743112758425"><ele>756.6666666666666</ele><time>2026-04-21T10:03:50Z</time></trkpt><trkpt lat="37.82306651051006" lon="-3.095155845839067"><ele>760.3333333333333</ele><time>2026-04-21T10:03:51Z</time></trkpt><trkpt lat="37.822960415869034" lon="-3.094966510693068"><ele>764.0</ele><time>2026-04-21T10:03:52Z</time></trkpt><trkpt lat="37.82283058947861" lon="-3.094828992649315"><ele>767.0</ele><time>2026-04-21T10:03:53Z</time></trkpt><trkpt lat="37.82270896942768" lon="-3.094716466380981"><ele>770.0</ele><time>2026-04-21T10:03:54Z</time></trkpt><trkpt lat="37.82256768417581" lon="-3.0946349716844894"><ele>773.0</ele><time>2026-04-21T10:03:55Z</time></trkpt><trkpt lat="37.82240656678107" lon="-3.0945913830811986"><ele>765.6666666666667</ele><time>2026-04-21T10:03:56Z</time></trkpt><trkpt lat="37.82223342271246" lon="-3.094591110117114"><ele>758.3333333333334</ele><time>2026-04-21T10:03:56.999Z</time></trkpt><trkpt lat="37.82206576321562" lon="-3.0946447325900497"><ele>751.0</ele><time>2026-04-21T10:03:57.999Z</time></trkpt><trkpt lat="37.821904270196214" lon="-3.094750166817323"><ele>751.3333333333334</ele><time>2026-04-21T10:03:58.999Z</time></trkpt><trkpt lat="37.821748655943836" lon="-3.0949050161684717"><ele>751.6666666666666</ele><time>2026-04-21T10:03:59.999Z</time></trkpt><trkpt lat="37.82159888558197" lon="-3.0950788923216925"><ele>752.0</ele><time>2026-04-21T10:04:00.999Z</time></trkpt><trkpt lat="37.82143930099175" lon="-3.0952178847884824"><ele>750.6666666666666</ele><time>2026-04-21T10:04:01.999Z</time></trkpt><trkpt lat="37.82127861860657" lon="-3.095340843785527"><ele>749.3333333333334</ele><time>2026-04-21T10:04:02.999Z</time></trkpt><trkpt lat="37.8210853409781" lon="-3.0954136331737026"><ele>748.0</ele><time>2026-04-21T10:04:03.999Z</time></trkpt><trkpt lat="37.82088021324911" lon="-3.0954306011128914"><ele>748.0</ele><time>2026-04-21T10:04:04.999Z</time></trkpt><trkpt lat="37.82068153171686" lon="-3.0954061114168874"><ele>748.0</ele><time>2026-04-21T10:04:05.999Z</time></trkpt><trkpt lat="37.820501693644296" lon="-3.09533031069495"><ele>748.0</ele><time>2026-04-21T10:04:06.999Z</time></trkpt><trkpt lat="37.820330352440855" lon="-3.095212078404174"><ele>748.0</ele><time>2026-04-21T10:04:07.999Z</time></trkpt><trkpt lat="37.82017447514469" lon="-3.095044728602018"><ele>748.0</ele><time>2026-04-21T10:04:08.999Z</time></trkpt><trkpt lat="37.820018553585975" lon="-3.0948453775875246"><ele>748.0</ele><time>2026-04-21T10:04:09.999Z</time></trkpt><trkpt lat="37.81981807814284" lon="-3.0947134598967923"><ele>748.5</ele><time>2026-04-21T10:04:10.999Z</time></trkpt><trkpt lat="37.81960416568596" lon="-3.0945834121007625"><ele>749.0</ele><time>2026-04-21T10:04:11.999Z</time></trkpt><trkpt lat="37.819407876181984" lon="-3.094456710230571"><ele>749.0</ele><time>2026-04-21T10:04:12.999Z</time></trkpt><trkpt lat="37.81924145241268" lon="-3.0943558184429296"><ele>749.0</ele><time>2026-04-21T10:04:13.999Z</time></trkpt><trkpt lat="37.819058994233686" lon="-3.094314154947026"><ele>749.0</ele><time>2026-04-21T10:04:14.999Z</time></trkpt><trkpt lat="37.81885664735531" lon="-3.094299229113458"><ele>749.0</ele><time>2026-04-21T10:04:15.999Z</time></trkpt><trkpt lat="37.818666284676816" lon="-3.094262917508007"><ele>749.0</ele><time>2026-04-21T10:04:16.999Z</time></trkpt><trkpt lat="37.81848635052565" lon="-3.094205032332018"><ele>749.0</ele><time>2026-04-21T10:04:17.999Z</time></trkpt><trkpt lat="37.81831119820684" lon="-3.094075494827024"><ele>754.5</ele><time>2026-04-21T10:04:18.999Z</time></trkpt><trkpt lat="37.81813753947518" lon="-3.0938952147184096"><ele>760.0</ele><time>2026-04-21T10:04:19.999Z</time></trkpt><trkpt lat="37.81797526080519" lon="-3.0936966128184284"><ele>760.0</ele><time>2026-04-21T10:04:20.999Z</time></trkpt><trkpt lat="37.817812477825186" lon="-3.093547134203849"><ele>760.0</ele><time>2026-04-21T10:04:21.999Z</time></trkpt><trkpt lat="37.81764242891035" lon="-3.093424773828511"><ele>760.0</ele><time>2026-04-21T10:04:22.999Z</time></trkpt><trkpt lat="37.81745809066775" lon="-3.093329523395617"><ele>760.0</ele><time>2026-04-21T10:04:23.999Z</time></trkpt><trkpt lat="37.81724816969032" lon="-3.0932612089986526"><ele>760.0</ele><time>2026-04-21T10:04:24.999Z</time></trkpt><trkpt lat="37.8170266714181" lon="-3.093227191915523"><ele>760.0</ele><time>2026-04-21T10:04:25.999Z</time></trkpt><trkpt lat="37.81682250859894" lon="-3.093202316065283"><ele>764.3333333333334</ele><time>2026-04-21T10:04:26.999Z</time></trkpt><trkpt lat="37.816632085327804" lon="-3.0931641080376275"><ele>768.6666666666667</ele><time>2026-04-21T10:04:27.999Z</time></trkpt><trkpt lat="37.81644077880394" lon="-3.0931397794810795"><ele>773.0</ele><time>2026-04-21T10:04:28.999Z</time></trkpt><trkpt lat="37.81624815149858" lon="-3.093114984015118"><ele>773.0</ele><time>2026-04-21T10:04:29.999Z</time></trkpt><trkpt lat="37.816053163514454" lon="-3.0930828896799234"><ele>773.0</ele><time>2026-04-21T10:04:30.999Z</time></trkpt><trkpt lat="37.81585911667072" lon="-3.0930368150647793"><ele>773.0</ele><time>2026-04-21T10:04:31.999Z</time></trkpt><trkpt lat="37.8156657531777" lon="-3.0929701379057044"><ele>773.6666666666667</ele><time>2026-04-21T10:04:32.999Z</time></trkpt><trkpt lat="37.815481205305765" lon="-3.0928694384922744"><ele>774.3333333333333</ele><time>2026-04-21T10:04:33.999Z</time></trkpt><trkpt lat="37.81530503550702" lon="-3.092733365033447"><ele>775.0</ele><time>2026-04-21T10:04:34.999Z</time></trkpt><trkpt lat="37.815138737677444" lon="-3.092563106046939"><ele>777.3333333333333</ele><time>2026-04-21T10:04:35.999Z</time></trkpt><trkpt lat="37.81498032803613" lon="-3.092372085537767"><ele>779.6666666666667</ele><time>2026-04-21T10:04:36.999Z</time></trkpt><trkpt lat="37.814825332930894" lon="-3.092168956949251"><ele>782.0</ele><time>2026-04-21T10:04:37.999Z</time></trkpt><trkpt lat="37.81467932027114" lon="-3.0919573034634875"><ele>782.0</ele><time>2026-04-21T10:04:38.999Z</time></trkpt><trkpt lat="37.814534129556385" lon="-3.091763278416274"><ele>782.0</ele><time>2026-04-21T10:04:39.999Z</time></trkpt><trkpt lat="37.81440018955643" lon="-3.0915737872495987"><ele>782.0</ele><time>2026-04-21T10:04:40.999Z</time></trkpt><trkpt lat="37.81426707758575" lon="-3.0913879956104515"><ele>784.3333333333334</ele><time>2026-04-21T10:04:41.999Z</time></trkpt><trkpt lat="37.81414314495014" lon="-3.0912041985639194"><ele>786.6666666666667</ele><time>2026-04-21T10:04:42.999Z</time></trkpt><trkpt lat="37.81402436823304" lon="-3.091005090725915"><ele>789.0</ele><time>2026-04-21T10:04:43.999Z</time></trkpt><trkpt lat="37.813930380773456" lon="-3.09077981313855"><ele>792.3333333333333</ele><time>2026-04-21T10:04:44.999Z</time></trkpt><trkpt lat="37.81385229970995" lon="-3.0905361289004984"><ele>795.6666666666666</ele><time>2026-04-21T10:04:45.999Z</time></trkpt><trkpt lat="37.81378873928857" lon="-3.090276616914463"><ele>799.0</ele><time>2026-04-21T10:04:46.999Z</time></trkpt><trkpt lat="37.813731308365995" lon="-3.0900204427327655"><ele>802.6666666666666</ele><time>2026-04-21T10:04:47.999Z</time></trkpt><trkpt lat="37.813682019746636" lon="-3.089763428691265"><ele>806.3333333333333</ele><time>2026-04-21T10:04:48.999Z</time></trkpt><trkpt lat="37.81362671527761" lon="-3.089506428437845"><ele>810.0</ele><time>2026-04-21T10:04:49.999Z</time></trkpt><trkpt lat="37.81356015304039" lon="-3.0892575906916475"><ele>810.3333333333333</ele><time>2026-04-21T10:04:50.999Z</time></trkpt><trkpt lat="37.81347929280462" lon="-3.0890165594753727"><ele>810.6666666666666</ele><time>2026-04-21T10:04:51.999Z</time></trkpt><trkpt lat="37.81338511665053" lon="-3.0888060999774507"><ele>811.0</ele><time>2026-04-21T10:04:52.999Z</time></trkpt><trkpt lat="37.813269504707804" lon="-3.088620425550532"><ele>811.0</ele><time>2026-04-21T10:04:53.999Z</time></trkpt><trkpt lat="37.81312505923571" lon="-3.088457328987071"><ele>811.0</ele><time>2026-04-21T10:04:54.999Z</time></trkpt><trkpt lat="37.813000974889576" lon="-3.0882742750464653"><ele>811.0</ele><time>2026-04-21T10:04:55.999Z</time></trkpt><trkpt lat="37.812766203932355" lon="-3.088195022258798"><ele>813.6666666666666</ele><time>2026-04-21T10:04:56.999Z</time></trkpt><trkpt lat="37.81256414042698" lon="-3.088114391545801"><ele>816.3333333333333</ele><time>2026-04-21T10:04:57.999Z</time></trkpt><trkpt lat="37.812361000655706" lon="-3.0880793789628083"><ele>819.0</ele><time>2026-04-21T10:04:58.999Z</time></trkpt><trkpt lat="37.81216299433662" lon="-3.0880321740027306"><ele>819.0</ele><time>2026-04-21T10:04:59.999Z</time></trkpt><trkpt lat="37.81198167025401" lon="-3.0879340370561064"><ele>819.0</ele><time>2026-04-21T10:05:00.999Z</time></trkpt><trkpt lat="37.81180232320857" lon="-3.0878301223045654"><ele>819.0</ele><time>2026-04-21T10:05:01.999Z</time></trkpt><trkpt lat="37.81164424695363" lon="-3.087661630361145"><ele>817.6666666666667</ele><time>2026-04-21T10:05:02.998Z</time></trkpt><trkpt lat="37.811493758835816" lon="-3.087474041672518"><ele>816.3333333333334</ele><time>2026-04-21T10:05:03.998Z</time></trkpt><trkpt lat="37.811332641281645" lon="-3.087289069363089"><ele>815.0</ele><time>2026-04-21T10:05:04.998Z</time></trkpt><trkpt lat="37.81116937035469" lon="-3.0871191300215357"><ele>815.3333333333334</ele><time>2026-04-21T10:05:05.998Z</time></trkpt><trkpt lat="37.81102106489785" lon="-3.086951621457618"><ele>815.6666666666667</ele><time>2026-04-21T10:05:06.998Z</time></trkpt><trkpt lat="37.81087018352332" lon="-3.086766575599088"><ele>816.0</ele><time>2026-04-21T10:05:07.998Z</time></trkpt><trkpt lat="37.81071017335419" lon="-3.0865731699309196"><ele>820.3333333333333</ele><time>2026-04-21T10:05:08.998Z</time></trkpt><trkpt lat="37.81054893827546" lon="-3.0864122712958117"><ele>824.6666666666666</ele><time>2026-04-21T10:05:09.998Z</time></trkpt><trkpt lat="37.81039609051669" lon="-3.086263864063596"><ele>829.0</ele><time>2026-04-21T10:05:10.998Z</time></trkpt><trkpt lat="37.81025988079592" lon="-3.0861294469456384"><ele>829.0</ele><time>2026-04-21T10:05:11.998Z</time></trkpt><trkpt lat="37.810125576010776" lon="-3.0859835081654903"><ele>829.0</ele><time>2026-04-21T10:05:12.998Z</time></trkpt><trkpt lat="37.80997822567279" lon="-3.0858140461420414"><ele>829.0</ele><time>2026-04-21T10:05:13.998Z</time></trkpt><trkpt lat="37.809824374541556" lon="-3.0856386137064677"><ele>829.0</ele><time>2026-04-21T10:05:14.998Z</time></trkpt><trkpt lat="37.8096670573862" lon="-3.085473196983582"><ele>829.0</ele><time>2026-04-21T10:05:15.998Z</time></trkpt><trkpt lat="37.8095004030303" lon="-3.0853103101201316"><ele>829.0</ele><time>2026-04-21T10:05:16.998Z</time></trkpt><trkpt lat="37.80932023503767" lon="-3.0851609461012943"><ele>827.3333333333333</ele><time>2026-04-21T10:05:17.998Z</time></trkpt><trkpt lat="37.809125214024164" lon="-3.0850371323533694"><ele>825.6666666666667</ele><time>2026-04-21T10:05:18.998Z</time></trkpt><trkpt lat="37.80892334900048" lon="-3.0849259116786865"><ele>824.0</ele><time>2026-04-21T10:05:19.998Z</time></trkpt><trkpt lat="37.808732088846774" lon="-3.084814101361456"><ele>826.0</ele><time>2026-04-21T10:05:21Z</time></trkpt><trkpt lat="37.808544099761086" lon="-3.084696343330087"><ele>828.0</ele><time>2026-04-21T10:05:22Z</time></trkpt><trkpt lat="37.808353843291364" lon="-3.0845806013491703"><ele>830.0</ele><time>2026-04-21T10:05:23Z</time></trkpt><trkpt lat="37.80816418503717" lon="-3.084463398783962"><ele>830.0</ele><time>2026-04-21T10:05:24Z</time></trkpt><trkpt lat="37.80797523176428" lon="-3.0843455573079543"><ele>830.0</ele><time>2026-04-21T10:05:25Z</time></trkpt><trkpt lat="37.80778638364156" lon="-3.0842250927006933"><ele>830.0</ele><time>2026-04-21T10:05:26Z</time></trkpt><trkpt lat="37.80759884016351" lon="-3.0840971624258278"><ele>830.6666666666667</ele><time>2026-04-21T10:05:27Z</time></trkpt><trkpt lat="37.80740867338778" lon="-3.0839617566742565"><ele>831.3333333333333</ele><time>2026-04-21T10:05:28Z</time></trkpt><trkpt lat="37.80721853430193" lon="-3.083808332449558"><ele>832.0</ele><time>2026-04-21T10:05:29Z</time></trkpt><trkpt lat="37.807026283451414" lon="-3.083626668204655"><ele>832.0</ele><time>2026-04-21T10:05:30Z</time></trkpt><trkpt lat="37.806832485478786" lon="-3.083409941761033"><ele>832.0</ele><time>2026-04-21T10:05:31Z</time></trkpt><trkpt lat="37.8066536383855" lon="-3.083181530576131"><ele>829.5</ele><time>2026-04-21T10:05:32Z</time></trkpt><trkpt lat="37.80648612503354" lon="-3.0829669038260556"><ele>827.0</ele><time>2026-04-21T10:05:33Z</time></trkpt><trkpt lat="37.80632675104474" lon="-3.082763929990075"><ele>827.0</ele><time>2026-04-21T10:05:34Z</time></trkpt><trkpt lat="37.806164932348565" lon="-3.082572832883951"><ele>827.0</ele><time>2026-04-21T10:05:35Z</time></trkpt><trkpt lat="37.80598591321726" lon="-3.082395852214629"><ele>827.0</ele><time>2026-04-21T10:05:36Z</time></trkpt><trkpt lat="37.80580222862282" lon="-3.0822784307128988"><ele>827.6666666666667</ele><time>2026-04-21T10:05:37Z</time></trkpt><trkpt lat="37.80560745275992" lon="-3.082179032491801"><ele>828.3333333333333</ele><time>2026-04-21T10:05:38Z</time></trkpt><trkpt lat="37.805397921867566" lon="-3.082103713746376"><ele>829.0</ele><time>2026-04-21T10:05:39Z</time></trkpt><trkpt lat="37.805179141445144" lon="-3.082066809021814"><ele>824.5</ele><time>2026-04-21T10:05:40Z</time></trkpt><trkpt lat="37.804956819963635" lon="-3.0820655048464696"><ele>820.0</ele><time>2026-04-21T10:05:41Z</time></trkpt><trkpt lat="37.80472996051561" lon="-3.0820968267088915"><ele>820.0</ele><time>2026-04-21T10:05:42Z</time></trkpt><trkpt lat="37.80449605071397" lon="-3.082169487006754"><ele>820.0</ele><time>2026-04-21T10:05:43Z</time></trkpt><trkpt lat="37.80426833315693" lon="-3.0822827263321853"><ele>819.5</ele><time>2026-04-21T10:05:44Z</time></trkpt><trkpt lat="37.804054524644044" lon="-3.0824265067840413"><ele>819.0</ele><time>2026-04-21T10:05:45Z</time></trkpt><trkpt lat="37.803870047049344" lon="-3.0825863011064127"><ele>819.0</ele><time>2026-04-21T10:05:46Z</time></trkpt><trkpt lat="37.80370590656219" lon="-3.0827435454583143"><ele>819.0</ele><time>2026-04-21T10:05:47Z</time></trkpt><trkpt lat="37.803542756670126" lon="-3.082893725537754"><ele>819.0</ele><time>2026-04-21T10:05:48Z</time></trkpt><trkpt lat="37.80337102238699" lon="-3.083034272956618"><ele>819.0</ele><time>2026-04-21T10:05:49Z</time></trkpt><trkpt lat="37.8031855244903" lon="-3.0831642113626514"><ele>819.0</ele><time>2026-04-21T10:05:50Z</time></trkpt><trkpt lat="37.80299563234634" lon="-3.0832778298159216"><ele>819.0</ele><time>2026-04-21T10:05:51Z</time></trkpt><trkpt lat="37.80279559044537" lon="-3.083376233174008"><ele>816.0</ele><time>2026-04-21T10:05:52Z</time></trkpt><trkpt lat="37.80259796197471" lon="-3.083452919966737"><ele>813.0</ele><time>2026-04-21T10:05:53Z</time></trkpt><trkpt lat="37.802405853509995" lon="-3.083510114454019"><ele>810.0</ele><time>2026-04-21T10:05:54Z</time></trkpt><trkpt lat="37.802223137816355" lon="-3.0835480935333197"><ele>810.0</ele><time>2026-04-21T10:05:55Z</time></trkpt><trkpt lat="37.80204439030272" lon="-3.083571257133173"><ele>810.0</ele><time>2026-04-21T10:05:56Z</time></trkpt><trkpt lat="37.80186953140946" lon="-3.0835924013514697"><ele>810.0</ele><time>2026-04-21T10:05:57Z</time></trkpt><trkpt lat="37.801699650949224" lon="-3.083615913205402"><ele>810.6666666666667</ele><time>2026-04-21T10:05:58Z</time></trkpt><trkpt lat="37.80153346068361" lon="-3.083630235426214"><ele>811.3333333333334</ele><time>2026-04-21T10:05:59Z</time></trkpt><trkpt lat="37.80136418696055" lon="-3.0836388316708057"><ele>812.0</ele><time>2026-04-21T10:06:00Z</time></trkpt><trkpt lat="37.80118993149434" lon="-3.0836494256981983"><ele>812.0</ele><time>2026-04-21T10:06:01Z</time></trkpt><trkpt lat="37.80101657237491" lon="-3.083670559213469"><ele>812.0</ele><time>2026-04-21T10:06:02Z</time></trkpt><trkpt lat="37.80084224470619" lon="-3.083702341077744"><ele>812.0</ele><time>2026-04-21T10:06:03Z</time></trkpt><trkpt lat="37.80067445702021" lon="-3.0837396101895185"><ele>812.6666666666667</ele><time>2026-04-21T10:06:04Z</time></trkpt><trkpt lat="37.8005046249374" lon="-3.083783194593863"><ele>813.3333333333333</ele><time>2026-04-21T10:06:05Z</time></trkpt><trkpt lat="37.800341751679795" lon="-3.0838322071519366"><ele>814.0</ele><time>2026-04-21T10:06:05.999Z</time></trkpt><trkpt lat="37.80017751290766" lon="-3.0838873148433286"><ele>816.6666666666666</ele><time>2026-04-21T10:06:06.999Z</time></trkpt><trkpt lat="37.80001505358276" lon="-3.0839454295392006"><ele>819.3333333333333</ele><time>2026-04-21T10:06:07.999Z</time></trkpt><trkpt lat="37.79985325506588" lon="-3.084005807539257"><ele>822.0</ele><time>2026-04-21T10:06:08.999Z</time></trkpt><trkpt lat="37.79968262307362" lon="-3.0840756116384176"><ele>820.6666666666667</ele><time>2026-04-21T10:06:09.999Z</time></trkpt><trkpt lat="37.79950891960762" lon="-3.0841513733852093"><ele>819.3333333333334</ele><time>2026-04-21T10:06:10.999Z</time></trkpt><trkpt lat="37.79932652240395" lon="-3.0842375182206503"><ele>818.0</ele><time>2026-04-21T10:06:11.999Z</time></trkpt><trkpt lat="37.79915010822635" lon="-3.0843058472596376"><ele>818.0</ele><time>2026-04-21T10:06:12.999Z</time></trkpt><trkpt lat="37.79898745601158" lon="-3.0843525323236904"><ele>818.0</ele><time>2026-04-21T10:06:13.999Z</time></trkpt><trkpt lat="37.798812557005824" lon="-3.0843535230374366"><ele>818.0</ele><time>2026-04-21T10:06:14.999Z</time></trkpt><trkpt lat="37.7986483580607" lon="-3.084298217161777"><ele>816.6666666666667</ele><time>2026-04-21T10:06:15.999Z</time></trkpt><trkpt lat="37.798488636986555" lon="-3.0841937419860583"><ele>815.3333333333333</ele><time>2026-04-21T10:06:16.999Z</time></trkpt><trkpt lat="37.79834288491523" lon="-3.0840431283404035"><ele>814.0</ele><time>2026-04-21T10:06:17.999Z</time></trkpt><trkpt lat="37.798219942774324" lon="-3.0838816935590505"><ele>816.6666666666666</ele><time>2026-04-21T10:06:18.999Z</time></trkpt><trkpt lat="37.79808792626561" lon="-3.0837649457681335"><ele>819.3333333333333</ele><time>2026-04-21T10:06:19.999Z</time></trkpt><trkpt lat="37.79792084487608" lon="-3.0837096655979517"><ele>822.0</ele><time>2026-04-21T10:06:20.999Z</time></trkpt><trkpt lat="37.797720872752" lon="-3.083723038080258"><ele>820.5</ele><time>2026-04-21T10:06:21.999Z</time></trkpt><trkpt lat="37.797506225917644" lon="-3.0837813558892524"><ele>819.0</ele><time>2026-04-21T10:06:22.999Z</time></trkpt><trkpt lat="37.797273135197166" lon="-3.083825257058827"><ele>819.0</ele><time>2026-04-21T10:06:23.999Z</time></trkpt><trkpt lat="37.79703689359741" lon="-3.083852927293937"><ele>819.0</ele><time>2026-04-21T10:06:24.999Z</time></trkpt><trkpt lat="37.796818710394255" lon="-3.0838587503321384"><ele>817.6666666666667</ele><time>2026-04-21T10:06:25.999Z</time></trkpt><trkpt lat="37.79662348000586" lon="-3.083844409087983"><ele>816.3333333333334</ele><time>2026-04-21T10:06:26.999Z</time></trkpt><trkpt lat="37.796429778580055" lon="-3.0838066057737397"><ele>815.0</ele><time>2026-04-21T10:06:27.999Z</time></trkpt><trkpt lat="37.79624469719804" lon="-3.0837352384382593"><ele>815.0</ele><time>2026-04-21T10:06:28.999Z</time></trkpt><trkpt lat="37.796067162641954" lon="-3.0836400049514148"><ele>815.0</ele><time>2026-04-21T10:06:29.999Z</time></trkpt><trkpt lat="37.795896137376964" lon="-3.083515407273058"><ele>815.0</ele><time>2026-04-21T10:06:30.999Z</time></trkpt><trkpt lat="37.79574409450096" lon="-3.0833882588155093"><ele>815.6666666666667</ele><time>2026-04-21T10:06:31.999Z</time></trkpt><trkpt lat="37.79562097803844" lon="-3.083266067966861"><ele>816.3333333333333</ele><time>2026-04-21T10:06:32.999Z</time></trkpt><trkpt lat="37.795511046993276" lon="-3.083126928924824"><ele>817.0</ele><time>2026-04-21T10:06:33.999Z</time></trkpt><trkpt lat="37.79541572243531" lon="-3.0829503852623334"><ele>817.0</ele><time>2026-04-21T10:06:34.999Z</time></trkpt><trkpt lat="37.795340898000696" lon="-3.082761102633365"><ele>817.0</ele><time>2026-04-21T10:06:35.999Z</time></trkpt><trkpt lat="37.79525585037856" lon="-3.0826070382850386"><ele>817.0</ele><time>2026-04-21T10:06:36.999Z</time></trkpt><trkpt lat="37.795138755309104" lon="-3.08250695460166"><ele>812.6666666666666</ele><time>2026-04-21T10:06:37.999Z</time></trkpt><trkpt lat="37.79497728230207" lon="-3.0824690165064736"><ele>808.3333333333333</ele><time>2026-04-21T10:06:38.999Z</time></trkpt><trkpt lat="37.7947889841329" lon="-3.082467940829957"><ele>804.0</ele><time>2026-04-21T10:06:39.999Z</time></trkpt><trkpt lat="37.7945991377695" lon="-3.082501994251623"><ele>804.0</ele><time>2026-04-21T10:06:40.999Z</time></trkpt><trkpt lat="37.7944117841931" lon="-3.082582727034492"><ele>804.0</ele><time>2026-04-21T10:06:41.999Z</time></trkpt><trkpt lat="37.794250943323505" lon="-3.0826879799236537"><ele>804.0</ele><time>2026-04-21T10:06:42.999Z</time></trkpt><trkpt lat="37.79410271480888" lon="-3.0827728495505275"><ele>801.3333333333333</ele><time>2026-04-21T10:06:43.999Z</time></trkpt><trkpt lat="37.793948762436536" lon="-3.082806836717736"><ele>798.6666666666666</ele><time>2026-04-21T10:06:44.999Z</time></trkpt><trkpt lat="37.793781111897786" lon="-3.082784607430217"><ele>796.0</ele><time>2026-04-21T10:06:45.999Z</time></trkpt><trkpt lat="37.79360798254517" lon="-3.082723572434962"><ele>792.3333333333333</ele><time>2026-04-21T10:06:46.999Z</time></trkpt><trkpt lat="37.793435318840444" lon="-3.082667785791255"><ele>788.6666666666667</ele><time>2026-04-21T10:06:47.999Z</time></trkpt><trkpt lat="37.79327541050699" lon="-3.082628143970757"><ele>785.0</ele><time>2026-04-21T10:06:48.999Z</time></trkpt><trkpt lat="37.79311898362073" lon="-3.0826076594128504"><ele>785.0</ele><time>2026-04-21T10:06:49.999Z</time></trkpt><trkpt lat="37.79296784844645" lon="-3.0826047903781566"><ele>785.0</ele><time>2026-04-21T10:06:50.999Z</time></trkpt><trkpt lat="37.79281998985462" lon="-3.082619018260559"><ele>785.0</ele><time>2026-04-21T10:06:51.999Z</time></trkpt><trkpt lat="37.79267384153177" lon="-3.0826555071037958"><ele>785.0</ele><time>2026-04-21T10:06:52.999Z</time></trkpt><trkpt lat="37.79253077887068" lon="-3.0826992923883276"><ele>785.3333333333334</ele><time>2026-04-21T10:06:53.999Z</time></trkpt><trkpt lat="37.79238209088841" lon="-3.0827343634457103"><ele>785.6666666666667</ele><time>2026-04-21T10:06:54.999Z</time></trkpt><trkpt lat="37.792232403984826" lon="-3.082768308654072"><ele>786.0</ele><time>2026-04-21T10:06:55.999Z</time></trkpt><trkpt lat="37.79208472382959" lon="-3.0828181466114017"><ele>786.0</ele><time>2026-04-21T10:06:56.999Z</time></trkpt><trkpt lat="37.79194554297325" lon="-3.0828869793017306"><ele>786.0</ele><time>2026-04-21T10:06:57.999Z</time></trkpt><trkpt lat="37.791819890706755" lon="-3.0829659048531814"><ele>786.0</ele><time>2026-04-21T10:06:58.999Z</time></trkpt><trkpt lat="37.791708727818516" lon="-3.083057182284081"><ele>786.0</ele><time>2026-04-21T10:06:59.999Z</time></trkpt><trkpt lat="37.79161845158588" lon="-3.083163369732907"><ele>782.5</ele><time>2026-04-21T10:07:00.999Z</time></trkpt><trkpt lat="37.79154617358109" lon="-3.0833009469094406"><ele>779.0</ele><time>2026-04-21T10:07:01.999Z</time></trkpt><trkpt lat="37.79144935069867" lon="-3.083415942386397"><ele>775.5</ele><time>2026-04-21T10:07:02.999Z</time></trkpt><trkpt lat="37.791342805137525" lon="-3.0835442356788896"><ele>772.0</ele><time>2026-04-21T10:07:03.999Z</time></trkpt><trkpt lat="37.79122996125003" lon="-3.0836780611230363"><ele>772.0</ele><time>2026-04-21T10:07:04.999Z</time></trkpt><trkpt lat="37.7911153482787" lon="-3.083813271736101"><ele>772.0</ele><time>2026-04-21T10:07:05.999Z</time></trkpt><trkpt lat="37.791002353332246" lon="-3.0839448973529224"><ele>772.0</ele><time>2026-04-21T10:07:06.999Z</time></trkpt><trkpt lat="37.7908927370593" lon="-3.0840684125537523"><ele>770.25</ele><time>2026-04-21T10:07:07.999Z</time></trkpt><trkpt lat="37.79078546812486" lon="-3.0841885882668727"><ele>768.5</ele><time>2026-04-21T10:07:08.999Z</time></trkpt><trkpt lat="37.79067317873687" lon="-3.0842963320237335"><ele>766.75</ele><time>2026-04-21T10:07:09.999Z</time></trkpt><trkpt lat="37.79055329971292" lon="-3.0844015179757758"><ele>765.0</ele><time>2026-04-21T10:07:10.999Z</time></trkpt><trkpt lat="37.790417077285966" lon="-3.084483316301234"><ele>765.0</ele><time>2026-04-21T10:07:11.999Z</time></trkpt><trkpt lat="37.790267281805484" lon="-3.0845614881472203"><ele>765.0</ele><time>2026-04-21T10:07:12.998Z</time></trkpt><trkpt lat="37.790116816991365" lon="-3.084640009235591"><ele>765.0</ele><time>2026-04-21T10:07:13.998Z</time></trkpt><trkpt lat="37.78997609701982" lon="-3.084714065154693"><ele>764.75</ele><time>2026-04-21T10:07:14.998Z</time></trkpt><trkpt lat="37.789843272613695" lon="-3.0847864018072606"><ele>764.5</ele><time>2026-04-21T10:07:15.998Z</time></trkpt><trkpt lat="37.789716585548156" lon="-3.084842682829678"><ele>764.25</ele><time>2026-04-21T10:07:16.998Z</time></trkpt><trkpt lat="37.7895834929678" lon="-3.084865814110288"><ele>764.0</ele><time>2026-04-21T10:07:17.998Z</time></trkpt><trkpt lat="37.7894496865935" lon="-3.0848934167559894"><ele>762.25</ele><time>2026-04-21T10:07:18.998Z</time></trkpt><trkpt lat="37.789303747245796" lon="-3.084898703621273"><ele>760.5</ele><time>2026-04-21T10:07:19.998Z</time></trkpt><trkpt lat="37.78915373521891" lon="-3.0848757613137936"><ele>758.75</ele><time>2026-04-21T10:07:20.998Z</time></trkpt><trkpt lat="37.789007133087715" lon="-3.084840817954139"><ele>757.0</ele><time>2026-04-21T10:07:21.998Z</time></trkpt><trkpt lat="37.78887127304171" lon="-3.0847979104912797"><ele>757.0</ele><time>2026-04-21T10:07:22.998Z</time></trkpt><trkpt lat="37.78874625060942" lon="-3.0847385803564906"><ele>757.0</ele><time>2026-04-21T10:07:23.998Z</time></trkpt><trkpt lat="37.78862601792073" lon="-3.08466208022165"><ele>757.0</ele><time>2026-04-21T10:07:24.998Z</time></trkpt><trkpt lat="37.788503561959786" lon="-3.0845633821909546"><ele>757.0</ele><time>2026-04-21T10:07:25.998Z</time></trkpt><trkpt lat="37.78836179372522" lon="-3.0844732491320777"><ele>754.6666666666667</ele><time>2026-04-21T10:07:27Z</time></trkpt><trkpt lat="37.78819623088595" lon="-3.084447579376246"><ele>752.3333333333334</ele><time>2026-04-21T10:07:28Z</time></trkpt><trkpt lat="37.788017450471706" lon="-3.084420553444946"><ele>750.0</ele><time>2026-04-21T10:07:29Z</time></trkpt><trkpt lat="37.787834009910405" lon="-3.0844228742371693"><ele>748.3333333333334</ele><time>2026-04-21T10:07:30Z</time></trkpt><trkpt lat="37.78765865731764" lon="-3.084443125085668"><ele>746.6666666666667</ele><time>2026-04-21T10:07:31Z</time></trkpt><trkpt lat="37.7874947876711" lon="-3.084517550783502"><ele>745.0</ele><time>2026-04-21T10:07:32Z</time></trkpt><trkpt lat="37.787325884355994" lon="-3.084627036073525"><ele>745.0</ele><time>2026-04-21T10:07:33Z</time></trkpt><trkpt lat="37.78716146599784" lon="-3.0847382714924145"><ele>745.0</ele><time>2026-04-21T10:07:34Z</time></trkpt><trkpt lat="37.786992868809406" lon="-3.084835774677172"><ele>745.0</ele><time>2026-04-21T10:07:35Z</time></trkpt><trkpt lat="37.78683112042839" lon="-3.084923102185818"><ele>739.0</ele><time>2026-04-21T10:07:36Z</time></trkpt><trkpt lat="37.786653009508676" lon="-3.08498728280327"><ele>733.0</ele><time>2026-04-21T10:07:37Z</time></trkpt><trkpt lat="37.786460354315366" lon="-3.085036756405229"><ele>727.0</ele><time>2026-04-21T10:07:38Z</time></trkpt><trkpt lat="37.78626339937502" lon="-3.0850856206730217"><ele>727.0</ele><time>2026-04-21T10:07:39Z</time></trkpt><trkpt lat="37.78606857011472" lon="-3.0851416770097577"><ele>727.0</ele><time>2026-04-21T10:07:40Z</time></trkpt><trkpt lat="37.7858792444552" lon="-3.085209524166279"><ele>727.0</ele><time>2026-04-21T10:07:41Z</time></trkpt><trkpt lat="37.785689999360926" lon="-3.0852817253440774"><ele>726.6666666666667</ele><time>2026-04-21T10:07:42Z</time></trkpt><trkpt lat="37.78549889333844" lon="-3.0853534236041975"><ele>726.3333333333334</ele><time>2026-04-21T10:07:43Z</time></trkpt><trkpt lat="37.78531028254363" lon="-3.0854302677897194"><ele>726.0</ele><time>2026-04-21T10:07:44Z</time></trkpt><trkpt lat="37.78512281801288" lon="-3.0855076081793453"><ele>725.6666666666666</ele><time>2026-04-21T10:07:45Z</time></trkpt><trkpt lat="37.78493698289502" lon="-3.0855678749588638"><ele>725.3333333333333</ele><time>2026-04-21T10:07:46Z</time></trkpt><trkpt lat="37.78474823012706" lon="-3.085596226795101"><ele>725.0</ele><time>2026-04-21T10:07:47Z</time></trkpt><trkpt lat="37.78454692492887" lon="-3.085615548909989"><ele>725.0</ele><time>2026-04-21T10:07:48Z</time></trkpt><trkpt lat="37.784346828184056" lon="-3.085613722297307"><ele>725.0</ele><time>2026-04-21T10:07:49Z</time></trkpt><trkpt lat="37.78414040755875" lon="-3.0855883581145815"><ele>725.0</ele><time>2026-04-21T10:07:50Z</time></trkpt><trkpt lat="37.783929527097904" lon="-3.08558769362369"><ele>724.6666666666666</ele><time>2026-04-21T10:07:51Z</time></trkpt><trkpt lat="37.78371323568882" lon="-3.085578167413052"><ele>724.3333333333334</ele><time>2026-04-21T10:07:52Z</time></trkpt><trkpt lat="37.78349584885235" lon="-3.0855650026792762"><ele>724.0</ele><time>2026-04-21T10:07:53Z</time></trkpt><trkpt lat="37.78327420052538" lon="-3.085549020737186"><ele>725.5</ele><time>2026-04-21T10:07:54Z</time></trkpt><trkpt lat="37.78304805755101" lon="-3.0855359717963076"><ele>727.0</ele><time>2026-04-21T10:07:55Z</time></trkpt><trkpt lat="37.78282513213389" lon="-3.085518910279843"><ele>726.6666666666667</ele><time>2026-04-21T10:07:56Z</time></trkpt><trkpt lat="37.782615665194136" lon="-3.0855085258808637"><ele>726.3333333333334</ele><time>2026-04-21T10:07:57Z</time></trkpt><trkpt lat="37.78241501221004" lon="-3.085497678631398"><ele>726.0</ele><time>2026-04-21T10:07:58Z</time></trkpt><trkpt lat="37.78221705139112" lon="-3.0854782749753724"><ele>726.0</ele><time>2026-04-21T10:07:59Z</time></trkpt><trkpt lat="37.782013912871165" lon="-3.0854447127036417"><ele>726.0</ele><time>2026-04-21T10:08:00Z</time></trkpt><trkpt lat="37.78181713189978" lon="-3.08539792000962"><ele>726.0</ele><time>2026-04-21T10:08:01Z</time></trkpt><trkpt lat="37.78161389033085" lon="-3.085323703066943"><ele>723.0</ele><time>2026-04-21T10:08:02Z</time></trkpt><trkpt lat="37.781403829144075" lon="-3.085269217541639"><ele>720.0</ele><time>2026-04-21T10:08:03Z</time></trkpt><trkpt lat="37.781197636278314" lon="-3.085158426884838"><ele>717.0</ele><time>2026-04-21T10:08:04Z</time></trkpt><trkpt lat="37.78099357779431" lon="-3.085029130327042"><ele>719.0</ele><time>2026-04-21T10:08:05Z</time></trkpt><trkpt lat="37.78079729048187" lon="-3.0848764603488767"><ele>721.0</ele><time>2026-04-21T10:08:06Z</time></trkpt><trkpt lat="37.78060680455314" lon="-3.084697901857927"><ele>721.0</ele><time>2026-04-21T10:08:07Z</time></trkpt><trkpt lat="37.780424526341186" lon="-3.0845043124978835"><ele>721.0</ele><time>2026-04-21T10:08:08Z</time></trkpt><trkpt lat="37.78024760061928" lon="-3.084301813766345"><ele>718.0</ele><time>2026-04-21T10:08:09Z</time></trkpt><trkpt lat="37.78008455833789" lon="-3.0841113406360257"><ele>715.0</ele><time>2026-04-21T10:08:10Z</time></trkpt><trkpt lat="37.779931843622904" lon="-3.083938774709569"><ele>712.0</ele><time>2026-04-21T10:08:11Z</time></trkpt><trkpt lat="37.77978111840196" lon="-3.0837712259098606"><ele>712.0</ele><time>2026-04-21T10:08:12Z</time></trkpt><trkpt lat="37.77962787723305" lon="-3.0836026507048206"><ele>712.0</ele><time>2026-04-21T10:08:13Z</time></trkpt><trkpt lat="37.77947116530699" lon="-3.0834281891501774"><ele>712.0</ele><time>2026-04-21T10:08:13.999Z</time></trkpt><trkpt lat="37.7793109344019" lon="-3.0832500852443245"><ele>707.6666666666667</ele><time>2026-04-21T10:08:14.999Z</time></trkpt><trkpt lat="37.77915050764262" lon="-3.083077302236508"><ele>703.3333333333334</ele><time>2026-04-21T10:08:15.999Z</time></trkpt><trkpt lat="37.778969377302914" lon="-3.082953657250217"><ele>699.0</ele><time>2026-04-21T10:08:16.999Z</time></trkpt><trkpt lat="37.77878187900644" lon="-3.0828285948314846"><ele>699.0</ele><time>2026-04-21T10:08:17.999Z</time></trkpt><trkpt lat="37.77860495596097" lon="-3.0827176835546823"><ele>699.0</ele><time>2026-04-21T10:08:18.999Z</time></trkpt><trkpt lat="37.77842981769947" lon="-3.082651630954441"><ele>699.0</ele><time>2026-04-21T10:08:19.999Z</time></trkpt><trkpt lat="37.778257872082484" lon="-3.082638244902721"><ele>695.0</ele><time>2026-04-21T10:08:20.999Z</time></trkpt><trkpt lat="37.77808164008843" lon="-3.082691661928338"><ele>691.0</ele><time>2026-04-21T10:08:21.999Z</time></trkpt><trkpt lat="37.77791715656209" lon="-3.082787267251031"><ele>687.0</ele><time>2026-04-21T10:08:22.999Z</time></trkpt><trkpt lat="37.77773440844146" lon="-3.082902142953952"><ele>686.0</ele><time>2026-04-21T10:08:23.999Z</time></trkpt><trkpt lat="37.7775580802839" lon="-3.0829712828419007"><ele>685.0</ele><time>2026-04-21T10:08:24.999Z</time></trkpt><trkpt lat="37.777386487959824" lon="-3.0830050362919272"><ele>684.0</ele><time>2026-04-21T10:08:25.999Z</time></trkpt><trkpt lat="37.777206730698886" lon="-3.083012963834435"><ele>684.0</ele><time>2026-04-21T10:08:26.999Z</time></trkpt><trkpt lat="37.777023677007605" lon="-3.0829714697529536"><ele>684.0</ele><time>2026-04-21T10:08:27.999Z</time></trkpt><trkpt lat="37.77684471704255" lon="-3.0828707465130036"><ele>684.0</ele><time>2026-04-21T10:08:28.999Z</time></trkpt><trkpt lat="37.77667989013418" lon="-3.0827308216663516"><ele>683.0</ele><time>2026-04-21T10:08:29.999Z</time></trkpt><trkpt lat="37.77652455212836" lon="-3.082554173174754"><ele>682.0</ele><time>2026-04-21T10:08:30.999Z</time></trkpt><trkpt lat="37.77637412271101" lon="-3.082350989860592"><ele>681.0</ele><time>2026-04-21T10:08:31.999Z</time></trkpt><trkpt lat="37.77621035350871" lon="-3.082153322814494"><ele>684.0</ele><time>2026-04-21T10:08:32.999Z</time></trkpt><trkpt lat="37.77603118016289" lon="-3.081965710184351"><ele>687.0</ele><time>2026-04-21T10:08:33.999Z</time></trkpt><trkpt lat="37.77584298669018" lon="-3.081788141692612"><ele>683.0</ele><time>2026-04-21T10:08:34.999Z</time></trkpt><trkpt lat="37.775660134038986" lon="-3.081615123251449"><ele>679.0</ele><time>2026-04-21T10:08:35.999Z</time></trkpt><trkpt lat="37.77548661042698" lon="-3.0814536269847514"><ele>675.0</ele><time>2026-04-21T10:08:36.999Z</time></trkpt><trkpt lat="37.775319464764905" lon="-3.08129391354173"><ele>672.6666666666666</ele><time>2026-04-21T10:08:37.999Z</time></trkpt><trkpt lat="37.77515166659155" lon="-3.081133813545021"><ele>670.3333333333333</ele><time>2026-04-21T10:08:38.999Z</time></trkpt><trkpt lat="37.77496689618636" lon="-3.0809983493780364"><ele>668.0</ele><time>2026-04-21T10:08:39.999Z</time></trkpt><trkpt lat="37.774771928744116" lon="-3.0808670437968333"><ele>668.0</ele><time>2026-04-21T10:08:40.999Z</time></trkpt><trkpt lat="37.77456578393546" lon="-3.0807725784050284"><ele>668.0</ele><time>2026-04-21T10:08:41.999Z</time></trkpt><trkpt lat="37.774373976879" lon="-3.0806498690261033"><ele>668.0</ele><time>2026-04-21T10:08:42.999Z</time></trkpt><trkpt lat="37.77417401987596" lon="-3.0805569018155947"><ele>667.6666666666666</ele><time>2026-04-21T10:08:43.999Z</time></trkpt><trkpt lat="37.773978530142415" lon="-3.0804246623956852"><ele>667.3333333333334</ele><time>2026-04-21T10:08:44.999Z</time></trkpt><trkpt lat="37.773794572545576" lon="-3.080263817462549"><ele>667.0</ele><time>2026-04-21T10:08:45.999Z</time></trkpt><trkpt lat="37.773620947669826" lon="-3.0800892409779226"><ele>666.6666666666667</ele><time>2026-04-21T10:08:46.999Z</time></trkpt><trkpt lat="37.77345336210063" lon="-3.0799295481803406"><ele>666.3333333333334</ele><time>2026-04-21T10:08:47.999Z</time></trkpt><trkpt lat="37.77329568260881" lon="-3.07977688229265"><ele>666.0</ele><time>2026-04-21T10:08:48.999Z</time></trkpt><trkpt lat="37.77312267944996" lon="-3.079638665994692"><ele>666.0</ele><time>2026-04-21T10:08:49.999Z</time></trkpt><trkpt lat="37.77293809615358" lon="-3.0795136050439313"><ele>666.0</ele><time>2026-04-21T10:08:50.999Z</time></trkpt><trkpt lat="37.772740601413446" lon="-3.079417611731685"><ele>666.0</ele><time>2026-04-21T10:08:51.999Z</time></trkpt><trkpt lat="37.77254556881862" lon="-3.0793001961710145"><ele>665.3333333333334</ele><time>2026-04-21T10:08:52.999Z</time></trkpt><trkpt lat="37.77233505544474" lon="-3.079216029273298"><ele>664.6666666666667</ele><time>2026-04-21T10:08:53.999Z</time></trkpt><trkpt lat="37.772121308028005" lon="-3.0791316646285756"><ele>664.0</ele><time>2026-04-21T10:08:54.999Z</time></trkpt><trkpt lat="37.771904029326755" lon="-3.079044935603248"><ele>660.0</ele><time>2026-04-21T10:08:55.999Z</time></trkpt><trkpt lat="37.77168248439084" lon="-3.0789579452410463"><ele>656.0</ele><time>2026-04-21T10:08:56.999Z</time></trkpt><trkpt lat="37.771466082285855" lon="-3.078872984614286"><ele>656.0</ele><time>2026-04-21T10:08:57.999Z</time></trkpt><trkpt lat="37.77125813027599" lon="-3.0787930939018704"><ele>656.0</ele><time>2026-04-21T10:08:58.999Z</time></trkpt><trkpt lat="37.771054974931445" lon="-3.078723262332157"><ele>656.0</ele><time>2026-04-21T10:08:59.999Z</time></trkpt><trkpt lat="37.77084992647935" lon="-3.0786479424275033"><ele>654.6666666666666</ele><time>2026-04-21T10:09:00.999Z</time></trkpt><trkpt lat="37.77065019682884" lon="-3.078561425060202"><ele>653.3333333333334</ele><time>2026-04-21T10:09:01.999Z</time></trkpt><trkpt lat="37.770441029124484" lon="-3.078487271072465"><ele>652.0</ele><time>2026-04-21T10:09:02.999Z</time></trkpt><trkpt lat="37.77023270705905" lon="-3.07839611164769"><ele>650.6666666666667</ele><time>2026-04-21T10:09:03.999Z</time></trkpt><trkpt lat="37.770039666756105" lon="-3.078273978591418"><ele>649.3333333333334</ele><time>2026-04-21T10:09:04.999Z</time></trkpt><trkpt lat="37.76983758883359" lon="-3.0781803213350063"><ele>648.0</ele><time>2026-04-21T10:09:05.999Z</time></trkpt><trkpt lat="37.76963888638407" lon="-3.078087634179788"><ele>649.3333333333334</ele><time>2026-04-21T10:09:06.999Z</time></trkpt><trkpt lat="37.76944513637636" lon="-3.077989007407052"><ele>650.6666666666667</ele><time>2026-04-21T10:09:07.999Z</time></trkpt><trkpt lat="37.76926126381638" lon="-3.077875095384"><ele>652.0</ele><time>2026-04-21T10:09:08.999Z</time></trkpt><trkpt lat="37.76908543072659" lon="-3.0777420556423825"><ele>652.0</ele><time>2026-04-21T10:09:09.999Z</time></trkpt><trkpt lat="37.768921396540534" lon="-3.077579894793417"><ele>652.0</ele><time>2026-04-21T10:09:10.999Z</time></trkpt><trkpt lat="37.7687768368952" lon="-3.0773990194988703"><ele>652.0</ele><time>2026-04-21T10:09:11.999Z</time></trkpt><trkpt lat="37.76864028180075" lon="-3.077212833304529"><ele>651.3333333333334</ele><time>2026-04-21T10:09:12.999Z</time></trkpt><trkpt lat="37.76849790053102" lon="-3.077032287225128"><ele>650.6666666666666</ele><time>2026-04-21T10:09:13.999Z</time></trkpt><trkpt lat="37.76834113110268" lon="-3.0768769062730996"><ele>650.0</ele><time>2026-04-21T10:09:14.999Z</time></trkpt><trkpt lat="37.76817556350325" lon="-3.0767546830595665"><ele>650.0</ele><time>2026-04-21T10:09:15.999Z</time></trkpt><trkpt lat="37.76803720604275" lon="-3.0766811038981"><ele>650.0</ele><time>2026-04-21T10:09:16.999Z</time></trkpt><trkpt lat="37.767921585694374" lon="-3.0766311499788865"><ele>650.0</ele><time>2026-04-21T10:09:17.999Z</time></trkpt><trkpt lat="37.767806280844205" lon="-3.07657973511743"><ele>650.0</ele><time>2026-04-21T10:09:18.999Z</time></trkpt><trkpt lat="37.767682485245366" lon="-3.076515603272962"><ele>650.75</ele><time>2026-04-21T10:09:19.999Z</time></trkpt><trkpt lat="37.767556060090115" lon="-3.076449510954713"><ele>651.5</ele><time>2026-04-21T10:09:20.998Z</time></trkpt><trkpt lat="37.767432778349075" lon="-3.076386740626333"><ele>652.25</ele><time>2026-04-21T10:09:21.998Z</time></trkpt><trkpt lat="37.767310848794175" lon="-3.0763226402976573"><ele>653.0</ele><time>2026-04-21T10:09:22.998Z</time></trkpt><trkpt lat="37.76719404275326" lon="-3.0762558703578615"><ele>653.0</ele><time>2026-04-21T10:09:23.998Z</time></trkpt><trkpt lat="37.76709004650964" lon="-3.0761910183003303"><ele>653.0</ele><time>2026-04-21T10:09:24.998Z</time></trkpt><trkpt lat="37.766999155521695" lon="-3.0761291006010674"><ele>653.0</ele><time>2026-04-21T10:09:25.998Z</time></trkpt><trkpt lat="37.76691891301228" lon="-3.0760704005855524"><ele>653.0</ele><time>2026-04-21T10:09:26.998Z</time></trkpt><trkpt lat="37.76683754022001" lon="-3.0760149905590946"><ele>653.0</ele><time>2026-04-21T10:09:27.998Z</time></trkpt><trkpt lat="37.76675497125161" lon="-3.0759624730339747"><ele>652.5</ele><time>2026-04-21T10:09:28.998Z</time></trkpt><trkpt lat="37.76667268372808" lon="-3.0759160040883056"><ele>652.0</ele><time>2026-04-21T10:09:29.998Z</time></trkpt><trkpt lat="37.76659596297345" lon="-3.075884996055357"><ele>651.5</ele><time>2026-04-21T10:09:30.998Z</time></trkpt><trkpt lat="37.76652910626333" lon="-3.0758888657761427"><ele>651.0</ele><time>2026-04-21T10:09:31.998Z</time></trkpt><trkpt lat="37.76645257653745" lon="-3.0759302450553974"><ele>650.5</ele><time>2026-04-21T10:09:33Z</time></trkpt><trkpt lat="37.7663803406146" lon="-3.0759994588411796"><ele>650.0</ele><time>2026-04-21T10:09:34Z</time></trkpt><trkpt lat="37.76631826584188" lon="-3.076076866752176"><ele>650.0</ele><time>2026-04-21T10:09:35Z</time></trkpt><trkpt lat="37.766265682989044" lon="-3.0761583951976177"><ele>650.0</ele><time>2026-04-21T10:09:36Z</time></trkpt><trkpt lat="37.76622554802814" lon="-3.0762427880311605"><ele>650.0</ele><time>2026-04-21T10:09:37Z</time></trkpt><trkpt lat="37.76619030009864" lon="-3.076327629737527"><ele>650.0</ele><time>2026-04-21T10:09:38Z</time></trkpt><trkpt lat="37.76612386545337" lon="-3.076445953171815"><ele>650.0</ele><time>2026-04-21T10:09:40Z</time></trkpt><trkpt lat="37.76601403867002" lon="-3.07656486889072"><ele>649.1666666666666</ele><time>2026-04-21T10:09:42Z</time></trkpt><trkpt lat="37.765968471316356" lon="-3.0766399919701506"><ele>648.3333333333333</ele><time>2026-04-21T10:09:43Z</time></trkpt><trkpt lat="37.7659125747393" lon="-3.0767164855012936"><ele>647.5</ele><time>2026-04-21T10:09:44Z</time></trkpt><trkpt lat="37.765859661081215" lon="-3.0768066794715896"><ele>646.6666666666666</ele><time>2026-04-21T10:09:45Z</time></trkpt><trkpt lat="37.76580237447849" lon="-3.0768871598659238"><ele>645.8333333333334</ele><time>2026-04-21T10:09:46Z</time></trkpt><trkpt lat="37.765754102144626" lon="-3.076967349506718"><ele>645.0</ele><time>2026-04-21T10:09:47Z</time></trkpt><trkpt lat="37.76570491512242" lon="-3.077036727345487"><ele>645.0</ele><time>2026-04-21T10:09:48Z</time></trkpt><trkpt lat="37.765621969361455" lon="-3.0771709987031626"><ele>645.0</ele><time>2026-04-21T10:09:50Z</time></trkpt><trkpt lat="37.76556844580981" lon="-3.07724734212141"><ele>645.0</ele><time>2026-04-21T10:09:51Z</time></trkpt><trkpt lat="37.76551380208652" lon="-3.077335173258813"><ele>645.0</ele><time>2026-04-21T10:09:52Z</time></trkpt><trkpt lat="37.76545242936671" lon="-3.0774316356161697"><ele>645.0</ele><time>2026-04-21T10:09:53Z</time></trkpt><trkpt lat="37.76539309914754" lon="-3.0775327430031263"><ele>645.0</ele><time>2026-04-21T10:09:54Z</time></trkpt><trkpt lat="37.765329793247965" lon="-3.0776289047158403"><ele>645.0</ele><time>2026-04-21T10:09:55Z</time></trkpt><trkpt lat="37.76526852484548" lon="-3.077720313467084"><ele>645.0</ele><time>2026-04-21T10:09:56Z</time></trkpt><trkpt lat="37.765215585617646" lon="-3.077803513374357"><ele>645.0</ele><time>2026-04-21T10:09:57Z</time></trkpt><trkpt lat="37.76517315331251" lon="-3.077873516076953"><ele>645.0</ele><time>2026-04-21T10:09:58Z</time></trkpt><trkpt lat="37.76511400842004" lon="-3.0779950842250448"><ele>644.2857142857143</ele><time>2026-04-21T10:10:00Z</time></trkpt><trkpt lat="37.765094296030696" lon="-3.078093338877532"><ele>643.5714285714286</ele><time>2026-04-21T10:10:02Z</time></trkpt><trkpt lat="37.7651016631309" lon="-3.0781752357856997"><ele>642.8571428571429</ele><time>2026-04-21T10:10:03Z</time></trkpt><trkpt lat="37.76512147559529" lon="-3.0782572191522246"><ele>642.1428571428571</ele><time>2026-04-21T10:10:04Z</time></trkpt><trkpt lat="37.76511555657207" lon="-3.0783458625161835"><ele>641.4285714285714</ele><time>2026-04-21T10:10:05Z</time></trkpt><trkpt lat="37.76507685457683" lon="-3.07841977406661"><ele>640.7142857142857</ele><time>2026-04-21T10:10:06Z</time></trkpt><trkpt lat="37.765008485782026" lon="-3.078505099959472"><ele>640.0</ele><time>2026-04-21T10:10:07Z</time></trkpt><trkpt lat="37.76495302294061" lon="-3.078580468568412"><ele>639.5</ele><time>2026-04-21T10:10:08Z</time></trkpt><trkpt lat="37.764922420253534" lon="-3.0786714462392264"><ele>639.0</ele><time>2026-04-21T10:10:09Z</time></trkpt><trkpt lat="37.76487198515197" lon="-3.078741046681259"><ele>638.5</ele><time>2026-04-21T10:10:10Z</time></trkpt><trkpt lat="37.76482972141075" lon="-3.078806463119303"><ele>638.0</ele><time>2026-04-21T10:10:11Z</time></trkpt><trkpt lat="37.76477055680564" lon="-3.078903024369691"><ele>637.5</ele><time>2026-04-21T10:10:13Z</time></trkpt><trkpt lat="37.7647303347811" lon="-3.078978140782025"><ele>637.0</ele><time>2026-04-21T10:10:15Z</time></trkpt><trkpt lat="37.76470214800437" lon="-3.079052072005966"><ele>636.5</ele><time>2026-04-21T10:10:17Z</time></trkpt><trkpt lat="37.76467988856026" lon="-3.079149901405954"><ele>636.0</ele><time>2026-04-21T10:10:19Z</time></trkpt><trkpt lat="37.7646248376816" lon="-3.0792539523734996"><ele>635.5</ele><time>2026-04-21T10:10:20.999Z</time></trkpt><trkpt lat="37.764587945731606" lon="-3.079318663979128"><ele>635.0</ele><time>2026-04-21T10:10:22.999Z</time></trkpt><trkpt lat="37.764525529215604" lon="-3.0794499680040475"><ele>634.5</ele><time>2026-04-21T10:10:24.999Z</time></trkpt><trkpt lat="37.76449000320519" lon="-3.079534870359635"><ele>634.0</ele><time>2026-04-21T10:10:25.999Z</time></trkpt><trkpt lat="37.76444374467471" lon="-3.079625424219773"><ele>634.0</ele><time>2026-04-21T10:10:26.999Z</time></trkpt><trkpt lat="37.764404767193234" lon="-3.079739161450827"><ele>634.0</ele><time>2026-04-21T10:10:27.999Z</time></trkpt><trkpt lat="37.7643407407372" lon="-3.0798356588048623"><ele>634.0</ele><time>2026-04-21T10:10:28.999Z</time></trkpt><trkpt lat="37.764298472243595" lon="-3.079944398664559"><ele>634.0</ele><time>2026-04-21T10:10:29.999Z</time></trkpt><trkpt lat="37.7642553557682" lon="-3.080035350926951"><ele>634.0</ele><time>2026-04-21T10:10:30.999Z</time></trkpt><trkpt lat="37.7642122551441" lon="-3.0801243405226093"><ele>632.3333333333334</ele><time>2026-04-21T10:10:31.999Z</time></trkpt><trkpt lat="37.76416996178249" lon="-3.080211248652912"><ele>630.6666666666667</ele><time>2026-04-21T10:10:32.999Z</time></trkpt><trkpt lat="37.76412598444794" lon="-3.08028871599164"><ele>629.0</ele><time>2026-04-21T10:10:33.999Z</time></trkpt><trkpt lat="37.764091261689686" lon="-3.0803798353811067"><ele>627.3333333333334</ele><time>2026-04-21T10:10:34.999Z</time></trkpt><trkpt lat="37.7640461906545" lon="-3.0804699300008647"><ele>625.6666666666666</ele><time>2026-04-21T10:10:35.999Z</time></trkpt><trkpt lat="37.764000454652766" lon="-3.0805698527231486"><ele>624.0</ele><time>2026-04-21T10:10:36.999Z</time></trkpt><trkpt lat="37.763943782379066" lon="-3.080680452613033"><ele>623.4</ele><time>2026-04-21T10:10:37.999Z</time></trkpt><trkpt lat="37.76388690632827" lon="-3.0807967283003164"><ele>622.8</ele><time>2026-04-21T10:10:38.999Z</time></trkpt><trkpt lat="37.763826646310946" lon="-3.0809049711747316"><ele>622.2</ele><time>2026-04-21T10:10:39.999Z</time></trkpt><trkpt lat="37.76378308989329" lon="-3.0809933723209793"><ele>621.6</ele><time>2026-04-21T10:10:40.999Z</time></trkpt><trkpt lat="37.76373982550965" lon="-3.0810693160043243"><ele>621.0</ele><time>2026-04-21T10:10:41.999Z</time></trkpt><trkpt lat="37.76369352458724" lon="-3.0811638966498003"><ele>621.0</ele><time>2026-04-21T10:10:42.999Z</time></trkpt><trkpt lat="37.7636390438762" lon="-3.081272606819651"><ele>621.0</ele><time>2026-04-21T10:10:43.999Z</time></trkpt><trkpt lat="37.763590444177744" lon="-3.0813801382467374"><ele>621.0</ele><time>2026-04-21T10:10:44.999Z</time></trkpt><trkpt lat="37.76353960318067" lon="-3.081483235240904"><ele>621.0</ele><time>2026-04-21T10:10:45.999Z</time></trkpt><trkpt lat="37.76349174052092" lon="-3.08158173152356"><ele>621.0</ele><time>2026-04-21T10:10:46.999Z</time></trkpt><trkpt lat="37.76344285596255" lon="-3.0816779264326146"><ele>620.1428571428571</ele><time>2026-04-21T10:10:47.999Z</time></trkpt><trkpt lat="37.76340136371082" lon="-3.081770372423053"><ele>619.2857142857142</ele><time>2026-04-21T10:10:48.999Z</time></trkpt><trkpt lat="37.763364372337826" lon="-3.081847082699407"><ele>618.4285714285713</ele><time>2026-04-21T10:10:49.999Z</time></trkpt><trkpt lat="37.76332331411703" lon="-3.081915118058726"><ele>617.5714285714286</ele><time>2026-04-21T10:10:50.999Z</time></trkpt><trkpt lat="37.76327689781502" lon="-3.081977263979734"><ele>616.7142857142858</ele><time>2026-04-21T10:10:51.999Z</time></trkpt><trkpt lat="37.76322015662372" lon="-3.0820235791270103"><ele>615.8571428571428</ele><time>2026-04-21T10:10:52.999Z</time></trkpt><trkpt lat="37.76315606698994" lon="-3.0820617281716247"><ele>615.0</ele><time>2026-04-21T10:10:53.999Z</time></trkpt><trkpt lat="37.763078038228144" lon="-3.082085327898828"><ele>615.0</ele><time>2026-04-21T10:10:54.999Z</time></trkpt><trkpt lat="37.76299721670257" lon="-3.082092108853948"><ele>615.0</ele><time>2026-04-21T10:10:55.999Z</time></trkpt><trkpt lat="37.76290782051567" lon="-3.082071769380135"><ele>615.0</ele><time>2026-04-21T10:10:56.999Z</time></trkpt><trkpt lat="37.76282530457006" lon="-3.0820255773479577"><ele>615.0</ele><time>2026-04-21T10:10:57.999Z</time></trkpt><trkpt lat="37.76273247408511" lon="-3.0819224315517935"><ele>615.0</ele><time>2026-04-21T10:10:58.999Z</time></trkpt><trkpt lat="37.762645679672744" lon="-3.0817436133640093"><ele>615.3333333333334</ele><time>2026-04-21T10:10:59.999Z</time></trkpt><trkpt lat="37.76255809194808" lon="-3.0815688551311466"><ele>615.6666666666667</ele><time>2026-04-21T10:11:00.999Z</time></trkpt><trkpt lat="37.76244548778695" lon="-3.081419471578587"><ele>616.0</ele><time>2026-04-21T10:11:01.999Z</time></trkpt><trkpt lat="37.762357501909136" lon="-3.0813043367810375"><ele>616.0</ele><time>2026-04-21T10:11:02.999Z</time></trkpt><trkpt lat="37.76219457481811" lon="-3.08122218063333"><ele>616.0</ele><time>2026-04-21T10:11:03.999Z</time></trkpt><trkpt lat="37.76201407042903" lon="-3.081195175601198"><ele>616.0</ele><time>2026-04-21T10:11:04.999Z</time></trkpt><trkpt lat="37.76183639830195" lon="-3.0812303359523208"><ele>617.6666666666667</ele><time>2026-04-21T10:11:05.999Z</time></trkpt><trkpt lat="37.761652843764416" lon="-3.0813495427041366"><ele>619.3333333333334</ele><time>2026-04-21T10:11:06.999Z</time></trkpt><trkpt lat="37.76144258412315" lon="-3.081387967483306"><ele>621.0</ele><time>2026-04-21T10:11:07.999Z</time></trkpt><trkpt lat="37.76123241708285" lon="-3.081425612967412"><ele>621.0</ele><time>2026-04-21T10:11:08.999Z</time></trkpt><trkpt lat="37.76103388039383" lon="-3.0814594919687224"><ele>621.0</ele><time>2026-04-21T10:11:09.999Z</time></trkpt><trkpt lat="37.76084775632388" lon="-3.0814740595264496"><ele>621.0</ele><time>2026-04-21T10:11:10.999Z</time></trkpt><trkpt lat="37.76067921717386" lon="-3.08150905518528"><ele>619.6666666666666</ele><time>2026-04-21T10:11:11.999Z</time></trkpt><trkpt lat="37.7605154144163" lon="-3.0815372012034556"><ele>618.3333333333333</ele><time>2026-04-21T10:11:12.999Z</time></trkpt><trkpt lat="37.760353865461745" lon="-3.0815585315021083"><ele>617.0</ele><time>2026-04-21T10:11:13.999Z</time></trkpt><trkpt lat="37.76018752573557" lon="-3.0815760636972103"><ele>616.6666666666666</ele><time>2026-04-21T10:11:14.999Z</time></trkpt><trkpt lat="37.76001651753363" lon="-3.0815979980840194"><ele>616.3333333333334</ele><time>2026-04-21T10:11:15.999Z</time></trkpt><trkpt lat="37.75982932702961" lon="-3.081625251595699"><ele>616.0</ele><time>2026-04-21T10:11:16.999Z</time></trkpt><trkpt lat="37.75962788272978" lon="-3.0816624764259863"><ele>614.3333333333334</ele><time>2026-04-21T10:11:17.999Z</time></trkpt><trkpt lat="37.75943132342698" lon="-3.0817515989891846"><ele>612.6666666666666</ele><time>2026-04-21T10:11:18.999Z</time></trkpt><trkpt lat="37.75923838517959" lon="-3.0818271541578452"><ele>611.0</ele><time>2026-04-21T10:11:19.999Z</time></trkpt><trkpt lat="37.759054152181214" lon="-3.081879404353155"><ele>609.0</ele><time>2026-04-21T10:11:20.999Z</time></trkpt><trkpt lat="37.758880242707136" lon="-3.081913872431712"><ele>607.0</ele><time>2026-04-21T10:11:21.999Z</time></trkpt><trkpt lat="37.7587254967465" lon="-3.08200304921966"><ele>605.0</ele><time>2026-04-21T10:11:22.999Z</time></trkpt><trkpt lat="37.75860204092301" lon="-3.0821332284584995"><ele>604.3333333333333</ele><time>2026-04-21T10:11:23.999Z</time></trkpt><trkpt lat="37.75847287159129" lon="-3.08228912102705"><ele>603.6666666666666</ele><time>2026-04-21T10:11:24.999Z</time></trkpt><trkpt lat="37.75830413781757" lon="-3.0824137703378764"><ele>603.0</ele><time>2026-04-21T10:11:25.998Z</time></trkpt><trkpt lat="37.75815279271594" lon="-3.082574185765596"><ele>603.6666666666666</ele><time>2026-04-21T10:11:26.998Z</time></trkpt><trkpt lat="37.75799724677973" lon="-3.0827359398556826"><ele>604.3333333333333</ele><time>2026-04-21T10:11:27.998Z</time></trkpt><trkpt lat="37.757839797698395" lon="-3.082895185482352"><ele>605.0</ele><time>2026-04-21T10:11:28.998Z</time></trkpt><trkpt lat="37.757700290728465" lon="-3.0830809405697237"><ele>605.0</ele><time>2026-04-21T10:11:29.998Z</time></trkpt><trkpt lat="37.757541747865474" lon="-3.083222144374046"><ele>605.0</ele><time>2026-04-21T10:11:30.998Z</time></trkpt><trkpt lat="37.75739483408396" lon="-3.083377453166773"><ele>605.0</ele><time>2026-04-21T10:11:31.998Z</time></trkpt><trkpt lat="37.75724768284443" lon="-3.0835310868889714"><ele>604.6666666666666</ele><time>2026-04-21T10:11:32.998Z</time></trkpt><trkpt lat="37.75709761782763" lon="-3.083674397700911"><ele>604.3333333333334</ele><time>2026-04-21T10:11:33.998Z</time></trkpt><trkpt lat="37.75694138159153" lon="-3.0838007267567327"><ele>604.0</ele><time>2026-04-21T10:11:34.998Z</time></trkpt><trkpt lat="37.75678153601439" lon="-3.0838919944050835"><ele>604.0</ele><time>2026-04-21T10:11:35.998Z</time></trkpt><trkpt lat="37.75660712312736" lon="-3.0839426751778523"><ele>604.0</ele><time>2026-04-21T10:11:36.998Z</time></trkpt><trkpt lat="37.75641956036533" lon="-3.083949909768522"><ele>604.0</ele><time>2026-04-21T10:11:37.998Z</time></trkpt><trkpt lat="37.756223144624556" lon="-3.083941681899841"><ele>602.6666666666667</ele><time>2026-04-21T10:11:39Z</time></trkpt><trkpt lat="37.75601930384804" lon="-3.0839525132911656"><ele>601.3333333333334</ele><time>2026-04-21T10:11:40Z</time></trkpt><trkpt lat="37.75581624008513" lon="-3.083945482727118"><ele>600.0</ele><time>2026-04-21T10:11:41Z</time></trkpt><trkpt lat="37.75562929928263" lon="-3.0839390103750577"><ele>600.0</ele><time>2026-04-21T10:11:42Z</time></trkpt><trkpt lat="37.755455792551" lon="-3.0839235436099712"><ele>600.0</ele><time>2026-04-21T10:11:43Z</time></trkpt><trkpt lat="37.75528604302888" lon="-3.0839405420092723"><ele>600.0</ele><time>2026-04-21T10:11:44Z</time></trkpt><trkpt lat="37.75511739272691" lon="-3.083981757816887"><ele>599.5</ele><time>2026-04-21T10:11:45Z</time></trkpt><trkpt lat="37.754964486997146" lon="-3.084030778889386"><ele>599.0</ele><time>2026-04-21T10:11:46Z</time></trkpt><trkpt lat="37.75482743392496" lon="-3.0840838426790467"><ele>598.5</ele><time>2026-04-21T10:11:47Z</time></trkpt><trkpt lat="37.754689384146175" lon="-3.0840641703261276"><ele>598.0</ele><time>2026-04-21T10:11:48Z</time></trkpt><trkpt lat="37.75456784802695" lon="-3.0839766900947225"><ele>598.0</ele><time>2026-04-21T10:11:49Z</time></trkpt><trkpt lat="37.75444745605622" lon="-3.0838575677938094"><ele>598.0</ele><time>2026-04-21T10:11:50Z</time></trkpt><trkpt lat="37.75433906608014" lon="-3.08371103799471"><ele>598.0</ele><time>2026-04-21T10:11:51Z</time></trkpt><trkpt lat="37.754222116749666" lon="-3.083622554932491"><ele>598.0</ele><time>2026-04-21T10:11:52Z</time></trkpt><trkpt lat="37.754101802446634" lon="-3.083599097920085"><ele>596.0</ele><time>2026-04-21T10:11:53Z</time></trkpt><trkpt lat="37.753975171972904" lon="-3.083628765910637"><ele>594.0</ele><time>2026-04-21T10:11:54Z</time></trkpt><trkpt lat="37.753871573143016" lon="-3.0837250385338426"><ele>592.0</ele><time>2026-04-21T10:11:55Z</time></trkpt><trkpt lat="37.75379480300542" lon="-3.0838648630517276"><ele>590.0</ele><time>2026-04-21T10:11:56Z</time></trkpt><trkpt lat="37.7536857530315" lon="-3.084006841126273"><ele>589.3333333333333</ele><time>2026-04-21T10:11:57Z</time></trkpt><trkpt lat="37.75358465980902" lon="-3.0841246460769414"><ele>588.6666666666666</ele><time>2026-04-21T10:11:58Z</time></trkpt><trkpt lat="37.75344032135593" lon="-3.084183079301356"><ele>588.0</ele><time>2026-04-21T10:11:59Z</time></trkpt><trkpt lat="37.75327897696446" lon="-3.0842028943139366"><ele>587.3333333333334</ele><time>2026-04-21T10:12:00Z</time></trkpt><trkpt lat="37.75312620292466" lon="-3.084278145903293"><ele>586.6666666666667</ele><time>2026-04-21T10:12:01Z</time></trkpt><trkpt lat="37.75298306822769" lon="-3.084378458652064"><ele>586.0</ele><time>2026-04-21T10:12:02Z</time></trkpt><trkpt lat="37.75284093439704" lon="-3.0844774292338837"><ele>581.3333333333334</ele><time>2026-04-21T10:12:03Z</time></trkpt><trkpt lat="37.75268743630414" lon="-3.0845301101701708"><ele>576.6666666666666</ele><time>2026-04-21T10:12:04Z</time></trkpt><trkpt lat="37.75253128865918" lon="-3.084573126248355"><ele>572.0</ele><time>2026-04-21T10:12:05Z</time></trkpt><trkpt lat="37.75238970004947" lon="-3.0846086876497134"><ele>572.0</ele><time>2026-04-21T10:12:06Z</time></trkpt><trkpt lat="37.75227071968213" lon="-3.0846785130126717"><ele>572.0</ele><time>2026-04-21T10:12:07Z</time></trkpt><trkpt lat="37.75217395834251" lon="-3.084791570501554"><ele>572.0</ele><time>2026-04-21T10:12:08Z</time></trkpt><trkpt lat="37.75209824998837" lon="-3.08493260877828"><ele>572.0</ele><time>2026-04-21T10:12:09Z</time></trkpt><trkpt lat="37.7520490986562" lon="-3.0851038637535404"><ele>570.3333333333333</ele><time>2026-04-21T10:12:10Z</time></trkpt><trkpt lat="37.752038056732296" lon="-3.085287364971188"><ele>568.6666666666666</ele><time>2026-04-21T10:12:11Z</time></trkpt><trkpt lat="37.752035066384565" lon="-3.0855044686752664"><ele>567.0</ele><time>2026-04-21T10:12:12Z</time></trkpt><trkpt lat="37.75201533920274" lon="-3.085729347548639"><ele>565.6666666666666</ele><time>2026-04-21T10:12:13Z</time></trkpt><trkpt lat="37.751969343412746" lon="-3.0859445391209324"><ele>564.3333333333333</ele><time>2026-04-21T10:12:14Z</time></trkpt><trkpt lat="37.75188635671403" lon="-3.0861666299751715"><ele>563.0</ele><time>2026-04-21T10:12:15Z</time></trkpt><trkpt lat="37.75178741026617" lon="-3.0863864287870024"><ele>569.3333333333333</ele><time>2026-04-21T10:12:16Z</time></trkpt><trkpt lat="37.751679702548714" lon="-3.0866151796598245"><ele>575.6666666666666</ele><time>2026-04-21T10:12:17Z</time></trkpt><trkpt lat="37.751552517449326" lon="-3.086833263551502"><ele>582.0</ele><time>2026-04-21T10:12:18Z</time></trkpt><trkpt lat="37.75140795783873" lon="-3.087043303605431"><ele>582.0</ele><time>2026-04-21T10:12:19Z</time></trkpt><trkpt lat="37.75127915102433" lon="-3.08726140657887"><ele>582.0</ele><time>2026-04-21T10:12:20Z</time></trkpt><trkpt lat="37.75115199769597" lon="-3.087453075074872"><ele>582.0</ele><time>2026-04-21T10:12:21Z</time></trkpt><trkpt lat="37.75103116955633" lon="-3.08763520909929"><ele>584.6666666666666</ele><time>2026-04-21T10:12:22Z</time></trkpt><trkpt lat="37.75090828188102" lon="-3.0878202857327723"><ele>587.3333333333333</ele><time>2026-04-21T10:12:23Z</time></trkpt><trkpt lat="37.75078315750987" lon="-3.0880069442066844"><ele>590.0</ele><time>2026-04-21T10:12:24Z</time></trkpt><trkpt lat="37.75065646137762" lon="-3.088195947447508"><ele>589.0</ele><time>2026-04-21T10:12:25Z</time></trkpt><trkpt lat="37.75052874685728" lon="-3.0883864690067013"><ele>588.0</ele><time>2026-04-21T10:12:26Z</time></trkpt><trkpt lat="37.75040041585346" lon="-3.088580496353971"><ele>587.0</ele><time>2026-04-21T10:12:27Z</time></trkpt><trkpt lat="37.750260101318794" lon="-3.088764354275295"><ele>587.0</ele><time>2026-04-21T10:12:27.999Z</time></trkpt><trkpt lat="37.75013309660225" lon="-3.0889573713900558"><ele>587.0</ele><time>2026-04-21T10:12:28.999Z</time></trkpt><trkpt lat="37.75002141192341" lon="-3.0891521534822175"><ele>587.0</ele><time>2026-04-21T10:12:29.999Z</time></trkpt><trkpt lat="37.749890124937934" lon="-3.0893186864372537"><ele>587.0</ele><time>2026-04-21T10:12:30.999Z</time></trkpt><trkpt lat="37.749727117489456" lon="-3.0894373949845937"><ele>587.0</ele><time>2026-04-21T10:12:31.999Z</time></trkpt><trkpt lat="37.74955866347935" lon="-3.0895408425987987"><ele>587.0</ele><time>2026-04-21T10:12:32.999Z</time></trkpt><trkpt lat="37.749376010435455" lon="-3.0896185611652993"><ele>588.0</ele><time>2026-04-21T10:12:33.999Z</time></trkpt><trkpt lat="37.74920886173866" lon="-3.0897339393454812"><ele>589.0</ele><time>2026-04-21T10:12:34.999Z</time></trkpt><trkpt lat="37.74903988324995" lon="-3.0898287625375143"><ele>590.0</ele><time>2026-04-21T10:12:35.999Z</time></trkpt><trkpt lat="37.748879626964595" lon="-3.0899156252774356"><ele>589.6666666666666</ele><time>2026-04-21T10:12:36.999Z</time></trkpt><trkpt lat="37.748727272393744" lon="-3.0899888330938023"><ele>589.3333333333334</ele><time>2026-04-21T10:12:37.999Z</time></trkpt><trkpt lat="37.74858037810573" lon="-3.0900465802332193"><ele>589.0</ele><time>2026-04-21T10:12:38.999Z</time></trkpt><trkpt lat="37.748417850450565" lon="-3.0900649362387975"><ele>587.6666666666667</ele><time>2026-04-21T10:12:39.999Z</time></trkpt><trkpt lat="37.74825643793571" lon="-3.0900576363161623"><ele>586.3333333333334</ele><time>2026-04-21T10:12:40.999Z</time></trkpt><trkpt lat="37.7480897805008" lon="-3.090015287027122"><ele>585.0</ele><time>2026-04-21T10:12:41.999Z</time></trkpt><trkpt lat="37.74793541656374" lon="-3.0899367459968126"><ele>585.0</ele><time>2026-04-21T10:12:42.999Z</time></trkpt><trkpt lat="37.747796327427785" lon="-3.0898235435523165"><ele>585.0</ele><time>2026-04-21T10:12:43.999Z</time></trkpt><trkpt lat="37.74766951424158" lon="-3.089688448235599"><ele>585.0</ele><time>2026-04-21T10:12:44.999Z</time></trkpt><trkpt lat="37.747565440095286" lon="-3.089526000654596"><ele>580.0</ele><time>2026-04-21T10:12:45.999Z</time></trkpt><trkpt lat="37.747489381886126" lon="-3.0893239032573088"><ele>575.0</ele><time>2026-04-21T10:12:46.999Z</time></trkpt><trkpt lat="37.74743427130935" lon="-3.0890961213842854"><ele>570.0</ele><time>2026-04-21T10:12:47.999Z</time></trkpt><trkpt lat="37.747384620025635" lon="-3.0888540670393456"><ele>569.0</ele><time>2026-04-21T10:12:48.999Z</time></trkpt><trkpt lat="37.74731694938762" lon="-3.088612462073771"><ele>568.0</ele><time>2026-04-21T10:12:49.999Z</time></trkpt><trkpt lat="37.74724957863899" lon="-3.0883779142298833"><ele>567.0</ele><time>2026-04-21T10:12:50.999Z</time></trkpt><trkpt lat="37.747177168816464" lon="-3.0881476770726475"><ele>566.6666666666666</ele><time>2026-04-21T10:12:51.999Z</time></trkpt><trkpt lat="37.74709043172173" lon="-3.087921736310471"><ele>566.3333333333333</ele><time>2026-04-21T10:12:52.999Z</time></trkpt><trkpt lat="37.74699975117273" lon="-3.0877009715599444"><ele>566.0</ele><time>2026-04-21T10:12:53.999Z</time></trkpt><trkpt lat="37.746914344765656" lon="-3.087491988924284"><ele>561.0</ele><time>2026-04-21T10:12:54.999Z</time></trkpt><trkpt lat="37.746816197197006" lon="-3.0873083003871242"><ele>556.0</ele><time>2026-04-21T10:12:55.999Z</time></trkpt><trkpt lat="37.746712000622004" lon="-3.0871525141936753"><ele>551.0</ele><time>2026-04-21T10:12:56.999Z</time></trkpt><trkpt lat="37.7465918241851" lon="-3.087002947274431"><ele>551.0</ele><time>2026-04-21T10:12:57.999Z</time></trkpt><trkpt lat="37.746449126161096" lon="-3.086868051641281"><ele>551.0</ele><time>2026-04-21T10:12:58.999Z</time></trkpt><trkpt lat="37.74627983647812" lon="-3.08677760866481"><ele>551.0</ele><time>2026-04-21T10:12:59.999Z</time></trkpt><trkpt lat="37.74609436843756" lon="-3.0867362600341117"><ele>549.0</ele><time>2026-04-21T10:13:00.999Z</time></trkpt><trkpt lat="37.745918156160016" lon="-3.0867412750459815"><ele>547.0</ele><time>2026-04-21T10:13:01.999Z</time></trkpt><trkpt lat="37.74574777323412" lon="-3.0867715734158465"><ele>545.0</ele><time>2026-04-21T10:13:02.999Z</time></trkpt><trkpt lat="37.74558743127455" lon="-3.0867880281959814"><ele>545.0</ele><time>2026-04-21T10:13:03.999Z</time></trkpt><trkpt lat="37.74543071746163" lon="-3.0867368564456417"><ele>545.0</ele><time>2026-04-21T10:13:04.999Z</time></trkpt><trkpt lat="37.745259948834445" lon="-3.086659925424807"><ele>545.0</ele><time>2026-04-21T10:13:05.999Z</time></trkpt><trkpt lat="37.74508429893558" lon="-3.0865457803338763"><ele>541.0</ele><time>2026-04-21T10:13:06.999Z</time></trkpt><trkpt lat="37.74490482175139" lon="-3.086460636199532"><ele>537.0</ele><time>2026-04-21T10:13:07.999Z</time></trkpt><trkpt lat="37.744748233024346" lon="-3.086366210175062"><ele>533.0</ele><time>2026-04-21T10:13:08.999Z</time></trkpt><trkpt lat="37.74461432297846" lon="-3.086255954894026"><ele>533.0</ele><time>2026-04-21T10:13:09.999Z</time></trkpt><trkpt lat="37.74449989925415" lon="-3.0861414785405272"><ele>533.0</ele><time>2026-04-21T10:13:10.999Z</time></trkpt><trkpt lat="37.74439780752802" lon="-3.0860232092456332"><ele>533.0</ele><time>2026-04-21T10:13:11.999Z</time></trkpt><trkpt lat="37.744271775689846" lon="-3.0860062025870283"><ele>533.0</ele><time>2026-04-21T10:13:12.999Z</time></trkpt><trkpt lat="37.744145842838066" lon="-3.0860129148227884"><ele>530.75</ele><time>2026-04-21T10:13:13.999Z</time></trkpt><trkpt lat="37.744015173904316" lon="-3.0860407174092837"><ele>528.5</ele><time>2026-04-21T10:13:14.999Z</time></trkpt><trkpt lat="37.743894240035495" lon="-3.086023756842022"><ele>526.25</ele><time>2026-04-21T10:13:15.999Z</time></trkpt><trkpt lat="37.74378228932454" lon="-3.085965195055159"><ele>524.0</ele><time>2026-04-21T10:13:16.999Z</time></trkpt><trkpt lat="37.74369650617598" lon="-3.085852409961411"><ele>526.5</ele><time>2026-04-21T10:13:17.999Z</time></trkpt><trkpt lat="37.74363979500891" lon="-3.0857017745483675"><ele>529.0</ele><time>2026-04-21T10:13:18.999Z</time></trkpt><trkpt lat="37.74361008279841" lon="-3.085533561938219"><ele>531.5</ele><time>2026-04-21T10:13:19.999Z</time></trkpt><trkpt lat="37.74363316213297" lon="-3.0853422284001937"><ele>534.0</ele><time>2026-04-21T10:13:20.999Z</time></trkpt><trkpt lat="37.74367769639894" lon="-3.085136238173547"><ele>537.6666666666666</ele><time>2026-04-21T10:13:21.999Z</time></trkpt><trkpt lat="37.74370852947555" lon="-3.084912633788009"><ele>541.3333333333333</ele><time>2026-04-21T10:13:22.999Z</time></trkpt><trkpt lat="37.74365913934111" lon="-3.0846916918074547"><ele>545.0</ele><time>2026-04-21T10:13:23.999Z</time></trkpt><trkpt lat="37.74359267835602" lon="-3.084462064926962"><ele>535.3333333333333</ele><time>2026-04-21T10:13:24.999Z</time></trkpt><trkpt lat="37.743506124770825" lon="-3.084221188966816"><ele>525.6666666666666</ele><time>2026-04-21T10:13:25.999Z</time></trkpt><trkpt lat="37.74342225580192" lon="-3.083967767566604"><ele>516.0</ele><time>2026-04-21T10:13:26.999Z</time></trkpt><trkpt lat="37.74332667356722" lon="-3.0837220035427166"><ele>516.0</ele><time>2026-04-21T10:13:27.999Z</time></trkpt><trkpt lat="37.743229558211375" lon="-3.0834927127785026"><ele>516.0</ele><time>2026-04-21T10:13:28.999Z</time></trkpt><trkpt lat="37.74311789703665" lon="-3.083292198764817"><ele>516.0</ele><time>2026-04-21T10:13:29.999Z</time></trkpt><trkpt lat="37.74302698791453" lon="-3.0830723037701713"><ele>522.3333333333334</ele><time>2026-04-21T10:13:30.999Z</time></trkpt><trkpt lat="37.742915879307226" lon="-3.0828718138377664"><ele>528.6666666666667</ele><time>2026-04-21T10:13:31.998Z</time></trkpt><trkpt lat="37.7428116537652" lon="-3.08266094488233"><ele>535.0</ele><time>2026-04-21T10:13:32.998Z</time></trkpt><trkpt lat="37.74270849222146" lon="-3.0824457576743374"><ele>522.3333333333334</ele><time>2026-04-21T10:13:33.998Z</time></trkpt><trkpt lat="37.742586249154776" lon="-3.0822488786493687"><ele>509.66666666666663</ele><time>2026-04-21T10:13:34.998Z</time></trkpt><trkpt lat="37.742452269908256" lon="-3.082055164923464"><ele>497.0</ele><time>2026-04-21T10:13:35.998Z</time></trkpt><trkpt lat="37.74229302498595" lon="-3.0818998086624245"><ele>497.0</ele><time>2026-04-21T10:13:36.998Z</time></trkpt><trkpt lat="37.742121427469804" lon="-3.0817629503828727"><ele>497.0</ele><time>2026-04-21T10:13:37.998Z</time></trkpt><trkpt lat="37.74197002843171" lon="-3.0816092482819184"><ele>497.0</ele><time>2026-04-21T10:13:38.998Z</time></trkpt><trkpt lat="37.74182864688624" lon="-3.081454119451251"><ele>493.0</ele><time>2026-04-21T10:13:39.998Z</time></trkpt><trkpt lat="37.741735787853386" lon="-3.0812648956545043"><ele>489.0</ele><time>2026-04-21T10:13:40.998Z</time></trkpt><trkpt lat="37.741627282768455" lon="-3.081108343943583"><ele>485.0</ele><time>2026-04-21T10:13:41.998Z</time></trkpt><trkpt lat="37.74153129951432" lon="-3.080979514416148"><ele>485.0</ele><time>2026-04-21T10:13:42.998Z</time></trkpt><trkpt lat="37.741405712911" lon="-3.0808900517090896"><ele>485.0</ele><time>2026-04-21T10:13:43.998Z</time></trkpt><trkpt lat="37.74123853729273" lon="-3.0808496725203156"><ele>485.0</ele><time>2026-04-21T10:13:45Z</time></trkpt><trkpt lat="37.74105902427715" lon="-3.080860254653884"><ele>480.3333333333333</ele><time>2026-04-21T10:13:46Z</time></trkpt><trkpt lat="37.74087486821126" lon="-3.0808739515112373"><ele>475.66666666666663</ele><time>2026-04-21T10:13:47Z</time></trkpt><trkpt lat="37.74071648425404" lon="-3.080867869828733"><ele>471.0</ele><time>2026-04-21T10:13:48Z</time></trkpt><trkpt lat="37.74057139581392" lon="-3.0808565496300147"><ele>471.0</ele><time>2026-04-21T10:13:49Z</time></trkpt><trkpt lat="37.740427471539505" lon="-3.0808137801684454"><ele>471.0</ele><time>2026-04-21T10:13:50Z</time></trkpt><trkpt lat="37.74030443184665" lon="-3.080732945407323"><ele>471.0</ele><time>2026-04-21T10:13:51Z</time></trkpt><trkpt lat="37.74019621626944" lon="-3.0805973045418984"><ele>471.0</ele><time>2026-04-21T10:13:52Z</time></trkpt><trkpt lat="37.740097445884686" lon="-3.0804175757745833"><ele>472.66666666666663</ele><time>2026-04-21T10:13:53Z</time></trkpt><trkpt lat="37.739975776165714" lon="-3.0802348654982343"><ele>474.3333333333333</ele><time>2026-04-21T10:13:54Z</time></trkpt><trkpt lat="37.73982678586633" lon="-3.080072221692892"><ele>476.0</ele><time>2026-04-21T10:13:55Z</time></trkpt><trkpt lat="37.73966944587233" lon="-3.079898996101217"><ele>476.0</ele><time>2026-04-21T10:13:56Z</time></trkpt><trkpt lat="37.739509757451835" lon="-3.0797204116706003"><ele>476.0</ele><time>2026-04-21T10:13:57Z</time></trkpt><trkpt lat="37.73934799324683" lon="-3.0795297733982796"><ele>476.0</ele><time>2026-04-21T10:13:58Z</time></trkpt><trkpt lat="37.73919605181821" lon="-3.079355217120731"><ele>478.3333333333333</ele><time>2026-04-21T10:13:59Z</time></trkpt><trkpt lat="37.73903836147976" lon="-3.0792154913053373"><ele>480.66666666666663</ele><time>2026-04-21T10:14:00Z</time></trkpt><trkpt lat="37.73887146939168" lon="-3.0790933812251375"><ele>483.0</ele><time>2026-04-21T10:14:01Z</time></trkpt><trkpt lat="37.73868457620534" lon="-3.0790194860920197"><ele>483.0</ele><time>2026-04-21T10:14:02Z</time></trkpt><trkpt lat="37.73847819617732" lon="-3.078955392600952"><ele>483.0</ele><time>2026-04-21T10:14:03Z</time></trkpt><trkpt lat="37.73826825677509" lon="-3.0788975419274474"><ele>483.0</ele><time>2026-04-21T10:14:04Z</time></trkpt><trkpt lat="37.73805472689667" lon="-3.078839727103879"><ele>483.0</ele><time>2026-04-21T10:14:05Z</time></trkpt><trkpt lat="37.73783582942106" lon="-3.07878040188719"><ele>483.0</ele><time>2026-04-21T10:14:06Z</time></trkpt><trkpt lat="37.73762967791408" lon="-3.0786972600500597"><ele>483.0</ele><time>2026-04-21T10:14:07Z</time></trkpt><trkpt lat="37.73744249700238" lon="-3.0786442981870623"><ele>484.0</ele><time>2026-04-21T10:14:08Z</time></trkpt><trkpt lat="37.73726800146738" lon="-3.078580118765099"><ele>485.0</ele><time>2026-04-21T10:14:09Z</time></trkpt><trkpt lat="37.73710714866085" lon="-3.078488087000217"><ele>486.0</ele><time>2026-04-21T10:14:10Z</time></trkpt><trkpt lat="37.73695007697997" lon="-3.0783670927312015"><ele>488.33333333333337</ele><time>2026-04-21T10:14:11Z</time></trkpt><trkpt lat="37.73678910210828" lon="-3.0782587898298925"><ele>490.6666666666667</ele><time>2026-04-21T10:14:12Z</time></trkpt><trkpt lat="37.73663335108784" lon="-3.078175351230704"><ele>493.0</ele><time>2026-04-21T10:14:13Z</time></trkpt><trkpt lat="37.736474060100726" lon="-3.0780926433311233"><ele>493.0</ele><time>2026-04-21T10:14:14Z</time></trkpt><trkpt lat="37.736315839543" lon="-3.07801669366782"><ele>493.0</ele><time>2026-04-21T10:14:15Z</time></trkpt><trkpt lat="37.736169938124306" lon="-3.077951590862922"><ele>493.0</ele><time>2026-04-21T10:14:16Z</time></trkpt><trkpt lat="37.73603701253218" lon="-3.0778938277440986"><ele>488.75</ele><time>2026-04-21T10:14:17Z</time></trkpt><trkpt lat="37.73591286526977" lon="-3.077847542172108"><ele>484.5</ele><time>2026-04-21T10:14:18Z</time></trkpt><trkpt lat="37.73579626865038" lon="-3.0778182995729213"><ele>480.25</ele><time>2026-04-21T10:14:19Z</time></trkpt><trkpt lat="37.73568591369044" lon="-3.0778014402050236"><ele>476.0</ele><time>2026-04-21T10:14:20Z</time></trkpt><trkpt lat="37.73559112802579" lon="-3.077786795334188"><ele>476.0</ele><time>2026-04-21T10:14:21Z</time></trkpt><trkpt lat="37.735500472748114" lon="-3.0777671868624945"><ele>476.0</ele><time>2026-04-21T10:14:22Z</time></trkpt><trkpt lat="37.73541679588706" lon="-3.0777521603303697"><ele>476.0</ele><time>2026-04-21T10:14:23Z</time></trkpt><trkpt lat="37.735329666373886" lon="-3.0777381064161338"><ele>476.0</ele><time>2026-04-21T10:14:23.999Z</time></trkpt><trkpt lat="37.73523955608691" lon="-3.0777286819922485"><ele>476.0</ele><time>2026-04-21T10:14:24.999Z</time></trkpt><trkpt lat="37.73514111729192" lon="-3.077730692525115"><ele>474.6</ele><time>2026-04-21T10:14:25.999Z</time></trkpt><trkpt lat="37.73503865068388" lon="-3.077750079040915"><ele>473.20000000000005</ele><time>2026-04-21T10:14:26.999Z</time></trkpt><trkpt lat="37.734936160969596" lon="-3.07778022704853"><ele>471.79999999999995</ele><time>2026-04-21T10:14:27.999Z</time></trkpt><trkpt lat="37.73482981910022" lon="-3.077816359303186"><ele>470.4</ele><time>2026-04-21T10:14:28.999Z</time></trkpt><trkpt lat="37.734721004296595" lon="-3.0778503905534844"><ele>469.0</ele><time>2026-04-21T10:14:29.999Z</time></trkpt><trkpt lat="37.734616423778746" lon="-3.0778817014265654"><ele>469.0</ele><time>2026-04-21T10:14:30.999Z</time></trkpt><trkpt lat="37.73451926329647" lon="-3.077893296090109"><ele>469.0</ele><time>2026-04-21T10:14:31.999Z</time></trkpt><trkpt lat="37.734434854000995" lon="-3.077896355371045"><ele>469.0</ele><time>2026-04-21T10:14:32.999Z</time></trkpt><trkpt lat="37.73434733624044" lon="-3.077877465340219"><ele>469.0</ele><time>2026-04-21T10:14:33.999Z</time></trkpt><trkpt lat="37.73425888558536" lon="-3.077838305994774"><ele>469.0</ele><time>2026-04-21T10:14:34.999Z</time></trkpt><trkpt lat="37.7341795011935" lon="-3.077773815447979"><ele>469.2</ele><time>2026-04-21T10:14:35.999Z</time></trkpt><trkpt lat="37.73409436372183" lon="-3.077710072769533"><ele>469.4</ele><time>2026-04-21T10:14:36.999Z</time></trkpt><trkpt lat="37.73400583170911" lon="-3.0776443715263655"><ele>469.6</ele><time>2026-04-21T10:14:37.999Z</time></trkpt><trkpt lat="37.733908304704656" lon="-3.0775881814827453"><ele>469.8</ele><time>2026-04-21T10:14:38.999Z</time></trkpt><trkpt lat="37.733804326941616" lon="-3.0775472469950413"><ele>470.0</ele><time>2026-04-21T10:14:39.999Z</time></trkpt><trkpt lat="37.73369463704193" lon="-3.0775214981910195"><ele>470.0</ele><time>2026-04-21T10:14:40.999Z</time></trkpt><trkpt lat="37.7335697308922" lon="-3.077507680550425"><ele>470.0</ele><time>2026-04-21T10:14:41.999Z</time></trkpt><trkpt lat="37.73343084134019" lon="-3.0774895901920325"><ele>470.0</ele><time>2026-04-21T10:14:42.999Z</time></trkpt><trkpt lat="37.73329275799797" lon="-3.077466341769121"><ele>470.0</ele><time>2026-04-21T10:14:43.999Z</time></trkpt><trkpt lat="37.73315305915961" lon="-3.077443183729424"><ele>477.75</ele><time>2026-04-21T10:14:44.999Z</time></trkpt><trkpt lat="37.73301156332877" lon="-3.0774265881286547"><ele>485.5</ele><time>2026-04-21T10:14:45.999Z</time></trkpt><trkpt lat="37.73288489237238" lon="-3.077417149828443"><ele>493.25</ele><time>2026-04-21T10:14:46.999Z</time></trkpt><trkpt lat="37.73277127622956" lon="-3.0774074907827385"><ele>501.0</ele><time>2026-04-21T10:14:47.999Z</time></trkpt><trkpt lat="37.732647008827556" lon="-3.077377069963705"><ele>501.0</ele><time>2026-04-21T10:14:48.999Z</time></trkpt><trkpt lat="37.73249263163876" lon="-3.077297648117225"><ele>501.0</ele><time>2026-04-21T10:14:49.999Z</time></trkpt><trkpt lat="37.73231099536537" lon="-3.0771956895613193"><ele>501.0</ele><time>2026-04-21T10:14:50.999Z</time></trkpt><trkpt lat="37.73213256569979" lon="-3.077099615321312"><ele>501.0</ele><time>2026-04-21T10:14:51.999Z</time></trkpt><trkpt lat="37.731960154939294" lon="-3.0770263014898105"><ele>501.0</ele><time>2026-04-21T10:14:52.999Z</time></trkpt><trkpt lat="37.731804049534915" lon="-3.0769833691592163"><ele>501.0</ele><time>2026-04-21T10:14:53.999Z</time></trkpt><trkpt lat="37.731652017766045" lon="-3.0769781520205783"><ele>497.0</ele><time>2026-04-21T10:14:54.999Z</time></trkpt><trkpt lat="37.731488477385064" lon="-3.0770025663945253"><ele>493.0</ele><time>2026-04-21T10:14:55.999Z</time></trkpt><trkpt lat="37.73132313725491" lon="-3.0770231800587893"><ele>489.0</ele><time>2026-04-21T10:14:56.999Z</time></trkpt><trkpt lat="37.731156956726544" lon="-3.077011704409413"><ele>486.0</ele><time>2026-04-21T10:14:57.999Z</time></trkpt><trkpt lat="37.731012648651785" lon="-3.076993954752224"><ele>483.0</ele><time>2026-04-21T10:14:58.999Z</time></trkpt><trkpt lat="37.73088384626383" lon="-3.07696413558357"><ele>480.0</ele><time>2026-04-21T10:14:59.999Z</time></trkpt><trkpt lat="37.73076238389617" lon="-3.0769171090053185"><ele>477.0</ele><time>2026-04-21T10:15:00.999Z</time></trkpt><trkpt lat="37.730639097178354" lon="-3.076832641155287"><ele>477.0</ele><time>2026-04-21T10:15:01.999Z</time></trkpt><trkpt lat="37.730526620821976" lon="-3.0766930900332023"><ele>477.0</ele><time>2026-04-21T10:15:02.999Z</time></trkpt><trkpt lat="37.73042637698189" lon="-3.0765118088930303"><ele>477.0</ele><time>2026-04-21T10:15:03.999Z</time></trkpt><trkpt lat="37.7303324154041" lon="-3.0762999972034333"><ele>478.33333333333337</ele><time>2026-04-21T10:15:04.999Z</time></trkpt><trkpt lat="37.73023159319064" lon="-3.0760824687443704"><ele>479.6666666666667</ele><time>2026-04-21T10:15:05.999Z</time></trkpt><trkpt lat="37.73012111307174" lon="-3.0758735443242022"><ele>481.0</ele><time>2026-04-21T10:15:06.999Z</time></trkpt><trkpt lat="37.7300313860701" lon="-3.075657888081275"><ele>481.0</ele><time>2026-04-21T10:15:07.999Z</time></trkpt><trkpt lat="37.72994362015641" lon="-3.0754461546990943"><ele>481.0</ele><time>2026-04-21T10:15:08.999Z</time></trkpt><trkpt lat="37.72985979284057" lon="-3.0752349662039964"><ele>481.0</ele><time>2026-04-21T10:15:09.999Z</time></trkpt><trkpt lat="37.72978635861845" lon="-3.0750210032733842"><ele>482.33333333333337</ele><time>2026-04-21T10:15:10.999Z</time></trkpt><trkpt lat="37.72971919076055" lon="-3.0748056504998655"><ele>483.66666666666663</ele><time>2026-04-21T10:15:11.999Z</time></trkpt><trkpt lat="37.72966338614312" lon="-3.0746006834306083"><ele>485.0</ele><time>2026-04-21T10:15:12.999Z</time></trkpt><trkpt lat="37.72961081303183" lon="-3.0744008462915486"><ele>485.0</ele><time>2026-04-21T10:15:13.999Z</time></trkpt><trkpt lat="37.72955060759351" lon="-3.0742006145616068"><ele>485.0</ele><time>2026-04-21T10:15:14.999Z</time></trkpt><trkpt lat="37.729488330645765" lon="-3.073997707985528"><ele>485.0</ele><time>2026-04-21T10:15:15.999Z</time></trkpt><trkpt lat="37.72942747161608" lon="-3.073792826304223"><ele>479.66666666666663</ele><time>2026-04-21T10:15:16.999Z</time></trkpt><trkpt lat="37.729370392220986" lon="-3.073587001821968"><ele>474.33333333333337</ele><time>2026-04-21T10:15:17.999Z</time></trkpt><trkpt lat="37.729332889688436" lon="-3.073383748374133"><ele>469.0</ele><time>2026-04-21T10:15:18.999Z</time></trkpt><trkpt lat="37.729319806862755" lon="-3.0731832407584423"><ele>468.33333333333337</ele><time>2026-04-21T10:15:19.999Z</time></trkpt><trkpt lat="37.72933842645658" lon="-3.0729846425666456"><ele>467.66666666666663</ele><time>2026-04-21T10:15:20.999Z</time></trkpt><trkpt lat="37.729389452819404" lon="-3.072782412572801"><ele>467.0</ele><time>2026-04-21T10:15:21.999Z</time></trkpt><trkpt lat="37.729468303151464" lon="-3.072578565090548"><ele>468.66666666666663</ele><time>2026-04-21T10:15:22.999Z</time></trkpt><trkpt lat="37.72956985614745" lon="-3.0723695985773194"><ele>470.33333333333337</ele><time>2026-04-21T10:15:23.999Z</time></trkpt><trkpt lat="37.729686645276026" lon="-3.072138327351881"><ele>472.0</ele><time>2026-04-21T10:15:24.999Z</time></trkpt><trkpt lat="37.72980118320804" lon="-3.071894482558607"><ele>472.0</ele><time>2026-04-21T10:15:25.999Z</time></trkpt><trkpt lat="37.729910114104385" lon="-3.07166862776635"><ele>472.0</ele><time>2026-04-21T10:15:26.999Z</time></trkpt><trkpt lat="37.730007889241215" lon="-3.071457978334074"><ele>472.0</ele><time>2026-04-21T10:15:27.999Z</time></trkpt><trkpt lat="37.730108505248666" lon="-3.071249317243054"><ele>472.6666666666667</ele><time>2026-04-21T10:15:28.999Z</time></trkpt><trkpt lat="37.730233171117966" lon="-3.0710445388711234"><ele>473.33333333333337</ele><time>2026-04-21T10:15:29.999Z</time></trkpt><trkpt lat="37.73039453036123" lon="-3.070861751979056"><ele>474.0</ele><time>2026-04-21T10:15:30.998Z</time></trkpt><trkpt lat="37.730570266566176" lon="-3.070694556360246"><ele>472.0</ele><time>2026-04-21T10:15:31.998Z</time></trkpt><trkpt lat="37.73073272497318" lon="-3.0705313744616842"><ele>470.0</ele><time>2026-04-21T10:15:32.998Z</time></trkpt><trkpt lat="37.73088157149685" lon="-3.070372803895874"><ele>468.0</ele><time>2026-04-21T10:15:33.998Z</time></trkpt><trkpt lat="37.73103317229385" lon="-3.070216504340379"><ele>469.0</ele><time>2026-04-21T10:15:34.998Z</time></trkpt><trkpt lat="37.73118222967682" lon="-3.0700602486403707"><ele>470.0</ele><time>2026-04-21T10:15:35.998Z</time></trkpt><trkpt lat="37.731327486669855" lon="-3.0699008161815255"><ele>471.0</ele><time>2026-04-21T10:15:36.998Z</time></trkpt><trkpt lat="37.73146884430117" lon="-3.0697473572394554"><ele>471.0</ele><time>2026-04-21T10:15:37.998Z</time></trkpt><trkpt lat="37.73161088911972" lon="-3.0695905410829405"><ele>471.0</ele><time>2026-04-21T10:15:38.998Z</time></trkpt><trkpt lat="37.7317558480485" lon="-3.0694316209633263"><ele>471.0</ele><time>2026-04-21T10:15:39.998Z</time></trkpt><trkpt lat="37.7318966778931" lon="-3.069275324988333"><ele>476.0</ele><time>2026-04-21T10:15:40.998Z</time></trkpt><trkpt lat="37.73203437094454" lon="-3.069114029592912"><ele>481.0</ele><time>2026-04-21T10:15:41.998Z</time></trkpt><trkpt lat="37.732168324355996" lon="-3.068945664095075"><ele>486.0</ele><time>2026-04-21T10:15:42.998Z</time></trkpt><trkpt lat="37.73229681847489" lon="-3.0687757903229023"><ele>486.0</ele><time>2026-04-21T10:15:43.998Z</time></trkpt><trkpt lat="37.73241661364198" lon="-3.068611319845913"><ele>486.0</ele><time>2026-04-21T10:15:44.998Z</time></trkpt><trkpt lat="37.73253864811063" lon="-3.0684551696426507"><ele>486.0</ele><time>2026-04-21T10:15:45.998Z</time></trkpt><trkpt lat="37.732660520848476" lon="-3.0683081242189987"><ele>496.33333333333337</ele><time>2026-04-21T10:15:46.998Z</time></trkpt><trkpt lat="37.73273693295627" lon="-3.068145140954248"><ele>506.6666666666667</ele><time>2026-04-21T10:15:47.998Z</time></trkpt><trkpt lat="37.73280455737798" lon="-3.0679599750010653"><ele>517.0</ele><time>2026-04-21T10:15:48.998Z</time></trkpt><trkpt lat="37.73282877820285" lon="-3.067742859005074"><ele>517.0</ele><time>2026-04-21T10:15:49.998Z</time></trkpt><trkpt lat="37.732838798210274" lon="-3.0675184695592397"><ele>517.0</ele><time>2026-04-21T10:15:51Z</time></trkpt><trkpt lat="37.73283484821001" lon="-3.0673002937786458"><ele>517.0</ele><time>2026-04-21T10:15:52Z</time></trkpt><trkpt lat="37.732870480015436" lon="-3.0670824930935434"><ele>513.3333333333334</ele><time>2026-04-21T10:15:53Z</time></trkpt><trkpt lat="37.732945110624314" lon="-3.066871077382765"><ele>509.66666666666663</ele><time>2026-04-21T10:15:54Z</time></trkpt><trkpt lat="37.733005509853676" lon="-3.0666584666497934"><ele>506.0</ele><time>2026-04-21T10:15:55Z</time></trkpt><trkpt lat="37.73304306013779" lon="-3.066462209785627"><ele>501.3333333333333</ele><time>2026-04-21T10:15:56Z</time></trkpt><trkpt lat="37.73311781630677" lon="-3.0662652040528333"><ele>496.66666666666663</ele><time>2026-04-21T10:15:57Z</time></trkpt><trkpt lat="37.73322658000364" lon="-3.0660559737945436"><ele>492.0</ele><time>2026-04-21T10:15:58Z</time></trkpt><trkpt lat="37.73331423142629" lon="-3.0658346597026025"><ele>487.66666666666663</ele><time>2026-04-21T10:15:59Z</time></trkpt><trkpt lat="37.733390571338695" lon="-3.065615428695327"><ele>483.3333333333333</ele><time>2026-04-21T10:16:00Z</time></trkpt><trkpt lat="37.73346834294616" lon="-3.0654260625754226"><ele>479.0</ele><time>2026-04-21T10:16:01Z</time></trkpt><trkpt lat="37.73353519973564" lon="-3.0652615698257457"><ele>485.5</ele><time>2026-04-21T10:16:02Z</time></trkpt><trkpt lat="37.73361391838774" lon="-3.065111192442466"><ele>492.0</ele><time>2026-04-21T10:16:03Z</time></trkpt><trkpt lat="37.73370552725052" lon="-3.0649729919851865"><ele>498.5</ele><time>2026-04-21T10:16:04Z</time></trkpt><trkpt lat="37.73380206140407" lon="-3.064844031147133"><ele>505.0</ele><time>2026-04-21T10:16:05Z</time></trkpt><trkpt lat="37.73387305271389" lon="-3.064671941243564"><ele>505.0</ele><time>2026-04-21T10:16:06Z</time></trkpt><trkpt lat="37.733917161347925" lon="-3.0644533216855496"><ele>505.0</ele><time>2026-04-21T10:16:07Z</time></trkpt><trkpt lat="37.73394888109906" lon="-3.0642247120235715"><ele>505.0</ele><time>2026-04-21T10:16:08Z</time></trkpt><trkpt lat="37.73396906630458" lon="-3.0639884984235355"><ele>502.33333333333337</ele><time>2026-04-21T10:16:09Z</time></trkpt><trkpt lat="37.733989250039855" lon="-3.063765273941934"><ele>499.66666666666663</ele><time>2026-04-21T10:16:10Z</time></trkpt><trkpt lat="37.73403472585768" lon="-3.063582726653864"><ele>497.0</ele><time>2026-04-21T10:16:11Z</time></trkpt><trkpt lat="37.73410968817906" lon="-3.0634336368851542"><ele>497.0</ele><time>2026-04-21T10:16:12Z</time></trkpt><trkpt lat="37.73417761336146" lon="-3.063284156326252"><ele>497.0</ele><time>2026-04-21T10:16:13Z</time></trkpt><trkpt lat="37.73420338270307" lon="-3.063106188850265"><ele>497.0</ele><time>2026-04-21T10:16:14Z</time></trkpt><trkpt lat="37.73417338925895" lon="-3.0629126852715385"><ele>497.0</ele><time>2026-04-21T10:16:15Z</time></trkpt><trkpt lat="37.73412011014878" lon="-3.06272587139325"><ele>502.0</ele><time>2026-04-21T10:16:16Z</time></trkpt><trkpt lat="37.7340651030894" lon="-3.0625177986299046"><ele>507.0</ele><time>2026-04-21T10:16:17Z</time></trkpt><trkpt lat="37.73399744168219" lon="-3.062320695579415"><ele>512.0</ele><time>2026-04-21T10:16:18Z</time></trkpt><trkpt lat="37.73396328026057" lon="-3.0621222648951005"><ele>514.5</ele><time>2026-04-21T10:16:19Z</time></trkpt><trkpt lat="37.733931480217514" lon="-3.0619355576631904"><ele>517.0</ele><time>2026-04-21T10:16:20Z</time></trkpt><trkpt lat="37.73384655059498" lon="-3.0617876796308683"><ele>519.5</ele><time>2026-04-21T10:16:21Z</time></trkpt><trkpt lat="37.73376193438874" lon="-3.061627546559571"><ele>522.0</ele><time>2026-04-21T10:16:22Z</time></trkpt><trkpt lat="37.73366929918622" lon="-3.0614853414232686"><ele>524.6666666666666</ele><time>2026-04-21T10:16:23Z</time></trkpt><trkpt lat="37.733616950152765" lon="-3.0613018226814663"><ele>527.3333333333333</ele><time>2026-04-21T10:16:24Z</time></trkpt><trkpt lat="37.733589387461585" lon="-3.0611065248988694"><ele>530.0</ele><time>2026-04-21T10:16:24.999Z</time></trkpt><trkpt lat="37.733547689632076" lon="-3.060908473530538"><ele>519.6666666666666</ele><time>2026-04-21T10:16:25.999Z</time></trkpt><trkpt lat="37.7334652302078" lon="-3.0607144415168532"><ele>509.33333333333337</ele><time>2026-04-21T10:16:26.999Z</time></trkpt><trkpt lat="37.73337552981499" lon="-3.06052227732434"><ele>499.0</ele><time>2026-04-21T10:16:27.999Z</time></trkpt><trkpt lat="37.73329090729513" lon="-3.060322323170509"><ele>499.0</ele><time>2026-04-21T10:16:28.999Z</time></trkpt><trkpt lat="37.73322315782906" lon="-3.060120894965394"><ele>499.0</ele><time>2026-04-21T10:16:29.999Z</time></trkpt><trkpt lat="37.733187925792926" lon="-3.059897956796957"><ele>499.0</ele><time>2026-04-21T10:16:30.999Z</time></trkpt><trkpt lat="37.733168868422936" lon="-3.0596664952849597"><ele>499.0</ele><time>2026-04-21T10:16:31.999Z</time></trkpt><trkpt lat="37.73314497458608" lon="-3.059432653637012"><ele>499.0</ele><time>2026-04-21T10:16:32.999Z</time></trkpt><trkpt lat="37.73312440330749" lon="-3.059228143256501"><ele>499.0</ele><time>2026-04-21T10:16:33.999Z</time></trkpt><trkpt lat="37.73310426516728" lon="-3.0590294818014145"><ele>499.0</ele><time>2026-04-21T10:16:34.999Z</time></trkpt><trkpt lat="37.73308185750145" lon="-3.0588232466360354"><ele>499.0</ele><time>2026-04-21T10:16:35.999Z</time></trkpt><trkpt lat="37.7330643311653" lon="-3.058617634601322"><ele>499.0</ele><time>2026-04-21T10:16:36.999Z</time></trkpt><trkpt lat="37.73305174314559" lon="-3.0584074177968703"><ele>498.6666666666667</ele><time>2026-04-21T10:16:37.999Z</time></trkpt><trkpt lat="37.733030861886554" lon="-3.058189807480242"><ele>498.33333333333337</ele><time>2026-04-21T10:16:38.999Z</time></trkpt><trkpt lat="37.73297285165448" lon="-3.05797471874163"><ele>498.0</ele><time>2026-04-21T10:16:39.999Z</time></trkpt><trkpt lat="37.73285277955896" lon="-3.057784700467408"><ele>498.0</ele><time>2026-04-21T10:16:40.999Z</time></trkpt><trkpt lat="37.73275124859221" lon="-3.0575797741817645"><ele>498.0</ele><time>2026-04-21T10:16:41.999Z</time></trkpt><trkpt lat="37.732638757608655" lon="-3.057376565076397"><ele>498.0</ele><time>2026-04-21T10:16:42.999Z</time></trkpt><trkpt lat="37.73252840074228" lon="-3.057168617048261"><ele>497.33333333333337</ele><time>2026-04-21T10:16:43.999Z</time></trkpt><trkpt lat="37.73242102961963" lon="-3.0569694409144925"><ele>496.6666666666667</ele><time>2026-04-21T10:16:44.999Z</time></trkpt><trkpt lat="37.73231553488061" lon="-3.056776959785777"><ele>496.0</ele><time>2026-04-21T10:16:45.999Z</time></trkpt><trkpt lat="37.73221231973914" lon="-3.0565854282561506"><ele>497.6666666666667</ele><time>2026-04-21T10:16:46.999Z</time></trkpt><trkpt lat="37.73213631602061" lon="-3.0563845209872182"><ele>499.33333333333337</ele><time>2026-04-21T10:16:47.999Z</time></trkpt><trkpt lat="37.73203696012599" lon="-3.0562011009803305"><ele>501.0</ele><time>2026-04-21T10:16:48.999Z</time></trkpt><trkpt lat="37.731946654355845" lon="-3.056032396374071"><ele>498.5</ele><time>2026-04-21T10:16:49.999Z</time></trkpt><trkpt lat="37.73186467672457" lon="-3.0558744253980943"><ele>496.0</ele><time>2026-04-21T10:16:50.999Z</time></trkpt><trkpt lat="37.7317912385556" lon="-3.055738370353269"><ele>493.5</ele><time>2026-04-21T10:16:51.999Z</time></trkpt><trkpt lat="37.73173011881462" lon="-3.0556297806275823"><ele>491.0</ele><time>2026-04-21T10:16:52.999Z</time></trkpt><trkpt lat="37.73167818797606" lon="-3.0555516842462636"><ele>490.99999999999994</ele><time>2026-04-21T10:16:53.999Z</time></trkpt><trkpt lat="37.73163671532947" lon="-3.0554903330035934"><ele>491.0</ele><time>2026-04-21T10:16:54.999Z</time></trkpt><trkpt lat="37.73158256224872" lon="-3.0554339871379472"><ele>491.0</ele><time>2026-04-21T10:16:56.999Z</time></trkpt><trkpt lat="37.73153184031642" lon="-3.0553383576841204"><ele>491.0</ele><time>2026-04-21T10:18:55.999Z</time></trkpt><trkpt lat="37.7314956099809" lon="-3.055265965284263"><ele>490.99999999999994</ele><time>2026-04-21T10:18:56.999Z</time></trkpt><trkpt lat="37.731430708266736" lon="-3.0551465555520765"><ele>491.0</ele><time>2026-04-21T10:18:58.999Z</time></trkpt><trkpt lat="37.731386790503194" lon="-3.0550794571835507"><ele>491.0</ele><time>2026-04-21T10:18:59.999Z</time></trkpt><trkpt lat="37.73134305163983" lon="-3.0549947653900267"><ele>491.0</ele><time>2026-04-21T10:19:00.999Z</time></trkpt><trkpt lat="37.73128657992268" lon="-3.0549150797754123"><ele>491.0</ele><time>2026-04-21T10:19:01.999Z</time></trkpt><trkpt lat="37.73123249872171" lon="-3.054816067064105"><ele>491.0</ele><time>2026-04-21T10:19:02.999Z</time></trkpt><trkpt lat="37.73115722596482" lon="-3.0547262496566088"><ele>491.0</ele><time>2026-04-21T10:19:03.999Z</time></trkpt><trkpt lat="37.73107494867284" lon="-3.054630725246726"><ele>491.25</ele><time>2026-04-21T10:19:04.999Z</time></trkpt><trkpt lat="37.73098004056066" lon="-3.054548081657901"><ele>491.5</ele><time>2026-04-21T10:19:05.999Z</time></trkpt><trkpt lat="37.73088172979134" lon="-3.054468018850374"><ele>491.75</ele><time>2026-04-21T10:19:06.999Z</time></trkpt><trkpt lat="37.730765137023745" lon="-3.054395933920831"><ele>492.0</ele><time>2026-04-21T10:19:07.999Z</time></trkpt><trkpt lat="37.730642611071936" lon="-3.0543303654067815"><ele>492.0</ele><time>2026-04-21T10:19:08.999Z</time></trkpt><trkpt lat="37.73051742112852" lon="-3.0542783195583416"><ele>492.0</ele><time>2026-04-21T10:19:09.999Z</time></trkpt><trkpt lat="37.73038535351375" lon="-3.054234124020926"><ele>492.0</ele><time>2026-04-21T10:19:10.999Z</time></trkpt><trkpt lat="37.73024371643628" lon="-3.0542066431680763"><ele>492.0</ele><time>2026-04-21T10:19:11.999Z</time></trkpt><trkpt lat="37.73008460397217" lon="-3.0541947383650103"><ele>490.33333333333337</ele><time>2026-04-21T10:19:12.999Z</time></trkpt><trkpt lat="37.72991900502" lon="-3.0541911849355112"><ele>488.6666666666667</ele><time>2026-04-21T10:19:13.999Z</time></trkpt><trkpt lat="37.72974825519054" lon="-3.0541973615960103"><ele>487.0</ele><time>2026-04-21T10:19:14.999Z</time></trkpt><trkpt lat="37.72958647118459" lon="-3.05420553694753"><ele>487.0</ele><time>2026-04-21T10:19:15.999Z</time></trkpt><trkpt lat="37.72942420220551" lon="-3.0542107321083742"><ele>487.0</ele><time>2026-04-21T10:19:16.999Z</time></trkpt><trkpt lat="37.729250713592705" lon="-3.054217012744611"><ele>487.0</ele><time>2026-04-21T10:19:17.999Z</time></trkpt><trkpt lat="37.729076837655555" lon="-3.05422138407434"><ele>487.6666666666667</ele><time>2026-04-21T10:19:18.999Z</time></trkpt><trkpt lat="37.72889874286096" lon="-3.0542260442345905"><ele>488.33333333333337</ele><time>2026-04-21T10:19:19.999Z</time></trkpt><trkpt lat="37.7287209061683" lon="-3.0542324291571967"><ele>489.0</ele><time>2026-04-21T10:19:20.999Z</time></trkpt><trkpt lat="37.72853594290326" lon="-3.054241456292916"><ele>487.33333333333337</ele><time>2026-04-21T10:19:21.999Z</time></trkpt><trkpt lat="37.728344781848385" lon="-3.0542476916807404"><ele>485.6666666666667</ele><time>2026-04-21T10:19:22.999Z</time></trkpt><trkpt lat="37.72815252862195" lon="-3.0542538386117783"><ele>484.0</ele><time>2026-04-21T10:19:23.999Z</time></trkpt><trkpt lat="37.727960539283075" lon="-3.05425825080069"><ele>484.0</ele><time>2026-04-21T10:19:24.999Z</time></trkpt><trkpt lat="37.72776919930886" lon="-3.0542588624461096"><ele>484.0</ele><time>2026-04-21T10:19:25.999Z</time></trkpt><trkpt lat="37.72756992105114" lon="-3.0542642227992647"><ele>484.0</ele><time>2026-04-21T10:19:26.999Z</time></trkpt><trkpt lat="37.727363562613974" lon="-3.0542691258784695"><ele>483.0</ele><time>2026-04-21T10:19:27.999Z</time></trkpt><trkpt lat="37.727160610941716" lon="-3.0542743392371694"><ele>482.0</ele><time>2026-04-21T10:19:28.999Z</time></trkpt><trkpt lat="37.726952549535866" lon="-3.054282636779814"><ele>481.0</ele><time>2026-04-21T10:19:29.999Z</time></trkpt><trkpt lat="37.72674562257323" lon="-3.0542927811642966"><ele>479.0</ele><time>2026-04-21T10:19:30.999Z</time></trkpt><trkpt lat="37.72653574903533" lon="-3.054296597497574"><ele>477.0</ele><time>2026-04-21T10:19:31.999Z</time></trkpt><trkpt lat="37.72632760160016" lon="-3.0543037970743665"><ele>475.0</ele><time>2026-04-21T10:19:32.999Z</time></trkpt><trkpt lat="37.726118860346986" lon="-3.0543197942588383"><ele>474.33333333333337</ele><time>2026-04-21T10:19:33.999Z</time></trkpt><trkpt lat="37.72591054900624" lon="-3.0543466214886124"><ele>473.66666666666663</ele><time>2026-04-21T10:19:34.999Z</time></trkpt><trkpt lat="37.72570120942137" lon="-3.054371767609868"><ele>473.0</ele><time>2026-04-21T10:19:35.999Z</time></trkpt><trkpt lat="37.72549109458459" lon="-3.05439344048083"><ele>473.0</ele><time>2026-04-21T10:19:36.999Z</time></trkpt><trkpt lat="37.7252821233312" lon="-3.0544087600287826"><ele>473.0</ele><time>2026-04-21T10:19:37.999Z</time></trkpt><trkpt lat="37.72507498276319" lon="-3.0544212557202646"><ele>473.0</ele><time>2026-04-21T10:19:38.999Z</time></trkpt><trkpt lat="37.724865815663236" lon="-3.0544377051705096"><ele>473.0</ele><time>2026-04-21T10:19:39.999Z</time></trkpt><trkpt lat="37.72465889930103" lon="-3.0544552336603625"><ele>473.0</ele><time>2026-04-21T10:19:40.999Z</time></trkpt><trkpt lat="37.72444820184635" lon="-3.054469449962386"><ele>473.0</ele><time>2026-04-21T10:19:41.999Z</time></trkpt><trkpt lat="37.724238910714455" lon="-3.054486662469533"><ele>473.0</ele><time>2026-04-21T10:19:42.999Z</time></trkpt><trkpt lat="37.72402945944238" lon="-3.054504879425033"><ele>473.0</ele><time>2026-04-21T10:19:43.998Z</time></trkpt><trkpt lat="37.72382145826085" lon="-3.0545269885313737"><ele>473.0</ele><time>2026-04-21T10:19:44.998Z</time></trkpt><trkpt lat="37.723621648263425" lon="-3.054533750703158"><ele>472.66666666666663</ele><time>2026-04-21T10:19:45.998Z</time></trkpt><trkpt lat="37.72342325493731" lon="-3.054516645830835"><ele>472.33333333333337</ele><time>2026-04-21T10:19:46.998Z</time></trkpt><trkpt lat="37.723226334591594" lon="-3.054466303786257"><ele>472.0</ele><time>2026-04-21T10:19:47.998Z</time></trkpt><trkpt lat="37.72303998294456" lon="-3.0543874058701426"><ele>472.0</ele><time>2026-04-21T10:19:48.998Z</time></trkpt><trkpt lat="37.72285848859439" lon="-3.054274256950234"><ele>472.0</ele><time>2026-04-21T10:19:49.998Z</time></trkpt><trkpt lat="37.722684364644586" lon="-3.0541337609392123"><ele>472.0</ele><time>2026-04-21T10:19:50.998Z</time></trkpt><trkpt lat="37.722522302726304" lon="-3.0539652788026825"><ele>473.33333333333337</ele><time>2026-04-21T10:19:51.998Z</time></trkpt><trkpt lat="37.72237846326643" lon="-3.053771753989918"><ele>474.66666666666663</ele><time>2026-04-21T10:19:52.998Z</time></trkpt><trkpt lat="37.7222542853899" lon="-3.0535548880177976"><ele>476.0</ele><time>2026-04-21T10:19:53.998Z</time></trkpt><trkpt lat="37.722182178574094" lon="-3.053261187351102"><ele>479.5</ele><time>2026-04-21T10:19:54.998Z</time></trkpt><trkpt lat="37.722102663267556" lon="-3.0529777215486558"><ele>483.0</ele><time>2026-04-21T10:19:55.998Z</time></trkpt><trkpt lat="37.72203196416685" lon="-3.0526779776930364"><ele>491.5</ele><time>2026-04-21T10:19:56.998Z</time></trkpt><trkpt lat="37.72196433212773" lon="-3.052371558141134"><ele>500.0</ele><time>2026-04-21T10:19:57.998Z</time></trkpt><trkpt lat="37.721900717776606" lon="-3.05209629737793"><ele>493.3333333333333</ele><time>2026-04-21T10:19:58.998Z</time></trkpt><trkpt lat="37.72183993761438" lon="-3.0518383405934544"><ele>486.66666666666663</ele><time>2026-04-21T10:19:59.998Z</time></trkpt><trkpt lat="37.721772211442136" lon="-3.0515741719984053"><ele>480.0</ele><time>2026-04-21T10:20:00.998Z</time></trkpt><trkpt lat="37.72170237712169" lon="-3.051305608466109"><ele>480.0</ele><time>2026-04-21T10:20:01.998Z</time></trkpt><trkpt lat="37.72163353582133" lon="-3.051040036144384"><ele>480.0</ele><time>2026-04-21T10:20:02.999Z</time></trkpt><trkpt lat="37.72156719861232" lon="-3.0507756364975256"><ele>480.0</ele><time>2026-04-21T10:20:03.999Z</time></trkpt><trkpt lat="37.721500891906835" lon="-3.050506946777627"><ele>481.33333333333337</ele><time>2026-04-21T10:20:04.999Z</time></trkpt><trkpt lat="37.721438596831426" lon="-3.0502353965640556"><ele>482.6666666666667</ele><time>2026-04-21T10:20:05.999Z</time></trkpt><trkpt lat="37.72137150885804" lon="-3.0499675198378813"><ele>484.0</ele><time>2026-04-21T10:20:06.999Z</time></trkpt><trkpt lat="37.72131061416436" lon="-3.049702191598728"><ele>484.0</ele><time>2026-04-21T10:20:07.999Z</time></trkpt><trkpt lat="37.72124741255816" lon="-3.0494358479682315"><ele>484.0</ele><time>2026-04-21T10:20:08.999Z</time></trkpt><trkpt lat="37.72117895805388" lon="-3.0491896901960835"><ele>484.0</ele><time>2026-04-21T10:20:09.999Z</time></trkpt><trkpt lat="37.72108173278901" lon="-3.0489553881543694"><ele>482.6666666666667</ele><time>2026-04-21T10:20:10.999Z</time></trkpt><trkpt lat="37.7209637322146" lon="-3.048739291150615"><ele>481.33333333333337</ele><time>2026-04-21T10:20:11.999Z</time></trkpt><trkpt lat="37.72082543499773" lon="-3.048538498882039"><ele>480.0</ele><time>2026-04-21T10:20:12.999Z</time></trkpt><trkpt lat="37.72066074283666" lon="-3.048371745225562"><ele>481.0</ele><time>2026-04-21T10:20:13.999Z</time></trkpt><trkpt lat="37.720481049324384" lon="-3.0482281307485404"><ele>482.0</ele><time>2026-04-21T10:20:14.999Z</time></trkpt><trkpt lat="37.72029785167473" lon="-3.0481072992036204"><ele>483.0</ele><time>2026-04-21T10:20:15.999Z</time></trkpt><trkpt lat="37.72009689110853" lon="-3.0480252206507386"><ele>483.0</ele><time>2026-04-21T10:20:16.999Z</time></trkpt><trkpt lat="37.71988881029747" lon="-3.0479734697997958"><ele>483.0</ele><time>2026-04-21T10:20:17.999Z</time></trkpt><trkpt lat="37.71967744426314" lon="-3.047963589070743"><ele>483.0</ele><time>2026-04-21T10:20:18.999Z</time></trkpt><trkpt lat="37.71946503460917" lon="-3.04798126720292"><ele>484.66666666666663</ele><time>2026-04-21T10:20:19.999Z</time></trkpt><trkpt lat="37.71925552451814" lon="-3.0480353425034323"><ele>486.3333333333333</ele><time>2026-04-21T10:20:20.999Z</time></trkpt><trkpt lat="37.719050883871965" lon="-3.0481227448155197"><ele>488.0</ele><time>2026-04-21T10:20:21.999Z</time></trkpt><trkpt lat="37.71884566197639" lon="-3.0482464114402754"><ele>487.0</ele><time>2026-04-21T10:20:22.999Z</time></trkpt><trkpt lat="37.718658230287524" lon="-3.048386160387191"><ele>486.0</ele><time>2026-04-21T10:20:23.999Z</time></trkpt><trkpt lat="37.718465375324335" lon="-3.0485262437530487"><ele>485.0</ele><time>2026-04-21T10:20:24.999Z</time></trkpt><trkpt lat="37.71826422476977" lon="-3.048672015998432"><ele>485.0</ele><time>2026-04-21T10:20:25.999Z</time></trkpt><trkpt lat="37.7180667073455" lon="-3.048808566437022"><ele>485.0</ele><time>2026-04-21T10:20:26.999Z</time></trkpt><trkpt lat="37.717873112483126" lon="-3.048940671790499"><ele>485.0</ele><time>2026-04-21T10:20:27.999Z</time></trkpt><trkpt lat="37.717683532629614" lon="-3.049070277078681"><ele>483.3333333333333</ele><time>2026-04-21T10:20:28.999Z</time></trkpt><trkpt lat="37.71749055057005" lon="-3.0492008988139885"><ele>481.66666666666663</ele><time>2026-04-21T10:20:29.999Z</time></trkpt><trkpt lat="37.71730377482911" lon="-3.0493277543826993"><ele>480.0</ele><time>2026-04-21T10:20:30.999Z</time></trkpt><trkpt lat="37.71711727886936" lon="-3.0494579839880527"><ele>480.0</ele><time>2026-04-21T10:20:31.999Z</time></trkpt><trkpt lat="37.71693039535242" lon="-3.0495829766237903"><ele>480.0</ele><time>2026-04-21T10:20:32.999Z</time></trkpt><trkpt lat="37.716743566008866" lon="-3.049713535635098"><ele>480.0</ele><time>2026-04-21T10:20:33.999Z</time></trkpt><trkpt lat="37.716551471155945" lon="-3.04985731909807"><ele>479.0</ele><time>2026-04-21T10:20:34.999Z</time></trkpt><trkpt lat="37.7163644756169" lon="-3.049986337855376"><ele>478.0</ele><time>2026-04-21T10:20:35.999Z</time></trkpt><trkpt lat="37.71617033140057" lon="-3.05010026489171"><ele>477.0</ele><time>2026-04-21T10:20:36.999Z</time></trkpt><trkpt lat="37.71597406985455" lon="-3.050203713580344"><ele>480.33333333333337</ele><time>2026-04-21T10:20:37.999Z</time></trkpt><trkpt lat="37.715776856890876" lon="-3.0502868531079868"><ele>483.6666666666667</ele><time>2026-04-21T10:20:38.999Z</time></trkpt><trkpt lat="37.71557047604819" lon="-3.0503393584300866"><ele>487.0</ele><time>2026-04-21T10:20:39.999Z</time></trkpt><trkpt lat="37.71536082887356" lon="-3.0503563127959836"><ele>488.0</ele><time>2026-04-21T10:20:40.999Z</time></trkpt><trkpt lat="37.715147615023305" lon="-3.0503521180188775"><ele>489.0</ele><time>2026-04-21T10:20:41.999Z</time></trkpt><trkpt lat="37.714942996306306" lon="-3.0503059236194905"><ele>490.0</ele><time>2026-04-21T10:20:42.999Z</time></trkpt><trkpt lat="37.71473965334206" lon="-3.0502314527592014"><ele>490.0</ele><time>2026-04-21T10:20:43.999Z</time></trkpt><trkpt lat="37.71455009205606" lon="-3.050121547590798"><ele>490.0</ele><time>2026-04-21T10:20:44.999Z</time></trkpt><trkpt lat="37.714364047003635" lon="-3.0499937276810654"><ele>490.0</ele><time>2026-04-21T10:20:45.999Z</time></trkpt><trkpt lat="37.71419053567864" lon="-3.0498447313574846"><ele>488.6666666666667</ele><time>2026-04-21T10:20:46.999Z</time></trkpt><trkpt lat="37.71403019045699" lon="-3.0496643699068624"><ele>487.33333333333337</ele><time>2026-04-21T10:20:47.999Z</time></trkpt><trkpt lat="37.71388336894354" lon="-3.049465861846318"><ele>486.0</ele><time>2026-04-21T10:20:48.999Z</time></trkpt><trkpt lat="37.71375772411168" lon="-3.0492436339341777"><ele>484.5</ele><time>2026-04-21T10:20:49.999Z</time></trkpt><trkpt lat="37.71365104356799" lon="-3.048996287805625"><ele>483.0</ele><time>2026-04-21T10:20:50.999Z</time></trkpt><trkpt lat="37.71354339069997" lon="-3.048721750926602"><ele>483.0</ele><time>2026-04-21T10:20:51.999Z</time></trkpt><trkpt lat="37.71343585294927" lon="-3.0484374731653974"><ele>483.0</ele><time>2026-04-21T10:20:52.999Z</time></trkpt><trkpt lat="37.71333139246123" lon="-3.04814971803112"><ele>482.5</ele><time>2026-04-21T10:20:53.999Z</time></trkpt><trkpt lat="37.71323034463055" lon="-3.047868912299498"><ele>482.0</ele><time>2026-04-21T10:20:54.999Z</time></trkpt><trkpt lat="37.71312406812392" lon="-3.0476065992370596"><ele>483.5</ele><time>2026-04-21T10:20:55.999Z</time></trkpt><trkpt lat="37.71299835419011" lon="-3.0473690044207933"><ele>485.0</ele><time>2026-04-21T10:20:56.999Z</time></trkpt><trkpt lat="37.71285120792834" lon="-3.0471555268407604"><ele>487.3333333333333</ele><time>2026-04-21T10:20:57.999Z</time></trkpt><trkpt lat="37.71267778673694" lon="-3.046977634961511"><ele>489.66666666666663</ele><time>2026-04-21T10:20:58.999Z</time></trkpt><trkpt lat="37.712490369100315" lon="-3.0468286886891898"><ele>492.0</ele><time>2026-04-21T10:20:59.999Z</time></trkpt><trkpt lat="37.71228984130257" lon="-3.0467043304443022"><ele>490.0</ele><time>2026-04-21T10:21:00.999Z</time></trkpt><trkpt lat="37.71207781072985" lon="-3.046612627779669"><ele>488.0</ele><time>2026-04-21T10:21:01.999Z</time></trkpt><trkpt lat="37.711855160122525" lon="-3.046561012609416"><ele>488.0</ele><time>2026-04-21T10:21:02.999Z</time></trkpt><trkpt lat="37.71163434693082" lon="-3.046526980742143"><ele>488.0</ele><time>2026-04-21T10:21:03.999Z</time></trkpt><trkpt lat="37.71140345535068" lon="-3.0465053581798927"><ele>488.0</ele><time>2026-04-21T10:21:04.999Z</time></trkpt><trkpt lat="37.71118859117451" lon="-3.046473463321498"><ele>488.0</ele><time>2026-04-21T10:21:05.999Z</time></trkpt><trkpt lat="37.71097603856893" lon="-3.046447243931042"><ele>488.0</ele><time>2026-04-21T10:21:06.999Z</time></trkpt><trkpt lat="37.71076551341055" lon="-3.046423922175422"><ele>485.66666666666663</ele><time>2026-04-21T10:21:07.999Z</time></trkpt><trkpt lat="37.71055488001277" lon="-3.046394350466721"><ele>483.33333333333337</ele><time>2026-04-21T10:21:08.999Z</time></trkpt><trkpt lat="37.710344144143455" lon="-3.046351986212949"><ele>481.0</ele><time>2026-04-21T10:21:09.999Z</time></trkpt><trkpt lat="37.71012920051762" lon="-3.0462823417567853"><ele>480.0</ele><time>2026-04-21T10:21:10.999Z</time></trkpt><trkpt lat="37.7099174635119" lon="-3.0461917660331777"><ele>479.0</ele><time>2026-04-21T10:21:11.999Z</time></trkpt><trkpt lat="37.70970516651557" lon="-3.0460850764633913"><ele>479.0</ele><time>2026-04-21T10:21:12.999Z</time></trkpt><trkpt lat="37.70949547392005" lon="-3.0459626789543153"><ele>479.0</ele><time>2026-04-21T10:21:13.999Z</time></trkpt><trkpt lat="37.70929402970724" lon="-3.0458251009092603"><ele>480.0</ele><time>2026-04-21T10:21:14.999Z</time></trkpt><trkpt lat="37.70910725386292" lon="-3.0456666757873174"><ele>481.0</ele><time>2026-04-21T10:21:15.999Z</time></trkpt><trkpt lat="37.70891682956479" lon="-3.0455039889173"><ele>481.0</ele><time>2026-04-21T10:21:16.999Z</time></trkpt><trkpt lat="37.708739730501634" lon="-3.045332989324816"><ele>481.0</ele><time>2026-04-21T10:21:17.999Z</time></trkpt><trkpt lat="37.708565387906134" lon="-3.045162555140845"><ele>481.0</ele><time>2026-04-21T10:21:18.999Z</time></trkpt><trkpt lat="37.70838709688259" lon="-3.0449963071505346"><ele>484.6666666666667</ele><time>2026-04-21T10:21:19.999Z</time></trkpt><trkpt lat="37.708207679980056" lon="-3.0448325524475983"><ele>488.33333333333337</ele><time>2026-04-21T10:21:20.999Z</time></trkpt><trkpt lat="37.70803004801952" lon="-3.04466920600436"><ele>492.0</ele><time>2026-04-21T10:21:21.999Z</time></trkpt><trkpt lat="37.70785425761478" lon="-3.04449894634585"><ele>491.0</ele><time>2026-04-21T10:21:22.999Z</time></trkpt><trkpt lat="37.70768599968102" lon="-3.044334933367756"><ele>490.0</ele><time>2026-04-21T10:21:23.999Z</time></trkpt><trkpt lat="37.70751706763803" lon="-3.044173515402497"><ele>489.0</ele><time>2026-04-21T10:21:24.999Z</time></trkpt><trkpt lat="37.70735333464022" lon="-3.044009702341443"><ele>499.66666666666663</ele><time>2026-04-21T10:21:25.999Z</time></trkpt><trkpt lat="37.70719679190907" lon="-3.04384526406474"><ele>510.3333333333333</ele><time>2026-04-21T10:21:26.999Z</time></trkpt><trkpt lat="37.707052641824255" lon="-3.0436649201617425"><ele>521.0</ele><time>2026-04-21T10:21:27.999Z</time></trkpt><trkpt lat="37.706928872903006" lon="-3.0434661891631474"><ele>518.6666666666666</ele><time>2026-04-21T10:21:28.999Z</time></trkpt><trkpt lat="37.70681792759918" lon="-3.043250969847528"><ele>516.3333333333334</ele><time>2026-04-21T10:21:29.999Z</time></trkpt><trkpt lat="37.706723200551515" lon="-3.043017986112307"><ele>514.0</ele><time>2026-04-21T10:21:30.999Z</time></trkpt><trkpt lat="37.706656225541096" lon="-3.0427693413780794"><ele>514.0</ele><time>2026-04-21T10:21:31.999Z</time></trkpt><trkpt lat="37.70661136050731" lon="-3.0424988961918324"><ele>514.0</ele><time>2026-04-21T10:21:32.999Z</time></trkpt><trkpt lat="37.706577898005015" lon="-3.042207045754644"><ele>515.0</ele><time>2026-04-21T10:21:33.999Z</time></trkpt><trkpt lat="37.7065680670141" lon="-3.041905825188701"><ele>516.0</ele><time>2026-04-21T10:21:34.999Z</time></trkpt><trkpt lat="37.70656458243824" lon="-3.0415855377565197"><ele>516.0</ele><time>2026-04-21T10:21:35.999Z</time></trkpt><trkpt lat="37.70655178181448" lon="-3.0412787140459283"><ele>516.0</ele><time>2026-04-21T10:21:36.999Z</time></trkpt><trkpt lat="37.70652800438885" lon="-3.040971328774747"><ele>520.5</ele><time>2026-04-21T10:21:37.999Z</time></trkpt><trkpt lat="37.7065018938844" lon="-3.040677047328177"><ele>525.0</ele><time>2026-04-21T10:21:38.999Z</time></trkpt><trkpt lat="37.70647149701457" lon="-3.0403854073602785"><ele>525.0</ele><time>2026-04-21T10:21:39.999Z</time></trkpt><trkpt lat="37.70643925373092" lon="-3.040103731453566"><ele>525.0</ele><time>2026-04-21T10:21:40.999Z</time></trkpt><trkpt lat="37.70640502931483" lon="-3.039822590613902"><ele>531.0</ele><time>2026-04-21T10:21:41.999Z</time></trkpt><trkpt lat="37.70636824551861" lon="-3.0395513581680498"><ele>537.0</ele><time>2026-04-21T10:21:42.999Z</time></trkpt><trkpt lat="37.70632806497298" lon="-3.039281536004228"><ele>543.0</ele><time>2026-04-21T10:21:43.999Z</time></trkpt><trkpt lat="37.70628608071485" lon="-3.0390175496219505"><ele>549.3333333333334</ele><time>2026-04-21T10:21:44.999Z</time></trkpt><trkpt lat="37.70623580193015" lon="-3.038751802231068"><ele>555.6666666666667</ele><time>2026-04-21T10:21:45.999Z</time></trkpt><trkpt lat="37.706180339594454" lon="-3.0384806642417828"><ele>562.0</ele><time>2026-04-21T10:21:46.999Z</time></trkpt><trkpt lat="37.70612356430037" lon="-3.0382037755440128"><ele>558.0</ele><time>2026-04-21T10:21:47.999Z</time></trkpt><trkpt lat="37.706063774267335" lon="-3.0379230200625"><ele>554.0</ele><time>2026-04-21T10:21:48.999Z</time></trkpt><trkpt lat="37.70599722875444" lon="-3.037642195263788"><ele>559.5</ele><time>2026-04-21T10:21:49.999Z</time></trkpt><trkpt lat="37.70593027208646" lon="-3.0373681673497974"><ele>565.0</ele><time>2026-04-21T10:21:50.999Z</time></trkpt><trkpt lat="37.70585888027821" lon="-3.0370860424742263"><ele>565.0</ele><time>2026-04-21T10:21:51.999Z</time></trkpt><trkpt lat="37.705782836521344" lon="-3.0368064038737037"><ele>565.0</ele><time>2026-04-21T10:21:52.999Z</time></trkpt><trkpt lat="37.70570145019037" lon="-3.036538373513052"><ele>566.6666666666667</ele><time>2026-04-21T10:21:53.999Z</time></trkpt><trkpt lat="37.705620722650025" lon="-3.0362764006179086"><ele>568.3333333333334</ele><time>2026-04-21T10:21:54.999Z</time></trkpt><trkpt lat="37.70553722954023" lon="-3.0360182548611716"><ele>570.0</ele><time>2026-04-21T10:21:55.999Z</time></trkpt><trkpt lat="37.70544846093167" lon="-3.0357689539996544"><ele>570.3333333333334</ele><time>2026-04-21T10:21:56.999Z</time></trkpt><trkpt lat="37.70536201047757" lon="-3.0355229814461326"><ele>570.6666666666667</ele><time>2026-04-21T10:21:57.999Z</time></trkpt><trkpt lat="37.70526114112879" lon="-3.0352629387443586"><ele>571.0</ele><time>2026-04-21T10:21:58.999Z</time></trkpt><trkpt lat="37.705173771021876" lon="-3.035041218698115"><ele>570.0</ele><time>2026-04-21T10:21:59.999Z</time></trkpt><trkpt lat="37.70507910865797" lon="-3.034799369554236"><ele>569.0</ele><time>2026-04-21T10:22:00.999Z</time></trkpt><trkpt lat="37.704984182001745" lon="-3.034564109216976"><ele>568.0</ele><time>2026-04-21T10:22:01.999Z</time></trkpt><trkpt lat="37.70489907381217" lon="-3.034338868422731"><ele>571.0</ele><time>2026-04-21T10:22:02.999Z</time></trkpt><trkpt lat="37.70481085150204" lon="-3.0341008789234727"><ele>574.0</ele><time>2026-04-21T10:22:03.999Z</time></trkpt><trkpt lat="37.70474953900432" lon="-3.0338599253279823"><ele>577.0</ele><time>2026-04-21T10:22:04.999Z</time></trkpt><trkpt lat="37.70469775837512" lon="-3.033607964242659"><ele>577.0</ele><time>2026-04-21T10:22:05.998Z</time></trkpt><trkpt lat="37.70468990916357" lon="-3.0333558931509916"><ele>577.0</ele><time>2026-04-21T10:22:06.998Z</time></trkpt><trkpt lat="37.704703498478985" lon="-3.0330860299616336"><ele>577.0</ele><time>2026-04-21T10:22:07.998Z</time></trkpt><trkpt lat="37.704701961831006" lon="-3.0328528995839443"><ele>577.0</ele><time>2026-04-21T10:22:09Z</time></trkpt><trkpt lat="37.704728303273406" lon="-3.032609718114163"><ele>577.0</ele><time>2026-04-21T10:22:10Z</time></trkpt><trkpt lat="37.70478894920841" lon="-3.032371548959889"><ele>577.0</ele><time>2026-04-21T10:22:11Z</time></trkpt><trkpt lat="37.70486517097633" lon="-3.032113169552668"><ele>577.0</ele><time>2026-04-21T10:22:12Z</time></trkpt><trkpt lat="37.70498087231627" lon="-3.031837845130706"><ele>577.0</ele><time>2026-04-21T10:22:13Z</time></trkpt><trkpt lat="37.705113615925875" lon="-3.0315596130406655"><ele>585.5</ele><time>2026-04-21T10:22:14Z</time></trkpt><trkpt lat="37.705251960817854" lon="-3.0312712425512776"><ele>594.0</ele><time>2026-04-21T10:22:15Z</time></trkpt><trkpt lat="37.70539365612676" lon="-3.0309898320654862"><ele>594.5</ele><time>2026-04-21T10:22:16Z</time></trkpt><trkpt lat="37.70552261075969" lon="-3.0307306084172323"><ele>595.0</ele><time>2026-04-21T10:22:17Z</time></trkpt><trkpt lat="37.70564313549595" lon="-3.03049068889129"><ele>595.0</ele><time>2026-04-21T10:22:18Z</time></trkpt><trkpt lat="37.70575721781292" lon="-3.0302515036180733"><ele>595.0</ele><time>2026-04-21T10:22:19Z</time></trkpt><trkpt lat="37.70586688790493" lon="-3.0300214181482934"><ele>595.0</ele><time>2026-04-21T10:22:20Z</time></trkpt><trkpt lat="37.70596545302274" lon="-3.0297804130756214"><ele>592.3333333333334</ele><time>2026-04-21T10:22:21Z</time></trkpt><trkpt lat="37.70603668787592" lon="-3.0295237538192015"><ele>589.6666666666666</ele><time>2026-04-21T10:22:22Z</time></trkpt><trkpt lat="37.70608208281454" lon="-3.0292516427271896"><ele>587.0</ele><time>2026-04-21T10:22:23Z</time></trkpt><trkpt lat="37.706092746192645" lon="-3.0289696283679217"><ele>592.0</ele><time>2026-04-21T10:22:24Z</time></trkpt><trkpt lat="37.70607733560005" lon="-3.0286803847546335"><ele>597.0</ele><time>2026-04-21T10:22:25Z</time></trkpt><trkpt lat="37.70603802176143" lon="-3.028382643666345"><ele>599.0</ele><time>2026-04-21T10:22:26Z</time></trkpt><trkpt lat="37.705979426866946" lon="-3.0280801738384877"><ele>601.0</ele><time>2026-04-21T10:22:27Z</time></trkpt><trkpt lat="37.70591929470497" lon="-3.0277680252847015"><ele>596.5</ele><time>2026-04-21T10:22:28Z</time></trkpt><trkpt lat="37.70586511289371" lon="-3.027473551620637"><ele>592.0</ele><time>2026-04-21T10:22:29Z</time></trkpt><trkpt lat="37.70580956871639" lon="-3.027183646741819"><ele>592.0</ele><time>2026-04-21T10:22:30Z</time></trkpt><trkpt lat="37.705755441006694" lon="-3.0269011280168328"><ele>592.0</ele><time>2026-04-21T10:22:31Z</time></trkpt><trkpt lat="37.705702756414006" lon="-3.026621258038346"><ele>592.3333333333334</ele><time>2026-04-21T10:22:32Z</time></trkpt><trkpt lat="37.705650894172116" lon="-3.0263446825982996"><ele>592.6666666666666</ele><time>2026-04-21T10:22:33Z</time></trkpt><trkpt lat="37.70559939499127" lon="-3.026070585292733"><ele>593.0</ele><time>2026-04-21T10:22:34Z</time></trkpt><trkpt lat="37.70554622544292" lon="-3.0258060418774955"><ele>593.0</ele><time>2026-04-21T10:22:35Z</time></trkpt><trkpt lat="37.70549480460919" lon="-3.0255459968363407"><ele>593.0</ele><time>2026-04-21T10:22:36Z</time></trkpt><trkpt lat="37.70544460991588" lon="-3.0252904900138793"><ele>593.0</ele><time>2026-04-21T10:22:37Z</time></trkpt><trkpt lat="37.70538953544363" lon="-3.025035016606351"><ele>594.0</ele><time>2026-04-21T10:22:38Z</time></trkpt><trkpt lat="37.7053179073359" lon="-3.0247876134760334"><ele>595.0</ele><time>2026-04-21T10:22:39Z</time></trkpt><trkpt lat="37.705218452601045" lon="-3.024554307871112"><ele>596.0</ele><time>2026-04-21T10:22:40Z</time></trkpt><trkpt lat="37.70509851144813" lon="-3.0243229387069657"><ele>602.5</ele><time>2026-04-21T10:22:41Z</time></trkpt><trkpt lat="37.70495139873608" lon="-3.024103378550872"><ele>609.0</ele><time>2026-04-21T10:22:42Z</time></trkpt><trkpt lat="37.704788371190936" lon="-3.023898817163165"><ele>609.0</ele><time>2026-04-21T10:22:43Z</time></trkpt><trkpt lat="37.70461214804416" lon="-3.023716022294526"><ele>609.0</ele><time>2026-04-21T10:22:44Z</time></trkpt><trkpt lat="37.70443145659901" lon="-3.023539110399059"><ele>609.0</ele><time>2026-04-21T10:22:45Z</time></trkpt><trkpt lat="37.7042429076281" lon="-3.023368851779507"><ele>609.0</ele><time>2026-04-21T10:22:46Z</time></trkpt><trkpt lat="37.7040512543452" lon="-3.02319498903857"><ele>609.5</ele><time>2026-04-21T10:22:47Z</time></trkpt><trkpt lat="37.70387222749704" lon="-3.0230145814869425"><ele>610.0</ele><time>2026-04-21T10:22:48Z</time></trkpt><trkpt lat="37.70370449062779" lon="-3.0228200309049273"><ele>619.5</ele><time>2026-04-21T10:22:49Z</time></trkpt><trkpt lat="37.70354459763094" lon="-3.022611163748379"><ele>629.0</ele><time>2026-04-21T10:22:50Z</time></trkpt><trkpt lat="37.70339310186479" lon="-3.0223941756569745"><ele>631.0</ele><time>2026-04-21T10:22:51Z</time></trkpt><trkpt lat="37.703256362197855" lon="-3.0221633267194776"><ele>633.0</ele><time>2026-04-21T10:22:52Z</time></trkpt><trkpt lat="37.70312628122605" lon="-3.0219231577036116"><ele>633.0</ele><time>2026-04-21T10:22:53Z</time></trkpt><trkpt lat="37.70301000997717" lon="-3.0216742596150685"><ele>633.0</ele><time>2026-04-21T10:22:54Z</time></trkpt><trkpt lat="37.70290689994188" lon="-3.0214173981880674"><ele>630.5</ele><time>2026-04-21T10:22:55Z</time></trkpt><trkpt lat="37.70281146783509" lon="-3.021153700918534"><ele>628.0</ele><time>2026-04-21T10:22:56Z</time></trkpt><trkpt lat="37.70271266550686" lon="-3.020890992665106"><ele>635.5</ele><time>2026-04-21T10:22:57Z</time></trkpt><trkpt lat="37.702607952086765" lon="-3.0206318700173793"><ele>643.0</ele><time>2026-04-21T10:22:58Z</time></trkpt><trkpt lat="37.702501505322324" lon="-3.020376703197623"><ele>643.0</ele><time>2026-04-21T10:22:59Z</time></trkpt><trkpt lat="37.70240012442498" lon="-3.0201278771461144"><ele>643.0</ele><time>2026-04-21T10:23:00Z</time></trkpt><trkpt lat="37.70229706343446" lon="-3.0198751245330717"><ele>643.0</ele><time>2026-04-21T10:23:01Z</time></trkpt><trkpt lat="37.70220534248049" lon="-3.0196220112078374"><ele>644.3333333333334</ele><time>2026-04-21T10:23:02Z</time></trkpt><trkpt lat="37.70211961966373" lon="-3.019363722653913"><ele>645.6666666666666</ele><time>2026-04-21T10:23:03Z</time></trkpt><trkpt lat="37.702050911961905" lon="-3.0190975607875687"><ele>647.0</ele><time>2026-04-21T10:23:04Z</time></trkpt><trkpt lat="37.701998252751885" lon="-3.0188305978823826"><ele>647.0</ele><time>2026-04-21T10:23:05Z</time></trkpt><trkpt lat="37.70197274909965" lon="-3.0185571861505736"><ele>647.0</ele><time>2026-04-21T10:23:06Z</time></trkpt><trkpt lat="37.70196549735392" lon="-3.0182765728962218"><ele>647.0</ele><time>2026-04-21T10:23:07Z</time></trkpt><trkpt lat="37.70197853871841" lon="-3.017996951908862"><ele>643.0</ele><time>2026-04-21T10:23:08Z</time></trkpt><trkpt lat="37.70201304303171" lon="-3.0177162594743114"><ele>639.0</ele><time>2026-04-21T10:23:08.999Z</time></trkpt><trkpt lat="37.702069314792276" lon="-3.0174366642107553"><ele>638.5</ele><time>2026-04-21T10:23:09.999Z</time></trkpt><trkpt lat="37.70215315496063" lon="-3.017166042112462"><ele>638.0</ele><time>2026-04-21T10:23:10.999Z</time></trkpt><trkpt lat="37.70224639123453" lon="-3.016898307997162"><ele>643.0</ele><time>2026-04-21T10:23:11.999Z</time></trkpt><trkpt lat="37.70235471906024" lon="-3.01664358080227"><ele>648.0</ele><time>2026-04-21T10:23:12.999Z</time></trkpt><trkpt lat="37.70248264260036" lon="-3.016403483280102"><ele>648.0</ele><time>2026-04-21T10:23:13.999Z</time></trkpt><trkpt lat="37.70262591855876" lon="-3.0161818874507915"><ele>648.0</ele><time>2026-04-21T10:23:14.999Z</time></trkpt><trkpt lat="37.70278459853563" lon="-3.015980361924508"><ele>651.0</ele><time>2026-04-21T10:23:15.999Z</time></trkpt><trkpt lat="37.7029577633716" lon="-3.015800984933058"><ele>654.0</ele><time>2026-04-21T10:23:16.999Z</time></trkpt><trkpt lat="37.70314507128415" lon="-3.015633101321705"><ele>654.0</ele><time>2026-04-21T10:23:17.999Z</time></trkpt><trkpt lat="37.70334428467209" lon="-3.0154949116395695"><ele>654.0</ele><time>2026-04-21T10:23:18.999Z</time></trkpt><trkpt lat="37.703553547601146" lon="-3.015371072141472"><ele>652.0</ele><time>2026-04-21T10:23:19.999Z</time></trkpt><trkpt lat="37.70377146389724" lon="-3.0152695889090646"><ele>650.0</ele><time>2026-04-21T10:23:20.999Z</time></trkpt><trkpt lat="37.70398584247158" lon="-3.01517905041493"><ele>650.0</ele><time>2026-04-21T10:23:21.999Z</time></trkpt><trkpt lat="37.70420001344636" lon="-3.0150902771538375"><ele>650.0</ele><time>2026-04-21T10:23:22.999Z</time></trkpt><trkpt lat="37.70440836087931" lon="-3.0149989869069906"><ele>650.0</ele><time>2026-04-21T10:23:23.999Z</time></trkpt><trkpt lat="37.704617931732926" lon="-3.014904977108794"><ele>657.3333333333333</ele><time>2026-04-21T10:23:24.999Z</time></trkpt><trkpt lat="37.70482565824745" lon="-3.0148111864109413"><ele>664.6666666666666</ele><time>2026-04-21T10:23:25.999Z</time></trkpt><trkpt lat="37.705030432635844" lon="-3.014718804749636"><ele>672.0</ele><time>2026-04-21T10:23:26.999Z</time></trkpt><trkpt lat="37.705233997258155" lon="-3.0146253984758515"><ele>673.0</ele><time>2026-04-21T10:23:27.999Z</time></trkpt><trkpt lat="37.705433048986855" lon="-3.0145334731741933"><ele>674.0</ele><time>2026-04-21T10:23:28.999Z</time></trkpt><trkpt lat="37.705635418497735" lon="-3.0144368346229724"><ele>675.0</ele><time>2026-04-21T10:23:29.999Z</time></trkpt><trkpt lat="37.70583489600444" lon="-3.01434604652459"><ele>675.0</ele><time>2026-04-21T10:23:30.999Z</time></trkpt><trkpt lat="37.70603595099516" lon="-3.014253393108669"><ele>675.0</ele><time>2026-04-21T10:23:31.999Z</time></trkpt><trkpt lat="37.706232578918915" lon="-3.014157942117413"><ele>675.0</ele><time>2026-04-21T10:23:32.999Z</time></trkpt><trkpt lat="37.706424279779014" lon="-3.0140573922822074"><ele>680.3333333333334</ele><time>2026-04-21T10:23:33.999Z</time></trkpt><trkpt lat="37.70661904302691" lon="-3.0139366995980144"><ele>685.6666666666667</ele><time>2026-04-21T10:23:34.999Z</time></trkpt><trkpt lat="37.7068059663321" lon="-3.013784260921356"><ele>691.0</ele><time>2026-04-21T10:23:35.999Z</time></trkpt><trkpt lat="37.7069703502509" lon="-3.013595951184589"><ele>692.5</ele><time>2026-04-21T10:23:36.999Z</time></trkpt><trkpt lat="37.707113948674625" lon="-3.013380824768236"><ele>694.0</ele><time>2026-04-21T10:23:37.999Z</time></trkpt><trkpt lat="37.70724553746772" lon="-3.0131456315580922"><ele>695.3333333333334</ele><time>2026-04-21T10:23:38.999Z</time></trkpt><trkpt lat="37.70735071827554" lon="-3.012895884969847"><ele>696.6666666666666</ele><time>2026-04-21T10:23:39.999Z</time></trkpt><trkpt lat="37.707430939792545" lon="-3.0126338284603547"><ele>698.0</ele><time>2026-04-21T10:23:40.999Z</time></trkpt><trkpt lat="37.707477690574876" lon="-3.0123510099961046"><ele>703.5</ele><time>2026-04-21T10:23:41.999Z</time></trkpt><trkpt lat="37.70750277460802" lon="-3.0120606181600893"><ele>709.0</ele><time>2026-04-21T10:23:42.999Z</time></trkpt><trkpt lat="37.70749579400884" lon="-3.0117622831003663"><ele>714.5</ele><time>2026-04-21T10:23:43.999Z</time></trkpt><trkpt lat="37.707461453401535" lon="-3.0114620568484574"><ele>720.0</ele><time>2026-04-21T10:23:44.999Z</time></trkpt><trkpt lat="37.707399479153764" lon="-3.011183732597699"><ele>720.0</ele><time>2026-04-21T10:23:45.999Z</time></trkpt><trkpt lat="37.70732221421359" lon="-3.0109239164949066"><ele>720.0</ele><time>2026-04-21T10:23:46.999Z</time></trkpt><trkpt lat="37.707247786266336" lon="-3.0106667837935626"><ele>720.0</ele><time>2026-04-21T10:23:47.999Z</time></trkpt><trkpt lat="37.70718470431719" lon="-3.010401938316602"><ele>719.0</ele><time>2026-04-21T10:23:48.999Z</time></trkpt><trkpt lat="37.70713053784602" lon="-3.0101318793761425"><ele>718.0</ele><time>2026-04-21T10:23:49.999Z</time></trkpt><trkpt lat="37.70709404857588" lon="-3.0098536229363355"><ele>717.0</ele><time>2026-04-21T10:23:50.999Z</time></trkpt><trkpt lat="37.70708004456426" lon="-3.009574309355477"><ele>717.0</ele><time>2026-04-21T10:23:51.999Z</time></trkpt><trkpt lat="37.707090318450916" lon="-3.0092998155005866"><ele>717.0</ele><time>2026-04-21T10:23:52.999Z</time></trkpt><trkpt lat="37.70711962426205" lon="-3.009012825788761"><ele>717.0</ele><time>2026-04-21T10:23:53.999Z</time></trkpt><trkpt lat="37.7071747911402" lon="-3.008734565801177"><ele>714.0</ele><time>2026-04-21T10:23:54.999Z</time></trkpt><trkpt lat="37.707242410159694" lon="-3.0084548771542496"><ele>711.0</ele><time>2026-04-21T10:23:55.999Z</time></trkpt><trkpt lat="37.70733828432811" lon="-3.008186895968192"><ele>704.5</ele><time>2026-04-21T10:23:56.999Z</time></trkpt><trkpt lat="37.707452788023495" lon="-3.0079280485287407"><ele>698.0</ele><time>2026-04-21T10:23:57.999Z</time></trkpt><trkpt lat="37.70758298106693" lon="-3.0076722010965184"><ele>696.6666666666666</ele><time>2026-04-21T10:23:58.999Z</time></trkpt><trkpt lat="37.70770837723314" lon="-3.0074330741110105"><ele>695.3333333333334</ele><time>2026-04-21T10:23:59.999Z</time></trkpt><trkpt lat="37.707820056437896" lon="-3.007199643651387"><ele>694.0</ele><time>2026-04-21T10:24:00.999Z</time></trkpt><trkpt lat="37.707922552333486" lon="-3.0069645095147246"><ele>694.0</ele><time>2026-04-21T10:24:01.999Z</time></trkpt><trkpt lat="37.70802002717843" lon="-3.0067261141339423"><ele>694.0</ele><time>2026-04-21T10:24:02.999Z</time></trkpt><trkpt lat="37.70809943032856" lon="-3.0064809398658747"><ele>694.0</ele><time>2026-04-21T10:24:03.999Z</time></trkpt><trkpt lat="37.70817434020054" lon="-3.0062401126316494"><ele>692.0</ele><time>2026-04-21T10:24:04.999Z</time></trkpt><trkpt lat="37.70824423426721" lon="-3.0059920890574285"><ele>690.0</ele><time>2026-04-21T10:24:05.999Z</time></trkpt><trkpt lat="37.708309353930076" lon="-3.005726550757615"><ele>688.0</ele><time>2026-04-21T10:24:06.999Z</time></trkpt><trkpt lat="37.708364235947734" lon="-3.005448803640937"><ele>681.5</ele><time>2026-04-21T10:24:07.999Z</time></trkpt><trkpt lat="37.708408570384115" lon="-3.005156963772308"><ele>675.0</ele><time>2026-04-21T10:24:08.999Z</time></trkpt><trkpt lat="37.70844851805482" lon="-3.0048632844161616"><ele>675.0</ele><time>2026-04-21T10:24:09.999Z</time></trkpt><trkpt lat="37.70848484733557" lon="-3.004557123657972"><ele>675.0</ele><time>2026-04-21T10:24:10.999Z</time></trkpt><trkpt lat="37.70851914034778" lon="-3.0042498249177316"><ele>677.0</ele><time>2026-04-21T10:24:11.999Z</time></trkpt><trkpt lat="37.70855506449943" lon="-3.003957842589356"><ele>679.0</ele><time>2026-04-21T10:24:12.999Z</time></trkpt><trkpt lat="37.70858910795078" lon="-3.0036767879422164"><ele>682.6666666666667</ele><time>2026-04-21T10:24:13.999Z</time></trkpt><trkpt lat="37.708622301568695" lon="-3.003397606816167"><ele>686.3333333333334</ele><time>2026-04-21T10:24:15Z</time></trkpt><trkpt lat="37.70865253327117" lon="-3.0031222763290657"><ele>690.0</ele><time>2026-04-21T10:24:16Z</time></trkpt><trkpt lat="37.70868460437129" lon="-3.0028599574992993"><ele>690.0</ele><time>2026-04-21T10:24:17Z</time></trkpt><trkpt lat="37.70871979303246" lon="-3.0025893910887924"><ele>690.0</ele><time>2026-04-21T10:24:18Z</time></trkpt><trkpt lat="37.70876311305615" lon="-3.002319376699793"><ele>690.0</ele><time>2026-04-21T10:24:19Z</time></trkpt><trkpt lat="37.70882002283374" lon="-3.00205655916989"><ele>688.6666666666666</ele><time>2026-04-21T10:24:20Z</time></trkpt><trkpt lat="37.70888706954472" lon="-3.001785725454944"><ele>687.3333333333333</ele><time>2026-04-21T10:24:21Z</time></trkpt><trkpt lat="37.70896408428245" lon="-3.001519738203072"><ele>686.0</ele><time>2026-04-21T10:24:22Z</time></trkpt><trkpt lat="37.70904982830194" lon="-3.0012574729951313"><ele>685.5</ele><time>2026-04-21T10:24:23Z</time></trkpt><trkpt lat="37.70914522885538" lon="-3.000995447377539"><ele>685.0</ele><time>2026-04-21T10:24:24Z</time></trkpt><trkpt lat="37.70924647701386" lon="-3.00072975328846"><ele>686.5</ele><time>2026-04-21T10:24:25Z</time></trkpt><trkpt lat="37.70934423546774" lon="-3.0004651927469745"><ele>688.0</ele><time>2026-04-21T10:24:26Z</time></trkpt><trkpt lat="37.70944383778609" lon="-3.0001990954894446"><ele>688.0</ele><time>2026-04-21T10:24:27Z</time></trkpt><trkpt lat="37.70954521085614" lon="-2.999944061245352"><ele>688.0</ele><time>2026-04-21T10:24:28Z</time></trkpt><trkpt lat="37.709637838023575" lon="-2.999695477099842"><ele>688.0</ele><time>2026-04-21T10:24:29Z</time></trkpt><trkpt lat="37.7097290355539" lon="-2.9994528724658616"><ele>688.0</ele><time>2026-04-21T10:24:30Z</time></trkpt><trkpt lat="37.70981630873638" lon="-2.9992069663962573"><ele>688.0</ele><time>2026-04-21T10:24:31Z</time></trkpt><trkpt lat="37.70989581554792" lon="-2.998972295425021"><ele>688.0</ele><time>2026-04-21T10:24:32Z</time></trkpt><trkpt lat="37.7099728003451" lon="-2.9987486295062697"><ele>687.0</ele><time>2026-04-21T10:24:33Z</time></trkpt><trkpt lat="37.7100494998861" lon="-2.9985093880933613"><ele>686.0</ele><time>2026-04-21T10:24:34Z</time></trkpt><trkpt lat="37.71012590428498" lon="-2.9982676639620136"><ele>685.0</ele><time>2026-04-21T10:24:35Z</time></trkpt><trkpt lat="37.71020570429386" lon="-2.998022693798676"><ele>684.6666666666667</ele><time>2026-04-21T10:24:36Z</time></trkpt><trkpt lat="37.7102884256232" lon="-2.997777872523791"><ele>684.3333333333334</ele><time>2026-04-21T10:24:37Z</time></trkpt><trkpt lat="37.71036686512362" lon="-2.997535385576422"><ele>684.0</ele><time>2026-04-21T10:24:38Z</time></trkpt><trkpt lat="37.71044498762198" lon="-2.997279881923274"><ele>684.0</ele><time>2026-04-21T10:24:39Z</time></trkpt><trkpt lat="37.71051974841045" lon="-2.9970199164999602"><ele>684.0</ele><time>2026-04-21T10:24:40Z</time></trkpt><trkpt lat="37.7105904996103" lon="-2.9967578365836323"><ele>684.0</ele><time>2026-04-21T10:24:41Z</time></trkpt><trkpt lat="37.710657747675626" lon="-2.9964814446089885"><ele>691.0</ele><time>2026-04-21T10:24:42Z</time></trkpt><trkpt lat="37.710729389352004" lon="-2.9962062651616512"><ele>698.0</ele><time>2026-04-21T10:24:43Z</time></trkpt><trkpt lat="37.71079855595847" lon="-2.995919476128584"><ele>700.0</ele><time>2026-04-21T10:24:44Z</time></trkpt><trkpt lat="37.710864404377155" lon="-2.9956344661985534"><ele>702.0</ele><time>2026-04-21T10:24:45Z</time></trkpt><trkpt lat="37.71092593027477" lon="-2.9953441433273675"><ele>702.0</ele><time>2026-04-21T10:24:46Z</time></trkpt><trkpt lat="37.71098343660089" lon="-2.9950491487899376"><ele>702.0</ele><time>2026-04-21T10:24:47Z</time></trkpt><trkpt lat="37.711036948709534" lon="-2.9947585696907906"><ele>703.0</ele><time>2026-04-21T10:24:48Z</time></trkpt><trkpt lat="37.71108069048014" lon="-2.9944623726087176"><ele>704.0</ele><time>2026-04-21T10:24:49Z</time></trkpt><trkpt lat="37.7111223401087" lon="-2.9941630507734898"><ele>717.0</ele><time>2026-04-21T10:24:50Z</time></trkpt><trkpt lat="37.71115629367517" lon="-2.9938671737043467"><ele>730.0</ele><time>2026-04-21T10:24:51Z</time></trkpt><trkpt lat="37.71117983126419" lon="-2.9935717515743243"><ele>737.0</ele><time>2026-04-21T10:24:52Z</time></trkpt><trkpt lat="37.71118609862356" lon="-2.993280781966934"><ele>744.0</ele><time>2026-04-21T10:24:53Z</time></trkpt><trkpt lat="37.71117736682132" lon="-2.993001012749503"><ele>744.0</ele><time>2026-04-21T10:24:54Z</time></trkpt><trkpt lat="37.71116058021209" lon="-2.9927265842802497"><ele>744.0</ele><time>2026-04-21T10:24:55Z</time></trkpt><trkpt lat="37.71113001193547" lon="-2.992454985313463"><ele>744.0</ele><time>2026-04-21T10:24:56Z</time></trkpt><trkpt lat="37.71109960569582" lon="-2.9921908093214102"><ele>744.0</ele><time>2026-04-21T10:24:57Z</time></trkpt><trkpt lat="37.71107520914364" lon="-2.991918756438911"><ele>744.0</ele><time>2026-04-21T10:24:58Z</time></trkpt><trkpt lat="37.71105906241407" lon="-2.9916479332754653"><ele>744.0</ele><time>2026-04-21T10:24:59Z</time></trkpt><trkpt lat="37.71105538984099" lon="-2.991373107468202"><ele>744.0</ele><time>2026-04-21T10:25:00Z</time></trkpt><trkpt lat="37.71106608735571" lon="-2.9910849950526157"><ele>744.0</ele><time>2026-04-21T10:25:01Z</time></trkpt><trkpt lat="37.711089684660095" lon="-2.9908028679398764"><ele>743.0</ele><time>2026-04-21T10:25:02Z</time></trkpt><trkpt lat="37.71112945775157" lon="-2.9905172915780875"><ele>742.0</ele><time>2026-04-21T10:25:03Z</time></trkpt><trkpt lat="37.711173508571754" lon="-2.9902355280733226"><ele>748.5</ele><time>2026-04-21T10:25:04Z</time></trkpt><trkpt lat="37.71123982226242" lon="-2.9899591268459567"><ele>755.0</ele><time>2026-04-21T10:25:05Z</time></trkpt><trkpt lat="37.71131784542547" lon="-2.9896881686401566"><ele>755.0</ele><time>2026-04-21T10:25:06Z</time></trkpt><trkpt lat="37.71141201342812" lon="-2.989420816060353"><ele>755.0</ele><time>2026-04-21T10:25:07Z</time></trkpt><trkpt lat="37.71151639933718" lon="-2.9891611682470174"><ele>758.3333333333333</ele><time>2026-04-21T10:25:08Z</time></trkpt><trkpt lat="37.711623267009585" lon="-2.9889152194697735"><ele>761.6666666666666</ele><time>2026-04-21T10:25:09Z</time></trkpt><trkpt lat="37.71172813606847" lon="-2.988662342508246"><ele>765.0</ele><time>2026-04-21T10:25:10Z</time></trkpt><trkpt lat="37.71183250710699" lon="-2.9884142579078734"><ele>765.0</ele><time>2026-04-21T10:25:11Z</time></trkpt><trkpt lat="37.71194351397974" lon="-2.9881691068106964"><ele>765.0</ele><time>2026-04-21T10:25:12Z</time></trkpt><trkpt lat="37.71205406787281" lon="-2.9879343439238006"><ele>765.0</ele><time>2026-04-21T10:25:13Z</time></trkpt><trkpt lat="37.7121627258668" lon="-2.987693647936871"><ele>765.6666666666666</ele><time>2026-04-21T10:25:14Z</time></trkpt><trkpt lat="37.712269298329694" lon="-2.9874608671200034"><ele>766.3333333333333</ele><time>2026-04-21T10:25:15Z</time></trkpt><trkpt lat="37.71237459470256" lon="-2.987220161944837"><ele>767.0</ele><time>2026-04-21T10:25:16Z</time></trkpt><trkpt lat="37.71247980184524" lon="-2.9869829196637396"><ele>767.0</ele><time>2026-04-21T10:25:17Z</time></trkpt><trkpt lat="37.71258286502805" lon="-2.9867513736916296"><ele>767.0</ele><time>2026-04-21T10:25:18Z</time></trkpt><trkpt lat="37.71268795690407" lon="-2.9865146430642544"><ele>767.0</ele><time>2026-04-21T10:25:19Z</time></trkpt><trkpt lat="37.7127946074362" lon="-2.986276262432917"><ele>767.3333333333333</ele><time>2026-04-21T10:25:20Z</time></trkpt><trkpt lat="37.71290236823924" lon="-2.9860324547608417"><ele>767.6666666666666</ele><time>2026-04-21T10:25:21Z</time></trkpt><trkpt lat="37.71301406179704" lon="-2.9857839522973553"><ele>768.0</ele><time>2026-04-21T10:25:22Z</time></trkpt><trkpt lat="37.713124340793186" lon="-2.9855342716286524"><ele>769.0</ele><time>2026-04-21T10:25:23Z</time></trkpt><trkpt lat="37.713236454750174" lon="-2.9852790733047923"><ele>770.0</ele><time>2026-04-21T10:25:24Z</time></trkpt><trkpt lat="37.713342623855304" lon="-2.9850257150702446"><ele>770.5</ele><time>2026-04-21T10:25:25Z</time></trkpt><trkpt lat="37.713458666385804" lon="-2.9847814976388722"><ele>771.0</ele><time>2026-04-21T10:25:25.999Z</time></trkpt><trkpt lat="37.713574113812726" lon="-2.984535519964329"><ele>773.0</ele><time>2026-04-21T10:25:26.999Z</time></trkpt><trkpt lat="37.713906079063314" lon="-2.9838123342658305"><ele>773.0</ele><time>2026-04-21T10:25:29.999Z</time></trkpt><trkpt lat="37.71401071774382" lon="-2.983573072480572"><ele>773.0</ele><time>2026-04-21T10:25:30.999Z</time></trkpt><trkpt lat="37.71411077780661" lon="-2.983335575542408"><ele>773.0</ele><time>2026-04-21T10:25:31.999Z</time></trkpt><trkpt lat="37.71421717207146" lon="-2.983100165460624"><ele>772.3333333333334</ele><time>2026-04-21T10:25:32.999Z</time></trkpt><trkpt lat="37.71432710650348" lon="-2.982870300367003"><ele>771.6666666666667</ele><time>2026-04-21T10:25:33.999Z</time></trkpt><trkpt lat="37.71443392611884" lon="-2.9826354344809576"><ele>771.0</ele><time>2026-04-21T10:25:34.999Z</time></trkpt><trkpt lat="37.71454281912284" lon="-2.982395185360543"><ele>773.3333333333333</ele><time>2026-04-21T10:25:35.999Z</time></trkpt><trkpt lat="37.71464680506313" lon="-2.982161902263294"><ele>775.6666666666666</ele><time>2026-04-21T10:25:36.999Z</time></trkpt><trkpt lat="37.714751356136595" lon="-2.981926854578696"><ele>778.0</ele><time>2026-04-21T10:25:37.999Z</time></trkpt><trkpt lat="37.714857769355824" lon="-2.9816908196539678"><ele>778.3333333333333</ele><time>2026-04-21T10:25:38.999Z</time></trkpt><trkpt lat="37.71496390392562" lon="-2.9814567006846806"><ele>778.6666666666667</ele><time>2026-04-21T10:25:39.999Z</time></trkpt><trkpt lat="37.71507188595981" lon="-2.9812193957070363"><ele>779.0</ele><time>2026-04-21T10:25:40.999Z</time></trkpt><trkpt lat="37.715177666957786" lon="-2.980981148727086"><ele>777.3333333333334</ele><time>2026-04-21T10:25:41.999Z</time></trkpt><trkpt lat="37.71528156424191" lon="-2.980737936947307"><ele>775.6666666666667</ele><time>2026-04-21T10:25:42.999Z</time></trkpt><trkpt lat="37.7153804126578" lon="-2.980490412300351"><ele>774.0</ele><time>2026-04-21T10:25:43.999Z</time></trkpt><trkpt lat="37.715470783051124" lon="-2.980238054229182"><ele>774.6666666666667</ele><time>2026-04-21T10:25:44.999Z</time></trkpt><trkpt lat="37.715561136596854" lon="-2.9799816597197872"><ele>775.3333333333334</ele><time>2026-04-21T10:25:45.999Z</time></trkpt><trkpt lat="37.71564422010493" lon="-2.979723313432286"><ele>776.0</ele><time>2026-04-21T10:25:46.999Z</time></trkpt><trkpt lat="37.71572392096264" lon="-2.979463661315439"><ele>776.0</ele><time>2026-04-21T10:25:47.999Z</time></trkpt><trkpt lat="37.715801576550334" lon="-2.9791988473954762"><ele>776.0</ele><time>2026-04-21T10:25:48.999Z</time></trkpt><trkpt lat="37.71587630042641" lon="-2.978928223672032"><ele>777.5</ele><time>2026-04-21T10:25:49.999Z</time></trkpt><trkpt lat="37.71594386971463" lon="-2.9786539799854017"><ele>779.0</ele><time>2026-04-21T10:25:50.999Z</time></trkpt><trkpt lat="37.71600572404293" lon="-2.9783714592350754"><ele>779.5</ele><time>2026-04-21T10:25:51.999Z</time></trkpt><trkpt lat="37.7160640341582" lon="-2.978085485109393"><ele>780.0</ele><time>2026-04-21T10:25:52.999Z</time></trkpt><trkpt lat="37.716114095485764" lon="-2.9777986916727897"><ele>773.5</ele><time>2026-04-21T10:25:53.999Z</time></trkpt><trkpt lat="37.716161403485955" lon="-2.9775057151006363"><ele>767.0</ele><time>2026-04-21T10:25:54.999Z</time></trkpt><trkpt lat="37.71620155304584" lon="-2.9772112762585983"><ele>767.0</ele><time>2026-04-21T10:25:55.999Z</time></trkpt><trkpt lat="37.7162327216151" lon="-2.9769203172756327"><ele>767.0</ele><time>2026-04-21T10:25:56.999Z</time></trkpt><trkpt lat="37.71625923490568" lon="-2.9766305895320726"><ele>767.5</ele><time>2026-04-21T10:25:57.999Z</time></trkpt><trkpt lat="37.716285809303514" lon="-2.9763395402163133"><ele>768.0</ele><time>2026-04-21T10:25:58.999Z</time></trkpt><trkpt lat="37.71631111352032" lon="-2.976050150409024"><ele>770.5</ele><time>2026-04-21T10:25:59.999Z</time></trkpt><trkpt lat="37.716335886697124" lon="-2.9757595066444162"><ele>773.0</ele><time>2026-04-21T10:26:00.999Z</time></trkpt><trkpt lat="37.716360207316654" lon="-2.9754753786576558"><ele>773.0</ele><time>2026-04-21T10:26:01.999Z</time></trkpt><trkpt lat="37.716384856195155" lon="-2.9751890613422556"><ele>773.0</ele><time>2026-04-21T10:26:02.999Z</time></trkpt><trkpt lat="37.716411272014355" lon="-2.974899613649294"><ele>774.0</ele><time>2026-04-21T10:26:03.999Z</time></trkpt><trkpt lat="37.71643544306133" lon="-2.9746107083257822"><ele>775.0</ele><time>2026-04-21T10:26:04.999Z</time></trkpt><trkpt lat="37.71645887977329" lon="-2.97432640744814"><ele>777.0</ele><time>2026-04-21T10:26:05.999Z</time></trkpt><trkpt lat="37.71648235204507" lon="-2.974038176827038"><ele>779.0</ele><time>2026-04-21T10:26:06.999Z</time></trkpt><trkpt lat="37.716504811967404" lon="-2.973757721744842"><ele>779.0</ele><time>2026-04-21T10:26:07.999Z</time></trkpt><trkpt lat="37.716526230731674" lon="-2.973477342027269"><ele>779.0</ele><time>2026-04-21T10:26:08.999Z</time></trkpt><trkpt lat="37.716543266538004" lon="-2.9731969659332713"><ele>779.0</ele><time>2026-04-21T10:26:09.999Z</time></trkpt><trkpt lat="37.716564355722504" lon="-2.9729111070048977"><ele>779.3333333333334</ele><time>2026-04-21T10:26:10.999Z</time></trkpt><trkpt lat="37.71658355893733" lon="-2.972635736924694"><ele>779.6666666666667</ele><time>2026-04-21T10:26:11.999Z</time></trkpt><trkpt lat="37.716607347900585" lon="-2.9723587200073944"><ele>780.0</ele><time>2026-04-21T10:26:12.999Z</time></trkpt><trkpt lat="37.71663123026444" lon="-2.972081580648765"><ele>779.3333333333333</ele><time>2026-04-21T10:26:13.999Z</time></trkpt><trkpt lat="37.716655011504656" lon="-2.9718055228817786"><ele>778.6666666666666</ele><time>2026-04-21T10:26:14.999Z</time></trkpt><trkpt lat="37.71668033803207" lon="-2.9715338832102987"><ele>778.0</ele><time>2026-04-21T10:26:15.999Z</time></trkpt><trkpt lat="37.716701789118524" lon="-2.971258700410982"><ele>779.3333333333333</ele><time>2026-04-21T10:26:16.999Z</time></trkpt><trkpt lat="37.71671999100721" lon="-2.970982605246167"><ele>780.6666666666667</ele><time>2026-04-21T10:26:17.999Z</time></trkpt><trkpt lat="37.71672898631059" lon="-2.9707155253222615"><ele>782.0</ele><time>2026-04-21T10:26:18.999Z</time></trkpt><trkpt lat="37.71672682045008" lon="-2.9704432794983586"><ele>783.0</ele><time>2026-04-21T10:26:19.999Z</time></trkpt><trkpt lat="37.71670638247685" lon="-2.9701743300622256"><ele>784.0</ele><time>2026-04-21T10:26:20.999Z</time></trkpt><trkpt lat="37.71666651653114" lon="-2.9699027541710006"><ele>785.0</ele><time>2026-04-21T10:26:21.999Z</time></trkpt><trkpt lat="37.71661414458791" lon="-2.969632275813754"><ele>785.0</ele><time>2026-04-21T10:26:22.999Z</time></trkpt><trkpt lat="37.71654665243099" lon="-2.9693741046815747"><ele>785.0</ele><time>2026-04-21T10:26:24Z</time></trkpt><trkpt lat="37.71647360188012" lon="-2.9691141868221007"><ele>785.0</ele><time>2026-04-21T10:26:25Z</time></trkpt><trkpt lat="37.71639957680943" lon="-2.968854013806357"><ele>785.6666666666667</ele><time>2026-04-21T10:26:26Z</time></trkpt><trkpt lat="37.71632550095457" lon="-2.9685851832014105"><ele>786.3333333333333</ele><time>2026-04-21T10:26:27Z</time></trkpt><trkpt lat="37.71625031477538" lon="-2.968321127167172"><ele>787.0</ele><time>2026-04-21T10:26:28Z</time></trkpt><trkpt lat="37.71617317279184" lon="-2.968048220981734"><ele>787.0</ele><time>2026-04-21T10:26:29Z</time></trkpt><trkpt lat="37.716096050613494" lon="-2.9677767628201592"><ele>787.0</ele><time>2026-04-21T10:26:30Z</time></trkpt><trkpt lat="37.7160154072033" lon="-2.9675018771256196"><ele>787.5</ele><time>2026-04-21T10:26:31Z</time></trkpt><trkpt lat="37.71592861542159" lon="-2.9672328917577926"><ele>788.0</ele><time>2026-04-21T10:26:32Z</time></trkpt><trkpt lat="37.71584451391307" lon="-2.9669600060089483"><ele>789.0</ele><time>2026-04-21T10:26:33Z</time></trkpt><trkpt lat="37.71576154508293" lon="-2.9666877285561486"><ele>790.0</ele><time>2026-04-21T10:26:34Z</time></trkpt><trkpt lat="37.71567683076438" lon="-2.9664114371789454"><ele>790.0</ele><time>2026-04-21T10:26:35Z</time></trkpt><trkpt lat="37.71559448741176" lon="-2.966137187089566"><ele>790.0</ele><time>2026-04-21T10:26:36Z</time></trkpt><trkpt lat="37.71550676483289" lon="-2.9658608270389673"><ele>791.5</ele><time>2026-04-21T10:26:37Z</time></trkpt><trkpt lat="37.71542031554023" lon="-2.9655823915541752"><ele>793.0</ele><time>2026-04-21T10:26:38Z</time></trkpt><trkpt lat="37.715334937111976" lon="-2.965305139074538"><ele>792.5</ele><time>2026-04-21T10:26:39Z</time></trkpt><trkpt lat="37.715247074443575" lon="-2.9650227740294817"><ele>792.0</ele><time>2026-04-21T10:26:40Z</time></trkpt><trkpt lat="37.71516481053541" lon="-2.964748000715775"><ele>792.0</ele><time>2026-04-21T10:26:41Z</time></trkpt><trkpt lat="37.71507946152961" lon="-2.9644701975624757"><ele>792.0</ele><time>2026-04-21T10:26:42Z</time></trkpt><trkpt lat="37.714990702925725" lon="-2.964197836058521"><ele>792.5</ele><time>2026-04-21T10:26:43Z</time></trkpt><trkpt lat="37.71490332350109" lon="-2.9639234523423807"><ele>793.0</ele><time>2026-04-21T10:26:44Z</time></trkpt><trkpt lat="37.71481899877403" lon="-2.9636480573047908"><ele>793.0</ele><time>2026-04-21T10:26:45Z</time></trkpt><trkpt lat="37.71473937992893" lon="-2.963377178220389"><ele>793.0</ele><time>2026-04-21T10:26:46Z</time></trkpt><trkpt lat="37.71466037192627" lon="-2.96311267016815"><ele>793.3333333333333</ele><time>2026-04-21T10:26:47Z</time></trkpt><trkpt lat="37.71457749038986" lon="-2.9628504595484046"><ele>793.6666666666667</ele><time>2026-04-21T10:26:48Z</time></trkpt><trkpt lat="37.71449504378412" lon="-2.9625886056708217"><ele>794.0</ele><time>2026-04-21T10:26:49Z</time></trkpt><trkpt lat="37.714412993279815" lon="-2.9623358710316623"><ele>794.3333333333334</ele><time>2026-04-21T10:26:50Z</time></trkpt><trkpt lat="37.71433190998806" lon="-2.9620840905839296"><ele>794.6666666666667</ele><time>2026-04-21T10:26:51Z</time></trkpt><trkpt lat="37.71425063981394" lon="-2.9618256277971073"><ele>795.0</ele><time>2026-04-21T10:26:52Z</time></trkpt><trkpt lat="37.71417156739382" lon="-2.961579853203943"><ele>796.0</ele><time>2026-04-21T10:26:53Z</time></trkpt><trkpt lat="37.714092388866135" lon="-2.961326588770845"><ele>797.0</ele><time>2026-04-21T10:26:54Z</time></trkpt><trkpt lat="37.7140140541002" lon="-2.9610792939310007"><ele>798.0</ele><time>2026-04-21T10:26:55Z</time></trkpt><trkpt lat="37.7139321319468" lon="-2.9608317105695736"><ele>798.6666666666667</ele><time>2026-04-21T10:26:56Z</time></trkpt><trkpt lat="37.71384989957474" lon="-2.9605831074386377"><ele>799.3333333333334</ele><time>2026-04-21T10:26:57Z</time></trkpt><trkpt lat="37.71377294761581" lon="-2.9603331168247236"><ele>800.0</ele><time>2026-04-21T10:26:58Z</time></trkpt><trkpt lat="37.71369533073559" lon="-2.960074792245197"><ele>800.3333333333334</ele><time>2026-04-21T10:26:59Z</time></trkpt><trkpt lat="37.713613937079224" lon="-2.959819335567058"><ele>800.6666666666667</ele><time>2026-04-21T10:27:00Z</time></trkpt><trkpt lat="37.71352892320634" lon="-2.9595616262809146"><ele>801.0</ele><time>2026-04-21T10:27:01Z</time></trkpt><trkpt lat="37.713442270928546" lon="-2.959305062937745"><ele>801.3333333333333</ele><time>2026-04-21T10:27:01.999Z</time></trkpt><trkpt lat="37.71335573570323" lon="-2.959048848123235"><ele>801.6666666666666</ele><time>2026-04-21T10:27:02.999Z</time></trkpt><trkpt lat="37.713268895007694" lon="-2.958787985526074"><ele>802.0</ele><time>2026-04-21T10:27:03.999Z</time></trkpt><trkpt lat="37.71318444486129" lon="-2.9585261870674806"><ele>802.5</ele><time>2026-04-21T10:27:04.999Z</time></trkpt><trkpt lat="37.71310329916562" lon="-2.9582564105251525"><ele>803.0</ele><time>2026-04-21T10:27:05.999Z</time></trkpt><trkpt lat="37.71301832858421" lon="-2.957987683963641"><ele>803.0</ele><time>2026-04-21T10:27:06.999Z</time></trkpt><trkpt lat="37.71293124510406" lon="-2.9577190319155777"><ele>803.0</ele><time>2026-04-21T10:27:07.999Z</time></trkpt><trkpt lat="37.71284242327108" lon="-2.9574482188515425"><ele>802.5</ele><time>2026-04-21T10:27:08.999Z</time></trkpt><trkpt lat="37.71275041007974" lon="-2.9571722245214453"><ele>802.0</ele><time>2026-04-21T10:27:09.999Z</time></trkpt><trkpt lat="37.712653302598355" lon="-2.956902741978403"><ele>804.0</ele><time>2026-04-21T10:27:10.999Z</time></trkpt><trkpt lat="37.712557713093105" lon="-2.9566345914696024"><ele>806.0</ele><time>2026-04-21T10:27:11.999Z</time></trkpt><trkpt lat="37.71246399594238" lon="-2.9563709014697928"><ele>806.0</ele><time>2026-04-21T10:27:12.999Z</time></trkpt><trkpt lat="37.7123706413792" lon="-2.9561169041879003"><ele>806.0</ele><time>2026-04-21T10:27:13.999Z</time></trkpt><trkpt lat="37.71227571094425" lon="-2.955865391112151"><ele>806.0</ele><time>2026-04-21T10:27:14.999Z</time></trkpt><trkpt lat="37.712180636968284" lon="-2.9556142919234594"><ele>805.6666666666667</ele><time>2026-04-21T10:27:15.999Z</time></trkpt><trkpt lat="37.712090276692685" lon="-2.9553635917018988"><ele>805.3333333333333</ele><time>2026-04-21T10:27:16.999Z</time></trkpt><trkpt lat="37.71200374145819" lon="-2.955109561496439"><ele>805.0</ele><time>2026-04-21T10:27:17.999Z</time></trkpt><trkpt lat="37.71191445050913" lon="-2.9548634069071715"><ele>806.0</ele><time>2026-04-21T10:27:18.999Z</time></trkpt><trkpt lat="37.711826308697695" lon="-2.954615583239487"><ele>807.0</ele><time>2026-04-21T10:27:19.999Z</time></trkpt><trkpt lat="37.71173688024675" lon="-2.9543698948712662"><ele>808.0</ele><time>2026-04-21T10:27:20.999Z</time></trkpt><trkpt lat="37.71164930951934" lon="-2.954122908803365"><ele>808.6666666666666</ele><time>2026-04-21T10:27:21.999Z</time></trkpt><trkpt lat="37.71155820180227" lon="-2.9538719633705686"><ele>809.3333333333333</ele><time>2026-04-21T10:27:22.999Z</time></trkpt><trkpt lat="37.71147070527585" lon="-2.953621036449686"><ele>810.0</ele><time>2026-04-21T10:27:23.999Z</time></trkpt><trkpt lat="37.71138400592907" lon="-2.953373692661681"><ele>810.3333333333333</ele><time>2026-04-21T10:27:24.999Z</time></trkpt><trkpt lat="37.7112943876953" lon="-2.9531263406977772"><ele>810.6666666666666</ele><time>2026-04-21T10:27:25.999Z</time></trkpt><trkpt lat="37.71119730488049" lon="-2.952886340060844"><ele>811.0</ele><time>2026-04-21T10:27:26.999Z</time></trkpt><trkpt lat="37.71109237496245" lon="-2.9526440066158033"><ele>810.6666666666666</ele><time>2026-04-21T10:27:27.999Z</time></trkpt><trkpt lat="37.7109782199138" lon="-2.9524054432535274"><ele>810.3333333333333</ele><time>2026-04-21T10:27:28.999Z</time></trkpt><trkpt lat="37.71085642862275" lon="-2.9521730567219984"><ele>810.0</ele><time>2026-04-21T10:27:29.999Z</time></trkpt><trkpt lat="37.71072646928945" lon="-2.95194778124053"><ele>810.0</ele><time>2026-04-21T10:27:30.999Z</time></trkpt><trkpt lat="37.71059223761137" lon="-2.951725005625623"><ele>810.0</ele><time>2026-04-21T10:27:31.999Z</time></trkpt><trkpt lat="37.71044425150583" lon="-2.9515071756794447"><ele>810.0</ele><time>2026-04-21T10:27:32.999Z</time></trkpt><trkpt lat="37.71028626227168" lon="-2.951300729386639"><ele>812.0</ele><time>2026-04-21T10:27:33.999Z</time></trkpt><trkpt lat="37.71012135096282" lon="-2.951099944715537"><ele>814.0</ele><time>2026-04-21T10:27:34.999Z</time></trkpt><trkpt lat="37.70994474216922" lon="-2.950913819173524"><ele>814.0</ele><time>2026-04-21T10:27:35.999Z</time></trkpt><trkpt lat="37.7097641098593" lon="-2.9507321600707304"><ele>814.0</ele><time>2026-04-21T10:27:36.999Z</time></trkpt><trkpt lat="37.70958146203876" lon="-2.9505511443238115"><ele>813.5</ele><time>2026-04-21T10:27:37.999Z</time></trkpt><trkpt lat="37.709399328626326" lon="-2.95036395066809"><ele>813.0</ele><time>2026-04-21T10:27:38.999Z</time></trkpt><trkpt lat="37.70921266867342" lon="-2.950168979859103"><ele>813.5</ele><time>2026-04-21T10:27:39.999Z</time></trkpt><trkpt lat="37.709032689722335" lon="-2.9499809984785874"><ele>814.0</ele><time>2026-04-21T10:27:40.999Z</time></trkpt><trkpt lat="37.70885595515048" lon="-2.949790013341915"><ele>814.0</ele><time>2026-04-21T10:27:41.999Z</time></trkpt><trkpt lat="37.708680520581154" lon="-2.9495917174705566"><ele>814.0</ele><time>2026-04-21T10:27:42.999Z</time></trkpt><trkpt lat="37.70850363630655" lon="-2.9493931294436493"><ele>814.6666666666666</ele><time>2026-04-21T10:27:43.999Z</time></trkpt><trkpt lat="37.70832876061056" lon="-2.949208778880113"><ele>815.3333333333333</ele><time>2026-04-21T10:27:44.999Z</time></trkpt><trkpt lat="37.70815831210571" lon="-2.9490311016087722"><ele>816.0</ele><time>2026-04-21T10:27:45.999Z</time></trkpt><trkpt lat="37.70798876293059" lon="-2.9488574326076593"><ele>816.0</ele><time>2026-04-21T10:27:46.999Z</time></trkpt><trkpt lat="37.70781611337104" lon="-2.9486871730031288"><ele>816.0</ele><time>2026-04-21T10:27:47.999Z</time></trkpt><trkpt lat="37.70763751086314" lon="-2.9485183215957553"><ele>816.0</ele><time>2026-04-21T10:27:48.999Z</time></trkpt><trkpt lat="37.707449283941685" lon="-2.948355810062217"><ele>817.0</ele><time>2026-04-21T10:27:49.999Z</time></trkpt><trkpt lat="37.707253761192646" lon="-2.9482068041446063"><ele>818.0</ele><time>2026-04-21T10:27:50.999Z</time></trkpt><trkpt lat="37.70705260471016" lon="-2.9480612927338954"><ele>817.5</ele><time>2026-04-21T10:27:51.999Z</time></trkpt><trkpt lat="37.70684512828063" lon="-2.9479305967345475"><ele>817.0</ele><time>2026-04-21T10:27:52.999Z</time></trkpt><trkpt lat="37.70663852804436" lon="-2.9478070871297835"><ele>817.0</ele><time>2026-04-21T10:27:53.999Z</time></trkpt><trkpt lat="37.70643032250586" lon="-2.9476976483879667"><ele>817.0</ele><time>2026-04-21T10:27:54.999Z</time></trkpt><trkpt lat="37.70621901863631" lon="-2.947588070247439"><ele>816.0</ele><time>2026-04-21T10:27:55.999Z</time></trkpt><trkpt lat="37.70600375452244" lon="-2.9474749842364254"><ele>815.0</ele><time>2026-04-21T10:27:56.999Z</time></trkpt><trkpt lat="37.70578992333387" lon="-2.9473632280730206"><ele>815.0</ele><time>2026-04-21T10:27:57.999Z</time></trkpt><trkpt lat="37.705575040304296" lon="-2.9472482557986672"><ele>815.0</ele><time>2026-04-21T10:27:58.999Z</time></trkpt><trkpt lat="37.70536050886903" lon="-2.9471333106878"><ele>815.0</ele><time>2026-04-21T10:27:59.999Z</time></trkpt><trkpt lat="37.70514365091919" lon="-2.9470179852355036"><ele>815.0</ele><time>2026-04-21T10:28:00.999Z</time></trkpt><trkpt lat="37.704926285381134" lon="-2.946901281896997"><ele>815.0</ele><time>2026-04-21T10:28:01.999Z</time></trkpt><trkpt lat="37.70471268502513" lon="-2.9467868590468504"><ele>815.0</ele><time>2026-04-21T10:28:02.999Z</time></trkpt><trkpt lat="37.704496824353946" lon="-2.9466713997826868"><ele>815.0</ele><time>2026-04-21T10:28:03.999Z</time></trkpt><trkpt lat="37.704282674794484" lon="-2.946557400394727"><ele>815.0</ele><time>2026-04-21T10:28:04.999Z</time></trkpt><trkpt lat="37.70407332112695" lon="-2.9464420552033466"><ele>815.0</ele><time>2026-04-21T10:28:05.999Z</time></trkpt><trkpt lat="37.70386653324132" lon="-2.9463295658569826"><ele>815.0</ele><time>2026-04-21T10:28:06.999Z</time></trkpt><trkpt lat="37.70366065839989" lon="-2.946224684890885"><ele>815.0</ele><time>2026-04-21T10:28:07.999Z</time></trkpt><trkpt lat="37.70345654165624" lon="-2.9461223190365082"><ele>815.0</ele><time>2026-04-21T10:28:08.999Z</time></trkpt><trkpt lat="37.703250861893004" lon="-2.9460191804261604"><ele>815.0</ele><time>2026-04-21T10:28:09.999Z</time></trkpt><trkpt lat="37.70304554830962" lon="-2.9459137565454436"><ele>815.0</ele><time>2026-04-21T10:28:10.999Z</time></trkpt><trkpt lat="37.702833244801624" lon="-2.9458093534618492"><ele>815.0</ele><time>2026-04-21T10:28:11.999Z</time></trkpt><trkpt lat="37.702625540812896" lon="-2.9457059882094"><ele>815.0</ele><time>2026-04-21T10:28:12.999Z</time></trkpt><trkpt lat="37.70241401512095" lon="-2.9456024571258976"><ele>815.0</ele><time>2026-04-21T10:28:13.999Z</time></trkpt><trkpt lat="37.70220056963334" lon="-2.945501266287201"><ele>815.0</ele><time>2026-04-21T10:28:14.999Z</time></trkpt><trkpt lat="37.701990646658935" lon="-2.9453988578329704"><ele>815.0</ele><time>2026-04-21T10:28:15.999Z</time></trkpt><trkpt lat="37.701788027895255" lon="-2.9453006950096983"><ele>815.0</ele><time>2026-04-21T10:28:16.999Z</time></trkpt><trkpt lat="37.701589309313555" lon="-2.9452030676063856"><ele>815.0</ele><time>2026-04-21T10:28:17.999Z</time></trkpt><trkpt lat="37.70138897367107" lon="-2.9451063484622395"><ele>816.6666666666667</ele><time>2026-04-21T10:28:18.999Z</time></trkpt><trkpt lat="37.70118689115801" lon="-2.9450132589698454"><ele>818.3333333333333</ele><time>2026-04-21T10:28:19.999Z</time></trkpt><trkpt lat="37.70098450139777" lon="-2.9449232963267815"><ele>820.0</ele><time>2026-04-21T10:28:20.999Z</time></trkpt><trkpt lat="37.70078054950929" lon="-2.9448323205666718"><ele>820.0</ele><time>2026-04-21T10:28:21.999Z</time></trkpt><trkpt lat="37.700578569845796" lon="-2.94473315563807"><ele>820.0</ele><time>2026-04-21T10:28:22.999Z</time></trkpt><trkpt lat="37.700369859011936" lon="-2.9446318720936815"><ele>820.0</ele><time>2026-04-21T10:28:23.999Z</time></trkpt><trkpt lat="37.70016400980603" lon="-2.9445290470404415"><ele>822.3333333333333</ele><time>2026-04-21T10:28:24.999Z</time></trkpt><trkpt lat="37.699956061664096" lon="-2.9444229014698453"><ele>824.6666666666667</ele><time>2026-04-21T10:28:25.999Z</time></trkpt><trkpt lat="37.69974806216255" lon="-2.944315134237721"><ele>827.0</ele><time>2026-04-21T10:28:27Z</time></trkpt><trkpt lat="37.699540945215354" lon="-2.944201670136731"><ele>829.6666666666667</ele><time>2026-04-21T10:28:28Z</time></trkpt><trkpt lat="37.69933583573922" lon="-2.9440815408647847"><ele>832.3333333333333</ele><time>2026-04-21T10:28:29Z</time></trkpt><trkpt lat="37.699135863493076" lon="-2.9439629535234304"><ele>835.0</ele><time>2026-04-21T10:28:30Z</time></trkpt><trkpt lat="37.698932356829836" lon="-2.943849302985908"><ele>835.0</ele><time>2026-04-21T10:28:31Z</time></trkpt><trkpt lat="37.69873337328516" lon="-2.9437407889632676"><ele>835.0</ele><time>2026-04-21T10:28:32Z</time></trkpt><trkpt lat="37.69852569536728" lon="-2.943631922799978"><ele>835.0</ele><time>2026-04-21T10:28:33Z</time></trkpt><trkpt lat="37.698313144035474" lon="-2.9435294678009285"><ele>837.0</ele><time>2026-04-21T10:28:34Z</time></trkpt><trkpt lat="37.6981035904691" lon="-2.943420432492383"><ele>839.0</ele><time>2026-04-21T10:28:35Z</time></trkpt><trkpt lat="37.697890420938556" lon="-2.943310517550479"><ele>839.3333333333334</ele><time>2026-04-21T10:28:36Z</time></trkpt><trkpt lat="37.697682828580525" lon="-2.9432032090849196"><ele>839.6666666666667</ele><time>2026-04-21T10:28:37Z</time></trkpt><trkpt lat="37.697489384453405" lon="-2.9431066964062955"><ele>840.0</ele><time>2026-04-21T10:28:38Z</time></trkpt><trkpt lat="37.69731068395841" lon="-2.943013084425712"><ele>840.0</ele><time>2026-04-21T10:28:39Z</time></trkpt><trkpt lat="37.69715059720293" lon="-2.9429280175056216"><ele>840.0</ele><time>2026-04-21T10:28:40Z</time></trkpt><trkpt lat="37.69699850810069" lon="-2.9428449956306237"><ele>840.0</ele><time>2026-04-21T10:28:41Z</time></trkpt><trkpt lat="37.69684996153305" lon="-2.942762905362221"><ele>839.75</ele><time>2026-04-21T10:28:42Z</time></trkpt><trkpt lat="37.69671304038246" lon="-2.9426891474289203"><ele>839.5</ele><time>2026-04-21T10:28:43Z</time></trkpt><trkpt lat="37.69657821628433" lon="-2.942614438267477"><ele>839.25</ele><time>2026-04-21T10:28:44Z</time></trkpt><trkpt lat="37.69644973743302" lon="-2.942542828065881"><ele>839.0</ele><time>2026-04-21T10:28:45Z</time></trkpt><trkpt lat="37.6963329250974" lon="-2.942479006457207"><ele>838.8000000000001</ele><time>2026-04-21T10:28:46Z</time></trkpt><trkpt lat="37.696227716721964" lon="-2.9424227459238557"><ele>838.6</ele><time>2026-04-21T10:28:47Z</time></trkpt><trkpt lat="37.69613216850407" lon="-2.942402259089417"><ele>838.4</ele><time>2026-04-21T10:28:48Z</time></trkpt><trkpt lat="37.69605062913542" lon="-2.9424271388241636"><ele>838.2</ele><time>2026-04-21T10:28:49Z</time></trkpt><trkpt lat="37.69596409384435" lon="-2.942481673347656"><ele>838.0</ele><time>2026-04-21T10:28:50Z</time></trkpt><trkpt lat="37.695874780344376" lon="-2.942533146371286"><ele>837.5999999999999</ele><time>2026-04-21T10:28:51Z</time></trkpt><trkpt lat="37.69578330046256" lon="-2.94254711053681"><ele>837.1999999999999</ele><time>2026-04-21T10:28:52Z</time></trkpt><trkpt lat="37.69569080699855" lon="-2.942534342472298"><ele>836.8</ele><time>2026-04-21T10:28:53Z</time></trkpt><trkpt lat="37.69559252118216" lon="-2.9425005478593738"><ele>836.4</ele><time>2026-04-21T10:28:54Z</time></trkpt><trkpt lat="37.69548466162964" lon="-2.9424921982760504"><ele>836.0</ele><time>2026-04-21T10:28:55Z</time></trkpt><trkpt lat="37.695364818455936" lon="-2.9425429237357323"><ele>834.0</ele><time>2026-04-21T10:28:56Z</time></trkpt><trkpt lat="37.695246317429216" lon="-2.9426378232565806"><ele>832.0</ele><time>2026-04-21T10:28:57Z</time></trkpt><trkpt lat="37.69512260375357" lon="-2.9427413006739065"><ele>830.0</ele><time>2026-04-21T10:28:58Z</time></trkpt><trkpt lat="37.694987203205486" lon="-2.9428565480473226"><ele>830.0</ele><time>2026-04-21T10:28:59Z</time></trkpt><trkpt lat="37.69485230542296" lon="-2.9429685296192636"><ele>830.0</ele><time>2026-04-21T10:29:00Z</time></trkpt><trkpt lat="37.694718169287896" lon="-2.9430683086365934"><ele>830.0</ele><time>2026-04-21T10:29:01Z</time></trkpt><trkpt lat="37.69458865083852" lon="-2.943171212757939"><ele>830.0</ele><time>2026-04-21T10:29:02Z</time></trkpt><trkpt lat="37.69446072363069" lon="-2.943276775169249"><ele>830.0</ele><time>2026-04-21T10:29:03Z</time></trkpt><trkpt lat="37.694328244966286" lon="-2.9433766378303035"><ele>830.0</ele><time>2026-04-21T10:29:04Z</time></trkpt><trkpt lat="37.69418826926461" lon="-2.943474285186294"><ele>829.6666666666667</ele><time>2026-04-21T10:29:05Z</time></trkpt><trkpt lat="37.69404250853658" lon="-2.943575875593203"><ele>829.3333333333333</ele><time>2026-04-21T10:29:06Z</time></trkpt><trkpt lat="37.69388849380949" lon="-2.9436716997179233"><ele>829.0</ele><time>2026-04-21T10:29:07Z</time></trkpt><trkpt lat="37.693722989063666" lon="-2.9437678286889413"><ele>828.3333333333333</ele><time>2026-04-21T10:29:08Z</time></trkpt><trkpt lat="37.69355843939671" lon="-2.9438749240195494"><ele>827.6666666666667</ele><time>2026-04-21T10:29:09Z</time></trkpt><trkpt lat="37.693379600392554" lon="-2.943965657991669"><ele>827.0</ele><time>2026-04-21T10:29:10Z</time></trkpt><trkpt lat="37.6931869804567" lon="-2.9440343010126373"><ele>827.0</ele><time>2026-04-21T10:29:11Z</time></trkpt><trkpt lat="37.69300076284251" lon="-2.9441171866067455"><ele>827.0</ele><time>2026-04-21T10:29:12Z</time></trkpt><trkpt lat="37.6928151968364" lon="-2.944191763215634"><ele>827.0</ele><time>2026-04-21T10:29:13Z</time></trkpt><trkpt lat="37.692631996846345" lon="-2.9442578737902316"><ele>826.3333333333334</ele><time>2026-04-21T10:29:14Z</time></trkpt><trkpt lat="37.69244565466022" lon="-2.9443276079487073"><ele>825.6666666666667</ele><time>2026-04-21T10:29:15Z</time></trkpt><trkpt lat="37.69225868263219" lon="-2.9443979066766106"><ele>825.0</ele><time>2026-04-21T10:29:16Z</time></trkpt><trkpt lat="37.692071473322414" lon="-2.9444662595571205"><ele>824.3333333333333</ele><time>2026-04-21T10:29:17Z</time></trkpt><trkpt lat="37.69188362186668" lon="-2.9445342156852474"><ele>823.6666666666666</ele><time>2026-04-21T10:29:18Z</time></trkpt><trkpt lat="37.69169507340904" lon="-2.9446252534580757"><ele>823.0</ele><time>2026-04-21T10:29:19Z</time></trkpt><trkpt lat="37.69150185664118" lon="-2.9446984738812754"><ele>823.0</ele><time>2026-04-21T10:29:20Z</time></trkpt><trkpt lat="37.69130343105991" lon="-2.9447736682077745"><ele>823.0</ele><time>2026-04-21T10:29:21Z</time></trkpt><trkpt lat="37.69110231584737" lon="-2.9448498817849416"><ele>823.0</ele><time>2026-04-21T10:29:22Z</time></trkpt><trkpt lat="37.69089839231892" lon="-2.9449286188983756"><ele>822.6666666666666</ele><time>2026-04-21T10:29:23Z</time></trkpt><trkpt lat="37.69068922383296" lon="-2.9449888808909788"><ele>822.3333333333333</ele><time>2026-04-21T10:29:24Z</time></trkpt><trkpt lat="37.69048998572837" lon="-2.945073540819041"><ele>822.0</ele><time>2026-04-21T10:29:25Z</time></trkpt><trkpt lat="37.69029315192632" lon="-2.9451625673596595"><ele>822.0</ele><time>2026-04-21T10:29:26Z</time></trkpt><trkpt lat="37.69011431186494" lon="-2.9452678742540748"><ele>822.0</ele><time>2026-04-21T10:29:27Z</time></trkpt><trkpt lat="37.689925377868235" lon="-2.9453717160068456"><ele>822.0</ele><time>2026-04-21T10:29:28Z</time></trkpt><trkpt lat="37.68974265936591" lon="-2.9454760673303886"><ele>822.0</ele><time>2026-04-21T10:29:29Z</time></trkpt><trkpt lat="37.689565235633374" lon="-2.9455886454364046"><ele>822.0</ele><time>2026-04-21T10:29:30Z</time></trkpt><trkpt lat="37.68938926501197" lon="-2.9457122319767817"><ele>822.0</ele><time>2026-04-21T10:29:30.999Z</time></trkpt><trkpt lat="37.689226359803435" lon="-2.9458408858209126"><ele>822.6666666666667</ele><time>2026-04-21T10:29:31.999Z</time></trkpt><trkpt lat="37.68908072946481" lon="-2.945968492545169"><ele>823.3333333333334</ele><time>2026-04-21T10:29:32.999Z</time></trkpt><trkpt lat="37.68895163944079" lon="-2.9460948274557235"><ele>824.0</ele><time>2026-04-21T10:29:33.999Z</time></trkpt><trkpt lat="37.68883151053764" lon="-2.946219500548204"><ele>824.0</ele><time>2026-04-21T10:29:34.999Z</time></trkpt><trkpt lat="37.68873166432243" lon="-2.946332187960038"><ele>824.0</ele><time>2026-04-21T10:29:35.999Z</time></trkpt><trkpt lat="37.68865383910742" lon="-2.9464264671721256"><ele>824.0</ele><time>2026-04-21T10:29:36.999Z</time></trkpt><trkpt lat="37.68859680630609" lon="-2.946500142395708"><ele>824.0</ele><time>2026-04-21T10:29:37.999Z</time></trkpt><trkpt lat="37.68855220492158" lon="-2.9465581303195343"><ele>824.0</ele><time>2026-04-21T10:29:38.999Z</time></trkpt><trkpt lat="37.688400773890486" lon="-2.9465107427883575"><ele>823.8000000000001</ele><time>2026-04-21T10:29:40.999Z</time></trkpt><trkpt lat="37.68828625240208" lon="-2.9464359597245564"><ele>823.6</ele><time>2026-04-21T10:29:42.999Z</time></trkpt><trkpt lat="37.68821494571589" lon="-2.946469030718664"><ele>823.4</ele><time>2026-04-21T10:29:43.999Z</time></trkpt><trkpt lat="37.68817395655121" lon="-2.9465794849447717"><ele>823.2</ele><time>2026-04-21T10:29:44.999Z</time></trkpt><trkpt lat="37.68810053941971" lon="-2.9466425540681884"><ele>823.0</ele><time>2026-04-21T10:29:45.999Z</time></trkpt><trkpt lat="37.6880170550265" lon="-2.946714125735576"><ele>822.5</ele><time>2026-04-21T10:29:46.999Z</time></trkpt><trkpt lat="37.68791993499548" lon="-2.946790555801775"><ele>822.0</ele><time>2026-04-21T10:29:47.999Z</time></trkpt><trkpt lat="37.68782294701066" lon="-2.94687142355141"><ele>821.5</ele><time>2026-04-21T10:29:48.999Z</time></trkpt><trkpt lat="37.68771943594549" lon="-2.946959531602218"><ele>821.0</ele><time>2026-04-21T10:29:49.999Z</time></trkpt><trkpt lat="37.68761164991725" lon="-2.94704882941955"><ele>820.75</ele><time>2026-04-21T10:29:50.999Z</time></trkpt><trkpt lat="37.68750041554185" lon="-2.9471409636889963"><ele>820.5</ele><time>2026-04-21T10:29:51.999Z</time></trkpt><trkpt lat="37.687384514942046" lon="-2.947240411770823"><ele>820.25</ele><time>2026-04-21T10:29:52.999Z</time></trkpt><trkpt lat="37.687266427880054" lon="-2.9473452134735725"><ele>820.0</ele><time>2026-04-21T10:29:53.999Z</time></trkpt><trkpt lat="37.68713984834295" lon="-2.9474324166662633"><ele>820.0</ele><time>2026-04-21T10:29:54.999Z</time></trkpt><trkpt lat="37.68702630294852" lon="-2.947542491842596"><ele>820.0</ele><time>2026-04-21T10:29:55.999Z</time></trkpt><trkpt lat="37.68690914331888" lon="-2.947648976990343"><ele>820.0</ele><time>2026-04-21T10:29:56.999Z</time></trkpt><trkpt lat="37.6867838427056" lon="-2.947762310167782"><ele>820.0</ele><time>2026-04-21T10:29:57.999Z</time></trkpt><trkpt lat="37.68664779477669" lon="-2.947882984525399"><ele>820.0</ele><time>2026-04-21T10:29:58.999Z</time></trkpt><trkpt lat="37.68651718266231" lon="-2.9480040709436115"><ele>820.0</ele><time>2026-04-21T10:29:59.999Z</time></trkpt><trkpt lat="37.686389210013914" lon="-2.9481408290036093"><ele>820.0</ele><time>2026-04-21T10:30:00.999Z</time></trkpt><trkpt lat="37.686252868688584" lon="-2.948269638658204"><ele>819.25</ele><time>2026-04-21T10:30:01.999Z</time></trkpt><trkpt lat="37.6861232261128" lon="-2.948392500483428"><ele>818.5</ele><time>2026-04-21T10:30:02.999Z</time></trkpt><trkpt lat="37.68599550108015" lon="-2.9484844276993436"><ele>817.75</ele><time>2026-04-21T10:30:03.999Z</time></trkpt><trkpt lat="37.68587647762932" lon="-2.9485744035145767"><ele>817.0</ele><time>2026-04-21T10:30:04.999Z</time></trkpt><trkpt lat="37.68574342608921" lon="-2.9486333663965034"><ele>816.8333333333333</ele><time>2026-04-21T10:30:05.999Z</time></trkpt><trkpt lat="37.68562803495948" lon="-2.9486807212882984"><ele>816.6666666666666</ele><time>2026-04-21T10:30:06.999Z</time></trkpt><trkpt lat="37.685546989475384" lon="-2.9487086367131408"><ele>816.5</ele><time>2026-04-21T10:30:07.999Z</time></trkpt><trkpt lat="37.685483528629625" lon="-2.948733405327536"><ele>816.3333333333333</ele><time>2026-04-21T10:30:08.999Z</time></trkpt><trkpt lat="37.68541216800945" lon="-2.9487590543626303"><ele>816.1666666666666</ele><time>2026-04-21T10:30:10.999Z</time></trkpt><trkpt lat="37.68534055648567" lon="-2.948781207522907"><ele>816.0</ele><time>2026-04-21T10:30:13.999Z</time></trkpt><trkpt lat="37.68528231624843" lon="-2.948813937643972"><ele>816.1666666666666</ele><time>2026-04-21T10:30:16.999Z</time></trkpt><trkpt lat="37.68520770445286" lon="-2.948839136119108"><ele>816.3333333333333</ele><time>2026-04-21T10:30:45Z</time></trkpt><trkpt lat="37.68514418001366" lon="-2.9488606536785102"><ele>816.5</ele><time>2026-04-21T10:30:47Z</time></trkpt><trkpt lat="37.685028310613355" lon="-2.948886483945727"><ele>816.6666666666666</ele><time>2026-04-21T10:30:49Z</time></trkpt><trkpt lat="37.68496197151726" lon="-2.9489098358197383"><ele>816.8333333333333</ele><time>2026-04-21T10:30:50Z</time></trkpt><trkpt lat="37.684890868464294" lon="-2.9489324175742926"><ele>817.0</ele><time>2026-04-21T10:30:51Z</time></trkpt><trkpt lat="37.684817539594654" lon="-2.948959531301343"><ele>817.0</ele><time>2026-04-21T10:30:52Z</time></trkpt><trkpt lat="37.68473497312529" lon="-2.948988201993087"><ele>817.0</ele><time>2026-04-21T10:30:53Z</time></trkpt><trkpt lat="37.684652688358035" lon="-2.9490184446210117"><ele>817.0</ele><time>2026-04-21T10:30:54Z</time></trkpt><trkpt lat="37.68455467505394" lon="-2.9490631295686045"><ele>817.0</ele><time>2026-04-21T10:30:55Z</time></trkpt><trkpt lat="37.68445265883633" lon="-2.9490967211134658"><ele>817.0</ele><time>2026-04-21T10:30:56Z</time></trkpt><trkpt lat="37.68434280875692" lon="-2.949140370666819"><ele>816.75</ele><time>2026-04-21T10:30:57Z</time></trkpt><trkpt lat="37.68422702957885" lon="-2.9491928789357034"><ele>816.5</ele><time>2026-04-21T10:30:58Z</time></trkpt><trkpt lat="37.6841112100658" lon="-2.9492635228032262"><ele>816.25</ele><time>2026-04-21T10:30:59Z</time></trkpt><trkpt lat="37.68397931377837" lon="-2.9493101312147565"><ele>816.0</ele><time>2026-04-21T10:31:00Z</time></trkpt><trkpt lat="37.683846213507536" lon="-2.9493618930073944"><ele>816.0</ele><time>2026-04-21T10:31:01Z</time></trkpt><trkpt lat="37.68371540336875" lon="-2.949420240376065"><ele>816.0</ele><time>2026-04-21T10:31:02Z</time></trkpt><trkpt lat="37.68357678796445" lon="-2.949480826977987"><ele>816.0</ele><time>2026-04-21T10:31:03Z</time></trkpt><trkpt lat="37.68343433435636" lon="-2.949545304112802"><ele>816.0</ele><time>2026-04-21T10:31:04Z</time></trkpt><trkpt lat="37.68329100696795" lon="-2.9496142377219523"><ele>816.6666666666667</ele><time>2026-04-21T10:31:05Z</time></trkpt><trkpt lat="37.683141688224474" lon="-2.9496851093447547"><ele>817.3333333333334</ele><time>2026-04-21T10:31:06Z</time></trkpt><trkpt lat="37.68298982589467" lon="-2.949746523945408"><ele>818.0</ele><time>2026-04-21T10:31:07Z</time></trkpt><trkpt lat="37.6828318438197" lon="-2.949793675881653"><ele>817.6666666666667</ele><time>2026-04-21T10:31:08Z</time></trkpt><trkpt lat="37.682667931395486" lon="-2.9498293840663696"><ele>817.3333333333333</ele><time>2026-04-21T10:31:09Z</time></trkpt><trkpt lat="37.68249492108652" lon="-2.9498827331217417"><ele>817.0</ele><time>2026-04-21T10:31:10Z</time></trkpt><trkpt lat="37.68231859948199" lon="-2.949914766585699"><ele>817.0</ele><time>2026-04-21T10:31:11Z</time></trkpt><trkpt lat="37.68214971309578" lon="-2.9499265018482275"><ele>817.0</ele><time>2026-04-21T10:31:12Z</time></trkpt><trkpt lat="37.68197626114659" lon="-2.9499543343528005"><ele>817.0</ele><time>2026-04-21T10:31:13Z</time></trkpt><trkpt lat="37.681802891172765" lon="-2.9499928559541115"><ele>818.0</ele><time>2026-04-21T10:31:14Z</time></trkpt><trkpt lat="37.681630126670264" lon="-2.9500757340304604"><ele>819.0</ele><time>2026-04-21T10:31:15Z</time></trkpt><trkpt lat="37.68145841428908" lon="-2.9501212657808065"><ele>820.0</ele><time>2026-04-21T10:31:16Z</time></trkpt><trkpt lat="37.681292903100825" lon="-2.9501917402348425"><ele>820.0</ele><time>2026-04-21T10:31:17Z</time></trkpt><trkpt lat="37.681128684390934" lon="-2.950255294790124"><ele>820.0</ele><time>2026-04-21T10:31:18Z</time></trkpt><trkpt lat="37.68097428067759" lon="-2.9503196119927124"><ele>820.0</ele><time>2026-04-21T10:31:19Z</time></trkpt><trkpt lat="37.68082354065155" lon="-2.9503714465974897"><ele>821.0</ele><time>2026-04-21T10:31:20Z</time></trkpt><trkpt lat="37.68066257398869" lon="-2.9504055394213573"><ele>822.0</ele><time>2026-04-21T10:31:21Z</time></trkpt><trkpt lat="37.68049456260305" lon="-2.950409292714346"><ele>823.0</ele><time>2026-04-21T10:31:22Z</time></trkpt><trkpt lat="37.68032654228545" lon="-2.9503972699483474"><ele>822.6666666666666</ele><time>2026-04-21T10:31:23Z</time></trkpt><trkpt lat="37.6801618192712" lon="-2.950421398125012"><ele>822.3333333333333</ele><time>2026-04-21T10:31:24Z</time></trkpt><trkpt lat="37.6800117090642" lon="-2.9504660302408516"><ele>822.0</ele><time>2026-04-21T10:31:25Z</time></trkpt><trkpt lat="37.67986569332907" lon="-2.9505459019144076"><ele>822.0</ele><time>2026-04-21T10:31:26Z</time></trkpt><trkpt lat="37.67971180617154" lon="-2.950633242259019"><ele>822.0</ele><time>2026-04-21T10:31:27Z</time></trkpt><trkpt lat="37.679552829989674" lon="-2.9507130727826714"><ele>822.0</ele><time>2026-04-21T10:31:28Z</time></trkpt><trkpt lat="37.67939910860863" lon="-2.9508098466200123"><ele>821.6666666666667</ele><time>2026-04-21T10:31:29Z</time></trkpt><trkpt lat="37.67924309842412" lon="-2.9509037387386536"><ele>821.3333333333334</ele><time>2026-04-21T10:31:30Z</time></trkpt><trkpt lat="37.67908369808495" lon="-2.9509970577595053"><ele>821.0</ele><time>2026-04-21T10:31:31Z</time></trkpt><trkpt lat="37.67891978797625" lon="-2.9510898040867146"><ele>821.0</ele><time>2026-04-21T10:31:32Z</time></trkpt><trkpt lat="37.67875945955592" lon="-2.9511778299099145"><ele>821.0</ele><time>2026-04-21T10:31:33Z</time></trkpt><trkpt lat="37.67860467471929" lon="-2.9512602127384815"><ele>821.0</ele><time>2026-04-21T10:31:34Z</time></trkpt><trkpt lat="37.678462076789614" lon="-2.9513599351006548"><ele>821.3333333333334</ele><time>2026-04-21T10:31:35Z</time></trkpt><trkpt lat="37.678301974631204" lon="-2.951438525897823"><ele>821.6666666666667</ele><time>2026-04-21T10:31:36Z</time></trkpt><trkpt lat="37.678130377845804" lon="-2.9514845216053827"><ele>822.0</ele><time>2026-04-21T10:31:37Z</time></trkpt><trkpt lat="37.6779585323727" lon="-2.9515370677412234"><ele>822.0</ele><time>2026-04-21T10:31:38Z</time></trkpt><trkpt lat="37.677783637115894" lon="-2.9515897535983395"><ele>822.0</ele><time>2026-04-21T10:31:39Z</time></trkpt><trkpt lat="37.67760825536595" lon="-2.951655451290972"><ele>822.0</ele><time>2026-04-21T10:31:40Z</time></trkpt><trkpt lat="37.67742837074057" lon="-2.951704554753025"><ele>821.6666666666667</ele><time>2026-04-21T10:31:41Z</time></trkpt><trkpt lat="37.67723119446523" lon="-2.9517647708713004"><ele>821.3333333333334</ele><time>2026-04-21T10:31:42Z</time></trkpt><trkpt lat="37.67707469975928" lon="-2.9518160192614573"><ele>821.0</ele><time>2026-04-21T10:31:43Z</time></trkpt><trkpt lat="37.67692152372537" lon="-2.9518865747355023"><ele>821.0</ele><time>2026-04-21T10:31:44Z</time></trkpt><trkpt lat="37.676758949832106" lon="-2.9519802932728347"><ele>821.0</ele><time>2026-04-21T10:31:45Z</time></trkpt><trkpt lat="37.676596068832296" lon="-2.9520763918620556"><ele>821.0</ele><time>2026-04-21T10:31:45.999Z</time></trkpt><trkpt lat="37.67643001583623" lon="-2.952174361912166"><ele>821.0</ele><time>2026-04-21T10:31:46.999Z</time></trkpt><trkpt lat="37.67626554586956" lon="-2.952270438859351"><ele>821.0</ele><time>2026-04-21T10:31:47.999Z</time></trkpt><trkpt lat="37.67610022162533" lon="-2.9523648349975966"><ele>821.0</ele><time>2026-04-21T10:31:48.999Z</time></trkpt><trkpt lat="37.675936992884864" lon="-2.9524580331987695"><ele>820.6666666666667</ele><time>2026-04-21T10:31:49.999Z</time></trkpt><trkpt lat="37.67577328221983" lon="-2.952552261296584"><ele>820.3333333333333</ele><time>2026-04-21T10:31:50.999Z</time></trkpt><trkpt lat="37.67560932298771" lon="-2.952647101341375"><ele>820.0</ele><time>2026-04-21T10:31:51.999Z</time></trkpt><trkpt lat="37.67545046519214" lon="-2.9527389905884602"><ele>820.0</ele><time>2026-04-21T10:31:52.999Z</time></trkpt><trkpt lat="37.675288102095315" lon="-2.952832907293465"><ele>820.0</ele><time>2026-04-21T10:31:53.999Z</time></trkpt><trkpt lat="37.67513492769951" lon="-2.9529215089825516"><ele>820.0</ele><time>2026-04-21T10:31:54.999Z</time></trkpt><trkpt lat="37.67499724603872" lon="-2.952973494825944"><ele>820.4</ele><time>2026-04-21T10:31:55.999Z</time></trkpt><trkpt lat="37.67489591305193" lon="-2.9530346382731074"><ele>820.8</ele><time>2026-04-21T10:31:56.999Z</time></trkpt><trkpt lat="37.67481853754496" lon="-2.9530964694669426"><ele>821.2</ele><time>2026-04-21T10:31:57.999Z</time></trkpt><trkpt lat="37.674757538998676" lon="-2.953134092064568"><ele>821.6</ele><time>2026-04-21T10:31:58.999Z</time></trkpt><trkpt lat="37.67469317646925" lon="-2.9531859972689087"><ele>822.0</ele><time>2026-04-21T10:32:00.999Z</time></trkpt><trkpt lat="37.6745720673345" lon="-2.9531817713373987"><ele>822.0</ele><time>2026-04-21T10:32:02.999Z</time></trkpt><trkpt lat="37.674495446942956" lon="-2.9531662250134145"><ele>822.0</ele><time>2026-04-21T10:32:03.999Z</time></trkpt><trkpt lat="37.67440131884624" lon="-2.9531540104513176"><ele>822.0</ele><time>2026-04-21T10:32:04.999Z</time></trkpt><trkpt lat="37.67429049401585" lon="-2.953139629277472"><ele>822.0</ele><time>2026-04-21T10:32:05.999Z</time></trkpt><trkpt lat="37.6741669266961" lon="-2.9531235945634564"><ele>822.0</ele><time>2026-04-21T10:32:06.999Z</time></trkpt><trkpt lat="37.67402895761975" lon="-2.9530879065518234"><ele>822.3333333333333</ele><time>2026-04-21T10:32:07.999Z</time></trkpt><trkpt lat="37.6738902121922" lon="-2.95307414483903"><ele>822.6666666666666</ele><time>2026-04-21T10:32:08.999Z</time></trkpt><trkpt lat="37.67373849015758" lon="-2.9530587978878926"><ele>823.0</ele><time>2026-04-21T10:32:09.999Z</time></trkpt><trkpt lat="37.6735762406022" lon="-2.9530352297116162"><ele>823.3333333333333</ele><time>2026-04-21T10:32:10.999Z</time></trkpt><trkpt lat="37.67341014177357" lon="-2.9530205260309748"><ele>823.6666666666667</ele><time>2026-04-21T10:32:11.999Z</time></trkpt><trkpt lat="37.67323914949695" lon="-2.953000775302571"><ele>824.0</ele><time>2026-04-21T10:32:12.999Z</time></trkpt><trkpt lat="37.67306257874682" lon="-2.952983179318923"><ele>824.0</ele><time>2026-04-21T10:32:13.999Z</time></trkpt><trkpt lat="37.6728842523981" lon="-2.9529661098998865"><ele>824.0</ele><time>2026-04-21T10:32:14.999Z</time></trkpt><trkpt lat="37.672711496131946" lon="-2.952945565486398"><ele>824.0</ele><time>2026-04-21T10:32:15.999Z</time></trkpt><trkpt lat="37.67254076510422" lon="-2.9529273076557385"><ele>823.6666666666667</ele><time>2026-04-21T10:32:16.999Z</time></trkpt><trkpt lat="37.67236177898115" lon="-2.9529093035326723"><ele>823.3333333333333</ele><time>2026-04-21T10:32:17.999Z</time></trkpt><trkpt lat="37.67218457415634" lon="-2.952890703027944"><ele>823.0</ele><time>2026-04-21T10:32:18.999Z</time></trkpt><trkpt lat="37.67200663319932" lon="-2.9528702012976864"><ele>822.0</ele><time>2026-04-21T10:32:19.999Z</time></trkpt><trkpt lat="37.671827128363546" lon="-2.952850542233509"><ele>821.0</ele><time>2026-04-21T10:32:20.999Z</time></trkpt><trkpt lat="37.67165077098837" lon="-2.9528401298639606"><ele>820.0</ele><time>2026-04-21T10:32:21.999Z</time></trkpt><trkpt lat="37.67147244794861" lon="-2.952837170966476"><ele>820.0</ele><time>2026-04-21T10:32:22.999Z</time></trkpt><trkpt lat="37.67129233397723" lon="-2.9528341072702755"><ele>820.0</ele><time>2026-04-21T10:32:23.999Z</time></trkpt><trkpt lat="37.671131637770614" lon="-2.952830934303696"><ele>820.0</ele><time>2026-04-21T10:32:24.999Z</time></trkpt><trkpt lat="37.670979797611274" lon="-2.952824981897486"><ele>819.25</ele><time>2026-04-21T10:32:25.999Z</time></trkpt><trkpt lat="37.670843982204154" lon="-2.952818463000525"><ele>818.5</ele><time>2026-04-21T10:32:26.999Z</time></trkpt><trkpt lat="37.67071829150695" lon="-2.9528100078777526"><ele>817.75</ele><time>2026-04-21T10:32:27.999Z</time></trkpt><trkpt lat="37.67060959629635" lon="-2.9528044335433896"><ele>817.0</ele><time>2026-04-21T10:32:28.999Z</time></trkpt><trkpt lat="37.67050496810678" lon="-2.9528037131700313"><ele>816.9999999999999</ele><time>2026-04-21T10:32:29.999Z</time></trkpt><trkpt lat="37.67041264275509" lon="-2.952801012547059"><ele>817.0</ele><time>2026-04-21T10:32:30.999Z</time></trkpt><trkpt lat="37.670337786308856" lon="-2.952799382100533"><ele>817.0</ele><time>2026-04-21T10:32:31.999Z</time></trkpt><trkpt lat="37.67026174668832" lon="-2.952803601691206"><ele>817.0</ele><time>2026-04-21T10:32:32.999Z</time></trkpt><trkpt lat="37.670173843403326" lon="-2.952791368668569"><ele>816.9999999999999</ele><time>2026-04-21T10:32:33.999Z</time></trkpt><trkpt lat="37.67006437320633" lon="-2.9528097085665723"><ele>817.0</ele><time>2026-04-21T10:32:34.999Z</time></trkpt><trkpt lat="37.66994190101243" lon="-2.9528070230496626"><ele>816.75</ele><time>2026-04-21T10:32:35.999Z</time></trkpt><trkpt lat="37.669809474788956" lon="-2.952811208587834"><ele>816.5</ele><time>2026-04-21T10:32:36.999Z</time></trkpt><trkpt lat="37.66967193253333" lon="-2.9528234766676458"><ele>816.25</ele><time>2026-04-21T10:32:38Z</time></trkpt><trkpt lat="37.66952589041716" lon="-2.9528398710730284"><ele>816.0</ele><time>2026-04-21T10:32:39Z</time></trkpt><trkpt lat="37.66937123198936" lon="-2.9528564414681444"><ele>816.0</ele><time>2026-04-21T10:32:40Z</time></trkpt><trkpt lat="37.66921391877352" lon="-2.952872248058636"><ele>816.0</ele><time>2026-04-21T10:32:41Z</time></trkpt><trkpt lat="37.669051106084204" lon="-2.9528874961646285"><ele>816.0</ele><time>2026-04-21T10:32:42Z</time></trkpt><trkpt lat="37.66889178888673" lon="-2.952885829836291"><ele>816.0</ele><time>2026-04-21T10:32:43Z</time></trkpt><trkpt lat="37.66873336316289" lon="-2.9528964832747997"><ele>816.0</ele><time>2026-04-21T10:32:44Z</time></trkpt><trkpt lat="37.6685715711856" lon="-2.952893912339509"><ele>816.0</ele><time>2026-04-21T10:32:45Z</time></trkpt><trkpt lat="37.66840426462083" lon="-2.9528824899951087"><ele>816.6666666666667</ele><time>2026-04-21T10:32:46Z</time></trkpt><trkpt lat="37.66823488315411" lon="-2.952863611745321"><ele>817.3333333333334</ele><time>2026-04-21T10:32:47Z</time></trkpt><trkpt lat="37.66806075238454" lon="-2.952845867651219"><ele>818.0</ele><time>2026-04-21T10:32:48Z</time></trkpt><trkpt lat="37.66788666484274" lon="-2.952830563449106"><ele>818.0</ele><time>2026-04-21T10:32:49Z</time></trkpt><trkpt lat="37.6677071872456" lon="-2.95281294519784"><ele>818.0</ele><time>2026-04-21T10:32:50Z</time></trkpt><trkpt lat="37.66752989153163" lon="-2.9527974795791656"><ele>818.0</ele><time>2026-04-21T10:32:51Z</time></trkpt><trkpt lat="37.667348852225125" lon="-2.952781022031234"><ele>818.0</ele><time>2026-04-21T10:32:52Z</time></trkpt><trkpt lat="37.66716778955128" lon="-2.9527630315383853"><ele>818.0</ele><time>2026-04-21T10:32:53Z</time></trkpt><trkpt lat="37.6669861970026" lon="-2.9527401742358044"><ele>818.0</ele><time>2026-04-21T10:32:54Z</time></trkpt><trkpt lat="37.66680296035847" lon="-2.9527165964218924"><ele>818.0</ele><time>2026-04-21T10:32:55Z</time></trkpt><trkpt lat="37.66661926162677" lon="-2.9526943973539623"><ele>818.0</ele><time>2026-04-21T10:32:56Z</time></trkpt><trkpt lat="37.666438177421384" lon="-2.952675445637159"><ele>818.0</ele><time>2026-04-21T10:32:57Z</time></trkpt><trkpt lat="37.66625442018204" lon="-2.9526602521919028"><ele>818.3333333333334</ele><time>2026-04-21T10:32:58Z</time></trkpt><trkpt lat="37.666075843245956" lon="-2.9526469106872226"><ele>818.6666666666667</ele><time>2026-04-21T10:32:59Z</time></trkpt><trkpt lat="37.66589678954684" lon="-2.952633113747808"><ele>819.0</ele><time>2026-04-21T10:33:00Z</time></trkpt><trkpt lat="37.665717505438586" lon="-2.952615993781511"><ele>819.0</ele><time>2026-04-21T10:33:01Z</time></trkpt><trkpt lat="37.66553704186307" lon="-2.952599488325033"><ele>819.0</ele><time>2026-04-21T10:33:02Z</time></trkpt><trkpt lat="37.66536969399752" lon="-2.952580368770211"><ele>819.0</ele><time>2026-04-21T10:33:03Z</time></trkpt><trkpt lat="37.66522175680869" lon="-2.952559622802151"><ele>818.5</ele><time>2026-04-21T10:33:04Z</time></trkpt><trkpt lat="37.66508322098443" lon="-2.9525434856036377"><ele>818.0</ele><time>2026-04-21T10:33:05Z</time></trkpt><trkpt lat="37.6649515400407" lon="-2.9525328663895047"><ele>817.5</ele><time>2026-04-21T10:33:06Z</time></trkpt><trkpt lat="37.664827318687635" lon="-2.9525190271921904"><ele>817.0</ele><time>2026-04-21T10:33:07Z</time></trkpt><trkpt lat="37.66471237628931" lon="-2.952509767163558"><ele>817.6</ele><time>2026-04-21T10:33:08Z</time></trkpt><trkpt lat="37.66460100048285" lon="-2.952498374792023"><ele>818.2</ele><time>2026-04-21T10:33:09Z</time></trkpt><trkpt lat="37.66449388088457" lon="-2.9524847486295585"><ele>818.8</ele><time>2026-04-21T10:33:10Z</time></trkpt><trkpt lat="37.66438932026538" lon="-2.952471715100743"><ele>819.4</ele><time>2026-04-21T10:33:11Z</time></trkpt><trkpt lat="37.66429055606345" lon="-2.952465842070135"><ele>820.0</ele><time>2026-04-21T10:33:12Z</time></trkpt><trkpt lat="37.66421933738711" lon="-2.952452580989401"><ele>820.0</ele><time>2026-04-21T10:33:13Z</time></trkpt><trkpt lat="37.664109417434425" lon="-2.952480914621022"><ele>820.0</ele><time>2026-04-21T10:33:15Z</time></trkpt><trkpt lat="37.66405547756595" lon="-2.9526052433680383"><ele>820.0</ele><time>2026-04-21T10:33:17Z</time></trkpt><trkpt lat="37.66403759840193" lon="-2.9526864211828063"><ele>820.0</ele><time>2026-04-21T10:33:18Z</time></trkpt><trkpt lat="37.6640078191606" lon="-2.9527829876416574"><ele>820.0</ele><time>2026-04-21T10:33:19Z</time></trkpt><trkpt lat="37.66398325559595" lon="-2.952897547680815"><ele>820.2</ele><time>2026-04-21T10:33:20Z</time></trkpt><trkpt lat="37.66395405810508" lon="-2.953021894400516"><ele>820.4</ele><time>2026-04-21T10:33:21Z</time></trkpt><trkpt lat="37.66391521242202" lon="-2.953149504987298"><ele>820.5999999999999</ele><time>2026-04-21T10:33:22Z</time></trkpt><trkpt lat="37.66386036277418" lon="-2.953271879199194"><ele>820.8</ele><time>2026-04-21T10:33:23Z</time></trkpt><trkpt lat="37.66378243784534" lon="-2.953369604613191"><ele>821.0</ele><time>2026-04-21T10:33:24Z</time></trkpt><trkpt lat="37.66367879212115" lon="-2.953447918893586"><ele>821.0</ele><time>2026-04-21T10:33:25Z</time></trkpt><trkpt lat="37.66355722358297" lon="-2.9535113045748704"><ele>821.0</ele><time>2026-04-21T10:33:26Z</time></trkpt><trkpt lat="37.66342624819434" lon="-2.953563036353979"><ele>821.0</ele><time>2026-04-21T10:33:27Z</time></trkpt><trkpt lat="37.663283797939805" lon="-2.9536070487766355"><ele>821.0</ele><time>2026-04-21T10:33:28Z</time></trkpt><trkpt lat="37.663136395994165" lon="-2.9536706675236153"><ele>821.0</ele><time>2026-04-21T10:33:29Z</time></trkpt><trkpt lat="37.66298336564324" lon="-2.9537327084565224"><ele>821.0</ele><time>2026-04-21T10:33:30Z</time></trkpt><trkpt lat="37.66282460443717" lon="-2.9537997609133675"><ele>821.0</ele><time>2026-04-21T10:33:31Z</time></trkpt><trkpt lat="37.662670492927305" lon="-2.9538663929118263"><ele>822.0</ele><time>2026-04-21T10:33:32Z</time></trkpt><trkpt lat="37.66251416020313" lon="-2.9539305994225526"><ele>823.0</ele><time>2026-04-21T10:33:32.999Z</time></trkpt><trkpt lat="37.66235688533718" lon="-2.953998526875097"><ele>824.0</ele><time>2026-04-21T10:33:33.999Z</time></trkpt><trkpt lat="37.66221413621232" lon="-2.95411120561981"><ele>823.6666666666667</ele><time>2026-04-21T10:33:34.999Z</time></trkpt><trkpt lat="37.66206082428317" lon="-2.954220769643887"><ele>823.3333333333333</ele><time>2026-04-21T10:33:35.999Z</time></trkpt><trkpt lat="37.66193226924738" lon="-2.954358534377414"><ele>823.0</ele><time>2026-04-21T10:33:36.999Z</time></trkpt><trkpt lat="37.661800159540995" lon="-2.954478958064351"><ele>823.6666666666666</ele><time>2026-04-21T10:33:37.999Z</time></trkpt><trkpt lat="37.661661387752595" lon="-2.954579875189023"><ele>824.3333333333333</ele><time>2026-04-21T10:33:38.999Z</time></trkpt><trkpt lat="37.66153495420493" lon="-2.954702510011773"><ele>825.0</ele><time>2026-04-21T10:33:39.999Z</time></trkpt><trkpt lat="37.66141437960527" lon="-2.954829302479045"><ele>825.0</ele><time>2026-04-21T10:33:40.999Z</time></trkpt><trkpt lat="37.661304210115084" lon="-2.954979703780829"><ele>825.0</ele><time>2026-04-21T10:33:41.999Z</time></trkpt><trkpt lat="37.66122657256795" lon="-2.9551548665004215"><ele>825.0</ele><time>2026-04-21T10:33:42.999Z</time></trkpt><trkpt lat="37.6611338249916" lon="-2.9552996050205063"><ele>824.5</ele><time>2026-04-21T10:33:43.999Z</time></trkpt><trkpt lat="37.66107084966071" lon="-2.955466553395442"><ele>824.0</ele><time>2026-04-21T10:33:44.999Z</time></trkpt><trkpt lat="37.660989869047626" lon="-2.9556249484010966"><ele>823.5</ele><time>2026-04-21T10:33:45.999Z</time></trkpt><trkpt lat="37.660945136174625" lon="-2.9558034647757045"><ele>823.0</ele><time>2026-04-21T10:33:46.999Z</time></trkpt><trkpt lat="37.66094451339638" lon="-2.9559939890704374"><ele>822.3333333333333</ele><time>2026-04-21T10:33:47.999Z</time></trkpt><trkpt lat="37.660943324863645" lon="-2.9561915601488717"><ele>821.6666666666667</ele><time>2026-04-21T10:33:48.999Z</time></trkpt><trkpt lat="37.66092997682098" lon="-2.9563982328935134"><ele>821.0</ele><time>2026-04-21T10:33:49.999Z</time></trkpt><trkpt lat="37.66094896425431" lon="-2.9566147185014713"><ele>820.0</ele><time>2026-04-21T10:33:50.999Z</time></trkpt><trkpt lat="37.66095213903802" lon="-2.9568529420397938"><ele>819.0</ele><time>2026-04-21T10:33:51.999Z</time></trkpt><trkpt lat="37.66095519979284" lon="-2.957082609324872"><ele>818.0</ele><time>2026-04-21T10:33:52.999Z</time></trkpt><trkpt lat="37.6609576555568" lon="-2.9573144374683222"><ele>818.0</ele><time>2026-04-21T10:33:53.999Z</time></trkpt><trkpt lat="37.660959482114166" lon="-2.9575311128049533"><ele>818.0</ele><time>2026-04-21T10:33:54.999Z</time></trkpt><trkpt lat="37.660960718876126" lon="-2.9577317571200243"><ele>818.0</ele><time>2026-04-21T10:33:55.999Z</time></trkpt><trkpt lat="37.66094774146471" lon="-2.95791697795481"><ele>819.0</ele><time>2026-04-21T10:33:56.999Z</time></trkpt><trkpt lat="37.660950214716394" lon="-2.9580943694367106"><ele>820.0</ele><time>2026-04-21T10:33:57.999Z</time></trkpt><trkpt lat="37.66094962873175" lon="-2.9582656332571693"><ele>821.0</ele><time>2026-04-21T10:33:58.999Z</time></trkpt><trkpt lat="37.66095679579273" lon="-2.9584303443300977"><ele>822.0</ele><time>2026-04-21T10:33:59.999Z</time></trkpt><trkpt lat="37.660916496448955" lon="-2.9585881190670036"><ele>822.0</ele><time>2026-04-21T10:34:00.999Z</time></trkpt><trkpt lat="37.660851164071076" lon="-2.9587346745196004"><ele>822.0</ele><time>2026-04-21T10:34:01.999Z</time></trkpt><trkpt lat="37.660754870201814" lon="-2.9588750725378636"><ele>822.0</ele><time>2026-04-21T10:34:02.999Z</time></trkpt><trkpt lat="37.66063806077372" lon="-2.959012963461748"><ele>822.0</ele><time>2026-04-21T10:34:03.999Z</time></trkpt><trkpt lat="37.66051428068428" lon="-2.9591633269971407"><ele>821.3333333333333</ele><time>2026-04-21T10:34:04.999Z</time></trkpt><trkpt lat="37.660383873727106" lon="-2.9593276628787253"><ele>820.6666666666666</ele><time>2026-04-21T10:34:05.999Z</time></trkpt><trkpt lat="37.66025549591464" lon="-2.9594969122205934"><ele>820.0</ele><time>2026-04-21T10:34:06.999Z</time></trkpt><trkpt lat="37.66012715627628" lon="-2.9596712206169165"><ele>820.6666666666666</ele><time>2026-04-21T10:34:07.999Z</time></trkpt><trkpt lat="37.660012524523964" lon="-2.9598170950671525"><ele>821.3333333333333</ele><time>2026-04-21T10:34:08.999Z</time></trkpt><trkpt lat="37.65989906756746" lon="-2.9599646605763508"><ele>822.0</ele><time>2026-04-21T10:34:09.999Z</time></trkpt><trkpt lat="37.65978923453367" lon="-2.9601093520416626"><ele>822.0</ele><time>2026-04-21T10:34:10.999Z</time></trkpt><trkpt lat="37.65967937425569" lon="-2.9602480902416404"><ele>822.0</ele><time>2026-04-21T10:34:11.999Z</time></trkpt><trkpt lat="37.65958546866244" lon="-2.9603706573605346"><ele>822.0</ele><time>2026-04-21T10:34:12.999Z</time></trkpt><trkpt lat="37.65951325244028" lon="-2.9604676917707855"><ele>822.0</ele><time>2026-04-21T10:34:13.999Z</time></trkpt><trkpt lat="37.65945265639883" lon="-2.9605487677289366"><ele>821.8</ele><time>2026-04-21T10:34:14.999Z</time></trkpt><trkpt lat="37.659411432077505" lon="-2.9606352521959796"><ele>821.6</ele><time>2026-04-21T10:34:15.999Z</time></trkpt><trkpt lat="37.65930820750645" lon="-2.9606591350863924"><ele>821.4</ele><time>2026-04-21T10:34:16.999Z</time></trkpt><trkpt lat="37.6592252992471" lon="-2.9607051383600442"><ele>821.1999999999999</ele><time>2026-04-21T10:34:17.999Z</time></trkpt><trkpt lat="37.65918804351914" lon="-2.9608675400421336"><ele>821.0</ele><time>2026-04-21T10:34:18.999Z</time></trkpt><trkpt lat="37.659112800897745" lon="-2.9609860212112844"><ele>821.75</ele><time>2026-04-21T10:34:19.999Z</time></trkpt><trkpt lat="37.6590401172387" lon="-2.961100472768123"><ele>822.5</ele><time>2026-04-21T10:34:20.999Z</time></trkpt><trkpt lat="37.65896527109804" lon="-2.9612183294915724"><ele>823.25</ele><time>2026-04-21T10:34:21.999Z</time></trkpt><trkpt lat="37.65888738768682" lon="-2.9613401478412174"><ele>824.0</ele><time>2026-04-21T10:34:22.999Z</time></trkpt><trkpt lat="37.65880350615875" lon="-2.961465126876156"><ele>824.0</ele><time>2026-04-21T10:34:23.999Z</time></trkpt><trkpt lat="37.65870245286536" lon="-2.96157822098416"><ele>824.0</ele><time>2026-04-21T10:34:24.999Z</time></trkpt><trkpt lat="37.6586104865532" lon="-2.9617067856767423"><ele>824.0</ele><time>2026-04-21T10:34:25.999Z</time></trkpt><trkpt lat="37.65850986296915" lon="-2.9618169107710663"><ele>824.0</ele><time>2026-04-21T10:34:26.999Z</time></trkpt><trkpt lat="37.658424950996356" lon="-2.961946601630346"><ele>825.0</ele><time>2026-04-21T10:34:27.999Z</time></trkpt><trkpt lat="37.65832626953707" lon="-2.9620609503755073"><ele>826.0</ele><time>2026-04-21T10:34:28.999Z</time></trkpt><trkpt lat="37.6582135005712" lon="-2.962164692947058"><ele>827.0</ele><time>2026-04-21T10:34:29.999Z</time></trkpt><trkpt lat="37.65811126654554" lon="-2.9622857505248468"><ele>828.0</ele><time>2026-04-21T10:34:30.999Z</time></trkpt><trkpt lat="37.65800030850316" lon="-2.9624041879507734"><ele>829.0</ele><time>2026-04-21T10:34:31.999Z</time></trkpt><trkpt lat="37.657889503736676" lon="-2.9625318332566675"><ele>830.0</ele><time>2026-04-21T10:34:32.999Z</time></trkpt><trkpt lat="37.65776698491748" lon="-2.962652945450738"><ele>831.0</ele><time>2026-04-21T10:34:33.999Z</time></trkpt><trkpt lat="37.657643155059745" lon="-2.9627858447457953"><ele>831.3333333333333</ele><time>2026-04-21T10:34:34.999Z</time></trkpt><trkpt lat="37.65753376140394" lon="-2.962934926570752"><ele>831.6666666666666</ele><time>2026-04-21T10:34:35.999Z</time></trkpt><trkpt lat="37.657401044067946" lon="-2.9630657759065318"><ele>832.0</ele><time>2026-04-21T10:34:36.999Z</time></trkpt><trkpt lat="37.65727031201383" lon="-2.9632143154076274"><ele>832.6666666666666</ele><time>2026-04-21T10:34:37.999Z</time></trkpt><trkpt lat="37.65713073253077" lon="-2.9633647808479946"><ele>833.3333333333333</ele><time>2026-04-21T10:34:38.999Z</time></trkpt><trkpt lat="37.65699623795539" lon="-2.9635149402265806"><ele>834.0</ele><time>2026-04-21T10:34:39.999Z</time></trkpt><trkpt lat="37.656830957362985" lon="-2.9636131603792846"><ele>834.0</ele><time>2026-04-21T10:34:40.999Z</time></trkpt><trkpt lat="37.65666643292051" lon="-2.9637233988369927"><ele>834.0</ele><time>2026-04-21T10:34:41.999Z</time></trkpt><trkpt lat="37.65650363126669" lon="-2.9638425079207735"><ele>834.0</ele><time>2026-04-21T10:34:42.999Z</time></trkpt><trkpt lat="37.656356406260585" lon="-2.963973352221167"><ele>834.0</ele><time>2026-04-21T10:34:44Z</time></trkpt><trkpt lat="37.65621488437524" lon="-2.964104975159741"><ele>834.0</ele><time>2026-04-21T10:34:45Z</time></trkpt><trkpt lat="37.65607254804199" lon="-2.9642257883935996"><ele>834.0</ele><time>2026-04-21T10:34:46Z</time></trkpt><trkpt lat="37.65593807138259" lon="-2.9643383090756377"><ele>834.3333333333333</ele><time>2026-04-21T10:34:47Z</time></trkpt><trkpt lat="37.655800950629775" lon="-2.964412217674329"><ele>834.6666666666666</ele><time>2026-04-21T10:34:48Z</time></trkpt><trkpt lat="37.6556513527048" lon="-2.964474386088987"><ele>835.0</ele><time>2026-04-21T10:34:49Z</time></trkpt><trkpt lat="37.65546639780745" lon="-2.9645001122013968"><ele>835.0</ele><time>2026-04-21T10:34:50Z</time></trkpt><trkpt lat="37.65529166836754" lon="-2.964506976115743"><ele>835.0</ele><time>2026-04-21T10:34:51Z</time></trkpt><trkpt lat="37.655153734817596" lon="-2.964533319456628"><ele>835.0</ele><time>2026-04-21T10:34:52Z</time></trkpt><trkpt lat="37.6550068239137" lon="-2.9645289610032775"><ele>835.0</ele><time>2026-04-21T10:34:53Z</time></trkpt><trkpt lat="37.65484863588057" lon="-2.9645024285834074"><ele>835.0</ele><time>2026-04-21T10:34:54Z</time></trkpt><trkpt lat="37.65468122776904" lon="-2.9644457233640185"><ele>835.0</ele><time>2026-04-21T10:34:55Z</time></trkpt><trkpt lat="37.65452082365506" lon="-2.964392556492275"><ele>835.6666666666666</ele><time>2026-04-21T10:34:56Z</time></trkpt><trkpt lat="37.65436842823876" lon="-2.964418179048543"><ele>836.3333333333333</ele><time>2026-04-21T10:34:57Z</time></trkpt><trkpt lat="37.65420959264814" lon="-2.964442763706562"><ele>837.0</ele><time>2026-04-21T10:34:58Z</time></trkpt><trkpt lat="37.65405690054021" lon="-2.964476513546728"><ele>837.0</ele><time>2026-04-21T10:34:59Z</time></trkpt><trkpt lat="37.65391218894182" lon="-2.96454223310217"><ele>837.0</ele><time>2026-04-21T10:35:00Z</time></trkpt><trkpt lat="37.653792296861766" lon="-2.964637061822872"><ele>837.0</ele><time>2026-04-21T10:35:01Z</time></trkpt><trkpt lat="37.65371471365635" lon="-2.964778826538692"><ele>837.0</ele><time>2026-04-21T10:35:02Z</time></trkpt><trkpt lat="37.65361294666761" lon="-2.9649395331399986"><ele>839.0</ele><time>2026-04-21T10:35:03Z</time></trkpt><trkpt lat="37.65348900784432" lon="-2.9650603215960847"><ele>841.0</ele><time>2026-04-21T10:35:04Z</time></trkpt><trkpt lat="37.65333999254347" lon="-2.965121294436585"><ele>843.0</ele><time>2026-04-21T10:35:05Z</time></trkpt><trkpt lat="37.653190218162166" lon="-2.9651956207030454"><ele>843.0</ele><time>2026-04-21T10:35:06Z</time></trkpt><trkpt lat="37.653042510498345" lon="-2.965281532102153"><ele>843.0</ele><time>2026-04-21T10:35:07Z</time></trkpt><trkpt lat="37.65290185659279" lon="-2.9653934570141725"><ele>843.0</ele><time>2026-04-21T10:35:08Z</time></trkpt><trkpt lat="37.65274053831949" lon="-2.9654671458397828"><ele>842.3333333333333</ele><time>2026-04-21T10:35:09Z</time></trkpt><trkpt lat="37.65258225032671" lon="-2.965553903472215"><ele>841.6666666666666</ele><time>2026-04-21T10:35:10Z</time></trkpt><trkpt lat="37.652423821134285" lon="-2.965658594521442"><ele>841.0</ele><time>2026-04-21T10:35:11Z</time></trkpt><trkpt lat="37.65225186260718" lon="-2.9657296780373623"><ele>841.0</ele><time>2026-04-21T10:35:12Z</time></trkpt><trkpt lat="37.65209922749092" lon="-2.9658520000435447"><ele>841.0</ele><time>2026-04-21T10:35:13Z</time></trkpt><trkpt lat="37.65197937377424" lon="-2.9659805479596844"><ele>841.0</ele><time>2026-04-21T10:35:14Z</time></trkpt><trkpt lat="37.65186164553894" lon="-2.9661105372313523"><ele>841.0</ele><time>2026-04-21T10:35:15Z</time></trkpt><trkpt lat="37.65172276429928" lon="-2.9661892759479693"><ele>841.0</ele><time>2026-04-21T10:35:16Z</time></trkpt><trkpt lat="37.65157756159991" lon="-2.96627783669806"><ele>841.0</ele><time>2026-04-21T10:35:17Z</time></trkpt><trkpt lat="37.651415286381486" lon="-2.966329221679737"><ele>841.0</ele><time>2026-04-21T10:35:18Z</time></trkpt><trkpt lat="37.65124765738417" lon="-2.96637409484451"><ele>841.0</ele><time>2026-04-21T10:35:19Z</time></trkpt><trkpt lat="37.6510727150337" lon="-2.9664268774651057"><ele>841.0</ele><time>2026-04-21T10:35:20Z</time></trkpt><trkpt lat="37.650922796405304" lon="-2.966482343100542"><ele>840.75</ele><time>2026-04-21T10:35:21Z</time></trkpt><trkpt lat="37.65079225791982" lon="-2.9665335819548497"><ele>840.5</ele><time>2026-04-21T10:35:22Z</time></trkpt><trkpt lat="37.65066535596292" lon="-2.9666027371875554"><ele>840.25</ele><time>2026-04-21T10:35:23Z</time></trkpt><trkpt lat="37.65054103432947" lon="-2.9667037743942415"><ele>840.0</ele><time>2026-04-21T10:35:24Z</time></trkpt><trkpt lat="37.65040505700745" lon="-2.9668203186290323"><ele>840.0</ele><time>2026-04-21T10:35:25Z</time></trkpt><trkpt lat="37.65025283326225" lon="-2.966928950639567"><ele>840.0</ele><time>2026-04-21T10:35:26Z</time></trkpt><trkpt lat="37.65010880784648" lon="-2.9670423921566242"><ele>840.0</ele><time>2026-04-21T10:35:27Z</time></trkpt><trkpt lat="37.649965285287976" lon="-2.9671413933186694"><ele>840.0</ele><time>2026-04-21T10:35:28Z</time></trkpt><trkpt lat="37.64981796805193" lon="-2.9672333708338146"><ele>840.0</ele><time>2026-04-21T10:35:29Z</time></trkpt><trkpt lat="37.64967033806853" lon="-2.9673301092502453"><ele>840.0</ele><time>2026-04-21T10:35:30Z</time></trkpt><trkpt lat="37.64951902742716" lon="-2.967426154198187"><ele>840.0</ele><time>2026-04-21T10:35:31Z</time></trkpt><trkpt lat="37.64936471506057" lon="-2.9675183319133587"><ele>840.0</ele><time>2026-04-21T10:35:32Z</time></trkpt><trkpt lat="37.64920658297973" lon="-2.967601550389695"><ele>840.0</ele><time>2026-04-21T10:35:33Z</time></trkpt><trkpt lat="37.64904300427614" lon="-2.967683459471531"><ele>840.3333333333333</ele><time>2026-04-21T10:35:34Z</time></trkpt><trkpt lat="37.64887619879163" lon="-2.9677548622619456"><ele>840.6666666666666</ele><time>2026-04-21T10:35:35Z</time></trkpt><trkpt lat="37.648703173197376" lon="-2.9678009269382652"><ele>841.0</ele><time>2026-04-21T10:35:36Z</time></trkpt><trkpt lat="37.64852437053646" lon="-2.9678247566773"><ele>841.3333333333333</ele><time>2026-04-21T10:35:37Z</time></trkpt><trkpt lat="37.64834002006467" lon="-2.9678515401292516"><ele>841.6666666666667</ele><time>2026-04-21T10:35:38Z</time></trkpt><trkpt lat="37.64816412599107" lon="-2.9678905177599595"><ele>842.0</ele><time>2026-04-21T10:35:39Z</time></trkpt><trkpt lat="37.6479861638191" lon="-2.96794161172609"><ele>842.0</ele><time>2026-04-21T10:35:40Z</time></trkpt><trkpt lat="37.64781827990288" lon="-2.96801685523041"><ele>842.0</ele><time>2026-04-21T10:35:41Z</time></trkpt><trkpt lat="37.64764477759866" lon="-2.968099972075326"><ele>842.0</ele><time>2026-04-21T10:35:42Z</time></trkpt><trkpt lat="37.647474788556224" lon="-2.9681947637166024"><ele>842.3333333333334</ele><time>2026-04-21T10:35:43Z</time></trkpt><trkpt lat="37.64730646228727" lon="-2.9683109569662625"><ele>842.6666666666667</ele><time>2026-04-21T10:35:43.999Z</time></trkpt><trkpt lat="37.647128542465374" lon="-2.968387310172567"><ele>843.0</ele><time>2026-04-21T10:35:44.999Z</time></trkpt><trkpt lat="37.64694966542342" lon="-2.9684778022399856"><ele>843.3333333333333</ele><time>2026-04-21T10:35:45.999Z</time></trkpt><trkpt lat="37.6467660801098" lon="-2.9685586572014606"><ele>843.6666666666666</ele><time>2026-04-21T10:35:46.999Z</time></trkpt><trkpt lat="37.646583953753556" lon="-2.9686562853220817"><ele>844.0</ele><time>2026-04-21T10:35:47.999Z</time></trkpt><trkpt lat="37.646393874273784" lon="-2.968713295814203"><ele>844.0</ele><time>2026-04-21T10:35:48.999Z</time></trkpt><trkpt lat="37.64620469897425" lon="-2.968795356909464"><ele>844.0</ele><time>2026-04-21T10:35:49.999Z</time></trkpt><trkpt lat="37.64602975852272" lon="-2.9689160526129035"><ele>844.0</ele><time>2026-04-21T10:35:50.999Z</time></trkpt><trkpt lat="37.645851829521185" lon="-2.9690309629108826"><ele>844.0</ele><time>2026-04-21T10:35:51.999Z</time></trkpt><trkpt lat="37.645663132760866" lon="-2.9691201990202285"><ele>844.0</ele><time>2026-04-21T10:35:52.999Z</time></trkpt><trkpt lat="37.64547993569582" lon="-2.9692141851436227"><ele>844.0</ele><time>2026-04-21T10:35:53.999Z</time></trkpt><trkpt lat="37.645295434168446" lon="-2.969290004434856"><ele>844.0</ele><time>2026-04-21T10:35:54.999Z</time></trkpt><trkpt lat="37.645110602996965" lon="-2.9693619835355376"><ele>844.0</ele><time>2026-04-21T10:35:55.999Z</time></trkpt><trkpt lat="37.644931338887815" lon="-2.9694424815643012"><ele>844.0</ele><time>2026-04-21T10:35:56.999Z</time></trkpt><trkpt lat="37.64475399593735" lon="-2.969533182634853"><ele>844.0</ele><time>2026-04-21T10:35:57.999Z</time></trkpt><trkpt lat="37.644585467659084" lon="-2.9696512709352443"><ele>844.0</ele><time>2026-04-21T10:35:58.999Z</time></trkpt><trkpt lat="37.64440168686578" lon="-2.9697301363396837"><ele>844.0</ele><time>2026-04-21T10:35:59.999Z</time></trkpt><trkpt lat="37.644223168755104" lon="-2.96982490113098"><ele>843.3333333333333</ele><time>2026-04-21T10:36:00.999Z</time></trkpt><trkpt lat="37.6440433580638" lon="-2.9699139522013387"><ele>842.6666666666667</ele><time>2026-04-21T10:36:01.999Z</time></trkpt><trkpt lat="37.643862020912884" lon="-2.9700012692567945"><ele>842.0</ele><time>2026-04-21T10:36:02.999Z</time></trkpt><trkpt lat="37.64367883198034" lon="-2.9700912319774595"><ele>841.6666666666667</ele><time>2026-04-21T10:36:03.999Z</time></trkpt><trkpt lat="37.64349656504053" lon="-2.970177804135012"><ele>841.3333333333333</ele><time>2026-04-21T10:36:04.999Z</time></trkpt><trkpt lat="37.643311371381415" lon="-2.97025943495092"><ele>841.0</ele><time>2026-04-21T10:36:05.999Z</time></trkpt><trkpt lat="37.64312401125584" lon="-2.970336722598094"><ele>841.0</ele><time>2026-04-21T10:36:06.999Z</time></trkpt><trkpt lat="37.642933708310345" lon="-2.970407048388233"><ele>841.0</ele><time>2026-04-21T10:36:07.999Z</time></trkpt><trkpt lat="37.642751308823016" lon="-2.9704749008145748"><ele>841.0</ele><time>2026-04-21T10:36:08.999Z</time></trkpt><trkpt lat="37.642586546745164" lon="-2.970539996281006"><ele>840.6666666666666</ele><time>2026-04-21T10:36:09.999Z</time></trkpt><trkpt lat="37.6424269948944" lon="-2.9706126714450463"><ele>840.3333333333333</ele><time>2026-04-21T10:36:10.999Z</time></trkpt><trkpt lat="37.64227220401182" lon="-2.970693805236279"><ele>840.0</ele><time>2026-04-21T10:36:11.999Z</time></trkpt><trkpt lat="37.64212722965723" lon="-2.970822408402716"><ele>840.0</ele><time>2026-04-21T10:36:12.999Z</time></trkpt><trkpt lat="37.64199791332075" lon="-2.9709353615716996"><ele>840.0</ele><time>2026-04-21T10:36:13.999Z</time></trkpt><trkpt lat="37.6418750205404" lon="-2.971035828466412"><ele>840.0</ele><time>2026-04-21T10:36:14.999Z</time></trkpt><trkpt lat="37.6417661880672" lon="-2.9711714071309685"><ele>839.0</ele><time>2026-04-21T10:36:15.999Z</time></trkpt><trkpt lat="37.64166568893336" lon="-2.971325436114699"><ele>838.0</ele><time>2026-04-21T10:36:16.999Z</time></trkpt><trkpt lat="37.641568212728004" lon="-2.9714937065637983"><ele>837.0</ele><time>2026-04-21T10:36:17.999Z</time></trkpt><trkpt lat="37.64150400968256" lon="-2.9716679751667403"><ele>835.75</ele><time>2026-04-21T10:36:18.999Z</time></trkpt><trkpt lat="37.641420500745454" lon="-2.971817484548123"><ele>834.5</ele><time>2026-04-21T10:36:19.999Z</time></trkpt><trkpt lat="37.641316864181846" lon="-2.971926301259116"><ele>833.25</ele><time>2026-04-21T10:36:20.999Z</time></trkpt><trkpt lat="37.641210159396806" lon="-2.972033317601894"><ele>832.0</ele><time>2026-04-21T10:36:21.999Z</time></trkpt><trkpt lat="37.641084681865834" lon="-2.9721148444989445"><ele>831.0</ele><time>2026-04-21T10:36:22.999Z</time></trkpt><trkpt lat="37.640936604105846" lon="-2.972165468405826"><ele>830.0</ele><time>2026-04-21T10:36:23.999Z</time></trkpt><trkpt lat="37.64078090711284" lon="-2.972200141599936"><ele>829.0</ele><time>2026-04-21T10:36:24.999Z</time></trkpt><trkpt lat="37.64061481722915" lon="-2.9722161134810436"><ele>829.0</ele><time>2026-04-21T10:36:25.999Z</time></trkpt><trkpt lat="37.64045018637945" lon="-2.972262554809277"><ele>829.0</ele><time>2026-04-21T10:36:26.999Z</time></trkpt><trkpt lat="37.64028602554633" lon="-2.972311505894659"><ele>829.0</ele><time>2026-04-21T10:36:27.999Z</time></trkpt><trkpt lat="37.64012598838197" lon="-2.9723576855287317"><ele>829.0</ele><time>2026-04-21T10:36:28.999Z</time></trkpt><trkpt lat="37.63997238888291" lon="-2.972396211389846"><ele>829.0</ele><time>2026-04-21T10:36:29.999Z</time></trkpt><trkpt lat="37.639834520637606" lon="-2.972504007171039"><ele>829.0</ele><time>2026-04-21T10:36:30.999Z</time></trkpt><trkpt lat="37.63969030403413" lon="-2.9726220209312"><ele>828.3333333333333</ele><time>2026-04-21T10:36:31.999Z</time></trkpt><trkpt lat="37.63955285578353" lon="-2.9727626550143675"><ele>827.6666666666667</ele><time>2026-04-21T10:36:32.999Z</time></trkpt><trkpt lat="37.63940592318899" lon="-2.9729149707728832"><ele>827.0</ele><time>2026-04-21T10:36:33.999Z</time></trkpt><trkpt lat="37.63924477355487" lon="-2.9730512950817753"><ele>826.6666666666667</ele><time>2026-04-21T10:36:34.999Z</time></trkpt><trkpt lat="37.6390937248192" lon="-2.9732004636032254"><ele>826.3333333333333</ele><time>2026-04-21T10:36:35.999Z</time></trkpt><trkpt lat="37.63894565609649" lon="-2.973337820133307"><ele>826.0</ele><time>2026-04-21T10:36:36.999Z</time></trkpt><trkpt lat="37.638805450099156" lon="-2.973464822326874"><ele>826.0</ele><time>2026-04-21T10:36:37.999Z</time></trkpt><trkpt lat="37.6386925911195" lon="-2.9736198632831576"><ele>826.0</ele><time>2026-04-21T10:36:38.999Z</time></trkpt><trkpt lat="37.63857587664437" lon="-2.9737724631815925"><ele>826.0</ele><time>2026-04-21T10:36:39.999Z</time></trkpt><trkpt lat="37.63844677671811" lon="-2.973913044775152"><ele>825.5</ele><time>2026-04-21T10:36:40.999Z</time></trkpt><trkpt lat="37.6383351411692" lon="-2.9740576206203797"><ele>825.0</ele><time>2026-04-21T10:36:41.999Z</time></trkpt><trkpt lat="37.63824230383917" lon="-2.974174387995947"><ele>824.5</ele><time>2026-04-21T10:36:42.999Z</time></trkpt><trkpt lat="37.63817191153093" lon="-2.974251473709809"><ele>824.0</ele><time>2026-04-21T10:36:43.999Z</time></trkpt><trkpt lat="37.63809640479667" lon="-2.9743383026297034"><ele>824.0</ele><time>2026-04-21T10:36:45.999Z</time></trkpt><trkpt lat="37.63801792678889" lon="-2.9743901162526742"><ele>824.0</ele><time>2026-04-21T10:36:48.999Z</time></trkpt><trkpt lat="37.637943773760895" lon="-2.9744594758280303"><ele>824.0</ele><time>2026-04-21T10:36:52Z</time></trkpt><trkpt lat="37.637858464061935" lon="-2.9745462779601817"><ele>824.0</ele><time>2026-04-21T10:36:54Z</time></trkpt><trkpt lat="37.63780461723097" lon="-2.974600218165994"><ele>824.0</ele><time>2026-04-21T10:36:55Z</time></trkpt><trkpt lat="37.63773481282745" lon="-2.9746962302674596"><ele>824.0</ele><time>2026-04-21T10:36:57Z</time></trkpt><trkpt lat="37.63767026454182" lon="-2.974814641607818"><ele>824.0</ele><time>2026-04-21T10:36:59Z</time></trkpt><trkpt lat="37.63764559792508" lon="-2.974961135657652"><ele>824.0</ele><time>2026-04-21T10:37:01Z</time></trkpt><trkpt lat="37.63768486145033" lon="-2.9750761327819"><ele>824.0</ele><time>2026-04-21T10:37:03Z</time></trkpt><trkpt lat="37.6377695631076" lon="-2.9751856232209013"><ele>824.0000000000001</ele><time>2026-04-21T10:37:05Z</time></trkpt><trkpt lat="37.63782852642229" lon="-2.975241479842179"><ele>824.0</ele><time>2026-04-21T10:37:06Z</time></trkpt><trkpt lat="37.63788392625619" lon="-2.9753129372772738"><ele>824.0</ele><time>2026-04-21T10:37:07Z</time></trkpt><trkpt lat="37.637946665384995" lon="-2.975363942808464"><ele>824.0</ele><time>2026-04-21T10:37:08Z</time></trkpt><trkpt lat="37.63800951887053" lon="-2.975416206209951"><ele>824.0000000000001</ele><time>2026-04-21T10:37:09Z</time></trkpt><trkpt lat="37.63807293308303" lon="-2.97546689038971"><ele>824.0</ele><time>2026-04-21T10:37:10Z</time></trkpt><trkpt lat="37.63813638199228" lon="-2.9755145859330145"><ele>824.0000000000001</ele><time>2026-04-21T10:37:11Z</time></trkpt><trkpt lat="37.63820502872287" lon="-2.9755785249059787"><ele>824.0</ele><time>2026-04-21T10:37:12Z</time></trkpt><trkpt lat="37.63826614523192" lon="-2.9756401348860773"><ele>824.0</ele><time>2026-04-21T10:37:13Z</time></trkpt><trkpt lat="37.63832583117732" lon="-2.975714215570784"><ele>824.0</ele><time>2026-04-21T10:37:14Z</time></trkpt><trkpt lat="37.638384821980935" lon="-2.975791139231506"><ele>824.0000000000001</ele><time>2026-04-21T10:37:15Z</time></trkpt><trkpt lat="37.638431810554515" lon="-2.9758787673497133"><ele>824.0</ele><time>2026-04-21T10:37:16Z</time></trkpt><trkpt lat="37.638469841221834" lon="-2.975972264626685"><ele>824.0000000000001</ele><time>2026-04-21T10:37:17Z</time></trkpt><trkpt lat="37.63849625254774" lon="-2.976075777612909"><ele>824.0</ele><time>2026-04-21T10:37:18Z</time></trkpt><trkpt lat="37.638516263310485" lon="-2.9761715622366407"><ele>824.0</ele><time>2026-04-21T10:37:19Z</time></trkpt><trkpt lat="37.63853879031278" lon="-2.9762610094883604"><ele>824.0</ele><time>2026-04-21T10:37:20Z</time></trkpt><trkpt lat="37.638559725100066" lon="-2.976353065241921"><ele>824.0000000000001</ele><time>2026-04-21T10:37:21Z</time></trkpt><trkpt lat="37.63858348383663" lon="-2.9764448406594326"><ele>824.0</ele><time>2026-04-21T10:37:22Z</time></trkpt><trkpt lat="37.63860602143354" lon="-2.976539346937835"><ele>824.0</ele><time>2026-04-21T10:37:23Z</time></trkpt><trkpt lat="37.63863318901013" lon="-2.976640117905991"><ele>824.0</ele><time>2026-04-21T10:37:24Z</time></trkpt><trkpt lat="37.63866325133087" lon="-2.9767442720497046"><ele>824.0</ele><time>2026-04-21T10:37:25Z</time></trkpt><trkpt lat="37.63868185132801" lon="-2.976861694692978"><ele>824.0</ele><time>2026-04-21T10:37:26Z</time></trkpt><trkpt lat="37.63869816503909" lon="-2.9769820184293727"><ele>824.0</ele><time>2026-04-21T10:37:27Z</time></trkpt><trkpt lat="37.63871113036726" lon="-2.9771118130312075"><ele>823.4000000000001</ele><time>2026-04-21T10:37:28Z</time></trkpt><trkpt lat="37.638716972396864" lon="-2.9772411268562795"><ele>822.8</ele><time>2026-04-21T10:37:29Z</time></trkpt><trkpt lat="37.63871294826817" lon="-2.9773721439300265"><ele>822.2</ele><time>2026-04-21T10:37:30Z</time></trkpt><trkpt lat="37.63872042780833" lon="-2.9775089720931467"><ele>821.5999999999999</ele><time>2026-04-21T10:37:31Z</time></trkpt><trkpt lat="37.6387360780827" lon="-2.97764511683522"><ele>821.0</ele><time>2026-04-21T10:37:32Z</time></trkpt><trkpt lat="37.63872199214975" lon="-2.9777785655675255"><ele>820.0</ele><time>2026-04-21T10:37:33Z</time></trkpt><trkpt lat="37.63872467827173" lon="-2.9779067058993265"><ele>819.0</ele><time>2026-04-21T10:37:34Z</time></trkpt><trkpt lat="37.63872229039649" lon="-2.978033346952824"><ele>818.0</ele><time>2026-04-21T10:37:35Z</time></trkpt><trkpt lat="37.63872563768974" lon="-2.9781561932713343"><ele>817.0</ele><time>2026-04-21T10:37:36Z</time></trkpt><trkpt lat="37.638726552052326" lon="-2.978280476828316"><ele>816.0</ele><time>2026-04-21T10:37:37Z</time></trkpt><trkpt lat="37.638727180735366" lon="-2.978410463385692"><ele>815.1999999999999</ele><time>2026-04-21T10:37:38Z</time></trkpt><trkpt lat="37.63872850115078" lon="-2.9785482227244713"><ele>814.4</ele><time>2026-04-21T10:37:39Z</time></trkpt><trkpt lat="37.63872763629698" lon="-2.97868715947541"><ele>813.6</ele><time>2026-04-21T10:37:40Z</time></trkpt><trkpt lat="37.63873030334996" lon="-2.9788234907922524"><ele>812.8</ele><time>2026-04-21T10:37:41Z</time></trkpt><trkpt lat="37.63873223569612" lon="-2.978955170415841"><ele>812.0</ele><time>2026-04-21T10:37:42Z</time></trkpt><trkpt lat="37.63873024656624" lon="-2.979081403880124"><ele>810.2</ele><time>2026-04-21T10:37:43Z</time></trkpt><trkpt lat="37.63873180544369" lon="-2.9792076612185645"><ele>808.4000000000001</ele><time>2026-04-21T10:37:44Z</time></trkpt><trkpt lat="37.63874504884047" lon="-2.9793299536560975"><ele>806.5999999999999</ele><time>2026-04-21T10:37:45Z</time></trkpt><trkpt lat="37.6387752777742" lon="-2.979448904234838"><ele>804.8</ele><time>2026-04-21T10:37:46Z</time></trkpt><trkpt lat="37.63883921697164" lon="-2.9795532469900876"><ele>803.0</ele><time>2026-04-21T10:37:47Z</time></trkpt><trkpt lat="37.638894902203916" lon="-2.979669782910336"><ele>803.0</ele><time>2026-04-21T10:37:48Z</time></trkpt><trkpt lat="37.638979960915826" lon="-2.979785739996014"><ele>803.0</ele><time>2026-04-21T10:37:49Z</time></trkpt><trkpt lat="37.63906252343198" lon="-2.9799057459745213"><ele>803.0</ele><time>2026-04-21T10:37:50Z</time></trkpt><trkpt lat="37.639138557478006" lon="-2.980025475646188"><ele>803.0</ele><time>2026-04-21T10:37:51Z</time></trkpt><trkpt lat="37.639211625683295" lon="-2.9801399408459837"><ele>801.4</ele><time>2026-04-21T10:37:52Z</time></trkpt><trkpt lat="37.639281057524435" lon="-2.980254813128939"><ele>799.8</ele><time>2026-04-21T10:37:52.999Z</time></trkpt><trkpt lat="37.639351857011405" lon="-2.980368558016517"><ele>798.2</ele><time>2026-04-21T10:37:53.999Z</time></trkpt><trkpt lat="37.63941995605272" lon="-2.9804766732431713"><ele>796.6</ele><time>2026-04-21T10:37:54.999Z</time></trkpt><trkpt lat="37.63949273660318" lon="-2.980578521707047"><ele>795.0</ele><time>2026-04-21T10:37:55.999Z</time></trkpt><trkpt lat="37.63956121976042" lon="-2.980685835357576"><ele>795.0</ele><time>2026-04-21T10:37:56.999Z</time></trkpt><trkpt lat="37.639620422105644" lon="-2.980800175599461"><ele>795.0</ele><time>2026-04-21T10:37:57.999Z</time></trkpt><trkpt lat="37.639695062811974" lon="-2.980906212124489"><ele>795.0</ele><time>2026-04-21T10:37:58.999Z</time></trkpt><trkpt lat="37.63977199912395" lon="-2.9810019168514272"><ele>795.0</ele><time>2026-04-21T10:37:59.999Z</time></trkpt><trkpt lat="37.63986131880627" lon="-2.981071701862108"><ele>795.0</ele><time>2026-04-21T10:38:00.999Z</time></trkpt><trkpt lat="37.63995025181849" lon="-2.981146571296981"><ele>794.6666666666666</ele><time>2026-04-21T10:38:01.999Z</time></trkpt><trkpt lat="37.64002869311815" lon="-2.98122808820478"><ele>794.3333333333333</ele><time>2026-04-21T10:38:02.999Z</time></trkpt><trkpt lat="37.64010895355142" lon="-2.981292413126491"><ele>794.0</ele><time>2026-04-21T10:38:03.999Z</time></trkpt><trkpt lat="37.64017945389421" lon="-2.981348171806691"><ele>793.6666666666666</ele><time>2026-04-21T10:38:04.999Z</time></trkpt><trkpt lat="37.64025943988442" lon="-2.981394560929762"><ele>793.3333333333333</ele><time>2026-04-21T10:38:05.999Z</time></trkpt><trkpt lat="37.6403351218584" lon="-2.9814192414726737"><ele>793.0</ele><time>2026-04-21T10:38:06.999Z</time></trkpt><trkpt lat="37.640410441227445" lon="-2.981416471842635"><ele>793.0</ele><time>2026-04-21T10:38:07.999Z</time></trkpt><trkpt lat="37.64051049152385" lon="-2.9815215445394068"><ele>793.0</ele><time>2026-04-21T10:38:09.999Z</time></trkpt><trkpt lat="37.640509967242814" lon="-2.98163568721596"><ele>793.0</ele><time>2026-04-21T10:38:10.999Z</time></trkpt><trkpt lat="37.640469296526064" lon="-2.9817226798693657"><ele>793.0</ele><time>2026-04-21T10:38:11.999Z</time></trkpt><trkpt lat="37.64044154872586" lon="-2.9818180714339673"><ele>793.0</ele><time>2026-04-21T10:38:12.999Z</time></trkpt><trkpt lat="37.64041196175" lon="-2.981929823377986"><ele>793.2</ele><time>2026-04-21T10:38:13.999Z</time></trkpt><trkpt lat="37.6404103902496" lon="-2.9820538196943223"><ele>793.4</ele><time>2026-04-21T10:38:14.999Z</time></trkpt><trkpt lat="37.6404075157363" lon="-2.9821706885275496"><ele>793.6</ele><time>2026-04-21T10:38:15.999Z</time></trkpt><trkpt lat="37.64039622694297" lon="-2.982282022601921"><ele>793.8000000000001</ele><time>2026-04-21T10:38:16.999Z</time></trkpt><trkpt lat="37.64043544697557" lon="-2.9823933069902"><ele>794.0</ele><time>2026-04-21T10:38:17.999Z</time></trkpt><trkpt lat="37.6404677094744" lon="-2.982503937351822"><ele>792.8000000000001</ele><time>2026-04-21T10:38:18.999Z</time></trkpt><trkpt lat="37.640507370145095" lon="-2.982619403074532"><ele>791.6</ele><time>2026-04-21T10:38:19.999Z</time></trkpt><trkpt lat="37.64054079579592" lon="-2.9827535468451423"><ele>790.4</ele><time>2026-04-21T10:38:20.999Z</time></trkpt><trkpt lat="37.64059288693809" lon="-2.9828803036691345"><ele>789.2</ele><time>2026-04-21T10:38:21.999Z</time></trkpt><trkpt lat="37.64065231203365" lon="-2.983006437950188"><ele>788.0</ele><time>2026-04-21T10:38:22.999Z</time></trkpt><trkpt lat="37.640712428257" lon="-2.9831376281331163"><ele>788.0</ele><time>2026-04-21T10:38:23.999Z</time></trkpt><trkpt lat="37.64077547802419" lon="-2.9832629672138253"><ele>788.0</ele><time>2026-04-21T10:38:24.999Z</time></trkpt><trkpt lat="37.640833590494246" lon="-2.983384610613736"><ele>788.0</ele><time>2026-04-21T10:38:25.999Z</time></trkpt><trkpt lat="37.640895545961214" lon="-2.9835028608012344"><ele>788.0</ele><time>2026-04-21T10:38:26.999Z</time></trkpt><trkpt lat="37.64096325163064" lon="-2.9836217619893346"><ele>786.25</ele><time>2026-04-21T10:38:27.999Z</time></trkpt><trkpt lat="37.64103151475205" lon="-2.98374984331652"><ele>784.5</ele><time>2026-04-21T10:38:28.999Z</time></trkpt><trkpt lat="37.64105964974619" lon="-2.983908082853727"><ele>782.75</ele><time>2026-04-21T10:38:29.999Z</time></trkpt><trkpt lat="37.64108790068502" lon="-2.9840622980852562"><ele>781.0</ele><time>2026-04-21T10:38:30.999Z</time></trkpt><trkpt lat="37.64110755654284" lon="-2.984214158414226"><ele>780.5999999999999</ele><time>2026-04-21T10:38:31.999Z</time></trkpt><trkpt lat="37.641117538167784" lon="-2.9843582480255235"><ele>780.2</ele><time>2026-04-21T10:38:32.999Z</time></trkpt><trkpt lat="37.64111861859432" lon="-2.9845002992658505"><ele>779.8</ele><time>2026-04-21T10:38:33.999Z</time></trkpt><trkpt lat="37.64110843886066" lon="-2.984630296084444"><ele>779.4000000000001</ele><time>2026-04-21T10:38:34.999Z</time></trkpt><trkpt lat="37.64109642975185" lon="-2.9847559120900007"><ele>779.0</ele><time>2026-04-21T10:38:35.999Z</time></trkpt><trkpt lat="37.641089765204434" lon="-2.9848879725797084"><ele>779.6666666666667</ele><time>2026-04-21T10:38:36.999Z</time></trkpt><trkpt lat="37.64108734642449" lon="-2.985014161398153"><ele>780.3333333333334</ele><time>2026-04-21T10:38:37.999Z</time></trkpt><trkpt lat="37.64107821391605" lon="-2.9851195246136006"><ele>781.0</ele><time>2026-04-21T10:38:38.999Z</time></trkpt><trkpt lat="37.6410589258035" lon="-2.9852140354622643"><ele>781.6666666666667</ele><time>2026-04-21T10:38:39.999Z</time></trkpt><trkpt lat="37.641027598037454" lon="-2.985303841925329"><ele>782.3333333333334</ele><time>2026-04-21T10:38:40.999Z</time></trkpt><trkpt lat="37.64099698502316" lon="-2.9853903579144405"><ele>783.0</ele><time>2026-04-21T10:38:41.999Z</time></trkpt><trkpt lat="37.64091784189058" lon="-2.9854364918168708"><ele>783.0</ele><time>2026-04-21T10:38:42.999Z</time></trkpt><trkpt lat="37.64083339107089" lon="-2.985457476774388"><ele>783.0</ele><time>2026-04-21T10:38:43.999Z</time></trkpt><trkpt lat="37.64073959598173" lon="-2.985465635856025"><ele>783.0</ele><time>2026-04-21T10:38:44.999Z</time></trkpt><trkpt lat="37.640656382704925" lon="-2.9854979961580415"><ele>783.0</ele><time>2026-04-21T10:38:45.999Z</time></trkpt><trkpt lat="37.640583802630644" lon="-2.9855018314199064"><ele>783.0</ele><time>2026-04-21T10:38:46.999Z</time></trkpt><trkpt lat="37.640550804159474" lon="-2.985582216083438"><ele>783.0</ele><time>2026-04-21T10:38:47.999Z</time></trkpt><trkpt lat="37.64052690306094" lon="-2.9856688978085555"><ele>783.0</ele><time>2026-04-21T10:38:48.999Z</time></trkpt><trkpt lat="37.6405606218874" lon="-2.9857836648986664"><ele>783.0</ele><time>2026-04-21T10:38:49.999Z</time></trkpt><trkpt lat="37.640589295092035" lon="-2.985919671624456"><ele>783.0</ele><time>2026-04-21T10:38:50.999Z</time></trkpt><trkpt lat="37.64066505899613" lon="-2.986053111936079"><ele>783.0</ele><time>2026-04-21T10:38:51.999Z</time></trkpt><trkpt lat="37.6407214918095" lon="-2.986208478789532"><ele>780.75</ele><time>2026-04-21T10:38:52.999Z</time></trkpt><trkpt lat="37.64079272606499" lon="-2.9863446017663033"><ele>778.5</ele><time>2026-04-21T10:38:53.999Z</time></trkpt><trkpt lat="37.64085085536195" lon="-2.986466019191726"><ele>776.25</ele><time>2026-04-21T10:38:54.999Z</time></trkpt><trkpt lat="37.64091145398753" lon="-2.9865843845419446"><ele>774.0</ele><time>2026-04-21T10:38:56Z</time></trkpt><trkpt lat="37.6409713733204" lon="-2.986698936907702"><ele>772.0</ele><time>2026-04-21T10:38:57Z</time></trkpt><trkpt lat="37.64103309131585" lon="-2.986812658743957"><ele>770.0</ele><time>2026-04-21T10:38:58Z</time></trkpt><trkpt lat="37.64108977755219" lon="-2.986927086307713"><ele>768.0</ele><time>2026-04-21T10:38:59Z</time></trkpt><trkpt lat="37.6411458082468" lon="-2.98704603829448"><ele>766.0</ele><time>2026-04-21T10:39:00Z</time></trkpt><trkpt lat="37.641198369607956" lon="-2.9871675609558523"><ele>764.0</ele><time>2026-04-21T10:39:01Z</time></trkpt><trkpt lat="37.64124794539578" lon="-2.987293384965343"><ele>764.0</ele><time>2026-04-21T10:39:02Z</time></trkpt><trkpt lat="37.64129217296482" lon="-2.987423498074243"><ele>764.0</ele><time>2026-04-21T10:39:03Z</time></trkpt><trkpt lat="37.641338440139776" lon="-2.987555500091659"><ele>764.0</ele><time>2026-04-21T10:39:04Z</time></trkpt><trkpt lat="37.64138407635816" lon="-2.987686588167375"><ele>764.0</ele><time>2026-04-21T10:39:05Z</time></trkpt><trkpt lat="37.641431674711086" lon="-2.9878251800711393"><ele>761.25</ele><time>2026-04-21T10:39:06Z</time></trkpt><trkpt lat="37.64147959067461" lon="-2.9879621342872293"><ele>758.5</ele><time>2026-04-21T10:39:07Z</time></trkpt><trkpt lat="37.64152446669296" lon="-2.9880981800373485"><ele>755.75</ele><time>2026-04-21T10:39:08Z</time></trkpt><trkpt lat="37.64156529365082" lon="-2.9882347071390023"><ele>753.0</ele><time>2026-04-21T10:39:09Z</time></trkpt><trkpt lat="37.641602358761006" lon="-2.988372065227139"><ele>751.5999999999999</ele><time>2026-04-21T10:39:10Z</time></trkpt><trkpt lat="37.641634743063285" lon="-2.988509553860321"><ele>750.1999999999999</ele><time>2026-04-21T10:39:11Z</time></trkpt><trkpt lat="37.64166625217441" lon="-2.9886438183911235"><ele>748.8</ele><time>2026-04-21T10:39:12Z</time></trkpt><trkpt lat="37.641700564026486" lon="-2.9887710684353537"><ele>747.4</ele><time>2026-04-21T10:39:13Z</time></trkpt><trkpt lat="37.641716513125786" lon="-2.98890155367734"><ele>746.0</ele><time>2026-04-21T10:39:14Z</time></trkpt><trkpt lat="37.64171676090558" lon="-2.989037209619648"><ele>744.25</ele><time>2026-04-21T10:39:15Z</time></trkpt><trkpt lat="37.64171155031804" lon="-2.9891758304366944"><ele>742.5</ele><time>2026-04-21T10:39:16Z</time></trkpt><trkpt lat="37.64170644243164" lon="-2.989320820033208"><ele>740.75</ele><time>2026-04-21T10:39:17Z</time></trkpt><trkpt lat="37.64170953679686" lon="-2.9894698407818234"><ele>739.0</ele><time>2026-04-21T10:39:18Z</time></trkpt><trkpt lat="37.6417104395026" lon="-2.9896165881445826"><ele>739.0</ele><time>2026-04-21T10:39:19Z</time></trkpt><trkpt lat="37.641700818905704" lon="-2.9897528856284517"><ele>739.0</ele><time>2026-04-21T10:39:20Z</time></trkpt><trkpt lat="37.64168321144892" lon="-2.989879678341391"><ele>739.0</ele><time>2026-04-21T10:39:21Z</time></trkpt><trkpt lat="37.64165192393158" lon="-2.9899879882269387"><ele>739.0</ele><time>2026-04-21T10:39:22Z</time></trkpt><trkpt lat="37.64162117841418" lon="-2.9900789589918055"><ele>739.0</ele><time>2026-04-21T10:39:23Z</time></trkpt><trkpt lat="37.641588274526164" lon="-2.990148728087157"><ele>739.0</ele><time>2026-04-21T10:39:24Z</time></trkpt><trkpt lat="37.64153904869511" lon="-2.9902029087627064"><ele>739.0</ele><time>2026-04-21T10:39:25Z</time></trkpt><trkpt lat="37.641473930520576" lon="-2.9902151805509094"><ele>739.0</ele><time>2026-04-21T10:39:26Z</time></trkpt><trkpt lat="37.641403670608184" lon="-2.9902202575680192"><ele>739.0</ele><time>2026-04-21T10:39:27Z</time></trkpt><trkpt lat="37.64132661053277" lon="-2.9901537885549843"><ele>739.0</ele><time>2026-04-21T10:39:28Z</time></trkpt><trkpt lat="37.64128178038524" lon="-2.9900395899336694"><ele>739.0</ele><time>2026-04-21T10:39:29Z</time></trkpt><trkpt lat="37.64123446606506" lon="-2.9899438327058068"><ele>739.0</ele><time>2026-04-21T10:39:30Z</time></trkpt><trkpt lat="37.64117681476745" lon="-2.9898908695560085"><ele>736.4000000000001</ele><time>2026-04-21T10:39:31Z</time></trkpt><trkpt lat="37.64106421904342" lon="-2.989848384828948"><ele>733.8</ele><time>2026-04-21T10:39:33Z</time></trkpt><trkpt lat="37.640972648646276" lon="-2.9898951928494415"><ele>731.2</ele><time>2026-04-21T10:39:35Z</time></trkpt><trkpt lat="37.64093675293645" lon="-2.9900325817450812"><ele>728.5999999999999</ele><time>2026-04-21T10:39:37Z</time></trkpt><trkpt lat="37.64094636630188" lon="-2.990115950188881"><ele>726.0</ele><time>2026-04-21T10:39:38Z</time></trkpt><trkpt lat="37.64098586820959" lon="-2.9902025497966123"><ele>726.5</ele><time>2026-04-21T10:39:39Z</time></trkpt><trkpt lat="37.64099590091498" lon="-2.990315195795589"><ele>727.0</ele><time>2026-04-21T10:39:40Z</time></trkpt><trkpt lat="37.64100927673155" lon="-2.9904224411040468"><ele>727.5</ele><time>2026-04-21T10:39:41Z</time></trkpt><trkpt lat="37.641013629394" lon="-2.990514560974927"><ele>728.0</ele><time>2026-04-21T10:39:42Z</time></trkpt><trkpt lat="37.64103872011512" lon="-2.9905909932587242"><ele>728.5</ele><time>2026-04-21T10:39:43Z</time></trkpt><trkpt lat="37.64108983146874" lon="-2.9906579105416684"><ele>729.0</ele><time>2026-04-21T10:39:44Z</time></trkpt><trkpt lat="37.64118071660768" lon="-2.990682159073813"><ele>729.0</ele><time>2026-04-21T10:39:45Z</time></trkpt><trkpt lat="37.641242728479206" lon="-2.9907624554226913"><ele>729.0</ele><time>2026-04-21T10:39:46Z</time></trkpt><trkpt lat="37.64129370017912" lon="-2.9908353794165774"><ele>729.0</ele><time>2026-04-21T10:39:47Z</time></trkpt><trkpt lat="37.64131735669712" lon="-2.9909318095729716"><ele>729.0</ele><time>2026-04-21T10:39:48Z</time></trkpt><trkpt lat="37.64131173466339" lon="-2.991025462099964"><ele>729.0</ele><time>2026-04-21T10:39:49Z</time></trkpt><trkpt lat="37.64129354290201" lon="-2.9911194778750403"><ele>729.0</ele><time>2026-04-21T10:39:50Z</time></trkpt><trkpt lat="37.64129527870091" lon="-2.991206784948017"><ele>726.0</ele><time>2026-04-21T10:39:51Z</time></trkpt><trkpt lat="37.64138698197186" lon="-2.991326146457018"><ele>723.0</ele><time>2026-04-21T10:39:53Z</time></trkpt><trkpt lat="37.64147247997957" lon="-2.991368699618895"><ele>720.0</ele><time>2026-04-21T10:39:53.999Z</time></trkpt><trkpt lat="37.641560456208424" lon="-2.9914028040665066"><ele>717.0</ele><time>2026-04-21T10:39:54.999Z</time></trkpt><trkpt lat="37.641641632792314" lon="-2.991435017399166"><ele>714.0</ele><time>2026-04-21T10:39:55.999Z</time></trkpt><trkpt lat="37.64172335415684" lon="-2.991463905859072"><ele>714.0</ele><time>2026-04-21T10:39:56.999Z</time></trkpt><trkpt lat="37.64178703468411" lon="-2.991495957467917"><ele>714.0</ele><time>2026-04-21T10:39:57.999Z</time></trkpt><trkpt lat="37.64189261727443" lon="-2.9915642398866034"><ele>714.0</ele><time>2026-04-21T10:39:59.999Z</time></trkpt><trkpt lat="37.64192224997939" lon="-2.9916540773548475"><ele>714.0</ele><time>2026-04-21T10:40:00.999Z</time></trkpt><trkpt lat="37.64192034007554" lon="-2.991764413464093"><ele>714.0</ele><time>2026-04-21T10:40:01.999Z</time></trkpt><trkpt lat="37.641866735537164" lon="-2.9918529940326164"><ele>714.0</ele><time>2026-04-21T10:40:02.999Z</time></trkpt><trkpt lat="37.641848957184955" lon="-2.991929473124481"><ele>711.0</ele><time>2026-04-21T10:40:03.999Z</time></trkpt><trkpt lat="37.641853989708785" lon="-2.9920177021337415"><ele>708.0</ele><time>2026-04-21T10:40:04.999Z</time></trkpt><trkpt lat="37.64190848792667" lon="-2.992081320035446"><ele>705.0</ele><time>2026-04-21T10:40:05.999Z</time></trkpt><trkpt lat="37.64197396832317" lon="-2.992128502712816"><ele>702.0</ele><time>2026-04-21T10:40:06.999Z</time></trkpt><trkpt lat="37.64204500560056" lon="-2.9922177356094566"><ele>699.0</ele><time>2026-04-21T10:40:07.999Z</time></trkpt><trkpt lat="37.64212211136175" lon="-2.9922909606021824"><ele>696.0</ele><time>2026-04-21T10:40:08.999Z</time></trkpt><trkpt lat="37.642187357413555" lon="-2.9923726687381715"><ele>695.6666666666666</ele><time>2026-04-21T10:40:09.999Z</time></trkpt><trkpt lat="37.642247551075386" lon="-2.9924499056044294"><ele>695.3333333333334</ele><time>2026-04-21T10:40:10.999Z</time></trkpt><trkpt lat="37.6423165655272" lon="-2.99252395193419"><ele>695.0</ele><time>2026-04-21T10:40:11.999Z</time></trkpt><trkpt lat="37.64239980667392" lon="-2.992555486440626"><ele>694.6666666666667</ele><time>2026-04-21T10:40:12.999Z</time></trkpt><trkpt lat="37.64246185166344" lon="-2.992625812162071"><ele>694.3333333333334</ele><time>2026-04-21T10:40:13.999Z</time></trkpt><trkpt lat="37.64251864783744" lon="-2.992700612660303"><ele>694.0</ele><time>2026-04-21T10:40:14.999Z</time></trkpt><trkpt lat="37.64256027944121" lon="-2.992787316138462"><ele>690.25</ele><time>2026-04-21T10:40:15.999Z</time></trkpt><trkpt lat="37.642582300880825" lon="-2.9929044544650183"><ele>686.5</ele><time>2026-04-21T10:40:16.999Z</time></trkpt><trkpt lat="37.642571560413934" lon="-2.993064268633394"><ele>682.75</ele><time>2026-04-21T10:40:17.999Z</time></trkpt><trkpt lat="37.64255687203328" lon="-2.993237981980801"><ele>679.0</ele><time>2026-04-21T10:40:18.999Z</time></trkpt><trkpt lat="37.64254139455819" lon="-2.993413395114664"><ele>677.6</ele><time>2026-04-21T10:40:19.999Z</time></trkpt><trkpt lat="37.64253386228388" lon="-2.9935640406275064"><ele>676.2</ele><time>2026-04-21T10:40:20.999Z</time></trkpt><trkpt lat="37.642528473154414" lon="-2.9937082248876323"><ele>674.8000000000001</ele><time>2026-04-21T10:40:21.999Z</time></trkpt><trkpt lat="37.642508580051135" lon="-2.993833736793399"><ele>673.4000000000001</ele><time>2026-04-21T10:40:22.999Z</time></trkpt><trkpt lat="37.642509659025336" lon="-2.9939432564592825"><ele>672.0</ele><time>2026-04-21T10:40:23.999Z</time></trkpt><trkpt lat="37.642507253686524" lon="-2.994036610591926"><ele>672.0</ele><time>2026-04-21T10:40:24.999Z</time></trkpt><trkpt lat="37.64248652573229" lon="-2.994130780395542"><ele>672.0</ele><time>2026-04-21T10:40:25.999Z</time></trkpt><trkpt lat="37.642464326902925" lon="-2.9942222601531703"><ele>672.0</ele><time>2026-04-21T10:40:26.999Z</time></trkpt><trkpt lat="37.64239959461337" lon="-2.9943005783836454"><ele>672.0</ele><time>2026-04-21T10:40:27.999Z</time></trkpt><trkpt lat="37.64232867924516" lon="-2.994370457365364"><ele>672.0</ele><time>2026-04-21T10:40:28.999Z</time></trkpt><trkpt lat="37.64226196560043" lon="-2.9944318013327575"><ele>672.0</ele><time>2026-04-21T10:40:29.999Z</time></trkpt><trkpt lat="37.64222379946419" lon="-2.994513559771528"><ele>671.0</ele><time>2026-04-21T10:40:30.999Z</time></trkpt><trkpt lat="37.642214794487266" lon="-2.9946254218834345"><ele>670.0</ele><time>2026-04-21T10:40:31.999Z</time></trkpt><trkpt lat="37.64220773804841" lon="-2.994752250179207"><ele>669.0</ele><time>2026-04-21T10:40:32.999Z</time></trkpt><trkpt lat="37.64218998974421" lon="-2.9948839681196042"><ele>668.0</ele><time>2026-04-21T10:40:33.999Z</time></trkpt><trkpt lat="37.64219334267151" lon="-2.995026083191336"><ele>667.0</ele><time>2026-04-21T10:40:34.999Z</time></trkpt><trkpt lat="37.642195860036686" lon="-2.995168148245693"><ele>667.0</ele><time>2026-04-21T10:40:35.999Z</time></trkpt><trkpt lat="37.64219663475307" lon="-2.9953037168863506"><ele>667.0</ele><time>2026-04-21T10:40:36.999Z</time></trkpt><trkpt lat="37.6421911813072" lon="-2.9954321595316307"><ele>667.0</ele><time>2026-04-21T10:40:37.999Z</time></trkpt><trkpt lat="37.642181731718374" lon="-2.9955546894609424"><ele>667.0</ele><time>2026-04-21T10:40:38.999Z</time></trkpt><trkpt lat="37.64218030891042" lon="-2.9956786314940484"><ele>667.0</ele><time>2026-04-21T10:40:39.999Z</time></trkpt><trkpt lat="37.64217806028145" lon="-2.9957992073256605"><ele>664.2</ele><time>2026-04-21T10:40:40.999Z</time></trkpt><trkpt lat="37.64218904171055" lon="-2.9959181949341183"><ele>661.4000000000001</ele><time>2026-04-21T10:40:41.999Z</time></trkpt><trkpt lat="37.6422017622907" lon="-2.9960270145352466"><ele>658.5999999999999</ele><time>2026-04-21T10:40:42.999Z</time></trkpt><trkpt lat="37.64220431525306" lon="-2.9961394840487987"><ele>655.8</ele><time>2026-04-21T10:40:43.999Z</time></trkpt><trkpt lat="37.64219014298069" lon="-2.9962557371614063"><ele>653.0</ele><time>2026-04-21T10:40:44.999Z</time></trkpt><trkpt lat="37.64215961900798" lon="-2.9963643993104565"><ele>653.0</ele><time>2026-04-21T10:40:45.999Z</time></trkpt><trkpt lat="37.64211611444411" lon="-2.9964811868723547"><ele>653.0</ele><time>2026-04-21T10:40:46.999Z</time></trkpt><trkpt lat="37.64205863574624" lon="-2.9965908648589132"><ele>653.0</ele><time>2026-04-21T10:40:47.999Z</time></trkpt><trkpt lat="37.64198658255973" lon="-2.9966975990545643"><ele>653.0</ele><time>2026-04-21T10:40:48.999Z</time></trkpt><trkpt lat="37.641892466663194" lon="-2.996787801414884"><ele>653.0</ele><time>2026-04-21T10:40:49.999Z</time></trkpt><trkpt lat="37.64179151606913" lon="-2.996856629041529"><ele>654.2</ele><time>2026-04-21T10:40:50.999Z</time></trkpt><trkpt lat="37.64169480272509" lon="-2.996924617042595"><ele>655.4</ele><time>2026-04-21T10:40:51.999Z</time></trkpt><trkpt lat="37.6416081006991" lon="-2.9969903973229077"><ele>656.6</ele><time>2026-04-21T10:40:52.999Z</time></trkpt><trkpt lat="37.641526256202354" lon="-2.9970548457442674"><ele>657.8000000000001</ele><time>2026-04-21T10:40:53.999Z</time></trkpt><trkpt lat="37.64144488222411" lon="-2.9971247148354254"><ele>659.0</ele><time>2026-04-21T10:40:54.999Z</time></trkpt><trkpt lat="37.641363907635295" lon="-2.997198877216613"><ele>659.0</ele><time>2026-04-21T10:40:55.999Z</time></trkpt><trkpt lat="37.64127222896042" lon="-2.997261096032748"><ele>659.0</ele><time>2026-04-21T10:40:56.999Z</time></trkpt><trkpt lat="37.64118459287148" lon="-2.997322854323731"><ele>659.0</ele><time>2026-04-21T10:40:57.999Z</time></trkpt><trkpt lat="37.64109701404836" lon="-2.997385682625334"><ele>659.0</ele><time>2026-04-21T10:40:58.999Z</time></trkpt><trkpt lat="37.6410086111007" lon="-2.997451702817812"><ele>659.0</ele><time>2026-04-21T10:40:59.999Z</time></trkpt><trkpt lat="37.64092442124116" lon="-2.997515058829244"><ele>656.0</ele><time>2026-04-21T10:41:00.999Z</time></trkpt><trkpt lat="37.64084253272414" lon="-2.9975799696883234"><ele>653.0</ele><time>2026-04-21T10:41:02Z</time></trkpt><trkpt lat="37.64076117252527" lon="-2.9976530049922046"><ele>650.0</ele><time>2026-04-21T10:41:03Z</time></trkpt><trkpt lat="37.640676516784836" lon="-2.9977072751216793"><ele>647.0</ele><time>2026-04-21T10:41:04Z</time></trkpt><trkpt lat="37.64059793237089" lon="-2.9977667674332564"><ele>644.0</ele><time>2026-04-21T10:41:05Z</time></trkpt><trkpt lat="37.64052015388448" lon="-2.997823035373206"><ele>644.0</ele><time>2026-04-21T10:41:06Z</time></trkpt><trkpt lat="37.64043911065889" lon="-2.9978858673073683"><ele>644.0</ele><time>2026-04-21T10:41:07Z</time></trkpt><trkpt lat="37.64035520501824" lon="-2.997939213043025"><ele>644.0</ele><time>2026-04-21T10:41:08Z</time></trkpt><trkpt lat="37.640273728570556" lon="-2.997978225693373"><ele>644.0</ele><time>2026-04-21T10:41:09Z</time></trkpt><trkpt lat="37.640194944435194" lon="-2.998018285289134"><ele>644.0</ele><time>2026-04-21T10:41:10Z</time></trkpt><trkpt lat="37.640096215145796" lon="-2.9979783465076064"><ele>642.75</ele><time>2026-04-21T10:41:11Z</time></trkpt><trkpt lat="37.63998645265794" lon="-2.9979716431222867"><ele>641.5</ele><time>2026-04-21T10:41:12Z</time></trkpt><trkpt lat="37.63986814048857" lon="-2.997940047906516"><ele>640.25</ele><time>2026-04-21T10:41:13Z</time></trkpt><trkpt lat="37.63974119282991" lon="-2.9979048535182526"><ele>639.0</ele><time>2026-04-21T10:41:14Z</time></trkpt><trkpt lat="37.63961333330433" lon="-2.9978697594701353"><ele>639.0</ele><time>2026-04-21T10:41:15Z</time></trkpt><trkpt lat="37.63949299690295" lon="-2.9978263415556845"><ele>639.0</ele><time>2026-04-21T10:41:16Z</time></trkpt><trkpt lat="37.63937571817954" lon="-2.997799843429458"><ele>639.0</ele><time>2026-04-21T10:41:17Z</time></trkpt><trkpt lat="37.63927025374937" lon="-2.9977706260276933"><ele>639.0</ele><time>2026-04-21T10:41:18Z</time></trkpt><trkpt lat="37.63918198801594" lon="-2.9977381429827323"><ele>639.0</ele><time>2026-04-21T10:41:19Z</time></trkpt><trkpt lat="37.63909921091641" lon="-2.9977271200086095"><ele>637.5</ele><time>2026-04-21T10:41:20Z</time></trkpt><trkpt lat="37.63900617019107" lon="-2.9977346583367788"><ele>636.0</ele><time>2026-04-21T10:41:21Z</time></trkpt><trkpt lat="37.63892182521897" lon="-2.9977948072724163"><ele>634.5</ele><time>2026-04-21T10:41:22Z</time></trkpt><trkpt lat="37.63883933606415" lon="-2.997821427489301"><ele>633.0</ele><time>2026-04-21T10:41:23Z</time></trkpt><trkpt lat="37.63878667962416" lon="-2.9978897340794397"><ele>631.5</ele><time>2026-04-21T10:41:24Z</time></trkpt><trkpt lat="37.638759059064434" lon="-2.997981519996911"><ele>630.0</ele><time>2026-04-21T10:41:25Z</time></trkpt><trkpt lat="37.63876333059235" lon="-2.9981009069553903"><ele>630.0</ele><time>2026-04-21T10:41:26Z</time></trkpt><trkpt lat="37.638799485227814" lon="-2.998227320878017"><ele>630.0</ele><time>2026-04-21T10:41:27Z</time></trkpt><trkpt lat="37.638811481979" lon="-2.998349052235341"><ele>630.0</ele><time>2026-04-21T10:41:28Z</time></trkpt><trkpt lat="37.63884503012899" lon="-2.998445119025242"><ele>630.0</ele><time>2026-04-21T10:41:29Z</time></trkpt><trkpt lat="37.63889218430149" lon="-2.998525502257054"><ele>630.0</ele><time>2026-04-21T10:41:30Z</time></trkpt><trkpt lat="37.63897683925019" lon="-2.998560118020137"><ele>627.2</ele><time>2026-04-21T10:41:31Z</time></trkpt><trkpt lat="37.63906199472056" lon="-2.9986386136330534"><ele>624.4</ele><time>2026-04-21T10:41:32Z</time></trkpt><trkpt lat="37.639158797726374" lon="-2.9986771771942697"><ele>621.6</ele><time>2026-04-21T10:41:33Z</time></trkpt><trkpt lat="37.63923748161876" lon="-2.9987037571814756"><ele>618.8</ele><time>2026-04-21T10:41:34Z</time></trkpt><trkpt lat="37.63930290750284" lon="-2.9987322845154503"><ele>616.0</ele><time>2026-04-21T10:41:35Z</time></trkpt><trkpt lat="37.63940231983927" lon="-2.998833369079907"><ele>616.0</ele><time>2026-04-21T10:41:37Z</time></trkpt><trkpt lat="37.63942428365443" lon="-2.998927084999543"><ele>616.0</ele><time>2026-04-21T10:41:38Z</time></trkpt><trkpt lat="37.639381062421954" lon="-2.9990413118201533"><ele>616.0</ele><time>2026-04-21T10:41:39Z</time></trkpt><trkpt lat="37.63933299673866" lon="-2.999163476670376"><ele>616.0</ele><time>2026-04-21T10:41:40Z</time></trkpt><trkpt lat="37.639306047668214" lon="-2.9993071327429273"><ele>616.0</ele><time>2026-04-21T10:41:41Z</time></trkpt><trkpt lat="37.63927137678141" lon="-2.99945211305173"><ele>612.6</ele><time>2026-04-21T10:41:42Z</time></trkpt><trkpt lat="37.63924116123837" lon="-2.9995932223965514"><ele>609.2</ele><time>2026-04-21T10:41:43Z</time></trkpt><trkpt lat="37.639207966700624" lon="-2.999711025924481"><ele>605.8</ele><time>2026-04-21T10:41:44Z</time></trkpt><trkpt lat="37.63919058423576" lon="-2.999820159629323"><ele>602.4</ele><time>2026-04-21T10:41:45Z</time></trkpt><trkpt lat="37.639180697123166" lon="-2.9999226303071724"><ele>599.0</ele><time>2026-04-21T10:41:46Z</time></trkpt><trkpt lat="37.63918937559551" lon="-3.0000222538663057"><ele>599.0</ele><time>2026-04-21T10:41:46.999Z</time></trkpt><trkpt lat="37.639239343254864" lon="-3.0001208591047503"><ele>599.0</ele><time>2026-04-21T10:41:47.999Z</time></trkpt><trkpt lat="37.63929223755489" lon="-3.0002287711110855"><ele>599.0</ele><time>2026-04-21T10:41:48.999Z</time></trkpt><trkpt lat="37.63933560620626" lon="-3.0003465666169755"><ele>599.0</ele><time>2026-04-21T10:41:49.999Z</time></trkpt><trkpt lat="37.639394839025925" lon="-3.0004385341400295"><ele>599.0</ele><time>2026-04-21T10:41:50.999Z</time></trkpt><trkpt lat="37.63946580050668" lon="-3.0005260163135548"><ele>603.4</ele><time>2026-04-21T10:41:51.999Z</time></trkpt><trkpt lat="37.639545328256446" lon="-3.00059673968942"><ele>607.8</ele><time>2026-04-21T10:41:52.999Z</time></trkpt><trkpt lat="37.6396352320509" lon="-3.0006480331580625"><ele>612.2</ele><time>2026-04-21T10:41:53.999Z</time></trkpt><trkpt lat="37.639731206278306" lon="-3.0006916970858373"><ele>616.6</ele><time>2026-04-21T10:41:54.999Z</time></trkpt><trkpt lat="37.63982987453586" lon="-3.000713001447451"><ele>621.0</ele><time>2026-04-21T10:41:55.999Z</time></trkpt><trkpt lat="37.63993098691363" lon="-3.000717921340115"><ele>621.0</ele><time>2026-04-21T10:41:56.999Z</time></trkpt><trkpt lat="37.64003464927764" lon="-3.000719613932544"><ele>621.0</ele><time>2026-04-21T10:41:57.999Z</time></trkpt><trkpt lat="37.64013509568285" lon="-3.0007138024198525"><ele>621.0</ele><time>2026-04-21T10:41:58.999Z</time></trkpt><trkpt lat="37.64023270858498" lon="-3.0006977484720347"><ele>621.0</ele><time>2026-04-21T10:41:59.999Z</time></trkpt><trkpt lat="37.64033848969736" lon="-3.0006754327222422"><ele>621.0</ele><time>2026-04-21T10:42:00.999Z</time></trkpt><trkpt lat="37.640430782588005" lon="-3.000665790291925"><ele>619.4</ele><time>2026-04-21T10:42:01.999Z</time></trkpt><trkpt lat="37.64052751743182" lon="-3.0006720916988967"><ele>617.8</ele><time>2026-04-21T10:42:02.999Z</time></trkpt><trkpt lat="37.640621488693306" lon="-3.000677385965436"><ele>616.1999999999999</ele><time>2026-04-21T10:42:03.999Z</time></trkpt><trkpt lat="37.640709229911955" lon="-3.000682902515307"><ele>614.6</ele><time>2026-04-21T10:42:04.999Z</time></trkpt><trkpt lat="37.64079135766496" lon="-3.000674698535568"><ele>613.0</ele><time>2026-04-21T10:42:05.999Z</time></trkpt><trkpt lat="37.640878722526324" lon="-3.0006467208531085"><ele>613.0</ele><time>2026-04-21T10:42:06.999Z</time></trkpt><trkpt lat="37.64095824119564" lon="-3.0005713821922"><ele>613.0</ele><time>2026-04-21T10:42:07.999Z</time></trkpt><trkpt lat="37.64104437189183" lon="-3.0005212114729503"><ele>613.0</ele><time>2026-04-21T10:42:08.999Z</time></trkpt><trkpt lat="37.64111880931792" lon="-3.0004554682557503"><ele>613.0</ele><time>2026-04-21T10:42:09.999Z</time></trkpt><trkpt lat="37.64118271919583" lon="-3.000400979826291"><ele>613.0</ele><time>2026-04-21T10:42:10.999Z</time></trkpt><trkpt lat="37.6412313444306" lon="-3.000329744081311"><ele>613.0</ele><time>2026-04-21T10:42:11.999Z</time></trkpt><trkpt lat="37.64127578943402" lon="-3.0002650021871293"><ele>608.1999999999999</ele><time>2026-04-21T10:42:12.999Z</time></trkpt><trkpt lat="37.641358884043925" lon="-3.000180620727907"><ele>603.4</ele><time>2026-04-21T10:42:14.999Z</time></trkpt><trkpt lat="37.641461231233606" lon="-3.000219116004965"><ele>598.5999999999999</ele><time>2026-04-21T10:42:16.999Z</time></trkpt><trkpt lat="37.64148939814249" lon="-3.000291699641933"><ele>593.8</ele><time>2026-04-21T10:42:17.999Z</time></trkpt><trkpt lat="37.64146522206316" lon="-3.0003925919529726"><ele>589.0</ele><time>2026-04-21T10:42:18.999Z</time></trkpt><trkpt lat="37.641380589337906" lon="-3.000450984006889"><ele>589.0</ele><time>2026-04-21T10:42:19.999Z</time></trkpt><trkpt lat="37.641304819361885" lon="-3.0005251285506924"><ele>589.0</ele><time>2026-04-21T10:42:20.999Z</time></trkpt><trkpt lat="37.64122890349915" lon="-3.0006150198042185"><ele>589.0</ele><time>2026-04-21T10:42:21.999Z</time></trkpt><trkpt lat="37.64113971929615" lon="-3.000706398622703"><ele>589.0</ele><time>2026-04-21T10:42:22.999Z</time></trkpt><trkpt lat="37.64105900564467" lon="-3.000790679952884"><ele>589.0</ele><time>2026-04-21T10:42:23.999Z</time></trkpt><trkpt lat="37.64098807577338" lon="-3.0008684531775"><ele>586.1666666666667</ele><time>2026-04-21T10:42:24.999Z</time></trkpt><trkpt lat="37.64092241007026" lon="-3.000946773590629"><ele>583.3333333333334</ele><time>2026-04-21T10:42:25.999Z</time></trkpt><trkpt lat="37.640862424961725" lon="-3.001016201014425"><ele>580.5</ele><time>2026-04-21T10:42:26.999Z</time></trkpt><trkpt lat="37.64080099786455" lon="-3.001082262775168"><ele>577.6666666666666</ele><time>2026-04-21T10:42:27.999Z</time></trkpt><trkpt lat="37.64074171472244" lon="-3.0011556954345586"><ele>574.8333333333333</ele><time>2026-04-21T10:42:28.999Z</time></trkpt><trkpt lat="37.64066970775496" lon="-3.001206271908726"><ele>572.0</ele><time>2026-04-21T10:42:29.999Z</time></trkpt><trkpt lat="37.64059093525754" lon="-3.001257678598833"><ele>572.0</ele><time>2026-04-21T10:42:30.999Z</time></trkpt><trkpt lat="37.64049889711199" lon="-3.001289604894143"><ele>572.0</ele><time>2026-04-21T10:42:31.999Z</time></trkpt><trkpt lat="37.64041967083393" lon="-3.0013321695159"><ele>572.0</ele><time>2026-04-21T10:42:32.999Z</time></trkpt><trkpt lat="37.64033744103206" lon="-3.001370406688202"><ele>572.0</ele><time>2026-04-21T10:42:33.999Z</time></trkpt><trkpt lat="37.640265777749484" lon="-3.001439630793297"><ele>572.0</ele><time>2026-04-21T10:42:34.999Z</time></trkpt><trkpt lat="37.64018533500515" lon="-3.0014856404529735"><ele>572.0</ele><time>2026-04-21T10:42:35.999Z</time></trkpt><trkpt lat="37.64010987193792" lon="-3.0015346938170286"><ele>575.0</ele><time>2026-04-21T10:42:36.999Z</time></trkpt><trkpt lat="37.640031206707604" lon="-3.0015782873776335"><ele>578.0</ele><time>2026-04-21T10:42:37.999Z</time></trkpt><trkpt lat="37.63995198751648" lon="-3.0016085141054867"><ele>581.0</ele><time>2026-04-21T10:42:38.999Z</time></trkpt><trkpt lat="37.63986993085496" lon="-3.0016320371281293"><ele>584.0</ele><time>2026-04-21T10:42:39.999Z</time></trkpt><trkpt lat="37.63977742364536" lon="-3.001614219117205"><ele>587.0</ele><time>2026-04-21T10:42:40.999Z</time></trkpt><trkpt lat="37.63967293328478" lon="-3.001606566621623"><ele>587.0</ele><time>2026-04-21T10:42:41.999Z</time></trkpt><trkpt lat="37.639569979377995" lon="-3.0016149227327698"><ele>587.0</ele><time>2026-04-21T10:42:42.999Z</time></trkpt><trkpt lat="37.63947038245058" lon="-3.0016030981597983"><ele>587.0</ele><time>2026-04-21T10:42:43.999Z</time></trkpt><trkpt lat="37.63937726296757" lon="-3.0015804854608437"><ele>587.0</ele><time>2026-04-21T10:42:44.999Z</time></trkpt><trkpt lat="37.63928412697909" lon="-3.0015334068857538"><ele>587.0</ele><time>2026-04-21T10:42:45.999Z</time></trkpt><trkpt lat="37.63918937718176" lon="-3.001460856158613"><ele>583.5</ele><time>2026-04-21T10:42:46.999Z</time></trkpt><trkpt lat="37.63909867918313" lon="-3.001349484694575"><ele>580.0</ele><time>2026-04-21T10:42:47.999Z</time></trkpt><trkpt lat="37.63898826466909" lon="-3.001287409250005"><ele>576.5</ele><time>2026-04-21T10:42:48.999Z</time></trkpt><trkpt lat="37.63887600022625" lon="-3.001235767743011"><ele>573.0</ele><time>2026-04-21T10:42:49.999Z</time></trkpt><trkpt lat="37.638766818466046" lon="-3.00119407749211"><ele>573.0</ele><time>2026-04-21T10:42:50.999Z</time></trkpt><trkpt lat="37.63865688605946" lon="-3.0011514501224634"><ele>573.0</ele><time>2026-04-21T10:42:51.999Z</time></trkpt><trkpt lat="37.63855316403549" lon="-3.001102672998072"><ele>573.0</ele><time>2026-04-21T10:42:52.999Z</time></trkpt><trkpt lat="37.638457625796455" lon="-3.0010584175091037"><ele>573.0</ele><time>2026-04-21T10:42:53.999Z</time></trkpt><trkpt lat="37.638386658589546" lon="-3.00103533000482"><ele>573.0</ele><time>2026-04-21T10:42:54.999Z</time></trkpt><trkpt lat="37.63832169643652" lon="-3.0010308692649295"><ele>567.1999999999999</ele><time>2026-04-21T10:42:55.998Z</time></trkpt><trkpt lat="37.63822773480835" lon="-3.0011182740728053"><ele>561.4</ele><time>2026-04-21T10:42:57.998Z</time></trkpt><trkpt lat="37.6382014988346" lon="-3.0012054216596002"><ele>555.5999999999999</ele><time>2026-04-21T10:42:58.998Z</time></trkpt><trkpt lat="37.63818489550048" lon="-3.001289716701591"><ele>549.8</ele><time>2026-04-21T10:42:59.998Z</time></trkpt><trkpt lat="37.63815824446472" lon="-3.0013701461680506"><ele>544.0</ele><time>2026-04-21T10:43:00.998Z</time></trkpt><trkpt lat="37.63809412029852" lon="-3.0015062341223655"><ele>544.0</ele><time>2026-04-21T10:43:02.998Z</time></trkpt><trkpt lat="37.63806565367176" lon="-3.0016305579732196"><ele>544.0</ele><time>2026-04-21T10:43:04.998Z</time></trkpt><trkpt lat="37.63805267110754" lon="-3.0017388620143617"><ele>544.0</ele><time>2026-04-21T10:43:06.998Z</time></trkpt><trkpt lat="37.63803208075832" lon="-3.001864382058993"><ele>544.0</ele><time>2026-04-21T10:54:45.999Z</time></trkpt><trkpt lat="37.638021862937364" lon="-3.001987738866178"><ele>544.0</ele><time>2026-04-21T10:54:47.999Z</time></trkpt><trkpt lat="37.63801506387127" lon="-3.0020780909948033"><ele>542.3333333333334</ele><time>2026-04-21T10:54:49.999Z</time></trkpt><trkpt lat="37.63798586122525" lon="-3.002191651978774"><ele>540.6666666666667</ele><time>2026-04-21T10:54:52.999Z</time></trkpt><trkpt lat="37.63794492236901" lon="-3.002273188161329"><ele>539.0</ele><time>2026-04-21T10:54:54.999Z</time></trkpt><trkpt lat="37.637901380736025" lon="-3.002345809446711"><ele>537.3333333333334</ele><time>2026-04-21T10:54:55.999Z</time></trkpt><trkpt lat="37.637838583831204" lon="-3.0024176588468214"><ele>535.6666666666666</ele><time>2026-04-21T10:54:56.999Z</time></trkpt><trkpt lat="37.63776353068" lon="-3.0024597884009943"><ele>534.0</ele><time>2026-04-21T10:54:57.999Z</time></trkpt><trkpt lat="37.6377014850268" lon="-3.002552785525804"><ele>533.4</ele><time>2026-04-21T10:54:58.999Z</time></trkpt><trkpt lat="37.63758554903245" lon="-3.0025145956881536"><ele>532.8</ele><time>2026-04-21T10:54:59.999Z</time></trkpt><trkpt lat="37.637488045944615" lon="-3.002551323926162"><ele>532.2</ele><time>2026-04-21T10:55:00.999Z</time></trkpt><trkpt lat="37.63739599999261" lon="-3.002593341744182"><ele>531.6</ele><time>2026-04-21T10:55:01.999Z</time></trkpt><trkpt lat="37.63733326421468" lon="-3.0026679979548807"><ele>531.0</ele><time>2026-04-21T10:55:02.999Z</time></trkpt><trkpt lat="37.63725654672495" lon="-3.002746584619132"><ele>531.0</ele><time>2026-04-21T10:55:03.999Z</time></trkpt><trkpt lat="37.637164012243744" lon="-3.0028251009000124"><ele>531.0</ele><time>2026-04-21T10:55:04.999Z</time></trkpt><trkpt lat="37.63707392171847" lon="-3.0028914811329077"><ele>531.0</ele><time>2026-04-21T10:55:05.999Z</time></trkpt><trkpt lat="37.63700049142668" lon="-3.002957999191902"><ele>531.0</ele><time>2026-04-21T10:55:06.999Z</time></trkpt><trkpt lat="37.63694237436474" lon="-3.003011493124444"><ele>531.0</ele><time>2026-04-21T10:55:07.999Z</time></trkpt><trkpt lat="37.63687025477011" lon="-3.003070584779889"><ele>530.2</ele><time>2026-04-21T10:55:08.999Z</time></trkpt><trkpt lat="37.6367794298366" lon="-3.0031343179204995"><ele>529.4000000000001</ele><time>2026-04-21T10:55:09.999Z</time></trkpt><trkpt lat="37.636681226265196" lon="-3.0032070580930563"><ele>528.6</ele><time>2026-04-21T10:55:10.999Z</time></trkpt><trkpt lat="37.63659566495616" lon="-3.003279028367297"><ele>527.8000000000001</ele><time>2026-04-21T10:55:11.999Z</time></trkpt><trkpt lat="37.636515111901105" lon="-3.003355482301585"><ele>527.0</ele><time>2026-04-21T10:55:12.999Z</time></trkpt><trkpt lat="37.63643211071249" lon="-3.003415067640513"><ele>527.0</ele><time>2026-04-21T10:55:13.999Z</time></trkpt><trkpt lat="37.636342847560236" lon="-3.0034637277448915"><ele>527.0</ele><time>2026-04-21T10:55:14.999Z</time></trkpt><trkpt lat="37.636245859121416" lon="-3.003506658809517"><ele>527.0</ele><time>2026-04-21T10:55:15.999Z</time></trkpt><trkpt lat="37.636147951488184" lon="-3.003564482223378"><ele>527.0</ele><time>2026-04-21T10:55:16.999Z</time></trkpt><trkpt lat="37.636049999877734" lon="-3.003609603568423"><ele>527.0</ele><time>2026-04-21T10:55:17.999Z</time></trkpt><trkpt lat="37.63595646404203" lon="-3.0036680916682226"><ele>529.0</ele><time>2026-04-21T10:55:18.999Z</time></trkpt><trkpt lat="37.63585754080068" lon="-3.00373265993361"><ele>531.0</ele><time>2026-04-21T10:55:19.999Z</time></trkpt><trkpt lat="37.635759643125624" lon="-3.0038097622651323"><ele>533.0</ele><time>2026-04-21T10:55:20.999Z</time></trkpt><trkpt lat="37.63566670574924" lon="-3.0039139362429808"><ele>535.0</ele><time>2026-04-21T10:55:21.999Z</time></trkpt><trkpt lat="37.63558526016205" lon="-3.0040206734387778"><ele>535.0</ele><time>2026-04-21T10:55:22.999Z</time></trkpt><trkpt lat="37.63549943342779" lon="-3.004139053045407"><ele>535.0</ele><time>2026-04-21T10:55:23.999Z</time></trkpt><trkpt lat="37.635404879696" lon="-3.0042673138537195"><ele>535.0</ele><time>2026-04-21T10:55:24.999Z</time></trkpt><trkpt lat="37.63530318010724" lon="-3.004370315129861"><ele>535.0</ele><time>2026-04-21T10:55:25.999Z</time></trkpt><trkpt lat="37.635214840676404" lon="-3.0044809070313865"><ele>534.75</ele><time>2026-04-21T10:55:26.999Z</time></trkpt><trkpt lat="37.63512030799393" lon="-3.004600650640877"><ele>534.5</ele><time>2026-04-21T10:55:27.999Z</time></trkpt><trkpt lat="37.63503815022717" lon="-3.004731896281866"><ele>534.25</ele><time>2026-04-21T10:55:28.999Z</time></trkpt><trkpt lat="37.63494074949375" lon="-3.0048538726194733"><ele>534.0</ele><time>2026-04-21T10:55:29.999Z</time></trkpt><trkpt lat="37.634852112833094" lon="-3.0049644043693062"><ele>532.5</ele><time>2026-04-21T10:55:30.999Z</time></trkpt><trkpt lat="37.63476686717002" lon="-3.005070707439681"><ele>531.0</ele><time>2026-04-21T10:55:31.999Z</time></trkpt><trkpt lat="37.634684091039965" lon="-3.005173930933171"><ele>529.5</ele><time>2026-04-21T10:55:32.999Z</time></trkpt><trkpt lat="37.63459224781804" lon="-3.005285102354752"><ele>528.0</ele><time>2026-04-21T10:55:33.999Z</time></trkpt><trkpt lat="37.63449871995807" lon="-3.0053927966042884"><ele>528.75</ele><time>2026-04-21T10:55:34.999Z</time></trkpt><trkpt lat="37.63439204411891" lon="-3.0054864297289163"><ele>529.5</ele><time>2026-04-21T10:55:35.999Z</time></trkpt><trkpt lat="37.634293972425716" lon="-3.005595205658361"><ele>530.25</ele><time>2026-04-21T10:55:36.999Z</time></trkpt><trkpt lat="37.634200437856485" lon="-3.0057209410209755"><ele>531.0</ele><time>2026-04-21T10:55:37.999Z</time></trkpt><trkpt lat="37.63409586796971" lon="-3.005837233773221"><ele>531.0</ele><time>2026-04-21T10:55:38.999Z</time></trkpt><trkpt lat="37.634005431538846" lon="-3.0059352980474303"><ele>531.0</ele><time>2026-04-21T10:55:39.999Z</time></trkpt><trkpt lat="37.63392054717815" lon="-3.0060210372398735"><ele>531.0</ele><time>2026-04-21T10:55:40.999Z</time></trkpt><trkpt lat="37.63383180583656" lon="-3.0060827440366147"><ele>531.0</ele><time>2026-04-21T10:55:41.999Z</time></trkpt><trkpt lat="37.63375771216143" lon="-3.0061557779869017"><ele>531.0</ele><time>2026-04-21T10:55:42.999Z</time></trkpt><trkpt lat="37.63369004079906" lon="-3.0061955772084556"><ele>531.1666666666666</ele><time>2026-04-21T10:55:43.998Z</time></trkpt><trkpt lat="37.633609573764936" lon="-3.006250363355832"><ele>531.3333333333334</ele><time>2026-04-21T10:55:44.998Z</time></trkpt><trkpt lat="37.63351026388774" lon="-3.006277963394143"><ele>531.5</ele><time>2026-04-21T10:55:45.998Z</time></trkpt><trkpt lat="37.63344006477896" lon="-3.0063111648323493"><ele>531.6666666666667</ele><time>2026-04-21T10:55:46.998Z</time></trkpt><trkpt lat="37.63338685142955" lon="-3.006356314721448"><ele>531.8333333333334</ele><time>2026-04-21T10:55:47.998Z</time></trkpt><trkpt lat="37.63331420235652" lon="-3.0064366409652905"><ele>532.0</ele><time>2026-04-21T10:55:49.998Z</time></trkpt><trkpt lat="37.63327792831512" lon="-3.0065367558302256"><ele>532.0</ele><time>2026-04-21T10:55:51.998Z</time></trkpt><trkpt lat="37.633243120179834" lon="-3.006604682383425"><ele>532.0</ele><time>2026-04-21T10:55:55.998Z</time></trkpt><trkpt lat="37.633363357353765" lon="-3.0068052389226025"><ele>532.0</ele><time>2026-04-21T10:55:57.998Z</time></trkpt><trkpt lat="37.633408686605385" lon="-3.0068849799050485"><ele>532.0</ele><time>2026-04-21T10:55:58.998Z</time></trkpt><trkpt lat="37.63344913757191" lon="-3.0069614752017118"><ele>532.0</ele><time>2026-04-21T10:55:59.998Z</time></trkpt><trkpt lat="37.63348827780875" lon="-3.007032338962472"><ele>531.5</ele><time>2026-04-21T10:56:00.998Z</time></trkpt><trkpt lat="37.633525335373974" lon="-3.0071019148007694"><ele>531.0</ele><time>2026-04-21T10:56:01.998Z</time></trkpt><trkpt lat="37.63355446183355" lon="-3.0071826993623483"><ele>530.5</ele><time>2026-04-21T10:56:02.998Z</time></trkpt><trkpt lat="37.633593041805355" lon="-3.007280728868063"><ele>530.0</ele><time>2026-04-21T10:56:03.998Z</time></trkpt><trkpt lat="37.63362424059662" lon="-3.007371157797102"><ele>529.5</ele><time>2026-04-21T10:56:04.999Z</time></trkpt><trkpt lat="37.63365568674702" lon="-3.0074819035120437"><ele>529.0</ele><time>2026-04-21T10:56:05.999Z</time></trkpt><trkpt lat="37.63367154571737" lon="-3.0075807997636628"><ele>528.5</ele><time>2026-04-21T10:56:06.999Z</time></trkpt><trkpt lat="37.63367883482621" lon="-3.0076816520534453"><ele>528.0</ele><time>2026-04-21T10:56:07.999Z</time></trkpt><trkpt lat="37.63367119548872" lon="-3.007782033225573"><ele>527.5</ele><time>2026-04-21T10:56:08.999Z</time></trkpt><trkpt lat="37.63364975393536" lon="-3.0078813726533924"><ele>527.0</ele><time>2026-04-21T10:56:09.999Z</time></trkpt><trkpt lat="37.63362364403805" lon="-3.0079835877494503"><ele>526.5</ele><time>2026-04-21T10:56:10.999Z</time></trkpt><trkpt lat="37.63358729363893" lon="-3.0080823624412325"><ele>526.0</ele><time>2026-04-21T10:56:11.999Z</time></trkpt><trkpt lat="37.63354924544928" lon="-3.0081843844513845"><ele>525.8</ele><time>2026-04-21T10:56:12.999Z</time></trkpt><trkpt lat="37.633516215550294" lon="-3.008263046849836"><ele>525.6</ele><time>2026-04-21T10:56:13.999Z</time></trkpt><trkpt lat="37.63346858188313" lon="-3.0084239540400786"><ele>525.4</ele><time>2026-04-21T10:56:15.999Z</time></trkpt><trkpt lat="37.6334416479516" lon="-3.008519470619211"><ele>525.2</ele><time>2026-04-21T10:56:16.999Z</time></trkpt><trkpt lat="37.633409206138374" lon="-3.008633150956947"><ele>525.0</ele><time>2026-04-21T10:56:17.999Z</time></trkpt><trkpt lat="37.633379239227814" lon="-3.0087282163651143"><ele>525.4</ele><time>2026-04-21T10:56:18.999Z</time></trkpt><trkpt lat="37.633350021207384" lon="-3.0088083737558886"><ele>525.8</ele><time>2026-04-21T10:56:19.999Z</time></trkpt><trkpt lat="37.63328562890429" lon="-3.0089431360885373"><ele>526.2</ele><time>2026-04-21T10:56:21.999Z</time></trkpt><trkpt lat="37.6332427626538" lon="-3.0090144535913805"><ele>526.6</ele><time>2026-04-21T10:56:22.999Z</time></trkpt><trkpt lat="37.6331895801785" lon="-3.0091020731205003"><ele>527.0</ele><time>2026-04-21T10:56:23.999Z</time></trkpt><trkpt lat="37.63312128822762" lon="-3.009199697770773"><ele>527.0</ele><time>2026-04-21T10:56:24.999Z</time></trkpt><trkpt lat="37.63304172047064" lon="-3.009291990008003"><ele>527.0</ele><time>2026-04-21T10:56:25.999Z</time></trkpt><trkpt lat="37.632964904941815" lon="-3.0093875541771613"><ele>527.0</ele><time>2026-04-21T10:56:26.999Z</time></trkpt><trkpt lat="37.63288934701968" lon="-3.00949009905501"><ele>527.0</ele><time>2026-04-21T10:56:27.999Z</time></trkpt><trkpt lat="37.632794178785396" lon="-3.009596478707664"><ele>526.8000000000001</ele><time>2026-04-21T10:56:28.999Z</time></trkpt><trkpt lat="37.6327019587274" lon="-3.0096948639463905"><ele>526.6</ele><time>2026-04-21T10:56:29.999Z</time></trkpt><trkpt lat="37.63261909019997" lon="-3.00978172145018"><ele>526.4000000000001</ele><time>2026-04-21T10:56:30.999Z</time></trkpt><trkpt lat="37.63254998657976" lon="-3.00985190365303"><ele>526.2</ele><time>2026-04-21T10:56:31.999Z</time></trkpt><trkpt lat="37.632477946029205" lon="-3.0099192105355166"><ele>526.0</ele><time>2026-04-21T10:56:32.999Z</time></trkpt><trkpt lat="37.63239808837627" lon="-3.009995047338657"><ele>526.75</ele><time>2026-04-21T10:56:33.999Z</time></trkpt><trkpt lat="37.632309239706125" lon="-3.0100957529710097"><ele>527.5</ele><time>2026-04-21T10:56:34.999Z</time></trkpt><trkpt lat="37.6322120373016" lon="-3.0102028658205238"><ele>528.25</ele><time>2026-04-21T10:56:35.999Z</time></trkpt><trkpt lat="37.632112851568934" lon="-3.0103057689565014"><ele>529.0</ele><time>2026-04-21T10:56:36.999Z</time></trkpt><trkpt lat="37.63201697018931" lon="-3.0103969376075237"><ele>529.2</ele><time>2026-04-21T10:56:37.999Z</time></trkpt><trkpt lat="37.631923940817124" lon="-3.010487316209528"><ele>529.4</ele><time>2026-04-21T10:56:38.999Z</time></trkpt><trkpt lat="37.63182505566119" lon="-3.010569136674463"><ele>529.6</ele><time>2026-04-21T10:56:39.999Z</time></trkpt><trkpt lat="37.63173528840513" lon="-3.0106410024484505"><ele>529.8</ele><time>2026-04-21T10:56:40.999Z</time></trkpt><trkpt lat="37.6316578491444" lon="-3.010689481136287"><ele>530.0</ele><time>2026-04-21T10:56:41.999Z</time></trkpt><trkpt lat="37.6315756223612" lon="-3.010738765117223"><ele>530.0</ele><time>2026-04-21T10:56:42.999Z</time></trkpt><trkpt lat="37.631490028370045" lon="-3.0107723643799686"><ele>530.0</ele><time>2026-04-21T10:56:43.999Z</time></trkpt><trkpt lat="37.63139453145646" lon="-3.010800827926357"><ele>530.0</ele><time>2026-04-21T10:56:44.999Z</time></trkpt><trkpt lat="37.63130090630676" lon="-3.0108100872657357"><ele>530.0</ele><time>2026-04-21T10:56:45.999Z</time></trkpt><trkpt lat="37.63120504873223" lon="-3.010802449688509"><ele>530.0</ele><time>2026-04-21T10:56:46.999Z</time></trkpt><trkpt lat="37.63109677026793" lon="-3.010770893883909"><ele>530.25</ele><time>2026-04-21T10:56:47.999Z</time></trkpt><trkpt lat="37.630977065045705" lon="-3.010724879174424"><ele>530.5</ele><time>2026-04-21T10:56:48.999Z</time></trkpt><trkpt lat="37.63086007511198" lon="-3.0106636761467658"><ele>530.75</ele><time>2026-04-21T10:56:49.999Z</time></trkpt><trkpt lat="37.630745587090956" lon="-3.0106078962795553"><ele>531.0</ele><time>2026-04-21T10:56:50.999Z</time></trkpt><trkpt lat="37.63064477996412" lon="-3.010562886489253"><ele>531.0</ele><time>2026-04-21T10:56:51.999Z</time></trkpt><trkpt lat="37.63054661994545" lon="-3.0105169931110534"><ele>531.0</ele><time>2026-04-21T10:56:52.999Z</time></trkpt><trkpt lat="37.63045122461846" lon="-3.0104675381544848"><ele>531.0</ele><time>2026-04-21T10:56:53.999Z</time></trkpt><trkpt lat="37.63036809521956" lon="-3.0104211061578727"><ele>531.0</ele><time>2026-04-21T10:56:54.999Z</time></trkpt><trkpt lat="37.63027818505648" lon="-3.010344277788962"><ele>531.0</ele><time>2026-04-21T10:56:55.999Z</time></trkpt><trkpt lat="37.63018851110945" lon="-3.010268478642408"><ele>530.4</ele><time>2026-04-21T10:56:56.999Z</time></trkpt><trkpt lat="37.63008918905691" lon="-3.0101739311956384"><ele>529.8</ele><time>2026-04-21T10:56:57.999Z</time></trkpt><trkpt lat="37.62998955425451" lon="-3.010074400521568"><ele>529.1999999999999</ele><time>2026-04-21T10:56:58.999Z</time></trkpt><trkpt lat="37.62991215930765" lon="-3.009992744499678"><ele>528.6</ele><time>2026-04-21T10:56:59.999Z</time></trkpt><trkpt lat="37.62984820331384" lon="-3.009919871429509"><ele>528.0</ele><time>2026-04-21T10:57:00.999Z</time></trkpt><trkpt lat="37.62980182304568" lon="-3.009855633644579"><ele>528.0</ele><time>2026-04-21T10:57:01.999Z</time></trkpt><trkpt lat="37.62974322948314" lon="-3.0098033746063972"><ele>528.0</ele><time>2026-04-21T10:57:02.999Z</time></trkpt><trkpt lat="37.62961025481744" lon="-3.0097994177985705"><ele>528.0</ele><time>2026-04-21T10:57:04.999Z</time></trkpt><trkpt lat="37.62953572685578" lon="-3.009850769875545"><ele>528.0</ele><time>2026-04-21T10:57:05.999Z</time></trkpt><trkpt lat="37.629469917599195" lon="-3.0099369199751798"><ele>528.0</ele><time>2026-04-21T10:57:06.999Z</time></trkpt><trkpt lat="37.62942744599682" lon="-3.0100623043652552"><ele>528.1999999999999</ele><time>2026-04-21T10:57:07.999Z</time></trkpt><trkpt lat="37.62937358142428" lon="-3.010220360250578"><ele>528.4</ele><time>2026-04-21T10:57:08.999Z</time></trkpt><trkpt lat="37.629331441014834" lon="-3.0103868340847706"><ele>528.5999999999999</ele><time>2026-04-21T10:57:09.999Z</time></trkpt><trkpt lat="37.629295285489434" lon="-3.0105125378248236"><ele>528.8</ele><time>2026-04-21T10:57:10.999Z</time></trkpt><trkpt lat="37.629267211400844" lon="-3.0105840701429876"><ele>529.0</ele><time>2026-04-21T10:57:11.999Z</time></trkpt><trkpt lat="37.62916824872034" lon="-3.0106601328271534"><ele>529.0</ele><time>2026-04-21T10:57:13.999Z</time></trkpt><trkpt lat="37.6291023040143" lon="-3.0106654521776695"><ele>529.0</ele><time>2026-04-21T10:57:14.999Z</time></trkpt><trkpt lat="37.6290201468062" lon="-3.010657568698657"><ele>529.0</ele><time>2026-04-21T10:57:15.999Z</time></trkpt><trkpt lat="37.628888606359155" lon="-3.0106441604508705"><ele>529.0</ele><time>2026-04-21T10:57:16.999Z</time></trkpt><trkpt lat="37.62872934189472" lon="-3.010644318173244"><ele>529.0</ele><time>2026-04-21T10:57:17.999Z</time></trkpt><trkpt lat="37.62857457872417" lon="-3.0106470942505625"><ele>529.0</ele><time>2026-04-21T10:57:18.999Z</time></trkpt><trkpt lat="37.628426934383896" lon="-3.010646519275434"><ele>529.0</ele><time>2026-04-21T10:57:19.999Z</time></trkpt><trkpt lat="37.62830897781737" lon="-3.0106528069565326"><ele>529.0</ele><time>2026-04-21T10:57:20.999Z</time></trkpt><trkpt lat="37.62820302545955" lon="-3.010654444700262"><ele>529.0</ele><time>2026-04-21T10:57:21.999Z</time></trkpt><trkpt lat="37.628077973038174" lon="-3.0106691910406345"><ele>529.0</ele><time>2026-04-21T10:57:22.999Z</time></trkpt><trkpt lat="37.62793448550475" lon="-3.010667543581889"><ele>529.0</ele><time>2026-04-21T10:57:23.999Z</time></trkpt><trkpt lat="37.6277875490261" lon="-3.0106579562106393"><ele>529.0</ele><time>2026-04-21T10:57:24.999Z</time></trkpt><trkpt lat="37.62762475735173" lon="-3.01065855158972"><ele>528.0</ele><time>2026-04-21T10:57:25.999Z</time></trkpt><trkpt lat="37.627467668095015" lon="-3.0106603971404478"><ele>527.0</ele><time>2026-04-21T10:57:26.999Z</time></trkpt><trkpt lat="37.627309772428426" lon="-3.0106652787131463"><ele>526.0</ele><time>2026-04-21T10:57:27.999Z</time></trkpt><trkpt lat="37.627154775327206" lon="-3.010674774915428"><ele>526.0</ele><time>2026-04-21T10:57:28.999Z</time></trkpt><trkpt lat="37.6270163596668" lon="-3.010679550152078"><ele>526.0</ele><time>2026-04-21T10:57:29.999Z</time></trkpt><trkpt lat="37.62688324234634" lon="-3.010679246220597"><ele>526.0</ele><time>2026-04-21T10:57:30.999Z</time></trkpt><trkpt lat="37.62675067761475" lon="-3.010685111450425"><ele>526.0</ele><time>2026-04-21T10:57:32Z</time></trkpt><trkpt lat="37.62660700755953" lon="-3.0106975926672033"><ele>526.5</ele><time>2026-04-21T10:57:33Z</time></trkpt><trkpt lat="37.626479611920836" lon="-3.0107009940802913"><ele>527.0</ele><time>2026-04-21T10:57:34Z</time></trkpt><trkpt lat="37.62636794554808" lon="-3.0106993600059315"><ele>527.5</ele><time>2026-04-21T10:57:35Z</time></trkpt><trkpt lat="37.62623970518157" lon="-3.0106978559122712"><ele>528.0</ele><time>2026-04-21T10:57:36Z</time></trkpt><trkpt lat="37.62613015985901" lon="-3.010697007289297"><ele>528.1999999999999</ele><time>2026-04-21T10:57:37Z</time></trkpt><trkpt lat="37.62603699793828" lon="-3.0106937988066824"><ele>528.4</ele><time>2026-04-21T10:57:38Z</time></trkpt><trkpt lat="37.625970738617006" lon="-3.0107011081416264"><ele>528.5999999999999</ele><time>2026-04-21T10:57:39Z</time></trkpt><trkpt lat="37.62588999283374" lon="-3.010781816815205"><ele>528.8</ele><time>2026-04-21T10:57:41Z</time></trkpt><trkpt lat="37.62586440749615" lon="-3.010875942927596"><ele>529.0</ele><time>2026-04-21T10:57:42Z</time></trkpt><trkpt lat="37.625839593566106" lon="-3.0110182473679896"><ele>529.0</ele><time>2026-04-21T10:57:43Z</time></trkpt><trkpt lat="37.62581041045887" lon="-3.0111966386922"><ele>529.0</ele><time>2026-04-21T10:57:44Z</time></trkpt><trkpt lat="37.62577923242495" lon="-3.011362358499008"><ele>529.0</ele><time>2026-04-21T10:57:45Z</time></trkpt><trkpt lat="37.62574672460715" lon="-3.0114985748781966"><ele>529.0</ele><time>2026-04-21T10:57:46Z</time></trkpt><trkpt lat="37.62572190776446" lon="-3.0116198365441664"><ele>529.8</ele><time>2026-04-21T10:57:47Z</time></trkpt><trkpt lat="37.62570635518972" lon="-3.011733513353604"><ele>530.5999999999999</ele><time>2026-04-21T10:57:48Z</time></trkpt><trkpt lat="37.6256907939419" lon="-3.011813952545582"><ele>531.4</ele><time>2026-04-21T10:57:49Z</time></trkpt><trkpt lat="37.625610939653896" lon="-3.0119023931722375"><ele>532.1999999999999</ele><time>2026-04-21T10:57:50.998Z</time></trkpt><trkpt lat="37.62547322767916" lon="-3.0118655737172184"><ele>533.0</ele><time>2026-04-21T10:57:52.998Z</time></trkpt><trkpt lat="37.62535770244462" lon="-3.011789788470903"><ele>533.3333333333333</ele><time>2026-04-21T10:57:53.998Z</time></trkpt><trkpt lat="37.62520543996735" lon="-3.0116907766516747"><ele>533.6666666666666</ele><time>2026-04-21T10:57:54.998Z</time></trkpt><trkpt lat="37.62503663652411" lon="-3.011604716695791"><ele>534.0</ele><time>2026-04-21T10:57:55.998Z</time></trkpt><trkpt lat="37.62489265390139" lon="-3.011534757313359"><ele>532.6666666666666</ele><time>2026-04-21T10:57:56.998Z</time></trkpt><trkpt lat="37.62472788724388" lon="-3.0114536776628533"><ele>531.3333333333333</ele><time>2026-04-21T10:57:57.998Z</time></trkpt><trkpt lat="37.62456239873364" lon="-3.0113610545729714"><ele>530.0</ele><time>2026-04-21T10:57:58.999Z</time></trkpt><trkpt lat="37.62441890060142" lon="-3.0112853205082244"><ele>530.0</ele><time>2026-04-21T10:57:59.999Z</time></trkpt><trkpt lat="37.62426841781245" lon="-3.0112082756175447"><ele>530.0</ele><time>2026-04-21T10:58:00.999Z</time></trkpt><trkpt lat="37.62413352036183" lon="-3.011139762581065"><ele>530.0</ele><time>2026-04-21T10:58:01.999Z</time></trkpt><trkpt lat="37.62401560432132" lon="-3.0110799926455627"><ele>530.0</ele><time>2026-04-21T10:58:02.999Z</time></trkpt><trkpt lat="37.62389871076565" lon="-3.0110230237488396"><ele>530.0</ele><time>2026-04-21T10:58:03.999Z</time></trkpt><trkpt lat="37.623762928929416" lon="-3.0109781223312875"><ele>530.0</ele><time>2026-04-21T10:58:04.999Z</time></trkpt><trkpt lat="37.62360845085934" lon="-3.0109214492041647"><ele>530.0</ele><time>2026-04-21T10:58:05.999Z</time></trkpt><trkpt lat="37.62345330168327" lon="-3.010853339287793"><ele>531.3333333333333</ele><time>2026-04-21T10:58:06.999Z</time></trkpt><trkpt lat="37.623289079651755" lon="-3.0107857061195458"><ele>532.6666666666666</ele><time>2026-04-21T10:58:07.999Z</time></trkpt><trkpt lat="37.623134576796986" lon="-3.0107374020684095"><ele>534.0</ele><time>2026-04-21T10:58:08.999Z</time></trkpt><trkpt lat="37.62297688992902" lon="-3.0106854333358"><ele>533.6666666666666</ele><time>2026-04-21T10:58:09.999Z</time></trkpt><trkpt lat="37.62281041725973" lon="-3.0106352472082545"><ele>533.3333333333333</ele><time>2026-04-21T10:58:10.999Z</time></trkpt><trkpt lat="37.62265085599221" lon="-3.0105875585494677"><ele>533.0</ele><time>2026-04-21T10:58:11.999Z</time></trkpt><trkpt lat="37.62250117681802" lon="-3.010532190997854"><ele>533.0</ele><time>2026-04-21T10:58:12.999Z</time></trkpt><trkpt lat="37.62235567865148" lon="-3.0104871270965434"><ele>533.0</ele><time>2026-04-21T10:58:13.999Z</time></trkpt><trkpt lat="37.62221437650511" lon="-3.010443636540426"><ele>533.0</ele><time>2026-04-21T10:58:14.999Z</time></trkpt><trkpt lat="37.622088667713804" lon="-3.0103983225648"><ele>533.0</ele><time>2026-04-21T10:58:15.999Z</time></trkpt><trkpt lat="37.62197747647449" lon="-3.0103577076879957"><ele>532.25</ele><time>2026-04-21T10:58:16.999Z</time></trkpt><trkpt lat="37.6218606408937" lon="-3.010324368960306"><ele>531.5</ele><time>2026-04-21T10:58:17.999Z</time></trkpt><trkpt lat="37.621728449764134" lon="-3.0102949883341443"><ele>530.75</ele><time>2026-04-21T10:58:18.999Z</time></trkpt><trkpt lat="37.6216042832049" lon="-3.01025721128653"><ele>530.0</ele><time>2026-04-21T10:58:19.999Z</time></trkpt><trkpt lat="37.621493981309264" lon="-3.010226247333715"><ele>530.0</ele><time>2026-04-21T10:58:20.999Z</time></trkpt><trkpt lat="37.621409627133325" lon="-3.0102084649787453"><ele>530.0</ele><time>2026-04-21T10:58:21.999Z</time></trkpt><trkpt lat="37.62133138939013" lon="-3.010302148674108"><ele>530.0</ele><time>2026-04-21T10:58:24.999Z</time></trkpt><trkpt lat="37.62129979490208" lon="-3.010397238792425"><ele>530.0</ele><time>2026-04-21T10:58:25.999Z</time></trkpt><trkpt lat="37.62127417552243" lon="-3.0105148167880045"><ele>530.0</ele><time>2026-04-21T10:58:26.999Z</time></trkpt><trkpt lat="37.62124301704073" lon="-3.010674060245107"><ele>530.75</ele><time>2026-04-21T10:58:27.999Z</time></trkpt><trkpt lat="37.621196184123995" lon="-3.0108595673667278"><ele>531.5</ele><time>2026-04-21T10:58:28.999Z</time></trkpt><trkpt lat="37.62116120890436" lon="-3.0110051255684662"><ele>532.25</ele><time>2026-04-21T10:58:29.999Z</time></trkpt><trkpt lat="37.62112408604508" lon="-3.0111382788440357"><ele>533.0</ele><time>2026-04-21T10:58:30.999Z</time></trkpt><trkpt lat="37.621092170207454" lon="-3.011245161347439"><ele>533.0</ele><time>2026-04-21T10:58:31.999Z</time></trkpt><trkpt lat="37.62103281657687" lon="-3.0113464194821886"><ele>533.0</ele><time>2026-04-21T10:58:33.999Z</time></trkpt><trkpt lat="37.62088794896812" lon="-3.011370070115307"><ele>533.0</ele><time>2026-04-21T10:58:36Z</time></trkpt><trkpt lat="37.620770425458865" lon="-3.011367476804556"><ele>533.0</ele><time>2026-04-21T10:58:37Z</time></trkpt><trkpt lat="37.620613996157935" lon="-3.011353873094243"><ele>533.0</ele><time>2026-04-21T10:58:38Z</time></trkpt><trkpt lat="37.62047594320408" lon="-3.0113610032590556"><ele>533.0</ele><time>2026-04-21T10:58:39Z</time></trkpt><trkpt lat="37.62035424961909" lon="-3.0113797586654054"><ele>533.0</ele><time>2026-04-21T10:58:40Z</time></trkpt><trkpt lat="37.62024249645644" lon="-3.0114204374613665"><ele>533.0</ele><time>2026-04-21T10:58:41Z</time></trkpt><trkpt lat="37.620148949508035" lon="-3.0114515929962002"><ele>533.0</ele><time>2026-04-21T10:58:42Z</time></trkpt><trkpt lat="37.6200636921615" lon="-3.0114790113596333"><ele>533.0</ele><time>2026-04-21T10:58:43Z</time></trkpt><trkpt lat="37.61998586947491" lon="-3.011532455329881"><ele>533.0</ele><time>2026-04-21T10:58:44Z</time></trkpt><trkpt lat="37.6199070450255" lon="-3.0116329225719882"><ele>533.0</ele><time>2026-04-21T10:58:45Z</time></trkpt><trkpt lat="37.619819250067636" lon="-3.011782313374473"><ele>533.0</ele><time>2026-04-21T10:58:46Z</time></trkpt><trkpt lat="37.61972078511636" lon="-3.011956168306309"><ele>533.75</ele><time>2026-04-21T10:58:47Z</time></trkpt><trkpt lat="37.61963690445154" lon="-3.012106617468688"><ele>534.5</ele><time>2026-04-21T10:58:48Z</time></trkpt><trkpt lat="37.61955083144403" lon="-3.012237088943149"><ele>535.25</ele><time>2026-04-21T10:58:49Z</time></trkpt><trkpt lat="37.61944230839636" lon="-3.012353345253983"><ele>536.0</ele><time>2026-04-21T10:58:50Z</time></trkpt><trkpt lat="37.61931654439752" lon="-3.0124518010725216"><ele>537.8</ele><time>2026-04-21T10:58:51Z</time></trkpt><trkpt lat="37.619194309127145" lon="-3.012531842193855"><ele>539.6</ele><time>2026-04-21T10:58:52Z</time></trkpt><trkpt lat="37.61909209379926" lon="-3.0125820973091457"><ele>541.4</ele><time>2026-04-21T10:58:53Z</time></trkpt><trkpt lat="37.61901536405163" lon="-3.0126187396490693"><ele>543.2</ele><time>2026-04-21T10:58:54Z</time></trkpt><trkpt lat="37.618946898553915" lon="-3.012633476355392"><ele>545.0</ele><time>2026-04-21T10:58:55Z</time></trkpt><trkpt lat="37.61884444739707" lon="-3.012641392100746"><ele>545.0</ele><time>2026-04-21T10:58:56Z</time></trkpt><trkpt lat="37.618705036944085" lon="-3.0126398639186034"><ele>545.0</ele><time>2026-04-21T10:58:57Z</time></trkpt><trkpt lat="37.618525094802436" lon="-3.0126612001793873"><ele>545.0</ele><time>2026-04-21T10:58:58Z</time></trkpt><trkpt lat="37.61836690630413" lon="-3.012664775385305"><ele>544.25</ele><time>2026-04-21T10:58:59Z</time></trkpt><trkpt lat="37.61821123372678" lon="-3.012663598349082"><ele>543.5</ele><time>2026-04-21T10:59:00Z</time></trkpt><trkpt lat="37.61806628044828" lon="-3.012651586325798"><ele>542.75</ele><time>2026-04-21T10:59:01Z</time></trkpt><trkpt lat="37.61794499778713" lon="-3.0126465317519733"><ele>542.0</ele><time>2026-04-21T10:59:02Z</time></trkpt><trkpt lat="37.61782946907878" lon="-3.012637031637485"><ele>542.0</ele><time>2026-04-21T10:59:03Z</time></trkpt><trkpt lat="37.617694144209814" lon="-3.0126320058689617"><ele>542.0</ele><time>2026-04-21T10:59:04Z</time></trkpt><trkpt lat="37.61755277115842" lon="-3.0126187300726395"><ele>542.0</ele><time>2026-04-21T10:59:05Z</time></trkpt><trkpt lat="37.61738152643392" lon="-3.0125883174879236"><ele>542.0</ele><time>2026-04-21T10:59:06Z</time></trkpt><trkpt lat="37.61721727963586" lon="-3.0125464272325746"><ele>542.0</ele><time>2026-04-21T10:59:07Z</time></trkpt><trkpt lat="37.61706774770643" lon="-3.0125039424498192"><ele>542.0</ele><time>2026-04-21T10:59:08Z</time></trkpt><trkpt lat="37.61691310038562" lon="-3.012459725436164"><ele>540.5</ele><time>2026-04-21T10:59:09Z</time></trkpt><trkpt lat="37.616772994296845" lon="-3.012425657652241"><ele>539.0</ele><time>2026-04-21T10:59:10Z</time></trkpt><trkpt lat="37.61663933461305" lon="-3.012383399319167"><ele>537.5</ele><time>2026-04-21T10:59:11Z</time></trkpt><trkpt lat="37.61650298636221" lon="-3.012332845422489"><ele>536.0</ele><time>2026-04-21T10:59:12Z</time></trkpt><trkpt lat="37.61633691883926" lon="-3.012288524006377"><ele>536.0</ele><time>2026-04-21T10:59:13Z</time></trkpt><trkpt lat="37.61616983850785" lon="-3.0122565178037464"><ele>536.0</ele><time>2026-04-21T10:59:14Z</time></trkpt><trkpt lat="37.61603526231124" lon="-3.012247234323229"><ele>536.0</ele><time>2026-04-21T10:59:15Z</time></trkpt><trkpt lat="37.6159135205552" lon="-3.0122543036019165"><ele>536.0</ele><time>2026-04-21T10:59:16Z</time></trkpt><trkpt lat="37.61578660517122" lon="-3.012268928159602"><ele>536.3333333333333</ele><time>2026-04-21T10:59:17Z</time></trkpt><trkpt lat="37.61563753747651" lon="-3.012294802280882"><ele>536.6666666666666</ele><time>2026-04-21T10:59:18Z</time></trkpt><trkpt lat="37.615479762335205" lon="-3.0123284534911865"><ele>537.0</ele><time>2026-04-21T10:59:19Z</time></trkpt><trkpt lat="37.61529881045338" lon="-3.0123422676856992"><ele>535.6666666666666</ele><time>2026-04-21T10:59:20Z</time></trkpt><trkpt lat="37.61512345989058" lon="-3.012362196331452"><ele>534.3333333333333</ele><time>2026-04-21T10:59:21Z</time></trkpt><trkpt lat="37.61498083280945" lon="-3.012378670987882"><ele>533.0</ele><time>2026-04-21T10:59:22Z</time></trkpt><trkpt lat="37.614838549813875" lon="-3.012401054770498"><ele>533.0</ele><time>2026-04-21T10:59:23Z</time></trkpt><trkpt lat="37.61471901579575" lon="-3.0124286999342806"><ele>533.0</ele><time>2026-04-21T10:59:24Z</time></trkpt><trkpt lat="37.614587812135696" lon="-3.0124498909406943"><ele>533.0</ele><time>2026-04-21T10:59:25Z</time></trkpt><trkpt lat="37.61444535187608" lon="-3.0124502287076735"><ele>533.0</ele><time>2026-04-21T10:59:26Z</time></trkpt><trkpt lat="37.614325081791705" lon="-3.012445655893625"><ele>533.1999999999999</ele><time>2026-04-21T10:59:27Z</time></trkpt><trkpt lat="37.6142235951311" lon="-3.0124430803241"><ele>533.4</ele><time>2026-04-21T10:59:28Z</time></trkpt><trkpt lat="37.61413313633207" lon="-3.0124518691615876"><ele>533.5999999999999</ele><time>2026-04-21T10:59:29Z</time></trkpt><trkpt lat="37.61404863475463" lon="-3.012479411131234"><ele>533.8</ele><time>2026-04-21T10:59:30Z</time></trkpt><trkpt lat="37.61396772454283" lon="-3.012523229752992"><ele>534.0</ele><time>2026-04-21T10:59:31Z</time></trkpt><trkpt lat="37.61389391869061" lon="-3.012575185885801"><ele>534.5</ele><time>2026-04-21T10:59:32Z</time></trkpt><trkpt lat="37.61382847185252" lon="-3.0126044004751593"><ele>535.0</ele><time>2026-04-21T10:59:33Z</time></trkpt><trkpt lat="37.61370970380539" lon="-3.0125948525020263"><ele>535.5</ele><time>2026-04-21T10:59:35Z</time></trkpt><trkpt lat="37.6136498361061" lon="-3.012547804040689"><ele>536.0</ele><time>2026-04-21T10:59:36Z</time></trkpt><trkpt lat="37.61359915290125" lon="-3.012493517997202"><ele>536.5</ele><time>2026-04-21T10:59:37Z</time></trkpt><trkpt lat="37.61356011205909" lon="-3.012427991644087"><ele>537.0</ele><time>2026-04-21T10:59:38Z</time></trkpt><trkpt lat="37.61348296786642" lon="-3.012334758396904"><ele>537.0</ele><time>2026-04-21T10:59:40Z</time></trkpt><trkpt lat="37.61339411923482" lon="-3.0122572607473743"><ele>537.0</ele><time>2026-04-21T10:59:42Z</time></trkpt><trkpt lat="37.613330700190545" lon="-3.0122428104844263"><ele>537.0</ele><time>2026-04-21T10:59:43Z</time></trkpt><trkpt lat="37.613206274680394" lon="-3.012316085619429"><ele>537.0</ele><time>2026-04-21T10:59:45Z</time></trkpt><trkpt lat="37.61313101610348" lon="-3.0124001958752387"><ele>537.0</ele><time>2026-04-21T10:59:46Z</time></trkpt><trkpt lat="37.61305770231424" lon="-3.0125017276059762"><ele>538.6</ele><time>2026-04-21T10:59:47Z</time></trkpt><trkpt lat="37.61299138002812" lon="-3.0126156534480257"><ele>540.2</ele><time>2026-04-21T10:59:48Z</time></trkpt><trkpt lat="37.612937898673835" lon="-3.0127485230687503"><ele>541.8</ele><time>2026-04-21T10:59:49Z</time></trkpt><trkpt lat="37.612895172783965" lon="-3.0128826391859964"><ele>543.4</ele><time>2026-04-21T10:59:50Z</time></trkpt><trkpt lat="37.6128612483239" lon="-3.0129999123495446"><ele>545.0</ele><time>2026-04-21T10:59:51Z</time></trkpt><trkpt lat="37.61284729630271" lon="-3.0131174602391675"><ele>545.0</ele><time>2026-04-21T10:59:52Z</time></trkpt><trkpt lat="37.612853684409934" lon="-3.013239921991923"><ele>545.0</ele><time>2026-04-21T10:59:53Z</time></trkpt><trkpt lat="37.61288385420077" lon="-3.0133822791556564"><ele>545.0</ele><time>2026-04-21T10:59:54Z</time></trkpt><trkpt lat="37.61291963952157" lon="-3.013547607191695"><ele>545.0</ele><time>2026-04-21T10:59:55Z</time></trkpt><trkpt lat="37.612962021073216" lon="-3.0136894391918396"><ele>547.6</ele><time>2026-04-21T10:59:55.999Z</time></trkpt><trkpt lat="37.612991035319496" lon="-3.013796435077504"><ele>550.2</ele><time>2026-04-21T10:59:56.999Z</time></trkpt><trkpt lat="37.612988164258084" lon="-3.013889297365568"><ele>552.8</ele><time>2026-04-21T10:59:57.999Z</time></trkpt><trkpt lat="37.612955172968064" lon="-3.013983866533631"><ele>555.4</ele><time>2026-04-21T10:59:58.999Z</time></trkpt><trkpt lat="37.612887462271075" lon="-3.0141007387309413"><ele>558.0</ele><time>2026-04-21T10:59:59.999Z</time></trkpt><trkpt lat="37.61279375220213" lon="-3.014221447529714"><ele>561.0</ele><time>2026-04-21T11:00:00.999Z</time></trkpt><trkpt lat="37.61269745106846" lon="-3.0143331709671086"><ele>564.0</ele><time>2026-04-21T11:00:01.999Z</time></trkpt><trkpt lat="37.61263772165786" lon="-3.0144433813406564"><ele>567.0</ele><time>2026-04-21T11:00:02.999Z</time></trkpt><trkpt lat="37.61259767737462" lon="-3.0145685125683297"><ele>570.0</ele><time>2026-04-21T11:00:03.999Z</time></trkpt><trkpt lat="37.6125719390317" lon="-3.0146758699147482"><ele>573.0</ele><time>2026-04-21T11:00:04.999Z</time></trkpt><trkpt lat="37.61254908839319" lon="-3.0147713149605297"><ele>573.0</ele><time>2026-04-21T11:00:06.999Z</time></trkpt><trkpt lat="37.61252347070012" lon="-3.0148996922915114"><ele>573.0</ele><time>2026-04-21T11:00:33Z</time></trkpt><trkpt lat="37.6124989846541" lon="-3.015017646072202"><ele>573.0</ele><time>2026-04-21T11:00:34Z</time></trkpt><trkpt lat="37.612474623365" lon="-3.0151467622721104"><ele>573.0</ele><time>2026-04-21T11:00:35Z</time></trkpt><trkpt lat="37.61244719947617" lon="-3.015283075255885"><ele>573.0</ele><time>2026-04-21T11:00:36Z</time></trkpt><trkpt lat="37.61242630115261" lon="-3.0154326223351897"><ele>573.0</ele><time>2026-04-21T11:00:37Z</time></trkpt><trkpt lat="37.61241993116557" lon="-3.0156008838331845"><ele>573.0</ele><time>2026-04-21T11:00:38Z</time></trkpt><trkpt lat="37.61242334334322" lon="-3.0157723476621623"><ele>573.0</ele><time>2026-04-21T11:00:39Z</time></trkpt><trkpt lat="37.61243763395945" lon="-3.015951272329006"><ele>573.0</ele><time>2026-04-21T11:00:40Z</time></trkpt><trkpt lat="37.61245508108012" lon="-3.0161383945625992"><ele>573.0</ele><time>2026-04-21T11:00:41Z</time></trkpt><trkpt lat="37.612475403202374" lon="-3.0163341050530414"><ele>573.0</ele><time>2026-04-21T11:00:42Z</time></trkpt><trkpt lat="37.61249032959752" lon="-3.016531058335525"><ele>573.0</ele><time>2026-04-21T11:00:43Z</time></trkpt><trkpt lat="37.612492807502655" lon="-3.0167474382066826"><ele>572.3333333333334</ele><time>2026-04-21T11:00:44Z</time></trkpt><trkpt lat="37.61248054754059" lon="-3.016958452126005"><ele>571.6666666666667</ele><time>2026-04-21T11:00:45Z</time></trkpt><trkpt lat="37.612462809346795" lon="-3.017149394261923"><ele>571.0</ele><time>2026-04-21T11:00:46Z</time></trkpt><trkpt lat="37.61246509523764" lon="-3.0173522635384655"><ele>573.6666666666667</ele><time>2026-04-21T11:00:47Z</time></trkpt><trkpt lat="37.61247319335338" lon="-3.017575104195805"><ele>576.3333333333334</ele><time>2026-04-21T11:00:48Z</time></trkpt><trkpt lat="37.61247837278706" lon="-3.017794688134748"><ele>579.0</ele><time>2026-04-21T11:00:49Z</time></trkpt><trkpt lat="37.61248937247205" lon="-3.018008772652685"><ele>579.0</ele><time>2026-04-21T11:00:50Z</time></trkpt><trkpt lat="37.612496792988566" lon="-3.018198519291554"><ele>579.0</ele><time>2026-04-21T11:00:51Z</time></trkpt><trkpt lat="37.61250108654429" lon="-3.0183519433528043"><ele>579.0</ele><time>2026-04-21T11:00:52Z</time></trkpt><trkpt lat="37.61250204933697" lon="-3.0184883168286554"><ele>579.0</ele><time>2026-04-21T11:00:53Z</time></trkpt><trkpt lat="37.61247834721673" lon="-3.018654716174106"><ele>579.75</ele><time>2026-04-21T11:00:54Z</time></trkpt><trkpt lat="37.6124421589628" lon="-3.018833284035419"><ele>580.5</ele><time>2026-04-21T11:00:55Z</time></trkpt><trkpt lat="37.612406443690595" lon="-3.01897809255181"><ele>581.25</ele><time>2026-04-21T11:00:56Z</time></trkpt><trkpt lat="37.6123618113851" lon="-3.0191121946124686"><ele>582.0</ele><time>2026-04-21T11:00:57Z</time></trkpt><trkpt lat="37.61234615504877" lon="-3.019266198321692"><ele>582.0</ele><time>2026-04-21T11:00:58Z</time></trkpt><trkpt lat="37.612352535554024" lon="-3.0194218110823496"><ele>582.0</ele><time>2026-04-21T11:00:59Z</time></trkpt><trkpt lat="37.61237546618115" lon="-3.0195617112480897"><ele>582.0</ele><time>2026-04-21T11:01:00Z</time></trkpt><trkpt lat="37.61242089526029" lon="-3.0196763286113675"><ele>582.0</ele><time>2026-04-21T11:01:01Z</time></trkpt><trkpt lat="37.612490714729226" lon="-3.019785446653769"><ele>582.0</ele><time>2026-04-21T11:01:02Z</time></trkpt><trkpt lat="37.612591915634006" lon="-3.0199224977996524"><ele>579.5</ele><time>2026-04-21T11:01:03Z</time></trkpt><trkpt lat="37.61270295347212" lon="-3.0200683416702088"><ele>577.0</ele><time>2026-04-21T11:01:04Z</time></trkpt><trkpt lat="37.612788191275946" lon="-3.0201831134357815"><ele>574.5</ele><time>2026-04-21T11:01:05Z</time></trkpt><trkpt lat="37.61285353838799" lon="-3.020289015607061"><ele>572.0</ele><time>2026-04-21T11:01:06Z</time></trkpt><trkpt lat="37.61289891320334" lon="-3.0204049025802826"><ele>573.6</ele><time>2026-04-21T11:01:07Z</time></trkpt><trkpt lat="37.61291567584279" lon="-3.0205401972535357"><ele>575.2</ele><time>2026-04-21T11:01:08Z</time></trkpt><trkpt lat="37.61293340989356" lon="-3.0206519467148563"><ele>576.8</ele><time>2026-04-21T11:01:09Z</time></trkpt><trkpt lat="37.61297508682333" lon="-3.0207268085420647"><ele>578.4</ele><time>2026-04-21T11:01:10Z</time></trkpt><trkpt lat="37.613047185602404" lon="-3.020791894094203"><ele>580.0</ele><time>2026-04-21T11:01:11Z</time></trkpt><trkpt lat="37.61314276669046" lon="-3.0208378266937155"><ele>580.0</ele><time>2026-04-21T11:01:12Z</time></trkpt><trkpt lat="37.61324475574764" lon="-3.0208771206093807"><ele>580.0</ele><time>2026-04-21T11:01:13Z</time></trkpt><trkpt lat="37.61334883256821" lon="-3.020919680345472"><ele>580.0</ele><time>2026-04-21T11:01:14Z</time></trkpt><trkpt lat="37.61342810172288" lon="-3.0209710029605916"><ele>580.0</ele><time>2026-04-21T11:01:15Z</time></trkpt><trkpt lat="37.61349230276216" lon="-3.0210300773508414"><ele>580.0</ele><time>2026-04-21T11:01:16Z</time></trkpt><trkpt lat="37.6135502304586" lon="-3.0210978120066896"><ele>580.0</ele><time>2026-04-21T11:01:17Z</time></trkpt><trkpt lat="37.61360620259268" lon="-3.0211622489690595"><ele>580.0</ele><time>2026-04-21T11:01:18Z</time></trkpt><trkpt lat="37.613674530207604" lon="-3.0212362245374664"><ele>580.0</ele><time>2026-04-21T11:01:19Z</time></trkpt><trkpt lat="37.61375684622126" lon="-3.0213099251977766"><ele>580.0</ele><time>2026-04-21T11:01:20Z</time></trkpt><trkpt lat="37.61383121672614" lon="-3.021368260186006"><ele>580.0</ele><time>2026-04-21T11:01:21Z</time></trkpt><trkpt lat="37.613898436454065" lon="-3.021400808418639"><ele>580.0</ele><time>2026-04-21T11:01:22Z</time></trkpt><trkpt lat="37.613959346839565" lon="-3.0214564504392336"><ele>580.0</ele><time>2026-04-21T11:01:24Z</time></trkpt><trkpt lat="37.61393612682275" lon="-3.021546166954097"><ele>580.0</ele><time>2026-04-21T11:01:27Z</time></trkpt><trkpt lat="37.61387939653232" lon="-3.0216168737996583"><ele>580.0</ele><time>2026-04-21T11:01:29.001Z</time></trkpt><trkpt lat="37.61381176463205" lon="-3.0216349278603096"><ele>580.0</ele><time>2026-04-21T11:01:31.001Z</time></trkpt><trkpt lat="37.613737310300124" lon="-3.0216249176746888"><ele>580.0</ele><time>2026-04-21T11:01:33.001Z</time></trkpt><trkpt lat="37.61365150147532" lon="-3.021600874166074"><ele>580.0</ele><time>2026-04-21T11:01:35.001Z</time></trkpt><trkpt lat="37.61352115569778" lon="-3.021555413558278"><ele>580.0</ele><time>2026-04-21T11:01:37.001Z</time></trkpt><trkpt lat="37.613452617293405" lon="-3.021531979516084"><ele>580.0</ele><time>2026-04-21T11:01:38.001Z</time></trkpt><trkpt lat="37.61330855707306" lon="-3.021558392121146"><ele>580.0</ele><time>2026-04-21T11:01:40.001Z</time></trkpt><trkpt lat="37.61322943443632" lon="-3.0215926510085507"><ele>580.0</ele><time>2026-04-21T11:01:41.001Z</time></trkpt><trkpt lat="37.613154618737106" lon="-3.02160949334414"><ele>580.0</ele><time>2026-04-21T11:01:42.001Z</time></trkpt><trkpt lat="37.613077460596145" lon="-3.0216014574007906"><ele>580.0</ele><time>2026-04-21T11:01:43.001Z</time></trkpt><trkpt lat="37.612997028179485" lon="-3.0215625656954255"><ele>580.0</ele><time>2026-04-21T11:01:44.001Z</time></trkpt><trkpt lat="37.61292593799671" lon="-3.02149702350594"><ele>580.0</ele><time>2026-04-21T11:01:45.001Z</time></trkpt><trkpt lat="37.61286017077399" lon="-3.021403351648353"><ele>580.0</ele><time>2026-04-21T11:01:46.001Z</time></trkpt><trkpt lat="37.612785176386375" lon="-3.0213228769838203"><ele>580.0</ele><time>2026-04-21T11:01:47.001Z</time></trkpt><trkpt lat="37.61269588967687" lon="-3.021274592438147"><ele>578.4</ele><time>2026-04-21T11:01:48.001Z</time></trkpt><trkpt lat="37.61260222118537" lon="-3.021211428397456"><ele>576.8</ele><time>2026-04-21T11:01:49.001Z</time></trkpt><trkpt lat="37.61253381328201" lon="-3.0211186497212053"><ele>575.2</ele><time>2026-04-21T11:01:50.001Z</time></trkpt><trkpt lat="37.61246831726979" lon="-3.0209897648070343"><ele>573.6</ele><time>2026-04-21T11:01:51.001Z</time></trkpt><trkpt lat="37.612422702240885" lon="-3.0208500978068162"><ele>572.0</ele><time>2026-04-21T11:01:52.001Z</time></trkpt><trkpt lat="37.61236235359279" lon="-3.020721854027138"><ele>572.0</ele><time>2026-04-21T11:01:53.001Z</time></trkpt><trkpt lat="37.61232407410508" lon="-3.020583644549745"><ele>572.0</ele><time>2026-04-21T11:01:54.001Z</time></trkpt><trkpt lat="37.61230182645653" lon="-3.0204432554137526"><ele>572.0</ele><time>2026-04-21T11:01:55.001Z</time></trkpt><trkpt lat="37.612261407341165" lon="-3.020330416736666"><ele>572.0</ele><time>2026-04-21T11:01:56.001Z</time></trkpt><trkpt lat="37.61220533019597" lon="-3.0202529253324792"><ele>572.0</ele><time>2026-04-21T11:01:57.001Z</time></trkpt><trkpt lat="37.61214754110048" lon="-3.020175783657685"><ele>572.0</ele><time>2026-04-21T11:01:58.001Z</time></trkpt><trkpt lat="37.61207508190227" lon="-3.02009787364347"><ele>572.0</ele><time>2026-04-21T11:01:59.001Z</time></trkpt><trkpt lat="37.61197138218028" lon="-3.0200311179953085"><ele>572.0</ele><time>2026-04-21T11:02:00.001Z</time></trkpt><trkpt lat="37.61186073567395" lon="-3.0199476227769866"><ele>572.0</ele><time>2026-04-21T11:02:01.001Z</time></trkpt><trkpt lat="37.61176215945844" lon="-3.0198944571368393"><ele>572.0</ele><time>2026-04-21T11:02:02Z</time></trkpt><trkpt lat="37.61166777742716" lon="-3.019850931900335"><ele>570.5</ele><time>2026-04-21T11:02:03Z</time></trkpt><trkpt lat="37.61155907197685" lon="-3.0197978971958555"><ele>569.0</ele><time>2026-04-21T11:02:04Z</time></trkpt><trkpt lat="37.611436959608355" lon="-3.019744189362391"><ele>567.5</ele><time>2026-04-21T11:02:05Z</time></trkpt><trkpt lat="37.61132617563832" lon="-3.019693230683004"><ele>566.0</ele><time>2026-04-21T11:02:06Z</time></trkpt><trkpt lat="37.61122714956542" lon="-3.0196447548138807"><ele>563.8333333333333</ele><time>2026-04-21T11:02:07Z</time></trkpt><trkpt lat="37.6111315662714" lon="-3.0195996156796876"><ele>561.6666666666666</ele><time>2026-04-21T11:02:08Z</time></trkpt><trkpt lat="37.61105082467799" lon="-3.019551869442555"><ele>559.5</ele><time>2026-04-21T11:02:09Z</time></trkpt><trkpt lat="37.61098488960185" lon="-3.019469083441282"><ele>557.3333333333334</ele><time>2026-04-21T11:02:10Z</time></trkpt><trkpt lat="37.61092841983932" lon="-3.0193997033080766"><ele>555.1666666666667</ele><time>2026-04-21T11:02:11Z</time></trkpt><trkpt lat="37.61088656078705" lon="-3.019312437517147"><ele>553.0</ele><time>2026-04-21T11:02:12Z</time></trkpt><trkpt lat="37.61086795192321" lon="-3.019183742047971"><ele>553.8</ele><time>2026-04-21T11:02:13Z</time></trkpt><trkpt lat="37.61086865967135" lon="-3.019038131862349"><ele>554.5999999999999</ele><time>2026-04-21T11:02:14Z</time></trkpt><trkpt lat="37.61087535683102" lon="-3.018922913592332"><ele>555.4000000000001</ele><time>2026-04-21T11:02:15Z</time></trkpt><trkpt lat="37.610850891552744" lon="-3.018819468177105"><ele>556.2</ele><time>2026-04-21T11:02:16Z</time></trkpt><trkpt lat="37.610753194442175" lon="-3.018779103550184"><ele>557.0</ele><time>2026-04-21T11:02:17Z</time></trkpt><trkpt lat="37.61068990398142" lon="-3.018669400518176"><ele>557.0</ele><time>2026-04-21T11:02:18Z</time></trkpt><trkpt lat="37.61066143635143" lon="-3.0185298129704754"><ele>557.0</ele><time>2026-04-21T11:02:19Z</time></trkpt><trkpt lat="37.61062071914846" lon="-3.018365126644873"><ele>557.0</ele><time>2026-04-21T11:02:20Z</time></trkpt><trkpt lat="37.610588622181076" lon="-3.0181815455536625"><ele>557.0</ele><time>2026-04-21T11:02:21Z</time></trkpt><trkpt lat="37.61054982611007" lon="-3.0180420283604774"><ele>557.4</ele><time>2026-04-21T11:02:22Z</time></trkpt><trkpt lat="37.61051655602553" lon="-3.0179489097187435"><ele>557.8000000000001</ele><time>2026-04-21T11:02:23Z</time></trkpt><trkpt lat="37.61047124118681" lon="-3.0178562753661495"><ele>558.2</ele><time>2026-04-21T11:02:24Z</time></trkpt><trkpt lat="37.61042654594374" lon="-3.0177456546718773"><ele>558.6</ele><time>2026-04-21T11:02:25Z</time></trkpt><trkpt lat="37.61034182023585" lon="-3.0176848437895973"><ele>559.0</ele><time>2026-04-21T11:02:26Z</time></trkpt><trkpt lat="37.61024729562221" lon="-3.017624845934926"><ele>556.0</ele><time>2026-04-21T11:02:27Z</time></trkpt><trkpt lat="37.610134372093476" lon="-3.0175639689641645"><ele>553.0</ele><time>2026-04-21T11:02:28Z</time></trkpt><trkpt lat="37.61003190734368" lon="-3.017488430491545"><ele>550.0</ele><time>2026-04-21T11:02:29Z</time></trkpt><trkpt lat="37.60993552480792" lon="-3.0173924126423777"><ele>547.0</ele><time>2026-04-21T11:02:30Z</time></trkpt><trkpt lat="37.609846646827485" lon="-3.0173258130019245"><ele>547.0</ele><time>2026-04-21T11:02:31Z</time></trkpt><trkpt lat="37.609785460294475" lon="-3.0172664605784343"><ele>547.0</ele><time>2026-04-21T11:02:32Z</time></trkpt><trkpt lat="37.609747544810915" lon="-3.01717873539107"><ele>547.0</ele><time>2026-04-21T11:02:33Z</time></trkpt><trkpt lat="37.60971263191316" lon="-3.0170529195367206"><ele>547.0</ele><time>2026-04-21T11:02:34Z</time></trkpt><trkpt lat="37.609686921939314" lon="-3.0168927744375442"><ele>547.0</ele><time>2026-04-21T11:02:35Z</time></trkpt><trkpt lat="37.60967268226088" lon="-3.016717923659705"><ele>547.2</ele><time>2026-04-21T11:02:36Z</time></trkpt><trkpt lat="37.60965939254692" lon="-3.0165498743051593"><ele>547.4000000000001</ele><time>2026-04-21T11:02:37Z</time></trkpt><trkpt lat="37.60966637523683" lon="-3.0164319260865913"><ele>547.5999999999999</ele><time>2026-04-21T11:02:38Z</time></trkpt><trkpt lat="37.609635577787465" lon="-3.0162987344145518"><ele>547.8</ele><time>2026-04-21T11:02:40Z</time></trkpt><trkpt lat="37.60953737769029" lon="-3.0162661423971673"><ele>548.0</ele><time>2026-04-21T11:02:42Z</time></trkpt><trkpt lat="37.60946322718598" lon="-3.016234830989131"><ele>546.1999999999999</ele><time>2026-04-21T11:02:43Z</time></trkpt><trkpt lat="37.609372237520525" lon="-3.016209319293797"><ele>544.4</ele><time>2026-04-21T11:02:44Z</time></trkpt><trkpt lat="37.60926758887279" lon="-3.016184254147724"><ele>542.5999999999999</ele><time>2026-04-21T11:02:45Z</time></trkpt><trkpt lat="37.609147245254384" lon="-3.0161508685289062"><ele>540.8</ele><time>2026-04-21T11:02:46Z</time></trkpt><trkpt lat="37.60902678912941" lon="-3.016122483126791"><ele>539.0</ele><time>2026-04-21T11:02:47Z</time></trkpt><trkpt lat="37.608890614755275" lon="-3.0160920570398244"><ele>539.0</ele><time>2026-04-21T11:02:48Z</time></trkpt><trkpt lat="37.60874573721253" lon="-3.016057547871983"><ele>539.0</ele><time>2026-04-21T11:02:49Z</time></trkpt><trkpt lat="37.60860584575853" lon="-3.0160109899436276"><ele>539.0</ele><time>2026-04-21T11:02:50Z</time></trkpt><trkpt lat="37.608457045174525" lon="-3.015955576196882"><ele>539.0</ele><time>2026-04-21T11:02:51Z</time></trkpt><trkpt lat="37.60831461474845" lon="-3.0158964485618736"><ele>539.6666666666666</ele><time>2026-04-21T11:02:52Z</time></trkpt><trkpt lat="37.608186255380545" lon="-3.0158042373387772"><ele>540.3333333333334</ele><time>2026-04-21T11:02:53Z</time></trkpt><trkpt lat="37.60803588935926" lon="-3.0157134921521225"><ele>541.0</ele><time>2026-04-21T11:02:54Z</time></trkpt><trkpt lat="37.60789532595853" lon="-3.0155699090271004"><ele>542.3333333333334</ele><time>2026-04-21T11:02:55Z</time></trkpt><trkpt lat="37.607746084884965" lon="-3.015491088061404"><ele>543.6666666666666</ele><time>2026-04-21T11:02:56Z</time></trkpt><trkpt lat="37.60760516331913" lon="-3.0154070838077476"><ele>545.0</ele><time>2026-04-21T11:02:57Z</time></trkpt><trkpt lat="37.607443433750454" lon="-3.015335317409905"><ele>545.0</ele><time>2026-04-21T11:02:58Z</time></trkpt><trkpt lat="37.60724836252188" lon="-3.0152582940136794"><ele>545.0</ele><time>2026-04-21T11:02:59Z</time></trkpt><trkpt lat="37.60706685272764" lon="-3.0151853226193395"><ele>545.0</ele><time>2026-04-21T11:03:00Z</time></trkpt><trkpt lat="37.60692974621282" lon="-3.0151282978368465"><ele>545.25</ele><time>2026-04-21T11:03:01Z</time></trkpt><trkpt lat="37.60679796817431" lon="-3.0150806642526486"><ele>545.5</ele><time>2026-04-21T11:03:02.001Z</time></trkpt><trkpt lat="37.606644396580556" lon="-3.0150751503599453"><ele>545.75</ele><time>2026-04-21T11:03:03.001Z</time></trkpt><trkpt lat="37.60650123706919" lon="-3.015065731016354"><ele>546.0</ele><time>2026-04-21T11:03:04.001Z</time></trkpt><trkpt lat="37.60637694112066" lon="-3.0150421776836285"><ele>546.0</ele><time>2026-04-21T11:03:05.001Z</time></trkpt><trkpt lat="37.6062421242078" lon="-3.0150144365384244"><ele>546.0</ele><time>2026-04-21T11:03:06.001Z</time></trkpt><trkpt lat="37.60609523647024" lon="-3.01498421159165"><ele>546.0</ele><time>2026-04-21T11:03:07.001Z</time></trkpt><trkpt lat="37.60599104740928" lon="-3.014711690302602"><ele>549.0</ele><time>2026-04-21T11:03:08.001Z</time></trkpt><trkpt lat="37.60588781005659" lon="-3.0146013411114367"><ele>552.0</ele><time>2026-04-21T11:03:09.001Z</time></trkpt><trkpt lat="37.60580008087747" lon="-3.0144862298641626"><ele>555.0</ele><time>2026-04-21T11:03:10.001Z</time></trkpt><trkpt lat="37.605733042667026" lon="-3.014388943984741"><ele>558.0</ele><time>2026-04-21T11:03:11.001Z</time></trkpt><trkpt lat="37.605677034141614" lon="-3.014311396505972"><ele>561.0</ele><time>2026-04-21T11:03:12.001Z</time></trkpt><trkpt lat="37.6056093354136" lon="-3.01422550468439"><ele>560.5</ele><time>2026-04-21T11:03:13.001Z</time></trkpt><trkpt lat="37.60552250638066" lon="-3.014132477585581"><ele>560.0</ele><time>2026-04-21T11:03:14.001Z</time></trkpt><trkpt lat="37.60542605083964" lon="-3.014039856138009"><ele>559.5</ele><time>2026-04-21T11:03:15.001Z</time></trkpt><trkpt lat="37.605336297313166" lon="-3.013950701170918"><ele>559.0</ele><time>2026-04-21T11:03:16.001Z</time></trkpt><trkpt lat="37.605254139821504" lon="-3.013868126527264"><ele>559.0</ele><time>2026-04-21T11:03:17.001Z</time></trkpt><trkpt lat="37.60517077949097" lon="-3.0137849803467907"><ele>559.0</ele><time>2026-04-21T11:03:18.001Z</time></trkpt><trkpt lat="37.605082551214096" lon="-3.0137078128723283"><ele>559.0</ele><time>2026-04-21T11:03:19.001Z</time></trkpt><trkpt lat="37.60499233596336" lon="-3.013625249784421"><ele>559.0</ele><time>2026-04-21T11:03:20.001Z</time></trkpt><trkpt lat="37.60490530619367" lon="-3.0135439897739356"><ele>559.0</ele><time>2026-04-21T11:03:21.001Z</time></trkpt><trkpt lat="37.60481874260352" lon="-3.0134616902441445"><ele>559.0</ele><time>2026-04-21T11:03:22.001Z</time></trkpt><trkpt lat="37.60472049110298" lon="-3.0133975469852037"><ele>559.0</ele><time>2026-04-21T11:03:23.001Z</time></trkpt><trkpt lat="37.60461888446212" lon="-3.013338787289237"><ele>559.0</ele><time>2026-04-21T11:03:24.001Z</time></trkpt><trkpt lat="37.604526197957185" lon="-3.0132711388382716"><ele>559.0</ele><time>2026-04-21T11:03:25.001Z</time></trkpt><trkpt lat="37.604426612567316" lon="-3.0132145054217725"><ele>559.0</ele><time>2026-04-21T11:03:26.001Z</time></trkpt><trkpt lat="37.604319678540826" lon="-3.0131608350173673"><ele>559.5</ele><time>2026-04-21T11:03:27.001Z</time></trkpt><trkpt lat="37.604204706551954" lon="-3.013095604525667"><ele>560.0</ele><time>2026-04-21T11:03:28.001Z</time></trkpt><trkpt lat="37.60407990084992" lon="-3.013005076473864"><ele>560.5</ele><time>2026-04-21T11:03:29.001Z</time></trkpt><trkpt lat="37.60397111234721" lon="-3.012858473230665"><ele>561.0</ele><time>2026-04-21T11:03:30.001Z</time></trkpt><trkpt lat="37.60385738085048" lon="-3.0127244910916158"><ele>561.0</ele><time>2026-04-21T11:03:31.001Z</time></trkpt><trkpt lat="37.60370895150223" lon="-3.012599534638874"><ele>561.0</ele><time>2026-04-21T11:03:32.001Z</time></trkpt><trkpt lat="37.603546327471626" lon="-3.0124756991041415"><ele>561.0</ele><time>2026-04-21T11:03:33.001Z</time></trkpt><trkpt lat="37.60338009098271" lon="-3.0123551414455574"><ele>561.0</ele><time>2026-04-21T11:03:34.001Z</time></trkpt><trkpt lat="37.603249286431826" lon="-3.012236897708418"><ele>561.0</ele><time>2026-04-21T11:03:35.001Z</time></trkpt><trkpt lat="37.60309123117194" lon="-3.012155557602327"><ele>561.0</ele><time>2026-04-21T11:03:36.001Z</time></trkpt><trkpt lat="37.602938765441706" lon="-3.012068237357731"><ele>559.3333333333334</ele><time>2026-04-21T11:03:37.001Z</time></trkpt><trkpt lat="37.602780221292285" lon="-3.011992270548296"><ele>557.6666666666667</ele><time>2026-04-21T11:03:38.001Z</time></trkpt><trkpt lat="37.60261665986442" lon="-3.0119388229636495"><ele>556.0</ele><time>2026-04-21T11:03:39.001Z</time></trkpt><trkpt lat="37.6024364676458" lon="-3.0119057999766943"><ele>556.0</ele><time>2026-04-21T11:03:40.001Z</time></trkpt><trkpt lat="37.602269505289364" lon="-3.0118848060638452"><ele>556.0</ele><time>2026-04-21T11:03:41.001Z</time></trkpt><trkpt lat="37.60212209370412" lon="-3.0118678539632664"><ele>556.0</ele><time>2026-04-21T11:03:42.001Z</time></trkpt><trkpt lat="37.601990442420785" lon="-3.0118502918864594"><ele>556.0</ele><time>2026-04-21T11:03:43.001Z</time></trkpt><trkpt lat="37.601887165687586" lon="-3.0118378912763024"><ele>556.2</ele><time>2026-04-21T11:03:44.001Z</time></trkpt><trkpt lat="37.60179647173216" lon="-3.0118325814171976"><ele>556.4000000000001</ele><time>2026-04-21T11:03:45.001Z</time></trkpt><trkpt lat="37.60171792610475" lon="-3.011849523582994"><ele>556.6</ele><time>2026-04-21T11:03:46.001Z</time></trkpt><trkpt lat="37.60163090053738" lon="-3.011902702303701"><ele>556.8000000000001</ele><time>2026-04-21T11:03:47.001Z</time></trkpt><trkpt lat="37.6015168880177" lon="-3.011991147517391"><ele>557.0</ele><time>2026-04-21T11:03:48.001Z</time></trkpt><trkpt lat="37.60138849544598" lon="-3.0121006798547025"><ele>557.0</ele><time>2026-04-21T11:03:49.001Z</time></trkpt><trkpt lat="37.60125307318047" lon="-3.0122210464733987"><ele>557.0</ele><time>2026-04-21T11:03:50.001Z</time></trkpt><trkpt lat="37.60110547434294" lon="-3.012334505061681"><ele>557.0</ele><time>2026-04-21T11:03:51.001Z</time></trkpt><trkpt lat="37.60094805698175" lon="-3.0124343360911126"><ele>556.0</ele><time>2026-04-21T11:03:52.001Z</time></trkpt><trkpt lat="37.6007867281351" lon="-3.012526892846032"><ele>555.0</ele><time>2026-04-21T11:03:53.001Z</time></trkpt><trkpt lat="37.600621913187965" lon="-3.0126025331982396"><ele>554.0</ele><time>2026-04-21T11:03:54.001Z</time></trkpt><trkpt lat="37.60045518043704" lon="-3.0126549849729245"><ele>551.5</ele><time>2026-04-21T11:03:55.001Z</time></trkpt><trkpt lat="37.60028836964952" lon="-3.012668697227063"><ele>549.0</ele><time>2026-04-21T11:03:56.001Z</time></trkpt><trkpt lat="37.600152819049626" lon="-3.012702014314734"><ele>546.5</ele><time>2026-04-21T11:03:57.001Z</time></trkpt><trkpt lat="37.6000096700967" lon="-3.0127222153924307"><ele>544.0</ele><time>2026-04-21T11:03:58.001Z</time></trkpt><trkpt lat="37.599870084352666" lon="-3.0127685041918704"><ele>544.0</ele><time>2026-04-21T11:03:59.001Z</time></trkpt><trkpt lat="37.599732631453996" lon="-3.01285038453528"><ele>544.0</ele><time>2026-04-21T11:04:00.001Z</time></trkpt><trkpt lat="37.599590367883636" lon="-3.0129506927172205"><ele>544.0</ele><time>2026-04-21T11:04:01.001Z</time></trkpt><trkpt lat="37.5994660546273" lon="-3.013039227784296"><ele>543.75</ele><time>2026-04-21T11:04:02.001Z</time></trkpt><trkpt lat="37.599360309088816" lon="-3.013119198469593"><ele>543.5</ele><time>2026-04-21T11:04:03.001Z</time></trkpt><trkpt lat="37.599245859629896" lon="-3.0132251590951418"><ele>543.25</ele><time>2026-04-21T11:04:04.001Z</time></trkpt><trkpt lat="37.599111980406825" lon="-3.0133448833994767"><ele>543.0</ele><time>2026-04-21T11:04:05.001Z</time></trkpt><trkpt lat="37.598967106277925" lon="-3.013431523406185"><ele>544.3333333333334</ele><time>2026-04-21T11:04:06.001Z</time></trkpt><trkpt lat="37.598822510955706" lon="-3.013492216462578"><ele>545.6666666666667</ele><time>2026-04-21T11:04:07.001Z</time></trkpt><trkpt lat="37.5987023697058" lon="-3.0136145508332226"><ele>547.0</ele><time>2026-04-21T11:04:08Z</time></trkpt><trkpt lat="37.5985708162574" lon="-3.0137429822522903"><ele>547.0</ele><time>2026-04-21T11:04:09Z</time></trkpt><trkpt lat="37.59842189117503" lon="-3.013872209892147"><ele>547.0</ele><time>2026-04-21T11:04:10Z</time></trkpt><trkpt lat="37.59827001213531" lon="-3.0139658692514497"><ele>547.0</ele><time>2026-04-21T11:04:11Z</time></trkpt><trkpt lat="37.598143726036" lon="-3.014086518745883"><ele>548.0</ele><time>2026-04-21T11:04:12Z</time></trkpt><trkpt lat="37.59801340551885" lon="-3.014178325102403"><ele>549.0</ele><time>2026-04-21T11:04:13Z</time></trkpt><trkpt lat="37.597882239090886" lon="-3.0142303450319266"><ele>550.0</ele><time>2026-04-21T11:04:14Z</time></trkpt><trkpt lat="37.59771348733192" lon="-3.014241887772096"><ele>550.0</ele><time>2026-04-21T11:04:15Z</time></trkpt><trkpt lat="37.59754227520254" lon="-3.0142492888151757"><ele>550.0</ele><time>2026-04-21T11:04:16Z</time></trkpt><trkpt lat="37.59738891260952" lon="-3.0142968142038264"><ele>550.0</ele><time>2026-04-21T11:04:17Z</time></trkpt><trkpt lat="37.59725005162744" lon="-3.01433633307684"><ele>550.0</ele><time>2026-04-21T11:04:18Z</time></trkpt><trkpt lat="37.59711574965009" lon="-3.01436901957501"><ele>550.0</ele><time>2026-04-21T11:04:19Z</time></trkpt><trkpt lat="37.596988543358066" lon="-3.0143681989296907"><ele>550.0</ele><time>2026-04-21T11:04:20Z</time></trkpt><trkpt lat="37.59686771101467" lon="-3.0143454125789337"><ele>550.0</ele><time>2026-04-21T11:04:21Z</time></trkpt><trkpt lat="37.59674889887159" lon="-3.014326819107718"><ele>550.0</ele><time>2026-04-21T11:04:22Z</time></trkpt><trkpt lat="37.596636679003176" lon="-3.014323250762459"><ele>550.0</ele><time>2026-04-21T11:04:23Z</time></trkpt><trkpt lat="37.59652595124721" lon="-3.014327217940126"><ele>550.0</ele><time>2026-04-21T11:04:24Z</time></trkpt><trkpt lat="37.59640137922792" lon="-3.0143230640643783"><ele>550.0</ele><time>2026-04-21T11:04:25Z</time></trkpt><trkpt lat="37.59627508099651" lon="-3.01434313854383"><ele>551.5</ele><time>2026-04-21T11:04:26Z</time></trkpt><trkpt lat="37.59615472345673" lon="-3.0143985403988873"><ele>553.0</ele><time>2026-04-21T11:04:27Z</time></trkpt><trkpt lat="37.596032421713254" lon="-3.014438894472077"><ele>554.5</ele><time>2026-04-21T11:04:28Z</time></trkpt><trkpt lat="37.59591598208762" lon="-3.0144893970256974"><ele>556.0</ele><time>2026-04-21T11:04:29Z</time></trkpt><trkpt lat="37.5958097810872" lon="-3.0145510157676774"><ele>556.0</ele><time>2026-04-21T11:04:30Z</time></trkpt><trkpt lat="37.595715488855085" lon="-3.0146078761575903"><ele>556.0</ele><time>2026-04-21T11:04:31Z</time></trkpt><trkpt lat="37.59563113873966" lon="-3.014643547336766"><ele>556.0</ele><time>2026-04-21T11:04:32Z</time></trkpt><trkpt lat="37.59554805919297" lon="-3.014619167725479"><ele>556.0</ele><time>2026-04-21T11:04:33Z</time></trkpt><trkpt lat="37.59548244305595" lon="-3.0146345437791595"><ele>556.0</ele><time>2026-04-21T11:04:34Z</time></trkpt><trkpt lat="37.59537718731247" lon="-3.0146583224610484"><ele>555.75</ele><time>2026-04-21T11:04:36Z</time></trkpt><trkpt lat="37.595288876477554" lon="-3.014732113957108"><ele>555.5</ele><time>2026-04-21T11:04:38Z</time></trkpt><trkpt lat="37.59520599066151" lon="-3.01470977910781"><ele>555.25</ele><time>2026-04-21T11:04:39Z</time></trkpt><trkpt lat="37.59531807840914" lon="-3.0147620481696276"><ele>555.0</ele><time>2026-04-21T11:04:56.001Z</time></trkpt><trkpt lat="37.59511383317563" lon="-3.0147002497913427"><ele>555.0</ele><time>2026-04-21T11:11:42.001Z</time></trkpt><trkpt lat="37.595041288763674" lon="-3.0146927485265245"><ele>555.0</ele><time>2026-04-21T11:11:43.001Z</time></trkpt><trkpt lat="37.59495058235372" lon="-3.014685509576767"><ele>555.0</ele><time>2026-04-21T11:11:44.001Z</time></trkpt><trkpt lat="37.59486329842167" lon="-3.0146848105069313"><ele>555.0</ele><time>2026-04-21T11:11:45.001Z</time></trkpt><trkpt lat="37.59477590516046" lon="-3.014680335262137"><ele>555.0</ele><time>2026-04-21T11:11:46.001Z</time></trkpt><trkpt lat="37.594711808942904" lon="-3.014726644924893"><ele>555.0</ele><time>2026-04-21T11:11:47.001Z</time></trkpt><trkpt lat="37.594646425861015" lon="-3.014788394436544"><ele>555.0</ele><time>2026-04-21T11:11:48.001Z</time></trkpt><trkpt lat="37.59458963951844" lon="-3.014878388749551"><ele>555.0</ele><time>2026-04-21T11:11:49.001Z</time></trkpt><trkpt lat="37.594515007005015" lon="-3.01499503723967"><ele>555.0</ele><time>2026-04-21T11:11:50.001Z</time></trkpt><trkpt lat="37.59444975500016" lon="-3.0150920668973487"><ele>555.0</ele><time>2026-04-21T11:11:51.001Z</time></trkpt><trkpt lat="37.59440292752804" lon="-3.01518803275445"><ele>555.0</ele><time>2026-04-21T11:11:52.001Z</time></trkpt><trkpt lat="37.59436140606866" lon="-3.015297559434478"><ele>553.5</ele><time>2026-04-21T11:11:53.001Z</time></trkpt><trkpt lat="37.59431614252604" lon="-3.015441866363333"><ele>552.0</ele><time>2026-04-21T11:11:54.001Z</time></trkpt><trkpt lat="37.594271204644" lon="-3.0155939699984247"><ele>550.5</ele><time>2026-04-21T11:11:55.001Z</time></trkpt><trkpt lat="37.594225664089095" lon="-3.015730718561959"><ele>549.0</ele><time>2026-04-21T11:11:56.001Z</time></trkpt><trkpt lat="37.59418547145869" lon="-3.015851470477812"><ele>549.0</ele><time>2026-04-21T11:11:57.001Z</time></trkpt><trkpt lat="37.59414664575759" lon="-3.0159592845876935"><ele>549.0</ele><time>2026-04-21T11:11:58.001Z</time></trkpt><trkpt lat="37.59411292315205" lon="-3.0160458905388494"><ele>549.0</ele><time>2026-04-21T11:11:59.001Z</time></trkpt><trkpt lat="37.59406373741137" lon="-3.016128732167619"><ele>549.0</ele><time>2026-04-21T11:12:00.001Z</time></trkpt><trkpt lat="37.593977793737196" lon="-3.01617017729175"><ele>549.0</ele><time>2026-04-21T11:12:01.001Z</time></trkpt><trkpt lat="37.59392977727098" lon="-3.016235209187891"><ele>549.0</ele><time>2026-04-21T11:12:02.001Z</time></trkpt><trkpt lat="37.59389068421008" lon="-3.0163062556520144"><ele>549.0</ele><time>2026-04-21T11:12:03.001Z</time></trkpt><trkpt lat="37.59384791552454" lon="-3.0164111966743743"><ele>549.0</ele><time>2026-04-21T11:12:04.001Z</time></trkpt><trkpt lat="37.593792012315" lon="-3.0165422586457797"><ele>549.0</ele><time>2026-04-21T11:12:05.001Z</time></trkpt><trkpt lat="37.593733798740324" lon="-3.0166796876520134"><ele>549.0</ele><time>2026-04-21T11:12:06.001Z</time></trkpt><trkpt lat="37.5936725394018" lon="-3.01682661019964"><ele>548.5</ele><time>2026-04-21T11:12:07.001Z</time></trkpt><trkpt lat="37.59360743392836" lon="-3.016985336472765"><ele>548.0</ele><time>2026-04-21T11:12:08.001Z</time></trkpt><trkpt lat="37.59353629616935" lon="-3.0171441082462627"><ele>547.5</ele><time>2026-04-21T11:12:09.001Z</time></trkpt><trkpt lat="37.59346489368918" lon="-3.017303473200229"><ele>547.0</ele><time>2026-04-21T11:12:10.001Z</time></trkpt><trkpt lat="37.593264999694895" lon="-3.0176657132147993"><ele>547.0</ele><time>2026-04-21T11:12:11.001Z</time></trkpt><trkpt lat="37.592827408312274" lon="-3.01765298665604"><ele>547.0</ele><time>2026-04-21T11:12:12.001Z</time></trkpt><trkpt lat="37.59272526341535" lon="-3.0176442940015322"><ele>547.0</ele><time>2026-04-21T11:12:13.001Z</time></trkpt><trkpt lat="37.5926181752484" lon="-3.0176408544540023"><ele>547.0</ele><time>2026-04-21T11:12:14.001Z</time></trkpt><trkpt lat="37.59252014068711" lon="-3.0176298081061534"><ele>547.0</ele><time>2026-04-21T11:12:15.001Z</time></trkpt><trkpt lat="37.592402298994564" lon="-3.0176469794657503"><ele>547.0</ele><time>2026-04-21T11:12:16.001Z</time></trkpt><trkpt lat="37.59229825923649" lon="-3.01769077148349"><ele>547.0</ele><time>2026-04-21T11:12:17.001Z</time></trkpt><trkpt lat="37.592198689248654" lon="-3.017720268517717"><ele>547.0</ele><time>2026-04-21T11:12:18.001Z</time></trkpt><trkpt lat="37.5920844876317" lon="-3.017711479816186"><ele>547.0</ele><time>2026-04-21T11:12:19.001Z</time></trkpt><trkpt lat="37.591949620122634" lon="-3.0177071617246933"><ele>547.0</ele><time>2026-04-21T11:12:20.001Z</time></trkpt><trkpt lat="37.591785306337876" lon="-3.017718006454288"><ele>547.0</ele><time>2026-04-21T11:12:21.001Z</time></trkpt><trkpt lat="37.59161901544189" lon="-3.0177205596860737"><ele>546.75</ele><time>2026-04-21T11:12:22.001Z</time></trkpt><trkpt lat="37.59147617026665" lon="-3.017722752931229"><ele>546.5</ele><time>2026-04-21T11:12:23.001Z</time></trkpt><trkpt lat="37.59133270452289" lon="-3.017722679333106"><ele>546.25</ele><time>2026-04-21T11:12:24.001Z</time></trkpt><trkpt lat="37.591201604739204" lon="-3.017714425282848"><ele>546.0</ele><time>2026-04-21T11:12:25.001Z</time></trkpt><trkpt lat="37.59110030343008" lon="-3.017690846871278"><ele>546.0</ele><time>2026-04-21T11:12:26.001Z</time></trkpt><trkpt lat="37.591021915971154" lon="-3.017646332705264"><ele>546.0</ele><time>2026-04-21T11:12:27.001Z</time></trkpt><trkpt lat="37.59093347510095" lon="-3.0175733427375713"><ele>546.0</ele><time>2026-04-21T11:12:45.999Z</time></trkpt><trkpt lat="37.59086929338901" lon="-3.017547127530054"><ele>546.0</ele><time>2026-04-21T11:12:46.999Z</time></trkpt><trkpt lat="37.59079993312326" lon="-3.017502795228436"><ele>546.0</ele><time>2026-04-21T11:12:47.999Z</time></trkpt><trkpt lat="37.59073579644502" lon="-3.0174478927348387"><ele>546.0</ele><time>2026-04-21T11:12:48.999Z</time></trkpt><trkpt lat="37.59062627108906" lon="-3.0173893887046317"><ele>546.0</ele><time>2026-04-21T11:12:50.999Z</time></trkpt><trkpt lat="37.59056191126745" lon="-3.0173792528112973"><ele>546.0</ele><time>2026-04-21T11:12:52.999Z</time></trkpt><trkpt lat="37.59056211291762" lon="-3.0172904593406416"><ele>546.0</ele><time>2026-04-21T11:16:01Z</time></trkpt><trkpt lat="37.590507687931485" lon="-3.017216641219375"><ele>546.0</ele><time>2026-04-21T11:16:14Z</time></trkpt><trkpt lat="37.59044873628466" lon="-3.01714001946359"><ele>546.0</ele><time>2026-04-21T11:16:15Z</time></trkpt><trkpt lat="37.59037994278925" lon="-3.017048252755367"><ele>546.0</ele><time>2026-04-21T11:16:16Z</time></trkpt><trkpt lat="37.59029084569414" lon="-3.016979647101871"><ele>547.0</ele><time>2026-04-21T11:16:17Z</time></trkpt><trkpt lat="37.590221862565905" lon="-3.016872777201595"><ele>548.0</ele><time>2026-04-21T11:16:18Z</time></trkpt><trkpt lat="37.590158791387" lon="-3.0167753852499226"><ele>549.0</ele><time>2026-04-21T11:16:19Z</time></trkpt><trkpt lat="37.590086906503814" lon="-3.016667055991385"><ele>550.0</ele><time>2026-04-21T11:16:20Z</time></trkpt><trkpt lat="37.590024944243424" lon="-3.0165558919699698"><ele>551.0</ele><time>2026-04-21T11:16:21Z</time></trkpt><trkpt lat="37.58994810647689" lon="-3.0164507600763706"><ele>551.0</ele><time>2026-04-21T11:16:22Z</time></trkpt><trkpt lat="37.58986672590845" lon="-3.016338848037175"><ele>551.0</ele><time>2026-04-21T11:16:23Z</time></trkpt><trkpt lat="37.589789119090135" lon="-3.016229745238316"><ele>551.0</ele><time>2026-04-21T11:16:24Z</time></trkpt><trkpt lat="37.58970888909434" lon="-3.0161185703665945"><ele>551.0</ele><time>2026-04-21T11:16:25Z</time></trkpt><trkpt lat="37.58964799913387" lon="-3.0159974727743593"><ele>551.0</ele><time>2026-04-21T11:16:26Z</time></trkpt><trkpt lat="37.58959424174512" lon="-3.0159056196670075"><ele>551.0</ele><time>2026-04-21T11:16:27Z</time></trkpt><trkpt lat="37.58953435437802" lon="-3.01582900195014"><ele>551.0</ele><time>2026-04-21T11:16:28Z</time></trkpt><trkpt lat="37.58948466863878" lon="-3.015744530652039"><ele>551.0</ele><time>2026-04-21T11:16:29Z</time></trkpt><trkpt lat="37.58943319777699" lon="-3.015670221334345"><ele>551.0</ele><time>2026-04-21T11:16:30Z</time></trkpt><trkpt lat="37.589386707474425" lon="-3.015602541266124"><ele>551.0</ele><time>2026-04-21T11:16:31Z</time></trkpt><trkpt lat="37.58930880974645" lon="-3.0155976834648692"><ele>551.6</ele><time>2026-04-21T11:16:32Z</time></trkpt><trkpt lat="37.58922262028183" lon="-3.0156204900599937"><ele>552.2</ele><time>2026-04-21T11:16:33Z</time></trkpt><trkpt lat="37.58911572380675" lon="-3.0156266596054437"><ele>552.8</ele><time>2026-04-21T11:16:34Z</time></trkpt><trkpt lat="37.58898591085275" lon="-3.015635945906953"><ele>553.4</ele><time>2026-04-21T11:16:35Z</time></trkpt><trkpt lat="37.588861636683795" lon="-3.01563173144094"><ele>554.0</ele><time>2026-04-21T11:16:36Z</time></trkpt><trkpt lat="37.5887312892258" lon="-3.015604527054992"><ele>554.0</ele><time>2026-04-21T11:16:37Z</time></trkpt><trkpt lat="37.58859677454279" lon="-3.01558702568954"><ele>554.0</ele><time>2026-04-21T11:16:38Z</time></trkpt><trkpt lat="37.58846384232828" lon="-3.0155936869341065"><ele>554.0</ele><time>2026-04-21T11:16:39Z</time></trkpt><trkpt lat="37.58835382129853" lon="-3.015579461113635"><ele>554.0</ele><time>2026-04-21T11:16:40Z</time></trkpt><trkpt lat="37.58823677845849" lon="-3.015561789482319"><ele>554.0</ele><time>2026-04-21T11:16:41Z</time></trkpt><trkpt lat="37.58815055623357" lon="-3.015535982331281"><ele>554.0</ele><time>2026-04-21T11:16:42Z</time></trkpt><trkpt lat="37.58801556811702" lon="-3.015486785935899"><ele>554.0</ele><time>2026-04-21T11:16:43Z</time></trkpt><trkpt lat="37.58788746903831" lon="-3.015406876380476"><ele>554.0</ele><time>2026-04-21T11:16:44Z</time></trkpt><trkpt lat="37.58776681760751" lon="-3.015349447295594"><ele>554.0</ele><time>2026-04-21T11:16:45Z</time></trkpt><trkpt lat="37.58764280849647" lon="-3.015321561723068"><ele>554.0</ele><time>2026-04-21T11:16:46Z</time></trkpt><trkpt lat="37.58751764969629" lon="-3.0152864773883925"><ele>554.0</ele><time>2026-04-21T11:16:47Z</time></trkpt><trkpt lat="37.58741269081195" lon="-3.01524191416206"><ele>554.0</ele><time>2026-04-21T11:16:48Z</time></trkpt><trkpt lat="37.58728979419327" lon="-3.0151759739914548"><ele>554.0</ele><time>2026-04-21T11:16:49Z</time></trkpt><trkpt lat="37.58715252822892" lon="-3.0150838507148747"><ele>554.0</ele><time>2026-04-21T11:16:50Z</time></trkpt><trkpt lat="37.58701781217886" lon="-3.0150051429300837"><ele>554.0</ele><time>2026-04-21T11:16:51Z</time></trkpt><trkpt lat="37.586893790533004" lon="-3.0149316566272084"><ele>554.0</ele><time>2026-04-21T11:16:52Z</time></trkpt><trkpt lat="37.58675271885761" lon="-3.0148481096523705"><ele>552.0</ele><time>2026-04-21T11:16:53Z</time></trkpt><trkpt lat="37.58663758534657" lon="-3.0147518795135926"><ele>550.0</ele><time>2026-04-21T11:16:54Z</time></trkpt><trkpt lat="37.58652040503101" lon="-3.014666821697427"><ele>548.0</ele><time>2026-04-21T11:16:55Z</time></trkpt><trkpt lat="37.58640712137648" lon="-3.0145791756872704"><ele>546.0</ele><time>2026-04-21T11:16:56Z</time></trkpt><trkpt lat="37.58631012829478" lon="-3.0145056873173535"><ele>546.0</ele><time>2026-04-21T11:16:57Z</time></trkpt><trkpt lat="37.586213990772585" lon="-3.014446664248415"><ele>546.0</ele><time>2026-04-21T11:16:58Z</time></trkpt><trkpt lat="37.58612426205535" lon="-3.0143993119960095"><ele>546.0</ele><time>2026-04-21T11:16:59Z</time></trkpt><trkpt lat="37.58603052487034" lon="-3.01436664625375"><ele>546.0</ele><time>2026-04-21T11:17:00Z</time></trkpt><trkpt lat="37.58590989403686" lon="-3.01436123204984"><ele>546.0</ele><time>2026-04-21T11:17:01Z</time></trkpt><trkpt lat="37.585777858583015" lon="-3.0143621954229816"><ele>546.2</ele><time>2026-04-21T11:17:02Z</time></trkpt><trkpt lat="37.58564986476521" lon="-3.0143602388164425"><ele>546.4000000000001</ele><time>2026-04-21T11:17:03Z</time></trkpt><trkpt lat="37.58555155287872" lon="-3.0143649598614983"><ele>546.6</ele><time>2026-04-21T11:17:04Z</time></trkpt><trkpt lat="37.58544988659041" lon="-3.0143764990278936"><ele>546.8000000000001</ele><time>2026-04-21T11:17:05Z</time></trkpt><trkpt lat="37.58535136624543" lon="-3.0144019239656905"><ele>547.0</ele><time>2026-04-21T11:17:06Z</time></trkpt><trkpt lat="37.5852780440471" lon="-3.014409581867718"><ele>547.4</ele><time>2026-04-21T11:17:07Z</time></trkpt><trkpt lat="37.58521382826951" lon="-3.01436673828804"><ele>547.8000000000001</ele><time>2026-04-21T11:17:08Z</time></trkpt><trkpt lat="37.585142305681025" lon="-3.014290467817846"><ele>548.2</ele><time>2026-04-21T11:17:09Z</time></trkpt><trkpt lat="37.58506832984558" lon="-3.0141788468261437"><ele>548.6</ele><time>2026-04-21T11:17:10Z</time></trkpt><trkpt lat="37.585009752494386" lon="-3.0140884010719575"><ele>549.0</ele><time>2026-04-21T11:17:11Z</time></trkpt><trkpt lat="37.58491542822329" lon="-3.014026097003017"><ele>549.0</ele><time>2026-04-21T11:17:12Z</time></trkpt><trkpt lat="37.584793362959076" lon="-3.0139559550812867"><ele>549.0</ele><time>2026-04-21T11:17:13Z</time></trkpt><trkpt lat="37.58465691245606" lon="-3.0138776611605906"><ele>549.0</ele><time>2026-04-21T11:17:14Z</time></trkpt><trkpt lat="37.584546680848455" lon="-3.013800661400828"><ele>549.0</ele><time>2026-04-21T11:17:15Z</time></trkpt><trkpt lat="37.58445738706484" lon="-3.013730936582884"><ele>549.0</ele><time>2026-04-21T11:17:16Z</time></trkpt><trkpt lat="37.58437720569483" lon="-3.0136799441905793"><ele>549.0</ele><time>2026-04-21T11:17:17Z</time></trkpt><trkpt lat="37.58427489542354" lon="-3.0136550396816655"><ele>549.0</ele><time>2026-04-21T11:17:18Z</time></trkpt><trkpt lat="37.584150146577755" lon="-3.013647404359459"><ele>549.0</ele><time>2026-04-21T11:17:19Z</time></trkpt><trkpt lat="37.58402745875646" lon="-3.0136458916593214"><ele>549.0</ele><time>2026-04-21T11:17:20Z</time></trkpt><trkpt lat="37.58393631298088" lon="-3.0136238167040497"><ele>549.0</ele><time>2026-04-21T11:17:21Z</time></trkpt><trkpt lat="37.58384448262227" lon="-3.013565501898695"><ele>549.0</ele><time>2026-04-21T11:17:22Z</time></trkpt><trkpt lat="37.583751178655156" lon="-3.013473322855594"><ele>549.0</ele><time>2026-04-21T11:17:23Z</time></trkpt><trkpt lat="37.58365635805084" lon="-3.0133697104376207"><ele>549.0</ele><time>2026-04-21T11:17:24Z</time></trkpt><trkpt lat="37.58356304971726" lon="-3.013289801106182"><ele>550.2</ele><time>2026-04-21T11:17:25Z</time></trkpt><trkpt lat="37.583481074313866" lon="-3.013234289097978"><ele>551.4</ele><time>2026-04-21T11:17:26Z</time></trkpt><trkpt lat="37.583399454927964" lon="-3.013210605223657"><ele>552.6</ele><time>2026-04-21T11:17:27Z</time></trkpt><trkpt lat="37.58331718853183" lon="-3.013223907504757"><ele>553.8</ele><time>2026-04-21T11:17:28Z</time></trkpt><trkpt lat="37.5832077857736" lon="-3.0132536819383886"><ele>555.0</ele><time>2026-04-21T11:17:29Z</time></trkpt><trkpt lat="37.583104168831014" lon="-3.0132584237810867"><ele>555.0</ele><time>2026-04-21T11:17:30Z</time></trkpt><trkpt lat="37.582994000590794" lon="-3.0132233206592787"><ele>555.0</ele><time>2026-04-21T11:17:31Z</time></trkpt><trkpt lat="37.582879183328174" lon="-3.0131626669761724"><ele>555.0</ele><time>2026-04-21T11:17:32Z</time></trkpt><trkpt lat="37.582777300186585" lon="-3.0131132171732387"><ele>555.0</ele><time>2026-04-21T11:17:33Z</time></trkpt><trkpt lat="37.58268123153805" lon="-3.0130498619317834"><ele>556.2</ele><time>2026-04-21T11:17:34Z</time></trkpt><trkpt lat="37.58259325214015" lon="-3.0129637561108527"><ele>557.4</ele><time>2026-04-21T11:17:35Z</time></trkpt><trkpt lat="37.582524500051576" lon="-3.0128644125051722"><ele>558.6</ele><time>2026-04-21T11:17:36Z</time></trkpt><trkpt lat="37.58246006331037" lon="-3.012774929796761"><ele>559.8</ele><time>2026-04-21T11:17:37Z</time></trkpt><trkpt lat="37.582365692802206" lon="-3.012692850823482"><ele>561.0</ele><time>2026-04-21T11:17:38Z</time></trkpt><trkpt lat="37.5822474593631" lon="-3.0126282777364692"><ele>561.0</ele><time>2026-04-21T11:17:39Z</time></trkpt><trkpt lat="37.58213368919666" lon="-3.012569898692249"><ele>561.0</ele><time>2026-04-21T11:17:40Z</time></trkpt><trkpt lat="37.58204826078451" lon="-3.0125132528583514"><ele>561.0</ele><time>2026-04-21T11:17:41Z</time></trkpt><trkpt lat="37.581986097153326" lon="-3.012460972777854"><ele>561.0</ele><time>2026-04-21T11:17:42Z</time></trkpt><trkpt lat="37.581907525203846" lon="-3.0123489415539777"><ele>561.0</ele><time>2026-04-21T11:17:44Z</time></trkpt><trkpt lat="37.58187065037483" lon="-3.012173280587096"><ele>560.6</ele><time>2026-04-21T11:17:46Z</time></trkpt><trkpt lat="37.58185809613701" lon="-3.012049068115707"><ele>560.2</ele><time>2026-04-21T11:17:47Z</time></trkpt><trkpt lat="37.581852924832894" lon="-3.011916931008718"><ele>559.8</ele><time>2026-04-21T11:17:48Z</time></trkpt><trkpt lat="37.58184767149647" lon="-3.011834283779866"><ele>559.4</ele><time>2026-04-21T11:17:49Z</time></trkpt><trkpt lat="37.58176278773198" lon="-3.0117259309238316"><ele>559.0</ele><time>2026-04-21T11:17:51Z</time></trkpt><trkpt lat="37.58166611637241" lon="-3.0116609240891807"><ele>558.5</ele><time>2026-04-21T11:17:52Z</time></trkpt><trkpt lat="37.581546827534005" lon="-3.0115768112493875"><ele>558.0</ele><time>2026-04-21T11:17:53Z</time></trkpt><trkpt lat="37.58143119647398" lon="-3.0115029483000124"><ele>557.5</ele><time>2026-04-21T11:17:54Z</time></trkpt><trkpt lat="37.581319845105845" lon="-3.011467276796082"><ele>557.0</ele><time>2026-04-21T11:17:55Z</time></trkpt><trkpt lat="37.58121577104457" lon="-3.0114493381827945"><ele>557.8333333333333</ele><time>2026-04-21T11:17:56Z</time></trkpt><trkpt lat="37.581121901340516" lon="-3.011420098648818"><ele>558.6666666666666</ele><time>2026-04-21T11:17:57Z</time></trkpt><trkpt lat="37.581040325759076" lon="-3.011390910706311"><ele>559.5</ele><time>2026-04-21T11:17:58Z</time></trkpt><trkpt lat="37.58096163864291" lon="-3.011366007463328"><ele>560.3333333333334</ele><time>2026-04-21T11:17:59Z</time></trkpt><trkpt lat="37.58087632743132" lon="-3.0113356938947806"><ele>561.1666666666667</ele><time>2026-04-21T11:18:00Z</time></trkpt><trkpt lat="37.5808136044241" lon="-3.011297018976927"><ele>562.0</ele><time>2026-04-21T11:18:01Z</time></trkpt><trkpt lat="37.580768131459855" lon="-3.011228450726253"><ele>562.0</ele><time>2026-04-21T11:18:02Z</time></trkpt><trkpt lat="37.58074471281999" lon="-3.0111399220211315"><ele>562.0</ele><time>2026-04-21T11:18:03Z</time></trkpt><trkpt lat="37.5807414503835" lon="-3.011019750958956"><ele>562.0</ele><time>2026-04-21T11:18:04Z</time></trkpt><trkpt lat="37.58076529068546" lon="-3.010869627885661"><ele>562.0</ele><time>2026-04-21T11:18:05Z</time></trkpt><trkpt lat="37.58078494645688" lon="-3.010684445743614"><ele>562.0</ele><time>2026-04-21T11:18:06Z</time></trkpt><trkpt lat="37.580801309624945" lon="-3.010560931973622"><ele>562.5</ele><time>2026-04-21T11:18:07Z</time></trkpt><trkpt lat="37.58082517783033" lon="-3.0104653972336437"><ele>563.0</ele><time>2026-04-21T11:18:08Z</time></trkpt><trkpt lat="37.58086351298651" lon="-3.010376442523726"><ele>563.5</ele><time>2026-04-21T11:18:09Z</time></trkpt><trkpt lat="37.58092272262162" lon="-3.0102962498553754"><ele>564.0</ele><time>2026-04-21T11:18:10Z</time></trkpt><trkpt lat="37.58100312031021" lon="-3.010219998201882"><ele>564.5</ele><time>2026-04-21T11:18:11Z</time></trkpt><trkpt lat="37.58108972792519" lon="-3.010151673162588"><ele>565.0</ele><time>2026-04-21T11:18:12Z</time></trkpt><trkpt lat="37.58115743266348" lon="-3.010082083237128"><ele>565.4</ele><time>2026-04-21T11:18:13Z</time></trkpt><trkpt lat="37.58119900066631" lon="-3.0099920637978874"><ele>565.8</ele><time>2026-04-21T11:18:14Z</time></trkpt><trkpt lat="37.581223493146545" lon="-3.0098686704116133"><ele>566.2</ele><time>2026-04-21T11:18:15Z</time></trkpt><trkpt lat="37.581218490476026" lon="-3.0097337572685308"><ele>566.6</ele><time>2026-04-21T11:18:16Z</time></trkpt><trkpt lat="37.58118884204706" lon="-3.009585016392274"><ele>567.0</ele><time>2026-04-21T11:18:17Z</time></trkpt><trkpt lat="37.58114376023116" lon="-3.0094233624864772"><ele>567.0</ele><time>2026-04-21T11:18:18Z</time></trkpt><trkpt lat="37.58109695355449" lon="-3.0092512285195423"><ele>567.0</ele><time>2026-04-21T11:18:19Z</time></trkpt><trkpt lat="37.58105297776522" lon="-3.0090770239020994"><ele>567.0</ele><time>2026-04-21T11:18:20Z</time></trkpt><trkpt lat="37.58101248950782" lon="-3.008917909204625"><ele>567.0</ele><time>2026-04-21T11:18:21Z</time></trkpt><trkpt lat="37.580968243741715" lon="-3.00876750512259"><ele>564.0</ele><time>2026-04-21T11:18:22Z</time></trkpt><trkpt lat="37.58092460523493" lon="-3.008628029450422"><ele>561.0</ele><time>2026-04-21T11:18:23Z</time></trkpt><trkpt lat="37.5808558966085" lon="-3.0084764647672313"><ele>558.0</ele><time>2026-04-21T11:18:24Z</time></trkpt><trkpt lat="37.580789667545105" lon="-3.0083210341578144"><ele>555.0</ele><time>2026-04-21T11:18:25Z</time></trkpt><trkpt lat="37.580742326058214" lon="-3.008205295417353"><ele>555.0</ele><time>2026-04-21T11:18:26Z</time></trkpt><trkpt lat="37.58071317215604" lon="-3.0081074409232724"><ele>555.0</ele><time>2026-04-21T11:18:27Z</time></trkpt><trkpt lat="37.580684739148836" lon="-3.008028786270952"><ele>555.0</ele><time>2026-04-21T11:18:28Z</time></trkpt><trkpt lat="37.580590781422" lon="-3.0079612227132384"><ele>555.0</ele><time>2026-04-21T11:18:30Z</time></trkpt><trkpt lat="37.580499297122124" lon="-3.007953376244475"><ele>555.0</ele><time>2026-04-21T11:18:31Z</time></trkpt><trkpt lat="37.580371894235675" lon="-3.0079783646031197"><ele>555.0</ele><time>2026-04-21T11:18:32Z</time></trkpt><trkpt lat="37.58024482083112" lon="-3.008019778525855"><ele>555.0</ele><time>2026-04-21T11:18:33Z</time></trkpt><trkpt lat="37.58015662494824" lon="-3.0080652883654744"><ele>555.0</ele><time>2026-04-21T11:18:34Z</time></trkpt><trkpt lat="37.5800744684107" lon="-3.0081317196328583"><ele>555.0</ele><time>2026-04-21T11:18:35Z</time></trkpt><trkpt lat="37.5799957862499" lon="-3.0082335726464255"><ele>555.0</ele><time>2026-04-21T11:18:36Z</time></trkpt><trkpt lat="37.57990767017063" lon="-3.008364562634894"><ele>555.0</ele><time>2026-04-21T11:18:37Z</time></trkpt><trkpt lat="37.57980427122169" lon="-3.0085225563529385"><ele>555.0</ele><time>2026-04-21T11:18:38Z</time></trkpt><trkpt lat="37.579702006310654" lon="-3.0086841243679414"><ele>555.0</ele><time>2026-04-21T11:18:39Z</time></trkpt><trkpt lat="37.579622065283154" lon="-3.008831983552755"><ele>555.0</ele><time>2026-04-21T11:18:40Z</time></trkpt><trkpt lat="37.57954426358422" lon="-3.0089715222681703"><ele>555.0</ele><time>2026-04-21T11:18:41Z</time></trkpt><trkpt lat="37.579455183050115" lon="-3.0090865888846237"><ele>555.0</ele><time>2026-04-21T11:18:42Z</time></trkpt><trkpt lat="37.57934161838948" lon="-3.0092084214459933"><ele>555.0</ele><time>2026-04-21T11:18:43Z</time></trkpt><trkpt lat="37.579227852476464" lon="-3.009316054675087"><ele>554.25</ele><time>2026-04-21T11:18:44Z</time></trkpt><trkpt lat="37.57913508592931" lon="-3.0094096746420007"><ele>553.5</ele><time>2026-04-21T11:18:45Z</time></trkpt><trkpt lat="37.57903891774753" lon="-3.0094820610728994"><ele>552.75</ele><time>2026-04-21T11:18:46Z</time></trkpt><trkpt lat="37.57892756618847" lon="-3.0095365597013375"><ele>552.0</ele><time>2026-04-21T11:18:47Z</time></trkpt><trkpt lat="37.578804183541976" lon="-3.0095729443354817"><ele>551.0</ele><time>2026-04-21T11:18:48Z</time></trkpt><trkpt lat="37.57867753676439" lon="-3.0096227973757044"><ele>550.0</ele><time>2026-04-21T11:18:49Z</time></trkpt><trkpt lat="37.57855220830015" lon="-3.0096840869915367"><ele>549.0</ele><time>2026-04-21T11:18:50Z</time></trkpt><trkpt lat="37.57842946431095" lon="-3.00973420497839"><ele>548.0</ele><time>2026-04-21T11:18:51Z</time></trkpt><trkpt lat="37.57830142865328" lon="-3.0097688733572414"><ele>548.0</ele><time>2026-04-21T11:18:52Z</time></trkpt><trkpt lat="37.578195030391974" lon="-3.0097887901414966"><ele>548.0</ele><time>2026-04-21T11:18:53Z</time></trkpt><trkpt lat="37.578092586030365" lon="-3.0098032336838156"><ele>548.0</ele><time>2026-04-21T11:18:54Z</time></trkpt><trkpt lat="37.577999253904146" lon="-3.0098157929559246"><ele>548.0</ele><time>2026-04-21T11:18:55Z</time></trkpt><trkpt lat="37.57788396946938" lon="-3.0098028666351286"><ele>548.0</ele><time>2026-04-21T11:18:57Z</time></trkpt><trkpt lat="37.57776883936663" lon="-3.0097051032367435"><ele>548.8</ele><time>2026-04-21T11:18:59Z</time></trkpt><trkpt lat="37.57768455519028" lon="-3.0096470664854356"><ele>549.5999999999999</ele><time>2026-04-21T11:19:00Z</time></trkpt><trkpt lat="37.5776118740036" lon="-3.009582009920524"><ele>550.4000000000001</ele><time>2026-04-21T11:19:01Z</time></trkpt><trkpt lat="37.5775389432922" lon="-3.009492721566197"><ele>551.2</ele><time>2026-04-21T11:19:02Z</time></trkpt><trkpt lat="37.5774520195426" lon="-3.0093944332942213"><ele>552.0</ele><time>2026-04-21T11:19:03Z</time></trkpt><trkpt lat="37.57736052586762" lon="-3.0092955361646134"><ele>552.0</ele><time>2026-04-21T11:19:04Z</time></trkpt><trkpt lat="37.57726886497315" lon="-3.009192638021526"><ele>552.0</ele><time>2026-04-21T11:19:05Z</time></trkpt><trkpt lat="37.577199602646616" lon="-3.009085326125616"><ele>552.0</ele><time>2026-04-21T11:19:06Z</time></trkpt><trkpt lat="37.577141256871805" lon="-3.008981567541103"><ele>552.0</ele><time>2026-04-21T11:19:07Z</time></trkpt><trkpt lat="37.57708638476434" lon="-3.008884869377465"><ele>552.0</ele><time>2026-04-21T11:19:08Z</time></trkpt><trkpt lat="37.57703984589869" lon="-3.0088061785678164"><ele>551.5</ele><time>2026-04-21T11:19:09Z</time></trkpt><trkpt lat="37.57699183545104" lon="-3.00875321606581"><ele>551.0</ele><time>2026-04-21T11:19:10Z</time></trkpt><trkpt lat="37.5769307349191" lon="-3.008716125256275"><ele>550.5</ele><time>2026-04-21T11:19:11Z</time></trkpt><trkpt lat="37.57682345602166" lon="-3.008689790889218"><ele>550.0</ele><time>2026-04-21T11:19:13Z</time></trkpt><trkpt lat="37.57676020044337" lon="-3.0086846407813206"><ele>549.5</ele><time>2026-04-21T11:19:15Z</time></trkpt><trkpt lat="37.576622480825165" lon="-3.0086691409021697"><ele>549.0</ele><time>2026-04-21T11:19:17Z</time></trkpt><trkpt lat="37.57654895130368" lon="-3.008652541965923"><ele>549.0</ele><time>2026-04-21T11:19:18Z</time></trkpt><trkpt lat="37.57646353458733" lon="-3.0086376531563785"><ele>549.0</ele><time>2026-04-21T11:19:19Z</time></trkpt><trkpt lat="37.57636523089386" lon="-3.0086277552918648"><ele>549.0</ele><time>2026-04-21T11:19:20Z</time></trkpt><trkpt lat="37.5762622131924" lon="-3.0086179128968973"><ele>549.0</ele><time>2026-04-21T11:19:21Z</time></trkpt><trkpt lat="37.57618918587613" lon="-3.0086099491570137"><ele>549.0</ele><time>2026-04-21T11:19:22Z</time></trkpt><trkpt lat="37.57612198678301" lon="-3.00859687526379"><ele>549.0</ele><time>2026-04-21T11:19:23Z</time></trkpt><trkpt lat="37.57605879952101" lon="-3.0085829926088397"><ele>550.0</ele><time>2026-04-21T11:19:24Z</time></trkpt><trkpt lat="37.57598712005171" lon="-3.00857351115421"><ele>551.0</ele><time>2026-04-21T11:19:25Z</time></trkpt><trkpt lat="37.575907375174886" lon="-3.0085617426313758"><ele>552.0</ele><time>2026-04-21T11:19:26Z</time></trkpt><trkpt lat="37.57583243214533" lon="-3.0085545307338997"><ele>553.0</ele><time>2026-04-21T11:19:27Z</time></trkpt><trkpt lat="37.57573178632545" lon="-3.0085268487513526"><ele>554.0</ele><time>2026-04-21T11:19:29Z</time></trkpt><trkpt lat="37.57566352807771" lon="-3.0085260288110027"><ele>555.0</ele><time>2026-04-21T11:19:36Z</time></trkpt><trkpt lat="37.575670470257585" lon="-3.008617900722411"><ele>555.0</ele><time>2026-04-21T11:19:46Z</time></trkpt><trkpt lat="37.57574349030446" lon="-3.0086104821894986"><ele>555.0</ele><time>2026-04-21T11:19:52Z</time></trkpt><trkpt lat="37.575817061789074" lon="-3.00859775030147"><ele>555.0</ele><time>2026-04-21T11:19:57Z</time></trkpt><trkpt lat="37.57590277607357" lon="-3.0085837160734745"><ele>555.0</ele><time>2026-04-21T11:20:03Z</time></trkpt><trkpt lat="37.57597879408989" lon="-3.0085911568473622"><ele>555.0</ele><time>2026-04-21T11:20:05Z</time></trkpt><trkpt lat="37.57608083615716" lon="-3.008599843164205"><ele>555.0</ele><time>2026-04-21T11:20:07Z</time></trkpt><trkpt lat="37.57614308943277" lon="-3.0086128069052345"><ele>554.0</ele><time>2026-04-21T11:20:08Z</time></trkpt><trkpt lat="37.57620875079596" lon="-3.0086258171401075"><ele>553.0</ele><time>2026-04-21T11:20:09Z</time></trkpt><trkpt lat="37.576276725541966" lon="-3.0086368343036076"><ele>552.0</ele><time>2026-04-21T11:20:10Z</time></trkpt><trkpt lat="37.57634366383067" lon="-3.008645789267027"><ele>551.0</ele><time>2026-04-21T11:20:11Z</time></trkpt><trkpt lat="37.57647238161398" lon="-3.0086568468271957"><ele>550.0</ele><time>2026-04-21T11:20:13Z</time></trkpt><trkpt lat="37.576542316974425" lon="-3.008667332052137"><ele>549.0</ele><time>2026-04-21T11:20:14Z</time></trkpt><trkpt lat="37.576614317863935" lon="-3.0086807137424962"><ele>549.0</ele><time>2026-04-21T11:20:15Z</time></trkpt><trkpt lat="37.57668472000398" lon="-3.0086928136031768"><ele>549.0</ele><time>2026-04-21T11:20:16Z</time></trkpt><trkpt lat="37.57681463845743" lon="-3.008710411329542"><ele>549.0</ele><time>2026-04-21T11:20:18Z</time></trkpt><trkpt lat="37.57688556877813" lon="-3.008729761757379"><ele>549.0</ele><time>2026-04-21T11:20:19Z</time></trkpt><trkpt lat="37.576966054510955" lon="-3.0087512684250233"><ele>549.0</ele><time>2026-04-21T11:20:21Z</time></trkpt><trkpt lat="37.577036530793805" lon="-3.0087928279648453"><ele>549.0</ele><time>2026-04-21T11:20:23Z</time></trkpt><trkpt lat="37.577116109005495" lon="-3.0089267997391285"><ele>548.4</ele><time>2026-04-21T11:20:25Z</time></trkpt><trkpt lat="37.57716539723654" lon="-3.009011928672793"><ele>547.8</ele><time>2026-04-21T11:20:26Z</time></trkpt><trkpt lat="37.57722271585697" lon="-3.0091051088257164"><ele>547.2</ele><time>2026-04-21T11:20:27Z</time></trkpt><trkpt lat="37.57728391832711" lon="-3.009199475884744"><ele>546.6</ele><time>2026-04-21T11:20:28Z</time></trkpt><trkpt lat="37.577348335938844" lon="-3.0092936064177196"><ele>546.0</ele><time>2026-04-21T11:20:29Z</time></trkpt><trkpt lat="37.57743050446475" lon="-3.0093901202654023"><ele>547.2</ele><time>2026-04-21T11:20:30Z</time></trkpt><trkpt lat="37.57752053195815" lon="-3.00947544488288"><ele>548.4000000000001</ele><time>2026-04-21T11:20:31Z</time></trkpt><trkpt lat="37.57759510849413" lon="-3.0095519736013996"><ele>549.6</ele><time>2026-04-21T11:20:32Z</time></trkpt><trkpt lat="37.57766200971892" lon="-3.0096249549392002"><ele>550.8000000000001</ele><time>2026-04-21T11:20:33Z</time></trkpt><trkpt lat="37.57772914327326" lon="-3.009683976527387"><ele>552.0</ele><time>2026-04-21T11:20:34Z</time></trkpt><trkpt lat="37.577797762560834" lon="-3.009736444620969"><ele>552.0</ele><time>2026-04-21T11:20:35Z</time></trkpt><trkpt lat="37.57786073066647" lon="-3.0097867864439043"><ele>552.0</ele><time>2026-04-21T11:20:37Z</time></trkpt><trkpt lat="37.5778368630377" lon="-3.0098779227651833"><ele>552.0</ele><time>2026-04-21T11:20:39Z</time></trkpt><trkpt lat="37.57779316730065" lon="-3.0099532001012337"><ele>552.0</ele><time>2026-04-21T11:20:40Z</time></trkpt><trkpt lat="37.57772315156801" lon="-3.0100711626803145"><ele>552.0</ele><time>2026-04-21T11:20:41Z</time></trkpt><trkpt lat="37.577670932933" lon="-3.0101995519858273"><ele>554.0</ele><time>2026-04-21T11:20:42Z</time></trkpt><trkpt lat="37.57762785198813" lon="-3.010369534593306"><ele>556.0</ele><time>2026-04-21T11:20:43Z</time></trkpt><trkpt lat="37.577576149391184" lon="-3.01059377394136"><ele>558.0</ele><time>2026-04-21T11:20:44Z</time></trkpt><trkpt lat="37.577523130900246" lon="-3.010771344747969"><ele>560.25</ele><time>2026-04-21T11:20:45Z</time></trkpt><trkpt lat="37.577456700598844" lon="-3.0109295188429708"><ele>562.5</ele><time>2026-04-21T11:20:46Z</time></trkpt><trkpt lat="37.577392291344985" lon="-3.011069250579997"><ele>564.75</ele><time>2026-04-21T11:20:47Z</time></trkpt><trkpt lat="37.57734806482697" lon="-3.0111941361733208"><ele>567.0</ele><time>2026-04-21T11:20:48Z</time></trkpt><trkpt lat="37.577319137376165" lon="-3.0113718934617792"><ele>567.0</ele><time>2026-04-21T11:20:49Z</time></trkpt><trkpt lat="37.57728380949321" lon="-3.0115782835837175"><ele>567.0</ele><time>2026-04-21T11:20:50Z</time></trkpt><trkpt lat="37.57724578192026" lon="-3.01175546589748"><ele>567.0</ele><time>2026-04-21T11:20:51Z</time></trkpt><trkpt lat="37.57721761297246" lon="-3.0119103835034062"><ele>567.0</ele><time>2026-04-21T11:20:52Z</time></trkpt><trkpt lat="37.57719993581913" lon="-3.0120643522093817"><ele>567.8333333333334</ele><time>2026-04-21T11:20:53Z</time></trkpt><trkpt lat="37.57717742186052" lon="-3.0121662073869486"><ele>568.6666666666666</ele><time>2026-04-21T11:20:54Z</time></trkpt><trkpt lat="37.5771408046184" lon="-3.0122499698906644"><ele>569.5</ele><time>2026-04-21T11:20:55Z</time></trkpt><trkpt lat="37.57704524847054" lon="-3.0122964352535107"><ele>570.3333333333333</ele><time>2026-04-21T11:20:57Z</time></trkpt><trkpt lat="37.57698768727098" lon="-3.01225680136742"><ele>571.1666666666666</ele><time>2026-04-21T11:20:58Z</time></trkpt><trkpt lat="37.5769322969823" lon="-3.012184113503701"><ele>572.0</ele><time>2026-04-21T11:20:59Z</time></trkpt><trkpt lat="37.57687416451048" lon="-3.0120750284935407"><ele>572.0</ele><time>2026-04-21T11:21:00Z</time></trkpt><trkpt lat="37.5768045952365" lon="-3.011994767215169"><ele>572.0</ele><time>2026-04-21T11:21:01Z</time></trkpt><trkpt lat="37.576720843877105" lon="-3.0119616174351913"><ele>572.0</ele><time>2026-04-21T11:21:02Z</time></trkpt><trkpt lat="37.57664232089285" lon="-3.0119684234531596"><ele>572.0</ele><time>2026-04-21T11:21:03Z</time></trkpt><trkpt lat="37.57655310027672" lon="-3.012019403969238"><ele>572.0</ele><time>2026-04-21T11:21:04Z</time></trkpt><trkpt lat="37.57646508183589" lon="-3.012085791238319"><ele>572.0</ele><time>2026-04-21T11:21:05Z</time></trkpt><trkpt lat="37.576386915256926" lon="-3.0121828961060344"><ele>572.0</ele><time>2026-04-21T11:21:06Z</time></trkpt><trkpt lat="37.57632200748346" lon="-3.0122890785385015"><ele>572.0</ele><time>2026-04-21T11:21:07Z</time></trkpt><trkpt lat="37.57628916192617" lon="-3.012388708313522"><ele>572.0</ele><time>2026-04-21T11:21:08Z</time></trkpt><trkpt lat="37.576290868726375" lon="-3.0124958564396676"><ele>572.0</ele><time>2026-04-21T11:21:09Z</time></trkpt><trkpt lat="37.57631290111644" lon="-3.012638677780905"><ele>574.25</ele><time>2026-04-21T11:21:10Z</time></trkpt><trkpt lat="37.57632304923766" lon="-3.0127764123705485"><ele>576.5</ele><time>2026-04-21T11:21:11Z</time></trkpt><trkpt lat="37.57631626962145" lon="-3.0129204968650813"><ele>578.75</ele><time>2026-04-21T11:21:12Z</time></trkpt><trkpt lat="37.576294445794616" lon="-3.013093807188038"><ele>581.0</ele><time>2026-04-21T11:21:13Z</time></trkpt><trkpt lat="37.57625683203383" lon="-3.0132674339138545"><ele>581.0</ele><time>2026-04-21T11:21:14Z</time></trkpt><trkpt lat="37.57620348456818" lon="-3.013436888328715"><ele>581.0</ele><time>2026-04-21T11:21:15Z</time></trkpt><trkpt lat="37.57614278955495" lon="-3.0136306281621765"><ele>581.0</ele><time>2026-04-21T11:21:16Z</time></trkpt><trkpt lat="37.57608829497614" lon="-3.013798616968598"><ele>581.0</ele><time>2026-04-21T11:21:17Z</time></trkpt><trkpt lat="37.576034992031246" lon="-3.013974899159432"><ele>581.0</ele><time>2026-04-21T11:21:18Z</time></trkpt><trkpt lat="37.57598569843382" lon="-3.014161749886392"><ele>581.0</ele><time>2026-04-21T11:21:19Z</time></trkpt><trkpt lat="37.575942671707786" lon="-3.0143199588023317"><ele>581.0</ele><time>2026-04-21T11:21:20Z</time></trkpt><trkpt lat="37.57590583202239" lon="-3.0144430155051"><ele>582.2</ele><time>2026-04-21T11:21:21Z</time></trkpt><trkpt lat="37.575888665490744" lon="-3.014529602182015"><ele>583.4000000000001</ele><time>2026-04-21T11:21:22Z</time></trkpt><trkpt lat="37.57585357358991" lon="-3.0146094172141553"><ele>584.6</ele><time>2026-04-21T11:21:23Z</time></trkpt><trkpt lat="37.57572908745572" lon="-3.014653984771164"><ele>585.8000000000001</ele><time>2026-04-21T11:21:25Z</time></trkpt><trkpt lat="37.575608360415124" lon="-3.014662805118281"><ele>587.0</ele><time>2026-04-21T11:21:26Z</time></trkpt><trkpt lat="37.5754532987609" lon="-3.014662987270977"><ele>585.6666666666666</ele><time>2026-04-21T11:21:27Z</time></trkpt><trkpt lat="37.57528252146612" lon="-3.0146591463745653"><ele>584.3333333333334</ele><time>2026-04-21T11:21:28Z</time></trkpt><trkpt lat="37.57512248596775" lon="-3.0146586625615615"><ele>583.0</ele><time>2026-04-21T11:21:29Z</time></trkpt><trkpt lat="37.57497096374931" lon="-3.014650946387646"><ele>583.0</ele><time>2026-04-21T11:21:30Z</time></trkpt><trkpt lat="37.574846068119214" lon="-3.0146511656439787"><ele>583.0</ele><time>2026-04-21T11:21:31Z</time></trkpt><trkpt lat="37.57473020182681" lon="-3.014653986744849"><ele>583.0</ele><time>2026-04-21T11:21:32Z</time></trkpt><trkpt lat="37.57460916309896" lon="-3.014670366356751"><ele>583.0</ele><time>2026-04-21T11:21:33Z</time></trkpt><trkpt lat="37.57449311115153" lon="-3.0147068905458716"><ele>584.0</ele><time>2026-04-21T11:21:34Z</time></trkpt><trkpt lat="37.57436051298971" lon="-3.0147548583306762"><ele>585.0</ele><time>2026-04-21T11:21:35Z</time></trkpt><trkpt lat="37.57422600192537" lon="-3.014791173366826"><ele>586.0</ele><time>2026-04-21T11:21:36Z</time></trkpt><trkpt lat="37.574118183029846" lon="-3.014808000855626"><ele>587.0</ele><time>2026-04-21T11:21:37Z</time></trkpt><trkpt lat="37.574019116328905" lon="-3.014815952595417"><ele>587.0</ele><time>2026-04-21T11:21:38Z</time></trkpt><trkpt lat="37.573928563306566" lon="-3.014784358697866"><ele>587.0</ele><time>2026-04-21T11:21:39Z</time></trkpt><trkpt lat="37.573822577017324" lon="-3.014709753777584"><ele>587.0</ele><time>2026-04-21T11:21:40Z</time></trkpt><trkpt lat="37.573694381480344" lon="-3.0146042744434625"><ele>587.0</ele><time>2026-04-21T11:21:41Z</time></trkpt><trkpt lat="37.57356990691293" lon="-3.0145413671935906"><ele>586.6</ele><time>2026-04-21T11:21:42Z</time></trkpt><trkpt lat="37.57346253107057" lon="-3.0145062759096355"><ele>586.2</ele><time>2026-04-21T11:21:43Z</time></trkpt><trkpt lat="37.57338303028234" lon="-3.014458867342977"><ele>585.8</ele><time>2026-04-21T11:21:44Z</time></trkpt><trkpt lat="37.573317475112425" lon="-3.014370516041321"><ele>585.4</ele><time>2026-04-21T11:21:45Z</time></trkpt><trkpt lat="37.57325658956042" lon="-3.014242336818023"><ele>585.0</ele><time>2026-04-21T11:21:46Z</time></trkpt><trkpt lat="37.573190825972276" lon="-3.014059016086364"><ele>585.0</ele><time>2026-04-21T11:21:47Z</time></trkpt><trkpt lat="37.573131258059405" lon="-3.0139185946782323"><ele>585.0</ele><time>2026-04-21T11:21:48Z</time></trkpt><trkpt lat="37.57308409102894" lon="-3.013817151684154"><ele>585.0</ele><time>2026-04-21T11:21:49Z</time></trkpt><trkpt lat="37.57300957270774" lon="-3.0137316708187636"><ele>585.0</ele><time>2026-04-21T11:21:50Z</time></trkpt><trkpt lat="37.57289730239434" lon="-3.013644907156769"><ele>584.6</ele><time>2026-04-21T11:21:51Z</time></trkpt><trkpt lat="37.57277431274187" lon="-3.01353024589682"><ele>584.2</ele><time>2026-04-21T11:21:52Z</time></trkpt><trkpt lat="37.572689415844806" lon="-3.0134220967958996"><ele>583.8</ele><time>2026-04-21T11:21:53Z</time></trkpt><trkpt lat="37.57263678139092" lon="-3.0133397840821856"><ele>583.4</ele><time>2026-04-21T11:21:54Z</time></trkpt><trkpt lat="37.572576752699206" lon="-3.0132753353304498"><ele>583.0</ele><time>2026-04-21T11:21:55Z</time></trkpt><trkpt lat="37.57247270380931" lon="-3.013242394267756"><ele>583.0</ele><time>2026-04-21T11:21:56Z</time></trkpt><trkpt lat="37.57234994680303" lon="-3.0132030259035254"><ele>583.0</ele><time>2026-04-21T11:21:57Z</time></trkpt><trkpt lat="37.57222831095485" lon="-3.013146697864836"><ele>583.0</ele><time>2026-04-21T11:21:58Z</time></trkpt><trkpt lat="37.572117730030044" lon="-3.0130975550685295"><ele>583.0</ele><time>2026-04-21T11:21:59Z</time></trkpt><trkpt lat="37.57201445672383" lon="-3.01307594410186"><ele>584.3333333333334</ele><time>2026-04-21T11:22:00Z</time></trkpt><trkpt lat="37.57193157624361" lon="-3.0130749176720615"><ele>585.6666666666667</ele><time>2026-04-21T11:22:01Z</time></trkpt><trkpt lat="37.57183692322531" lon="-3.0130366216887947"><ele>587.0</ele><time>2026-04-21T11:22:03Z</time></trkpt><trkpt lat="37.57180245404298" lon="-3.0129586971551676"><ele>588.3333333333334</ele><time>2026-04-21T11:22:04Z</time></trkpt><trkpt lat="37.571765760696536" lon="-3.012850833655727"><ele>589.6666666666666</ele><time>2026-04-21T11:22:05Z</time></trkpt><trkpt lat="37.571726830640685" lon="-3.012786147461853"><ele>591.0</ele><time>2026-04-21T11:22:06Z</time></trkpt><trkpt lat="37.57162758799559" lon="-3.012760756718281"><ele>591.0</ele><time>2026-04-21T11:22:08Z</time></trkpt><trkpt lat="37.5715412034891" lon="-3.012792859581912"><ele>591.0</ele><time>2026-04-21T11:22:09Z</time></trkpt><trkpt lat="37.571441738413725" lon="-3.01283097461569"><ele>591.0</ele><time>2026-04-21T11:22:10Z</time></trkpt><trkpt lat="37.57132980127014" lon="-3.0128598431386777"><ele>591.0</ele><time>2026-04-21T11:22:11Z</time></trkpt><trkpt lat="37.571208708066656" lon="-3.0128843125833225"><ele>591.0</ele><time>2026-04-21T11:22:12Z</time></trkpt><trkpt lat="37.57110236475256" lon="-3.0129307732454342"><ele>593.4</ele><time>2026-04-21T11:22:13Z</time></trkpt><trkpt lat="37.57101428925817" lon="-3.012998419868737"><ele>595.8</ele><time>2026-04-21T11:22:14Z</time></trkpt><trkpt lat="37.57095532560083" lon="-3.013047723119778"><ele>598.1999999999999</ele><time>2026-04-21T11:22:15Z</time></trkpt><trkpt lat="37.5708713367798" lon="-3.013136429247201"><ele>600.6</ele><time>2026-04-21T11:22:17Z</time></trkpt><trkpt lat="37.57080297517583" lon="-3.0132092580428123"><ele>603.0</ele><time>2026-04-21T11:22:18Z</time></trkpt><trkpt lat="37.57075407150632" lon="-3.013343425621942"><ele>604.6</ele><time>2026-04-21T11:22:19Z</time></trkpt><trkpt lat="37.57071337101583" lon="-3.013478883761215"><ele>606.1999999999999</ele><time>2026-04-21T11:22:20Z</time></trkpt><trkpt lat="37.57066974994106" lon="-3.013589534531936"><ele>607.8</ele><time>2026-04-21T11:22:21Z</time></trkpt><trkpt lat="37.57062709048059" lon="-3.0137178910780125"><ele>609.4</ele><time>2026-04-21T11:22:22Z</time></trkpt><trkpt lat="37.57057263728994" lon="-3.0138541241676373"><ele>611.0</ele><time>2026-04-21T11:22:23Z</time></trkpt><trkpt lat="37.57053221279337" lon="-3.0139652901718965"><ele>611.0</ele><time>2026-04-21T11:22:24Z</time></trkpt><trkpt lat="37.57050748156711" lon="-3.0140606651143007"><ele>611.0</ele><time>2026-04-21T11:22:25Z</time></trkpt><trkpt lat="37.570466995271865" lon="-3.014127982012799"><ele>611.0</ele><time>2026-04-21T11:22:26Z</time></trkpt><trkpt lat="37.57038113389835" lon="-3.0141477958296186"><ele>611.0</ele><time>2026-04-21T11:22:28Z</time></trkpt><trkpt lat="37.570300270106976" lon="-3.0140283860132207"><ele>611.0</ele><time>2026-04-21T11:22:30Z</time></trkpt><trkpt lat="37.57028308982546" lon="-3.0139113781412363"><ele>611.4</ele><time>2026-04-21T11:22:31Z</time></trkpt><trkpt lat="37.570288763981864" lon="-3.0137625584768495"><ele>611.8</ele><time>2026-04-21T11:22:32Z</time></trkpt><trkpt lat="37.57030837702854" lon="-3.0136066661338896"><ele>612.1999999999999</ele><time>2026-04-21T11:22:33Z</time></trkpt><trkpt lat="37.57031994160672" lon="-3.0134797430361875"><ele>612.6</ele><time>2026-04-21T11:22:34Z</time></trkpt><trkpt lat="37.570318736474825" lon="-3.0133531665111013"><ele>613.0</ele><time>2026-04-21T11:22:35Z</time></trkpt><trkpt lat="37.57029350822988" lon="-3.013217460810643"><ele>610.0</ele><time>2026-04-21T11:22:36Z</time></trkpt><trkpt lat="37.57025704184556" lon="-3.0130948330134286"><ele>607.0</ele><time>2026-04-21T11:22:37Z</time></trkpt><trkpt lat="37.57019629595451" lon="-3.0129864446366112"><ele>604.0</ele><time>2026-04-21T11:22:38Z</time></trkpt><trkpt lat="37.570116138923574" lon="-3.012874918900352"><ele>601.0</ele><time>2026-04-21T11:22:39Z</time></trkpt><trkpt lat="37.570040526905686" lon="-3.012768580420566"><ele>598.0</ele><time>2026-04-21T11:22:40Z</time></trkpt><trkpt lat="37.569982692049535" lon="-3.0126643671191022"><ele>598.0</ele><time>2026-04-21T11:22:41Z</time></trkpt><trkpt lat="37.569938437861225" lon="-3.012584900282924"><ele>598.0</ele><time>2026-04-21T11:22:42Z</time></trkpt><trkpt lat="37.56987492861259" lon="-3.012505820421544"><ele>598.0</ele><time>2026-04-21T11:22:43Z</time></trkpt><trkpt lat="37.569794489167926" lon="-3.0124086076610626"><ele>598.0</ele><time>2026-04-21T11:22:44Z</time></trkpt><trkpt lat="37.569731469557645" lon="-3.0123337871344575"><ele>598.0</ele><time>2026-04-21T11:22:45Z</time></trkpt><trkpt lat="37.569673946762" lon="-3.01227952827802"><ele>598.0</ele><time>2026-04-21T11:22:46Z</time></trkpt><trkpt lat="37.56960175503049" lon="-3.0122282923826025"><ele>598.0</ele><time>2026-04-21T11:22:47Z</time></trkpt><trkpt lat="37.569546198710476" lon="-3.012146186605845"><ele>598.0</ele><time>2026-04-21T11:22:48Z</time></trkpt><trkpt lat="37.569491215352116" lon="-3.0120235008518246"><ele>598.0</ele><time>2026-04-21T11:22:49Z</time></trkpt><trkpt lat="37.5694515047537" lon="-3.0119167848187134"><ele>598.0</ele><time>2026-04-21T11:22:50Z</time></trkpt><trkpt lat="37.56941500061593" lon="-3.011804510181425"><ele>598.0</ele><time>2026-04-21T11:22:51Z</time></trkpt><trkpt lat="37.569371214348415" lon="-3.0116989615125425"><ele>598.6</ele><time>2026-04-21T11:22:52Z</time></trkpt><trkpt lat="37.56929160268511" lon="-3.0115906530600753"><ele>599.1999999999999</ele><time>2026-04-21T11:22:53Z</time></trkpt><trkpt lat="37.5692145023547" lon="-3.0114999148389363"><ele>599.8</ele><time>2026-04-21T11:22:54Z</time></trkpt><trkpt lat="37.56916454582133" lon="-3.0114354210143177"><ele>600.4</ele><time>2026-04-21T11:22:55Z</time></trkpt><trkpt lat="37.56905729084763" lon="-3.011408046916375"><ele>601.0</ele><time>2026-04-21T11:22:57Z</time></trkpt><trkpt lat="37.56897026877275" lon="-3.011430130142873"><ele>601.0</ele><time>2026-04-21T11:22:58Z</time></trkpt><trkpt lat="37.56888406893135" lon="-3.011439211676072"><ele>601.0</ele><time>2026-04-21T11:22:59Z</time></trkpt><trkpt lat="37.5687997526127" lon="-3.0114161100939327"><ele>601.0</ele><time>2026-04-21T11:23:00Z</time></trkpt><trkpt lat="37.56871653271627" lon="-3.0113654419087763"><ele>601.0</ele><time>2026-04-21T11:23:00.998Z</time></trkpt><trkpt lat="37.56864104502943" lon="-3.011291336325863"><ele>601.0</ele><time>2026-04-21T11:23:01.998Z</time></trkpt><trkpt lat="37.568575521838206" lon="-3.011204116030844"><ele>600.6</ele><time>2026-04-21T11:23:02.998Z</time></trkpt><trkpt lat="37.56852771548522" lon="-3.011084735497691"><ele>600.2</ele><time>2026-04-21T11:23:03.998Z</time></trkpt><trkpt lat="37.56847506976589" lon="-3.010943975931122"><ele>599.8</ele><time>2026-04-21T11:23:04.998Z</time></trkpt><trkpt lat="37.56844728507381" lon="-3.0108632103736044"><ele>599.4</ele><time>2026-04-21T11:23:05.998Z</time></trkpt><trkpt lat="37.56842046205087" lon="-3.010768158359548"><ele>599.0</ele><time>2026-04-21T11:23:06.998Z</time></trkpt><trkpt lat="37.56839515193429" lon="-3.0106684382568645"><ele>597.2</ele><time>2026-04-21T11:23:07.998Z</time></trkpt><trkpt lat="37.56834168937447" lon="-3.0105551747864205"><ele>595.4</ele><time>2026-04-21T11:23:09.998Z</time></trkpt><trkpt lat="37.56826017009114" lon="-3.010508934690721"><ele>593.6</ele><time>2026-04-21T11:23:10.998Z</time></trkpt><trkpt lat="37.56815427356905" lon="-3.010453331250509"><ele>591.8</ele><time>2026-04-21T11:23:11.998Z</time></trkpt><trkpt lat="37.56803252130433" lon="-3.01038288292579"><ele>590.0</ele><time>2026-04-21T11:23:12.998Z</time></trkpt><trkpt lat="37.567928580640135" lon="-3.0103163191083935"><ele>590.75</ele><time>2026-04-21T11:23:13.999Z</time></trkpt><trkpt lat="37.56785779727997" lon="-3.0102377615355707"><ele>591.5</ele><time>2026-04-21T11:23:14.999Z</time></trkpt><trkpt lat="37.56779858525071" lon="-3.010135399709"><ele>592.25</ele><time>2026-04-21T11:23:15.999Z</time></trkpt><trkpt lat="37.56774255796017" lon="-3.009996901282562"><ele>593.0</ele><time>2026-04-21T11:23:16.999Z</time></trkpt><trkpt lat="37.56767670237906" lon="-3.0098443398226875"><ele>590.0</ele><time>2026-04-21T11:23:17.999Z</time></trkpt><trkpt lat="37.56761044558598" lon="-3.0097006993476323"><ele>587.0</ele><time>2026-04-21T11:23:18.999Z</time></trkpt><trkpt lat="37.567557600110646" lon="-3.0095641595210614"><ele>584.0</ele><time>2026-04-21T11:23:19.999Z</time></trkpt><trkpt lat="37.56751364342442" lon="-3.0094336686566243"><ele>581.0</ele><time>2026-04-21T11:23:20.999Z</time></trkpt><trkpt lat="37.56745709106766" lon="-3.009314079580736"><ele>581.0</ele><time>2026-04-21T11:23:21.999Z</time></trkpt><trkpt lat="37.56739546169583" lon="-3.00922266278092"><ele>581.0</ele><time>2026-04-21T11:23:22.999Z</time></trkpt><trkpt lat="37.56731076074772" lon="-3.0091397375797695"><ele>581.0</ele><time>2026-04-21T11:23:23.999Z</time></trkpt><trkpt lat="37.567208162664826" lon="-3.009060298265877"><ele>581.0</ele><time>2026-04-21T11:23:24.999Z</time></trkpt><trkpt lat="37.5670954028586" lon="-3.0089846722871614"><ele>579.4</ele><time>2026-04-21T11:23:25.999Z</time></trkpt><trkpt lat="37.5670042341946" lon="-3.008908234590456"><ele>577.8</ele><time>2026-04-21T11:23:26.999Z</time></trkpt><trkpt lat="37.56694485728841" lon="-3.0088404481044235"><ele>576.1999999999999</ele><time>2026-04-21T11:23:27.999Z</time></trkpt><trkpt lat="37.56689140600243" lon="-3.008760613163867"><ele>574.6</ele><time>2026-04-21T11:23:28.999Z</time></trkpt><trkpt lat="37.566852314755195" lon="-3.0086598845372134"><ele>573.0</ele><time>2026-04-21T11:23:29.999Z</time></trkpt><trkpt lat="37.56682513862064" lon="-3.008540550940352"><ele>573.0</ele><time>2026-04-21T11:23:30.999Z</time></trkpt><trkpt lat="37.56680431233702" lon="-3.0083924925637637"><ele>573.0</ele><time>2026-04-21T11:23:31.999Z</time></trkpt><trkpt lat="37.56677551500381" lon="-3.0082431193040335"><ele>573.0</ele><time>2026-04-21T11:23:32.999Z</time></trkpt><trkpt lat="37.5667444056136" lon="-3.008111726297298"><ele>573.0</ele><time>2026-04-21T11:23:33.999Z</time></trkpt><trkpt lat="37.56670093573183" lon="-3.007980354016394"><ele>572.4</ele><time>2026-04-21T11:23:34.999Z</time></trkpt><trkpt lat="37.56664470695355" lon="-3.007855526420474"><ele>571.8</ele><time>2026-04-21T11:23:35.999Z</time></trkpt><trkpt lat="37.56658709510272" lon="-3.007763832558648"><ele>571.2</ele><time>2026-04-21T11:23:36.999Z</time></trkpt><trkpt lat="37.56653927096004" lon="-3.0076994551550054"><ele>570.6</ele><time>2026-04-21T11:23:37.999Z</time></trkpt><trkpt lat="37.56644743008347" lon="-3.007596268940897"><ele>570.0</ele><time>2026-04-21T11:23:39.999Z</time></trkpt><trkpt lat="37.56640079603404" lon="-3.0074947941318224"><ele>570.0</ele><time>2026-04-21T11:23:41.999Z</time></trkpt><trkpt lat="37.566382800054065" lon="-3.007374807295594"><ele>570.0</ele><time>2026-04-21T11:23:43.999Z</time></trkpt><trkpt lat="37.566307966682594" lon="-3.0074109141142578"><ele>570.0</ele><time>2026-04-21T11:23:52.999Z</time></trkpt><trkpt lat="37.566275564601554" lon="-3.007520835049062"><ele>570.0</ele><time>2026-04-21T11:23:53.999Z</time></trkpt><trkpt lat="37.56624880559333" lon="-3.0076007562477223"><ele>570.0</ele><time>2026-04-21T11:23:54.999Z</time></trkpt><trkpt lat="37.566192828415595" lon="-3.00766887695183"><ele>570.0</ele><time>2026-04-21T11:23:55.999Z</time></trkpt><trkpt lat="37.56612424457549" lon="-3.007738487478464"><ele>569.1666666666666</ele><time>2026-04-21T11:23:56.999Z</time></trkpt><trkpt lat="37.56605648005588" lon="-3.0078105775481583"><ele>568.3333333333334</ele><time>2026-04-21T11:23:57.999Z</time></trkpt><trkpt lat="37.56599602602016" lon="-3.007881141566335"><ele>567.5</ele><time>2026-04-21T11:23:58.999Z</time></trkpt><trkpt lat="37.56594672342352" lon="-3.0079643181099054"><ele>566.6666666666667</ele><time>2026-04-21T11:23:59.999Z</time></trkpt><trkpt lat="37.565908265419296" lon="-3.0080566717092303"><ele>565.8333333333334</ele><time>2026-04-21T11:24:00.999Z</time></trkpt><trkpt lat="37.565882802056926" lon="-3.008137629552035"><ele>565.0</ele><time>2026-04-21T11:24:01.999Z</time></trkpt><trkpt lat="37.56585635624494" lon="-3.008230548055677"><ele>565.0</ele><time>2026-04-21T11:24:02.999Z</time></trkpt><trkpt lat="37.565831226628035" lon="-3.0083193558421093"><ele>565.0</ele><time>2026-04-21T11:24:03.999Z</time></trkpt><trkpt lat="37.5657902573836" lon="-3.008385405365801"><ele>565.0</ele><time>2026-04-21T11:24:04.999Z</time></trkpt><trkpt lat="37.56573027467866" lon="-3.0084456842165856"><ele>565.0</ele><time>2026-04-21T11:24:05.999Z</time></trkpt><trkpt lat="37.56564623633116" lon="-3.0085119287509907"><ele>565.0</ele><time>2026-04-21T11:24:06.999Z</time></trkpt><trkpt lat="37.56557091094041" lon="-3.008603794670427"><ele>565.0</ele><time>2026-04-21T11:24:07.999Z</time></trkpt><trkpt lat="37.565517973250095" lon="-3.00871685452056"><ele>564.75</ele><time>2026-04-21T11:24:08.999Z</time></trkpt><trkpt lat="37.565468424157245" lon="-3.008849609788854"><ele>564.5</ele><time>2026-04-21T11:24:09.999Z</time></trkpt><trkpt lat="37.565399632644215" lon="-3.0089933035680945"><ele>564.25</ele><time>2026-04-21T11:24:10.999Z</time></trkpt><trkpt lat="37.56532139644373" lon="-3.0091289534155554"><ele>564.0</ele><time>2026-04-21T11:24:11.999Z</time></trkpt><trkpt lat="37.56524095486772" lon="-3.0092527229989514"><ele>564.8</ele><time>2026-04-21T11:24:13Z</time></trkpt><trkpt lat="37.565170751786994" lon="-3.009341702635138"><ele>565.5999999999999</ele><time>2026-04-21T11:24:14Z</time></trkpt><trkpt lat="37.565096073405144" lon="-3.0094325202592755"><ele>566.4</ele><time>2026-04-21T11:24:15Z</time></trkpt><trkpt lat="37.56502421013395" lon="-3.009509084310684"><ele>567.1999999999999</ele><time>2026-04-21T11:24:16Z</time></trkpt><trkpt lat="37.56492205366955" lon="-3.0095709923117004"><ele>568.0</ele><time>2026-04-21T11:24:18Z</time></trkpt><trkpt lat="37.5647882648691" lon="-3.00952557448908"><ele>568.0</ele><time>2026-04-21T11:24:20Z</time></trkpt><trkpt lat="37.56473082650329" lon="-3.0094714262546582"><ele>568.0</ele><time>2026-04-21T11:24:21Z</time></trkpt><trkpt lat="37.5646500923379" lon="-3.009491695538271"><ele>568.0</ele><time>2026-04-21T11:24:24Z</time></trkpt><trkpt lat="37.56462545650137" lon="-3.009615493795344"><ele>568.0</ele><time>2026-04-21T11:24:26Z</time></trkpt><trkpt lat="37.564623031029306" lon="-3.0097240165280703"><ele>568.0</ele><time>2026-04-21T11:24:27Z</time></trkpt><trkpt lat="37.564635414176514" lon="-3.0098575734063266"><ele>568.0</ele><time>2026-04-21T11:24:28Z</time></trkpt><trkpt lat="37.564655878599986" lon="-3.0099778468526734"><ele>568.1999999999999</ele><time>2026-04-21T11:24:29Z</time></trkpt><trkpt lat="37.564674834467866" lon="-3.010112813633174"><ele>568.4</ele><time>2026-04-21T11:24:30Z</time></trkpt><trkpt lat="37.56468793042656" lon="-3.0102511993937373"><ele>568.5999999999999</ele><time>2026-04-21T11:24:31Z</time></trkpt><trkpt lat="37.56468440890043" lon="-3.0103847522305585"><ele>568.8</ele><time>2026-04-21T11:24:32Z</time></trkpt><trkpt lat="37.56466830909998" lon="-3.010502368233575"><ele>569.0</ele><time>2026-04-21T11:24:33Z</time></trkpt><trkpt lat="37.56464093754998" lon="-3.0106046705187732"><ele>569.0</ele><time>2026-04-21T11:24:34Z</time></trkpt><trkpt lat="37.564610016946844" lon="-3.010690449386092"><ele>569.0</ele><time>2026-04-21T11:24:35Z</time></trkpt><trkpt lat="37.56456708176768" lon="-3.010756118204516"><ele>569.0</ele><time>2026-04-21T11:24:36Z</time></trkpt><trkpt lat="37.5645096781654" lon="-3.010809461184091"><ele>569.0</ele><time>2026-04-21T11:24:37Z</time></trkpt><trkpt lat="37.56443620584461" lon="-3.010821933579847"><ele>569.0</ele><time>2026-04-21T11:24:39Z</time></trkpt><trkpt lat="37.56435609403807" lon="-3.0108057244595035"><ele>569.0</ele><time>2026-04-21T11:24:40Z</time></trkpt><trkpt lat="37.564243460894254" lon="-3.010786766283223"><ele>569.6</ele><time>2026-04-21T11:24:41Z</time></trkpt><trkpt lat="37.56415643600693" lon="-3.01076148263829"><ele>570.2</ele><time>2026-04-21T11:24:42Z</time></trkpt><trkpt lat="37.56407330689697" lon="-3.010781700329314"><ele>570.8000000000001</ele><time>2026-04-21T11:24:45Z</time></trkpt><trkpt lat="37.56403458075165" lon="-3.010921982629265"><ele>571.4</ele><time>2026-04-21T11:24:47Z</time></trkpt><trkpt lat="37.56402966155335" lon="-3.0110234020991946"><ele>572.0</ele><time>2026-04-21T11:24:48Z</time></trkpt><trkpt lat="37.56403963926992" lon="-3.01116213219605"><ele>572.0</ele><time>2026-04-21T11:24:49Z</time></trkpt><trkpt lat="37.56405426585793" lon="-3.0113124940979477"><ele>572.0</ele><time>2026-04-21T11:24:50Z</time></trkpt><trkpt lat="37.56406847044652" lon="-3.0114306008449767"><ele>572.0</ele><time>2026-04-21T11:24:51Z</time></trkpt><trkpt lat="37.564085028940205" lon="-3.0115245516996336"><ele>572.0</ele><time>2026-04-21T11:24:52Z</time></trkpt><trkpt lat="37.564120560919946" lon="-3.0116750541234225"><ele>572.0</ele><time>2026-04-21T11:24:54Z</time></trkpt><trkpt lat="37.56419424507667" lon="-3.0117944268547845"><ele>572.2</ele><time>2026-04-21T11:24:56Z</time></trkpt><trkpt lat="37.56425311021134" lon="-3.011841270586734"><ele>572.4000000000001</ele><time>2026-04-21T11:24:57Z</time></trkpt><trkpt lat="37.564338313232284" lon="-3.0118775888212594"><ele>572.5999999999999</ele><time>2026-04-21T11:24:58Z</time></trkpt><trkpt lat="37.564439292915345" lon="-3.0119124595346025"><ele>572.8</ele><time>2026-04-21T11:24:59Z</time></trkpt><trkpt lat="37.56455309503963" lon="-3.0119389077384477"><ele>573.0</ele><time>2026-04-21T11:25:01Z</time></trkpt><trkpt lat="37.564644884249375" lon="-3.0120294533937164"><ele>574.0</ele><time>2026-04-21T11:25:03Z</time></trkpt><trkpt lat="37.5646977787561" lon="-3.0120937645836596"><ele>575.0</ele><time>2026-04-21T11:25:04Z</time></trkpt><trkpt lat="37.56474239539419" lon="-3.012171301061931"><ele>576.0</ele><time>2026-04-21T11:25:05Z</time></trkpt><trkpt lat="37.56477045719301" lon="-3.0122436573624958"><ele>577.0</ele><time>2026-04-21T11:25:06Z</time></trkpt><trkpt lat="37.56480333339922" lon="-3.012317241883619"><ele>578.0</ele><time>2026-04-21T11:25:06.999Z</time></trkpt><trkpt lat="37.56481929480784" lon="-3.012404574285114"><ele>579.0</ele><time>2026-04-21T11:25:07.999Z</time></trkpt><trkpt lat="37.5648242077644" lon="-3.012497491570306"><ele>580.0</ele><time>2026-04-21T11:25:08.999Z</time></trkpt><trkpt lat="37.56481473823398" lon="-3.0125801184328087"><ele>580.2</ele><time>2026-04-21T11:25:09.999Z</time></trkpt><trkpt lat="37.564789664273924" lon="-3.012674538924925"><ele>580.4</ele><time>2026-04-21T11:25:10.999Z</time></trkpt><trkpt lat="37.56476095484187" lon="-3.0127984759344395"><ele>580.6</ele><time>2026-04-21T11:25:11.999Z</time></trkpt><trkpt lat="37.5647268137837" lon="-3.012920195644739"><ele>580.8</ele><time>2026-04-21T11:25:12.999Z</time></trkpt><trkpt lat="37.564688921980014" lon="-3.0129871794504437"><ele>581.0</ele><time>2026-04-21T11:25:13.999Z</time></trkpt><trkpt lat="37.564587415020306" lon="-3.0130668592540397"><ele>580.2</ele><time>2026-04-21T11:25:15.999Z</time></trkpt><trkpt lat="37.5644920385965" lon="-3.0130727944227353"><ele>579.4000000000001</ele><time>2026-04-21T11:25:17.999Z</time></trkpt><trkpt lat="37.564398345867865" lon="-3.0130255933862005"><ele>578.6</ele><time>2026-04-21T11:25:19.999Z</time></trkpt><trkpt lat="37.56433724646537" lon="-3.012936893636813"><ele>577.8000000000001</ele><time>2026-04-21T11:25:20.999Z</time></trkpt><trkpt lat="37.56426266246572" lon="-3.0128227695073573"><ele>577.0</ele><time>2026-04-21T11:25:21.999Z</time></trkpt><trkpt lat="37.56419914271174" lon="-3.01273263450808"><ele>577.0</ele><time>2026-04-21T11:25:22.999Z</time></trkpt><trkpt lat="37.564149860312654" lon="-3.0126697925321535"><ele>577.0</ele><time>2026-04-21T11:25:23.999Z</time></trkpt><trkpt lat="37.564070499786745" lon="-3.012625140072435"><ele>577.0</ele><time>2026-04-21T11:25:24.999Z</time></trkpt><trkpt lat="37.5639982110027" lon="-3.0125925120967447"><ele>577.0</ele><time>2026-04-21T11:25:25.999Z</time></trkpt><trkpt lat="37.563919846755766" lon="-3.0126036842405113"><ele>577.0</ele><time>2026-04-21T11:25:27.999Z</time></trkpt><trkpt lat="37.56380797079559" lon="-3.012692132277128"><ele>577.0</ele><time>2026-04-21T11:25:29.999Z</time></trkpt><trkpt lat="37.563732615398216" lon="-3.0127743541217855"><ele>577.4</ele><time>2026-04-21T11:25:30.999Z</time></trkpt><trkpt lat="37.563656655336615" lon="-3.012874397247057"><ele>577.8000000000001</ele><time>2026-04-21T11:25:31.999Z</time></trkpt><trkpt lat="37.56359382702331" lon="-3.01299015704846"><ele>578.2</ele><time>2026-04-21T11:25:32.999Z</time></trkpt><trkpt lat="37.5635313815332" lon="-3.0131176715206345"><ele>578.6</ele><time>2026-04-21T11:25:33.999Z</time></trkpt><trkpt lat="37.56348527201543" lon="-3.013236682388042"><ele>579.0</ele><time>2026-04-21T11:25:34.999Z</time></trkpt><trkpt lat="37.56345915403538" lon="-3.013359146211192"><ele>579.0</ele><time>2026-04-21T11:25:35.999Z</time></trkpt><trkpt lat="37.56344970444289" lon="-3.013490129485067"><ele>579.0</ele><time>2026-04-21T11:25:37Z</time></trkpt><trkpt lat="37.5634392890247" lon="-3.0136085972212974"><ele>579.0</ele><time>2026-04-21T11:25:38Z</time></trkpt><trkpt lat="37.56340295116358" lon="-3.013739204002277"><ele>579.0</ele><time>2026-04-21T11:25:39Z</time></trkpt><trkpt lat="37.56334631724216" lon="-3.013847533715322"><ele>579.0</ele><time>2026-04-21T11:25:40Z</time></trkpt><trkpt lat="37.56330170062166" lon="-3.0139191033542536"><ele>579.0</ele><time>2026-04-21T11:25:41Z</time></trkpt><trkpt lat="37.56325056347377" lon="-3.013968413358665"><ele>579.0</ele><time>2026-04-21T11:25:42Z</time></trkpt><trkpt lat="37.56316016827557" lon="-3.0140161373991727"><ele>579.0</ele><time>2026-04-21T11:25:43Z</time></trkpt><trkpt lat="37.56303289712897" lon="-3.014050359137109"><ele>579.0</ele><time>2026-04-21T11:25:44Z</time></trkpt><trkpt lat="37.562928145309826" lon="-3.0140711200454606"><ele>579.0</ele><time>2026-04-21T11:25:45Z</time></trkpt><trkpt lat="37.56284274389338" lon="-3.01408469641743"><ele>579.2</ele><time>2026-04-21T11:25:46Z</time></trkpt><trkpt lat="37.56278131182641" lon="-3.014103365526914"><ele>579.4</ele><time>2026-04-21T11:25:47Z</time></trkpt><trkpt lat="37.562711391270675" lon="-3.014153906154137"><ele>579.6</ele><time>2026-04-21T11:25:48Z</time></trkpt><trkpt lat="37.562645865432096" lon="-3.014236122458975"><ele>579.8</ele><time>2026-04-21T11:25:49Z</time></trkpt><trkpt lat="37.562572760463354" lon="-3.014332423913717"><ele>580.0</ele><time>2026-04-21T11:25:50Z</time></trkpt><trkpt lat="37.562484360448586" lon="-3.014451179400545"><ele>580.0</ele><time>2026-04-21T11:25:51Z</time></trkpt><trkpt lat="37.56241291860277" lon="-3.014563447489396"><ele>580.0</ele><time>2026-04-21T11:25:52Z</time></trkpt><trkpt lat="37.56235052241688" lon="-3.0146785516738204"><ele>580.0</ele><time>2026-04-21T11:25:53Z</time></trkpt><trkpt lat="37.56227904730884" lon="-3.0147868569905696"><ele>580.0</ele><time>2026-04-21T11:25:54Z</time></trkpt><trkpt lat="37.56219629860024" lon="-3.0148909331654594"><ele>580.2</ele><time>2026-04-21T11:25:55Z</time></trkpt><trkpt lat="37.562111430020465" lon="-3.0149929159345707"><ele>580.4</ele><time>2026-04-21T11:25:56Z</time></trkpt><trkpt lat="37.562031363475135" lon="-3.0150978119558527"><ele>580.6</ele><time>2026-04-21T11:25:57Z</time></trkpt><trkpt lat="37.56196962304074" lon="-3.015179579968279"><ele>580.8</ele><time>2026-04-21T11:25:58Z</time></trkpt><trkpt lat="37.56193099615053" lon="-3.0152685882246053"><ele>581.0</ele><time>2026-04-21T11:25:59Z</time></trkpt><trkpt lat="37.561896134315575" lon="-3.0153828215241743"><ele>581.3333333333333</ele><time>2026-04-21T11:26:00Z</time></trkpt><trkpt lat="37.561868411140956" lon="-3.015494047435778"><ele>581.6666666666666</ele><time>2026-04-21T11:26:01Z</time></trkpt><trkpt lat="37.561845541147555" lon="-3.015608160254746"><ele>582.0</ele><time>2026-04-21T11:26:02Z</time></trkpt><trkpt lat="37.56182253132067" lon="-3.015730529939869"><ele>582.3333333333334</ele><time>2026-04-21T11:26:03Z</time></trkpt><trkpt lat="37.56178593281878" lon="-3.0158325519819953"><ele>582.6666666666667</ele><time>2026-04-21T11:26:04Z</time></trkpt><trkpt lat="37.56176423025214" lon="-3.0159200532302104"><ele>583.0</ele><time>2026-04-21T11:26:05Z</time></trkpt><trkpt lat="37.56176272692459" lon="-3.0160069760211887"><ele>583.8</ele><time>2026-04-21T11:26:06Z</time></trkpt><trkpt lat="37.56177290807578" lon="-3.016086473410231"><ele>584.5999999999999</ele><time>2026-04-21T11:26:07Z</time></trkpt><trkpt lat="37.561807314924465" lon="-3.0161548587165132"><ele>585.4000000000001</ele><time>2026-04-21T11:26:08Z</time></trkpt><trkpt lat="37.56190141634803" lon="-3.016258792252365"><ele>586.2</ele><time>2026-04-21T11:26:10Z</time></trkpt><trkpt lat="37.561979142682134" lon="-3.016387729800379"><ele>587.0</ele><time>2026-04-21T11:26:12Z</time></trkpt><trkpt lat="37.562000042570325" lon="-3.016475378609454"><ele>587.0</ele><time>2026-04-21T11:26:13Z</time></trkpt><trkpt lat="37.56201070306038" lon="-3.0165815359561985"><ele>587.0</ele><time>2026-04-21T11:26:14Z</time></trkpt><trkpt lat="37.56202010538722" lon="-3.0166914069879254"><ele>587.0</ele><time>2026-04-21T11:26:15Z</time></trkpt><trkpt lat="37.562026033368745" lon="-3.0167835709187076"><ele>587.0</ele><time>2026-04-21T11:26:16Z</time></trkpt><trkpt lat="37.56201038606396" lon="-3.0168940908212134"><ele>587.0</ele><time>2026-04-21T11:26:19Z</time></trkpt><trkpt lat="37.562022890219225" lon="-3.0167854860873833"><ele>587.0</ele><time>2026-04-21T11:26:51Z</time></trkpt><trkpt lat="37.56202044617847" lon="-3.0166469284675665"><ele>587.0</ele><time>2026-04-21T11:26:53Z</time></trkpt><trkpt lat="37.56200985828315" lon="-3.016568375788766"><ele>587.0</ele><time>2026-04-21T11:26:54Z</time></trkpt><trkpt lat="37.56198133923904" lon="-3.0164254508279824"><ele>587.0</ele><time>2026-04-21T11:26:56Z</time></trkpt><trkpt lat="37.56194170125507" lon="-3.0163129666370407"><ele>587.0</ele><time>2026-04-21T11:26:57Z</time></trkpt><trkpt lat="37.561890766941985" lon="-3.0162227991429007"><ele>587.0</ele><time>2026-04-21T11:26:58Z</time></trkpt><trkpt lat="37.561839414148096" lon="-3.0161626131774764"><ele>587.0</ele><time>2026-04-21T11:26:59Z</time></trkpt><trkpt lat="37.56176773528483" lon="-3.01605226513147"><ele>587.0</ele><time>2026-04-21T11:27:01Z</time></trkpt><trkpt lat="37.5617536379162" lon="-3.0159721810492996"><ele>587.0</ele><time>2026-04-21T11:27:02Z</time></trkpt><trkpt lat="37.56176288190709" lon="-3.015885003924247"><ele>587.0</ele><time>2026-04-21T11:27:03Z</time></trkpt><trkpt lat="37.561783074168545" lon="-3.0157967976230595"><ele>587.0</ele><time>2026-04-21T11:27:04Z</time></trkpt><trkpt lat="37.561821324097956" lon="-3.015709883457452"><ele>587.0</ele><time>2026-04-21T11:27:05Z</time></trkpt><trkpt lat="37.561849743845734" lon="-3.0156008081661034"><ele>587.0</ele><time>2026-04-21T11:27:06Z</time></trkpt><trkpt lat="37.561883563616256" lon="-3.015492507190055"><ele>586.3333333333333</ele><time>2026-04-21T11:27:07Z</time></trkpt><trkpt lat="37.56190520504554" lon="-3.0153963078145942"><ele>585.6666666666666</ele><time>2026-04-21T11:27:08Z</time></trkpt><trkpt lat="37.561927081620134" lon="-3.0153017389758756"><ele>585.0</ele><time>2026-04-21T11:27:09Z</time></trkpt><trkpt lat="37.56195674832391" lon="-3.0152100952082694"><ele>584.3333333333334</ele><time>2026-04-21T11:27:10.001Z</time></trkpt><trkpt lat="37.56200442240087" lon="-3.0151238142915555"><ele>583.6666666666667</ele><time>2026-04-21T11:27:11.001Z</time></trkpt><trkpt lat="37.562063539880654" lon="-3.015033068049687"><ele>583.0</ele><time>2026-04-21T11:27:12.001Z</time></trkpt><trkpt lat="37.56213872766045" lon="-3.014954017899813"><ele>582.4</ele><time>2026-04-21T11:27:13Z</time></trkpt><trkpt lat="37.5622104664261" lon="-3.0148820586704876"><ele>581.8</ele><time>2026-04-21T11:27:14Z</time></trkpt><trkpt lat="37.562292318726485" lon="-3.0147895403953533"><ele>581.2</ele><time>2026-04-21T11:27:16Z</time></trkpt><trkpt lat="37.56222950826352" lon="-3.0147305722625766"><ele>580.6</ele><time>2026-04-21T11:27:20Z</time></trkpt><trkpt lat="37.562128872544974" lon="-3.0148013740186372"><ele>580.0</ele><time>2026-04-21T11:27:22Z</time></trkpt><trkpt lat="37.56203018447411" lon="-3.014853868874938"><ele>580.6</ele><time>2026-04-21T11:27:24Z</time></trkpt><trkpt lat="37.56197339072941" lon="-3.0148899660311277"><ele>581.2</ele><time>2026-04-21T11:27:25Z</time></trkpt><trkpt lat="37.561899164071924" lon="-3.0149538737252772"><ele>581.8</ele><time>2026-04-21T11:27:26Z</time></trkpt><trkpt lat="37.56181126491475" lon="-3.0150230882633036"><ele>582.4</ele><time>2026-04-21T11:27:27Z</time></trkpt><trkpt lat="37.56171845062931" lon="-3.0150853062841674"><ele>583.0</ele><time>2026-04-21T11:27:28Z</time></trkpt><trkpt lat="37.56163897907637" lon="-3.0151481246949103"><ele>583.0</ele><time>2026-04-21T11:27:29Z</time></trkpt><trkpt lat="37.56156660855398" lon="-3.0152015599252904"><ele>583.0</ele><time>2026-04-21T11:27:30Z</time></trkpt><trkpt lat="37.56148367205737" lon="-3.0152630052597336"><ele>583.0</ele><time>2026-04-21T11:27:31Z</time></trkpt><trkpt lat="37.561392555799046" lon="-3.01531382572831"><ele>583.0</ele><time>2026-04-21T11:27:32Z</time></trkpt><trkpt lat="37.561300702199304" lon="-3.0153403478698544"><ele>583.0</ele><time>2026-04-21T11:27:33Z</time></trkpt><trkpt lat="37.561219737623745" lon="-3.015352768803502"><ele>584.0</ele><time>2026-04-21T11:27:34Z</time></trkpt><trkpt lat="37.56111473898978" lon="-3.0153327557344145"><ele>585.0</ele><time>2026-04-21T11:27:36Z</time></trkpt><trkpt lat="37.56102726479618" lon="-3.0152126195641262"><ele>586.0</ele><time>2026-04-21T11:27:38Z</time></trkpt><trkpt lat="37.56099376707099" lon="-3.0151124288597484"><ele>587.0</ele><time>2026-04-21T11:27:39Z</time></trkpt><trkpt lat="37.56098082032748" lon="-3.015020617732059"><ele>588.0</ele><time>2026-04-21T11:27:40Z</time></trkpt><trkpt lat="37.56097785623423" lon="-3.014933031348858"><ele>588.0</ele><time>2026-04-21T11:27:41Z</time></trkpt><trkpt lat="37.56091679645295" lon="-3.0148259509460535"><ele>588.0</ele><time>2026-04-21T11:27:43Z</time></trkpt><trkpt lat="37.56085814505822" lon="-3.014781432037439"><ele>588.0</ele><time>2026-04-21T11:27:44Z</time></trkpt><trkpt lat="37.56075808412847" lon="-3.0148007834435555"><ele>588.0</ele><time>2026-04-21T11:27:46Z</time></trkpt><trkpt lat="37.560704728755965" lon="-3.0148538301730516"><ele>588.0</ele><time>2026-04-21T11:27:47Z</time></trkpt><trkpt lat="37.56065836238136" lon="-3.014939262297252"><ele>588.0</ele><time>2026-04-21T11:27:48Z</time></trkpt><trkpt lat="37.56059662199336" lon="-3.015039009368709"><ele>588.0</ele><time>2026-04-21T11:27:49Z</time></trkpt><trkpt lat="37.56052695087665" lon="-3.0151643458857893"><ele>588.0</ele><time>2026-04-21T11:27:50Z</time></trkpt><trkpt lat="37.56044983513302" lon="-3.0153006006053635"><ele>588.0</ele><time>2026-04-21T11:27:51Z</time></trkpt><trkpt lat="37.56037748093755" lon="-3.0154191825979617"><ele>588.0</ele><time>2026-04-21T11:27:52Z</time></trkpt><trkpt lat="37.56028744462477" lon="-3.0155256687399286"><ele>588.4</ele><time>2026-04-21T11:27:53Z</time></trkpt><trkpt lat="37.560203606289136" lon="-3.015617147353758"><ele>588.8</ele><time>2026-04-21T11:27:54Z</time></trkpt><trkpt lat="37.56013318397803" lon="-3.0157013745287826"><ele>589.2</ele><time>2026-04-21T11:27:55Z</time></trkpt><trkpt lat="37.56008140544259" lon="-3.015764764903321"><ele>589.6</ele><time>2026-04-21T11:27:56Z</time></trkpt><trkpt lat="37.55997969595108" lon="-3.0158166379872826"><ele>590.0</ele><time>2026-04-21T11:27:58Z</time></trkpt><trkpt lat="37.55988690504146" lon="-3.0158085419773224"><ele>590.0</ele><time>2026-04-21T11:27:59Z</time></trkpt><trkpt lat="37.55978015066607" lon="-3.015775707360985"><ele>590.0</ele><time>2026-04-21T11:28:00Z</time></trkpt><trkpt lat="37.55964782892203" lon="-3.0157271084808746"><ele>590.0</ele><time>2026-04-21T11:28:01Z</time></trkpt><trkpt lat="37.559487447156826" lon="-3.0156830804685497"><ele>590.0</ele><time>2026-04-21T11:28:02Z</time></trkpt><trkpt lat="37.55934033154285" lon="-3.015643697488619"><ele>591.0</ele><time>2026-04-21T11:28:03Z</time></trkpt><trkpt lat="37.55920297581827" lon="-3.0156171575945567"><ele>592.0</ele><time>2026-04-21T11:28:04Z</time></trkpt><trkpt lat="37.55908006033954" lon="-3.015587500387409"><ele>593.0</ele><time>2026-04-21T11:28:05Z</time></trkpt><trkpt lat="37.55897737561466" lon="-3.0155590676065462"><ele>594.0</ele><time>2026-04-21T11:28:06Z</time></trkpt><trkpt lat="37.558892028043" lon="-3.015532704581408"><ele>594.0</ele><time>2026-04-21T11:28:07Z</time></trkpt><trkpt lat="37.55881820201839" lon="-3.015489654274888"><ele>594.0</ele><time>2026-04-21T11:28:08Z</time></trkpt><trkpt lat="37.55874063422763" lon="-3.015409606141853"><ele>594.0</ele><time>2026-04-21T11:28:09Z</time></trkpt><trkpt lat="37.558670135931656" lon="-3.015311933026235"><ele>594.0</ele><time>2026-04-21T11:28:10Z</time></trkpt><trkpt lat="37.55862237852359" lon="-3.0152182672657974"><ele>594.0</ele><time>2026-04-21T11:28:11Z</time></trkpt><trkpt lat="37.55855836455707" lon="-3.01514758308551"><ele>594.0</ele><time>2026-04-21T11:28:13Z</time></trkpt><trkpt lat="37.55849463227354" lon="-3.0151669842330766"><ele>594.0</ele><time>2026-04-21T11:28:14Z</time></trkpt><trkpt lat="37.5584181131761" lon="-3.0151777601807375"><ele>594.0</ele><time>2026-04-21T11:28:15Z</time></trkpt><trkpt lat="37.55835552000326" lon="-3.015200764493985"><ele>594.0</ele><time>2026-04-21T11:28:16Z</time></trkpt><trkpt lat="37.55827579433624" lon="-3.0152938349255813"><ele>594.0</ele><time>2026-04-21T11:28:18Z</time></trkpt><trkpt lat="37.55825099386216" lon="-3.015379380329601"><ele>594.0</ele><time>2026-04-21T11:28:19Z</time></trkpt><trkpt lat="37.55822792376537" lon="-3.0154930536831563"><ele>594.0</ele><time>2026-04-21T11:28:20Z</time></trkpt><trkpt lat="37.55821719998335" lon="-3.015608104273192"><ele>594.0</ele><time>2026-04-21T11:28:21Z</time></trkpt><trkpt lat="37.55823204842987" lon="-3.015705465525382"><ele>594.0</ele><time>2026-04-21T11:28:22Z</time></trkpt><trkpt lat="37.55827122650319" lon="-3.015785654268965"><ele>594.0</ele><time>2026-04-21T11:28:23Z</time></trkpt><trkpt lat="37.55833824791629" lon="-3.0158695900332657"><ele>594.0</ele><time>2026-04-21T11:28:24Z</time></trkpt><trkpt lat="37.558415880362894" lon="-3.0159576333295375"><ele>594.0</ele><time>2026-04-21T11:28:25Z</time></trkpt><trkpt lat="37.55848747445817" lon="-3.0160616647431757"><ele>593.8333333333334</ele><time>2026-04-21T11:28:26Z</time></trkpt><trkpt lat="37.558522000807095" lon="-3.0161459590966984"><ele>593.6666666666666</ele><time>2026-04-21T11:28:27Z</time></trkpt><trkpt lat="37.55854362246592" lon="-3.0162636014398854"><ele>593.5</ele><time>2026-04-21T11:28:29Z</time></trkpt><trkpt lat="37.558495563171704" lon="-3.016369949781234"><ele>593.3333333333333</ele><time>2026-04-21T11:28:31Z</time></trkpt><trkpt lat="37.55843798534789" lon="-3.016433625839412"><ele>593.1666666666666</ele><time>2026-04-21T11:28:32Z</time></trkpt><trkpt lat="37.55836336733661" lon="-3.016504669276153"><ele>593.0</ele><time>2026-04-21T11:28:33Z</time></trkpt><trkpt lat="37.558288102926035" lon="-3.016565679268091"><ele>593.0</ele><time>2026-04-21T11:28:34Z</time></trkpt><trkpt lat="37.558213530920995" lon="-3.016600695353164"><ele>593.0</ele><time>2026-04-21T11:28:35Z</time></trkpt><trkpt lat="37.55811712240342" lon="-3.0166185334508566"><ele>593.0</ele><time>2026-04-21T11:28:36Z</time></trkpt><trkpt lat="37.558028631406295" lon="-3.016626209594322"><ele>593.0</ele><time>2026-04-21T11:28:37Z</time></trkpt><trkpt lat="37.55795101341882" lon="-3.0166129912249655"><ele>593.0</ele><time>2026-04-21T11:28:38Z</time></trkpt><trkpt lat="37.557863721524825" lon="-3.016568149839321"><ele>593.0</ele><time>2026-04-21T11:28:39Z</time></trkpt><trkpt lat="37.557770201781246" lon="-3.0164913730504734"><ele>593.0</ele><time>2026-04-21T11:28:40Z</time></trkpt><trkpt lat="37.55769538427181" lon="-3.016392153501239"><ele>593.0</ele><time>2026-04-21T11:28:41Z</time></trkpt><trkpt lat="37.557607520509606" lon="-3.016244768210609"><ele>593.0</ele><time>2026-04-21T11:28:42Z</time></trkpt><trkpt lat="37.55751106092706" lon="-3.016081279808731"><ele>593.0</ele><time>2026-04-21T11:28:43Z</time></trkpt><trkpt lat="37.55743763789217" lon="-3.0159736326784476"><ele>593.0</ele><time>2026-04-21T11:28:44Z</time></trkpt><trkpt lat="37.55738428575264" lon="-3.0158923676840823"><ele>593.0</ele><time>2026-04-21T11:28:45Z</time></trkpt><trkpt lat="37.55732946417819" lon="-3.0158066636658454"><ele>593.0</ele><time>2026-04-21T11:28:46Z</time></trkpt><trkpt lat="37.55728875271683" lon="-3.0157123360984706"><ele>593.0</ele><time>2026-04-21T11:28:48.001Z</time></trkpt><trkpt lat="37.55716984063235" lon="-3.015721217767037"><ele>593.0</ele><time>2026-04-21T11:28:50.001Z</time></trkpt><trkpt lat="37.55709858458983" lon="-3.015763808326292"><ele>593.0</ele><time>2026-04-21T11:28:51.001Z</time></trkpt><trkpt lat="37.55703283553136" lon="-3.0158172207564853"><ele>593.0</ele><time>2026-04-21T11:28:52.001Z</time></trkpt><trkpt lat="37.55699290519985" lon="-3.015942517100838"><ele>593.0</ele><time>2026-04-21T11:28:54.001Z</time></trkpt><trkpt lat="37.55700779394409" lon="-3.016022234325044"><ele>593.0</ele><time>2026-04-21T11:28:55.001Z</time></trkpt><trkpt lat="37.557063851243726" lon="-3.0161661180095485"><ele>593.0</ele><time>2026-04-21T11:28:57.001Z</time></trkpt><trkpt lat="37.55710948082074" lon="-3.0162749641208833"><ele>593.0</ele><time>2026-04-21T11:28:58.001Z</time></trkpt><trkpt lat="37.55715004680629" lon="-3.016379051812933"><ele>593.0</ele><time>2026-04-21T11:28:59.001Z</time></trkpt><trkpt lat="37.55718570822703" lon="-3.0164926549416666"><ele>593.0</ele><time>2026-04-21T11:29:00.001Z</time></trkpt><trkpt lat="37.557201920867044" lon="-3.016585841224614"><ele>593.0</ele><time>2026-04-21T11:29:01.001Z</time></trkpt><trkpt lat="37.55721599499072" lon="-3.01668529974401"><ele>593.0</ele><time>2026-04-21T11:29:02.001Z</time></trkpt><trkpt lat="37.557217764829254" lon="-3.0167938427940264"><ele>593.0</ele><time>2026-04-21T11:29:03.001Z</time></trkpt><trkpt lat="37.557183112297906" lon="-3.0168969497567266"><ele>593.0</ele><time>2026-04-21T11:29:04.001Z</time></trkpt><trkpt lat="37.557137746759146" lon="-3.017007749198797"><ele>593.0</ele><time>2026-04-21T11:29:05.001Z</time></trkpt><trkpt lat="37.55711161249942" lon="-3.017083567393583"><ele>593.0</ele><time>2026-04-21T11:29:06.001Z</time></trkpt><trkpt lat="37.55701478900668" lon="-3.017142537286719"><ele>593.0</ele><time>2026-04-21T11:29:08.001Z</time></trkpt><trkpt lat="37.55694844825858" lon="-3.017142526333886"><ele>593.0</ele><time>2026-04-21T11:29:09.001Z</time></trkpt><trkpt lat="37.556869189259594" lon="-3.0171186822382867"><ele>593.0</ele><time>2026-04-21T11:29:10.001Z</time></trkpt><trkpt lat="37.55676621867109" lon="-3.017067079957059"><ele>593.0</ele><time>2026-04-21T11:29:11.001Z</time></trkpt><trkpt lat="37.556690417929616" lon="-3.017029417935913"><ele>593.0</ele><time>2026-04-21T11:29:12.001Z</time></trkpt><trkpt lat="37.556599048364966" lon="-3.0170149072578716"><ele>593.0</ele><time>2026-04-21T11:29:14.001Z</time></trkpt><trkpt lat="37.55651715135717" lon="-3.017082099812021"><ele>593.0</ele><time>2026-04-21T11:29:16.001Z</time></trkpt><trkpt lat="37.55645488994689" lon="-3.017210087535745"><ele>593.0</ele><time>2026-04-21T11:29:18.001Z</time></trkpt><trkpt lat="37.55640810187745" lon="-3.017320661382262"><ele>593.0</ele><time>2026-04-21T11:29:19Z</time></trkpt><trkpt lat="37.55635682494999" lon="-3.0174682411814966"><ele>593.0</ele><time>2026-04-21T11:29:20Z</time></trkpt><trkpt lat="37.556310165743504" lon="-3.0176239126493436"><ele>593.0</ele><time>2026-04-21T11:29:21Z</time></trkpt><trkpt lat="37.55624807719148" lon="-3.0177789850593295"><ele>593.0</ele><time>2026-04-21T11:29:22Z</time></trkpt><trkpt lat="37.556177242985974" lon="-3.0178978114039157"><ele>594.1666666666666</ele><time>2026-04-21T11:29:23Z</time></trkpt><trkpt lat="37.556104377260134" lon="-3.0179942791003374"><ele>595.3333333333333</ele><time>2026-04-21T11:29:24Z</time></trkpt><trkpt lat="37.5560379522377" lon="-3.0180631463681697"><ele>596.5</ele><time>2026-04-21T11:29:25Z</time></trkpt><trkpt lat="37.55597249511464" lon="-3.018113555509695"><ele>597.6666666666666</ele><time>2026-04-21T11:29:26Z</time></trkpt><trkpt lat="37.55588304392996" lon="-3.0181498211743363"><ele>598.8333333333334</ele><time>2026-04-21T11:29:27Z</time></trkpt><trkpt lat="37.55580051471254" lon="-3.0181762578323665"><ele>600.0</ele><time>2026-04-21T11:29:28Z</time></trkpt><trkpt lat="37.55570155550043" lon="-3.0181706399408417"><ele>600.0</ele><time>2026-04-21T11:29:29Z</time></trkpt><trkpt lat="37.55562359052631" lon="-3.0181684614434445"><ele>600.0</ele><time>2026-04-21T11:29:30Z</time></trkpt><trkpt lat="37.55551310698611" lon="-3.0182370625721733"><ele>600.0</ele><time>2026-04-21T11:29:32Z</time></trkpt><trkpt lat="37.55544340406146" lon="-3.0183413353950206"><ele>600.0</ele><time>2026-04-21T11:29:33Z</time></trkpt><trkpt lat="37.55536154308514" lon="-3.018492587129175"><ele>601.8</ele><time>2026-04-21T11:29:34Z</time></trkpt><trkpt lat="37.55529291789393" lon="-3.0186319282090524"><ele>603.6</ele><time>2026-04-21T11:29:35Z</time></trkpt><trkpt lat="37.55524077341167" lon="-3.0187267911484215"><ele>605.4</ele><time>2026-04-21T11:29:36Z</time></trkpt><trkpt lat="37.555172018460524" lon="-3.0188065127456265"><ele>607.2</ele><time>2026-04-21T11:29:37Z</time></trkpt><trkpt lat="37.55508083849777" lon="-3.0188649796712235"><ele>609.0</ele><time>2026-04-21T11:29:38Z</time></trkpt><trkpt lat="37.555001997148906" lon="-3.018902601293908"><ele>609.0</ele><time>2026-04-21T11:29:39Z</time></trkpt><trkpt lat="37.55488082587229" lon="-3.018899956097834"><ele>609.0</ele><time>2026-04-21T11:29:41Z</time></trkpt><trkpt lat="37.55481767143484" lon="-3.0188906696554185"><ele>609.0</ele><time>2026-04-21T11:29:42Z</time></trkpt><trkpt lat="37.55474679299727" lon="-3.0189207222883074"><ele>609.0</ele><time>2026-04-21T11:29:44Z</time></trkpt><trkpt lat="37.55468974954" lon="-3.018977096648302"><ele>609.0</ele><time>2026-04-21T11:29:46Z</time></trkpt><trkpt lat="37.554671695535006" lon="-3.0190652096365316"><ele>609.0</ele><time>2026-04-21T11:29:48Z</time></trkpt><trkpt lat="37.55469386025496" lon="-3.0192278506635644"><ele>607.8</ele><time>2026-04-21T11:29:50Z</time></trkpt><trkpt lat="37.55470482304067" lon="-3.019334680169108"><ele>606.5999999999999</ele><time>2026-04-21T11:29:51Z</time></trkpt><trkpt lat="37.55469566558596" lon="-3.0194485860724276"><ele>605.4</ele><time>2026-04-21T11:29:52Z</time></trkpt><trkpt lat="37.554658083443236" lon="-3.019540491001175"><ele>604.1999999999999</ele><time>2026-04-21T11:29:53Z</time></trkpt><trkpt lat="37.55459253939647" lon="-3.019663544157605"><ele>603.0</ele><time>2026-04-21T11:29:54Z</time></trkpt><trkpt lat="37.55452295432425" lon="-3.019812788844034"><ele>603.0</ele><time>2026-04-21T11:29:55Z</time></trkpt><trkpt lat="37.55447168145827" lon="-3.019948575065491"><ele>603.0</ele><time>2026-04-21T11:29:56Z</time></trkpt><trkpt lat="37.554409249822015" lon="-3.020081046747794"><ele>603.0</ele><time>2026-04-21T11:29:57Z</time></trkpt><trkpt lat="37.55437339620261" lon="-3.0201893118065364"><ele>603.0</ele><time>2026-04-21T11:29:58Z</time></trkpt><trkpt lat="37.55434046711106" lon="-3.0202843614215626"><ele>603.0</ele><time>2026-04-21T11:29:59Z</time></trkpt><trkpt lat="37.5543296895055" lon="-3.0203895083771495"><ele>603.8333333333334</ele><time>2026-04-21T11:30:01Z</time></trkpt><trkpt lat="37.554398752606296" lon="-3.020485177574609"><ele>604.6666666666666</ele><time>2026-04-21T11:30:03Z</time></trkpt><trkpt lat="37.55446442608042" lon="-3.0205328726394027"><ele>605.5</ele><time>2026-04-21T11:30:04Z</time></trkpt><trkpt lat="37.5545441358198" lon="-3.020584112025942"><ele>606.3333333333333</ele><time>2026-04-21T11:30:05Z</time></trkpt><trkpt lat="37.55461281605273" lon="-3.0206400697885614"><ele>607.1666666666666</ele><time>2026-04-21T11:30:06Z</time></trkpt><trkpt lat="37.55466379610244" lon="-3.020707014424411"><ele>608.0</ele><time>2026-04-21T11:30:07Z</time></trkpt><trkpt lat="37.554698216305844" lon="-3.0208040130579232"><ele>608.25</ele><time>2026-04-21T11:30:08Z</time></trkpt><trkpt lat="37.554711483012156" lon="-3.0209145337825567"><ele>608.5</ele><time>2026-04-21T11:30:09Z</time></trkpt><trkpt lat="37.55470862566117" lon="-3.021050118916457"><ele>608.75</ele><time>2026-04-21T11:30:10Z</time></trkpt><trkpt lat="37.55469750031731" lon="-3.0212151185753062"><ele>609.0</ele><time>2026-04-21T11:30:11Z</time></trkpt><trkpt lat="37.55469720652091" lon="-3.0214040271720535"><ele>609.0</ele><time>2026-04-21T11:30:12Z</time></trkpt><trkpt lat="37.55470505218325" lon="-3.0215773073759644"><ele>609.0</ele><time>2026-04-21T11:30:13Z</time></trkpt><trkpt lat="37.55470904119623" lon="-3.0217193201324055"><ele>609.0</ele><time>2026-04-21T11:30:14Z</time></trkpt><trkpt lat="37.55469775826644" lon="-3.0218352531488004"><ele>609.0</ele><time>2026-04-21T11:30:15Z</time></trkpt><trkpt lat="37.55468807675183" lon="-3.021929207609872"><ele>609.0</ele><time>2026-04-21T11:30:16Z</time></trkpt><trkpt lat="37.55473587480803" lon="-3.0220727626689188"><ele>608.8</ele><time>2026-04-21T11:30:18Z</time></trkpt><trkpt lat="37.55479237763142" lon="-3.0221370870403144"><ele>608.5999999999999</ele><time>2026-04-21T11:30:19Z</time></trkpt><trkpt lat="37.55486197378227" lon="-3.0222002700125192"><ele>608.4</ele><time>2026-04-21T11:30:20Z</time></trkpt><trkpt lat="37.5549472952537" lon="-3.0222333546801297"><ele>608.1999999999999</ele><time>2026-04-21T11:30:21Z</time></trkpt><trkpt lat="37.55505399943345" lon="-3.0222671448098346"><ele>608.0</ele><time>2026-04-21T11:30:22Z</time></trkpt><trkpt lat="37.55516471515072" lon="-3.0223041570106215"><ele>608.0</ele><time>2026-04-21T11:30:23Z</time></trkpt><trkpt lat="37.555258203232974" lon="-3.022347072003783"><ele>608.0</ele><time>2026-04-21T11:30:24Z</time></trkpt><trkpt lat="37.55533195365173" lon="-3.0224065206044974"><ele>608.0</ele><time>2026-04-21T11:30:25Z</time></trkpt><trkpt lat="37.55539868851039" lon="-3.022473327334499"><ele>608.0</ele><time>2026-04-21T11:30:26Z</time></trkpt><trkpt lat="37.55547403946233" lon="-3.0225689201066523"><ele>608.0</ele><time>2026-04-21T11:30:27Z</time></trkpt><trkpt lat="37.55553812593993" lon="-3.022667703566029"><ele>610.5</ele><time>2026-04-21T11:30:28Z</time></trkpt><trkpt lat="37.55557121499496" lon="-3.0227517527705343"><ele>613.0</ele><time>2026-04-21T11:30:29Z</time></trkpt><trkpt lat="37.55558486664687" lon="-3.02283140172297"><ele>615.5</ele><time>2026-04-21T11:30:30Z</time></trkpt><trkpt lat="37.555551197465775" lon="-3.022988725235673"><ele>618.0</ele><time>2026-04-21T11:30:32.001Z</time></trkpt><trkpt lat="37.55550930476132" lon="-3.023070430503214"><ele>620.5</ele><time>2026-04-21T11:30:33.001Z</time></trkpt><trkpt lat="37.555449141046566" lon="-3.0231472920467315"><ele>623.0</ele><time>2026-04-21T11:30:35.001Z</time></trkpt><trkpt lat="37.55537106898014" lon="-3.0231630882633134"><ele>620.6</ele><time>2026-04-21T11:30:37.001Z</time></trkpt><trkpt lat="37.555305786039305" lon="-3.023195533618284"><ele>618.1999999999999</ele><time>2026-04-21T11:30:38.001Z</time></trkpt><trkpt lat="37.555218616411686" lon="-3.023250863695008"><ele>615.8</ele><time>2026-04-21T11:30:39.001Z</time></trkpt><trkpt lat="37.55511925124884" lon="-3.023305140024523"><ele>613.4</ele><time>2026-04-21T11:30:40.001Z</time></trkpt><trkpt lat="37.55503622738126" lon="-3.023344852130617"><ele>611.0</ele><time>2026-04-21T11:30:41.001Z</time></trkpt><trkpt lat="37.55493314536554" lon="-3.0233888938983466"><ele>611.0</ele><time>2026-04-21T11:30:43.001Z</time></trkpt><trkpt lat="37.554869673731325" lon="-3.02350775392849"><ele>611.0</ele><time>2026-04-21T11:30:45.001Z</time></trkpt><trkpt lat="37.554848374915025" lon="-3.0235964880132893"><ele>611.0</ele><time>2026-04-21T11:30:46.001Z</time></trkpt><trkpt lat="37.554832235259" lon="-3.023690757734779"><ele>611.0</ele><time>2026-04-21T11:30:47.001Z</time></trkpt><trkpt lat="37.55477021605119" lon="-3.0237884275747855"><ele>611.0</ele><time>2026-04-21T11:30:49.001Z</time></trkpt><trkpt lat="37.55463281437863" lon="-3.0238225215418955"><ele>613.0</ele><time>2026-04-21T11:30:51.001Z</time></trkpt><trkpt lat="37.55452634803167" lon="-3.0238385183946304"><ele>615.0</ele><time>2026-04-21T11:30:52.001Z</time></trkpt><trkpt lat="37.55441143879444" lon="-3.0238280398099113"><ele>617.0</ele><time>2026-04-21T11:30:53.001Z</time></trkpt><trkpt lat="37.55427166825264" lon="-3.0238085162744945"><ele>619.0</ele><time>2026-04-21T11:30:54.001Z</time></trkpt><trkpt lat="37.55415065446606" lon="-3.023784653735021"><ele>619.0</ele><time>2026-04-21T11:30:55.001Z</time></trkpt><trkpt lat="37.554057638492914" lon="-3.023766926391021"><ele>619.0</ele><time>2026-04-21T11:30:56.001Z</time></trkpt><trkpt lat="37.553987900311704" lon="-3.023734221947663"><ele>619.0</ele><time>2026-04-21T11:30:57.001Z</time></trkpt><trkpt lat="37.55389353927793" lon="-3.0236675939074056"><ele>619.0</ele><time>2026-04-21T11:30:59.001Z</time></trkpt><trkpt lat="37.55378464089483" lon="-3.023635536602761"><ele>619.0</ele><time>2026-04-21T11:31:01.001Z</time></trkpt><trkpt lat="37.55371880331797" lon="-3.0236413134917544"><ele>619.0</ele><time>2026-04-21T11:31:02.001Z</time></trkpt><trkpt lat="37.55365829618621" lon="-3.0237732766596483"><ele>619.0</ele><time>2026-04-21T11:31:04.001Z</time></trkpt><trkpt lat="37.5536746746193" lon="-3.023867685441832"><ele>619.0</ele><time>2026-04-21T11:31:05.001Z</time></trkpt><trkpt lat="37.55372701386132" lon="-3.0239466041243586"><ele>619.0</ele><time>2026-04-21T11:31:06.001Z</time></trkpt><trkpt lat="37.553795967922476" lon="-3.023996534253918"><ele>619.0</ele><time>2026-04-21T11:31:07.001Z</time></trkpt><trkpt lat="37.553885379615345" lon="-3.0240033946617966"><ele>619.0</ele><time>2026-04-21T11:31:08.001Z</time></trkpt><trkpt lat="37.553981807785306" lon="-3.0239815549622535"><ele>619.0</ele><time>2026-04-21T11:31:09.001Z</time></trkpt><trkpt lat="37.55409513378602" lon="-3.0239793478801307"><ele>619.0</ele><time>2026-04-21T11:31:10.001Z</time></trkpt><trkpt lat="37.554211985348324" lon="-3.0239937436673876"><ele>619.0</ele><time>2026-04-21T11:31:11.001Z</time></trkpt><trkpt lat="37.55430653635986" lon="-3.0240072639335973"><ele>619.0</ele><time>2026-04-21T11:31:12.001Z</time></trkpt><trkpt lat="37.55439082456199" lon="-3.0240175793875133"><ele>619.0</ele><time>2026-04-21T11:31:13.001Z</time></trkpt><trkpt lat="37.55446465644675" lon="-3.024017288562592"><ele>619.0</ele><time>2026-04-21T11:31:14.001Z</time></trkpt><trkpt lat="37.55453391862444" lon="-3.0240115610442713"><ele>619.0</ele><time>2026-04-21T11:31:15.001Z</time></trkpt><trkpt lat="37.5546492953883" lon="-3.0239909352328183"><ele>619.0</ele><time>2026-04-21T11:31:17.001Z</time></trkpt><trkpt lat="37.55475292598717" lon="-3.0239574312829838"><ele>619.0</ele><time>2026-04-21T11:31:19.001Z</time></trkpt><trkpt lat="37.554830536170215" lon="-3.0239326342938644"><ele>619.0</ele><time>2026-04-21T11:31:21.001Z</time></trkpt><trkpt lat="37.554901017417684" lon="-3.0239015279161765"><ele>619.0</ele><time>2026-04-21T11:31:24.001Z</time></trkpt><trkpt lat="37.55484237961773" lon="-3.0238386795960945"><ele>617.4</ele><time>2026-04-21T11:35:56Z</time></trkpt><trkpt lat="37.55487246361679" lon="-3.023921270591405"><ele>615.8</ele><time>2026-04-21T11:37:03.001Z</time></trkpt><trkpt lat="37.555001139733484" lon="-3.0239345769742547"><ele>614.2</ele><time>2026-04-21T12:03:48Z</time></trkpt><trkpt lat="37.55506659605199" lon="-3.023918293488791"><ele>612.6</ele><time>2026-04-21T12:03:49Z</time></trkpt><trkpt lat="37.55514336427836" lon="-3.02383402277251"><ele>611.0</ele><time>2026-04-21T12:03:51Z</time></trkpt><trkpt lat="37.55520473327131" lon="-3.0237196279683776"><ele>611.0</ele><time>2026-04-21T12:03:53Z</time></trkpt><trkpt lat="37.55528858228024" lon="-3.023707424464871"><ele>611.0</ele><time>2026-04-21T12:03:55Z</time></trkpt><trkpt lat="37.55535640085808" lon="-3.02379550679096"><ele>611.0</ele><time>2026-04-21T12:03:57Z</time></trkpt><trkpt lat="37.55533139748665" lon="-3.023941927910728"><ele>611.0</ele><time>2026-04-21T12:03:59Z</time></trkpt><trkpt lat="37.555290690487695" lon="-3.0240290641117733"><ele>611.0</ele><time>2026-04-21T12:04:00Z</time></trkpt><trkpt lat="37.555244184809446" lon="-3.024146730220104"><ele>611.8333333333333</ele><time>2026-04-21T12:04:02Z</time></trkpt><trkpt lat="37.555294009712654" lon="-3.0242153715392686"><ele>612.6666666666666</ele><time>2026-04-21T12:04:04Z</time></trkpt><trkpt lat="37.55540021866209" lon="-3.024140150668158"><ele>613.5</ele><time>2026-04-21T12:04:06Z</time></trkpt><trkpt lat="37.55546536782336" lon="-3.024074742397047"><ele>614.3333333333334</ele><time>2026-04-21T12:04:07Z</time></trkpt><trkpt lat="37.555531817185326" lon="-3.024026417227871"><ele>615.1666666666667</ele><time>2026-04-21T12:04:08Z</time></trkpt><trkpt lat="37.555624818900164" lon="-3.024032562137108"><ele>616.0</ele><time>2026-04-21T12:04:10Z</time></trkpt><trkpt lat="37.555657695127614" lon="-3.0241516713155354"><ele>618.6</ele><time>2026-04-21T12:04:12Z</time></trkpt><trkpt lat="37.555624372476274" lon="-3.0242708256210338"><ele>621.2</ele><time>2026-04-21T12:04:14Z</time></trkpt><trkpt lat="37.555690356564355" lon="-3.0243008083891265"><ele>623.8</ele><time>2026-04-21T12:04:16Z</time></trkpt><trkpt lat="37.555774591302765" lon="-3.0241485907022576"><ele>626.4</ele><time>2026-04-21T12:04:18Z</time></trkpt><trkpt lat="37.55580904744933" lon="-3.0240714341413195"><ele>629.0</ele><time>2026-04-21T12:04:19Z</time></trkpt><trkpt lat="37.555817545181156" lon="-3.023982871898971"><ele>629.0</ele><time>2026-04-21T12:04:20Z</time></trkpt><trkpt lat="37.55579327607974" lon="-3.0238800396667247"><ele>629.0</ele><time>2026-04-21T12:04:21Z</time></trkpt><trkpt lat="37.55580246647635" lon="-3.0237701902487966"><ele>629.0</ele><time>2026-04-21T12:04:22Z</time></trkpt><trkpt lat="37.55580353408596" lon="-3.023665196773233"><ele>629.0</ele><time>2026-04-21T12:04:23Z</time></trkpt><trkpt lat="37.55582709802076" lon="-3.023565903972318"><ele>629.0</ele><time>2026-04-21T12:04:24.999Z</time></trkpt><trkpt lat="37.55574964695238" lon="-3.023584580458559"><ele>629.0</ele><time>2026-04-21T12:04:32.999Z</time></trkpt><trkpt lat="37.55582695786672" lon="-3.023540062621869"><ele>629.0</ele><time>2026-04-21T12:04:54.999Z</time></trkpt><trkpt lat="37.55587924700311" lon="-3.0233970703123623"><ele>629.0</ele><time>2026-04-21T12:04:56.999Z</time></trkpt><trkpt lat="37.55588221949973" lon="-3.023293164074375"><ele>629.0</ele><time>2026-04-21T12:04:57.999Z</time></trkpt><trkpt lat="37.55592386615946" lon="-3.0231645612039433"><ele>629.0</ele><time>2026-04-21T12:04:59.999Z</time></trkpt><trkpt lat="37.55600326480608" lon="-3.0231438569844835"><ele>629.0</ele><time>2026-04-21T12:05:01.999Z</time></trkpt><trkpt lat="37.55606149081107" lon="-3.02327149906998"><ele>629.0</ele><time>2026-04-21T12:05:03.999Z</time></trkpt><trkpt lat="37.556088345661486" lon="-3.0233891239917727"><ele>629.0</ele><time>2026-04-21T12:05:04.999Z</time></trkpt><trkpt lat="37.55611491861447" lon="-3.0235267669355927"><ele>629.0</ele><time>2026-04-21T12:05:05.999Z</time></trkpt><trkpt lat="37.55615363485907" lon="-3.0236426059753367"><ele>629.0</ele><time>2026-04-21T12:05:06.999Z</time></trkpt><trkpt lat="37.55619589104443" lon="-3.02370234572798"><ele>629.0</ele><time>2026-04-21T12:05:07.999Z</time></trkpt><trkpt lat="37.5562960831818" lon="-3.0237426875282387"><ele>631.6</ele><time>2026-04-21T12:05:09.999Z</time></trkpt><trkpt lat="37.556377470817566" lon="-3.0236392095625786"><ele>634.2</ele><time>2026-04-21T12:05:11.999Z</time></trkpt><trkpt lat="37.556387581557146" lon="-3.023546039356491"><ele>636.8000000000001</ele><time>2026-04-21T12:05:12.999Z</time></trkpt><trkpt lat="37.556374291980184" lon="-3.0234400123217293"><ele>639.4</ele><time>2026-04-21T12:05:13.999Z</time></trkpt><trkpt lat="37.556382718422384" lon="-3.023312232204144"><ele>642.0</ele><time>2026-04-21T12:05:14.999Z</time></trkpt><trkpt lat="37.55640912607975" lon="-3.023188661795959"><ele>642.0</ele><time>2026-04-21T12:05:15.999Z</time></trkpt><trkpt lat="37.55644756923961" lon="-3.0230633396409017"><ele>642.0</ele><time>2026-04-21T12:05:16.999Z</time></trkpt><trkpt lat="37.55649882264137" lon="-3.0229415992433437"><ele>642.0</ele><time>2026-04-21T12:05:17.999Z</time></trkpt><trkpt lat="37.556519284160274" lon="-3.0228352565708216"><ele>642.0</ele><time>2026-04-21T12:05:18.999Z</time></trkpt><trkpt lat="37.55655797615071" lon="-3.0227708446313732"><ele>642.0</ele><time>2026-04-21T12:05:19.999Z</time></trkpt><trkpt lat="37.556628144715965" lon="-3.022716227480122"><ele>642.0</ele><time>2026-04-21T12:05:20.999Z</time></trkpt><trkpt lat="37.55671695343323" lon="-3.022663247339938"><ele>642.0</ele><time>2026-04-21T12:05:21.999Z</time></trkpt><trkpt lat="37.55679270636149" lon="-3.0226288585173444"><ele>642.0</ele><time>2026-04-21T12:05:22.999Z</time></trkpt><trkpt lat="37.55686819301797" lon="-3.022612018327178"><ele>642.0</ele><time>2026-04-21T12:05:23.999Z</time></trkpt><trkpt lat="37.55695091838499" lon="-3.0226222651077315"><ele>642.0</ele><time>2026-04-21T12:05:24.999Z</time></trkpt><trkpt lat="37.55702858574407" lon="-3.0227100032253253"><ele>642.0</ele><time>2026-04-21T12:05:25.999Z</time></trkpt><trkpt lat="37.5570953526263" lon="-3.0227138733369667"><ele>642.0</ele><time>2026-04-21T12:05:26.999Z</time></trkpt><trkpt lat="37.55720054677679" lon="-3.0226410367867564"><ele>643.0</ele><time>2026-04-21T12:05:28.999Z</time></trkpt><trkpt lat="37.557250071391294" lon="-3.022549134126134"><ele>644.0</ele><time>2026-04-21T12:05:30.999Z</time></trkpt><trkpt lat="37.5571918188176" lon="-3.0224395838873273"><ele>645.0</ele><time>2026-04-21T12:05:32.999Z</time></trkpt><trkpt lat="37.557125153847416" lon="-3.022388742239446"><ele>646.0</ele><time>2026-04-21T12:05:33.999Z</time></trkpt><trkpt lat="37.55704170520731" lon="-3.022330198785362"><ele>647.0</ele><time>2026-04-21T12:05:34.999Z</time></trkpt><trkpt lat="37.55696459253512" lon="-3.0222553038692426"><ele>647.0</ele><time>2026-04-21T12:05:36.999Z</time></trkpt><trkpt lat="37.55699226309045" lon="-3.0221203997113952"><ele>647.0</ele><time>2026-04-21T12:05:38.999Z</time></trkpt><trkpt lat="37.55709098380897" lon="-3.022114615379723"><ele>647.0</ele><time>2026-04-21T12:05:39.999Z</time></trkpt><trkpt lat="37.55717803689539" lon="-3.022166343428476"><ele>647.0</ele><time>2026-04-21T12:05:40.999Z</time></trkpt><trkpt lat="37.557240007269584" lon="-3.022150434912375"><ele>647.0</ele><time>2026-04-21T12:05:41.999Z</time></trkpt><trkpt lat="37.55731582991705" lon="-3.022102266017767"><ele>647.0</ele><time>2026-04-21T12:05:43.999Z</time></trkpt><trkpt lat="37.55723337661433" lon="-3.021981798903395"><ele>647.0</ele><time>2026-04-21T12:05:46.999Z</time></trkpt><trkpt lat="37.55716757880034" lon="-3.021918509806996"><ele>647.0</ele><time>2026-04-21T12:05:47.999Z</time></trkpt><trkpt lat="37.557089467046936" lon="-3.021843582404405"><ele>647.0</ele><time>2026-04-21T12:05:48.999Z</time></trkpt><trkpt lat="37.55701156576338" lon="-3.021793083044195"><ele>647.0</ele><time>2026-04-21T12:05:49.999Z</time></trkpt><trkpt lat="37.55696290255657" lon="-3.021725454288982"><ele>647.0</ele><time>2026-04-21T12:05:50.999Z</time></trkpt><trkpt lat="37.55683758598565" lon="-3.0217230552310084"><ele>647.0</ele><time>2026-04-21T12:05:52.999Z</time></trkpt><trkpt lat="37.55676870165305" lon="-3.0217035064291653"><ele>647.0</ele><time>2026-04-21T12:05:53.999Z</time></trkpt><trkpt lat="37.55671514980907" lon="-3.0215993190954227"><ele>647.0</ele><time>2026-04-21T12:05:55.999Z</time></trkpt><trkpt lat="37.55679188463048" lon="-3.0215123410380538"><ele>647.0</ele><time>2026-04-21T12:05:57.999Z</time></trkpt><trkpt lat="37.55692429322901" lon="-3.0215789412753646"><ele>645.8</ele><time>2026-04-21T12:05:59.999Z</time></trkpt><trkpt lat="37.557016674474404" lon="-3.021627031281634"><ele>644.6</ele><time>2026-04-21T12:06:00.999Z</time></trkpt><trkpt lat="37.55712041418744" lon="-3.021671296713963"><ele>643.4</ele><time>2026-04-21T12:06:01.999Z</time></trkpt><trkpt lat="37.55720756083765" lon="-3.021705067945908"><ele>642.1999999999999</ele><time>2026-04-21T12:06:02.999Z</time></trkpt><trkpt lat="37.55727081925841" lon="-3.02172273048125"><ele>641.0</ele><time>2026-04-21T12:06:03.999Z</time></trkpt><trkpt lat="37.55734156910595" lon="-3.021661719807355"><ele>642.5999999999999</ele><time>2026-04-21T12:06:05.999Z</time></trkpt><trkpt lat="37.55738662337668" lon="-3.0215408761164775"><ele>644.2</ele><time>2026-04-21T12:06:07.999Z</time></trkpt><trkpt lat="37.55748384267693" lon="-3.0215081499769645"><ele>645.8</ele><time>2026-04-21T12:06:09.999Z</time></trkpt><trkpt lat="37.55754728412487" lon="-3.0215553775807917"><ele>647.4000000000001</ele><time>2026-04-21T12:06:10.999Z</time></trkpt><trkpt lat="37.55761287858456" lon="-3.0216351012462668"><ele>649.0</ele><time>2026-04-21T12:06:11.999Z</time></trkpt><trkpt lat="37.55769946580162" lon="-3.02171923655292"><ele>650.8000000000001</ele><time>2026-04-21T12:06:12.999Z</time></trkpt><trkpt lat="37.557794691826665" lon="-3.02179128753477"><ele>652.6</ele><time>2026-04-21T12:06:13.999Z</time></trkpt><trkpt lat="37.55786103115858" lon="-3.0218500827369077"><ele>654.4</ele><time>2026-04-21T12:06:14.999Z</time></trkpt><trkpt lat="37.55791907851817" lon="-3.0219280174107204"><ele>656.2</ele><time>2026-04-21T12:06:15.999Z</time></trkpt><trkpt lat="37.55797598940863" lon="-3.0220413888528737"><ele>658.0</ele><time>2026-04-21T12:06:16.999Z</time></trkpt><trkpt lat="37.558047825014505" lon="-3.0221433859290086"><ele>660.5999999999999</ele><time>2026-04-21T12:06:17.999Z</time></trkpt><trkpt lat="37.558146429777096" lon="-3.0222183093975903"><ele>663.1999999999999</ele><time>2026-04-21T12:06:18.999Z</time></trkpt><trkpt lat="37.55824337807056" lon="-3.0222774253189595"><ele>665.8</ele><time>2026-04-21T12:06:19.999Z</time></trkpt><trkpt lat="37.55831356544563" lon="-3.022318212216998"><ele>668.4</ele><time>2026-04-21T12:06:20.999Z</time></trkpt><trkpt lat="37.558370827100774" lon="-3.02240617096628"><ele>671.0</ele><time>2026-04-21T12:06:22.999Z</time></trkpt><trkpt lat="37.558377892974654" lon="-3.0225012092458043"><ele>671.0</ele><time>2026-04-21T12:06:25.999Z</time></trkpt><trkpt lat="37.55836764601934" lon="-3.022650316114957"><ele>671.0</ele><time>2026-04-21T12:06:27.999Z</time></trkpt><trkpt lat="37.55834659786967" lon="-3.0227518056184377"><ele>671.0</ele><time>2026-04-21T12:06:28.999Z</time></trkpt><trkpt lat="37.558327089072684" lon="-3.0228645625980595"><ele>671.0</ele><time>2026-04-21T12:06:29.999Z</time></trkpt><trkpt lat="37.55831218509882" lon="-3.022975260796984"><ele>671.0</ele><time>2026-04-21T12:06:30.999Z</time></trkpt><trkpt lat="37.558307983628346" lon="-3.0230732399300613"><ele>671.0</ele><time>2026-04-21T12:06:31.999Z</time></trkpt><trkpt lat="37.55826305090673" lon="-3.023163384547533"><ele>671.0</ele><time>2026-04-21T12:06:33.999Z</time></trkpt><trkpt lat="37.558238051106656" lon="-3.0232365032357134"><ele>671.0</ele><time>2026-04-21T12:06:38.999Z</time></trkpt><trkpt lat="37.55815255944259" lon="-3.0234139582827377"><ele>671.0</ele><time>2026-04-21T12:07:25.998Z</time></trkpt><trkpt lat="37.55808054737892" lon="-3.0235629669750943"><ele>669.5</ele><time>2026-04-21T12:07:27.998Z</time></trkpt><trkpt lat="37.55801765987921" lon="-3.02365656635856"><ele>668.0</ele><time>2026-04-21T12:07:28.998Z</time></trkpt><trkpt lat="37.55795287531133" lon="-3.0237656700828945"><ele>666.5</ele><time>2026-04-21T12:07:29.998Z</time></trkpt><trkpt lat="37.55792021324147" lon="-3.0239297794057234"><ele>665.0</ele><time>2026-04-21T12:07:30.998Z</time></trkpt><trkpt lat="37.55787530990808" lon="-3.0241127625983824"><ele>667.3333333333333</ele><time>2026-04-21T12:07:31.998Z</time></trkpt><trkpt lat="37.55783242923393" lon="-3.0243046427280635"><ele>669.6666666666666</ele><time>2026-04-21T12:07:32.998Z</time></trkpt><trkpt lat="37.557815292750476" lon="-3.0245132262409333"><ele>672.0</ele><time>2026-04-21T12:07:33.998Z</time></trkpt><trkpt lat="37.55782401237533" lon="-3.024754769928113"><ele>673.0</ele><time>2026-04-21T12:07:34.998Z</time></trkpt><trkpt lat="37.55781497118197" lon="-3.0250378651300815"><ele>674.0</ele><time>2026-04-21T12:07:35.998Z</time></trkpt><trkpt lat="37.55782556619246" lon="-3.025329896254854"><ele>674.0</ele><time>2026-04-21T12:07:36.998Z</time></trkpt><trkpt lat="37.5578384822651" lon="-3.025584659138797"><ele>674.0</ele><time>2026-04-21T12:07:37.998Z</time></trkpt><trkpt lat="37.55785571825794" lon="-3.0258213719230516"><ele>674.0</ele><time>2026-04-21T12:07:38.999Z</time></trkpt><trkpt lat="37.55786906396336" lon="-3.026031320096698"><ele>676.0</ele><time>2026-04-21T12:07:39.999Z</time></trkpt><trkpt lat="37.557867822615854" lon="-3.0262196188779735"><ele>678.0</ele><time>2026-04-21T12:07:40.999Z</time></trkpt><trkpt lat="37.55784185081411" lon="-3.0263980765191802"><ele>680.0</ele><time>2026-04-21T12:07:41.999Z</time></trkpt><trkpt lat="37.557787205380436" lon="-3.026594907220423"><ele>682.0</ele><time>2026-04-21T12:07:42.999Z</time></trkpt><trkpt lat="37.55772291668751" lon="-3.0268183127735147"><ele>684.0</ele><time>2026-04-21T12:07:43.999Z</time></trkpt><trkpt lat="37.55768372466431" lon="-3.027034739985257"><ele>686.0</ele><time>2026-04-21T12:07:44.999Z</time></trkpt><trkpt lat="37.5576224657311" lon="-3.027239247032512"><ele>686.0</ele><time>2026-04-21T12:07:45.999Z</time></trkpt><trkpt lat="37.55757452120056" lon="-3.0274509837388135"><ele>686.0</ele><time>2026-04-21T12:07:46.999Z</time></trkpt><trkpt lat="37.55753201680497" lon="-3.0276529262617156"><ele>686.0</ele><time>2026-04-21T12:07:47.999Z</time></trkpt><trkpt lat="37.55749646453084" lon="-3.0278324008073922"><ele>686.0</ele><time>2026-04-21T12:07:48.999Z</time></trkpt><trkpt lat="37.55746083611725" lon="-3.02799687755145"><ele>686.0</ele><time>2026-04-21T12:07:49.999Z</time></trkpt><trkpt lat="37.55743173023161" lon="-3.02817666754612"><ele>686.0</ele><time>2026-04-21T12:07:50.999Z</time></trkpt><trkpt lat="37.55743718160801" lon="-3.0283836653818437"><ele>686.0</ele><time>2026-04-21T12:07:51.999Z</time></trkpt><trkpt lat="37.55741372153646" lon="-3.028569562276922"><ele>686.0</ele><time>2026-04-21T12:07:52.999Z</time></trkpt><trkpt lat="37.557404080182216" lon="-3.0287249610582836"><ele>686.0</ele><time>2026-04-21T12:07:53.999Z</time></trkpt><trkpt lat="37.557391283911144" lon="-3.028863035663041"><ele>686.0</ele><time>2026-04-21T12:07:54.999Z</time></trkpt><trkpt lat="37.5573594154389" lon="-3.0290224995555857"><ele>686.0</ele><time>2026-04-21T12:07:55.999Z</time></trkpt><trkpt lat="37.55730555245796" lon="-3.0291702120397916"><ele>686.6666666666666</ele><time>2026-04-21T12:07:56.999Z</time></trkpt><trkpt lat="37.557221287377615" lon="-3.0293059209904065"><ele>687.3333333333334</ele><time>2026-04-21T12:07:57.999Z</time></trkpt><trkpt lat="37.55710045051155" lon="-3.0294667537460636"><ele>688.0</ele><time>2026-04-21T12:07:58.999Z</time></trkpt><trkpt lat="37.55697758192398" lon="-3.0296409394670074"><ele>689.3333333333334</ele><time>2026-04-21T12:07:59.999Z</time></trkpt><trkpt lat="37.55686409274805" lon="-3.0298215100796484"><ele>690.6666666666666</ele><time>2026-04-21T12:08:00.999Z</time></trkpt><trkpt lat="37.55676165566456" lon="-3.029985665493015"><ele>692.0</ele><time>2026-04-21T12:08:01.999Z</time></trkpt><trkpt lat="37.55667139427257" lon="-3.030134151186102"><ele>693.5</ele><time>2026-04-21T12:08:02.999Z</time></trkpt><trkpt lat="37.5565910903969" lon="-3.0302733530011032"><ele>695.0</ele><time>2026-04-21T12:08:03.999Z</time></trkpt><trkpt lat="37.55651312055611" lon="-3.0304047097449716"><ele>696.5</ele><time>2026-04-21T12:08:04.999Z</time></trkpt><trkpt lat="37.55643118383107" lon="-3.030543662690988"><ele>698.0</ele><time>2026-04-21T12:08:05.999Z</time></trkpt><trkpt lat="37.556369163916855" lon="-3.030648343046028"><ele>698.0</ele><time>2026-04-21T12:08:06.999Z</time></trkpt><trkpt lat="37.55632532192465" lon="-3.030744757804491"><ele>698.0</ele><time>2026-04-21T12:08:07.999Z</time></trkpt><trkpt lat="37.55628762263926" lon="-3.0308673888491677"><ele>698.0</ele><time>2026-04-21T12:08:08.999Z</time></trkpt><trkpt lat="37.5562589497815" lon="-3.031052445459757"><ele>698.0</ele><time>2026-04-21T12:08:09.999Z</time></trkpt><trkpt lat="37.55622731212657" lon="-3.0312466299942953"><ele>697.5</ele><time>2026-04-21T12:08:10.999Z</time></trkpt><trkpt lat="37.55618559183535" lon="-3.031418431643901"><ele>697.0</ele><time>2026-04-21T12:08:11.999Z</time></trkpt><trkpt lat="37.55614099318107" lon="-3.0315550340275714"><ele>696.5</ele><time>2026-04-21T12:08:12.999Z</time></trkpt><trkpt lat="37.55608553279387" lon="-3.031686347785631"><ele>696.0</ele><time>2026-04-21T12:08:13.999Z</time></trkpt><trkpt lat="37.556011431661084" lon="-3.031840289453931"><ele>696.0</ele><time>2026-04-21T12:08:14.999Z</time></trkpt><trkpt lat="37.555920731580294" lon="-3.0320255378797056"><ele>696.0</ele><time>2026-04-21T12:08:15.999Z</time></trkpt><trkpt lat="37.55582603379101" lon="-3.0322162133340984"><ele>696.0</ele><time>2026-04-21T12:08:16.999Z</time></trkpt><trkpt lat="37.555734743820224" lon="-3.032379782876208"><ele>697.0</ele><time>2026-04-21T12:08:17.999Z</time></trkpt><trkpt lat="37.55565568624068" lon="-3.032524457095613"><ele>698.0</ele><time>2026-04-21T12:08:18.999Z</time></trkpt><trkpt lat="37.555568968428815" lon="-3.032673480711886"><ele>699.0</ele><time>2026-04-21T12:08:19.999Z</time></trkpt><trkpt lat="37.55547680778318" lon="-3.0328087133986092"><ele>700.0</ele><time>2026-04-21T12:08:20.999Z</time></trkpt><trkpt lat="37.55539758962082" lon="-3.0329157536245925"><ele>700.6</ele><time>2026-04-21T12:08:21.999Z</time></trkpt><trkpt lat="37.55533170128923" lon="-3.032997234169499"><ele>701.2</ele><time>2026-04-21T12:08:22.999Z</time></trkpt><trkpt lat="37.55526628781627" lon="-3.033061852853801"><ele>701.8</ele><time>2026-04-21T12:08:23.999Z</time></trkpt><trkpt lat="37.555191439092084" lon="-3.0330994230643897"><ele>702.4</ele><time>2026-04-21T12:08:24.999Z</time></trkpt><trkpt lat="37.55508601606799" lon="-3.0331135909296316"><ele>703.0</ele><time>2026-04-21T12:08:25.999Z</time></trkpt><trkpt lat="37.554965157354154" lon="-3.0330991176524966"><ele>703.0</ele><time>2026-04-21T12:08:26.999Z</time></trkpt><trkpt lat="37.55485784461932" lon="-3.0330687508967564"><ele>703.0</ele><time>2026-04-21T12:08:27.999Z</time></trkpt><trkpt lat="37.55478955522392" lon="-3.033085094365946"><ele>703.0</ele><time>2026-04-21T12:08:28.999Z</time></trkpt><trkpt lat="37.55471382082328" lon="-3.0330931768804033"><ele>703.0</ele><time>2026-04-21T12:08:29.999Z</time></trkpt><trkpt lat="37.55465818341628" lon="-3.0331800224143763"><ele>703.0</ele><time>2026-04-21T12:08:30.999Z</time></trkpt><trkpt lat="37.554609494014414" lon="-3.033314000402548"><ele>704.6666666666667</ele><time>2026-04-21T12:08:31.999Z</time></trkpt><trkpt lat="37.55453590695864" lon="-3.03345888014537"><ele>706.3333333333334</ele><time>2026-04-21T12:08:32.999Z</time></trkpt><trkpt lat="37.554459579982364" lon="-3.033638802194118"><ele>708.0</ele><time>2026-04-21T12:08:33.999Z</time></trkpt><trkpt lat="37.55438139137785" lon="-3.0338221201029225"><ele>708.0</ele><time>2026-04-21T12:08:34.999Z</time></trkpt><trkpt lat="37.55431598558747" lon="-3.0339863779408325"><ele>708.0</ele><time>2026-04-21T12:08:35.999Z</time></trkpt><trkpt lat="37.554270080470765" lon="-3.034114661198445"><ele>708.0</ele><time>2026-04-21T12:08:36.999Z</time></trkpt><trkpt lat="37.55421396923671" lon="-3.034252928495543"><ele>708.0</ele><time>2026-04-21T12:08:37.999Z</time></trkpt><trkpt lat="37.55412354921478" lon="-3.0343969205996792"><ele>709.3333333333334</ele><time>2026-04-21T12:08:38.999Z</time></trkpt><trkpt lat="37.554026790066054" lon="-3.0345461094486046"><ele>710.6666666666667</ele><time>2026-04-21T12:08:39.999Z</time></trkpt><trkpt lat="37.5539451661117" lon="-3.0347127425232214"><ele>712.0</ele><time>2026-04-21T12:08:40.999Z</time></trkpt><trkpt lat="37.5538801551282" lon="-3.0348854221423895"><ele>712.75</ele><time>2026-04-21T12:08:41.999Z</time></trkpt><trkpt lat="37.55382212829075" lon="-3.0350273831915575"><ele>713.5</ele><time>2026-04-21T12:08:42.999Z</time></trkpt><trkpt lat="37.55376660621369" lon="-3.0351427132521884"><ele>714.25</ele><time>2026-04-21T12:08:43.999Z</time></trkpt><trkpt lat="37.55368130437634" lon="-3.0352466720988893"><ele>715.0</ele><time>2026-04-21T12:08:44.999Z</time></trkpt><trkpt lat="37.55357765783823" lon="-3.0353517759474538"><ele>713.5</ele><time>2026-04-21T12:08:45.999Z</time></trkpt><trkpt lat="37.55345627338098" lon="-3.035467971351699"><ele>712.0</ele><time>2026-04-21T12:08:46.999Z</time></trkpt><trkpt lat="37.55333395798923" lon="-3.035552338114606"><ele>710.5</ele><time>2026-04-21T12:08:47.999Z</time></trkpt><trkpt lat="37.553246092493794" lon="-3.0356917520197007"><ele>709.0</ele><time>2026-04-21T12:08:48.999Z</time></trkpt><trkpt lat="37.55316755346294" lon="-3.035843546211082"><ele>709.0</ele><time>2026-04-21T12:08:49.999Z</time></trkpt><trkpt lat="37.55307559068828" lon="-3.036010934406652"><ele>709.0</ele><time>2026-04-21T12:08:50.999Z</time></trkpt><trkpt lat="37.553009635155924" lon="-3.0361910000105943"><ele>709.0</ele><time>2026-04-21T12:08:51.999Z</time></trkpt><trkpt lat="37.5529569148846" lon="-3.036318768568111"><ele>709.0</ele><time>2026-04-21T12:08:52.999Z</time></trkpt><trkpt lat="37.552912171531496" lon="-3.036410604775143"><ele>709.2</ele><time>2026-04-21T12:08:53.999Z</time></trkpt><trkpt lat="37.55285415203919" lon="-3.0364843306852185"><ele>709.4000000000001</ele><time>2026-04-21T12:08:54.999Z</time></trkpt><trkpt lat="37.552781626070875" lon="-3.0365726565567077"><ele>709.6</ele><time>2026-04-21T12:08:55.999Z</time></trkpt><trkpt lat="37.552677793256706" lon="-3.0366428528593974"><ele>709.8</ele><time>2026-04-21T12:08:56.999Z</time></trkpt><trkpt lat="37.55254396489186" lon="-3.0366562242132424"><ele>710.0</ele><time>2026-04-21T12:08:57.999Z</time></trkpt><trkpt lat="37.552427647648685" lon="-3.036677713503812"><ele>710.0</ele><time>2026-04-21T12:08:58.999Z</time></trkpt><trkpt lat="37.55233432634875" lon="-3.03671940425461"><ele>710.0</ele><time>2026-04-21T12:08:59.999Z</time></trkpt><trkpt lat="37.552245994272944" lon="-3.0367676581203145"><ele>710.0</ele><time>2026-04-21T12:09:00.999Z</time></trkpt><trkpt lat="37.55215784957488" lon="-3.036857878233827"><ele>710.0</ele><time>2026-04-21T12:09:01.999Z</time></trkpt><trkpt lat="37.55205109732643" lon="-3.036980378527634"><ele>710.0</ele><time>2026-04-21T12:09:02.999Z</time></trkpt><trkpt lat="37.55192609120062" lon="-3.037112901744941"><ele>710.0</ele><time>2026-04-21T12:09:03.999Z</time></trkpt><trkpt lat="37.551835784856124" lon="-3.0372283719989754"><ele>710.0</ele><time>2026-04-21T12:09:04.999Z</time></trkpt><trkpt lat="37.55174625039205" lon="-3.037349834067249"><ele>710.0</ele><time>2026-04-21T12:09:05.999Z</time></trkpt><trkpt lat="37.55164514517106" lon="-3.0374844527746028"><ele>710.0</ele><time>2026-04-21T12:09:06.999Z</time></trkpt><trkpt lat="37.551547960178425" lon="-3.0376009127630446"><ele>710.0</ele><time>2026-04-21T12:09:07.999Z</time></trkpt><trkpt lat="37.55146414353501" lon="-3.037692933597854"><ele>710.0</ele><time>2026-04-21T12:09:08.999Z</time></trkpt><trkpt lat="37.55135257506531" lon="-3.0377742365244607"><ele>710.0</ele><time>2026-04-21T12:09:09.999Z</time></trkpt><trkpt lat="37.551221308825575" lon="-3.0378449360932556"><ele>710.75</ele><time>2026-04-21T12:09:10.999Z</time></trkpt><trkpt lat="37.551117113805134" lon="-3.037925380747495"><ele>711.5</ele><time>2026-04-21T12:09:11.999Z</time></trkpt><trkpt lat="37.55099438250177" lon="-3.0379927329908014"><ele>712.25</ele><time>2026-04-21T12:09:12.997Z</time></trkpt><trkpt lat="37.55087178656436" lon="-3.0380989176513626"><ele>713.0</ele><time>2026-04-21T12:09:13.997Z</time></trkpt><trkpt lat="37.550753741434086" lon="-3.0382078429923136"><ele>713.0</ele><time>2026-04-21T12:09:14.997Z</time></trkpt><trkpt lat="37.550659798081384" lon="-3.038293442553572"><ele>713.0</ele><time>2026-04-21T12:09:15.997Z</time></trkpt><trkpt lat="37.55058216490942" lon="-3.038368353044051"><ele>713.0</ele><time>2026-04-21T12:09:16.998Z</time></trkpt><trkpt lat="37.55051654220431" lon="-3.03843336652458"><ele>713.0</ele><time>2026-04-21T12:09:17.998Z</time></trkpt><trkpt lat="37.550452918351354" lon="-3.038493221367616"><ele>713.0</ele><time>2026-04-21T12:09:18.998Z</time></trkpt><trkpt lat="37.55038349948121" lon="-3.038541985390592"><ele>714.5</ele><time>2026-04-21T12:09:19.998Z</time></trkpt><trkpt lat="37.55031946867892" lon="-3.038578362330082"><ele>716.0</ele><time>2026-04-21T12:09:20.998Z</time></trkpt><trkpt lat="37.55025149257013" lon="-3.0386050451811943"><ele>717.5</ele><time>2026-04-21T12:09:21.998Z</time></trkpt><trkpt lat="37.55018935179418" lon="-3.038623701155437"><ele>719.0</ele><time>2026-04-21T12:09:22.998Z</time></trkpt><trkpt lat="37.550108184028446" lon="-3.038634815861712"><ele>720.5</ele><time>2026-04-21T12:09:24.998Z</time></trkpt><trkpt lat="37.549995675734955" lon="-3.038654512919531"><ele>722.0</ele><time>2026-04-21T12:11:38Z</time></trkpt><trkpt lat="37.54992935059172" lon="-3.038658546646464"><ele>722.0</ele><time>2026-04-21T12:11:39Z</time></trkpt><trkpt lat="37.549848835007175" lon="-3.0386666863806493"><ele>722.0</ele><time>2026-04-21T12:11:40Z</time></trkpt><trkpt lat="37.549768494796076" lon="-3.03866977406632"><ele>722.0</ele><time>2026-04-21T12:11:41Z</time></trkpt><trkpt lat="37.54966872762915" lon="-3.0386936332712176"><ele>722.0</ele><time>2026-04-21T12:11:42Z</time></trkpt><trkpt lat="37.54955170377576" lon="-3.0386845830189833"><ele>722.0</ele><time>2026-04-21T12:11:43Z</time></trkpt><trkpt lat="37.54943472708134" lon="-3.0386472554051758"><ele>724.0</ele><time>2026-04-21T12:11:44Z</time></trkpt><trkpt lat="37.54932727717122" lon="-3.038595005340963"><ele>726.0</ele><time>2026-04-21T12:11:45Z</time></trkpt><trkpt lat="37.54922042653955" lon="-3.03852861520658"><ele>728.0</ele><time>2026-04-21T12:11:46Z</time></trkpt><trkpt lat="37.549107827496385" lon="-3.0384471952480885"><ele>730.0</ele><time>2026-04-21T12:11:47Z</time></trkpt><trkpt lat="37.54899114057831" lon="-3.038348983752726"><ele>729.5</ele><time>2026-04-21T12:11:48Z</time></trkpt><trkpt lat="37.54889074869431" lon="-3.0382553794182328"><ele>729.0</ele><time>2026-04-21T12:11:49Z</time></trkpt><trkpt lat="37.548810734321734" lon="-3.0381512466284186"><ele>728.5</ele><time>2026-04-21T12:11:50Z</time></trkpt><trkpt lat="37.54875174328836" lon="-3.0380215384535547"><ele>728.0</ele><time>2026-04-21T12:11:51Z</time></trkpt><trkpt lat="37.54870884823648" lon="-3.037871932308862"><ele>727.8</ele><time>2026-04-21T12:11:52Z</time></trkpt><trkpt lat="37.54867086463745" lon="-3.037725965156062"><ele>727.5999999999999</ele><time>2026-04-21T12:11:53Z</time></trkpt><trkpt lat="37.54862851691747" lon="-3.0376096825463437"><ele>727.4000000000001</ele><time>2026-04-21T12:11:54Z</time></trkpt><trkpt lat="37.54858952497616" lon="-3.037518248568688"><ele>727.2</ele><time>2026-04-21T12:11:55Z</time></trkpt><trkpt lat="37.548552684504244" lon="-3.0374459974405954"><ele>727.0</ele><time>2026-04-21T12:11:56Z</time></trkpt><trkpt lat="37.54846514173356" lon="-3.0373775520570496"><ele>727.0</ele><time>2026-04-21T12:11:58.001Z</time></trkpt><trkpt lat="37.54841467340547" lon="-3.037429966180728"><ele>727.0</ele><time>2026-04-21T12:11:59.001Z</time></trkpt><trkpt lat="37.54833703606033" lon="-3.037498263070611"><ele>727.0</ele><time>2026-04-21T12:12:01.001Z</time></trkpt><trkpt lat="37.5483465609818" lon="-3.0377099138854033"><ele>727.0</ele><time>2026-04-21T12:12:02.001Z</time></trkpt><trkpt lat="37.54833776497812" lon="-3.0378555200194812"><ele>727.0</ele><time>2026-04-21T12:12:03.001Z</time></trkpt><trkpt lat="37.54833791594747" lon="-3.038021676572431"><ele>729.0</ele><time>2026-04-21T12:12:04.001Z</time></trkpt><trkpt lat="37.54833758114036" lon="-3.038186322216445"><ele>731.0</ele><time>2026-04-21T12:12:05.001Z</time></trkpt><trkpt lat="37.54831623344531" lon="-3.038348499501748"><ele>733.0</ele><time>2026-04-21T12:12:06.001Z</time></trkpt><trkpt lat="37.548273608144946" lon="-3.0384959933113103"><ele>735.0</ele><time>2026-04-21T12:12:07.001Z</time></trkpt><trkpt lat="37.54824843526336" lon="-3.038635550266797"><ele>735.4</ele><time>2026-04-21T12:12:08.001Z</time></trkpt><trkpt lat="37.54824467135" lon="-3.0387570828022934"><ele>735.8</ele><time>2026-04-21T12:12:09.001Z</time></trkpt><trkpt lat="37.54822370623679" lon="-3.038870640304299"><ele>736.2</ele><time>2026-04-21T12:12:10.001Z</time></trkpt><trkpt lat="37.548166059438614" lon="-3.0389784624635725"><ele>736.6</ele><time>2026-04-21T12:12:11.001Z</time></trkpt><trkpt lat="37.54807199661076" lon="-3.039058570582159"><ele>737.0</ele><time>2026-04-21T12:12:12.001Z</time></trkpt><trkpt lat="37.54795288416839" lon="-3.0391196593873144"><ele>739.0</ele><time>2026-04-21T12:12:13.001Z</time></trkpt><trkpt lat="37.54786163437938" lon="-3.039153665389457"><ele>741.0</ele><time>2026-04-21T12:12:14.001Z</time></trkpt><trkpt lat="37.5477906461649" lon="-3.0391960464339807"><ele>743.0</ele><time>2026-04-21T12:12:15.001Z</time></trkpt><trkpt lat="37.54774484763476" lon="-3.0392803814299696"><ele>745.0</ele><time>2026-04-21T12:12:16.001Z</time></trkpt><trkpt lat="37.54770372272847" lon="-3.0393955072156715"><ele>747.0</ele><time>2026-04-21T12:12:17.001Z</time></trkpt><trkpt lat="37.54766070867448" lon="-3.039514864790673"><ele>747.0</ele><time>2026-04-21T12:12:18.001Z</time></trkpt><trkpt lat="37.54761230340284" lon="-3.039626773740201"><ele>747.0</ele><time>2026-04-21T12:12:19.001Z</time></trkpt><trkpt lat="37.54758396609261" lon="-3.03974585256617"><ele>747.0</ele><time>2026-04-21T12:12:20.001Z</time></trkpt><trkpt lat="37.54756490958075" lon="-3.0398454135019635"><ele>747.0</ele><time>2026-04-21T12:12:21.001Z</time></trkpt><trkpt lat="37.547538874693274" lon="-3.0399349721175963"><ele>747.0</ele><time>2026-04-21T12:12:22.001Z</time></trkpt><trkpt lat="37.5475480743398" lon="-3.040083227488488"><ele>748.1666666666666</ele><time>2026-04-21T12:12:24.001Z</time></trkpt><trkpt lat="37.547586231805816" lon="-3.04015576808888"><ele>749.3333333333334</ele><time>2026-04-21T12:12:25.001Z</time></trkpt><trkpt lat="37.54758223738834" lon="-3.0402663512706396"><ele>750.5</ele><time>2026-04-21T12:12:27.001Z</time></trkpt><trkpt lat="37.547538134922476" lon="-3.040323131330774"><ele>751.6666666666667</ele><time>2026-04-21T12:12:28.001Z</time></trkpt><trkpt lat="37.54744246454176" lon="-3.040331650601945"><ele>752.8333333333334</ele><time>2026-04-21T12:12:29.001Z</time></trkpt><trkpt lat="37.547353086428835" lon="-3.0403701436482535"><ele>754.0</ele><time>2026-04-21T12:12:30.001Z</time></trkpt><trkpt lat="37.547259593753466" lon="-3.040398020887922"><ele>754.0</ele><time>2026-04-21T12:12:31.001Z</time></trkpt><trkpt lat="37.54717101723306" lon="-3.0403931948127716"><ele>754.0</ele><time>2026-04-21T12:12:32.001Z</time></trkpt><trkpt lat="37.54708710869939" lon="-3.0404026254812244"><ele>754.0</ele><time>2026-04-21T12:12:33.001Z</time></trkpt><trkpt lat="37.54701010618736" lon="-3.0404310837346378"><ele>754.0</ele><time>2026-04-21T12:12:34.001Z</time></trkpt><trkpt lat="37.546931308241554" lon="-3.0404710250520024"><ele>754.0</ele><time>2026-04-21T12:12:35.001Z</time></trkpt><trkpt lat="37.54685490302824" lon="-3.040483723473755"><ele>754.0</ele><time>2026-04-21T12:12:36.001Z</time></trkpt><trkpt lat="37.54679345816678" lon="-3.0405059483243897"><ele>754.0</ele><time>2026-04-21T12:12:37.001Z</time></trkpt><trkpt lat="37.54673974292371" lon="-3.040566114858022"><ele>754.0</ele><time>2026-04-21T12:12:38.001Z</time></trkpt><trkpt lat="37.54672110667143" lon="-3.0406433517741496"><ele>754.0</ele><time>2026-04-21T12:12:39.001Z</time></trkpt><trkpt lat="37.5467372435049" lon="-3.040742842464058"><ele>754.0</ele><time>2026-04-21T12:12:40.001Z</time></trkpt><trkpt lat="37.54677863460595" lon="-3.040842481743276"><ele>754.0</ele><time>2026-04-21T12:12:41.001Z</time></trkpt><trkpt lat="37.546829728702576" lon="-3.040941649718985"><ele>754.0</ele><time>2026-04-21T12:12:42.001Z</time></trkpt><trkpt lat="37.54685482431499" lon="-3.04102361104727"><ele>754.0</ele><time>2026-04-21T12:12:43.001Z</time></trkpt><trkpt lat="37.54684220496016" lon="-3.0411015619968067"><ele>754.0</ele><time>2026-04-21T12:12:44.001Z</time></trkpt><trkpt lat="37.54679748498698" lon="-3.0411705680847385"><ele>754.0</ele><time>2026-04-21T12:12:45.001Z</time></trkpt><trkpt lat="37.5467345653109" lon="-3.041234752753775"><ele>754.0</ele><time>2026-04-21T12:12:46.001Z</time></trkpt><trkpt lat="37.546663915364654" lon="-3.041269769827388"><ele>754.0</ele><time>2026-04-21T12:12:47.001Z</time></trkpt><trkpt lat="37.5465827194212" lon="-3.0412895404530578"><ele>754.0</ele><time>2026-04-21T12:12:48.001Z</time></trkpt><trkpt lat="37.54650588838903" lon="-3.041325404998042"><ele>754.0</ele><time>2026-04-21T12:12:49.001Z</time></trkpt><trkpt lat="37.54643124680208" lon="-3.0413365819627876"><ele>754.0</ele><time>2026-04-21T12:12:50.001Z</time></trkpt><trkpt lat="37.5463655725215" lon="-3.0414025245700276"><ele>754.0</ele><time>2026-04-21T12:12:51.001Z</time></trkpt><trkpt lat="37.54630594314018" lon="-3.041460993607436"><ele>754.0</ele><time>2026-04-21T12:12:52.001Z</time></trkpt><trkpt lat="37.54626419174511" lon="-3.041536582817867"><ele>754.0</ele><time>2026-04-21T12:12:53.001Z</time></trkpt><trkpt lat="37.54622630258646" lon="-3.041627516431714"><ele>754.0</ele><time>2026-04-21T12:12:54.001Z</time></trkpt><trkpt lat="37.5462039396612" lon="-3.041748328187231"><ele>753.0</ele><time>2026-04-21T12:12:55.001Z</time></trkpt><trkpt lat="37.546175642030086" lon="-3.041877401044821"><ele>752.0</ele><time>2026-04-21T12:12:56.001Z</time></trkpt><trkpt lat="37.546157000959035" lon="-3.0420164112359616"><ele>751.0</ele><time>2026-04-21T12:12:57.001Z</time></trkpt><trkpt lat="37.546141354725926" lon="-3.042149266220179"><ele>750.0</ele><time>2026-04-21T12:12:58.001Z</time></trkpt><trkpt lat="37.546107202276445" lon="-3.0422756087397453"><ele>749.0</ele><time>2026-04-21T12:12:59.001Z</time></trkpt><trkpt lat="37.546063692692435" lon="-3.0423900848082943"><ele>749.4000000000001</ele><time>2026-04-21T12:13:00.001Z</time></trkpt><trkpt lat="37.546007095905445" lon="-3.0425063629547715"><ele>749.8</ele><time>2026-04-21T12:13:01.001Z</time></trkpt><trkpt lat="37.54596710026698" lon="-3.042625347645778"><ele>750.2</ele><time>2026-04-21T12:13:02.001Z</time></trkpt><trkpt lat="37.54590242676293" lon="-3.0427185303834623"><ele>750.5999999999999</ele><time>2026-04-21T12:13:03.001Z</time></trkpt><trkpt lat="37.54585637138792" lon="-3.042801549016199"><ele>751.0</ele><time>2026-04-21T12:13:04.001Z</time></trkpt><trkpt lat="37.54581404396198" lon="-3.04286639798851"><ele>751.0</ele><time>2026-04-21T12:13:05.001Z</time></trkpt><trkpt lat="37.54577392818035" lon="-3.042934876146326"><ele>751.0</ele><time>2026-04-21T12:13:06.001Z</time></trkpt><trkpt lat="37.54575327084028" lon="-3.043022688541234"><ele>751.0</ele><time>2026-04-21T12:13:07.001Z</time></trkpt><trkpt lat="37.5457440995681" lon="-3.0431211348786684"><ele>751.0</ele><time>2026-04-21T12:13:08.001Z</time></trkpt><trkpt lat="37.54573657099706" lon="-3.0432358414745644"><ele>751.0</ele><time>2026-04-21T12:13:09.001Z</time></trkpt><trkpt lat="37.54573147254883" lon="-3.0433516658247237"><ele>751.0</ele><time>2026-04-21T12:13:10.001Z</time></trkpt><trkpt lat="37.54572723129103" lon="-3.043452852562914"><ele>751.3333333333334</ele><time>2026-04-21T12:13:11.001Z</time></trkpt><trkpt lat="37.54572965487079" lon="-3.0435411039345786"><ele>751.6666666666667</ele><time>2026-04-21T12:13:12.001Z</time></trkpt><trkpt lat="37.54576142498946" lon="-3.043619743605383"><ele>752.0</ele><time>2026-04-21T12:13:13.001Z</time></trkpt><trkpt lat="37.54579220434689" lon="-3.04368977388595"><ele>752.3333333333334</ele><time>2026-04-21T12:13:14.001Z</time></trkpt><trkpt lat="37.545785221532874" lon="-3.043826126670311"><ele>752.6666666666666</ele><time>2026-04-21T12:13:16.001Z</time></trkpt><trkpt lat="37.545739108017905" lon="-3.0439047475951946"><ele>753.0</ele><time>2026-04-21T12:13:17.001Z</time></trkpt><trkpt lat="37.545686829658166" lon="-3.043962208695735"><ele>753.0</ele><time>2026-04-21T12:13:18.001Z</time></trkpt><trkpt lat="37.54562360065084" lon="-3.0440681695637832"><ele>753.0</ele><time>2026-04-21T12:13:20.001Z</time></trkpt><trkpt lat="37.545599981473025" lon="-3.0441925411428197"><ele>753.0</ele><time>2026-04-21T12:13:22.001Z</time></trkpt><trkpt lat="37.54559042087372" lon="-3.0443017326868045"><ele>753.0</ele><time>2026-04-21T12:13:23.001Z</time></trkpt><trkpt lat="37.5455855826534" lon="-3.0444237955306894"><ele>753.0</ele><time>2026-04-21T12:13:24.001Z</time></trkpt><trkpt lat="37.545549612698366" lon="-3.044526496407148"><ele>752.4</ele><time>2026-04-21T12:13:25.001Z</time></trkpt><trkpt lat="37.545497586799456" lon="-3.0445902841977275"><ele>751.8</ele><time>2026-04-21T12:13:26.001Z</time></trkpt><trkpt lat="37.54542509656963" lon="-3.0446611981867147"><ele>751.2</ele><time>2026-04-21T12:13:27.001Z</time></trkpt><trkpt lat="37.54533865647585" lon="-3.0447327190492226"><ele>750.6</ele><time>2026-04-21T12:13:28.001Z</time></trkpt><trkpt lat="37.54525691651194" lon="-3.044787108705157"><ele>750.0</ele><time>2026-04-21T12:13:29.001Z</time></trkpt><trkpt lat="37.545182215082114" lon="-3.0448491310480987"><ele>749.4</ele><time>2026-04-21T12:13:30.001Z</time></trkpt><trkpt lat="37.54510777195309" lon="-3.0449076294932733"><ele>748.8</ele><time>2026-04-21T12:13:31.001Z</time></trkpt><trkpt lat="37.54502146955902" lon="-3.0449664466251876"><ele>748.2</ele><time>2026-04-21T12:13:32.001Z</time></trkpt><trkpt lat="37.544952745597904" lon="-3.0450242972446064"><ele>747.6</ele><time>2026-04-21T12:13:33.001Z</time></trkpt><trkpt lat="37.54487642960419" lon="-3.0451140865951434"><ele>747.0</ele><time>2026-04-21T12:13:34.001Z</time></trkpt><trkpt lat="37.54478315510593" lon="-3.0452026144674016"><ele>749.5</ele><time>2026-04-21T12:13:35.001Z</time></trkpt><trkpt lat="37.54468184971984" lon="-3.04529971290285"><ele>752.0</ele><time>2026-04-21T12:13:36.001Z</time></trkpt><trkpt lat="37.54459242604115" lon="-3.045397579029021"><ele>754.5</ele><time>2026-04-21T12:13:37.001Z</time></trkpt><trkpt lat="37.544510737077125" lon="-3.0454710355420045"><ele>757.0</ele><time>2026-04-21T12:13:38.001Z</time></trkpt><trkpt lat="37.54441944271552" lon="-3.0455355604727825"><ele>757.0</ele><time>2026-04-21T12:13:39.001Z</time></trkpt><trkpt lat="37.54435134541518" lon="-3.045601820188628"><ele>757.0</ele><time>2026-04-21T12:13:40.001Z</time></trkpt><trkpt lat="37.54427205097489" lon="-3.045635188101636"><ele>757.0</ele><time>2026-04-21T12:13:41.001Z</time></trkpt><trkpt lat="37.54416927583158" lon="-3.0456466283043664"><ele>757.0</ele><time>2026-04-21T12:13:42.001Z</time></trkpt><trkpt lat="37.5440822544427" lon="-3.045652439689363"><ele>757.0</ele><time>2026-04-21T12:13:43.001Z</time></trkpt><trkpt lat="37.54401690765522" lon="-3.045665770530154"><ele>757.0</ele><time>2026-04-21T12:13:44.001Z</time></trkpt><trkpt lat="37.543943989207605" lon="-3.0457603768043753"><ele>760.75</ele><time>2026-04-21T12:13:46.001Z</time></trkpt><trkpt lat="37.54395129286131" lon="-3.045865855415338"><ele>764.5</ele><time>2026-04-21T12:13:47.001Z</time></trkpt><trkpt lat="37.54396534693391" lon="-3.045989519364168"><ele>768.25</ele><time>2026-04-21T12:13:48.001Z</time></trkpt><trkpt lat="37.5439717357001" lon="-3.0461505906358535"><ele>772.0</ele><time>2026-04-21T12:13:49.001Z</time></trkpt><trkpt lat="37.54395555403296" lon="-3.0463334832377806"><ele>772.0</ele><time>2026-04-21T12:13:50.001Z</time></trkpt><trkpt lat="37.54392746624831" lon="-3.04650848644645"><ele>772.0</ele><time>2026-04-21T12:13:51.001Z</time></trkpt><trkpt lat="37.543901953157366" lon="-3.0466433030490614"><ele>772.0</ele><time>2026-04-21T12:13:52.001Z</time></trkpt><trkpt lat="37.54387246342819" lon="-3.046759699304993"><ele>772.0</ele><time>2026-04-21T12:13:53.001Z</time></trkpt><trkpt lat="37.543829853544594" lon="-3.046857677702475"><ele>772.0</ele><time>2026-04-21T12:13:54.001Z</time></trkpt><trkpt lat="37.54376213154412" lon="-3.0469609602363055"><ele>772.75</ele><time>2026-04-21T12:13:55.001Z</time></trkpt><trkpt lat="37.543671957231766" lon="-3.0470600735651976"><ele>773.5</ele><time>2026-04-21T12:13:56.001Z</time></trkpt><trkpt lat="37.543583258085306" lon="-3.0471730716135155"><ele>774.25</ele><time>2026-04-21T12:13:57.001Z</time></trkpt><trkpt lat="37.54349323692547" lon="-3.0472936497072713"><ele>775.0</ele><time>2026-04-21T12:13:58.001Z</time></trkpt><trkpt lat="37.54339385242035" lon="-3.04740906617892"><ele>777.5</ele><time>2026-04-21T12:13:59.001Z</time></trkpt><trkpt lat="37.54329686876201" lon="-3.047524573019003"><ele>780.0</ele><time>2026-04-21T12:14:00.001Z</time></trkpt><trkpt lat="37.54321030882228" lon="-3.047643233896334"><ele>782.5</ele><time>2026-04-21T12:14:01.001Z</time></trkpt><trkpt lat="37.543141505319475" lon="-3.0477712576592215"><ele>785.0</ele><time>2026-04-21T12:14:02.001Z</time></trkpt><trkpt lat="37.54310038873778" lon="-3.047909525977832"><ele>785.0</ele><time>2026-04-21T12:14:03.001Z</time></trkpt><trkpt lat="37.54304247718109" lon="-3.0479997234115923"><ele>785.0</ele><time>2026-04-21T12:14:04.001Z</time></trkpt><trkpt lat="37.542993575616926" lon="-3.0480966270793126"><ele>785.0</ele><time>2026-04-21T12:14:05.001Z</time></trkpt><trkpt lat="37.54292020356397" lon="-3.0481864834067873"><ele>785.0</ele><time>2026-04-21T12:14:06.001Z</time></trkpt><trkpt lat="37.54284075494323" lon="-3.0482436050731794"><ele>785.0</ele><time>2026-04-21T12:14:07.001Z</time></trkpt><trkpt lat="37.542742001512835" lon="-3.04828277333793"><ele>788.2</ele><time>2026-04-21T12:14:08.001Z</time></trkpt><trkpt lat="37.54262787896413" lon="-3.048322707215866"><ele>791.4</ele><time>2026-04-21T12:14:09.001Z</time></trkpt><trkpt lat="37.542513039807154" lon="-3.0483459149199508"><ele>794.5999999999999</ele><time>2026-04-21T12:14:10.001Z</time></trkpt><trkpt lat="37.54241311492439" lon="-3.0483553505450254"><ele>797.8</ele><time>2026-04-21T12:14:11.001Z</time></trkpt><trkpt lat="37.54233932990924" lon="-3.0483610153570635"><ele>801.0</ele><time>2026-04-21T12:14:13.001Z</time></trkpt><trkpt lat="37.54225045918445" lon="-3.048432103111104"><ele>801.0</ele><time>2026-04-21T12:14:15.001Z</time></trkpt><trkpt lat="37.542207859161074" lon="-3.048492623616729"><ele>801.0</ele><time>2026-04-21T12:14:16.001Z</time></trkpt><trkpt lat="37.542193594288136" lon="-3.04863817789629"><ele>801.0</ele><time>2026-04-21T12:14:18.001Z</time></trkpt><trkpt lat="37.54221800365184" lon="-3.0487390371356122"><ele>801.0</ele><time>2026-04-21T12:14:19.001Z</time></trkpt><trkpt lat="37.54225689301413" lon="-3.0488412060271832"><ele>801.0</ele><time>2026-04-21T12:14:20.001Z</time></trkpt><trkpt lat="37.54227913489646" lon="-3.048924547030729"><ele>801.0</ele><time>2026-04-21T12:14:21.001Z</time></trkpt><trkpt lat="37.54228933032025" lon="-3.049060462327372"><ele>801.0</ele><time>2026-04-21T12:14:23.001Z</time></trkpt><trkpt lat="37.54223641214404" lon="-3.049119291478699"><ele>801.0</ele><time>2026-04-21T12:16:26Z</time></trkpt><trkpt lat="37.54217073709068" lon="-3.0490800846882005"><ele>801.0</ele><time>2026-04-21T12:16:28Z</time></trkpt><trkpt lat="37.54212766326825" lon="-3.048925721237297"><ele>801.0</ele><time>2026-04-21T12:16:30Z</time></trkpt><trkpt lat="37.54211388296646" lon="-3.048828556907417"><ele>801.0</ele><time>2026-04-21T12:16:31Z</time></trkpt><trkpt lat="37.54210092464118" lon="-3.048723778906051"><ele>801.0</ele><time>2026-04-21T12:16:32Z</time></trkpt><trkpt lat="37.54206308318745" lon="-3.048639143988657"><ele>799.1666666666666</ele><time>2026-04-21T12:16:33Z</time></trkpt><trkpt lat="37.542030159008036" lon="-3.0485512897606784"><ele>797.3333333333333</ele><time>2026-04-21T12:16:34Z</time></trkpt><trkpt lat="37.542007966892655" lon="-3.0484532298103106"><ele>795.5</ele><time>2026-04-21T12:16:35Z</time></trkpt><trkpt lat="37.54201206905214" lon="-3.0483607733792693"><ele>793.6666666666666</ele><time>2026-04-21T12:16:36Z</time></trkpt><trkpt lat="37.54208878963545" lon="-3.048283886096185"><ele>791.8333333333333</ele><time>2026-04-21T12:16:37Z</time></trkpt><trkpt lat="37.54211859848718" lon="-3.0482086134849884"><ele>790.0</ele><time>2026-04-21T12:16:38Z</time></trkpt><trkpt lat="37.54208397678847" lon="-3.048109351881545"><ele>792.8333333333333</ele><time>2026-04-21T12:16:40Z</time></trkpt><trkpt lat="37.541961147991145" lon="-3.0480454520240254"><ele>795.6666666666666</ele><time>2026-04-21T12:16:42Z</time></trkpt><trkpt lat="37.5418955676976" lon="-3.0480135140001954"><ele>798.5</ele><time>2026-04-21T12:16:43Z</time></trkpt><trkpt lat="37.54183558542965" lon="-3.047986452289531"><ele>801.3333333333333</ele><time>2026-04-21T12:16:44Z</time></trkpt><trkpt lat="37.541774016911106" lon="-3.047965365836951"><ele>804.1666666666666</ele><time>2026-04-21T12:16:45Z</time></trkpt><trkpt lat="37.54169084117524" lon="-3.047915195127456"><ele>807.0</ele><time>2026-04-21T12:16:46Z</time></trkpt><trkpt lat="37.541579233001265" lon="-3.0479199505613908"><ele>807.0</ele><time>2026-04-21T12:16:47Z</time></trkpt><trkpt lat="37.5414698559493" lon="-3.047929659000476"><ele>807.0</ele><time>2026-04-21T12:16:48Z</time></trkpt><trkpt lat="37.54136042696032" lon="-3.0479589162410803"><ele>807.0</ele><time>2026-04-21T12:16:49Z</time></trkpt><trkpt lat="37.54125456927857" lon="-3.0479897752540794"><ele>807.0</ele><time>2026-04-21T12:16:50Z</time></trkpt><trkpt lat="37.54116879167213" lon="-3.0480435760019438"><ele>807.0</ele><time>2026-04-21T12:16:51Z</time></trkpt><trkpt lat="37.541083239185426" lon="-3.048130521894823"><ele>812.75</ele><time>2026-04-21T12:16:52Z</time></trkpt><trkpt lat="37.54101467977103" lon="-3.0482644660793743"><ele>818.5</ele><time>2026-04-21T12:16:53Z</time></trkpt><trkpt lat="37.54090839939286" lon="-3.04837671078028"><ele>824.25</ele><time>2026-04-21T12:16:54Z</time></trkpt><trkpt lat="37.54082702196957" lon="-3.0484914587362404"><ele>830.0</ele><time>2026-04-21T12:16:55Z</time></trkpt><trkpt lat="37.54076306181974" lon="-3.0485769768400535"><ele>830.8</ele><time>2026-04-21T12:16:56Z</time></trkpt><trkpt lat="37.540706895734225" lon="-3.0486429746725348"><ele>831.6</ele><time>2026-04-21T12:16:57Z</time></trkpt><trkpt lat="37.540653938969754" lon="-3.0486933237717047"><ele>832.4000000000001</ele><time>2026-04-21T12:16:58Z</time></trkpt><trkpt lat="37.540550071767704" lon="-3.0487665645274595"><ele>833.2</ele><time>2026-04-21T12:17:00Z</time></trkpt><trkpt lat="37.540471206153036" lon="-3.0488010570794"><ele>834.0</ele><time>2026-04-21T12:17:01Z</time></trkpt><trkpt lat="37.5403757822636" lon="-3.0488666079299707"><ele>836.0</ele><time>2026-04-21T12:17:02Z</time></trkpt><trkpt lat="37.54024373046598" lon="-3.0489275873672987"><ele>838.0</ele><time>2026-04-21T12:17:03Z</time></trkpt><trkpt lat="37.54009303668913" lon="-3.048976202460302"><ele>840.0</ele><time>2026-04-21T12:17:04Z</time></trkpt><trkpt lat="37.53996159019495" lon="-3.0490387041120135"><ele>842.0</ele><time>2026-04-21T12:17:05Z</time></trkpt><trkpt lat="37.53982530753141" lon="-3.049085626730301"><ele>842.0</ele><time>2026-04-21T12:17:06Z</time></trkpt><trkpt lat="37.53968251525181" lon="-3.0491334469726707"><ele>842.0</ele><time>2026-04-21T12:17:07Z</time></trkpt><trkpt lat="37.53954825353648" lon="-3.0491785117274963"><ele>842.0</ele><time>2026-04-21T12:17:08Z</time></trkpt><trkpt lat="37.53943652380244" lon="-3.0492310086311654"><ele>842.0</ele><time>2026-04-21T12:17:09Z</time></trkpt><trkpt lat="37.539327917701165" lon="-3.0493074001434306"><ele>842.0</ele><time>2026-04-21T12:17:10Z</time></trkpt><trkpt lat="37.53922501049044" lon="-3.04939644174048"><ele>842.0</ele><time>2026-04-21T12:17:11Z</time></trkpt><trkpt lat="37.539154592642625" lon="-3.0494792938944095"><ele>842.0</ele><time>2026-04-21T12:17:12Z</time></trkpt><trkpt lat="37.539102995129205" lon="-3.0495485856507103"><ele>842.0</ele><time>2026-04-21T12:17:13Z</time></trkpt><trkpt lat="37.53905410185573" lon="-3.0496709463670584"><ele>842.0</ele><time>2026-04-21T12:17:14Z</time></trkpt><trkpt lat="37.53901895910121" lon="-3.049818781882049"><ele>842.0000000000001</ele><time>2026-04-21T12:17:15Z</time></trkpt><trkpt lat="37.53898970413629" lon="-3.0499406294010436"><ele>842.0</ele><time>2026-04-21T12:17:16Z</time></trkpt><trkpt lat="37.53896041496644" lon="-3.050020487469596"><ele>842.0</ele><time>2026-04-21T12:17:17Z</time></trkpt><trkpt lat="37.53891872539666" lon="-3.0500887826144694"><ele>842.0</ele><time>2026-04-21T12:17:18Z</time></trkpt><trkpt lat="37.53885693921713" lon="-3.0501212420916892"><ele>842.0000000000001</ele><time>2026-04-21T12:17:19Z</time></trkpt><trkpt lat="37.538780458554754" lon="-3.0501151106142967"><ele>842.0</ele><time>2026-04-21T12:17:20Z</time></trkpt><trkpt lat="37.5387169016966" lon="-3.050060516704671"><ele>841.8333333333334</ele><time>2026-04-21T12:17:21Z</time></trkpt><trkpt lat="37.538669625151876" lon="-3.04998224268903"><ele>841.6666666666667</ele><time>2026-04-21T12:17:22Z</time></trkpt><trkpt lat="37.5386817896627" lon="-3.0498433480195843"><ele>841.5</ele><time>2026-04-21T12:17:23Z</time></trkpt><trkpt lat="37.53867768079779" lon="-3.049728853167599"><ele>841.3333333333333</ele><time>2026-04-21T12:17:24Z</time></trkpt><trkpt lat="37.53867072420935" lon="-3.0496289437972406"><ele>841.1666666666666</ele><time>2026-04-21T12:17:25Z</time></trkpt><trkpt lat="37.53865992601779" lon="-3.049540618866241"><ele>841.0</ele><time>2026-04-21T12:17:26Z</time></trkpt><trkpt lat="37.53862465077611" lon="-3.0494399910398435"><ele>841.0</ele><time>2026-04-21T12:17:28Z</time></trkpt><trkpt lat="37.538548306869714" lon="-3.0494303339995783"><ele>841.0</ele><time>2026-04-21T12:17:31.001Z</time></trkpt><trkpt lat="37.53861228287624" lon="-3.049446607649639"><ele>841.0</ele><time>2026-04-21T12:17:52.999Z</time></trkpt><trkpt lat="37.5385499175618" lon="-3.0494199843397385"><ele>841.0</ele><time>2026-04-21T12:19:47.998Z</time></trkpt><trkpt lat="37.538610431944754" lon="-3.0493882696307035"><ele>841.0</ele><time>2026-04-21T12:23:37.001Z</time></trkpt><trkpt lat="37.53867273470591" lon="-3.049423584231543"><ele>841.0</ele><time>2026-04-21T12:25:27.001Z</time></trkpt><trkpt lat="37.53861062067651" lon="-3.049402363329325"><ele>841.0</ele><time>2026-04-21T12:27:42.003Z</time></trkpt><trkpt lat="37.53853391905198" lon="-3.049398843381054"><ele>840.9999999999999</ele><time>2026-04-21T12:28:35.999Z</time></trkpt><trkpt lat="37.53847309684104" lon="-3.0494876375183004"><ele>841.0</ele><time>2026-04-21T12:28:37.999Z</time></trkpt><trkpt lat="37.538431717518584" lon="-3.049550422543622"><ele>841.0</ele><time>2026-04-21T12:28:38.999Z</time></trkpt><trkpt lat="37.53838494595237" lon="-3.04962875732667"><ele>841.0</ele><time>2026-04-21T12:28:39.999Z</time></trkpt><trkpt lat="37.538337928902294" lon="-3.0497117830757188"><ele>840.9999999999999</ele><time>2026-04-21T12:28:40.999Z</time></trkpt><trkpt lat="37.53828661864142" lon="-3.0497904670267024"><ele>841.0</ele><time>2026-04-21T12:28:41.999Z</time></trkpt><trkpt lat="37.53822233979336" lon="-3.049860087351151"><ele>840.9999999999999</ele><time>2026-04-21T12:28:42.999Z</time></trkpt><trkpt lat="37.53815277611767" lon="-3.0499125465336308"><ele>841.0</ele><time>2026-04-21T12:28:43.999Z</time></trkpt><trkpt lat="37.53808461123333" lon="-3.049982267986963"><ele>841.0</ele><time>2026-04-21T12:28:45Z</time></trkpt><trkpt lat="37.538013602004355" lon="-3.050035029781845"><ele>841.0</ele><time>2026-04-21T12:28:46Z</time></trkpt><trkpt lat="37.537940691249744" lon="-3.050064778991796"><ele>840.9999999999999</ele><time>2026-04-21T12:28:47Z</time></trkpt><trkpt lat="37.53788096635454" lon="-3.0501029643994495"><ele>841.0</ele><time>2026-04-21T12:28:48Z</time></trkpt><trkpt lat="37.53776562039146" lon="-3.0501496138896864"><ele>842.4999999999999</ele><time>2026-04-21T12:28:50Z</time></trkpt><trkpt lat="37.53768206604229" lon="-3.050170965840107"><ele>844.0</ele><time>2026-04-21T12:28:52Z</time></trkpt><trkpt lat="37.53760405070958" lon="-3.0501841934891663"><ele>845.5</ele><time>2026-04-21T12:28:55Z</time></trkpt><trkpt lat="37.537542076232185" lon="-3.0502585864666414"><ele>847.0</ele><time>2026-04-21T12:28:57Z</time></trkpt><trkpt lat="37.537491637829696" lon="-3.050321307111695"><ele>848.4999999999999</ele><time>2026-04-21T12:28:58Z</time></trkpt><trkpt lat="37.53743529513859" lon="-3.050387081597078"><ele>850.0</ele><time>2026-04-21T12:28:59Z</time></trkpt><trkpt lat="37.53736274190298" lon="-3.0504561854334415"><ele>850.0</ele><time>2026-04-21T12:29:00Z</time></trkpt><trkpt lat="37.53728596464136" lon="-3.0505088298243064"><ele>850.0</ele><time>2026-04-21T12:29:01Z</time></trkpt><trkpt lat="37.537181508034436" lon="-3.05054125303536"><ele>850.0</ele><time>2026-04-21T12:29:02Z</time></trkpt><trkpt lat="37.53707324800945" lon="-3.0505990750845333"><ele>850.0</ele><time>2026-04-21T12:29:03Z</time></trkpt><trkpt lat="37.53696406512625" lon="-3.050643919631774"><ele>850.0</ele><time>2026-04-21T12:29:04Z</time></trkpt><trkpt lat="37.53685362733746" lon="-3.050689538002409"><ele>849.8</ele><time>2026-04-21T12:29:05Z</time></trkpt><trkpt lat="37.53674680848315" lon="-3.0507350035200256"><ele>849.6</ele><time>2026-04-21T12:29:06Z</time></trkpt><trkpt lat="37.53664560743894" lon="-3.050779267844977"><ele>849.4000000000001</ele><time>2026-04-21T12:29:07Z</time></trkpt><trkpt lat="37.536556630641535" lon="-3.050820005238836"><ele>849.2</ele><time>2026-04-21T12:29:08Z</time></trkpt><trkpt lat="37.53647050216102" lon="-3.0508598741611803"><ele>849.0</ele><time>2026-04-21T12:29:09Z</time></trkpt><trkpt lat="37.53640059954987" lon="-3.0508957590534895"><ele>849.5714285714287</ele><time>2026-04-21T12:29:10Z</time></trkpt><trkpt lat="37.53632454920964" lon="-3.0509352118310327"><ele>850.1428571428571</ele><time>2026-04-21T12:29:12.001Z</time></trkpt><trkpt lat="37.536263851914" lon="-3.0509679615382135"><ele>850.7142857142858</ele><time>2026-04-21T12:29:15.001Z</time></trkpt><trkpt lat="37.536204000706114" lon="-3.051000428991084"><ele>851.2857142857143</ele><time>2026-04-21T12:29:24.001Z</time></trkpt><trkpt lat="37.536181982889644" lon="-3.0510780691001966"><ele>851.8571428571429</ele><time>2026-04-21T12:29:25.001Z</time></trkpt><trkpt lat="37.53614350931725" lon="-3.051162849004734"><ele>852.4285714285714</ele><time>2026-04-21T12:29:26.001Z</time></trkpt><trkpt lat="37.53609530489688" lon="-3.0512589589537806"><ele>853.0</ele><time>2026-04-21T12:29:27.001Z</time></trkpt><trkpt lat="37.53604556491161" lon="-3.051344792958552"><ele>852.9999999999999</ele><time>2026-04-21T12:29:28.001Z</time></trkpt><trkpt lat="37.536029627312075" lon="-3.0514521831114556"><ele>853.0</ele><time>2026-04-21T12:29:29.001Z</time></trkpt><trkpt lat="37.5360308003906" lon="-3.0515647845822857"><ele>853.0</ele><time>2026-04-21T12:29:30.001Z</time></trkpt><trkpt lat="37.53603595665348" lon="-3.0516725486881597"><ele>853.0</ele><time>2026-04-21T12:29:31.001Z</time></trkpt><trkpt lat="37.5360143675056" lon="-3.051776363491066"><ele>852.9999999999999</ele><time>2026-04-21T12:29:32.001Z</time></trkpt><trkpt lat="37.53597380984903" lon="-3.0518777921839484"><ele>853.0</ele><time>2026-04-21T12:29:33.001Z</time></trkpt><trkpt lat="37.535933184719646" lon="-3.0519865320412642"><ele>854.4</ele><time>2026-04-21T12:29:34.001Z</time></trkpt><trkpt lat="37.535895452602325" lon="-3.0520829319724916"><ele>855.8</ele><time>2026-04-21T12:29:35.001Z</time></trkpt><trkpt lat="37.535846334850504" lon="-3.0521607760742815"><ele>857.2</ele><time>2026-04-21T12:29:36.001Z</time></trkpt><trkpt lat="37.535797196884474" lon="-3.0522511868427777"><ele>858.6</ele><time>2026-04-21T12:29:37.001Z</time></trkpt><trkpt lat="37.53571965432684" lon="-3.052338938203017"><ele>860.0</ele><time>2026-04-21T12:29:38.001Z</time></trkpt><trkpt lat="37.535623792638695" lon="-3.0524221229768576"><ele>860.8</ele><time>2026-04-21T12:29:39.001Z</time></trkpt><trkpt lat="37.53553511049235" lon="-3.05250999641406"><ele>861.6</ele><time>2026-04-21T12:29:40.001Z</time></trkpt><trkpt lat="37.53545919209289" lon="-3.0526016314768203"><ele>862.4000000000001</ele><time>2026-04-21T12:29:41.001Z</time></trkpt><trkpt lat="37.535379747396455" lon="-3.052674412631665"><ele>863.2</ele><time>2026-04-21T12:29:42.002Z</time></trkpt><trkpt lat="37.535312388177346" lon="-3.0527637208351948"><ele>864.0</ele><time>2026-04-21T12:29:43.002Z</time></trkpt><trkpt lat="37.53525556895854" lon="-3.052856790135217"><ele>864.0</ele><time>2026-04-21T12:29:44.002Z</time></trkpt><trkpt lat="37.53520267704495" lon="-3.0529504369112135"><ele>864.0</ele><time>2026-04-21T12:29:45.002Z</time></trkpt><trkpt lat="37.535115544411134" lon="-3.0530035917422187"><ele>864.0</ele><time>2026-04-21T12:29:46.002Z</time></trkpt><trkpt lat="37.53504300240765" lon="-3.0530367351658225"><ele>864.0</ele><time>2026-04-21T12:29:47.002Z</time></trkpt><trkpt lat="37.53495965833688" lon="-3.053045128836616"><ele>864.0</ele><time>2026-04-21T12:29:48.002Z</time></trkpt><trkpt lat="37.53487664093512" lon="-3.0530162132726244"><ele>864.0</ele><time>2026-04-21T12:29:49.002Z</time></trkpt><trkpt lat="37.53480970544427" lon="-3.052981674425061"><ele>864.0</ele><time>2026-04-21T12:29:50.002Z</time></trkpt><trkpt lat="37.534726383035625" lon="-3.052949687340226"><ele>864.0000000000001</ele><time>2026-04-21T12:29:51.002Z</time></trkpt><trkpt lat="37.534640466592776" lon="-3.0529319510279738"><ele>864.0000000000001</ele><time>2026-04-21T12:29:52.002Z</time></trkpt><trkpt lat="37.534541052213086" lon="-3.0529194328103606"><ele>864.0</ele><time>2026-04-21T12:29:53.002Z</time></trkpt><trkpt lat="37.534448003479625" lon="-3.0528945450153935"><ele>864.0</ele><time>2026-04-21T12:29:54.002Z</time></trkpt><trkpt lat="37.53436494225965" lon="-3.052850840276179"><ele>863.0</ele><time>2026-04-21T12:29:55.002Z</time></trkpt><trkpt lat="37.5342840239126" lon="-3.0528193599286215"><ele>862.0</ele><time>2026-04-21T12:29:56.002Z</time></trkpt><trkpt lat="37.534211242169924" lon="-3.0527910450603146"><ele>861.0</ele><time>2026-04-21T12:29:57.002Z</time></trkpt><trkpt lat="37.53413901116964" lon="-3.0527640489022487"><ele>860.0</ele><time>2026-04-21T12:29:58.002Z</time></trkpt><trkpt lat="37.53407071171396" lon="-3.052738862542223"><ele>859.0</ele><time>2026-04-21T12:29:59.002Z</time></trkpt><trkpt lat="37.53400934347305" lon="-3.0527149170018757"><ele>858.0</ele><time>2026-04-21T12:30:00.002Z</time></trkpt><trkpt lat="37.53394553679011" lon="-3.0526895549023627"><ele>857.0</ele><time>2026-04-21T12:30:02.002Z</time></trkpt><trkpt lat="37.53384641420688" lon="-3.0526472162256852"><ele>857.0000000000001</ele><time>2026-04-21T12:30:41.001Z</time></trkpt><trkpt lat="37.533754254303204" lon="-3.052605394493992"><ele>857.0</ele><time>2026-04-21T12:30:43.001Z</time></trkpt><trkpt lat="37.53366464506382" lon="-3.052566129718641"><ele>857.0</ele><time>2026-04-21T12:30:45.001Z</time></trkpt><trkpt lat="37.533584272239054" lon="-3.0525378598372996"><ele>857.0</ele><time>2026-04-21T12:30:47.001Z</time></trkpt><trkpt lat="37.5335215630203" lon="-3.0525490800339723"><ele>857.0000000000001</ele><time>2026-04-21T12:30:49.001Z</time></trkpt><trkpt lat="37.53343794938604" lon="-3.0525740715980216"><ele>857.0</ele><time>2026-04-21T12:30:51.001Z</time></trkpt><trkpt lat="37.533360044781354" lon="-3.052592069631915"><ele>855.8333333333334</ele><time>2026-04-21T12:30:53.001Z</time></trkpt><trkpt lat="37.53329753778586" lon="-3.052603026353311"><ele>854.6666666666667</ele><time>2026-04-21T12:30:55.001Z</time></trkpt><trkpt lat="37.533233652826745" lon="-3.052639515575105"><ele>853.5</ele><time>2026-04-21T12:30:57.001Z</time></trkpt><trkpt lat="37.533163113263925" lon="-3.0526568834364496"><ele>852.3333333333333</ele><time>2026-04-21T12:30:59.001Z</time></trkpt><trkpt lat="37.53308730644013" lon="-3.052692013634724"><ele>851.1666666666666</ele><time>2026-04-21T12:31:01.001Z</time></trkpt><trkpt lat="37.53299375455635" lon="-3.0527304159928876"><ele>850.0</ele><time>2026-04-21T12:31:03.001Z</time></trkpt><trkpt lat="37.53290778724919" lon="-3.0528204109914685"><ele>847.6</ele><time>2026-04-21T12:31:05.001Z</time></trkpt><trkpt lat="37.532814232194525" lon="-3.0528854682734434"><ele>845.2</ele><time>2026-04-21T12:31:07.001Z</time></trkpt><trkpt lat="37.53272183193825" lon="-3.052970702231414"><ele>842.8</ele><time>2026-04-21T12:31:09.001Z</time></trkpt><trkpt lat="37.53263697043749" lon="-3.0530507799154063"><ele>840.4</ele><time>2026-04-21T12:31:11.001Z</time></trkpt><trkpt lat="37.53255405120423" lon="-3.0531350750403274"><ele>838.0</ele><time>2026-04-21T12:31:13.001Z</time></trkpt><trkpt lat="37.53248162567223" lon="-3.0532217240510384"><ele>839.2</ele><time>2026-04-21T12:31:15.001Z</time></trkpt><trkpt lat="37.53240980160781" lon="-3.053328219940651"><ele>840.4</ele><time>2026-04-21T12:31:17.001Z</time></trkpt><trkpt lat="37.53233787898707" lon="-3.0534520620951366"><ele>841.6</ele><time>2026-04-21T12:31:19.001Z</time></trkpt><trkpt lat="37.532283480599325" lon="-3.053558210293476"><ele>842.8000000000001</ele><time>2026-04-21T12:31:21.001Z</time></trkpt><trkpt lat="37.5322507312676" lon="-3.053692131236941"><ele>844.0</ele><time>2026-04-21T12:31:23.001Z</time></trkpt><trkpt lat="37.53223990866881" lon="-3.0537706107552505"><ele>844.0</ele><time>2026-04-21T12:31:24.001Z</time></trkpt><trkpt lat="37.53220773178667" lon="-3.0539188854459116"><ele>844.0</ele><time>2026-04-21T12:31:26.001Z</time></trkpt><trkpt lat="37.53218831202285" lon="-3.0539953152809143"><ele>844.0</ele><time>2026-04-21T12:31:27.001Z</time></trkpt><trkpt lat="37.53215070610221" lon="-3.0541412467259756"><ele>844.0</ele><time>2026-04-21T12:31:29.002Z</time></trkpt><trkpt lat="37.53209753899323" lon="-3.0542691255459986"><ele>844.0</ele><time>2026-04-21T12:31:31.002Z</time></trkpt><trkpt lat="37.53204499411768" lon="-3.054379055449988"><ele>843.6666666666666</ele><time>2026-04-21T12:31:33.002Z</time></trkpt><trkpt lat="37.53197341834897" lon="-3.0544781842897177"><ele>843.3333333333333</ele><time>2026-04-21T12:31:35.002Z</time></trkpt><trkpt lat="37.53191220229639" lon="-3.054573000770016"><ele>843.0</ele><time>2026-04-21T12:31:37.002Z</time></trkpt><trkpt lat="37.53188598557025" lon="-3.0546544836477003"><ele>842.6666666666667</ele><time>2026-04-21T12:31:39.002Z</time></trkpt><trkpt lat="37.531848031457976" lon="-3.054725510142795"><ele>842.3333333333334</ele><time>2026-04-21T12:31:52.002Z</time></trkpt><trkpt lat="37.53181694899271" lon="-3.0548048091077247"><ele>842.0</ele><time>2026-04-21T12:31:53.002Z</time></trkpt><trkpt lat="37.53177918843133" lon="-3.054895621561918"><ele>843.0</ele><time>2026-04-21T12:31:54.002Z</time></trkpt><trkpt lat="37.531728225355515" lon="-3.054987835941226"><ele>844.0</ele><time>2026-04-21T12:31:55.002Z</time></trkpt><trkpt lat="37.53166984499074" lon="-3.055056408267843"><ele>845.0</ele><time>2026-04-21T12:31:56.002Z</time></trkpt><trkpt lat="37.531594578190344" lon="-3.0551185599079353"><ele>846.0</ele><time>2026-04-21T12:31:57.002Z</time></trkpt><trkpt lat="37.53150440521458" lon="-3.055183257384666"><ele>847.0</ele><time>2026-04-21T12:31:58.002Z</time></trkpt><trkpt lat="37.531404561832865" lon="-3.055208468356788"><ele>847.0</ele><time>2026-04-21T12:31:59.002Z</time></trkpt><trkpt lat="37.5313225716623" lon="-3.055238804570071"><ele>847.0</ele><time>2026-04-21T12:32:00.002Z</time></trkpt><trkpt lat="37.53121698186323" lon="-3.055277060677111"><ele>847.0</ele><time>2026-04-21T12:32:01.002Z</time></trkpt><trkpt lat="37.53109566970982" lon="-3.055274414979786"><ele>847.0</ele><time>2026-04-21T12:32:02.002Z</time></trkpt><trkpt lat="37.53098053984884" lon="-3.055263208135251"><ele>847.0</ele><time>2026-04-21T12:32:03.002Z</time></trkpt><trkpt lat="37.53089079424538" lon="-3.0552549132501774"><ele>847.4999999999999</ele><time>2026-04-21T12:32:04.002Z</time></trkpt><trkpt lat="37.530827978382796" lon="-3.0552742367026853"><ele>848.0</ele><time>2026-04-21T12:32:05.002Z</time></trkpt><trkpt lat="37.53075864175778" lon="-3.0553031697421913"><ele>848.5</ele><time>2026-04-21T12:32:06.002Z</time></trkpt><trkpt lat="37.53063432353835" lon="-3.055304860164603"><ele>849.0</ele><time>2026-04-21T12:32:08.002Z</time></trkpt><trkpt lat="37.53057085341442" lon="-3.055236451754363"><ele>849.4999999999999</ele><time>2026-04-21T12:32:09.002Z</time></trkpt><trkpt lat="37.53052233415977" lon="-3.0551783199944653"><ele>850.0</ele><time>2026-04-21T12:32:10.002Z</time></trkpt><trkpt lat="37.53042060998458" lon="-3.0551173984263413"><ele>847.4</ele><time>2026-04-21T12:32:12.002Z</time></trkpt><trkpt lat="37.53030576876961" lon="-3.0551325049294786"><ele>844.8</ele><time>2026-04-21T12:32:14.003Z</time></trkpt><trkpt lat="37.53023599334339" lon="-3.0551584992001803"><ele>842.2</ele><time>2026-04-21T12:32:15.003Z</time></trkpt><trkpt lat="37.530153411863786" lon="-3.0551970112456837"><ele>839.6</ele><time>2026-04-21T12:32:16.003Z</time></trkpt><trkpt lat="37.5300538770316" lon="-3.055230123303323"><ele>837.0</ele><time>2026-04-21T12:32:17.003Z</time></trkpt><trkpt lat="37.529960200020156" lon="-3.0552826796010097"><ele>837.0</ele><time>2026-04-21T12:32:18.003Z</time></trkpt><trkpt lat="37.529867972107745" lon="-3.0553484704266616"><ele>837.0</ele><time>2026-04-21T12:32:19.001Z</time></trkpt><trkpt lat="37.52978132404823" lon="-3.055417482543344"><ele>837.0</ele><time>2026-04-21T12:32:20.001Z</time></trkpt><trkpt lat="37.529716315292795" lon="-3.0554961446602733"><ele>837.0</ele><time>2026-04-21T12:32:21.001Z</time></trkpt><trkpt lat="37.52964215572284" lon="-3.0555523537042792"><ele>837.0</ele><time>2026-04-21T12:32:22.001Z</time></trkpt><trkpt lat="37.52955616947741" lon="-3.055588611705416"><ele>837.1666666666666</ele><time>2026-04-21T12:32:23.001Z</time></trkpt><trkpt lat="37.52946251601716" lon="-3.0555702205819055"><ele>837.3333333333333</ele><time>2026-04-21T12:32:24.001Z</time></trkpt><trkpt lat="37.529376974851246" lon="-3.0555725954787594"><ele>837.5</ele><time>2026-04-21T12:32:25.001Z</time></trkpt><trkpt lat="37.529294685979465" lon="-3.0555962038896025"><ele>837.6666666666666</ele><time>2026-04-21T12:32:26.001Z</time></trkpt><trkpt lat="37.52921813975762" lon="-3.05565076960441"><ele>837.8333333333333</ele><time>2026-04-21T12:32:27.001Z</time></trkpt><trkpt lat="37.52914544371813" lon="-3.0557220455724883"><ele>838.0</ele><time>2026-04-21T12:32:28.001Z</time></trkpt><trkpt lat="37.529070316736565" lon="-3.055801131607615"><ele>837.9999999999999</ele><time>2026-04-21T12:32:29.001Z</time></trkpt><trkpt lat="37.528990595857024" lon="-3.055860651654591"><ele>838.0</ele><time>2026-04-21T12:32:30.001Z</time></trkpt><trkpt lat="37.52891373805989" lon="-3.0559094490587415"><ele>838.0</ele><time>2026-04-21T12:32:31.001Z</time></trkpt><trkpt lat="37.52883769061601" lon="-3.055954431696153"><ele>838.0</ele><time>2026-04-21T12:32:32.001Z</time></trkpt><trkpt lat="37.52876104733133" lon="-3.0559927445992288"><ele>837.9999999999999</ele><time>2026-04-21T12:32:33.001Z</time></trkpt><trkpt lat="37.52868328232289" lon="-3.056015290989904"><ele>838.0</ele><time>2026-04-21T12:32:34.001Z</time></trkpt><trkpt lat="37.52859533971396" lon="-3.056042402812165"><ele>839.1666666666666</ele><time>2026-04-21T12:32:35.001Z</time></trkpt><trkpt lat="37.52850743765989" lon="-3.0560645328424156"><ele>840.3333333333333</ele><time>2026-04-21T12:32:36.001Z</time></trkpt><trkpt lat="37.52841734385436" lon="-3.056077231722252"><ele>841.5</ele><time>2026-04-21T12:32:37.001Z</time></trkpt><trkpt lat="37.52832411233464" lon="-3.0561033549984558"><ele>842.6666666666667</ele><time>2026-04-21T12:32:38.001Z</time></trkpt><trkpt lat="37.52824213922257" lon="-3.0561213134704923"><ele>843.8333333333334</ele><time>2026-04-21T12:32:39.001Z</time></trkpt><trkpt lat="37.52817532852753" lon="-3.0561617052295573"><ele>845.0</ele><time>2026-04-21T12:32:40.001Z</time></trkpt><trkpt lat="37.52812344753089" lon="-3.056235752747638"><ele>845.0</ele><time>2026-04-21T12:32:41.001Z</time></trkpt><trkpt lat="37.52808371806162" lon="-3.056348625978184"><ele>845.0</ele><time>2026-04-21T12:32:42.001Z</time></trkpt><trkpt lat="37.52805672676882" lon="-3.0564667553657734"><ele>845.0</ele><time>2026-04-21T12:32:43.001Z</time></trkpt><trkpt lat="37.52804870695403" lon="-3.0565957846265084"><ele>845.0</ele><time>2026-04-21T12:32:44.001Z</time></trkpt><trkpt lat="37.52803525024844" lon="-3.056722423857962"><ele>845.0</ele><time>2026-04-21T12:32:45.001Z</time></trkpt><trkpt lat="37.52800974253424" lon="-3.056831247527787"><ele>846.1666666666667</ele><time>2026-04-21T12:32:46.001Z</time></trkpt><trkpt lat="37.52796625408443" lon="-3.056895056890879"><ele>847.3333333333334</ele><time>2026-04-21T12:32:47.001Z</time></trkpt><trkpt lat="37.52790584249679" lon="-3.0569381134652396"><ele>848.5</ele><time>2026-04-21T12:32:48.001Z</time></trkpt><trkpt lat="37.52783424804051" lon="-3.0569524554227767"><ele>849.6666666666667</ele><time>2026-04-21T12:32:49.001Z</time></trkpt><trkpt lat="37.52775155656892" lon="-3.056934162174417"><ele>850.8333333333334</ele><time>2026-04-21T12:32:50.001Z</time></trkpt><trkpt lat="37.52766292511625" lon="-3.056890545517681"><ele>852.0</ele><time>2026-04-21T12:32:51.001Z</time></trkpt><trkpt lat="37.527568074827066" lon="-3.056823948956808"><ele>853.0</ele><time>2026-04-21T12:32:52.001Z</time></trkpt><trkpt lat="37.52746323047867" lon="-3.0567530603661486"><ele>854.0</ele><time>2026-04-21T12:32:53.001Z</time></trkpt><trkpt lat="37.527349057952605" lon="-3.056700274952369"><ele>855.0</ele><time>2026-04-21T12:32:54.001Z</time></trkpt><trkpt lat="37.527250909036155" lon="-3.0566562403721522"><ele>856.0</ele><time>2026-04-21T12:32:55.001Z</time></trkpt><trkpt lat="37.527164805324254" lon="-3.056613734612493"><ele>857.0</ele><time>2026-04-21T12:32:56.001Z</time></trkpt><trkpt lat="37.52707778141988" lon="-3.056574020501482"><ele>856.8</ele><time>2026-04-21T12:32:57.001Z</time></trkpt><trkpt lat="37.52698543170646" lon="-3.0565477303804403"><ele>856.6</ele><time>2026-04-21T12:32:58.001Z</time></trkpt><trkpt lat="37.52687504517189" lon="-3.0565445192387326"><ele>856.3999999999999</ele><time>2026-04-21T12:32:59.001Z</time></trkpt><trkpt lat="37.52677036189927" lon="-3.056568296583415"><ele>856.1999999999999</ele><time>2026-04-21T12:33:00.001Z</time></trkpt><trkpt lat="37.52666382831859" lon="-3.05661008618951"><ele>856.0</ele><time>2026-04-21T12:33:01.001Z</time></trkpt><trkpt lat="37.52656127546302" lon="-3.0566546995447976"><ele>856.0</ele><time>2026-04-21T12:33:02.001Z</time></trkpt><trkpt lat="37.52645087803848" lon="-3.0566999972012936"><ele>855.9999999999999</ele><time>2026-04-21T12:33:03.001Z</time></trkpt><trkpt lat="37.52634999905691" lon="-3.0567551358477596"><ele>855.9999999999999</ele><time>2026-04-21T12:33:04.001Z</time></trkpt><trkpt lat="37.52625986933178" lon="-3.0568242746977656"><ele>856.0</ele><time>2026-04-21T12:33:05.001Z</time></trkpt><trkpt lat="37.52616902602861" lon="-3.0568785970632733"><ele>856.0</ele><time>2026-04-21T12:33:06.001Z</time></trkpt><trkpt lat="37.52607594962052" lon="-3.056901369210154"><ele>855.5999999999999</ele><time>2026-04-21T12:33:07.001Z</time></trkpt><trkpt lat="37.52598283156518" lon="-3.056909588016732"><ele>855.1999999999999</ele><time>2026-04-21T12:33:08.001Z</time></trkpt><trkpt lat="37.525884962470094" lon="-3.056920768587035"><ele>854.8000000000001</ele><time>2026-04-21T12:33:09.001Z</time></trkpt><trkpt lat="37.52577871019527" lon="-3.0569394000745285"><ele>854.4000000000001</ele><time>2026-04-21T12:33:10.001Z</time></trkpt><trkpt lat="37.52566625582641" lon="-3.056961364565654"><ele>854.0</ele><time>2026-04-21T12:33:11.001Z</time></trkpt><trkpt lat="37.52555885738981" lon="-3.056984219656759"><ele>854.0</ele><time>2026-04-21T12:33:12.001Z</time></trkpt><trkpt lat="37.5254613069572" lon="-3.0570134087628906"><ele>854.0000000000001</ele><time>2026-04-21T12:33:13.001Z</time></trkpt><trkpt lat="37.52536223602218" lon="-3.0570423701877902"><ele>854.0000000000001</ele><time>2026-04-21T12:33:14.001Z</time></trkpt><trkpt lat="37.52526628734081" lon="-3.057077130714384"><ele>854.0</ele><time>2026-04-21T12:33:15.001Z</time></trkpt><trkpt lat="37.525182014472435" lon="-3.0571009712439836"><ele>854.0</ele><time>2026-04-21T12:33:16.001Z</time></trkpt><trkpt lat="37.52509588931073" lon="-3.0571119570866734"><ele>853.2</ele><time>2026-04-21T12:33:17.001Z</time></trkpt><trkpt lat="37.525002745062004" lon="-3.057104713993244"><ele>852.4000000000001</ele><time>2026-04-21T12:33:18.001Z</time></trkpt><trkpt lat="37.5248984840656" lon="-3.057082140545946"><ele>851.6</ele><time>2026-04-21T12:33:19.001Z</time></trkpt><trkpt lat="37.52479711675846" lon="-3.0570438220513547"><ele>850.8</ele><time>2026-04-21T12:33:20.001Z</time></trkpt><trkpt lat="37.52469509875879" lon="-3.0570107010668446"><ele>850.0</ele><time>2026-04-21T12:33:21.001Z</time></trkpt><trkpt lat="37.52460394470286" lon="-3.056985313101638"><ele>849.2</ele><time>2026-04-21T12:33:22.001Z</time></trkpt><trkpt lat="37.52450880872763" lon="-3.0569717011256343"><ele>848.4</ele><time>2026-04-21T12:33:23.001Z</time></trkpt><trkpt lat="37.524411525713575" lon="-3.0569741194399698"><ele>847.5999999999999</ele><time>2026-04-21T12:33:24.001Z</time></trkpt><trkpt lat="37.52431061741482" lon="-3.056972430260933"><ele>846.8</ele><time>2026-04-21T12:33:25.001Z</time></trkpt><trkpt lat="37.5241982991607" lon="-3.0569359956562394"><ele>846.0</ele><time>2026-04-21T12:33:26.001Z</time></trkpt><trkpt lat="37.524097489618775" lon="-3.0568777234681916"><ele>846.0</ele><time>2026-04-21T12:33:27.001Z</time></trkpt><trkpt lat="37.52399752004814" lon="-3.0568164068646007"><ele>846.0</ele><time>2026-04-21T12:33:28.001Z</time></trkpt><trkpt lat="37.52390489642198" lon="-3.0567514299143728"><ele>846.0</ele><time>2026-04-21T12:33:29.001Z</time></trkpt><trkpt lat="37.523823935841264" lon="-3.05669064790761"><ele>846.0</ele><time>2026-04-21T12:33:30.001Z</time></trkpt><trkpt lat="37.52374090782485" lon="-3.0566507708459847"><ele>846.0</ele><time>2026-04-21T12:33:31.001Z</time></trkpt><trkpt lat="37.52364746808611" lon="-3.0566451682637963"><ele>845.75</ele><time>2026-04-21T12:33:32.001Z</time></trkpt><trkpt lat="37.52354276390059" lon="-3.0566770980579956"><ele>845.5</ele><time>2026-04-21T12:33:33.001Z</time></trkpt><trkpt lat="37.52343828201267" lon="-3.056726620238688"><ele>845.25</ele><time>2026-04-21T12:33:34.001Z</time></trkpt><trkpt lat="37.52332171153176" lon="-3.056767208998167"><ele>845.0</ele><time>2026-04-21T12:33:35.001Z</time></trkpt><trkpt lat="37.523198201313704" lon="-3.0568170725409245"><ele>845.0</ele><time>2026-04-21T12:33:36.001Z</time></trkpt><trkpt lat="37.523073228745055" lon="-3.0568610845442943"><ele>845.0</ele><time>2026-04-21T12:33:37.001Z</time></trkpt><trkpt lat="37.52293997606816" lon="-3.0568869969188377"><ele>845.0</ele><time>2026-04-21T12:33:38.001Z</time></trkpt><trkpt lat="37.52280423538541" lon="-3.0569081635380173"><ele>845.0</ele><time>2026-04-21T12:33:39.001Z</time></trkpt><trkpt lat="37.52268167182796" lon="-3.056934249160547"><ele>845.8</ele><time>2026-04-21T12:33:40.001Z</time></trkpt><trkpt lat="37.52257718602756" lon="-3.056972012347494"><ele>846.6</ele><time>2026-04-21T12:33:41.001Z</time></trkpt><trkpt lat="37.522485728657045" lon="-3.0570268191996433"><ele>847.4000000000001</ele><time>2026-04-21T12:33:42.001Z</time></trkpt><trkpt lat="37.52238146329876" lon="-3.057076605138835"><ele>848.2</ele><time>2026-04-21T12:33:43.001Z</time></trkpt><trkpt lat="37.5222692789332" lon="-3.0570958061058553"><ele>849.0</ele><time>2026-04-21T12:33:44.001Z</time></trkpt><trkpt lat="37.522153846049086" lon="-3.057098111180868"><ele>849.5</ele><time>2026-04-21T12:33:45.001Z</time></trkpt><trkpt lat="37.52203284312808" lon="-3.0570964595868166"><ele>850.0</ele><time>2026-04-21T12:33:46.002Z</time></trkpt><trkpt lat="37.5219138782618" lon="-3.057093925445805"><ele>850.5</ele><time>2026-04-21T12:33:47.002Z</time></trkpt><trkpt lat="37.52179298522657" lon="-3.057112996104674"><ele>851.0</ele><time>2026-04-21T12:33:48.002Z</time></trkpt><trkpt lat="37.521671810665985" lon="-3.0571564839709238"><ele>851.0</ele><time>2026-04-21T12:33:49.002Z</time></trkpt><trkpt lat="37.521546020247264" lon="-3.0572128925412416"><ele>851.0</ele><time>2026-04-21T12:33:50.002Z</time></trkpt><trkpt lat="37.52143458862939" lon="-3.057289215926095"><ele>851.0</ele><time>2026-04-21T12:33:51.002Z</time></trkpt><trkpt lat="37.521337477511125" lon="-3.0573831620582763"><ele>851.0</ele><time>2026-04-21T12:33:52.002Z</time></trkpt><trkpt lat="37.52125816385747" lon="-3.0574473708268157"><ele>852.0</ele><time>2026-04-21T12:33:53.002Z</time></trkpt><trkpt lat="37.52117005631838" lon="-3.057478730304423"><ele>853.0</ele><time>2026-04-21T12:33:54.002Z</time></trkpt><trkpt lat="37.52107570982253" lon="-3.057473103361197"><ele>853.9999999999999</ele><time>2026-04-21T12:33:55.002Z</time></trkpt><trkpt lat="37.52097741772548" lon="-3.057433263086943"><ele>855.0</ele><time>2026-04-21T12:33:56.002Z</time></trkpt><trkpt lat="37.52087043563298" lon="-3.057374510203699"><ele>856.0</ele><time>2026-04-21T12:33:57.002Z</time></trkpt><trkpt lat="37.52077161393448" lon="-3.0573320779630118"><ele>856.8</ele><time>2026-04-21T12:33:58.002Z</time></trkpt><trkpt lat="37.52069245177067" lon="-3.057283517531751"><ele>857.5999999999999</ele><time>2026-04-21T12:33:59.002Z</time></trkpt><trkpt lat="37.520607013812864" lon="-3.0572081617920572"><ele>858.4</ele><time>2026-04-21T12:34:00.002Z</time></trkpt><trkpt lat="37.52052890413254" lon="-3.0571166324007315"><ele>859.2</ele><time>2026-04-21T12:34:01.002Z</time></trkpt><trkpt lat="37.520452675697065" lon="-3.0570259500803694"><ele>860.0</ele><time>2026-04-21T12:34:02.002Z</time></trkpt><trkpt lat="37.52037676566921" lon="-3.0569576646356498"><ele>860.6</ele><time>2026-04-21T12:34:03.002Z</time></trkpt><trkpt lat="37.52028731158628" lon="-3.0569168551520036"><ele>861.2</ele><time>2026-04-21T12:34:04.002Z</time></trkpt><trkpt lat="37.52020586758797" lon="-3.0568838015992026"><ele>861.8</ele><time>2026-04-21T12:34:05.002Z</time></trkpt><trkpt lat="37.52013422091615" lon="-3.0568303904304326"><ele>862.4</ele><time>2026-04-21T12:34:06.002Z</time></trkpt><trkpt lat="37.52005597424825" lon="-3.056751149988341"><ele>863.0</ele><time>2026-04-21T12:34:07.002Z</time></trkpt><trkpt lat="37.519961796100276" lon="-3.056663335878528"><ele>860.5999999999999</ele><time>2026-04-21T12:34:08.002Z</time></trkpt><trkpt lat="37.51987480410596" lon="-3.056592729751526"><ele>858.1999999999999</ele><time>2026-04-21T12:34:09.002Z</time></trkpt><trkpt lat="37.5197962683834" lon="-3.0565348490837856"><ele>855.8</ele><time>2026-04-21T12:34:10.002Z</time></trkpt><trkpt lat="37.5197179359651" lon="-3.056457628089382"><ele>853.4</ele><time>2026-04-21T12:34:11.002Z</time></trkpt><trkpt lat="37.519653732791944" lon="-3.05636322985168"><ele>851.0</ele><time>2026-04-21T12:34:12.002Z</time></trkpt><trkpt lat="37.51960047753327" lon="-3.0562807280602344"><ele>852.1428571428571</ele><time>2026-04-21T12:34:13.002Z</time></trkpt><trkpt lat="37.51954310165119" lon="-3.0562127947629674"><ele>853.2857142857143</ele><time>2026-04-21T12:34:14.002Z</time></trkpt><trkpt lat="37.51948075519127" lon="-3.0561776711601842"><ele>854.4285714285713</ele><time>2026-04-21T12:34:15.002Z</time></trkpt><trkpt lat="37.51941252082411" lon="-3.056190069513734"><ele>855.5714285714286</ele><time>2026-04-21T12:34:16.002Z</time></trkpt><trkpt lat="37.51934884476627" lon="-3.0562386391591945"><ele>856.7142857142857</ele><time>2026-04-21T12:34:17.002Z</time></trkpt><trkpt lat="37.51930927047436" lon="-3.0563164037821147"><ele>857.8571428571428</ele><time>2026-04-21T12:34:18.002Z</time></trkpt><trkpt lat="37.51930171168403" lon="-3.056422208762442"><ele>859.0</ele><time>2026-04-21T12:34:19.002Z</time></trkpt><trkpt lat="37.51932591178771" lon="-3.056532894397719"><ele>859.8000000000001</ele><time>2026-04-21T12:34:20.002Z</time></trkpt><trkpt lat="37.519370589892254" lon="-3.0566323225023764"><ele>860.6000000000001</ele><time>2026-04-21T12:34:21.002Z</time></trkpt><trkpt lat="37.519442535876294" lon="-3.0567190632098757"><ele>861.4</ele><time>2026-04-21T12:34:22.002Z</time></trkpt><trkpt lat="37.51951970356572" lon="-3.056804842265545"><ele>862.2</ele><time>2026-04-21T12:34:23.002Z</time></trkpt><trkpt lat="37.51958123499774" lon="-3.0569107314710298"><ele>863.0</ele><time>2026-04-21T12:34:24.002Z</time></trkpt><trkpt lat="37.51960955000093" lon="-3.0570246632661715"><ele>863.0</ele><time>2026-04-21T12:34:24.999Z</time></trkpt><trkpt lat="37.51962399311176" lon="-3.0571589924093985"><ele>863.0</ele><time>2026-04-21T12:34:25.999Z</time></trkpt><trkpt lat="37.51965255352682" lon="-3.057278086426144"><ele>863.0</ele><time>2026-04-21T12:34:26.999Z</time></trkpt><trkpt lat="37.519703792467254" lon="-3.0573781218271177"><ele>863.0</ele><time>2026-04-21T12:34:27.999Z</time></trkpt><trkpt lat="37.51975785540194" lon="-3.057481736039766"><ele>863.0</ele><time>2026-04-21T12:34:28.999Z</time></trkpt><trkpt lat="37.519789874959216" lon="-3.0575845411496627"><ele>862.3333333333334</ele><time>2026-04-21T12:34:29.999Z</time></trkpt><trkpt lat="37.519785947378274" lon="-3.05768043548903"><ele>861.6666666666667</ele><time>2026-04-21T12:34:30.999Z</time></trkpt><trkpt lat="37.51975531177989" lon="-3.0577567626132027"><ele>861.0</ele><time>2026-04-21T12:34:31.999Z</time></trkpt><trkpt lat="37.519707452213744" lon="-3.057815080434545"><ele>860.3333333333333</ele><time>2026-04-21T12:34:32.999Z</time></trkpt><trkpt lat="37.519642456197104" lon="-3.057844611466925"><ele>859.6666666666666</ele><time>2026-04-21T12:34:33.999Z</time></trkpt><trkpt lat="37.51955874905982" lon="-3.0578703542836814"><ele>859.0</ele><time>2026-04-21T12:34:34.999Z</time></trkpt><trkpt lat="37.519473306664885" lon="-3.0579065899029363"><ele>861.8000000000001</ele><time>2026-04-21T12:34:35.999Z</time></trkpt><trkpt lat="37.51937032085522" lon="-3.057927877447692"><ele>864.6000000000001</ele><time>2026-04-21T12:34:37.999Z</time></trkpt><trkpt lat="37.51924843465444" lon="-3.0578615586624047"><ele>867.4</ele><time>2026-04-21T12:34:39.999Z</time></trkpt><trkpt lat="37.519177500065275" lon="-3.057863037755765"><ele>870.2</ele><time>2026-04-21T12:34:41Z</time></trkpt><trkpt lat="37.51911601493486" lon="-3.0579170381121883"><ele>873.0</ele><time>2026-04-21T12:34:42Z</time></trkpt><trkpt lat="37.51906990365038" lon="-3.0579931736018144"><ele>872.9999999999999</ele><time>2026-04-21T12:34:43Z</time></trkpt><trkpt lat="37.5190222128708" lon="-3.0580607228519914"><ele>873.0</ele><time>2026-04-21T12:34:44Z</time></trkpt><trkpt lat="37.518956650222876" lon="-3.058093804641861"><ele>873.0</ele><time>2026-04-21T12:34:45Z</time></trkpt><trkpt lat="37.51889182005504" lon="-3.058096900931628"><ele>873.0</ele><time>2026-04-21T12:34:46Z</time></trkpt><trkpt lat="37.51882855815157" lon="-3.058084672740942"><ele>873.0</ele><time>2026-04-21T12:34:47Z</time></trkpt><trkpt lat="37.51877217552642" lon="-3.0581240412192927"><ele>872.9999999999999</ele><time>2026-04-21T12:34:48Z</time></trkpt><trkpt lat="37.518722790835334" lon="-3.0581909198695407"><ele>873.0</ele><time>2026-04-21T12:34:49Z</time></trkpt><trkpt lat="37.51863001108834" lon="-3.0582131584267787"><ele>874.5</ele><time>2026-04-21T12:34:51Z</time></trkpt><trkpt lat="37.51851431422179" lon="-3.0581368154427158"><ele>876.0</ele><time>2026-04-21T12:34:53Z</time></trkpt><trkpt lat="37.51842956202775" lon="-3.0580891630832885"><ele>877.5</ele><time>2026-04-21T12:34:54Z</time></trkpt><trkpt lat="37.518359427488015" lon="-3.058058751492894"><ele>879.0</ele><time>2026-04-21T12:34:55Z</time></trkpt><trkpt lat="37.518293659278314" lon="-3.0580416549721625"><ele>880.5</ele><time>2026-04-21T12:34:56Z</time></trkpt><trkpt lat="37.518228448479775" lon="-3.0580406078369027"><ele>882.0</ele><time>2026-04-21T12:34:57Z</time></trkpt><trkpt lat="37.518163420161216" lon="-3.058046472675109"><ele>882.0</ele><time>2026-04-21T12:34:58Z</time></trkpt><trkpt lat="37.51807875825613" lon="-3.0581013952668035"><ele>882.0</ele><time>2026-04-21T12:34:59Z</time></trkpt><trkpt lat="37.51799292485334" lon="-3.058129184070602"><ele>882.0</ele><time>2026-04-21T12:35:00Z</time></trkpt><trkpt lat="37.517904128969136" lon="-3.0581127335933287"><ele>882.0</ele><time>2026-04-21T12:35:01Z</time></trkpt><trkpt lat="37.51781729706972" lon="-3.058082156594435"><ele>882.0</ele><time>2026-04-21T12:35:02Z</time></trkpt><trkpt lat="37.51772988088569" lon="-3.058023051780639"><ele>882.6</ele><time>2026-04-21T12:35:03Z</time></trkpt><trkpt lat="37.517632577129476" lon="-3.0579610234939105"><ele>883.2</ele><time>2026-04-21T12:35:04Z</time></trkpt><trkpt lat="37.51753713382943" lon="-3.057926361728966"><ele>883.8</ele><time>2026-04-21T12:35:05Z</time></trkpt><trkpt lat="37.51744294097351" lon="-3.0578878995188847"><ele>884.4</ele><time>2026-04-21T12:35:06Z</time></trkpt><trkpt lat="37.51734938226786" lon="-3.0578234493934184"><ele>885.0</ele><time>2026-04-21T12:35:07Z</time></trkpt><trkpt lat="37.51725504829794" lon="-3.0577631669300946"><ele>885.0</ele><time>2026-04-21T12:35:08Z</time></trkpt><trkpt lat="37.51716059606503" lon="-3.0577338840353483"><ele>885.0</ele><time>2026-04-21T12:35:09Z</time></trkpt><trkpt lat="37.5170669958953" lon="-3.057725465627834"><ele>885.0</ele><time>2026-04-21T12:35:10Z</time></trkpt><trkpt lat="37.5169936571609" lon="-3.0577467800801776"><ele>885.0</ele><time>2026-04-21T12:35:11Z</time></trkpt><trkpt lat="37.51691783900796" lon="-3.0577622538183054"><ele>885.0</ele><time>2026-04-21T12:35:12Z</time></trkpt><trkpt lat="37.516835850029736" lon="-3.057729715314298"><ele>885.0</ele><time>2026-04-21T12:35:13Z</time></trkpt><trkpt lat="37.516757073330155" lon="-3.057668966028952"><ele>885.2</ele><time>2026-04-21T12:35:14Z</time></trkpt><trkpt lat="37.51666645971425" lon="-3.057616153320194"><ele>885.4</ele><time>2026-04-21T12:35:15Z</time></trkpt><trkpt lat="37.51657416148045" lon="-3.0575803836315156"><ele>885.5999999999999</ele><time>2026-04-21T12:35:16Z</time></trkpt><trkpt lat="37.516497153858005" lon="-3.057563548017095"><ele>885.8</ele><time>2026-04-21T12:35:17Z</time></trkpt><trkpt lat="37.516410647033645" lon="-3.0575706396501925"><ele>886.0</ele><time>2026-04-21T12:35:18Z</time></trkpt><trkpt lat="37.516314377837" lon="-3.0575763726078926"><ele>887.1999999999999</ele><time>2026-04-21T12:35:19.001Z</time></trkpt><trkpt lat="37.51622219375222" lon="-3.057551229551497"><ele>888.3999999999999</ele><time>2026-04-21T12:35:20.001Z</time></trkpt><trkpt lat="37.51612766727589" lon="-3.0575256819403767"><ele>889.6</ele><time>2026-04-21T12:35:21.001Z</time></trkpt><trkpt lat="37.51603661384775" lon="-3.057493039503294"><ele>890.8</ele><time>2026-04-21T12:35:22.001Z</time></trkpt><trkpt lat="37.51596200923595" lon="-3.0574306603920354"><ele>892.0</ele><time>2026-04-21T12:35:23.001Z</time></trkpt><trkpt lat="37.51588928369091" lon="-3.0573365642840624"><ele>892.4000000000001</ele><time>2026-04-21T12:35:24.001Z</time></trkpt><trkpt lat="37.51582737431391" lon="-3.0572266432506057"><ele>892.8000000000001</ele><time>2026-04-21T12:35:25.001Z</time></trkpt><trkpt lat="37.51577475350512" lon="-3.0571133688240506"><ele>893.2</ele><time>2026-04-21T12:35:26.001Z</time></trkpt><trkpt lat="37.51572217941005" lon="-3.0570217246862907"><ele>893.6</ele><time>2026-04-21T12:35:27.001Z</time></trkpt><trkpt lat="37.51566243669006" lon="-3.0569605770413713"><ele>894.0</ele><time>2026-04-21T12:35:28.001Z</time></trkpt><trkpt lat="37.515592934337526" lon="-3.056914786260752"><ele>894.0</ele><time>2026-04-21T12:35:29.001Z</time></trkpt><trkpt lat="37.51550344639036" lon="-3.0568717443027342"><ele>894.0000000000001</ele><time>2026-04-21T12:35:30.001Z</time></trkpt><trkpt lat="37.5154017734856" lon="-3.056834053150382"><ele>894.0000000000001</ele><time>2026-04-21T12:35:31.001Z</time></trkpt><trkpt lat="37.51529059624577" lon="-3.056793608358644"><ele>894.0</ele><time>2026-04-21T12:35:32.001Z</time></trkpt><trkpt lat="37.51517656780914" lon="-3.0567474061896536"><ele>894.0</ele><time>2026-04-21T12:35:33.001Z</time></trkpt><trkpt lat="37.51505563151976" lon="-3.0566925351231413"><ele>894.25</ele><time>2026-04-21T12:35:34.001Z</time></trkpt><trkpt lat="37.514936093748496" lon="-3.0566233225250157"><ele>894.5</ele><time>2026-04-21T12:35:35.001Z</time></trkpt><trkpt lat="37.514820959618845" lon="-3.0565583047403275"><ele>894.75</ele><time>2026-04-21T12:35:36.001Z</time></trkpt><trkpt lat="37.51471127912436" lon="-3.0565030393450487"><ele>895.0</ele><time>2026-04-21T12:35:37.001Z</time></trkpt><trkpt lat="37.51461125232136" lon="-3.056436812483854"><ele>893.8</ele><time>2026-04-21T12:35:38.001Z</time></trkpt><trkpt lat="37.51451657717347" lon="-3.0563719241075176"><ele>892.6</ele><time>2026-04-21T12:35:39.001Z</time></trkpt><trkpt lat="37.514427534659255" lon="-3.056321050875213"><ele>891.4000000000001</ele><time>2026-04-21T12:35:40.001Z</time></trkpt><trkpt lat="37.514340087917816" lon="-3.0562886291954556"><ele>890.2</ele><time>2026-04-21T12:35:41.001Z</time></trkpt><trkpt lat="37.51425413553993" lon="-3.056275493957563"><ele>889.0</ele><time>2026-04-21T12:35:42.001Z</time></trkpt><trkpt lat="37.51417923788492" lon="-3.0562937308355282"><ele>889.0</ele><time>2026-04-21T12:35:43.001Z</time></trkpt><trkpt lat="37.51409761719209" lon="-3.056350682510228"><ele>889.0000000000001</ele><time>2026-04-21T12:35:44.001Z</time></trkpt><trkpt lat="37.514019335868156" lon="-3.0564250385973324"><ele>889.0000000000001</ele><time>2026-04-21T12:35:45.001Z</time></trkpt><trkpt lat="37.51394750571597" lon="-3.0565186529498893"><ele>889.0</ele><time>2026-04-21T12:35:46.001Z</time></trkpt><trkpt lat="37.51387382203518" lon="-3.0566159054821913"><ele>889.0</ele><time>2026-04-21T12:35:47.001Z</time></trkpt><trkpt lat="37.51380712854537" lon="-3.0566866325686117"><ele>889.3333333333333</ele><time>2026-04-21T12:35:48.001Z</time></trkpt><trkpt lat="37.51375189491548" lon="-3.056752479346115"><ele>889.6666666666666</ele><time>2026-04-21T12:35:49.001Z</time></trkpt><trkpt lat="37.51369513468971" lon="-3.0568162853661316"><ele>890.0</ele><time>2026-04-21T12:35:50.001Z</time></trkpt><trkpt lat="37.51362327839524" lon="-3.0568600328491073"><ele>890.3333333333333</ele><time>2026-04-21T12:35:51.001Z</time></trkpt><trkpt lat="37.513550313335266" lon="-3.056869434654563"><ele>890.6666666666666</ele><time>2026-04-21T12:35:52.001Z</time></trkpt><trkpt lat="37.513477590535274" lon="-3.0568730387844143"><ele>891.0</ele><time>2026-04-21T12:35:53.001Z</time></trkpt><trkpt lat="37.51340525614228" lon="-3.056893937241015"><ele>891.0</ele><time>2026-04-21T12:35:54.001Z</time></trkpt><trkpt lat="37.51333896599562" lon="-3.0569196531224607"><ele>891.0</ele><time>2026-04-21T12:35:55.001Z</time></trkpt><trkpt lat="37.51327216846906" lon="-3.056939474452661"><ele>891.0</ele><time>2026-04-21T12:35:56.001Z</time></trkpt><trkpt lat="37.51320549373651" lon="-3.05696828153846"><ele>891.0</ele><time>2026-04-21T12:35:57.001Z</time></trkpt><trkpt lat="37.51311665154895" lon="-3.056979727292087"><ele>891.0</ele><time>2026-04-21T12:35:58.001Z</time></trkpt><trkpt lat="37.513026182736894" lon="-3.056953942341413"><ele>891.0</ele><time>2026-04-21T12:35:59.001Z</time></trkpt><trkpt lat="37.5129370416284" lon="-3.056905993788328"><ele>891.1666666666666</ele><time>2026-04-21T12:36:00.001Z</time></trkpt><trkpt lat="37.512848925547125" lon="-3.0568613480433395"><ele>891.3333333333333</ele><time>2026-04-21T12:36:01.001Z</time></trkpt><trkpt lat="37.51276584253775" lon="-3.0568386465385253"><ele>891.5</ele><time>2026-04-21T12:36:02.001Z</time></trkpt><trkpt lat="37.51268286544647" lon="-3.0568129054519524"><ele>891.6666666666666</ele><time>2026-04-21T12:36:03.001Z</time></trkpt><trkpt lat="37.51261330228089" lon="-3.056803432915148"><ele>891.8333333333333</ele><time>2026-04-21T12:36:04.001Z</time></trkpt><trkpt lat="37.512500932685114" lon="-3.056788676485882"><ele>892.0</ele><time>2026-04-21T12:36:06.001Z</time></trkpt><trkpt lat="37.51243392132081" lon="-3.0567202284963413"><ele>891.9999999999999</ele><time>2026-04-21T12:36:08.002Z</time></trkpt><trkpt lat="37.51238139024199" lon="-3.0566548974690484"><ele>892.0</ele><time>2026-04-21T12:36:10.002Z</time></trkpt><trkpt lat="37.51234206031519" lon="-3.0565881646279243"><ele>892.0</ele><time>2026-04-21T12:36:12.002Z</time></trkpt><trkpt lat="37.512324765344445" lon="-3.056461439095149"><ele>892.0</ele><time>2026-04-21T12:36:26.002Z</time></trkpt><trkpt lat="37.51230230315521" lon="-3.0563612266801385"><ele>891.9999999999999</ele><time>2026-04-21T12:36:27.002Z</time></trkpt><trkpt lat="37.512257456704496" lon="-3.0562557649619015"><ele>892.0</ele><time>2026-04-21T12:36:28.002Z</time></trkpt><trkpt lat="37.51221087801864" lon="-3.056140756873009"><ele>891.6</ele><time>2026-04-21T12:36:29.002Z</time></trkpt><trkpt lat="37.51216266083398" lon="-3.056034254579318"><ele>891.2</ele><time>2026-04-21T12:36:30.002Z</time></trkpt><trkpt lat="37.512117882058796" lon="-3.055931430595288"><ele>890.8</ele><time>2026-04-21T12:36:31Z</time></trkpt><trkpt lat="37.512090841160564" lon="-3.055821585314482"><ele>890.4</ele><time>2026-04-21T12:36:32Z</time></trkpt><trkpt lat="37.51208526597084" lon="-3.0557061642959424"><ele>890.0</ele><time>2026-04-21T12:36:33Z</time></trkpt><trkpt lat="37.512078499248105" lon="-3.0556005929938226"><ele>889.3333333333334</ele><time>2026-04-21T12:36:34Z</time></trkpt><trkpt lat="37.51204133497658" lon="-3.055521454693029"><ele>888.6666666666667</ele><time>2026-04-21T12:36:35Z</time></trkpt><trkpt lat="37.51197616922299" lon="-3.055469367974831"><ele>888.0</ele><time>2026-04-21T12:36:36Z</time></trkpt><trkpt lat="37.511885508116706" lon="-3.055429254760682"><ele>887.3333333333333</ele><time>2026-04-21T12:36:37Z</time></trkpt><trkpt lat="37.511794025794394" lon="-3.0553846153318784"><ele>886.6666666666666</ele><time>2026-04-21T12:36:38Z</time></trkpt><trkpt lat="37.511723485134425" lon="-3.055332216978574"><ele>886.0</ele><time>2026-04-21T12:36:39Z</time></trkpt><trkpt lat="37.5116655014384" lon="-3.055269841781165"><ele>885.9999999999999</ele><time>2026-04-21T12:36:40Z</time></trkpt><trkpt lat="37.511610674249376" lon="-3.0552020197655003"><ele>886.0</ele><time>2026-04-21T12:36:41Z</time></trkpt><trkpt lat="37.51156089900817" lon="-3.0551421072134834"><ele>886.0</ele><time>2026-04-21T12:36:42Z</time></trkpt><trkpt lat="37.511517613687126" lon="-3.055069532427077"><ele>886.0</ele><time>2026-04-21T12:36:43Z</time></trkpt><trkpt lat="37.51148062036113" lon="-3.054998745161255"><ele>885.9999999999999</ele><time>2026-04-21T12:36:44Z</time></trkpt><trkpt lat="37.51143989519641" lon="-3.0549355319230154"><ele>886.0</ele><time>2026-04-21T12:36:45Z</time></trkpt><trkpt lat="37.51133721640282" lon="-3.054854209022883"><ele>885.1666666666666</ele><time>2026-04-21T12:36:47Z</time></trkpt><trkpt lat="37.511270276074235" lon="-3.0548449427260165"><ele>884.3333333333333</ele><time>2026-04-21T12:36:48Z</time></trkpt><trkpt lat="37.511186000743784" lon="-3.0548175469160705"><ele>883.5</ele><time>2026-04-21T12:36:49Z</time></trkpt><trkpt lat="37.51112219528322" lon="-3.0548163341262153"><ele>882.6666666666667</ele><time>2026-04-21T12:36:50Z</time></trkpt><trkpt lat="37.51103906393621" lon="-3.0547779750123496"><ele>881.8333333333334</ele><time>2026-04-21T12:36:51Z</time></trkpt><trkpt lat="37.51095716867694" lon="-3.0547144651560045"><ele>881.0</ele><time>2026-04-21T12:36:52Z</time></trkpt><trkpt lat="37.51086908021319" lon="-3.054646870731813"><ele>881.0</ele><time>2026-04-21T12:36:53Z</time></trkpt><trkpt lat="37.5107683161912" lon="-3.0545795895167043"><ele>880.9999999999999</ele><time>2026-04-21T12:36:54Z</time></trkpt><trkpt lat="37.51066341656042" lon="-3.0545266771769044"><ele>880.9999999999999</ele><time>2026-04-21T12:36:55Z</time></trkpt><trkpt lat="37.51056269667346" lon="-3.054493305401449"><ele>881.0</ele><time>2026-04-21T12:36:56Z</time></trkpt><trkpt lat="37.51047622642505" lon="-3.0544391830667648"><ele>881.0</ele><time>2026-04-21T12:36:57Z</time></trkpt><trkpt lat="37.51041034512815" lon="-3.0543630667191133"><ele>881.0000000000001</ele><time>2026-04-21T12:36:58Z</time></trkpt><trkpt lat="37.51035453667094" lon="-3.054297428516502"><ele>881.0</ele><time>2026-04-21T12:36:59Z</time></trkpt><trkpt lat="37.510280779740306" lon="-3.0542552798855174"><ele>881.0</ele><time>2026-04-21T12:37:00Z</time></trkpt><trkpt lat="37.51019417182359" lon="-3.054218558380696"><ele>881.0</ele><time>2026-04-21T12:37:01Z</time></trkpt><trkpt lat="37.51011673385835" lon="-3.0542039315538156"><ele>881.0000000000001</ele><time>2026-04-21T12:37:02Z</time></trkpt><trkpt lat="37.510037122510724" lon="-3.054189338476856"><ele>881.0</ele><time>2026-04-21T12:37:03Z</time></trkpt><trkpt lat="37.50995528371656" lon="-3.0541967433043014"><ele>881.0000000000001</ele><time>2026-04-21T12:37:04Z</time></trkpt><trkpt lat="37.50989074349849" lon="-3.054220476625916"><ele>881.0</ele><time>2026-04-21T12:37:05Z</time></trkpt><trkpt lat="37.50977055026962" lon="-3.0542305370752723"><ele>881.0</ele><time>2026-04-21T12:37:07Z</time></trkpt><trkpt lat="37.50970602580266" lon="-3.054208419420658"><ele>881.0</ele><time>2026-04-21T12:37:08Z</time></trkpt><trkpt lat="37.509644648053325" lon="-3.054173277146982"><ele>881.0000000000001</ele><time>2026-04-21T12:37:09Z</time></trkpt><trkpt lat="37.50958673306223" lon="-3.0541292788371437"><ele>881.0</ele><time>2026-04-21T12:37:10.001Z</time></trkpt><trkpt lat="37.50952167438076" lon="-3.054079715026923"><ele>879.3333333333334</ele><time>2026-04-21T12:37:11.001Z</time></trkpt><trkpt lat="37.50945077209503" lon="-3.054027013581465"><ele>877.6666666666667</ele><time>2026-04-21T12:37:12.001Z</time></trkpt><trkpt lat="37.5093806840651" lon="-3.053965474152415"><ele>876.0</ele><time>2026-04-21T12:37:13.001Z</time></trkpt><trkpt lat="37.50931851288753" lon="-3.0538957633560906"><ele>874.3333333333333</ele><time>2026-04-21T12:37:14.001Z</time></trkpt><trkpt lat="37.50926747235419" lon="-3.053823341925848"><ele>872.6666666666666</ele><time>2026-04-21T12:37:15.001Z</time></trkpt><trkpt lat="37.509225875537666" lon="-3.053744710313807"><ele>871.0</ele><time>2026-04-21T12:37:16.001Z</time></trkpt><trkpt lat="37.509186249748396" lon="-3.0536687102665927"><ele>870.9999999999999</ele><time>2026-04-21T12:37:17.001Z</time></trkpt><trkpt lat="37.50913386629796" lon="-3.0536153328239446"><ele>871.0</ele><time>2026-04-21T12:37:18.001Z</time></trkpt><trkpt lat="37.50905136210512" lon="-3.053586312501568"><ele>871.0</ele><time>2026-04-21T12:37:19.001Z</time></trkpt><trkpt lat="37.50896009595717" lon="-3.0536019101274308"><ele>871.0</ele><time>2026-04-21T12:37:20.001Z</time></trkpt><trkpt lat="37.50888765178697" lon="-3.0536255402584453"><ele>870.9999999999999</ele><time>2026-04-21T12:37:21.001Z</time></trkpt><trkpt lat="37.5088170458445" lon="-3.053603645330694"><ele>871.0</ele><time>2026-04-21T12:37:22.001Z</time></trkpt><trkpt lat="37.508740767489634" lon="-3.0535421113649113"><ele>870.3333333333333</ele><time>2026-04-21T12:37:23.001Z</time></trkpt><trkpt lat="37.50865876919902" lon="-3.0534762005581606"><ele>869.6666666666666</ele><time>2026-04-21T12:37:24.001Z</time></trkpt><trkpt lat="37.50857839786161" lon="-3.0534314015486284"><ele>869.0</ele><time>2026-04-21T12:37:25.001Z</time></trkpt><trkpt lat="37.50850902884934" lon="-3.053401667607193"><ele>868.3333333333333</ele><time>2026-04-21T12:37:26.001Z</time></trkpt><trkpt lat="37.508433216464184" lon="-3.0533706676834633"><ele>867.6666666666666</ele><time>2026-04-21T12:37:27.001Z</time></trkpt><trkpt lat="37.508351113193555" lon="-3.053347181885814"><ele>867.0</ele><time>2026-04-21T12:37:28.001Z</time></trkpt><trkpt lat="37.50826518159899" lon="-3.0533216590959995"><ele>865.8</ele><time>2026-04-21T12:37:29.001Z</time></trkpt><trkpt lat="37.508178013974735" lon="-3.053276467618322"><ele>864.6</ele><time>2026-04-21T12:37:30.001Z</time></trkpt><trkpt lat="37.50808891845996" lon="-3.053237844055376"><ele>863.3999999999999</ele><time>2026-04-21T12:37:31.001Z</time></trkpt><trkpt lat="37.50798755618155" lon="-3.053217010712106"><ele>862.1999999999999</ele><time>2026-04-21T12:37:32.001Z</time></trkpt><trkpt lat="37.5078849810455" lon="-3.053218506567919"><ele>861.0</ele><time>2026-04-21T12:37:33.001Z</time></trkpt><trkpt lat="37.50776674791379" lon="-3.0532161905035666"><ele>861.0</ele><time>2026-04-21T12:37:34.001Z</time></trkpt><trkpt lat="37.50764921349283" lon="-3.053223973555932"><ele>860.9999999999999</ele><time>2026-04-21T12:37:35.001Z</time></trkpt><trkpt lat="37.507537331523274" lon="-3.0532366626018157"><ele>860.9999999999999</ele><time>2026-04-21T12:37:36.001Z</time></trkpt><trkpt lat="37.507434531333956" lon="-3.0532369302018214"><ele>861.0</ele><time>2026-04-21T12:37:37.001Z</time></trkpt><trkpt lat="37.50734161895399" lon="-3.0532069452520942"><ele>861.0</ele><time>2026-04-21T12:37:38.001Z</time></trkpt><trkpt lat="37.50726630719949" lon="-3.053166144509782"><ele>861.0</ele><time>2026-04-21T12:37:39.001Z</time></trkpt><trkpt lat="37.5072087906366" lon="-3.05311746797533"><ele>860.9999999999999</ele><time>2026-04-21T12:37:40.001Z</time></trkpt><trkpt lat="37.50715559615179" lon="-3.0530405094953768"><ele>860.9999999999999</ele><time>2026-04-21T12:37:41.001Z</time></trkpt><trkpt lat="37.50709677786231" lon="-3.0529270802287303"><ele>861.0</ele><time>2026-04-21T12:37:42.001Z</time></trkpt><trkpt lat="37.50703644222377" lon="-3.0528075115863844"><ele>861.0</ele><time>2026-04-21T12:37:43.001Z</time></trkpt><trkpt lat="37.50696268527174" lon="-3.052698966744498"><ele>862.5</ele><time>2026-04-21T12:37:44.001Z</time></trkpt><trkpt lat="37.50688087419226" lon="-3.052600051819593"><ele>864.0</ele><time>2026-04-21T12:37:45.001Z</time></trkpt><trkpt lat="37.50678027773064" lon="-3.0525162190289126"><ele>865.5</ele><time>2026-04-21T12:37:46.001Z</time></trkpt><trkpt lat="37.50667066797396" lon="-3.0524384673970832"><ele>867.0</ele><time>2026-04-21T12:37:47.001Z</time></trkpt><trkpt lat="37.50654688491373" lon="-3.0523702047356878"><ele>867.6</ele><time>2026-04-21T12:37:48.001Z</time></trkpt><trkpt lat="37.506428644081176" lon="-3.0523156839991703"><ele>868.2</ele><time>2026-04-21T12:37:49.001Z</time></trkpt><trkpt lat="37.5063215714664" lon="-3.052276344019032"><ele>868.8</ele><time>2026-04-21T12:37:50.001Z</time></trkpt><trkpt lat="37.506224459284375" lon="-3.052249767684302"><ele>869.4</ele><time>2026-04-21T12:37:51.001Z</time></trkpt><trkpt lat="37.50614903447792" lon="-3.0522148501672013"><ele>870.0</ele><time>2026-04-21T12:37:52.001Z</time></trkpt><trkpt lat="37.506085200658795" lon="-3.05215584502495"><ele>870.0</ele><time>2026-04-21T12:37:53.001Z</time></trkpt><trkpt lat="37.50604969334167" lon="-3.0520787292356877"><ele>870.0</ele><time>2026-04-21T12:37:54.001Z</time></trkpt><trkpt lat="37.50602300335699" lon="-3.0519743334420446"><ele>870.0</ele><time>2026-04-21T12:37:55.001Z</time></trkpt><trkpt lat="37.50600437203218" lon="-3.0518570575005177"><ele>870.0</ele><time>2026-04-21T12:37:56.001Z</time></trkpt><trkpt lat="37.50598856630762" lon="-3.051750840071857"><ele>870.0</ele><time>2026-04-21T12:37:57.001Z</time></trkpt><trkpt lat="37.505970713350926" lon="-3.0516679312258645"><ele>870.0</ele><time>2026-04-21T12:37:58.001Z</time></trkpt><trkpt lat="37.50593876866869" lon="-3.0515986022889496"><ele>870.0</ele><time>2026-04-21T12:37:59.001Z</time></trkpt><trkpt lat="37.50581558498312" lon="-3.0515585034828345"><ele>870.0</ele><time>2026-04-21T12:38:01.002Z</time></trkpt><trkpt lat="37.50573248182124" lon="-3.051573085839388"><ele>870.0</ele><time>2026-04-21T12:38:02.002Z</time></trkpt><trkpt lat="37.5056459287296" lon="-3.051604975159057"><ele>870.0</ele><time>2026-04-21T12:38:03.002Z</time></trkpt><trkpt lat="37.5055559393346" lon="-3.05168393318867"><ele>870.0</ele><time>2026-04-21T12:38:04.002Z</time></trkpt><trkpt lat="37.505452850514025" lon="-3.0517694247249874"><ele>869.2</ele><time>2026-04-21T12:38:05.002Z</time></trkpt><trkpt lat="37.50535449961212" lon="-3.0518288170459136"><ele>868.4</ele><time>2026-04-21T12:38:06.002Z</time></trkpt><trkpt lat="37.50526195941616" lon="-3.0518602298221857"><ele>867.5999999999999</ele><time>2026-04-21T12:38:07.002Z</time></trkpt><trkpt lat="37.5051655340036" lon="-3.0518540440048803"><ele>866.8</ele><time>2026-04-21T12:38:08.002Z</time></trkpt><trkpt lat="37.50506648550206" lon="-3.051833487698271"><ele>866.0</ele><time>2026-04-21T12:38:09.002Z</time></trkpt><trkpt lat="37.504970912483174" lon="-3.051858690806257"><ele>866.0</ele><time>2026-04-21T12:38:10.002Z</time></trkpt><trkpt lat="37.504874549393776" lon="-3.051939939452373"><ele>865.9999999999999</ele><time>2026-04-21T12:38:11.002Z</time></trkpt><trkpt lat="37.50478167201901" lon="-3.05204067183427"><ele>865.9999999999999</ele><time>2026-04-21T12:38:12.002Z</time></trkpt><trkpt lat="37.50469965545788" lon="-3.0521097499577503"><ele>866.0</ele><time>2026-04-21T12:38:13.002Z</time></trkpt><trkpt lat="37.50460919874401" lon="-3.0521271661229887"><ele>866.0</ele><time>2026-04-21T12:38:14.002Z</time></trkpt><trkpt lat="37.50450571678163" lon="-3.052110724732184"><ele>866.0</ele><time>2026-04-21T12:38:15.002Z</time></trkpt><trkpt lat="37.50441379183191" lon="-3.0520578452192813"><ele>865.9999999999999</ele><time>2026-04-21T12:38:16.002Z</time></trkpt><trkpt lat="37.50433490439907" lon="-3.0519705861217723"><ele>865.9999999999999</ele><time>2026-04-21T12:38:17.002Z</time></trkpt><trkpt lat="37.50425574410239" lon="-3.0518933643229462"><ele>866.0</ele><time>2026-04-21T12:38:18.002Z</time></trkpt><trkpt lat="37.504158351058926" lon="-3.0518488832248702"><ele>866.0</ele><time>2026-04-21T12:38:19.002Z</time></trkpt><trkpt lat="37.50407621692454" lon="-3.051831125671944"><ele>866.0000000000001</ele><time>2026-04-21T12:38:20.002Z</time></trkpt><trkpt lat="37.50399282122826" lon="-3.051822901338732"><ele>866.0</ele><time>2026-04-21T12:38:21.002Z</time></trkpt><trkpt lat="37.503911067504575" lon="-3.051851261236892"><ele>866.0</ele><time>2026-04-21T12:38:22.002Z</time></trkpt><trkpt lat="37.50383469721761" lon="-3.051880731493685"><ele>866.0</ele><time>2026-04-21T12:38:23.002Z</time></trkpt><trkpt lat="37.50377132180446" lon="-3.051889596688017"><ele>866.0000000000001</ele><time>2026-04-21T12:38:24.002Z</time></trkpt><trkpt lat="37.50365834646675" lon="-3.0518651865662823"><ele>866.0</ele><time>2026-04-21T12:38:26.002Z</time></trkpt><trkpt lat="37.50355189673239" lon="-3.051869760836766"><ele>866.6666666666667</ele><time>2026-04-21T12:38:28.002Z</time></trkpt><trkpt lat="37.503430542802306" lon="-3.051873055201611"><ele>867.3333333333334</ele><time>2026-04-21T12:38:30.002Z</time></trkpt><trkpt lat="37.503364920542275" lon="-3.0518561805722846"><ele>868.0</ele><time>2026-04-21T12:38:31.002Z</time></trkpt><trkpt lat="37.50330137336213" lon="-3.0518225953462106"><ele>868.6666666666667</ele><time>2026-04-21T12:38:32.002Z</time></trkpt><trkpt lat="37.50323943377554" lon="-3.051764826441508"><ele>869.3333333333334</ele><time>2026-04-21T12:38:33.002Z</time></trkpt><trkpt lat="37.50318000960506" lon="-3.0517034999060995"><ele>870.0</ele><time>2026-04-21T12:38:34.002Z</time></trkpt><trkpt lat="37.50312407662582" lon="-3.051627746423852"><ele>870.0</ele><time>2026-04-21T12:38:35.002Z</time></trkpt><trkpt lat="37.50307033268325" lon="-3.051544351413391"><ele>870.0</ele><time>2026-04-21T12:38:36.002Z</time></trkpt><trkpt lat="37.50301399528335" lon="-3.0514563294108523"><ele>870.0</ele><time>2026-04-21T12:38:37Z</time></trkpt><trkpt lat="37.50294979008639" lon="-3.0513773209886454"><ele>870.0</ele><time>2026-04-21T12:38:38Z</time></trkpt><trkpt lat="37.50289123782409" lon="-3.0512901438025137"><ele>870.0</ele><time>2026-04-21T12:38:39Z</time></trkpt><trkpt lat="37.50283869914891" lon="-3.051199348740047"><ele>870.0</ele><time>2026-04-21T12:38:40Z</time></trkpt><trkpt lat="37.50279064613815" lon="-3.0510885648580968"><ele>870.0</ele><time>2026-04-21T12:38:41Z</time></trkpt><trkpt lat="37.502745247809095" lon="-3.0509708956256145"><ele>870.0</ele><time>2026-04-21T12:38:42Z</time></trkpt><trkpt lat="37.50271620913439" lon="-3.0508526728197167"><ele>870.0</ele><time>2026-04-21T12:38:43Z</time></trkpt><trkpt lat="37.502667788780734" lon="-3.050753696332203"><ele>870.0</ele><time>2026-04-21T12:38:44Z</time></trkpt><trkpt lat="37.50258070118095" lon="-3.0506793051766743"><ele>870.0</ele><time>2026-04-21T12:38:45Z</time></trkpt><trkpt lat="37.502466660106336" lon="-3.05062728387319"><ele>871.0</ele><time>2026-04-21T12:38:46Z</time></trkpt><trkpt lat="37.502338276170676" lon="-3.050578549625223"><ele>872.0</ele><time>2026-04-21T12:38:47Z</time></trkpt><trkpt lat="37.50223222165083" lon="-3.050514468364844"><ele>873.0</ele><time>2026-04-21T12:38:48Z</time></trkpt><trkpt lat="37.502133393074885" lon="-3.0504549038496704"><ele>874.0</ele><time>2026-04-21T12:38:49Z</time></trkpt><trkpt lat="37.50204161706204" lon="-3.050389498866479"><ele>874.0</ele><time>2026-04-21T12:38:50Z</time></trkpt><trkpt lat="37.501948404486505" lon="-3.0503011551882175"><ele>874.0000000000001</ele><time>2026-04-21T12:38:51Z</time></trkpt><trkpt lat="37.50186334930094" lon="-3.050203357932198"><ele>874.0000000000001</ele><time>2026-04-21T12:38:52Z</time></trkpt><trkpt lat="37.50177562920771" lon="-3.050134999632129"><ele>874.0</ele><time>2026-04-21T12:38:53Z</time></trkpt><trkpt lat="37.50167833578821" lon="-3.050090817748658"><ele>874.0</ele><time>2026-04-21T12:38:54Z</time></trkpt><trkpt lat="37.50160489342804" lon="-3.0500635804917757"><ele>873.9999999999999</ele><time>2026-04-21T12:38:55Z</time></trkpt><trkpt lat="37.501541436767674" lon="-3.0500135447825527"><ele>874.0</ele><time>2026-04-21T12:38:56Z</time></trkpt><trkpt lat="37.50147810217456" lon="-3.0499137025479874"><ele>874.0</ele><time>2026-04-21T12:38:57Z</time></trkpt><trkpt lat="37.50142533684598" lon="-3.0498101712057775"><ele>874.0</ele><time>2026-04-21T12:38:58Z</time></trkpt><trkpt lat="37.50135623957156" lon="-3.049733933738734"><ele>873.9999999999999</ele><time>2026-04-21T12:38:59Z</time></trkpt><trkpt lat="37.50128985102323" lon="-3.0496760654522244"><ele>874.0</ele><time>2026-04-21T12:39:00Z</time></trkpt><trkpt lat="37.50120153503429" lon="-3.0496352465703125"><ele>872.0</ele><time>2026-04-21T12:39:01Z</time></trkpt><trkpt lat="37.50108544166367" lon="-3.0496352516212197"><ele>870.0</ele><time>2026-04-21T12:39:02Z</time></trkpt><trkpt lat="37.50096032912886" lon="-3.0496428707958434"><ele>868.0</ele><time>2026-04-21T12:39:03Z</time></trkpt><trkpt lat="37.50083735929775" lon="-3.0496591023363266"><ele>866.0</ele><time>2026-04-21T12:39:04Z</time></trkpt><trkpt lat="37.50072904608432" lon="-3.0496537727214097"><ele>866.0</ele><time>2026-04-21T12:39:05Z</time></trkpt><trkpt lat="37.50063081246424" lon="-3.049626380093906"><ele>865.9999999999999</ele><time>2026-04-21T12:39:06Z</time></trkpt><trkpt lat="37.50053054172185" lon="-3.0495790023121585"><ele>865.9999999999999</ele><time>2026-04-21T12:39:07Z</time></trkpt><trkpt lat="37.50042042408837" lon="-3.0495571869432503"><ele>866.0</ele><time>2026-04-21T12:39:08Z</time></trkpt><trkpt lat="37.50031103039728" lon="-3.049546621695148"><ele>866.0</ele><time>2026-04-21T12:39:09Z</time></trkpt><trkpt lat="37.500209750901085" lon="-3.049553132190396"><ele>869.0</ele><time>2026-04-21T12:39:10Z</time></trkpt><trkpt lat="37.50011333906849" lon="-3.049573673814095"><ele>871.9999999999999</ele><time>2026-04-21T12:39:11Z</time></trkpt><trkpt lat="37.500015562259826" lon="-3.04955538901034"><ele>874.9999999999999</ele><time>2026-04-21T12:39:12.001Z</time></trkpt><trkpt lat="37.499909958204896" lon="-3.049506684888442"><ele>878.0</ele><time>2026-04-21T12:39:13.001Z</time></trkpt><trkpt lat="37.49980296744674" lon="-3.0494386176587454"><ele>881.0</ele><time>2026-04-21T12:39:14.001Z</time></trkpt><trkpt lat="37.49971263775298" lon="-3.049340517750697"><ele>881.0</ele><time>2026-04-21T12:39:15.001Z</time></trkpt><trkpt lat="37.499648870391056" lon="-3.0492286787506564"><ele>880.9999999999999</ele><time>2026-04-21T12:39:16.001Z</time></trkpt><trkpt lat="37.4996041035121" lon="-3.049147850201831"><ele>880.9999999999999</ele><time>2026-04-21T12:39:17.001Z</time></trkpt><trkpt lat="37.49956880920983" lon="-3.049050983423271"><ele>881.0</ele><time>2026-04-21T12:39:18.001Z</time></trkpt><trkpt lat="37.49955142277827" lon="-3.0489740545311608"><ele>881.0</ele><time>2026-04-21T12:39:19.001Z</time></trkpt><trkpt lat="37.499439174722646" lon="-3.048892810326086"><ele>882.25</ele><time>2026-04-21T12:39:21.001Z</time></trkpt><trkpt lat="37.49933796775477" lon="-3.0488905670825663"><ele>883.5</ele><time>2026-04-21T12:39:22.001Z</time></trkpt><trkpt lat="37.49922634003136" lon="-3.0488923862644777"><ele>884.75</ele><time>2026-04-21T12:39:23.001Z</time></trkpt><trkpt lat="37.499109355397685" lon="-3.048850848714581"><ele>886.0</ele><time>2026-04-21T12:39:24.001Z</time></trkpt><trkpt lat="37.499000869796745" lon="-3.048800933574205"><ele>886.0</ele><time>2026-04-21T12:39:25.001Z</time></trkpt><trkpt lat="37.498912328126934" lon="-3.048783714459172"><ele>885.9999999999999</ele><time>2026-04-21T12:39:26.001Z</time></trkpt><trkpt lat="37.498819792308204" lon="-3.048796074709882"><ele>885.9999999999999</ele><time>2026-04-21T12:39:27.001Z</time></trkpt><trkpt lat="37.49870355040528" lon="-3.048844207469539"><ele>886.0</ele><time>2026-04-21T12:39:28.001Z</time></trkpt><trkpt lat="37.498612056284756" lon="-3.0488998148565702"><ele>886.0</ele><time>2026-04-21T12:39:29.001Z</time></trkpt><trkpt lat="37.498554840794334" lon="-3.048937980639599"><ele>887.1666666666666</ele><time>2026-04-21T12:39:30.001Z</time></trkpt><trkpt lat="37.4985642839177" lon="-3.0490244836644846"><ele>888.3333333333333</ele><time>2026-04-21T12:39:34.001Z</time></trkpt><trkpt lat="37.498633563539826" lon="-3.0489938103500367"><ele>889.5</ele><time>2026-04-21T12:39:38.001Z</time></trkpt><trkpt lat="37.49857648085723" lon="-3.0489602831860507"><ele>890.6666666666667</ele><time>2026-04-21T12:41:21.001Z</time></trkpt><trkpt lat="37.49844225308293" lon="-3.0489840348344863"><ele>891.8333333333334</ele><time>2026-04-21T12:41:23.001Z</time></trkpt><trkpt lat="37.498347344459695" lon="-3.049022118362795"><ele>893.0</ele><time>2026-04-21T12:41:24.001Z</time></trkpt><trkpt lat="37.49825165560775" lon="-3.049069992875044"><ele>893.0</ele><time>2026-04-21T12:41:25.001Z</time></trkpt><trkpt lat="37.49814235603364" lon="-3.049122429619461"><ele>893.0</ele><time>2026-04-21T12:41:26.001Z</time></trkpt><trkpt lat="37.498024212206595" lon="-3.049159026875621"><ele>893.0</ele><time>2026-04-21T12:41:27.001Z</time></trkpt><trkpt lat="37.49789137684685" lon="-3.0491767008940025"><ele>893.0</ele><time>2026-04-21T12:41:28.001Z</time></trkpt><trkpt lat="37.49774856184298" lon="-3.0491597869685636"><ele>896.75</ele><time>2026-04-21T12:41:29.001Z</time></trkpt><trkpt lat="37.497603040314935" lon="-3.049112896324593"><ele>900.5</ele><time>2026-04-21T12:41:30.001Z</time></trkpt><trkpt lat="37.49746323084362" lon="-3.0490658535106063"><ele>904.25</ele><time>2026-04-21T12:41:31.001Z</time></trkpt><trkpt lat="37.49733037200792" lon="-3.0490550159843552"><ele>908.0</ele><time>2026-04-21T12:41:32.001Z</time></trkpt><trkpt lat="37.49719907676432" lon="-3.049056083565916"><ele>912.5</ele><time>2026-04-21T12:41:33.001Z</time></trkpt><trkpt lat="37.49708559357581" lon="-3.0490583623568814"><ele>917.0</ele><time>2026-04-21T12:41:34.001Z</time></trkpt><trkpt lat="37.4969624057114" lon="-3.049072916979389"><ele>921.5</ele><time>2026-04-21T12:41:35.001Z</time></trkpt><trkpt lat="37.49682459442584" lon="-3.049101290482511"><ele>926.0</ele><time>2026-04-21T12:41:36.001Z</time></trkpt><trkpt lat="37.49669301626331" lon="-3.0491179017835526"><ele>926.0</ele><time>2026-04-21T12:41:37.001Z</time></trkpt><trkpt lat="37.4965623223162" lon="-3.049123147950193"><ele>926.0</ele><time>2026-04-21T12:41:38.001Z</time></trkpt><trkpt lat="37.49643144620111" lon="-3.0490896138885963"><ele>926.0</ele><time>2026-04-21T12:41:39.001Z</time></trkpt><trkpt lat="37.49630941874237" lon="-3.049026170610181"><ele>926.0</ele><time>2026-04-21T12:41:40.001Z</time></trkpt><trkpt lat="37.49620141414947" lon="-3.0489755502931217"><ele>930.0</ele><time>2026-04-21T12:41:41.001Z</time></trkpt><trkpt lat="37.49608851275888" lon="-3.048943238364156"><ele>933.9999999999999</ele><time>2026-04-21T12:41:42.001Z</time></trkpt><trkpt lat="37.49599933975828" lon="-3.048891219464202"><ele>937.9999999999999</ele><time>2026-04-21T12:41:43.001Z</time></trkpt><trkpt lat="37.49591618200187" lon="-3.048818286516138"><ele>942.0</ele><time>2026-04-21T12:41:44.001Z</time></trkpt><trkpt lat="37.49585646605447" lon="-3.048754551981066"><ele>946.0</ele><time>2026-04-21T12:41:45.001Z</time></trkpt><trkpt lat="37.49582250661509" lon="-3.0486446780297483"><ele>946.0</ele><time>2026-04-21T12:41:47.001Z</time></trkpt><trkpt lat="37.4959221438571" lon="-3.0485299308366196"><ele>945.9999999999999</ele><time>2026-04-21T12:41:49.001Z</time></trkpt><trkpt lat="37.496000227569056" lon="-3.0484628454298544"><ele>945.9999999999999</ele><time>2026-04-21T12:41:50.001Z</time></trkpt><trkpt lat="37.496085552364505" lon="-3.048421151648238"><ele>946.0</ele><time>2026-04-21T12:41:51.001Z</time></trkpt><trkpt lat="37.49616980705026" lon="-3.0483917129293716"><ele>946.0</ele><time>2026-04-21T12:41:52.001Z</time></trkpt><trkpt lat="37.496252282033424" lon="-3.0483451813225315"><ele>943.4999999999999</ele><time>2026-04-21T12:41:53.001Z</time></trkpt><trkpt lat="37.49631738093253" lon="-3.0482798508840903"><ele>941.0</ele><time>2026-04-21T12:41:54.001Z</time></trkpt><trkpt lat="37.496352570458775" lon="-3.0482036817596723"><ele>938.5</ele><time>2026-04-21T12:41:55.001Z</time></trkpt><trkpt lat="37.496349224071594" lon="-3.0481202182926714"><ele>936.0</ele><time>2026-04-21T12:41:56.001Z</time></trkpt><trkpt lat="37.496249267319385" lon="-3.0480296824029036"><ele>933.4999999999999</ele><time>2026-04-21T12:41:58.001Z</time></trkpt><trkpt lat="37.49617007985797" lon="-3.0480010206927735"><ele>931.0</ele><time>2026-04-21T12:41:59.001Z</time></trkpt><trkpt lat="37.49607934790074" lon="-3.0479800177910246"><ele>931.0</ele><time>2026-04-21T12:42:00.001Z</time></trkpt><trkpt lat="37.49599759500989" lon="-3.0479835400172095"><ele>930.9999999999999</ele><time>2026-04-21T12:42:01.001Z</time></trkpt><trkpt lat="37.49591896924868" lon="-3.048030983290745"><ele>930.9999999999999</ele><time>2026-04-21T12:42:02.001Z</time></trkpt><trkpt lat="37.49584608050475" lon="-3.048120135719502"><ele>931.0</ele><time>2026-04-21T12:42:03.001Z</time></trkpt><trkpt lat="37.49575496619286" lon="-3.048209395388787"><ele>931.0</ele><time>2026-04-21T12:42:04.001Z</time></trkpt><trkpt lat="37.49565842814741" lon="-3.0482537904259077"><ele>931.0</ele><time>2026-04-21T12:42:05.001Z</time></trkpt><trkpt lat="37.49555525643687" lon="-3.0482486188061038"><ele>931.0</ele><time>2026-04-21T12:42:06.001Z</time></trkpt><trkpt lat="37.49545133413946" lon="-3.0482182004488996"><ele>931.0</ele><time>2026-04-21T12:42:07.002Z</time></trkpt><trkpt lat="37.49533759869305" lon="-3.0481657726563127"><ele>931.0</ele><time>2026-04-21T12:42:08.002Z</time></trkpt><trkpt lat="37.49521820252183" lon="-3.048098995942941"><ele>934.5</ele><time>2026-04-21T12:42:09.002Z</time></trkpt><trkpt lat="37.495103823041404" lon="-3.0480404537582295"><ele>938.0</ele><time>2026-04-21T12:42:10.002Z</time></trkpt><trkpt lat="37.49500318847667" lon="-3.04801377932393"><ele>941.5</ele><time>2026-04-21T12:42:11.002Z</time></trkpt><trkpt lat="37.494894588238964" lon="-3.047994896686535"><ele>945.0</ele><time>2026-04-21T12:42:12.002Z</time></trkpt><trkpt lat="37.494778458692586" lon="-3.0479794571529557"><ele>945.0</ele><time>2026-04-21T12:42:13.002Z</time></trkpt><trkpt lat="37.49465163229311" lon="-3.0479702363394816"><ele>945.0</ele><time>2026-04-21T12:42:14.002Z</time></trkpt><trkpt lat="37.49452102686895" lon="-3.0479566886252774"><ele>945.0</ele><time>2026-04-21T12:42:15.002Z</time></trkpt><trkpt lat="37.49438746431124" lon="-3.0479338972776158"><ele>945.0</ele><time>2026-04-21T12:42:16.002Z</time></trkpt><trkpt lat="37.49424959271214" lon="-3.047902135866043"><ele>947.75</ele><time>2026-04-21T12:42:17.002Z</time></trkpt><trkpt lat="37.494111062548384" lon="-3.0478584621551814"><ele>950.5</ele><time>2026-04-21T12:42:18.002Z</time></trkpt><trkpt lat="37.49398546459176" lon="-3.047803398637133"><ele>953.25</ele><time>2026-04-21T12:42:19.002Z</time></trkpt><trkpt lat="37.49388995067958" lon="-3.0477582297002646"><ele>956.0</ele><time>2026-04-21T12:42:20.002Z</time></trkpt><trkpt lat="37.49380045696726" lon="-3.047742070521744"><ele>958.0</ele><time>2026-04-21T12:42:21.002Z</time></trkpt><trkpt lat="37.49371760549833" lon="-3.047751935349934"><ele>959.9999999999999</ele><time>2026-04-21T12:42:22.002Z</time></trkpt><trkpt lat="37.49361713602256" lon="-3.0477510912539447"><ele>961.9999999999999</ele><time>2026-04-21T12:42:23.002Z</time></trkpt><trkpt lat="37.49351040212504" lon="-3.0477578649909702"><ele>964.0</ele><time>2026-04-21T12:42:24.002Z</time></trkpt><trkpt lat="37.49340459247313" lon="-3.0477705266711768"><ele>966.0</ele><time>2026-04-21T12:42:25.002Z</time></trkpt><trkpt lat="37.49333151858885" lon="-3.047783020820328"><ele>966.0</ele><time>2026-04-21T12:42:26.002Z</time></trkpt><trkpt lat="37.493228336837625" lon="-3.047753493406843"><ele>966.0</ele><time>2026-04-21T12:42:28.002Z</time></trkpt><trkpt lat="37.493149677368066" lon="-3.0476537845401013"><ele>966.0</ele><time>2026-04-21T12:42:30.002Z</time></trkpt><trkpt lat="37.49311229649751" lon="-3.0475790922045007"><ele>966.0</ele><time>2026-04-21T12:42:31.002Z</time></trkpt><trkpt lat="37.49307009872639" lon="-3.047503003786158"><ele>966.0</ele><time>2026-04-21T12:42:32.002Z</time></trkpt><trkpt lat="37.49301840807011" lon="-3.0474289118991287"><ele>966.0</ele><time>2026-04-21T12:42:33.002Z</time></trkpt><trkpt lat="37.49296016598715" lon="-3.0473591221031815"><ele>967.1666666666666</ele><time>2026-04-21T12:42:34.002Z</time></trkpt><trkpt lat="37.49290139971888" lon="-3.0472931758955704"><ele>968.3333333333333</ele><time>2026-04-21T12:42:35.002Z</time></trkpt><trkpt lat="37.4928438038367" lon="-3.047227886074231"><ele>969.5</ele><time>2026-04-21T12:42:36.002Z</time></trkpt><trkpt lat="37.49279385414852" lon="-3.047166026918308"><ele>970.6666666666666</ele><time>2026-04-21T12:42:37.002Z</time></trkpt><trkpt lat="37.49270899251512" lon="-3.0470653902689366"><ele>971.8333333333333</ele><time>2026-04-21T12:42:39.002Z</time></trkpt><trkpt lat="37.49264571555642" lon="-3.047024604724575"><ele>973.0</ele><time>2026-04-21T12:42:41.002Z</time></trkpt><trkpt lat="37.49256036878846" lon="-3.0469837501427395"><ele>973.0</ele><time>2026-04-21T12:43:22Z</time></trkpt><trkpt lat="37.492514293569876" lon="-3.0469247796165977"><ele>973.0</ele><time>2026-04-21T12:43:23Z</time></trkpt><trkpt lat="37.49245201200373" lon="-3.0468521077440336"><ele>973.0</ele><time>2026-04-21T12:43:24Z</time></trkpt><trkpt lat="37.49237957594701" lon="-3.0467884812952257"><ele>973.0</ele><time>2026-04-21T12:43:25Z</time></trkpt><trkpt lat="37.49228053621357" lon="-3.0467230805701453"><ele>973.0</ele><time>2026-04-21T12:43:26.001Z</time></trkpt><trkpt lat="37.49215024478962" lon="-3.0466545631941213"><ele>975.3333333333333</ele><time>2026-04-21T12:43:27.001Z</time></trkpt><trkpt lat="37.491981660060176" lon="-3.046571551947562"><ele>977.6666666666667</ele><time>2026-04-21T12:43:28.001Z</time></trkpt><trkpt lat="37.491790625014254" lon="-3.0464694635025906"><ele>980.0</ele><time>2026-04-21T12:43:29.001Z</time></trkpt><trkpt lat="37.49158566782414" lon="-3.0463564009552235"><ele>980.0</ele><time>2026-04-21T12:43:30.001Z</time></trkpt><trkpt lat="37.491376179489016" lon="-3.0462361126797477"><ele>980.0</ele><time>2026-04-21T12:43:31.001Z</time></trkpt><trkpt lat="37.49118293290871" lon="-3.04611386790552"><ele>980.0</ele><time>2026-04-21T12:43:32.001Z</time></trkpt><trkpt lat="37.491001665787834" lon="-3.0460219513331994"><ele>981.0</ele><time>2026-04-21T12:43:33.001Z</time></trkpt><trkpt lat="37.490811303712924" lon="-3.0459125482270974"><ele>982.0</ele><time>2026-04-21T12:43:34.001Z</time></trkpt><trkpt lat="37.4906249071861" lon="-3.0457892403823066"><ele>983.0</ele><time>2026-04-21T12:43:35.001Z</time></trkpt><trkpt lat="37.49045897644151" lon="-3.045689215606007"><ele>983.6666666666667</ele><time>2026-04-21T12:43:36.001Z</time></trkpt><trkpt lat="37.49028403434469" lon="-3.0455901777837178"><ele>984.3333333333333</ele><time>2026-04-21T12:43:37.001Z</time></trkpt><trkpt lat="37.49009115908548" lon="-3.0454778031756886"><ele>985.0</ele><time>2026-04-21T12:43:38.001Z</time></trkpt><trkpt lat="37.4899049603827" lon="-3.0453687283363253"><ele>985.0</ele><time>2026-04-21T12:43:39.001Z</time></trkpt><trkpt lat="37.48974715592928" lon="-3.0452766540924947"><ele>985.0</ele><time>2026-04-21T12:43:40.001Z</time></trkpt><trkpt lat="37.48959605938486" lon="-3.0451938538043306"><ele>985.0</ele><time>2026-04-21T12:43:41.001Z</time></trkpt><trkpt lat="37.48944461586799" lon="-3.04511277505818"><ele>984.75</ele><time>2026-04-21T12:43:42.001Z</time></trkpt><trkpt lat="37.489298054014206" lon="-3.0450317053733107"><ele>984.5</ele><time>2026-04-21T12:43:43.001Z</time></trkpt><trkpt lat="37.48917312462974" lon="-3.044949237955724"><ele>984.25</ele><time>2026-04-21T12:43:44.001Z</time></trkpt><trkpt lat="37.489047206999565" lon="-3.044866728549871"><ele>984.0</ele><time>2026-04-21T12:43:45.001Z</time></trkpt><trkpt lat="37.48892660688451" lon="-3.0447516647270283"><ele>984.0</ele><time>2026-04-21T12:43:46.001Z</time></trkpt><trkpt lat="37.4887976865825" lon="-3.0446178986390517"><ele>984.0</ele><time>2026-04-21T12:43:47.001Z</time></trkpt><trkpt lat="37.488660866655586" lon="-3.0444771649173767"><ele>984.0</ele><time>2026-04-21T12:43:48.001Z</time></trkpt><trkpt lat="37.488550023828275" lon="-3.044323852875267"><ele>983.0</ele><time>2026-04-21T12:43:49.001Z</time></trkpt><trkpt lat="37.488428763083654" lon="-3.0441723430158993"><ele>982.0</ele><time>2026-04-21T12:43:50.001Z</time></trkpt><trkpt lat="37.48829690119788" lon="-3.0440465884759322"><ele>981.0</ele><time>2026-04-21T12:43:51.001Z</time></trkpt><trkpt lat="37.48815818584426" lon="-3.0439050890416626"><ele>980.3333333333333</ele><time>2026-04-21T12:43:52.001Z</time></trkpt><trkpt lat="37.488010691231494" lon="-3.0437429720698765"><ele>979.6666666666666</ele><time>2026-04-21T12:43:53.001Z</time></trkpt><trkpt lat="37.48786333224637" lon="-3.0435747053083797"><ele>979.0</ele><time>2026-04-21T12:43:54.001Z</time></trkpt><trkpt lat="37.48771560805082" lon="-3.043410828392446"><ele>981.6666666666666</ele><time>2026-04-21T12:43:55.001Z</time></trkpt><trkpt lat="37.48757959528495" lon="-3.0432632905271992"><ele>984.3333333333333</ele><time>2026-04-21T12:43:56.001Z</time></trkpt><trkpt lat="37.487463002007914" lon="-3.043124196373926"><ele>987.0</ele><time>2026-04-21T12:43:57.001Z</time></trkpt><trkpt lat="37.487356843112835" lon="-3.0429912419621057"><ele>987.0</ele><time>2026-04-21T12:43:58.001Z</time></trkpt><trkpt lat="37.48724844933101" lon="-3.0428627157245165"><ele>987.0</ele><time>2026-04-21T12:43:59.001Z</time></trkpt><trkpt lat="37.487118782540044" lon="-3.042713640794252"><ele>987.0</ele><time>2026-04-21T12:44:00.001Z</time></trkpt><trkpt lat="37.48696649295698" lon="-3.042557415497223"><ele>988.0</ele><time>2026-04-21T12:44:01.001Z</time></trkpt><trkpt lat="37.486807008274496" lon="-3.042404354588854"><ele>989.0</ele><time>2026-04-21T12:44:02.001Z</time></trkpt><trkpt lat="37.48665342356046" lon="-3.0422641492147005"><ele>990.0</ele><time>2026-04-21T12:44:03.001Z</time></trkpt><trkpt lat="37.486501933217596" lon="-3.042123070334757"><ele>990.0</ele><time>2026-04-21T12:44:04.001Z</time></trkpt><trkpt lat="37.48635958780125" lon="-3.0420020918496027"><ele>990.0</ele><time>2026-04-21T12:44:05.001Z</time></trkpt><trkpt lat="37.486227647900854" lon="-3.041901369933513"><ele>990.0</ele><time>2026-04-21T12:44:06.001Z</time></trkpt><trkpt lat="37.48610575565457" lon="-3.0418171089128117"><ele>989.6666666666667</ele><time>2026-04-21T12:44:07.001Z</time></trkpt><trkpt lat="37.48597836336309" lon="-3.0417351050460435"><ele>989.3333333333334</ele><time>2026-04-21T12:44:08.001Z</time></trkpt><trkpt lat="37.48583205840755" lon="-3.0416522097390244"><ele>989.0</ele><time>2026-04-21T12:44:09.001Z</time></trkpt><trkpt lat="37.485671977464825" lon="-3.0415658899965843"><ele>989.6666666666667</ele><time>2026-04-21T12:44:10.001Z</time></trkpt><trkpt lat="37.485530751942" lon="-3.0414807991657233"><ele>990.3333333333333</ele><time>2026-04-21T12:44:11.001Z</time></trkpt><trkpt lat="37.485406614144544" lon="-3.041389403742717"><ele>991.0</ele><time>2026-04-21T12:44:12.001Z</time></trkpt><trkpt lat="37.48527372658343" lon="-3.0412706049975404"><ele>991.6666666666666</ele><time>2026-04-21T12:44:13.001Z</time></trkpt><trkpt lat="37.485126715059636" lon="-3.0411057475921033"><ele>992.3333333333333</ele><time>2026-04-21T12:44:14.001Z</time></trkpt><trkpt lat="37.48496227445382" lon="-3.0409039640396536"><ele>993.0</ele><time>2026-04-21T12:44:15.001Z</time></trkpt><trkpt lat="37.484787576605456" lon="-3.040692047025659"><ele>993.0</ele><time>2026-04-21T12:44:16.001Z</time></trkpt><trkpt lat="37.48464170070883" lon="-3.040523547497007"><ele>993.0</ele><time>2026-04-21T12:44:17.001Z</time></trkpt><trkpt lat="37.484524509632266" lon="-3.040385842026801"><ele>993.0</ele><time>2026-04-21T12:44:18.001Z</time></trkpt><trkpt lat="37.48441946353775" lon="-3.0402688762416923"><ele>992.6666666666667</ele><time>2026-04-21T12:44:19.001Z</time></trkpt><trkpt lat="37.48429555790628" lon="-3.0401441848423567"><ele>992.3333333333334</ele><time>2026-04-21T12:44:20.001Z</time></trkpt><trkpt lat="37.48414232181942" lon="-3.040031723143524"><ele>992.0</ele><time>2026-04-21T12:44:21.001Z</time></trkpt><trkpt lat="37.48398485583428" lon="-3.0399421197007648"><ele>992.0</ele><time>2026-04-21T12:44:22.001Z</time></trkpt><trkpt lat="37.48385013293473" lon="-3.0398668323884745"><ele>992.0</ele><time>2026-04-21T12:44:23.001Z</time></trkpt><trkpt lat="37.48373725852382" lon="-3.039805091310054"><ele>992.0</ele><time>2026-04-21T12:44:24.001Z</time></trkpt><trkpt lat="37.48364119751511" lon="-3.039748856574851"><ele>992.0</ele><time>2026-04-21T12:44:25.001Z</time></trkpt><trkpt lat="37.48356838587666" lon="-3.039689751893804"><ele>992.1666666666667</ele><time>2026-04-21T12:44:26.001Z</time></trkpt><trkpt lat="37.48351394288432" lon="-3.039631501481"><ele>992.3333333333334</ele><time>2026-04-21T12:44:27.002Z</time></trkpt><trkpt lat="37.48347431678932" lon="-3.0395496132696995"><ele>992.5</ele><time>2026-04-21T12:44:28.002Z</time></trkpt><trkpt lat="37.48345573594621" lon="-3.039448219196806"><ele>992.6666666666667</ele><time>2026-04-21T12:44:29.002Z</time></trkpt><trkpt lat="37.48341183204295" lon="-3.039366352439217"><ele>992.8333333333334</ele><time>2026-04-21T12:44:30.002Z</time></trkpt><trkpt lat="37.48333304429832" lon="-3.039285810801441"><ele>993.0</ele><time>2026-04-21T12:44:31.002Z</time></trkpt><trkpt lat="37.48323105432553" lon="-3.039194378154441"><ele>993.0</ele><time>2026-04-21T12:44:32.002Z</time></trkpt><trkpt lat="37.483100707310584" lon="-3.039084971768313"><ele>993.0</ele><time>2026-04-21T12:44:33.002Z</time></trkpt><trkpt lat="37.48295937918609" lon="-3.038962172933185"><ele>993.0</ele><time>2026-04-21T12:44:34.002Z</time></trkpt><trkpt lat="37.48283325730434" lon="-3.038856239604963"><ele>993.3333333333333</ele><time>2026-04-21T12:44:35.002Z</time></trkpt><trkpt lat="37.48270144842019" lon="-3.038777588033774"><ele>993.6666666666666</ele><time>2026-04-21T12:44:36.002Z</time></trkpt><trkpt lat="37.48254483279238" lon="-3.038710179727707"><ele>994.0</ele><time>2026-04-21T12:44:37.002Z</time></trkpt><trkpt lat="37.48236871356853" lon="-3.038667956731207"><ele>994.0</ele><time>2026-04-21T12:44:38.002Z</time></trkpt><trkpt lat="37.48219184198254" lon="-3.038604939375921"><ele>994.0</ele><time>2026-04-21T12:44:39.002Z</time></trkpt><trkpt lat="37.48200651674475" lon="-3.038502966667107"><ele>994.0</ele><time>2026-04-21T12:44:40.002Z</time></trkpt><trkpt lat="37.481834706094084" lon="-3.0383764102799717"><ele>997.0</ele><time>2026-04-21T12:44:41.002Z</time></trkpt><trkpt lat="37.48170632440709" lon="-3.038268983680988"><ele>1000.0</ele><time>2026-04-21T12:44:42.002Z</time></trkpt><trkpt lat="37.481585988798635" lon="-3.038196860952203"><ele>1003.0</ele><time>2026-04-21T12:44:43.002Z</time></trkpt><trkpt lat="37.4814486785297" lon="-3.038135397072162"><ele>1006.0</ele><time>2026-04-21T12:44:44.002Z</time></trkpt><trkpt lat="37.48130286771759" lon="-3.0380264397328696"><ele>1004.3333333333333</ele><time>2026-04-21T12:44:45.002Z</time></trkpt><trkpt lat="37.48116394714045" lon="-3.037868223729992"><ele>1002.6666666666667</ele><time>2026-04-21T12:44:46.002Z</time></trkpt><trkpt lat="37.481025711680815" lon="-3.037685174223707"><ele>1001.0</ele><time>2026-04-21T12:44:47.002Z</time></trkpt><trkpt lat="37.480893481737354" lon="-3.03752001063589"><ele>1001.5</ele><time>2026-04-21T12:44:48.002Z</time></trkpt><trkpt lat="37.480770983547785" lon="-3.0373727258786154"><ele>1002.0</ele><time>2026-04-21T12:44:49.002Z</time></trkpt><trkpt lat="37.4806787259992" lon="-3.0372506047254797"><ele>1002.5</ele><time>2026-04-21T12:44:50.002Z</time></trkpt><trkpt lat="37.48059325076983" lon="-3.0371298150377335"><ele>1003.0</ele><time>2026-04-21T12:44:51.002Z</time></trkpt><trkpt lat="37.48047504879366" lon="-3.0369838076666706"><ele>1002.3333333333333</ele><time>2026-04-21T12:44:52.002Z</time></trkpt><trkpt lat="37.48035407717872" lon="-3.0368409740576974"><ele>1001.6666666666667</ele><time>2026-04-21T12:44:53.002Z</time></trkpt><trkpt lat="37.480248623467425" lon="-3.0367215891968535"><ele>1001.0</ele><time>2026-04-21T12:44:54.002Z</time></trkpt><trkpt lat="37.48012146927173" lon="-3.036613601130749"><ele>1002.3333333333334</ele><time>2026-04-21T12:44:54.999Z</time></trkpt><trkpt lat="37.47995627741871" lon="-3.0365293702297103"><ele>1003.6666666666667</ele><time>2026-04-21T12:44:55.999Z</time></trkpt><trkpt lat="37.47976091172941" lon="-3.0364536309555428"><ele>1005.0</ele><time>2026-04-21T12:44:56.999Z</time></trkpt><trkpt lat="37.47955519753034" lon="-3.036368984998128"><ele>1006.0</ele><time>2026-04-21T12:44:57.999Z</time></trkpt><trkpt lat="37.47936242286303" lon="-3.0362770384060993"><ele>1007.0</ele><time>2026-04-21T12:44:58.999Z</time></trkpt><trkpt lat="37.47921505657858" lon="-3.0361929803261196"><ele>1008.0</ele><time>2026-04-21T12:44:59.999Z</time></trkpt><trkpt lat="37.47907881948231" lon="-3.036117930520764"><ele>1008.0</ele><time>2026-04-21T12:45:00.999Z</time></trkpt><trkpt lat="37.47894438675171" lon="-3.036051791009679"><ele>1008.0</ele><time>2026-04-21T12:45:01.999Z</time></trkpt><trkpt lat="37.4788046020708" lon="-3.036005819973555"><ele>1008.0</ele><time>2026-04-21T12:45:02.999Z</time></trkpt><trkpt lat="37.47867823923665" lon="-3.035978926533707"><ele>1008.0</ele><time>2026-04-21T12:45:03.999Z</time></trkpt><trkpt lat="37.4785839486574" lon="-3.035964388739434"><ele>1008.0</ele><time>2026-04-21T12:45:04.999Z</time></trkpt><trkpt lat="37.478501406085" lon="-3.03594383981098"><ele>1008.0</ele><time>2026-04-21T12:45:06.999Z</time></trkpt><trkpt lat="37.47845621564703" lon="-3.0360238194910507"><ele>1008.0</ele><time>2026-04-21T12:45:09.999Z</time></trkpt><trkpt lat="37.47841604050172" lon="-3.0361420880969536"><ele>1008.0</ele><time>2026-04-21T12:45:12Z</time></trkpt><trkpt lat="37.478366638062774" lon="-3.036199494153999"><ele>1008.0</ele><time>2026-04-21T12:52:53.001Z</time></trkpt><trkpt lat="37.47828356034289" lon="-3.0361461044455558"><ele>1008.0</ele><time>2026-04-21T12:52:56.001Z</time></trkpt><trkpt lat="37.47818753623285" lon="-3.03611485128717"><ele>1008.0</ele><time>2026-04-21T12:52:58.001Z</time></trkpt><trkpt lat="37.478067374235955" lon="-3.036083751580555"><ele>1008.0</ele><time>2026-04-21T12:53:00.001Z</time></trkpt><trkpt lat="37.47800234334096" lon="-3.0360654117071886"><ele>1008.0</ele><time>2026-04-21T12:53:01.001Z</time></trkpt><trkpt lat="37.47793650787723" lon="-3.036043322100515"><ele>1008.0</ele><time>2026-04-21T12:53:02.001Z</time></trkpt><trkpt lat="37.47785769478654" lon="-3.0360239221459824"><ele>1008.0</ele><time>2026-04-21T12:53:03.001Z</time></trkpt><trkpt lat="37.47777880339837" lon="-3.0359907132254107"><ele>1008.0</ele><time>2026-04-21T12:53:04.001Z</time></trkpt><trkpt lat="37.47770573717564" lon="-3.0359633031073057"><ele>1007.1428571428571</ele><time>2026-04-21T12:53:05.001Z</time></trkpt><trkpt lat="37.47763225836844" lon="-3.0359498501840183"><ele>1006.2857142857142</ele><time>2026-04-21T12:53:06.001Z</time></trkpt><trkpt lat="37.4775532961482" lon="-3.035938042101883"><ele>1005.4285714285714</ele><time>2026-04-21T12:53:07.001Z</time></trkpt><trkpt lat="37.477477102759174" lon="-3.0359304565540697"><ele>1004.5714285714286</ele><time>2026-04-21T12:53:08.001Z</time></trkpt><trkpt lat="37.47740795911144" lon="-3.035912412064381"><ele>1003.7142857142857</ele><time>2026-04-21T12:53:09.001Z</time></trkpt><trkpt lat="37.477341613174076" lon="-3.0358842998786204"><ele>1002.8571428571429</ele><time>2026-04-21T12:53:10.001Z</time></trkpt><trkpt lat="37.477267640222784" lon="-3.0358957121092"><ele>1002.0</ele><time>2026-04-21T12:53:11.001Z</time></trkpt><trkpt lat="37.47720040718732" lon="-3.0359048340983357"><ele>1002.0</ele><time>2026-04-21T12:53:12.001Z</time></trkpt><trkpt lat="37.47713076921925" lon="-3.035907262878718"><ele>1002.0</ele><time>2026-04-21T12:53:13.001Z</time></trkpt><trkpt lat="37.47706547615095" lon="-3.035905637663895"><ele>1002.0</ele><time>2026-04-21T12:53:14.001Z</time></trkpt><trkpt lat="37.47698674780888" lon="-3.035903678031874"><ele>1002.0</ele><time>2026-04-21T12:53:15.001Z</time></trkpt><trkpt lat="37.47689805845269" lon="-3.0359117102467414"><ele>1002.0</ele><time>2026-04-21T12:53:16.001Z</time></trkpt><trkpt lat="37.47681212443954" lon="-3.0359315580315567"><ele>1002.0</ele><time>2026-04-21T12:53:17.001Z</time></trkpt><trkpt lat="37.47672869444378" lon="-3.035962083228993"><ele>1000.2</ele><time>2026-04-21T12:53:18.001Z</time></trkpt><trkpt lat="37.47664253243025" lon="-3.035993308962031"><ele>998.4000000000001</ele><time>2026-04-21T12:53:19.001Z</time></trkpt><trkpt lat="37.476552062613486" lon="-3.0360308560287543"><ele>996.5999999999999</ele><time>2026-04-21T12:53:20.001Z</time></trkpt><trkpt lat="37.47646283095501" lon="-3.036044621573815"><ele>994.8</ele><time>2026-04-21T12:53:21.001Z</time></trkpt><trkpt lat="37.47636979030953" lon="-3.0360341737996217"><ele>993.0</ele><time>2026-04-21T12:53:22.001Z</time></trkpt><trkpt lat="37.47626627797692" lon="-3.0359626870534138"><ele>995.4</ele><time>2026-04-21T12:53:23.001Z</time></trkpt><trkpt lat="37.476174507539106" lon="-3.0358993129224547"><ele>997.8</ele><time>2026-04-21T12:53:24.001Z</time></trkpt><trkpt lat="37.476069878790426" lon="-3.0358271194066773"><ele>1000.2</ele><time>2026-04-21T12:53:25.001Z</time></trkpt><trkpt lat="37.47596819166929" lon="-3.035756955644949"><ele>1002.6</ele><time>2026-04-21T12:53:26.001Z</time></trkpt><trkpt lat="37.47588179873596" lon="-3.0357007941070897"><ele>1005.0</ele><time>2026-04-21T12:53:27.001Z</time></trkpt><trkpt lat="37.47580125186811" lon="-3.035652198278628"><ele>1005.0</ele><time>2026-04-21T12:53:28.001Z</time></trkpt><trkpt lat="37.47571995299661" lon="-3.0356173200620917"><ele>1005.0</ele><time>2026-04-21T12:53:29.001Z</time></trkpt><trkpt lat="37.475642106726724" lon="-3.0356007662338262"><ele>1005.0</ele><time>2026-04-21T12:53:30.001Z</time></trkpt><trkpt lat="37.475568480872155" lon="-3.0355844139772494"><ele>1005.0</ele><time>2026-04-21T12:53:31.001Z</time></trkpt><trkpt lat="37.47550238321358" lon="-3.035569733723053"><ele>1005.0</ele><time>2026-04-21T12:53:32.001Z</time></trkpt><trkpt lat="37.475399722576526" lon="-3.035555981485288"><ele>1005.0</ele><time>2026-04-21T12:53:34.001Z</time></trkpt><trkpt lat="37.47538082381158" lon="-3.0356476238676544"><ele>1005.0</ele><time>2026-04-21T12:53:37Z</time></trkpt><trkpt lat="37.47551460923871" lon="-3.035704760632404"><ele>1005.0</ele><time>2026-04-21T12:53:39Z</time></trkpt><trkpt lat="37.47560406847663" lon="-3.035743811508659"><ele>1005.0</ele><time>2026-04-21T12:53:40Z</time></trkpt><trkpt lat="37.47569162524954" lon="-3.035816822160886"><ele>1005.0</ele><time>2026-04-21T12:53:41Z</time></trkpt><trkpt lat="37.47574853654996" lon="-3.035912853815283"><ele>1005.0</ele><time>2026-04-21T12:53:42Z</time></trkpt><trkpt lat="37.4757978497718" lon="-3.0360252170769844"><ele>999.6</ele><time>2026-04-21T12:53:43Z</time></trkpt><trkpt lat="37.47586298833842" lon="-3.036117199908041"><ele>994.2</ele><time>2026-04-21T12:53:44Z</time></trkpt><trkpt lat="37.47595209008442" lon="-3.036161627783588"><ele>988.8</ele><time>2026-04-21T12:53:45Z</time></trkpt><trkpt lat="37.47601926526793" lon="-3.0362373970692196"><ele>983.4</ele><time>2026-04-21T12:53:46Z</time></trkpt><trkpt lat="37.47607372950733" lon="-3.0363144234921515"><ele>978.0</ele><time>2026-04-21T12:53:47Z</time></trkpt><trkpt lat="37.476107719861" lon="-3.036419343706424"><ele>978.0</ele><time>2026-04-21T12:53:48Z</time></trkpt><trkpt lat="37.476140586056005" lon="-3.036527838864478"><ele>978.0</ele><time>2026-04-21T12:53:49Z</time></trkpt><trkpt lat="37.476182293709876" lon="-3.0366210847638584"><ele>978.0</ele><time>2026-04-21T12:53:50Z</time></trkpt><trkpt lat="37.47624367154679" lon="-3.036695284477612"><ele>978.0</ele><time>2026-04-21T12:53:51Z</time></trkpt><trkpt lat="37.47631226367331" lon="-3.03677101696379"><ele>978.0</ele><time>2026-04-21T12:53:52Z</time></trkpt><trkpt lat="37.476373796934254" lon="-3.0368343833135047"><ele>978.0</ele><time>2026-04-21T12:53:53Z</time></trkpt><trkpt lat="37.47642798950896" lon="-3.0368919377119648"><ele>973.8333333333334</ele><time>2026-04-21T12:53:54Z</time></trkpt><trkpt lat="37.47647897961916" lon="-3.0369538267604934"><ele>969.6666666666667</ele><time>2026-04-21T12:53:55Z</time></trkpt><trkpt lat="37.47653085837828" lon="-3.037055310489327"><ele>965.5</ele><time>2026-04-21T12:53:57Z</time></trkpt><trkpt lat="37.47648689828201" lon="-3.037133842718873"><ele>961.3333333333334</ele><time>2026-04-21T12:53:58Z</time></trkpt><trkpt lat="37.476397170629234" lon="-3.037157933207807"><ele>957.1666666666667</ele><time>2026-04-21T12:53:59Z</time></trkpt><trkpt lat="37.476304075343975" lon="-3.0371550891016197"><ele>953.0</ele><time>2026-04-21T12:54:00Z</time></trkpt><trkpt lat="37.476198144723924" lon="-3.0371388214352137"><ele>952.4</ele><time>2026-04-21T12:54:01Z</time></trkpt><trkpt lat="37.476091106562585" lon="-3.0370650492767806"><ele>951.8</ele><time>2026-04-21T12:54:02Z</time></trkpt><trkpt lat="37.47599122553974" lon="-3.0370161415196564"><ele>951.2</ele><time>2026-04-21T12:54:03Z</time></trkpt><trkpt lat="37.47590694463068" lon="-3.0369828335400886"><ele>950.6</ele><time>2026-04-21T12:54:04Z</time></trkpt><trkpt lat="37.47583435916092" lon="-3.036964283833752"><ele>950.0</ele><time>2026-04-21T12:54:05Z</time></trkpt><trkpt lat="37.47575768158033" lon="-3.0369893014311717"><ele>950.0000000000001</ele><time>2026-04-21T12:54:06Z</time></trkpt><trkpt lat="37.475675199178355" lon="-3.0370468529242873"><ele>950.0</ele><time>2026-04-21T12:54:07Z</time></trkpt><trkpt lat="37.47559387635383" lon="-3.037084260035127"><ele>950.0</ele><time>2026-04-21T12:54:08Z</time></trkpt><trkpt lat="37.4755408754998" lon="-3.0371405250005417"><ele>950.0</ele><time>2026-04-21T12:54:09Z</time></trkpt><trkpt lat="37.47549886172638" lon="-3.037212589245612"><ele>950.0000000000001</ele><time>2026-04-21T12:54:10Z</time></trkpt><trkpt lat="37.47551016002961" lon="-3.037316696337585"><ele>950.0</ele><time>2026-04-21T12:54:11Z</time></trkpt><trkpt lat="37.47548503236171" lon="-3.037438959062121"><ele>946.6</ele><time>2026-04-21T12:54:12Z</time></trkpt><trkpt lat="37.475464875548916" lon="-3.037564813156458"><ele>943.2</ele><time>2026-04-21T12:54:13Z</time></trkpt><trkpt lat="37.47543148542293" lon="-3.037682128877002"><ele>939.8</ele><time>2026-04-21T12:54:14Z</time></trkpt><trkpt lat="37.47540545989492" lon="-3.03780985217514"><ele>936.4</ele><time>2026-04-21T12:54:15Z</time></trkpt><trkpt lat="37.47538913764339" lon="-3.0379368744508137"><ele>933.0</ele><time>2026-04-21T12:54:16Z</time></trkpt><trkpt lat="37.475376557820134" lon="-3.038062570818542"><ele>930.4</ele><time>2026-04-21T12:54:17Z</time></trkpt><trkpt lat="37.47537980931003" lon="-3.0381862029375424"><ele>927.8</ele><time>2026-04-21T12:54:18Z</time></trkpt><trkpt lat="37.4753747299707" lon="-3.0383175863632474"><ele>925.2</ele><time>2026-04-21T12:54:19Z</time></trkpt><trkpt lat="37.47536078054037" lon="-3.0384650566493665"><ele>922.6</ele><time>2026-04-21T12:54:20Z</time></trkpt><trkpt lat="37.4753627516887" lon="-3.038604119956358"><ele>920.0</ele><time>2026-04-21T12:54:21Z</time></trkpt><trkpt lat="37.47536109896867" lon="-3.038730028568742"><ele>918.5000000000001</ele><time>2026-04-21T12:54:22Z</time></trkpt><trkpt lat="37.475362031963414" lon="-3.0388406660139125"><ele>917.0</ele><time>2026-04-21T12:54:23Z</time></trkpt><trkpt lat="37.4753792163774" lon="-3.038930688518297"><ele>915.5</ele><time>2026-04-21T12:54:24Z</time></trkpt><trkpt lat="37.47541311002579" lon="-3.03903163819665"><ele>914.0</ele><time>2026-04-21T12:54:25Z</time></trkpt><trkpt lat="37.475461060153606" lon="-3.039131446762944"><ele>912.5000000000001</ele><time>2026-04-21T12:54:26Z</time></trkpt><trkpt lat="37.47550788496688" lon="-3.0392245950033305"><ele>911.0</ele><time>2026-04-21T12:54:27Z</time></trkpt><trkpt lat="37.475558398613515" lon="-3.039290652536842"><ele>911.0000000000001</ele><time>2026-04-21T12:54:28Z</time></trkpt><trkpt lat="37.47561858886026" lon="-3.039315014968599"><ele>911.0</ele><time>2026-04-21T12:54:29Z</time></trkpt><trkpt lat="37.47568599241142" lon="-3.039259346951099"><ele>911.0</ele><time>2026-04-21T12:54:30Z</time></trkpt><trkpt lat="37.47573788418804" lon="-3.039181639967334"><ele>911.0</ele><time>2026-04-21T12:54:31Z</time></trkpt><trkpt lat="37.47580325252752" lon="-3.0391279406552676"><ele>911.0000000000001</ele><time>2026-04-21T12:54:32Z</time></trkpt><trkpt lat="37.47587660100011" lon="-3.039115066097627"><ele>911.0</ele><time>2026-04-21T12:54:34Z</time></trkpt><trkpt lat="37.47586993907873" lon="-3.039261608685765"><ele>907.4</ele><time>2026-04-21T12:54:36Z</time></trkpt><trkpt lat="37.47582026487257" lon="-3.039340085348354"><ele>903.8</ele><time>2026-04-21T12:54:37Z</time></trkpt><trkpt lat="37.47575300799454" lon="-3.0394188248943528"><ele>900.1999999999999</ele><time>2026-04-21T12:54:38Z</time></trkpt><trkpt lat="37.475679641262126" lon="-3.039504407001278"><ele>896.5999999999999</ele><time>2026-04-21T12:54:39Z</time></trkpt><trkpt lat="37.47557564547694" lon="-3.0395529503954704"><ele>893.0</ele><time>2026-04-21T12:54:40Z</time></trkpt><trkpt lat="37.47548945725342" lon="-3.0396094308084267"><ele>893.1666666666667</ele><time>2026-04-21T12:54:41Z</time></trkpt><trkpt lat="37.475413281200545" lon="-3.0396594942176027"><ele>893.3333333333334</ele><time>2026-04-21T12:54:42Z</time></trkpt><trkpt lat="37.47534580005736" lon="-3.039707186933758"><ele>893.5</ele><time>2026-04-21T12:54:43Z</time></trkpt><trkpt lat="37.47529337282631" lon="-3.0397550122881127"><ele>893.6666666666667</ele><time>2026-04-21T12:54:44Z</time></trkpt><trkpt lat="37.47522889822851" lon="-3.0398809741043182"><ele>893.8333333333334</ele><time>2026-04-21T12:54:46Z</time></trkpt><trkpt lat="37.475228299633116" lon="-3.0399714684683983"><ele>894.0</ele><time>2026-04-21T12:54:47Z</time></trkpt><trkpt lat="37.475263194124935" lon="-3.0400663009699636"><ele>891.3333333333334</ele><time>2026-04-21T12:54:48Z</time></trkpt><trkpt lat="37.47525702400023" lon="-3.040165087216489"><ele>888.6666666666667</ele><time>2026-04-21T12:54:49Z</time></trkpt><trkpt lat="37.475265672510915" lon="-3.040252612619299"><ele>886.0</ele><time>2026-04-21T12:54:50Z</time></trkpt><trkpt lat="37.47534700525147" lon="-3.0403196766432545"><ele>883.3333333333334</ele><time>2026-04-21T12:54:52Z</time></trkpt><trkpt lat="37.475393265645" lon="-3.040235409581766"><ele>880.6666666666667</ele><time>2026-04-21T12:54:53Z</time></trkpt><trkpt lat="37.47543883598646" lon="-3.040150509042059"><ele>878.0</ele><time>2026-04-21T12:54:54Z</time></trkpt><trkpt lat="37.47551854400851" lon="-3.0400674061537774"><ele>878.0</ele><time>2026-04-21T12:54:55Z</time></trkpt><trkpt lat="37.47559388653814" lon="-3.039979967773988"><ele>878.0</ele><time>2026-04-21T12:54:56Z</time></trkpt><trkpt lat="37.47566730195424" lon="-3.0399184599653335"><ele>878.0</ele><time>2026-04-21T12:54:57Z</time></trkpt><trkpt lat="37.47572571423545" lon="-3.0398866576446135"><ele>878.0</ele><time>2026-04-21T12:54:58Z</time></trkpt><trkpt lat="37.47581259392238" lon="-3.0398777051284664"><ele>878.0</ele><time>2026-04-21T12:55:00Z</time></trkpt><trkpt lat="37.47584150388612" lon="-3.0400256007308943"><ele>878.0</ele><time>2026-04-21T12:55:02Z</time></trkpt><trkpt lat="37.475807224202065" lon="-3.0401210819736177"><ele>878.0</ele><time>2026-04-21T12:55:03Z</time></trkpt><trkpt lat="37.47576570990939" lon="-3.0402317397481187"><ele>878.0</ele><time>2026-04-21T12:55:04Z</time></trkpt><trkpt lat="37.47574891337848" lon="-3.040363624644518"><ele>878.0</ele><time>2026-04-21T12:55:05Z</time></trkpt><trkpt lat="37.47572330201864" lon="-3.04049393183504"><ele>878.0</ele><time>2026-04-21T12:55:06Z</time></trkpt><trkpt lat="37.47573617997123" lon="-3.040622844562728"><ele>878.0</ele><time>2026-04-21T12:55:07Z</time></trkpt><trkpt lat="37.47577898310665" lon="-3.0407419549631873"><ele>878.0</ele><time>2026-04-21T12:55:08Z</time></trkpt><trkpt lat="37.475851304073075" lon="-3.0408433609304426"><ele>878.0</ele><time>2026-04-21T12:55:09Z</time></trkpt><trkpt lat="37.47591352976771" lon="-3.040957584124525"><ele>878.0</ele><time>2026-04-21T12:55:10Z</time></trkpt><trkpt lat="37.47596290999544" lon="-3.0410790459758847"><ele>878.0</ele><time>2026-04-21T12:55:11Z</time></trkpt><trkpt lat="37.47603002366237" lon="-3.0411856122305556"><ele>875.6666666666667</ele><time>2026-04-21T12:55:12Z</time></trkpt><trkpt lat="37.4761205929352" lon="-3.041253787351574"><ele>873.3333333333334</ele><time>2026-04-21T12:55:13Z</time></trkpt><trkpt lat="37.4762206607172" lon="-3.04129723741984"><ele>871.0</ele><time>2026-04-21T12:55:14Z</time></trkpt><trkpt lat="37.47632265953761" lon="-3.041288835997572"><ele>868.6666666666667</ele><time>2026-04-21T12:55:15Z</time></trkpt><trkpt lat="37.47639096767938" lon="-3.0412747786994347"><ele>866.3333333333334</ele><time>2026-04-21T12:55:16Z</time></trkpt><trkpt lat="37.4764554564963" lon="-3.0412655429035356"><ele>864.0</ele><time>2026-04-21T12:55:17Z</time></trkpt><trkpt lat="37.47651847387822" lon="-3.04123705545369"><ele>862.4000000000001</ele><time>2026-04-21T12:55:18Z</time></trkpt><trkpt lat="37.476597236849365" lon="-3.0412334622458825"><ele>860.8000000000001</ele><time>2026-04-21T12:55:19Z</time></trkpt><trkpt lat="37.476691646660164" lon="-3.041262173876591"><ele>859.1999999999999</ele><time>2026-04-21T12:55:20Z</time></trkpt><trkpt lat="37.476782214700854" lon="-3.0413125484432686"><ele>857.5999999999999</ele><time>2026-04-21T12:55:21Z</time></trkpt><trkpt lat="37.476859623989405" lon="-3.041364276619323"><ele>856.0</ele><time>2026-04-21T12:55:22Z</time></trkpt><trkpt lat="37.47693231665525" lon="-3.0414474998855145"><ele>855.9999999999999</ele><time>2026-04-21T12:55:24Z</time></trkpt><trkpt lat="37.476975066151105" lon="-3.0415443079860203"><ele>856.0</ele><time>2026-04-21T12:55:33.998Z</time></trkpt><trkpt lat="37.477020423777425" lon="-3.0416400231815253"><ele>856.0</ele><time>2026-04-21T12:55:35.998Z</time></trkpt><trkpt lat="37.47704570744224" lon="-3.0417145878365206"><ele>856.0</ele><time>2026-04-21T12:55:37.998Z</time></trkpt><trkpt lat="37.47703530200304" lon="-3.041799098640806"><ele>855.9999999999999</ele><time>2026-04-21T12:55:39.998Z</time></trkpt><trkpt lat="37.47705749163286" lon="-3.041880103232092"><ele>856.0</ele><time>2026-04-21T12:55:41.998Z</time></trkpt><trkpt lat="37.47709952200549" lon="-3.0420106081708527"><ele>856.0</ele><time>2026-04-21T12:55:43.998Z</time></trkpt><trkpt lat="37.47716078748272" lon="-3.0421730040636508"><ele>855.9999999999999</ele><time>2026-04-21T12:55:45.999Z</time></trkpt><trkpt lat="37.47720140624145" lon="-3.0422723877809044"><ele>855.9999999999999</ele><time>2026-04-21T12:55:46.999Z</time></trkpt><trkpt lat="37.47724943951106" lon="-3.0423908178692853"><ele>856.0</ele><time>2026-04-21T12:55:47.999Z</time></trkpt><trkpt lat="37.477294196924646" lon="-3.042511230351526"><ele>856.0</ele><time>2026-04-21T12:55:48.999Z</time></trkpt><trkpt lat="37.47733290111453" lon="-3.0426226047259908"><ele>855.9999999999999</ele><time>2026-04-21T12:55:49.999Z</time></trkpt><trkpt lat="37.47736283801977" lon="-3.042707978484992"><ele>856.0</ele><time>2026-04-21T12:55:50.999Z</time></trkpt><trkpt lat="37.477401608916125" lon="-3.042775271385795"><ele>856.0</ele><time>2026-04-21T12:55:51.999Z</time></trkpt><trkpt lat="37.477454090294955" lon="-3.0428293182507473"><ele>856.0</ele><time>2026-04-21T12:55:52.999Z</time></trkpt><trkpt lat="37.47757285344805" lon="-3.0428725449190526"><ele>855.9999999999999</ele><time>2026-04-21T12:55:54.999Z</time></trkpt><trkpt lat="37.47766967065683" lon="-3.0428767621850668"><ele>856.0</ele><time>2026-04-21T12:55:56.999Z</time></trkpt><trkpt lat="37.477745999206874" lon="-3.042873718353639"><ele>856.0</ele><time>2026-04-21T12:55:59.999Z</time></trkpt><trkpt lat="37.47783932273103" lon="-3.0428692493202987"><ele>855.9999999999999</ele><time>2026-04-21T12:56:01.999Z</time></trkpt><trkpt lat="37.47792458184713" lon="-3.0428580982315294"><ele>855.9999999999999</ele><time>2026-04-21T12:56:03.999Z</time></trkpt><trkpt lat="37.47803192435977" lon="-3.0428327828138992"><ele>856.0</ele><time>2026-04-21T12:56:05.999Z</time></trkpt><trkpt lat="37.478131350595525" lon="-3.042773386234044"><ele>856.0</ele><time>2026-04-21T12:56:07.999Z</time></trkpt><trkpt lat="37.47820771241861" lon="-3.0427023059479557"><ele>856.1999999999999</ele><time>2026-04-21T12:56:09.999Z</time></trkpt><trkpt lat="37.478218978014326" lon="-3.0426173487549155"><ele>856.3999999999999</ele><time>2026-04-21T12:56:10.999Z</time></trkpt><trkpt lat="37.478272831492966" lon="-3.0425076018110717"><ele>856.6</ele><time>2026-04-21T12:56:12.999Z</time></trkpt><trkpt lat="37.47832388784782" lon="-3.0424039978667072"><ele>856.8</ele><time>2026-04-21T12:56:14.999Z</time></trkpt><trkpt lat="37.478387718420244" lon="-3.042314367688005"><ele>857.0</ele><time>2026-04-21T12:56:16.999Z</time></trkpt><trkpt lat="37.478489190162605" lon="-3.0422580412757863"><ele>857.0</ele><time>2026-04-21T12:56:18.999Z</time></trkpt><trkpt lat="37.47858722665184" lon="-3.0422109544066736"><ele>857.0</ele><time>2026-04-21T12:56:20.999Z</time></trkpt><trkpt lat="37.47867324534322" lon="-3.0421653164695477"><ele>857.0</ele><time>2026-04-21T12:56:22.999Z</time></trkpt><trkpt lat="37.478784380794345" lon="-3.04213339807373"><ele>857.0</ele><time>2026-04-21T12:56:24.999Z</time></trkpt><trkpt lat="37.478860377879485" lon="-3.042118221376239"><ele>857.0</ele><time>2026-04-21T12:56:26.999Z</time></trkpt><trkpt lat="37.47892057254261" lon="-3.042183905375175"><ele>853.0</ele><time>2026-04-21T12:56:27.999Z</time></trkpt><trkpt lat="37.47898422232985" lon="-3.04222044725759"><ele>853.0</ele><time>2026-04-21T12:56:29.999Z</time></trkpt><trkpt lat="37.47897774848073" lon="-3.042338541779615"><ele>853.0</ele><time>2026-04-21T12:56:31.999Z</time></trkpt><trkpt lat="37.479035462473455" lon="-3.042249864598658"><ele>853.0</ele><time>2026-04-21T12:57:02.999Z</time></trkpt></trkseg><trkseg><trkpt lat="37.47900097336814" lon="-3.042350863306678"><ele>853.0</ele><time>2026-04-21T14:13:27.001Z</time></trkpt><trkpt lat="37.47896338007127" lon="-3.04242284517349"><ele>853.0</ele><time>2026-04-21T14:13:49.001Z</time></trkpt><trkpt lat="37.478881399079896" lon="-3.0423981464928045"><ele>853.0</ele><time>2026-04-21T14:13:52.001Z</time></trkpt><trkpt lat="37.473108611157684" lon="-3.042431396549089"><ele>849.5</ele><time>2026-04-21T14:14:54Z</time></trkpt><trkpt lat="37.47298022874454" lon="-3.0423464815173245"><ele>846.0</ele><time>2026-04-21T14:14:55Z</time></trkpt><trkpt lat="37.4728540281584" lon="-3.0422557971951303"><ele>842.5</ele><time>2026-04-21T14:14:56Z</time></trkpt><trkpt lat="37.47274237310302" lon="-3.0421802654714916"><ele>839.0</ele><time>2026-04-21T14:14:57.001Z</time></trkpt><trkpt lat="37.47260683601993" lon="-3.042098723513547"><ele>837.25</ele><time>2026-04-21T14:14:58.001Z</time></trkpt><trkpt lat="37.47248824906747" lon="-3.0420198967303533"><ele>835.5</ele><time>2026-04-21T14:14:59.001Z</time></trkpt><trkpt lat="37.47239677770441" lon="-3.041940201336156"><ele>833.75</ele><time>2026-04-21T14:15:00.001Z</time></trkpt><trkpt lat="37.47226655097303" lon="-3.0418661370275952"><ele>832.0</ele><time>2026-04-21T14:15:01.001Z</time></trkpt><trkpt lat="37.472149540321816" lon="-3.0417879522062745"><ele>831.75</ele><time>2026-04-21T14:15:02.001Z</time></trkpt><trkpt lat="37.47203248263657" lon="-3.0417072540794945"><ele>831.5</ele><time>2026-04-21T14:15:03.001Z</time></trkpt><trkpt lat="37.4719137176229" lon="-3.041626607512644"><ele>831.25</ele><time>2026-04-21T14:15:04.001Z</time></trkpt><trkpt lat="37.47179607491784" lon="-3.041545593830534"><ele>831.0</ele><time>2026-04-21T14:15:05.001Z</time></trkpt><trkpt lat="37.471694444299565" lon="-3.0414698321760283"><ele>832.5</ele><time>2026-04-21T14:15:06.001Z</time></trkpt><trkpt lat="37.47158604637535" lon="-3.0413727224012943"><ele>834.0</ele><time>2026-04-21T14:15:07.001Z</time></trkpt><trkpt lat="37.471476620481226" lon="-3.041281160521751"><ele>835.5</ele><time>2026-04-21T14:15:08.001Z</time></trkpt><trkpt lat="37.471359605516284" lon="-3.041170143485626"><ele>837.0</ele><time>2026-04-21T14:15:09.001Z</time></trkpt><trkpt lat="37.471255002325" lon="-3.0410533376222735"><ele>837.25</ele><time>2026-04-21T14:15:10.001Z</time></trkpt><trkpt lat="37.47114695684596" lon="-3.0409393764232275"><ele>837.5</ele><time>2026-04-21T14:15:11.001Z</time></trkpt><trkpt lat="37.471047511905255" lon="-3.040809262646464"><ele>837.75</ele><time>2026-04-21T14:15:12.001Z</time></trkpt><trkpt lat="37.470949935920295" lon="-3.0406755187102243"><ele>838.0</ele><time>2026-04-21T14:15:13.001Z</time></trkpt><trkpt lat="37.470857191617974" lon="-3.0405376126739965"><ele>838.0</ele><time>2026-04-21T14:15:14.001Z</time></trkpt><trkpt lat="37.470764321244346" lon="-3.040395478304162"><ele>838.0</ele><time>2026-04-21T14:15:15.001Z</time></trkpt><trkpt lat="37.4706714855963" lon="-3.0402529137223784"><ele>838.0</ele><time>2026-04-21T14:15:16.001Z</time></trkpt><trkpt lat="37.47057496953048" lon="-3.0401072723859697"><ele>838.0</ele><time>2026-04-21T14:15:17.001Z</time></trkpt><trkpt lat="37.470480636123796" lon="-3.0399593456498266"><ele>838.3333333333333</ele><time>2026-04-21T14:15:18.001Z</time></trkpt><trkpt lat="37.470381446608926" lon="-3.0398096191907107"><ele>838.6666666666667</ele><time>2026-04-21T14:15:19.001Z</time></trkpt><trkpt lat="37.47028121518903" lon="-3.039655507070046"><ele>839.0</ele><time>2026-04-21T14:15:20.001Z</time></trkpt><trkpt lat="37.470182467194604" lon="-3.039493232117324"><ele>839.0</ele><time>2026-04-21T14:15:21.001Z</time></trkpt><trkpt lat="37.47006606018948" lon="-3.0393024936901423"><ele>839.0</ele><time>2026-04-21T14:15:22.001Z</time></trkpt><trkpt lat="37.46995263982713" lon="-3.0391113528420326"><ele>839.0</ele><time>2026-04-21T14:15:23.001Z</time></trkpt><trkpt lat="37.46984852041704" lon="-3.038933952884213"><ele>840.0</ele><time>2026-04-21T14:15:24.001Z</time></trkpt><trkpt lat="37.46975352930139" lon="-3.038772866485809"><ele>841.0</ele><time>2026-04-21T14:15:25.001Z</time></trkpt><trkpt lat="37.46966046551312" lon="-3.038609846671819"><ele>842.0</ele><time>2026-04-21T14:15:26.001Z</time></trkpt><trkpt lat="37.469563987191705" lon="-3.03844378873064"><ele>842.6666666666667</ele><time>2026-04-21T14:15:27.001Z</time></trkpt><trkpt lat="37.469477355516396" lon="-3.038280150232381"><ele>843.3333333333333</ele><time>2026-04-21T14:15:28.001Z</time></trkpt><trkpt lat="37.469385339125914" lon="-3.0381182283670776"><ele>844.0</ele><time>2026-04-21T14:15:29.001Z</time></trkpt><trkpt lat="37.46929700007899" lon="-3.037955971492801"><ele>844.0</ele><time>2026-04-21T14:15:30.001Z</time></trkpt><trkpt lat="37.469205293968265" lon="-3.037789759666462"><ele>844.0</ele><time>2026-04-21T14:15:31.001Z</time></trkpt><trkpt lat="37.469111379770816" lon="-3.0376263776926624"><ele>844.0</ele><time>2026-04-21T14:15:32.001Z</time></trkpt><trkpt lat="37.469004763489785" lon="-3.037466689395069"><ele>844.6666666666666</ele><time>2026-04-21T14:15:33.001Z</time></trkpt><trkpt lat="37.468887058523386" lon="-3.037323514619885"><ele>845.3333333333333</ele><time>2026-04-21T14:15:34.001Z</time></trkpt><trkpt lat="37.468755135763416" lon="-3.0371939383015327"><ele>846.0</ele><time>2026-04-21T14:15:35.001Z</time></trkpt><trkpt lat="37.46860935633923" lon="-3.0370770424375673"><ele>846.0</ele><time>2026-04-21T14:15:36.001Z</time></trkpt><trkpt lat="37.468464366608686" lon="-3.0369749274118227"><ele>846.0</ele><time>2026-04-21T14:15:37.001Z</time></trkpt><trkpt lat="37.46831355044464" lon="-3.0368752875602008"><ele>846.0</ele><time>2026-04-21T14:15:38.001Z</time></trkpt><trkpt lat="37.468160309054404" lon="-3.0367751279234247"><ele>846.0</ele><time>2026-04-21T14:15:39.001Z</time></trkpt><trkpt lat="37.468001245061835" lon="-3.036673952650712"><ele>846.0</ele><time>2026-04-21T14:15:40.001Z</time></trkpt><trkpt lat="37.46785758178049" lon="-3.0365732019682845"><ele>846.0</ele><time>2026-04-21T14:15:41.001Z</time></trkpt><trkpt lat="37.46773594169397" lon="-3.036454888418567"><ele>846.6666666666667</ele><time>2026-04-21T14:15:42.001Z</time></trkpt><trkpt lat="37.46762975702599" lon="-3.036298672707855"><ele>847.3333333333334</ele><time>2026-04-21T14:15:43.001Z</time></trkpt><trkpt lat="37.467554386413056" lon="-3.0361071925876604"><ele>848.0</ele><time>2026-04-21T14:15:44.001Z</time></trkpt><trkpt lat="37.467498235731306" lon="-3.0358936985897036"><ele>852.6666666666667</ele><time>2026-04-21T14:15:45.001Z</time></trkpt><trkpt lat="37.46740361504434" lon="-3.0357118001651684"><ele>857.3333333333333</ele><time>2026-04-21T14:15:46.001Z</time></trkpt><trkpt lat="37.46727114461378" lon="-3.0355604304930703"><ele>862.0</ele><time>2026-04-21T14:15:47.001Z</time></trkpt><trkpt lat="37.46711155255605" lon="-3.035464174417695"><ele>859.0</ele><time>2026-04-21T14:15:48.001Z</time></trkpt><trkpt lat="37.46694484398351" lon="-3.03535339613676"><ele>856.0</ele><time>2026-04-21T14:15:49.001Z</time></trkpt><trkpt lat="37.46675543489261" lon="-3.035299393503018"><ele>853.0</ele><time>2026-04-21T14:15:50.001Z</time></trkpt><trkpt lat="37.466576318452375" lon="-3.035223291252202"><ele>853.0</ele><time>2026-04-21T14:15:51.001Z</time></trkpt><trkpt lat="37.46639830182141" lon="-3.035142104438297"><ele>853.0</ele><time>2026-04-21T14:15:52.001Z</time></trkpt><trkpt lat="37.466218326667445" lon="-3.0350690813408296"><ele>853.0</ele><time>2026-04-21T14:15:53.001Z</time></trkpt><trkpt lat="37.45534855630608" lon="-3.0273997829994226"><ele>885.3333333333333</ele><time>2026-04-21T14:16:54Z</time></trkpt><trkpt lat="37.45513775775625" lon="-3.027371760849685"><ele>917.6666666666667</ele><time>2026-04-21T14:16:55Z</time></trkpt><trkpt lat="37.45492874389289" lon="-3.0273818915705495"><ele>950.0</ele><time>2026-04-21T14:16:56Z</time></trkpt><trkpt lat="37.454705053519746" lon="-3.0273760240160272"><ele>940.3333333333334</ele><time>2026-04-21T14:16:57.001Z</time></trkpt><trkpt lat="37.45452939474449" lon="-3.0273268654009016"><ele>930.6666666666667</ele><time>2026-04-21T14:16:58.001Z</time></trkpt><trkpt lat="37.4543625292429" lon="-3.0272655168610814"><ele>921.0</ele><time>2026-04-21T14:16:59.001Z</time></trkpt><trkpt lat="37.45422048564686" lon="-3.027199070716617"><ele>921.0</ele><time>2026-04-21T14:17:00.001Z</time></trkpt><trkpt lat="37.4541152032184" lon="-3.0271033623869323"><ele>921.0</ele><time>2026-04-21T14:17:01.001Z</time></trkpt><trkpt lat="37.45403828273776" lon="-3.0269443077862004"><ele>921.0</ele><time>2026-04-21T14:17:02.001Z</time></trkpt><trkpt lat="37.45398757759339" lon="-3.0267237613653926"><ele>920.3333333333333</ele><time>2026-04-21T14:17:03.001Z</time></trkpt><trkpt lat="37.45395062560635" lon="-3.02645388114544"><ele>919.6666666666666</ele><time>2026-04-21T14:17:04.001Z</time></trkpt><trkpt lat="37.453851500729776" lon="-3.0262224497699277"><ele>919.0</ele><time>2026-04-21T14:17:05.001Z</time></trkpt><trkpt lat="37.45370298600343" lon="-3.02602231261251"><ele>919.0</ele><time>2026-04-21T14:17:06.001Z</time></trkpt><trkpt lat="37.453515091940105" lon="-3.025873514301419"><ele>919.0</ele><time>2026-04-21T14:17:07.001Z</time></trkpt><trkpt lat="37.45335925007959" lon="-3.0257548772249208"><ele>919.0</ele><time>2026-04-21T14:17:08.001Z</time></trkpt><trkpt lat="37.453245562846156" lon="-3.025608142035767"><ele>924.25</ele><time>2026-04-21T14:17:09.001Z</time></trkpt><trkpt lat="37.45318586596812" lon="-3.02542561710439"><ele>929.5</ele><time>2026-04-21T14:17:10.001Z</time></trkpt><trkpt lat="37.45315300153697" lon="-3.0252597464748754"><ele>934.75</ele><time>2026-04-21T14:17:11.001Z</time></trkpt><trkpt lat="37.453078916147845" lon="-3.0251449214352997"><ele>940.0</ele><time>2026-04-21T14:17:12.001Z</time></trkpt><trkpt lat="37.45295835261681" lon="-3.025084526980909"><ele>939.0</ele><time>2026-04-21T14:17:13.001Z</time></trkpt><trkpt lat="37.4528502947759" lon="-3.0251167639910657"><ele>938.0</ele><time>2026-04-21T14:17:14.001Z</time></trkpt><trkpt lat="37.45274789669135" lon="-3.0252340953842016"><ele>937.0</ele><time>2026-04-21T14:17:15.001Z</time></trkpt><trkpt lat="37.45264978993966" lon="-3.0253777983577126"><ele>936.0</ele><time>2026-04-21T14:17:16.001Z</time></trkpt><trkpt lat="37.452566134575356" lon="-3.025435547537742"><ele>936.0</ele><time>2026-04-21T14:17:17.001Z</time></trkpt><trkpt lat="37.452472399041085" lon="-3.0254120139997"><ele>935.9999999999999</ele><time>2026-04-21T14:17:18.001Z</time></trkpt><trkpt lat="37.45240602642712" lon="-3.025328200615565"><ele>935.9999999999999</ele><time>2026-04-21T14:17:19.001Z</time></trkpt><trkpt lat="37.452391793049294" lon="-3.025211296613709"><ele>936.0</ele><time>2026-04-21T14:17:20.001Z</time></trkpt><trkpt lat="37.45243844100241" lon="-3.0250753861897315"><ele>936.0</ele><time>2026-04-21T14:17:21.001Z</time></trkpt><trkpt lat="37.452527756411804" lon="-3.024956687781022"><ele>941.75</ele><time>2026-04-21T14:17:22.001Z</time></trkpt><trkpt lat="37.452648488767814" lon="-3.0248333125073357"><ele>947.5</ele><time>2026-04-21T14:17:23.001Z</time></trkpt><trkpt lat="37.4527527450737" lon="-3.024711773805989"><ele>953.25</ele><time>2026-04-21T14:17:24.001Z</time></trkpt><trkpt lat="37.4528724472847" lon="-3.02461484911135"><ele>959.0</ele><time>2026-04-21T14:17:25.001Z</time></trkpt><trkpt lat="37.45300286743213" lon="-3.0245899376434693"><ele>962.6</ele><time>2026-04-21T14:17:26.001Z</time></trkpt><trkpt lat="37.45311021602391" lon="-3.0246064640606813"><ele>966.2</ele><time>2026-04-21T14:17:27.001Z</time></trkpt><trkpt lat="37.45317435729819" lon="-3.0245720157838103"><ele>969.8000000000001</ele><time>2026-04-21T14:17:28.001Z</time></trkpt><trkpt lat="37.453171497641094" lon="-3.0243869173659905"><ele>973.4000000000001</ele><time>2026-04-21T14:17:30.001Z</time></trkpt><trkpt lat="37.45310345862143" lon="-3.024328542998224"><ele>977.0</ele><time>2026-04-21T14:17:31.001Z</time></trkpt><trkpt lat="37.45296885314701" lon="-3.0242779207413673"><ele>978.5</ele><time>2026-04-21T14:17:32.001Z</time></trkpt><trkpt lat="37.452785887340795" lon="-3.024216340834433"><ele>980.0</ele><time>2026-04-21T14:17:33.001Z</time></trkpt><trkpt lat="37.452662120709526" lon="-3.024130474744993"><ele>981.5</ele><time>2026-04-21T14:17:34.001Z</time></trkpt><trkpt lat="37.4525678901871" lon="-3.0240979407762487"><ele>983.0</ele><time>2026-04-21T14:17:35.001Z</time></trkpt><trkpt lat="37.45246476994199" lon="-3.024128578502081"><ele>978.5</ele><time>2026-04-21T14:17:36.001Z</time></trkpt><trkpt lat="37.452395348743806" lon="-3.024226559085377"><ele>974.0</ele><time>2026-04-21T14:17:37.001Z</time></trkpt><trkpt lat="37.45231669437319" lon="-3.0243601477760187"><ele>969.5</ele><time>2026-04-21T14:17:38.001Z</time></trkpt><trkpt lat="37.452211621695554" lon="-3.024476547110819"><ele>965.0</ele><time>2026-04-21T14:17:39.001Z</time></trkpt><trkpt lat="37.45206322624437" lon="-3.024542249679503"><ele>965.0</ele><time>2026-04-21T14:17:40.001Z</time></trkpt><trkpt lat="37.451901186354796" lon="-3.0245484400126137"><ele>965.0</ele><time>2026-04-21T14:17:41.001Z</time></trkpt><trkpt lat="37.45174512181387" lon="-3.0244795182653674"><ele>965.0</ele><time>2026-04-21T14:17:42.001Z</time></trkpt><trkpt lat="37.451585749643314" lon="-3.024366043339452"><ele>965.0</ele><time>2026-04-21T14:17:43.001Z</time></trkpt><trkpt lat="37.45143254132106" lon="-3.0242063104158396"><ele>965.0</ele><time>2026-04-21T14:17:44.001Z</time></trkpt><trkpt lat="37.45131098878289" lon="-3.0240711403408325"><ele>965.0</ele><time>2026-04-21T14:17:45.001Z</time></trkpt><trkpt lat="37.451238386119" lon="-3.0239352315999275"><ele>966.5</ele><time>2026-04-21T14:17:46.001Z</time></trkpt><trkpt lat="37.451193875722424" lon="-3.023773390095996"><ele>968.0</ele><time>2026-04-21T14:17:47.001Z</time></trkpt><trkpt lat="37.4512107619739" lon="-3.023614243004897"><ele>969.5</ele><time>2026-04-21T14:17:48.001Z</time></trkpt><trkpt lat="37.45128402101007" lon="-3.023454904804694"><ele>971.0</ele><time>2026-04-21T14:17:49.001Z</time></trkpt><trkpt lat="37.45140814007329" lon="-3.023293910949599"><ele>976.0</ele><time>2026-04-21T14:17:50.001Z</time></trkpt><trkpt lat="37.45153500676104" lon="-3.023141197202109"><ele>981.0</ele><time>2026-04-21T14:17:51.001Z</time></trkpt><trkpt lat="37.45161205433591" lon="-3.0229886762755953"><ele>986.0</ele><time>2026-04-21T14:17:52.001Z</time></trkpt><trkpt lat="37.451628633800006" lon="-3.022799721172461"><ele>1072.0</ele><time>2026-04-21T14:17:53.001Z</time></trkpt><trkpt lat="37.44870426780269" lon="-3.0194252383004376"><ele>1072.0</ele><time>2026-04-21T14:18:54.001Z</time></trkpt><trkpt lat="37.448708698393254" lon="-3.0192690880723605"><ele>1072.0</ele><time>2026-04-21T14:18:55.001Z</time></trkpt><trkpt lat="37.44865647764475" lon="-3.019122215570332"><ele>1072.0</ele><time>2026-04-21T14:18:56.001Z</time></trkpt><trkpt lat="37.44854513946064" lon="-3.0189957607240823"><ele>1072.0</ele><time>2026-04-21T14:18:57.001Z</time></trkpt><trkpt lat="37.44839363807641" lon="-3.0189102438539477"><ele>1072.0</ele><time>2026-04-21T14:18:58.001Z</time></trkpt><trkpt lat="37.44821890435789" lon="-3.018873386644116"><ele>1072.0</ele><time>2026-04-21T14:18:59.001Z</time></trkpt><trkpt lat="37.44804125045533" lon="-3.0188194814919718"><ele>1072.0</ele><time>2026-04-21T14:19:00.001Z</time></trkpt><trkpt lat="37.447858162591324" lon="-3.018739229142697"><ele>1072.0</ele><time>2026-04-21T14:19:01.001Z</time></trkpt><trkpt lat="37.447650384977784" lon="-3.018636572428517"><ele>1072.0</ele><time>2026-04-21T14:19:02.001Z</time></trkpt><trkpt lat="37.44741779780711" lon="-3.018524366577289"><ele>1072.0</ele><time>2026-04-21T14:19:03.001Z</time></trkpt><trkpt lat="37.44716568495835" lon="-3.0184157695155895"><ele>1072.0</ele><time>2026-04-21T14:19:04.001Z</time></trkpt><trkpt lat="37.446899352237345" lon="-3.018303356382448"><ele>1073.0</ele><time>2026-04-21T14:19:05.001Z</time></trkpt><trkpt lat="37.44662049108128" lon="-3.0181823252266744"><ele>1074.0</ele><time>2026-04-21T14:19:06.001Z</time></trkpt><trkpt lat="37.44633420335779" lon="-3.018052340702335"><ele>1075.0</ele><time>2026-04-21T14:19:07.001Z</time></trkpt><trkpt lat="37.44602588559731" lon="-3.0179182758253065"><ele>1076.0</ele><time>2026-04-21T14:19:08.001Z</time></trkpt><trkpt lat="37.44570382539887" lon="-3.0177695268229012"><ele>1077.5</ele><time>2026-04-21T14:19:09.001Z</time></trkpt><trkpt lat="37.445367148206415" lon="-3.017618436934494"><ele>1079.0</ele><time>2026-04-21T14:19:10.001Z</time></trkpt><trkpt lat="37.44501955823678" lon="-3.017467708874792"><ele>1079.0</ele><time>2026-04-21T14:19:11.001Z</time></trkpt><trkpt lat="37.44467034924718" lon="-3.0173117509331084"><ele>1079.0</ele><time>2026-04-21T14:19:12.001Z</time></trkpt><trkpt lat="37.4443248350335" lon="-3.017153477533099"><ele>1080.5</ele><time>2026-04-21T14:19:13.001Z</time></trkpt><trkpt lat="37.44397814834693" lon="-3.016993156970414"><ele>1082.0</ele><time>2026-04-21T14:19:14.001Z</time></trkpt><trkpt lat="37.44362875360045" lon="-3.016836127783882"><ele>1083.0</ele><time>2026-04-21T14:19:15.001Z</time></trkpt><trkpt lat="37.44328148127168" lon="-3.0166810919694824"><ele>1084.0</ele><time>2026-04-21T14:19:16.001Z</time></trkpt><trkpt lat="37.44294278933347" lon="-3.016528381176195"><ele>1085.0</ele><time>2026-04-21T14:19:17.001Z</time></trkpt><trkpt lat="37.44263294853712" lon="-3.016383049050261"><ele>1086.0</ele><time>2026-04-21T14:19:18.001Z</time></trkpt><trkpt lat="37.44232702777523" lon="-3.0162436528557466"><ele>1087.0</ele><time>2026-04-21T14:19:19.001Z</time></trkpt><trkpt lat="37.44202377720769" lon="-3.0161099303343106"><ele>1088.0</ele><time>2026-04-21T14:19:20.001Z</time></trkpt><trkpt lat="37.44173405517611" lon="-3.015983293532622"><ele>1088.0</ele><time>2026-04-21T14:19:21.001Z</time></trkpt><trkpt lat="37.44145558129031" lon="-3.01586014145351"><ele>1088.0</ele><time>2026-04-21T14:19:22.001Z</time></trkpt><trkpt lat="37.44118548069512" lon="-3.015736697119172"><ele>1089.5</ele><time>2026-04-21T14:19:23.001Z</time></trkpt><trkpt lat="37.44090587263193" lon="-3.015614423576102"><ele>1091.0</ele><time>2026-04-21T14:19:24.001Z</time></trkpt><trkpt lat="37.44063771994763" lon="-3.015495692252272"><ele>1092.0</ele><time>2026-04-21T14:19:25.001Z</time></trkpt><trkpt lat="37.44037578798457" lon="-3.015382359583754"><ele>1093.0</ele><time>2026-04-21T14:19:26.001Z</time></trkpt><trkpt lat="37.44012150254427" lon="-3.0152719808052773"><ele>1093.0</ele><time>2026-04-21T14:19:27.001Z</time></trkpt><trkpt lat="37.43986056588198" lon="-3.015156589897611"><ele>1093.0</ele><time>2026-04-21T14:19:28.001Z</time></trkpt><trkpt lat="37.439608425859355" lon="-3.0150401469047354"><ele>1093.0</ele><time>2026-04-21T14:19:29.001Z</time></trkpt><trkpt lat="37.43935612742695" lon="-3.014930802566565"><ele>1093.0</ele><time>2026-04-21T14:19:30.001Z</time></trkpt><trkpt lat="37.4391096534548" lon="-3.0148225958738135"><ele>1093.0</ele><time>2026-04-21T14:19:31.001Z</time></trkpt><trkpt lat="37.438859634362075" lon="-3.014713024841567"><ele>1093.0</ele><time>2026-04-21T14:19:32.001Z</time></trkpt><trkpt lat="37.43861219480097" lon="-3.014604742293883"><ele>1094.0</ele><time>2026-04-21T14:19:33.001Z</time></trkpt><trkpt lat="37.438364385175056" lon="-3.0144965137678077"><ele>1095.0</ele><time>2026-04-21T14:19:34.001Z</time></trkpt><trkpt lat="37.43812876289147" lon="-3.0143919296201243"><ele>1096.5</ele><time>2026-04-21T14:19:35.001Z</time></trkpt><trkpt lat="37.437898575494835" lon="-3.014290312518425"><ele>1098.0</ele><time>2026-04-21T14:19:36.001Z</time></trkpt><trkpt lat="37.43766862184797" lon="-3.0141894257431177"><ele>1097.5</ele><time>2026-04-21T14:19:37.001Z</time></trkpt><trkpt lat="37.43742744796159" lon="-3.014079154324696"><ele>1097.0</ele><time>2026-04-21T14:19:38.001Z</time></trkpt><trkpt lat="37.4372085915285" lon="-3.0139777845726234"><ele>1097.6666666666667</ele><time>2026-04-21T14:19:39.001Z</time></trkpt><trkpt lat="37.43699288776837" lon="-3.013921071958391"><ele>1098.3333333333333</ele><time>2026-04-21T14:19:40.001Z</time></trkpt><trkpt lat="37.43678829719716" lon="-3.0138299902465002"><ele>1099.0</ele><time>2026-04-21T14:19:41.001Z</time></trkpt><trkpt lat="37.43657561345346" lon="-3.013715658793847"><ele>1099.0</ele><time>2026-04-21T14:19:42.001Z</time></trkpt><trkpt lat="37.43634929597215" lon="-3.013621416286302"><ele>1099.0</ele><time>2026-04-21T14:19:43.001Z</time></trkpt><trkpt lat="37.43612580822646" lon="-3.013519227472176"><ele>1099.5</ele><time>2026-04-21T14:19:44.001Z</time></trkpt><trkpt lat="37.435899541317575" lon="-3.0134375312444512"><ele>1100.0</ele><time>2026-04-21T14:19:45.001Z</time></trkpt><trkpt lat="37.43568104394452" lon="-3.013319462973656"><ele>1101.5</ele><time>2026-04-21T14:19:46.001Z</time></trkpt><trkpt lat="37.43546279437534" lon="-3.013226357491432"><ele>1103.0</ele><time>2026-04-21T14:19:47.001Z</time></trkpt><trkpt lat="37.435246078658906" lon="-3.0131315460490105"><ele>1103.0</ele><time>2026-04-21T14:19:48.001Z</time></trkpt><trkpt lat="37.43503016392411" lon="-3.0130385478712336"><ele>1103.0</ele><time>2026-04-21T14:19:49.001Z</time></trkpt><trkpt lat="37.43481620116569" lon="-3.01294336605289"><ele>1104.5</ele><time>2026-04-21T14:19:50.001Z</time></trkpt><trkpt lat="37.43460221001575" lon="-3.0128509892317803"><ele>1106.0</ele><time>2026-04-21T14:19:51.001Z</time></trkpt><trkpt lat="37.434389662893246" lon="-3.0127598029876905"><ele>1106.0</ele><time>2026-04-21T14:19:52.001Z</time></trkpt><trkpt lat="37.43417521337067" lon="-3.012666168660814"><ele>1106.0</ele><time>2026-04-21T14:19:53.001Z</time></trkpt><trkpt lat="37.42079069080562" lon="-3.006777476088998"><ele>1125.0</ele><time>2026-04-21T14:20:54Z</time></trkpt><trkpt lat="37.42048445846291" lon="-3.0066454177390702"><ele>1144.0</ele><time>2026-04-21T14:20:55Z</time></trkpt><trkpt lat="37.42017482516186" lon="-3.0065105053223986"><ele>1146.0</ele><time>2026-04-21T14:20:56Z</time></trkpt><trkpt lat="37.41987179308796" lon="-3.0063727030759626"><ele>1148.0</ele><time>2026-04-21T14:20:57Z</time></trkpt><trkpt lat="37.419568888812165" lon="-3.0062376288425336"><ele>1149.5</ele><time>2026-04-21T14:20:58Z</time></trkpt><trkpt lat="37.41926334802892" lon="-3.0061030269314633"><ele>1151.0</ele><time>2026-04-21T14:20:59Z</time></trkpt><trkpt lat="37.41895292167066" lon="-3.005964838376533"><ele>1152.0</ele><time>2026-04-21T14:21:00Z</time></trkpt><trkpt lat="37.41864014724863" lon="-3.0058261710276883"><ele>1153.0</ele><time>2026-04-21T14:21:01Z</time></trkpt><trkpt lat="37.41832392949942" lon="-3.0056868795858254"><ele>1153.0</ele><time>2026-04-21T14:21:02Z</time></trkpt><trkpt lat="37.418002412971774" lon="-3.005541754981528"><ele>1153.0</ele><time>2026-04-21T14:21:03Z</time></trkpt><trkpt lat="37.41767226679623" lon="-3.0053958669214165"><ele>1152.5</ele><time>2026-04-21T14:21:04Z</time></trkpt><trkpt lat="37.41734954502983" lon="-3.005256520596136"><ele>1152.0</ele><time>2026-04-21T14:21:05Z</time></trkpt><trkpt lat="37.41700429575922" lon="-3.005107448671809"><ele>1152.5</ele><time>2026-04-21T14:21:06Z</time></trkpt><trkpt lat="37.41665943860542" lon="-3.0049545515379585"><ele>1153.0</ele><time>2026-04-21T14:21:07Z</time></trkpt><trkpt lat="37.41630961151883" lon="-3.0048004594371895"><ele>1154.5</ele><time>2026-04-21T14:21:08Z</time></trkpt><trkpt lat="37.4159592795451" lon="-3.0046500019166587"><ele>1156.0</ele><time>2026-04-21T14:21:09Z</time></trkpt><trkpt lat="37.41561005239856" lon="-3.0044981733787486"><ele>1157.0</ele><time>2026-04-21T14:21:10Z</time></trkpt><trkpt lat="37.415267302419764" lon="-3.004346710761326"><ele>1158.0</ele><time>2026-04-21T14:21:11Z</time></trkpt><trkpt lat="37.414926344010695" lon="-3.0041957946440285"><ele>1159.5</ele><time>2026-04-21T14:21:12Z</time></trkpt><trkpt lat="37.41458479642202" lon="-3.004041999824178"><ele>1161.0</ele><time>2026-04-21T14:21:13Z</time></trkpt><trkpt lat="37.41424202408173" lon="-3.003889409184826"><ele>1161.0</ele><time>2026-04-21T14:21:14Z</time></trkpt><trkpt lat="37.413906072218644" lon="-3.0037395818305788"><ele>1161.0</ele><time>2026-04-21T14:21:15Z</time></trkpt><trkpt lat="37.4135888568389" lon="-3.0036009995289037"><ele>1163.0</ele><time>2026-04-21T14:21:16Z</time></trkpt><trkpt lat="37.41329661233412" lon="-3.0034732520290226"><ele>1165.0</ele><time>2026-04-21T14:21:17Z</time></trkpt><trkpt lat="37.413010739912764" lon="-3.0033461691998076"><ele>1165.5</ele><time>2026-04-21T14:21:18Z</time></trkpt><trkpt lat="37.41272960721376" lon="-3.003217544129655"><ele>1166.0</ele><time>2026-04-21T14:21:19Z</time></trkpt><trkpt lat="37.41243849679023" lon="-3.003085073808622"><ele>1167.0</ele><time>2026-04-21T14:21:20Z</time></trkpt><trkpt lat="37.41213332054206" lon="-3.002955854704268"><ele>1168.0</ele><time>2026-04-21T14:21:21Z</time></trkpt><trkpt lat="37.411825022856675" lon="-3.002824977197585"><ele>1168.0</ele><time>2026-04-21T14:21:22Z</time></trkpt><trkpt lat="37.41151669987753" lon="-3.002687218567049"><ele>1168.0</ele><time>2026-04-21T14:21:23Z</time></trkpt><trkpt lat="37.411205117357255" lon="-3.0025456938540116"><ele>1168.5</ele><time>2026-04-21T14:21:24Z</time></trkpt><trkpt lat="37.41089107967506" lon="-3.002403132895004"><ele>1169.0</ele><time>2026-04-21T14:21:25Z</time></trkpt><trkpt lat="37.41057685719024" lon="-3.0022670890317262"><ele>1170.5</ele><time>2026-04-21T14:21:26Z</time></trkpt><trkpt lat="37.41026058258114" lon="-3.0021356154116736"><ele>1172.0</ele><time>2026-04-21T14:21:27Z</time></trkpt><trkpt lat="37.409943828317296" lon="-3.00200107751549"><ele>1173.5</ele><time>2026-04-21T14:21:28Z</time></trkpt><trkpt lat="37.40964437959565" lon="-3.0018636628338755"><ele>1175.0</ele><time>2026-04-21T14:21:29Z</time></trkpt><trkpt lat="37.409371851106876" lon="-3.001747475051696"><ele>1175.5</ele><time>2026-04-21T14:21:30Z</time></trkpt><trkpt lat="37.409105135219335" lon="-3.0016228229462105"><ele>1176.0</ele><time>2026-04-21T14:21:31Z</time></trkpt><trkpt lat="37.40883882347504" lon="-3.001478617956766"><ele>1177.0</ele><time>2026-04-21T14:21:32Z</time></trkpt><trkpt lat="37.4085668743726" lon="-3.0013073612422625"><ele>1178.0</ele><time>2026-04-21T14:21:33Z</time></trkpt><trkpt lat="37.408293005840356" lon="-3.0011104317798085"><ele>1178.0</ele><time>2026-04-21T14:21:34Z</time></trkpt><trkpt lat="37.40802049795996" lon="-3.000887551995248"><ele>1178.0</ele><time>2026-04-21T14:21:35Z</time></trkpt><trkpt lat="37.40775873913729" lon="-3.00065335802766"><ele>1178.5</ele><time>2026-04-21T14:21:36Z</time></trkpt><trkpt lat="37.40749754117251" lon="-3.00042136845778"><ele>1179.0</ele><time>2026-04-21T14:21:37Z</time></trkpt><trkpt lat="37.40723665421637" lon="-3.0002031048888007"><ele>1180.0</ele><time>2026-04-21T14:21:38Z</time></trkpt><trkpt lat="37.40696508968688" lon="-2.9999795144493153"><ele>1181.0</ele><time>2026-04-21T14:21:39Z</time></trkpt><trkpt lat="37.40669310533766" lon="-2.999748949166588"><ele>1181.0</ele><time>2026-04-21T14:21:40Z</time></trkpt><trkpt lat="37.40641369584164" lon="-2.9995067858972333"><ele>1181.0</ele><time>2026-04-21T14:21:41Z</time></trkpt><trkpt lat="37.40612906150163" lon="-2.999263896302217"><ele>1182.5</ele><time>2026-04-21T14:21:42Z</time></trkpt><trkpt lat="37.405839202624215" lon="-2.9990190091900493"><ele>1184.0</ele><time>2026-04-21T14:21:43Z</time></trkpt><trkpt lat="37.40554754931683" lon="-2.9987793601513815"><ele>1185.0</ele><time>2026-04-21T14:21:44Z</time></trkpt><trkpt lat="37.405255938473104" lon="-2.9985354961586825"><ele>1186.0</ele><time>2026-04-21T14:21:45Z</time></trkpt><trkpt lat="37.40497228018504" lon="-2.9982946075014327"><ele>1186.5</ele><time>2026-04-21T14:21:46Z</time></trkpt><trkpt lat="37.4046935864365" lon="-2.9980558184271953"><ele>1187.0</ele><time>2026-04-21T14:21:47Z</time></trkpt><trkpt lat="37.40441688550965" lon="-2.9978145238896188"><ele>1188.5</ele><time>2026-04-21T14:21:48Z</time></trkpt><trkpt lat="37.40414631018041" lon="-2.9975782654527934"><ele>1190.0</ele><time>2026-04-21T14:21:49Z</time></trkpt><trkpt lat="37.40387583331773" lon="-2.997348851032544"><ele>1191.0</ele><time>2026-04-21T14:21:50Z</time></trkpt><trkpt lat="37.40360701820084" lon="-2.997120466754135"><ele>1192.0</ele><time>2026-04-21T14:21:51Z</time></trkpt><trkpt lat="37.403339331596165" lon="-2.9968950849828584"><ele>1192.0</ele><time>2026-04-21T14:21:52Z</time></trkpt><trkpt lat="37.403072357911164" lon="-2.996674755425096"><ele>1192.0</ele><time>2026-04-21T14:21:53Z</time></trkpt><trkpt lat="37.39276542669319" lon="-2.995919716842308"><ele>1186.5</ele><time>2026-04-21T14:22:54Z</time></trkpt><trkpt lat="37.39259528094004" lon="-2.9961705423429152"><ele>1181.0</ele><time>2026-04-21T14:22:55Z</time></trkpt><trkpt lat="37.392438599087626" lon="-2.996426430179842"><ele>1186.5</ele><time>2026-04-21T14:22:56Z</time></trkpt><trkpt lat="37.392293430843175" lon="-2.9966899443747663"><ele>1192.0</ele><time>2026-04-21T14:22:57Z</time></trkpt><trkpt lat="37.39215642891995" lon="-2.9969658862538404"><ele>1199.5</ele><time>2026-04-21T14:22:58Z</time></trkpt><trkpt lat="37.392026887751015" lon="-2.9972511626569167"><ele>1207.0</ele><time>2026-04-21T14:22:59Z</time></trkpt><trkpt lat="37.39190686269565" lon="-2.99755239152755"><ele>1207.0</ele><time>2026-04-21T14:23:00Z</time></trkpt><trkpt lat="37.39179857628494" lon="-2.9978671766153577"><ele>1207.0</ele><time>2026-04-21T14:23:01Z</time></trkpt><trkpt lat="37.391703524114895" lon="-2.998191711690404"><ele>1206.0</ele><time>2026-04-21T14:23:02Z</time></trkpt><trkpt lat="37.391624638530395" lon="-2.9985214408256153"><ele>1205.0</ele><time>2026-04-21T14:23:03Z</time></trkpt><trkpt lat="37.391557361876906" lon="-2.9988546894774064"><ele>1201.0</ele><time>2026-04-21T14:23:04Z</time></trkpt><trkpt lat="37.391501681132446" lon="-2.999192459679834"><ele>1197.0</ele><time>2026-04-21T14:23:05Z</time></trkpt><trkpt lat="37.391460895114555" lon="-2.999533500643408"><ele>1197.0</ele><time>2026-04-21T14:23:06Z</time></trkpt><trkpt lat="37.391434680878255" lon="-2.9998707791985066"><ele>1197.0</ele><time>2026-04-21T14:23:07Z</time></trkpt><trkpt lat="37.39141855313134" lon="-3.0002060103690225"><ele>1197.0</ele><time>2026-04-21T14:23:08Z</time></trkpt><trkpt lat="37.39142000475989" lon="-3.0005413362581246"><ele>1197.0</ele><time>2026-04-21T14:23:09Z</time></trkpt><trkpt lat="37.39143382374229" lon="-3.0008796199729475"><ele>1198.0</ele><time>2026-04-21T14:23:10Z</time></trkpt><trkpt lat="37.39145391661502" lon="-3.0012235360227137"><ele>1199.0</ele><time>2026-04-21T14:23:11Z</time></trkpt><trkpt lat="37.391473219374255" lon="-3.0015700339375706"><ele>1204.0</ele><time>2026-04-21T14:23:12Z</time></trkpt><trkpt lat="37.391487258585734" lon="-3.0019182662430746"><ele>1209.0</ele><time>2026-04-21T14:23:13Z</time></trkpt><trkpt lat="37.39149164669446" lon="-3.0022673358722596"><ele>1208.5</ele><time>2026-04-21T14:23:14Z</time></trkpt><trkpt lat="37.39148294731919" lon="-3.0026234648264154"><ele>1208.0</ele><time>2026-04-21T14:23:15Z</time></trkpt><trkpt lat="37.39146168027535" lon="-3.0029776698427457"><ele>1208.0</ele><time>2026-04-21T14:23:16Z</time></trkpt><trkpt lat="37.391420393741974" lon="-3.0033389178689642"><ele>1208.0</ele><time>2026-04-21T14:23:17Z</time></trkpt><trkpt lat="37.39136630124695" lon="-3.0036967759125606"><ele>1209.5</ele><time>2026-04-21T14:23:18Z</time></trkpt><trkpt lat="37.39129046120331" lon="-3.0040581603782703"><ele>1211.0</ele><time>2026-04-21T14:23:19Z</time></trkpt><trkpt lat="37.39119786163462" lon="-3.0044189577670126"><ele>1211.0</ele><time>2026-04-21T14:23:20Z</time></trkpt><trkpt lat="37.39109148992258" lon="-3.0047738070457166"><ele>1211.0</ele><time>2026-04-21T14:23:21Z</time></trkpt><trkpt lat="37.39096945535634" lon="-3.0051226507211415"><ele>1208.5</ele><time>2026-04-21T14:23:22Z</time></trkpt><trkpt lat="37.390828090064886" lon="-3.005462540227871"><ele>1206.0</ele><time>2026-04-21T14:23:23Z</time></trkpt><trkpt lat="37.39067478315746" lon="-3.005794753730746"><ele>1204.0</ele><time>2026-04-21T14:23:24Z</time></trkpt><trkpt lat="37.39051227513905" lon="-3.0061184126005847"><ele>1202.0</ele><time>2026-04-21T14:23:25Z</time></trkpt><trkpt lat="37.39033879090758" lon="-3.0064371120038182"><ele>1199.0</ele><time>2026-04-21T14:23:26Z</time></trkpt><trkpt lat="37.390159865864504" lon="-3.006747326935839"><ele>1196.0</ele><time>2026-04-21T14:23:27Z</time></trkpt><trkpt lat="37.38998214543042" lon="-3.0070549340388992"><ele>1196.0</ele><time>2026-04-21T14:23:28Z</time></trkpt><trkpt lat="37.38982660326882" lon="-3.007346073762576"><ele>1196.0</ele><time>2026-04-21T14:23:29Z</time></trkpt><trkpt lat="37.389690073811714" lon="-3.007638536962361"><ele>1198.0</ele><time>2026-04-21T14:23:30Z</time></trkpt><trkpt lat="37.38956450030042" lon="-3.0079391025872986"><ele>1200.0</ele><time>2026-04-21T14:23:31Z</time></trkpt><trkpt lat="37.38944634234228" lon="-3.0082486268239945"><ele>1203.5</ele><time>2026-04-21T14:23:32Z</time></trkpt><trkpt lat="37.38934031748713" lon="-3.0085747376096847"><ele>1207.0</ele><time>2026-04-21T14:23:33Z</time></trkpt><trkpt lat="37.389253349883" lon="-3.008907310231756"><ele>1206.5</ele><time>2026-04-21T14:23:34Z</time></trkpt><trkpt lat="37.38918252648637" lon="-3.0092436603672983"><ele>1206.0</ele><time>2026-04-21T14:23:35Z</time></trkpt><trkpt lat="37.38912533472209" lon="-3.0095715584431124"><ele>1206.0</ele><time>2026-04-21T14:23:36Z</time></trkpt><trkpt lat="37.38907821932882" lon="-3.0099016909579537"><ele>1206.0</ele><time>2026-04-21T14:23:37Z</time></trkpt><trkpt lat="37.389052765797935" lon="-3.0102282103786746"><ele>1207.0</ele><time>2026-04-21T14:23:38Z</time></trkpt><trkpt lat="37.389038169170284" lon="-3.0105533467164673"><ele>1208.0</ele><time>2026-04-21T14:23:39Z</time></trkpt><trkpt lat="37.38903531738828" lon="-3.0108765733667573"><ele>1209.5</ele><time>2026-04-21T14:23:40Z</time></trkpt><trkpt lat="37.389044403178964" lon="-3.011204483171439"><ele>1211.0</ele><time>2026-04-21T14:23:41Z</time></trkpt><trkpt lat="37.38906512420568" lon="-3.0115312134385004"><ele>1210.5</ele><time>2026-04-21T14:23:42Z</time></trkpt><trkpt lat="37.389095411394685" lon="-3.0118577253118377"><ele>1210.0</ele><time>2026-04-21T14:23:43Z</time></trkpt><trkpt lat="37.38914009908571" lon="-3.0121886856341127"><ele>1209.5</ele><time>2026-04-21T14:23:44Z</time></trkpt><trkpt lat="37.389201149972855" lon="-3.0125178620053883"><ele>1209.0</ele><time>2026-04-21T14:23:45Z</time></trkpt><trkpt lat="37.38927733180555" lon="-3.0128398341078784"><ele>1209.0</ele><time>2026-04-21T14:23:46Z</time></trkpt><trkpt lat="37.389367042184816" lon="-3.0131556133953397"><ele>1209.0</ele><time>2026-04-21T14:23:47Z</time></trkpt><trkpt lat="37.38945993688827" lon="-3.013453461605394"><ele>1207.5</ele><time>2026-04-21T14:23:48Z</time></trkpt><trkpt lat="37.38956445062545" lon="-3.0137461004090675"><ele>1206.0</ele><time>2026-04-21T14:23:49Z</time></trkpt><trkpt lat="37.389674844883544" lon="-3.0140300288669595"><ele>1201.0</ele><time>2026-04-21T14:23:50Z</time></trkpt><trkpt lat="37.38978655742429" lon="-3.0143150209399643"><ele>1196.0</ele><time>2026-04-21T14:23:51Z</time></trkpt><trkpt lat="37.389893402478" lon="-3.014585864326658"><ele>1196.0</ele><time>2026-04-21T14:23:52Z</time></trkpt><trkpt lat="37.39000268021853" lon="-3.014852560197912"><ele>1196.0</ele><time>2026-04-21T14:23:53Z</time></trkpt><trkpt lat="37.39415290396155" lon="-3.028619707873777"><ele>1185.6666666666667</ele><time>2026-04-21T14:24:54Z</time></trkpt><trkpt lat="37.394164228981026" lon="-3.028846262409098"><ele>1175.3333333333333</ele><time>2026-04-21T14:24:55Z</time></trkpt><trkpt lat="37.39417149409235" lon="-3.0290759831073224"><ele>1165.0</ele><time>2026-04-21T14:24:56Z</time></trkpt><trkpt lat="37.39417937947187" lon="-3.02930112769938"><ele>1164.6666666666665</ele><time>2026-04-21T14:24:57Z</time></trkpt><trkpt lat="37.39418612769174" lon="-3.0295197560032068"><ele>1164.3333333333333</ele><time>2026-04-21T14:24:58Z</time></trkpt><trkpt lat="37.39419519055844" lon="-3.0297416917114104"><ele>1164.0</ele><time>2026-04-21T14:24:59Z</time></trkpt><trkpt lat="37.39419834040602" lon="-3.029971263021535"><ele>1162.6666666666667</ele><time>2026-04-21T14:25:00Z</time></trkpt><trkpt lat="37.39419679214702" lon="-3.030197674820045"><ele>1161.3333333333335</ele><time>2026-04-21T14:25:01Z</time></trkpt><trkpt lat="37.39419618436061" lon="-3.0304115412982378"><ele>1160.0</ele><time>2026-04-21T14:25:02Z</time></trkpt><trkpt lat="37.39418973131631" lon="-3.03062453654434"><ele>1159.3333333333335</ele><time>2026-04-21T14:25:03Z</time></trkpt><trkpt lat="37.394187027631034" lon="-3.0308328741523254"><ele>1158.6666666666667</ele><time>2026-04-21T14:25:04Z</time></trkpt><trkpt lat="37.39418016433392" lon="-3.0310462742015454"><ele>1158.0</ele><time>2026-04-21T14:25:05Z</time></trkpt><trkpt lat="37.394171686935955" lon="-3.031256512894987"><ele>1158.0</ele><time>2026-04-21T14:25:06Z</time></trkpt><trkpt lat="37.394164178190245" lon="-3.031460364610132"><ele>1158.0</ele><time>2026-04-21T14:25:07Z</time></trkpt><trkpt lat="37.394150532193045" lon="-3.031673781489284"><ele>1158.0</ele><time>2026-04-21T14:25:08Z</time></trkpt><trkpt lat="37.394142424361846" lon="-3.0318662062999406"><ele>1157.0</ele><time>2026-04-21T14:25:09Z</time></trkpt><trkpt lat="37.394135611674315" lon="-3.0320655189516756"><ele>1156.0</ele><time>2026-04-21T14:25:10Z</time></trkpt><trkpt lat="37.394115900261994" lon="-3.0322458223536968"><ele>1155.0</ele><time>2026-04-21T14:25:11Z</time></trkpt><trkpt lat="37.394095281240446" lon="-3.032438481093094"><ele>1154.3333333333333</ele><time>2026-04-21T14:25:12Z</time></trkpt><trkpt lat="37.39407307402747" lon="-3.0326386835203105"><ele>1153.6666666666665</ele><time>2026-04-21T14:25:13Z</time></trkpt><trkpt lat="37.39405982306794" lon="-3.0328620966457143"><ele>1153.0</ele><time>2026-04-21T14:25:14Z</time></trkpt><trkpt lat="37.3940352122333" lon="-3.033120658600962"><ele>1151.5</ele><time>2026-04-21T14:25:15Z</time></trkpt><trkpt lat="37.39400041263245" lon="-3.033408049273247"><ele>1150.0</ele><time>2026-04-21T14:25:16Z</time></trkpt><trkpt lat="37.39395447941612" lon="-3.033717152599443"><ele>1150.0</ele><time>2026-04-21T14:25:17Z</time></trkpt><trkpt lat="37.39390628400083" lon="-3.034036244970404"><ele>1150.0</ele><time>2026-04-21T14:25:18Z</time></trkpt><trkpt lat="37.39385666485102" lon="-3.0343757867600534"><ele>1150.0</ele><time>2026-04-21T14:25:19Z</time></trkpt><trkpt lat="37.393799306837685" lon="-3.034733884574954"><ele>1150.0</ele><time>2026-04-21T14:25:20Z</time></trkpt><trkpt lat="37.393732345517925" lon="-3.0351066170174135"><ele>1150.0</ele><time>2026-04-21T14:25:21Z</time></trkpt><trkpt lat="37.39366213491276" lon="-3.0354751038973586"><ele>1150.0</ele><time>2026-04-21T14:25:22Z</time></trkpt><trkpt lat="37.393583259481304" lon="-3.0358327107736334"><ele>1149.5</ele><time>2026-04-21T14:25:23Z</time></trkpt><trkpt lat="37.39349965584132" lon="-3.0361767772492843"><ele>1149.0</ele><time>2026-04-21T14:25:24Z</time></trkpt><trkpt lat="37.39341188974088" lon="-3.036508469432383"><ele>1148.0</ele><time>2026-04-21T14:25:25Z</time></trkpt><trkpt lat="37.39332388031879" lon="-3.036835324424629"><ele>1147.0</ele><time>2026-04-21T14:25:26Z</time></trkpt><trkpt lat="37.39323065319092" lon="-3.037166996096447"><ele>1146.5</ele><time>2026-04-21T14:25:27Z</time></trkpt><trkpt lat="37.39313466614557" lon="-3.037496982949475"><ele>1146.0</ele><time>2026-04-21T14:25:28Z</time></trkpt><trkpt lat="37.39303136522217" lon="-3.03783216273375"><ele>1145.5</ele><time>2026-04-21T14:25:29Z</time></trkpt><trkpt lat="37.392918021603606" lon="-3.038166311137756"><ele>1145.0</ele><time>2026-04-21T14:25:30Z</time></trkpt><trkpt lat="37.392801165008414" lon="-3.0384969653578353"><ele>1145.0</ele><time>2026-04-21T14:25:31Z</time></trkpt><trkpt lat="37.39268412399907" lon="-3.0388338118177405"><ele>1145.0</ele><time>2026-04-21T14:25:32Z</time></trkpt><trkpt lat="37.39256370793064" lon="-3.039169712505087"><ele>1145.5</ele><time>2026-04-21T14:25:33Z</time></trkpt><trkpt lat="37.39243440332344" lon="-3.039502550679496"><ele>1146.0</ele><time>2026-04-21T14:25:34Z</time></trkpt><trkpt lat="37.392294382813795" lon="-3.0398359110668545"><ele>1146.5</ele><time>2026-04-21T14:25:35Z</time></trkpt><trkpt lat="37.39214935631149" lon="-3.0401582548199753"><ele>1147.0</ele><time>2026-04-21T14:25:36Z</time></trkpt><trkpt lat="37.39200429738847" lon="-3.0404770197581956"><ele>1147.0</ele><time>2026-04-21T14:25:37Z</time></trkpt><trkpt lat="37.39185476312462" lon="-3.040792272823801"><ele>1147.0</ele><time>2026-04-21T14:25:38Z</time></trkpt><trkpt lat="37.39170457700149" lon="-3.0411012899731693"><ele>1147.5</ele><time>2026-04-21T14:25:39Z</time></trkpt><trkpt lat="37.39155127072634" lon="-3.041408470109109"><ele>1148.0</ele><time>2026-04-21T14:25:40Z</time></trkpt><trkpt lat="37.391391517719086" lon="-3.0417097371765265"><ele>1149.5</ele><time>2026-04-21T14:25:41Z</time></trkpt><trkpt lat="37.39122714538557" lon="-3.042002660736007"><ele>1151.0</ele><time>2026-04-21T14:25:42Z</time></trkpt><trkpt lat="37.3910586807404" lon="-3.0422887143220203"><ele>1148.0</ele><time>2026-04-21T14:25:43Z</time></trkpt><trkpt lat="37.39088707583153" lon="-3.04257267367897"><ele>1145.0</ele><time>2026-04-21T14:25:44Z</time></trkpt><trkpt lat="37.390715584532835" lon="-3.042854994228301"><ele>1145.0</ele><time>2026-04-21T14:25:45Z</time></trkpt><trkpt lat="37.3905445795826" lon="-3.0431291295077907"><ele>1145.0</ele><time>2026-04-21T14:25:46Z</time></trkpt><trkpt lat="37.39036864270131" lon="-3.043396354687856"><ele>1146.5</ele><time>2026-04-21T14:25:47Z</time></trkpt><trkpt lat="37.39018980508518" lon="-3.0436589096827587"><ele>1148.0</ele><time>2026-04-21T14:25:48Z</time></trkpt><trkpt lat="37.39000690302862" lon="-3.0439164265817777"><ele>1146.0</ele><time>2026-04-21T14:25:49Z</time></trkpt><trkpt lat="37.38982195987604" lon="-3.044169526433453"><ele>1144.0</ele><time>2026-04-21T14:25:50Z</time></trkpt><trkpt lat="37.38964181828289" lon="-3.044434228890152"><ele>1142.5</ele><time>2026-04-21T14:25:51Z</time></trkpt><trkpt lat="37.3894521406493" lon="-3.044697207176215"><ele>1141.0</ele><time>2026-04-21T14:25:52Z</time></trkpt><trkpt lat="37.3892557210105" lon="-3.044956974422083"><ele>1134.0</ele><time>2026-04-21T14:25:53Z</time></trkpt><trkpt lat="37.37733452319602" lon="-3.0607121377792685"><ele>1133.5</ele><time>2026-04-21T14:26:54.001Z</time></trkpt><trkpt lat="37.37719731221813" lon="-3.0610337250163404"><ele>1133.0</ele><time>2026-04-21T14:26:55.001Z</time></trkpt><trkpt lat="37.37706018269794" lon="-3.0613618130700724"><ele>1131.0</ele><time>2026-04-21T14:26:56.001Z</time></trkpt><trkpt lat="37.3769270567851" lon="-3.061694078886749"><ele>1129.0</ele><time>2026-04-21T14:26:57.001Z</time></trkpt><trkpt lat="37.37680499331946" lon="-3.0620332453893253"><ele>1129.0</ele><time>2026-04-21T14:26:58.001Z</time></trkpt><trkpt lat="37.37669304890377" lon="-3.062377732161871"><ele>1129.0</ele><time>2026-04-21T14:26:59.001Z</time></trkpt><trkpt lat="37.37659382872391" lon="-3.062731103977552"><ele>1128.0</ele><time>2026-04-21T14:27:00.001Z</time></trkpt><trkpt lat="37.37650487516854" lon="-3.063085066791491"><ele>1127.0</ele><time>2026-04-21T14:27:01.001Z</time></trkpt><trkpt lat="37.37642016677752" lon="-3.0634398666950515"><ele>1127.5</ele><time>2026-04-21T14:27:02.001Z</time></trkpt><trkpt lat="37.37634723044766" lon="-3.0637914267464232"><ele>1128.0</ele><time>2026-04-21T14:27:03.001Z</time></trkpt><trkpt lat="37.376286720628755" lon="-3.0641424216877726"><ele>1127.0</ele><time>2026-04-21T14:27:04.001Z</time></trkpt><trkpt lat="37.37623633682323" lon="-3.0644881137864197"><ele>1126.0</ele><time>2026-04-21T14:27:05.001Z</time></trkpt><trkpt lat="37.37617001897339" lon="-3.064827987317453"><ele>1125.0</ele><time>2026-04-21T14:27:06.001Z</time></trkpt><trkpt lat="37.376131852119414" lon="-3.0651736627222386"><ele>1124.0</ele><time>2026-04-21T14:27:07.001Z</time></trkpt><trkpt lat="37.376095682661585" lon="-3.0655224053779033"><ele>1123.5</ele><time>2026-04-21T14:27:08.001Z</time></trkpt><trkpt lat="37.376055588624446" lon="-3.0658825014917617"><ele>1123.0</ele><time>2026-04-21T14:27:09.001Z</time></trkpt><trkpt lat="37.37601051477995" lon="-3.0662401736945597"><ele>1123.0</ele><time>2026-04-21T14:27:10.001Z</time></trkpt><trkpt lat="37.37595669923544" lon="-3.066601409981596"><ele>1123.0</ele><time>2026-04-21T14:27:11.001Z</time></trkpt><trkpt lat="37.37589664795977" lon="-3.0669591755149432"><ele>1121.5</ele><time>2026-04-21T14:27:12.001Z</time></trkpt><trkpt lat="37.375818600903905" lon="-3.06731216052296"><ele>1120.0</ele><time>2026-04-21T14:27:13.001Z</time></trkpt><trkpt lat="37.3757193225327" lon="-3.0676582676006143"><ele>1118.5</ele><time>2026-04-21T14:27:14.001Z</time></trkpt><trkpt lat="37.375600688893584" lon="-3.067999756857513"><ele>1117.0</ele><time>2026-04-21T14:27:15.001Z</time></trkpt><trkpt lat="37.375463812613454" lon="-3.0683354948521804"><ele>1117.0</ele><time>2026-04-21T14:27:16.001Z</time></trkpt><trkpt lat="37.375312313694444" lon="-3.0686627965671684"><ele>1117.0</ele><time>2026-04-21T14:27:17.001Z</time></trkpt><trkpt lat="37.37514580340168" lon="-3.06898431818941"><ele>1117.5</ele><time>2026-04-21T14:27:18.001Z</time></trkpt><trkpt lat="37.37497034656744" lon="-3.0692903777489304"><ele>1118.0</ele><time>2026-04-21T14:27:19.001Z</time></trkpt><trkpt lat="37.37477477967647" lon="-3.069582966372372"><ele>1118.5</ele><time>2026-04-21T14:27:20.001Z</time></trkpt><trkpt lat="37.37456448658504" lon="-3.0698554305885244"><ele>1119.0</ele><time>2026-04-21T14:27:21.001Z</time></trkpt><trkpt lat="37.37434056514374" lon="-3.0701093839752"><ele>1119.0</ele><time>2026-04-21T14:27:22.001Z</time></trkpt><trkpt lat="37.374114799685294" lon="-3.0703535648736997"><ele>1119.0</ele><time>2026-04-21T14:27:23.001Z</time></trkpt><trkpt lat="37.373877924925885" lon="-3.0705755617814874"><ele>1119.0</ele><time>2026-04-21T14:27:24.001Z</time></trkpt><trkpt lat="37.373630134813084" lon="-3.0707757027978086"><ele>1119.0</ele><time>2026-04-21T14:27:25.001Z</time></trkpt><trkpt lat="37.37337481847364" lon="-3.0709543965912864"><ele>1119.0</ele><time>2026-04-21T14:27:26.001Z</time></trkpt><trkpt lat="37.37311167030264" lon="-3.0711044256390334"><ele>1119.0</ele><time>2026-04-21T14:27:27.001Z</time></trkpt><trkpt lat="37.372844873939336" lon="-3.0712507590332137"><ele>1120.0</ele><time>2026-04-21T14:27:28.001Z</time></trkpt><trkpt lat="37.37257028058165" lon="-3.0713648461373033"><ele>1121.0</ele><time>2026-04-21T14:27:29.001Z</time></trkpt><trkpt lat="37.37230088964217" lon="-3.071470139701242"><ele>1121.5</ele><time>2026-04-21T14:27:30.001Z</time></trkpt><trkpt lat="37.37202495060162" lon="-3.071552747961215"><ele>1122.0</ele><time>2026-04-21T14:27:31.001Z</time></trkpt><trkpt lat="37.3717493943021" lon="-3.0716129714079203"><ele>1122.0</ele><time>2026-04-21T14:27:32.001Z</time></trkpt><trkpt lat="37.371473795538954" lon="-3.0716565331057617"><ele>1122.0</ele><time>2026-04-21T14:27:33.001Z</time></trkpt><trkpt lat="37.371198279087714" lon="-3.071689911672182"><ele>1121.0</ele><time>2026-04-21T14:27:34Z</time></trkpt><trkpt lat="37.37091420738156" lon="-3.071718252605275"><ele>1120.0</ele><time>2026-04-21T14:27:35Z</time></trkpt><trkpt lat="37.37063181690377" lon="-3.0717450024599886"><ele>1120.5</ele><time>2026-04-21T14:27:36Z</time></trkpt><trkpt lat="37.37035243558217" lon="-3.0717720593381377"><ele>1121.0</ele><time>2026-04-21T14:27:37Z</time></trkpt><trkpt lat="37.37008234632187" lon="-3.0717966708255577"><ele>1121.0</ele><time>2026-04-21T14:27:38Z</time></trkpt><trkpt lat="37.36980822701152" lon="-3.07183004583694"><ele>1121.0</ele><time>2026-04-21T14:27:39Z</time></trkpt><trkpt lat="37.36954016772812" lon="-3.0718774603295325"><ele>1120.5</ele><time>2026-04-21T14:27:40Z</time></trkpt><trkpt lat="37.36926802411705" lon="-3.0719423371004586"><ele>1120.0</ele><time>2026-04-21T14:27:41Z</time></trkpt><trkpt lat="37.368993327366425" lon="-3.0720118297337335"><ele>1120.5</ele><time>2026-04-21T14:27:42Z</time></trkpt><trkpt lat="37.36871807095052" lon="-3.0720825870012534"><ele>1121.0</ele><time>2026-04-21T14:27:43Z</time></trkpt><trkpt lat="37.36844508060636" lon="-3.0721598226027735"><ele>1121.0</ele><time>2026-04-21T14:27:44Z</time></trkpt><trkpt lat="37.36817394761918" lon="-3.072259351720576"><ele>1121.0</ele><time>2026-04-21T14:27:45Z</time></trkpt><trkpt lat="37.36790622187414" lon="-3.0723743541159414"><ele>1122.5</ele><time>2026-04-21T14:27:46Z</time></trkpt><trkpt lat="37.36764165670666" lon="-3.0725037547272813"><ele>1124.0</ele><time>2026-04-21T14:27:47Z</time></trkpt><trkpt lat="37.367383073411084" lon="-3.072637138522126"><ele>1124.5</ele><time>2026-04-21T14:27:48Z</time></trkpt><trkpt lat="37.36712308990492" lon="-3.0727780869847767"><ele>1125.0</ele><time>2026-04-21T14:27:49Z</time></trkpt><trkpt lat="37.36686691712411" lon="-3.0729241782810877"><ele>1125.0</ele><time>2026-04-21T14:27:50Z</time></trkpt><trkpt lat="37.36661570569133" lon="-3.0730832422808705"><ele>1125.0</ele><time>2026-04-21T14:27:51Z</time></trkpt><trkpt lat="37.366366870443656" lon="-3.073259185727783"><ele>1125.0</ele><time>2026-04-21T14:27:52Z</time></trkpt><trkpt lat="37.36612244600577" lon="-3.073443853481958"><ele>1125.0</ele><time>2026-04-21T14:27:53Z</time></trkpt><trkpt lat="37.35117727630651" lon="-3.0882563243833925"><ele>1102.0</ele><time>2026-04-21T14:29:00.001Z</time></trkpt><trkpt lat="37.35092546912814" lon="-3.0884482380160834"><ele>1079.0</ele><time>2026-04-21T14:29:01.001Z</time></trkpt><trkpt lat="37.35066919524955" lon="-3.0886379551654497"><ele>1079.5</ele><time>2026-04-21T14:29:02.001Z</time></trkpt><trkpt lat="37.350410623385656" lon="-3.088823925046245"><ele>1080.0</ele><time>2026-04-21T14:29:03.001Z</time></trkpt><trkpt lat="37.35015327704643" lon="-3.089001674963317"><ele>1079.5</ele><time>2026-04-21T14:29:04.001Z</time></trkpt><trkpt lat="37.34989538826884" lon="-3.089170629903267"><ele>1079.0</ele><time>2026-04-21T14:29:05.001Z</time></trkpt><trkpt lat="37.349638091440404" lon="-3.089333307296516"><ele>1077.5</ele><time>2026-04-21T14:29:06.001Z</time></trkpt><trkpt lat="37.349381251066866" lon="-3.0894943674078723"><ele>1076.0</ele><time>2026-04-21T14:29:07.001Z</time></trkpt><trkpt lat="37.34912982364985" lon="-3.0896540160040833"><ele>1070.0</ele><time>2026-04-21T14:29:08.001Z</time></trkpt><trkpt lat="37.34887027025401" lon="-3.0898077771855528"><ele>1064.0</ele><time>2026-04-21T14:29:09.001Z</time></trkpt><trkpt lat="37.348612488256144" lon="-3.0899629568385256"><ele>1064.0</ele><time>2026-04-21T14:29:10.001Z</time></trkpt><trkpt lat="37.34835931782612" lon="-3.090114667833569"><ele>1064.0</ele><time>2026-04-21T14:29:11.001Z</time></trkpt><trkpt lat="37.34809552221794" lon="-3.090268181898422"><ele>1069.0</ele><time>2026-04-21T14:29:12.001Z</time></trkpt><trkpt lat="37.34782274972772" lon="-3.090414635290598"><ele>1074.0</ele><time>2026-04-21T14:29:13.001Z</time></trkpt><trkpt lat="37.34754870826758" lon="-3.090562799804703"><ele>1074.0</ele><time>2026-04-21T14:29:14.001Z</time></trkpt><trkpt lat="37.34726939105398" lon="-3.090712891521312"><ele>1074.0</ele><time>2026-04-21T14:29:15.001Z</time></trkpt><trkpt lat="37.346986577384776" lon="-3.0908542013942095"><ele>1071.5</ele><time>2026-04-21T14:29:16.001Z</time></trkpt><trkpt lat="37.346699131051096" lon="-3.090989110938625"><ele>1069.0</ele><time>2026-04-21T14:29:17.001Z</time></trkpt><trkpt lat="37.34640888022677" lon="-3.0911250214802575"><ele>1070.5</ele><time>2026-04-21T14:29:18.001Z</time></trkpt><trkpt lat="37.34611607534744" lon="-3.0912535785649635"><ele>1072.0</ele><time>2026-04-21T14:29:19.001Z</time></trkpt><trkpt lat="37.34582143894014" lon="-3.0913835229437514"><ele>1072.0</ele><time>2026-04-21T14:29:20.001Z</time></trkpt><trkpt lat="37.345524882162806" lon="-3.091509969743805"><ele>1072.0</ele><time>2026-04-21T14:29:21.001Z</time></trkpt><trkpt lat="37.34522946116428" lon="-3.0916364567884695"><ele>1071.0</ele><time>2026-04-21T14:29:22.001Z</time></trkpt><trkpt lat="37.34492923666675" lon="-3.0917557322802773"><ele>1070.0</ele><time>2026-04-21T14:29:23Z</time></trkpt><trkpt lat="37.3446284742595" lon="-3.091869260591433"><ele>1070.0</ele><time>2026-04-21T14:29:24Z</time></trkpt><trkpt lat="37.34432858547523" lon="-3.091975462541694"><ele>1070.0</ele><time>2026-04-21T14:29:25Z</time></trkpt><trkpt lat="37.34403120356628" lon="-3.0920850744873913"><ele>1071.5</ele><time>2026-04-21T14:29:26Z</time></trkpt><trkpt lat="37.34373325019663" lon="-3.092189686457108"><ele>1073.0</ele><time>2026-04-21T14:29:27Z</time></trkpt><trkpt lat="37.343434330175164" lon="-3.092286934915671"><ele>1073.0</ele><time>2026-04-21T14:29:28Z</time></trkpt><trkpt lat="37.343137085435934" lon="-3.0923767426974353"><ele>1073.0</ele><time>2026-04-21T14:29:29Z</time></trkpt><trkpt lat="37.342834901330654" lon="-3.092463460428323"><ele>1073.0</ele><time>2026-04-21T14:29:30Z</time></trkpt><trkpt lat="37.3425388032799" lon="-3.0925480238989165"><ele>1073.0</ele><time>2026-04-21T14:29:31Z</time></trkpt><trkpt lat="37.34224667654846" lon="-3.0926233335560007"><ele>1073.0</ele><time>2026-04-21T14:29:32Z</time></trkpt><trkpt lat="37.34195886019685" lon="-3.0926991767311462"><ele>1073.0</ele><time>2026-04-21T14:29:33Z</time></trkpt><trkpt lat="37.341667504029296" lon="-3.092776312769365"><ele>1073.5</ele><time>2026-04-21T14:29:34Z</time></trkpt><trkpt lat="37.34137425698256" lon="-3.092851987551688"><ele>1074.0</ele><time>2026-04-21T14:29:35Z</time></trkpt><trkpt lat="37.34108565561119" lon="-3.092925355726644"><ele>1074.0</ele><time>2026-04-21T14:29:36Z</time></trkpt><trkpt lat="37.340801310724785" lon="-3.0930008463710794"><ele>1074.0</ele><time>2026-04-21T14:29:37Z</time></trkpt><trkpt lat="37.34051985433577" lon="-3.0930755375758165"><ele>1075.5</ele><time>2026-04-21T14:29:38Z</time></trkpt><trkpt lat="37.34024315885849" lon="-3.09314788132305"><ele>1077.0</ele><time>2026-04-21T14:29:39Z</time></trkpt><trkpt lat="37.33996830691017" lon="-3.0932232963070514"><ele>1076.0</ele><time>2026-04-21T14:29:40Z</time></trkpt><trkpt lat="37.339697990387506" lon="-3.093298686198752"><ele>1075.0</ele><time>2026-04-21T14:29:41Z</time></trkpt><trkpt lat="37.339427028703106" lon="-3.093371963210733"><ele>1075.0</ele><time>2026-04-21T14:29:42Z</time></trkpt><trkpt lat="37.33915289209665" lon="-3.093444879673129"><ele>1075.0</ele><time>2026-04-21T14:29:43Z</time></trkpt><trkpt lat="37.33887946375229" lon="-3.093512498303982"><ele>1077.5</ele><time>2026-04-21T14:29:44Z</time></trkpt><trkpt lat="37.33861033393653" lon="-3.093582738990792"><ele>1080.0</ele><time>2026-04-21T14:29:45Z</time></trkpt><trkpt lat="37.338348519149086" lon="-3.0936482647955503"><ele>1080.0</ele><time>2026-04-21T14:29:46Z</time></trkpt><trkpt lat="37.33808906351802" lon="-3.0937177369171778"><ele>1080.0</ele><time>2026-04-21T14:29:47Z</time></trkpt><trkpt lat="37.33782977535044" lon="-3.093787426705883"><ele>1080.5</ele><time>2026-04-21T14:29:48Z</time></trkpt><trkpt lat="37.33757293430456" lon="-3.0938596619215954"><ele>1081.0</ele><time>2026-04-21T14:29:49Z</time></trkpt><trkpt lat="37.33731977550466" lon="-3.0939314865102476"><ele>1082.0</ele><time>2026-04-21T14:29:50Z</time></trkpt><trkpt lat="37.33706531272908" lon="-3.0939979496256984"><ele>1083.0</ele><time>2026-04-21T14:29:51Z</time></trkpt><trkpt lat="37.336806253167794" lon="-3.0940635702282697"><ele>1081.5</ele><time>2026-04-21T14:29:52Z</time></trkpt><trkpt lat="37.33654146470872" lon="-3.094130605222566"><ele>1080.0</ele><time>2026-04-21T14:29:53Z</time></trkpt><trkpt lat="37.32357969946287" lon="-3.1054591185141587"><ele>1058.5</ele><time>2026-04-21T14:30:54.001Z</time></trkpt><trkpt lat="37.32349342423448" lon="-3.1057657875214497"><ele>1037.0</ele><time>2026-04-21T14:30:55.001Z</time></trkpt><trkpt lat="37.323424860142545" lon="-3.1060742816610065"><ele>1037.0</ele><time>2026-04-21T14:30:56.001Z</time></trkpt><trkpt lat="37.32337296582129" lon="-3.106384637931328"><ele>1037.0</ele><time>2026-04-21T14:30:57.001Z</time></trkpt><trkpt lat="37.32333064153693" lon="-3.1067013279919578"><ele>1035.5</ele><time>2026-04-21T14:30:58.001Z</time></trkpt><trkpt lat="37.3232997192815" lon="-3.1070298207213916"><ele>1034.0</ele><time>2026-04-21T14:30:59.001Z</time></trkpt><trkpt lat="37.3232627278492" lon="-3.1073447172302315"><ele>1033.5</ele><time>2026-04-21T14:31:00.001Z</time></trkpt><trkpt lat="37.323241410258625" lon="-3.1076715742919125"><ele>1033.0</ele><time>2026-04-21T14:31:01.001Z</time></trkpt><trkpt lat="37.32322609063881" lon="-3.1080043438749425"><ele>1031.0</ele><time>2026-04-21T14:31:02.001Z</time></trkpt><trkpt lat="37.3232105212496" lon="-3.108334327678011"><ele>1029.0</ele><time>2026-04-21T14:31:03.001Z</time></trkpt><trkpt lat="37.323193829857516" lon="-3.108664859186176"><ele>1029.0</ele><time>2026-04-21T14:31:04.001Z</time></trkpt><trkpt lat="37.32318099578309" lon="-3.108995221425432"><ele>1029.0</ele><time>2026-04-21T14:31:05.001Z</time></trkpt><trkpt lat="37.32316379318063" lon="-3.1093266172164067"><ele>1027.0</ele><time>2026-04-21T14:31:06.001Z</time></trkpt><trkpt lat="37.3231392191001" lon="-3.1096592697890904"><ele>1025.0</ele><time>2026-04-21T14:31:07.001Z</time></trkpt><trkpt lat="37.32310350357727" lon="-3.109985600914936"><ele>1017.5</ele><time>2026-04-21T14:31:08.001Z</time></trkpt><trkpt lat="37.323056129156036" lon="-3.1103101851720334"><ele>1010.0</ele><time>2026-04-21T14:31:09.001Z</time></trkpt><trkpt lat="37.322991599222874" lon="-3.110632152744906"><ele>1009.0</ele><time>2026-04-21T14:31:10.001Z</time></trkpt><trkpt lat="37.32291368687922" lon="-3.1109543282760344"><ele>1008.0</ele><time>2026-04-21T14:31:11.001Z</time></trkpt><trkpt lat="37.32283048346404" lon="-3.111273076081936"><ele>1010.0</ele><time>2026-04-21T14:31:12.001Z</time></trkpt><trkpt lat="37.32274767890571" lon="-3.1115840575235696"><ele>1012.0</ele><time>2026-04-21T14:31:13.001Z</time></trkpt><trkpt lat="37.32266043086071" lon="-3.111892104983524"><ele>1012.0</ele><time>2026-04-21T14:31:14.001Z</time></trkpt><trkpt lat="37.3225726706941" lon="-3.112208834544559"><ele>1012.0</ele><time>2026-04-21T14:31:15.001Z</time></trkpt><trkpt lat="37.32249057071206" lon="-3.1125176652860467"><ele>1011.0</ele><time>2026-04-21T14:31:16.001Z</time></trkpt><trkpt lat="37.32241913094787" lon="-3.11282498600585"><ele>1010.0</ele><time>2026-04-21T14:31:17.001Z</time></trkpt><trkpt lat="37.32234283540915" lon="-3.113130848190329"><ele>1011.0</ele><time>2026-04-21T14:31:18.001Z</time></trkpt><trkpt lat="37.32225944371104" lon="-3.1134327008623606"><ele>1012.0</ele><time>2026-04-21T14:31:19.001Z</time></trkpt><trkpt lat="37.32217431357241" lon="-3.1137382432238847"><ele>1001.5</ele><time>2026-04-21T14:31:20.001Z</time></trkpt><trkpt lat="37.32209197678336" lon="-3.1140429293892598"><ele>991.0</ele><time>2026-04-21T14:31:21Z</time></trkpt><trkpt lat="37.32201236663719" lon="-3.114347680744264"><ele>991.0</ele><time>2026-04-21T14:31:22Z</time></trkpt><trkpt lat="37.32193597695388" lon="-3.114657327694138"><ele>991.0</ele><time>2026-04-21T14:31:23Z</time></trkpt><trkpt lat="37.32186336406878" lon="-3.1149508539874664"><ele>991.0</ele><time>2026-04-21T14:31:24Z</time></trkpt><trkpt lat="37.32179645297484" lon="-3.11523876194668"><ele>991.0</ele><time>2026-04-21T14:31:25Z</time></trkpt><trkpt lat="37.32173761112462" lon="-3.115523189493824"><ele>992.5</ele><time>2026-04-21T14:31:26Z</time></trkpt><trkpt lat="37.32168997839319" lon="-3.115808476869203"><ele>994.0</ele><time>2026-04-21T14:31:27Z</time></trkpt><trkpt lat="37.32165128030713" lon="-3.116098166680023"><ele>994.0</ele><time>2026-04-21T14:31:28Z</time></trkpt><trkpt lat="37.32161969460138" lon="-3.1163925788607942"><ele>994.0</ele><time>2026-04-21T14:31:29Z</time></trkpt><trkpt lat="37.321591681076626" lon="-3.1166885723838624"><ele>993.5</ele><time>2026-04-21T14:31:30Z</time></trkpt><trkpt lat="37.32156415524566" lon="-3.1169895514903363"><ele>993.0</ele><time>2026-04-21T14:31:31Z</time></trkpt><trkpt lat="37.321536039221535" lon="-3.11729208872555"><ele>992.5</ele><time>2026-04-21T14:31:32Z</time></trkpt><trkpt lat="37.32150560884319" lon="-3.1175915177263764"><ele>992.0</ele><time>2026-04-21T14:31:33Z</time></trkpt><trkpt lat="37.321475675015606" lon="-3.1178924851493512"><ele>992.0</ele><time>2026-04-21T14:31:34Z</time></trkpt><trkpt lat="37.32144912698935" lon="-3.1181970115284185"><ele>992.0</ele><time>2026-04-21T14:31:35Z</time></trkpt><trkpt lat="37.32142354828396" lon="-3.118501827041214"><ele>989.0</ele><time>2026-04-21T14:31:36Z</time></trkpt><trkpt lat="37.32139717055236" lon="-3.118807237347963"><ele>986.0</ele><time>2026-04-21T14:31:37Z</time></trkpt><trkpt lat="37.32136679824126" lon="-3.119107070508559"><ele>986.0</ele><time>2026-04-21T14:31:38Z</time></trkpt><trkpt lat="37.321336459991535" lon="-3.1193979150595696"><ele>986.0</ele><time>2026-04-21T14:31:39Z</time></trkpt><trkpt lat="37.32131059088413" lon="-3.1197025530272438"><ele>985.5</ele><time>2026-04-21T14:31:40Z</time></trkpt><trkpt lat="37.321282825800836" lon="-3.120008427368288"><ele>985.0</ele><time>2026-04-21T14:31:41Z</time></trkpt><trkpt lat="37.3212483610301" lon="-3.1203161626412728"><ele>985.0</ele><time>2026-04-21T14:31:42Z</time></trkpt><trkpt lat="37.32120048546959" lon="-3.1206161114071005"><ele>985.0</ele><time>2026-04-21T14:31:43Z</time></trkpt><trkpt lat="37.321138718930804" lon="-3.12091280004432"><ele>985.5</ele><time>2026-04-21T14:31:44Z</time></trkpt><trkpt lat="37.3210695306835" lon="-3.121206430485241"><ele>986.0</ele><time>2026-04-21T14:31:45Z</time></trkpt><trkpt lat="37.32098065383208" lon="-3.121468722093292"><ele>984.0</ele><time>2026-04-21T14:31:46Z</time></trkpt><trkpt lat="37.32090936171357" lon="-3.1217396374891893"><ele>982.0</ele><time>2026-04-21T14:31:47Z</time></trkpt><trkpt lat="37.320844432073436" lon="-3.122053176681979"><ele>982.0</ele><time>2026-04-21T14:31:48Z</time></trkpt><trkpt lat="37.320777440174204" lon="-3.1223350068356215"><ele>982.0</ele><time>2026-04-21T14:31:49Z</time></trkpt><trkpt lat="37.3207116981887" lon="-3.122615833981933"><ele>981.5</ele><time>2026-04-21T14:31:50Z</time></trkpt><trkpt lat="37.32064492366457" lon="-3.122890828321744"><ele>981.0</ele><time>2026-04-21T14:31:51Z</time></trkpt><trkpt lat="37.32058145928243" lon="-3.123172502599353"><ele>975.0</ele><time>2026-04-21T14:31:52Z</time></trkpt><trkpt lat="37.320515856540254" lon="-3.123460053689786"><ele>969.0</ele><time>2026-04-21T14:31:53Z</time></trkpt><trkpt lat="37.32037918412643" lon="-3.139163483150273"><ele>943.3333333333333</ele><time>2026-04-21T14:32:53.999Z</time></trkpt><trkpt lat="37.32047985355926" lon="-3.1390196027485735"><ele>917.6666666666666</ele><time>2026-04-21T14:32:54.999Z</time></trkpt><trkpt lat="37.32054864130549" lon="-3.138845220858346"><ele>892.0</ele><time>2026-04-21T14:32:55.999Z</time></trkpt><trkpt lat="37.32057631779979" lon="-3.1386547262250666"><ele>892.0</ele><time>2026-04-21T14:32:56.999Z</time></trkpt><trkpt lat="37.32055874670207" lon="-3.13846185335134"><ele>892.0</ele><time>2026-04-21T14:32:57.999Z</time></trkpt><trkpt lat="37.32051994103439" lon="-3.138285923364319"><ele>892.0</ele><time>2026-04-21T14:32:58.999Z</time></trkpt><trkpt lat="37.32046322628967" lon="-3.138117085792179"><ele>892.0</ele><time>2026-04-21T14:33:00.001Z</time></trkpt><trkpt lat="37.32038987503432" lon="-3.1379595845883803"><ele>893.6666666666666</ele><time>2026-04-21T14:33:01.001Z</time></trkpt><trkpt lat="37.320296431303525" lon="-3.1378144564609927"><ele>895.3333333333333</ele><time>2026-04-21T14:33:02.001Z</time></trkpt><trkpt lat="37.32018082848421" lon="-3.1376883229597827"><ele>897.0</ele><time>2026-04-21T14:33:03.001Z</time></trkpt><trkpt lat="37.3200489721169" lon="-3.137586714135205"><ele>897.0</ele><time>2026-04-21T14:33:04.001Z</time></trkpt><trkpt lat="37.31990638271799" lon="-3.137513951618639"><ele>897.0</ele><time>2026-04-21T14:33:05.001Z</time></trkpt><trkpt lat="37.31977361086934" lon="-3.137473253282139"><ele>897.0</ele><time>2026-04-21T14:33:06.001Z</time></trkpt><trkpt lat="37.31963581392556" lon="-3.13745727735552"><ele>897.0</ele><time>2026-04-21T14:33:07Z</time></trkpt><trkpt lat="37.31949086801437" lon="-3.1374737939337662"><ele>896.6666666666667</ele><time>2026-04-21T14:33:08Z</time></trkpt><trkpt lat="37.319347340072106" lon="-3.1375054017591344"><ele>896.3333333333334</ele><time>2026-04-21T14:33:09Z</time></trkpt><trkpt lat="37.31919554431837" lon="-3.1375222876468385"><ele>896.0</ele><time>2026-04-21T14:33:10Z</time></trkpt><trkpt lat="37.31903679589632" lon="-3.137537134188811"><ele>896.5</ele><time>2026-04-21T14:33:11Z</time></trkpt><trkpt lat="37.318877378766956" lon="-3.137551079394164"><ele>897.0</ele><time>2026-04-21T14:33:12Z</time></trkpt><trkpt lat="37.318742842243566" lon="-3.1375601811122285"><ele>897.5</ele><time>2026-04-21T14:33:13Z</time></trkpt><trkpt lat="37.31862064725668" lon="-3.137575660079057"><ele>898.0</ele><time>2026-04-21T14:33:14Z</time></trkpt><trkpt lat="37.318504902996665" lon="-3.137619700615702"><ele>898.0</ele><time>2026-04-21T14:33:15Z</time></trkpt><trkpt lat="37.318386453605285" lon="-3.137700415390553"><ele>898.0</ele><time>2026-04-21T14:33:16Z</time></trkpt><trkpt lat="37.31826919965761" lon="-3.1378174689916167"><ele>898.0</ele><time>2026-04-21T14:33:17Z</time></trkpt><trkpt lat="37.31816300599639" lon="-3.1379586163550224"><ele>898.0</ele><time>2026-04-21T14:33:18Z</time></trkpt><trkpt lat="37.31807553154255" lon="-3.138117354992833"><ele>896.75</ele><time>2026-04-21T14:33:19Z</time></trkpt><trkpt lat="37.318019008437695" lon="-3.1382788460766355"><ele>895.5</ele><time>2026-04-21T14:33:20Z</time></trkpt><trkpt lat="37.31796554896513" lon="-3.1384397730799503"><ele>894.25</ele><time>2026-04-21T14:33:21Z</time></trkpt><trkpt lat="37.31797328043704" lon="-3.1386260935898727"><ele>893.0</ele><time>2026-04-21T14:33:22Z</time></trkpt><trkpt lat="37.31798514193474" lon="-3.1388001716893186"><ele>893.0</ele><time>2026-04-21T14:33:23Z</time></trkpt><trkpt lat="37.31803396343576" lon="-3.138971828233942"><ele>893.0</ele><time>2026-04-21T14:33:24Z</time></trkpt><trkpt lat="37.31812138781753" lon="-3.139116125060989"><ele>893.0</ele><time>2026-04-21T14:33:25Z</time></trkpt><trkpt lat="37.318238624358386" lon="-3.1392207034367696"><ele>893.0</ele><time>2026-04-21T14:33:26Z</time></trkpt><trkpt lat="37.31837840852561" lon="-3.1392950731282205"><ele>891.6666666666667</ele><time>2026-04-21T14:33:27Z</time></trkpt><trkpt lat="37.31852502770059" lon="-3.1393265469298104"><ele>890.3333333333333</ele><time>2026-04-21T14:33:28Z</time></trkpt><trkpt lat="37.318678429271294" lon="-3.139307735823414"><ele>889.0</ele><time>2026-04-21T14:33:29Z</time></trkpt><trkpt lat="37.31882264841044" lon="-3.1392343613578633"><ele>888.6666666666666</ele><time>2026-04-21T14:33:30Z</time></trkpt><trkpt lat="37.318949188803295" lon="-3.139108911586443"><ele>888.3333333333333</ele><time>2026-04-21T14:33:31Z</time></trkpt><trkpt lat="37.31904125952995" lon="-3.1389393667987724"><ele>888.0</ele><time>2026-04-21T14:33:32Z</time></trkpt><trkpt lat="37.31909768548499" lon="-3.138738157190011"><ele>888.6666666666667</ele><time>2026-04-21T14:33:33Z</time></trkpt><trkpt lat="37.31908990839323" lon="-3.1385315718557956"><ele>889.3333333333334</ele><time>2026-04-21T14:33:34Z</time></trkpt><trkpt lat="37.31909158684217" lon="-3.138311404791576"><ele>890.0</ele><time>2026-04-21T14:33:35Z</time></trkpt><trkpt lat="37.3190686266296" lon="-3.138098558649895"><ele>892.0</ele><time>2026-04-21T14:33:36Z</time></trkpt><trkpt lat="37.31906304086161" lon="-3.1378786229567948"><ele>894.0</ele><time>2026-04-21T14:33:37Z</time></trkpt><trkpt lat="37.319061579779536" lon="-3.1376394515965376"><ele>896.0</ele><time>2026-04-21T14:33:38Z</time></trkpt><trkpt lat="37.31905218185955" lon="-3.137404828522091"><ele>896.6666666666667</ele><time>2026-04-21T14:33:39Z</time></trkpt><trkpt lat="37.319042939847286" lon="-3.137182421468207"><ele>897.3333333333333</ele><time>2026-04-21T14:33:40Z</time></trkpt><trkpt lat="37.31903269721243" lon="-3.1369609315498677"><ele>898.0</ele><time>2026-04-21T14:33:41Z</time></trkpt><trkpt lat="37.31902420479337" lon="-3.13677198783676"><ele>898.0</ele><time>2026-04-21T14:33:42Z</time></trkpt><trkpt lat="37.31902041774421" lon="-3.1366118157552725"><ele>898.0</ele><time>2026-04-21T14:33:43Z</time></trkpt><trkpt lat="37.31900734749245" lon="-3.1364389186128694"><ele>898.0</ele><time>2026-04-21T14:33:44Z</time></trkpt><trkpt lat="37.318998365331424" lon="-3.1362454702147873"><ele>898.0</ele><time>2026-04-21T14:33:45Z</time></trkpt><trkpt lat="37.31898925791563" lon="-3.1360453491091613"><ele>899.0</ele><time>2026-04-21T14:33:46Z</time></trkpt><trkpt lat="37.31897975527702" lon="-3.1358394078361282"><ele>900.0</ele><time>2026-04-21T14:33:47Z</time></trkpt><trkpt lat="37.318970031683435" lon="-3.1355946560509556"><ele>901.0</ele><time>2026-04-21T14:33:48Z</time></trkpt><trkpt lat="37.3189574333179" lon="-3.1353445079916207"><ele>902.0</ele><time>2026-04-21T14:33:49Z</time></trkpt><trkpt lat="37.318939617636644" lon="-3.1350722368847674"><ele>903.0</ele><time>2026-04-21T14:33:50Z</time></trkpt><trkpt lat="37.31892453114783" lon="-3.1347804908734873"><ele>905.0</ele><time>2026-04-21T14:33:51Z</time></trkpt><trkpt lat="37.31890512655361" lon="-3.1344747964549544"><ele>907.0</ele><time>2026-04-21T14:33:52Z</time></trkpt><trkpt lat="37.31888880999951" lon="-3.1341536778012227"><ele>1009.0</ele><time>2026-04-21T14:33:53Z</time></trkpt><trkpt lat="37.31896940132487" lon="-3.114397823611152"><ele>1010.5</ele><time>2026-04-21T14:34:53.999Z</time></trkpt><trkpt lat="37.31875456186246" lon="-3.1141602442907685"><ele>1012.0</ele><time>2026-04-21T14:34:54.999Z</time></trkpt><trkpt lat="37.31852999101178" lon="-3.1139312597341253"><ele>1014.0</ele><time>2026-04-21T14:34:55.999Z</time></trkpt><trkpt lat="37.318291631503044" lon="-3.113715364741189"><ele>1016.0</ele><time>2026-04-21T14:34:56.999Z</time></trkpt><trkpt lat="37.3180458040396" lon="-3.113509610978204"><ele>1016.0</ele><time>2026-04-21T14:34:57.999Z</time></trkpt><trkpt lat="37.31778679031522" lon="-3.11331716085516"><ele>1016.0</ele><time>2026-04-21T14:34:58.999Z</time></trkpt><trkpt lat="37.317520575078625" lon="-3.113137430134622"><ele>1017.5</ele><time>2026-04-21T14:34:59.999Z</time></trkpt><trkpt lat="37.31724862772802" lon="-3.112974667107537"><ele>1019.0</ele><time>2026-04-21T14:35:00.999Z</time></trkpt><trkpt lat="37.31696483785501" lon="-3.112835460642167"><ele>1019.0</ele><time>2026-04-21T14:35:01.999Z</time></trkpt><trkpt lat="37.316670971939025" lon="-3.1127146776288446"><ele>1019.0</ele><time>2026-04-21T14:35:02.999Z</time></trkpt><trkpt lat="37.316369476688436" lon="-3.112615423379133"><ele>1017.0</ele><time>2026-04-21T14:35:03.999Z</time></trkpt><trkpt lat="37.316063935713224" lon="-3.1125250377445206"><ele>1015.0</ele><time>2026-04-21T14:35:04.999Z</time></trkpt><trkpt lat="37.31577234199976" lon="-3.112438976727272"><ele>1015.5</ele><time>2026-04-21T14:35:06Z</time></trkpt><trkpt lat="37.31549509286299" lon="-3.112394136055326"><ele>1016.0</ele><time>2026-04-21T14:35:07Z</time></trkpt><trkpt lat="37.31523434717052" lon="-3.11235057166846"><ele>1016.0</ele><time>2026-04-21T14:35:08Z</time></trkpt><trkpt lat="37.31498081121027" lon="-3.112320943630508"><ele>1016.0</ele><time>2026-04-21T14:35:09Z</time></trkpt><trkpt lat="37.31472791660155" lon="-3.1122979735885163"><ele>1014.0</ele><time>2026-04-21T14:35:10Z</time></trkpt><trkpt lat="37.31447501000945" lon="-3.1122789442118"><ele>1012.0</ele><time>2026-04-21T14:35:11Z</time></trkpt><trkpt lat="37.31422130959186" lon="-3.112267493738335"><ele>1012.0</ele><time>2026-04-21T14:35:12Z</time></trkpt><trkpt lat="37.313963418852545" lon="-3.112262980646742"><ele>1012.0</ele><time>2026-04-21T14:35:13Z</time></trkpt><trkpt lat="37.31370938422613" lon="-3.1122666359309"><ele>1012.5</ele><time>2026-04-21T14:35:14Z</time></trkpt><trkpt lat="37.313452185225515" lon="-3.112274580098109"><ele>1013.0</ele><time>2026-04-21T14:35:15Z</time></trkpt><trkpt lat="37.313198512580755" lon="-3.112284277736421"><ele>1011.5</ele><time>2026-04-21T14:35:16Z</time></trkpt><trkpt lat="37.31294555329936" lon="-3.1122906801416343"><ele>1010.0</ele><time>2026-04-21T14:35:17Z</time></trkpt><trkpt lat="37.312691889473925" lon="-3.11229810814321"><ele>1010.0</ele><time>2026-04-21T14:35:18Z</time></trkpt><trkpt lat="37.31243516462235" lon="-3.1123102686686512"><ele>1010.0</ele><time>2026-04-21T14:35:19Z</time></trkpt><trkpt lat="37.312174188871026" lon="-3.1123314685841126"><ele>1008.0</ele><time>2026-04-21T14:35:20Z</time></trkpt><trkpt lat="37.311909295569144" lon="-3.112345241665458"><ele>1006.0</ele><time>2026-04-21T14:35:21Z</time></trkpt><trkpt lat="37.311641353441395" lon="-3.112354826529709"><ele>997.5</ele><time>2026-04-21T14:35:22Z</time></trkpt><trkpt lat="37.3113708491079" lon="-3.112363366841978"><ele>989.0</ele><time>2026-04-21T14:35:23Z</time></trkpt><trkpt lat="37.3111018983713" lon="-3.112372547190834"><ele>989.0</ele><time>2026-04-21T14:35:24Z</time></trkpt><trkpt lat="37.31083123468661" lon="-3.112381261918419"><ele>989.0</ele><time>2026-04-21T14:35:25Z</time></trkpt><trkpt lat="37.31055855093659" lon="-3.112392709871513"><ele>987.5</ele><time>2026-04-21T14:35:26Z</time></trkpt><trkpt lat="37.310282004387055" lon="-3.112404232730982"><ele>986.0</ele><time>2026-04-21T14:35:27Z</time></trkpt><trkpt lat="37.310004182824336" lon="-3.112409199668851"><ele>981.0</ele><time>2026-04-21T14:35:28Z</time></trkpt><trkpt lat="37.30972504963015" lon="-3.1124086645088984"><ele>976.0</ele><time>2026-04-21T14:35:29Z</time></trkpt><trkpt lat="37.30944272167603" lon="-3.112406885676354"><ele>976.5</ele><time>2026-04-21T14:35:30Z</time></trkpt><trkpt lat="37.309157518488085" lon="-3.1124014338305592"><ele>977.0</ele><time>2026-04-21T14:35:31Z</time></trkpt><trkpt lat="37.30887363420728" lon="-3.1123868917648676"><ele>977.0</ele><time>2026-04-21T14:35:32Z</time></trkpt><trkpt lat="37.30858813957674" lon="-3.112366497051584"><ele>977.0</ele><time>2026-04-21T14:35:33Z</time></trkpt><trkpt lat="37.30830354354828" lon="-3.1123408264452403"><ele>974.5</ele><time>2026-04-21T14:35:34Z</time></trkpt><trkpt lat="37.30802154306678" lon="-3.1123085105805934"><ele>972.0</ele><time>2026-04-21T14:35:35Z</time></trkpt><trkpt lat="37.307732236476575" lon="-3.1122735860679374"><ele>972.0</ele><time>2026-04-21T14:35:36Z</time></trkpt><trkpt lat="37.30744963070633" lon="-3.112234946297298"><ele>972.0</ele><time>2026-04-21T14:35:37Z</time></trkpt><trkpt lat="37.30716616394128" lon="-3.1121898232626912"><ele>971.0</ele><time>2026-04-21T14:35:38Z</time></trkpt><trkpt lat="37.30688925343728" lon="-3.1121516066265333"><ele>970.0</ele><time>2026-04-21T14:35:39Z</time></trkpt><trkpt lat="37.30660579662266" lon="-3.11208503371096"><ele>970.5</ele><time>2026-04-21T14:35:40Z</time></trkpt><trkpt lat="37.306331015209686" lon="-3.112023516264939"><ele>971.0</ele><time>2026-04-21T14:35:41Z</time></trkpt><trkpt lat="37.30606053906065" lon="-3.1119598067002254"><ele>971.0</ele><time>2026-04-21T14:35:42Z</time></trkpt><trkpt lat="37.30578558357863" lon="-3.1118942383084534"><ele>971.0</ele><time>2026-04-21T14:35:43Z</time></trkpt><trkpt lat="37.30551622039958" lon="-3.1118247678949964"><ele>970.0</ele><time>2026-04-21T14:35:44Z</time></trkpt><trkpt lat="37.305245768595036" lon="-3.111751360143609"><ele>969.0</ele><time>2026-04-21T14:35:45Z</time></trkpt><trkpt lat="37.30498226324264" lon="-3.1116731232424786"><ele>968.5</ele><time>2026-04-21T14:35:46Z</time></trkpt><trkpt lat="37.30471908992813" lon="-3.111590757509172"><ele>968.0</ele><time>2026-04-21T14:35:47Z</time></trkpt><trkpt lat="37.30445859567567" lon="-3.111495456098792"><ele>970.5</ele><time>2026-04-21T14:35:48Z</time></trkpt><trkpt lat="37.304201202182725" lon="-3.111408137615437"><ele>973.0</ele><time>2026-04-21T14:35:49Z</time></trkpt><trkpt lat="37.30394326398642" lon="-3.111310424280564"><ele>975.0</ele><time>2026-04-21T14:35:50Z</time></trkpt><trkpt lat="37.30368511487114" lon="-3.1112128341916954"><ele>977.0</ele><time>2026-04-21T14:35:51Z</time></trkpt><trkpt lat="37.303423980889946" lon="-3.1111108560677865"><ele>977.0</ele><time>2026-04-21T14:35:52Z</time></trkpt><trkpt lat="37.30316180377785" lon="-3.1110070416190245"><ele>977.0</ele><time>2026-04-21T14:35:53Z</time></trkpt><trkpt lat="37.28820454306636" lon="-3.109109542833125"><ele>980.5</ele><time>2026-04-21T14:36:53.999Z</time></trkpt><trkpt lat="37.287979684327816" lon="-3.108984499708981"><ele>984.0</ele><time>2026-04-21T14:36:54.999Z</time></trkpt><trkpt lat="37.28783767691879" lon="-3.1087463797936907"><ele>984.0</ele><time>2026-04-21T14:36:55.999Z</time></trkpt><trkpt lat="37.287703980843524" lon="-3.1085023274459265"><ele>984.0</ele><time>2026-04-21T14:36:56.999Z</time></trkpt><trkpt lat="37.28756858094568" lon="-3.108260070821479"><ele>989.5</ele><time>2026-04-21T14:36:57.999Z</time></trkpt><trkpt lat="37.287432534441784" lon="-3.1080158168182526"><ele>995.0</ele><time>2026-04-21T14:36:58.999Z</time></trkpt><trkpt lat="37.2873029328898" lon="-3.1077713014983566"><ele>994.0</ele><time>2026-04-21T14:36:59.999Z</time></trkpt><trkpt lat="37.287174803803566" lon="-3.1075240654821035"><ele>993.0</ele><time>2026-04-21T14:37:00.999Z</time></trkpt><trkpt lat="37.287049194682005" lon="-3.107270318681063"><ele>993.0</ele><time>2026-04-21T14:37:01.999Z</time></trkpt><trkpt lat="37.28692178808827" lon="-3.1069908700797084"><ele>993.0</ele><time>2026-04-21T14:37:02.999Z</time></trkpt><trkpt lat="37.28678744624256" lon="-3.1067089207333205"><ele>996.0</ele><time>2026-04-21T14:37:03.999Z</time></trkpt><trkpt lat="37.28665633323803" lon="-3.106427478901716"><ele>999.0</ele><time>2026-04-21T14:37:04.999Z</time></trkpt><trkpt lat="37.28652100103217" lon="-3.1061454171553984"><ele>1000.0</ele><time>2026-04-21T14:37:05.999Z</time></trkpt><trkpt lat="37.286389115526575" lon="-3.1058581243622294"><ele>1001.0</ele><time>2026-04-21T14:37:06.999Z</time></trkpt><trkpt lat="37.286251572453544" lon="-3.105547207386598"><ele>1001.0</ele><time>2026-04-21T14:37:07.999Z</time></trkpt><trkpt lat="37.28610914075654" lon="-3.1052202399818816"><ele>1001.0</ele><time>2026-04-21T14:37:08.999Z</time></trkpt><trkpt lat="37.28595832588201" lon="-3.104881877866865"><ele>1005.5</ele><time>2026-04-21T14:37:09.999Z</time></trkpt><trkpt lat="37.285803370721986" lon="-3.1045479588487934"><ele>1010.0</ele><time>2026-04-21T14:37:10.999Z</time></trkpt><trkpt lat="37.285654176235866" lon="-3.1042210691950034"><ele>1007.5</ele><time>2026-04-21T14:37:12Z</time></trkpt><trkpt lat="37.285505697360435" lon="-3.1038987278408214"><ele>1005.0</ele><time>2026-04-21T14:37:13Z</time></trkpt><trkpt lat="37.28536034086628" lon="-3.1035889999569517"><ele>1005.0</ele><time>2026-04-21T14:37:14Z</time></trkpt><trkpt lat="37.28521144527707" lon="-3.103285074188915"><ele>1005.0</ele><time>2026-04-21T14:37:15Z</time></trkpt><trkpt lat="37.285051315743246" lon="-3.1029837278098023"><ele>1009.5</ele><time>2026-04-21T14:37:16Z</time></trkpt><trkpt lat="37.284886723709235" lon="-3.1026865034189326"><ele>1014.0</ele><time>2026-04-21T14:37:17Z</time></trkpt><trkpt lat="37.28472463573439" lon="-3.1023979343374477"><ele>1014.0</ele><time>2026-04-21T14:37:18Z</time></trkpt><trkpt lat="37.28455772331265" lon="-3.102101705338181"><ele>1014.0</ele><time>2026-04-21T14:37:19Z</time></trkpt><trkpt lat="37.284385122992674" lon="-3.1018023894758535"><ele>1016.0</ele><time>2026-04-21T14:37:20Z</time></trkpt><trkpt lat="37.284198991650314" lon="-3.101504375137168"><ele>1018.0</ele><time>2026-04-21T14:37:21Z</time></trkpt><trkpt lat="37.28400708748756" lon="-3.1012133196899927"><ele>1018.5</ele><time>2026-04-21T14:37:22Z</time></trkpt><trkpt lat="37.28380743703859" lon="-3.100923876183908"><ele>1019.0</ele><time>2026-04-21T14:37:23Z</time></trkpt><trkpt lat="37.283607789672914" lon="-3.100641467342319"><ele>1019.0</ele><time>2026-04-21T14:37:24Z</time></trkpt><trkpt lat="37.28340609178119" lon="-3.1003670858462407"><ele>1019.0</ele><time>2026-04-21T14:37:25Z</time></trkpt><trkpt lat="37.28320352809843" lon="-3.10009949489051"><ele>1021.5</ele><time>2026-04-21T14:37:26Z</time></trkpt><trkpt lat="37.28300134094643" lon="-3.099841736889835"><ele>1024.0</ele><time>2026-04-21T14:37:27Z</time></trkpt><trkpt lat="37.2827975313713" lon="-3.0995942820756937"><ele>1024.0</ele><time>2026-04-21T14:37:28Z</time></trkpt><trkpt lat="37.28259042523587" lon="-3.0993598573053256"><ele>1024.0</ele><time>2026-04-21T14:37:29Z</time></trkpt><trkpt lat="37.282380059077035" lon="-3.0991314835050825"><ele>1027.5</ele><time>2026-04-21T14:37:30Z</time></trkpt><trkpt lat="37.28216860158405" lon="-3.0989135705027775"><ele>1031.0</ele><time>2026-04-21T14:37:31Z</time></trkpt><trkpt lat="37.281952000557645" lon="-3.0987021741752505"><ele>1031.0</ele><time>2026-04-21T14:37:32Z</time></trkpt><trkpt lat="37.281729561139656" lon="-3.098496028969749"><ele>1031.0</ele><time>2026-04-21T14:37:33Z</time></trkpt><trkpt lat="37.28150608227141" lon="-3.0982918728337747"><ele>1034.5</ele><time>2026-04-21T14:37:34Z</time></trkpt><trkpt lat="37.28127878084327" lon="-3.098096430344777"><ele>1038.0</ele><time>2026-04-21T14:37:35Z</time></trkpt><trkpt lat="37.28104850043206" lon="-3.0979082345074427"><ele>1038.0</ele><time>2026-04-21T14:37:36Z</time></trkpt><trkpt lat="37.28081478402434" lon="-3.0977283006104614"><ele>1038.0</ele><time>2026-04-21T14:37:37Z</time></trkpt><trkpt lat="37.2805769054978" lon="-3.0975565128516727"><ele>1039.0</ele><time>2026-04-21T14:37:38Z</time></trkpt><trkpt lat="37.280333964341885" lon="-3.097390505772024"><ele>1040.0</ele><time>2026-04-21T14:37:39Z</time></trkpt><trkpt lat="37.28008718972744" lon="-3.097232313506227"><ele>1040.0</ele><time>2026-04-21T14:37:40Z</time></trkpt><trkpt lat="37.27983564996777" lon="-3.0970813319777744"><ele>1040.0</ele><time>2026-04-21T14:37:41Z</time></trkpt><trkpt lat="37.279581639751974" lon="-3.0969360183416845"><ele>1042.5</ele><time>2026-04-21T14:37:42Z</time></trkpt><trkpt lat="37.27932291295528" lon="-3.0967993073902305"><ele>1045.0</ele><time>2026-04-21T14:37:43Z</time></trkpt><trkpt lat="37.279066195986616" lon="-3.0966695909232542"><ele>1048.5</ele><time>2026-04-21T14:37:44Z</time></trkpt><trkpt lat="37.27880981183875" lon="-3.0965452261368314"><ele>1052.0</ele><time>2026-04-21T14:37:45Z</time></trkpt><trkpt lat="37.27855046858698" lon="-3.0964298734659907"><ele>1052.0</ele><time>2026-04-21T14:37:46Z</time></trkpt><trkpt lat="37.27829318606986" lon="-3.0963194607532065"><ele>1052.0</ele><time>2026-04-21T14:37:47Z</time></trkpt><trkpt lat="37.278041287986085" lon="-3.096221004171197"><ele>1056.5</ele><time>2026-04-21T14:37:48Z</time></trkpt><trkpt lat="37.277790097662646" lon="-3.096132984918165"><ele>1061.0</ele><time>2026-04-21T14:37:49Z</time></trkpt><trkpt lat="37.27754054705585" lon="-3.0960548777385086"><ele>1061.0</ele><time>2026-04-21T14:37:50Z</time></trkpt><trkpt lat="37.27729536173211" lon="-3.0959822721631642"><ele>1061.0</ele><time>2026-04-21T14:37:51Z</time></trkpt><trkpt lat="37.277053081266786" lon="-3.095918961051694"><ele>1063.0</ele><time>2026-04-21T14:37:52Z</time></trkpt><trkpt lat="37.27681057086654" lon="-3.0958606812045115"><ele>1065.0</ele><time>2026-04-21T14:37:53Z</time></trkpt><trkpt lat="37.26347805792191" lon="-3.087142557325356"><ele>1069.5</ele><time>2026-04-21T14:38:53.999Z</time></trkpt><trkpt lat="37.26332412690121" lon="-3.0868780451398745"><ele>1074.0</ele><time>2026-04-21T14:38:54.999Z</time></trkpt><trkpt lat="37.26317003050241" lon="-3.086615713225269"><ele>1073.0</ele><time>2026-04-21T14:38:55.999Z</time></trkpt><trkpt lat="37.26300773326794" lon="-3.0863574209649167"><ele>1072.0</ele><time>2026-04-21T14:38:56.999Z</time></trkpt><trkpt lat="37.26284373595641" lon="-3.086105572255565"><ele>1072.0</ele><time>2026-04-21T14:38:57.999Z</time></trkpt><trkpt lat="37.26267268229199" lon="-3.085859702454736"><ele>1072.0</ele><time>2026-04-21T14:38:58.999Z</time></trkpt><trkpt lat="37.262494567390014" lon="-3.085619513116949"><ele>1073.0</ele><time>2026-04-21T14:38:59.999Z</time></trkpt><trkpt lat="37.2623075890471" lon="-3.0853816293369225"><ele>1074.0</ele><time>2026-04-21T14:39:00.999Z</time></trkpt><trkpt lat="37.262115816542185" lon="-3.0851522798661595"><ele>1074.5</ele><time>2026-04-21T14:39:01.999Z</time></trkpt><trkpt lat="37.26192045422892" lon="-3.0849273145062432"><ele>1075.0</ele><time>2026-04-21T14:39:02.999Z</time></trkpt><trkpt lat="37.26171974569109" lon="-3.084706522159677"><ele>1075.0</ele><time>2026-04-21T14:39:03.999Z</time></trkpt><trkpt lat="37.26151613341413" lon="-3.084490788697716"><ele>1075.0</ele><time>2026-04-21T14:39:04.999Z</time></trkpt><trkpt lat="37.261305029335404" lon="-3.084278499373636"><ele>1076.0</ele><time>2026-04-21T14:39:05.999Z</time></trkpt><trkpt lat="37.2610885663639" lon="-3.0840766880641897"><ele>1077.0</ele><time>2026-04-21T14:39:06.999Z</time></trkpt><trkpt lat="37.260864174865574" lon="-3.0838819665562296"><ele>1077.0</ele><time>2026-04-21T14:39:07.999Z</time></trkpt><trkpt lat="37.260639900702266" lon="-3.083693308255001"><ele>1077.0</ele><time>2026-04-21T14:39:08.999Z</time></trkpt><trkpt lat="37.26041245492304" lon="-3.0835085667090993"><ele>1079.0</ele><time>2026-04-21T14:39:09.999Z</time></trkpt><trkpt lat="37.26017636695962" lon="-3.0833362269620164"><ele>1081.0</ele><time>2026-04-21T14:39:10.999Z</time></trkpt><trkpt lat="37.259935362781725" lon="-3.0831763344864824"><ele>1081.5</ele><time>2026-04-21T14:39:11.999Z</time></trkpt><trkpt lat="37.25969180529131" lon="-3.083022784366775"><ele>1082.0</ele><time>2026-04-21T14:39:12.999Z</time></trkpt><trkpt lat="37.25944478284083" lon="-3.082874898532382"><ele>1082.0</ele><time>2026-04-21T14:39:13.999Z</time></trkpt><trkpt lat="37.25919871080931" lon="-3.082730881296838"><ele>1082.0</ele><time>2026-04-21T14:39:14.999Z</time></trkpt><trkpt lat="37.258948987469324" lon="-3.082591044305568"><ele>1081.0</ele><time>2026-04-21T14:39:15.999Z</time></trkpt><trkpt lat="37.2586950578656" lon="-3.082458511792399"><ele>1080.0</ele><time>2026-04-21T14:39:16.999Z</time></trkpt><trkpt lat="37.2584378267968" lon="-3.0823366475630407"><ele>1080.0</ele><time>2026-04-21T14:39:18Z</time></trkpt><trkpt lat="37.258181835053065" lon="-3.082229345781316"><ele>1080.0</ele><time>2026-04-21T14:39:19Z</time></trkpt><trkpt lat="37.25792507553095" lon="-3.0821329518650855"><ele>1080.0</ele><time>2026-04-21T14:39:20Z</time></trkpt><trkpt lat="37.257667359333766" lon="-3.082041923839701"><ele>1080.0</ele><time>2026-04-21T14:39:21Z</time></trkpt><trkpt lat="37.25741068164859" lon="-3.08195754761093"><ele>1080.5</ele><time>2026-04-21T14:39:22Z</time></trkpt><trkpt lat="37.25715209710847" lon="-3.081881843582567"><ele>1081.0</ele><time>2026-04-21T14:39:23Z</time></trkpt><trkpt lat="37.25689609335374" lon="-3.0818183302263136"><ele>1081.0</ele><time>2026-04-21T14:39:24Z</time></trkpt><trkpt lat="37.2566382038293" lon="-3.081765112800459"><ele>1081.0</ele><time>2026-04-21T14:39:25Z</time></trkpt><trkpt lat="37.256380993427236" lon="-3.0817205243502546"><ele>1081.5</ele><time>2026-04-21T14:39:26Z</time></trkpt><trkpt lat="37.25612328241539" lon="-3.081682927991327"><ele>1082.0</ele><time>2026-04-21T14:39:27Z</time></trkpt><trkpt lat="37.25586701841029" lon="-3.081652346912403"><ele>1082.0</ele><time>2026-04-21T14:39:28Z</time></trkpt><trkpt lat="37.25561115822418" lon="-3.0816275645335645"><ele>1082.0</ele><time>2026-04-21T14:39:29Z</time></trkpt><trkpt lat="37.25537469843648" lon="-3.0816388520640188"><ele>1082.0</ele><time>2026-04-21T14:39:30Z</time></trkpt><trkpt lat="37.25509933009196" lon="-3.0816081993202418"><ele>1082.0</ele><time>2026-04-21T14:39:31Z</time></trkpt><trkpt lat="37.254843122648104" lon="-3.0816083859891132"><ele>1082.5</ele><time>2026-04-21T14:39:32Z</time></trkpt><trkpt lat="37.254583974127435" lon="-3.0816156586378525"><ele>1083.0</ele><time>2026-04-21T14:39:33Z</time></trkpt><trkpt lat="37.25432360982768" lon="-3.081624443451238"><ele>1083.0</ele><time>2026-04-21T14:39:34Z</time></trkpt><trkpt lat="37.254064644356056" lon="-3.081631992132269"><ele>1083.0</ele><time>2026-04-21T14:39:35Z</time></trkpt><trkpt lat="37.253802964680276" lon="-3.081638668563157"><ele>1083.0</ele><time>2026-04-21T14:39:36Z</time></trkpt><trkpt lat="37.25353937193185" lon="-3.0816460335863347"><ele>1083.0</ele><time>2026-04-21T14:39:37Z</time></trkpt><trkpt lat="37.2532753072182" lon="-3.081654126318617"><ele>1083.0</ele><time>2026-04-21T14:39:38Z</time></trkpt><trkpt lat="37.25301014585921" lon="-3.0816642674133274"><ele>1083.0</ele><time>2026-04-21T14:39:39Z</time></trkpt><trkpt lat="37.25274382784715" lon="-3.0816789330091643"><ele>1083.0</ele><time>2026-04-21T14:39:40Z</time></trkpt><trkpt lat="37.25247409884555" lon="-3.0816885057596544"><ele>1083.0</ele><time>2026-04-21T14:39:41Z</time></trkpt><trkpt lat="37.25220606181613" lon="-3.081695491924113"><ele>1084.0</ele><time>2026-04-21T14:39:42Z</time></trkpt><trkpt lat="37.25193710296081" lon="-3.081704279707692"><ele>1085.0</ele><time>2026-04-21T14:39:43Z</time></trkpt><trkpt lat="37.25166943697675" lon="-3.081714040349423"><ele>1084.0</ele><time>2026-04-21T14:39:44Z</time></trkpt><trkpt lat="37.25140100356765" lon="-3.0817231452531217"><ele>1083.0</ele><time>2026-04-21T14:39:45Z</time></trkpt><trkpt lat="37.25113227251261" lon="-3.081727298652405"><ele>1083.0</ele><time>2026-04-21T14:39:46Z</time></trkpt><trkpt lat="37.25086328279511" lon="-3.0817362335139684"><ele>1083.0</ele><time>2026-04-21T14:39:47Z</time></trkpt><trkpt lat="37.25059534553239" lon="-3.081744583604554"><ele>1083.5</ele><time>2026-04-21T14:39:48Z</time></trkpt><trkpt lat="37.25032646373594" lon="-3.0817552534237107"><ele>1084.0</ele><time>2026-04-21T14:39:49Z</time></trkpt><trkpt lat="37.250055730137724" lon="-3.0817663903924855"><ele>1084.5</ele><time>2026-04-21T14:39:50Z</time></trkpt><trkpt lat="37.24978472791789" lon="-3.081770772407341"><ele>1085.0</ele><time>2026-04-21T14:39:51Z</time></trkpt><trkpt lat="37.24951186246625" lon="-3.0817884859809257"><ele>1085.0</ele><time>2026-04-21T14:39:52Z</time></trkpt><trkpt lat="37.24924095224949" lon="-3.081802210036434"><ele>1085.0</ele><time>2026-04-21T14:39:53Z</time></trkpt><trkpt lat="37.23298727327349" lon="-3.0823496899125984"><ele>1086.5</ele><time>2026-04-21T14:40:53.999Z</time></trkpt><trkpt lat="37.232704566917164" lon="-3.0823591490363054"><ele>1088.0</ele><time>2026-04-21T14:40:54.999Z</time></trkpt><trkpt lat="37.23242279398967" lon="-3.082371045508372"><ele>1087.5</ele><time>2026-04-21T14:40:55.999Z</time></trkpt><trkpt lat="37.23214178533958" lon="-3.082384883766601"><ele>1087.0</ele><time>2026-04-21T14:40:56.999Z</time></trkpt><trkpt lat="37.23186245184482" lon="-3.082399611139094"><ele>1087.0</ele><time>2026-04-21T14:40:57.999Z</time></trkpt><trkpt lat="37.23158308224753" lon="-3.082407509994976"><ele>1087.0</ele><time>2026-04-21T14:40:58.999Z</time></trkpt><trkpt lat="37.231300501741835" lon="-3.0824102761313266"><ele>1087.0</ele><time>2026-04-21T14:40:59.999Z</time></trkpt><trkpt lat="37.23101235004511" lon="-3.0824161339639913"><ele>1087.0</ele><time>2026-04-21T14:41:00.999Z</time></trkpt><trkpt lat="37.23072902597991" lon="-3.0824213427125233"><ele>1089.0</ele><time>2026-04-21T14:41:01.999Z</time></trkpt><trkpt lat="37.230447383023744" lon="-3.0824176084898838"><ele>1091.0</ele><time>2026-04-21T14:41:02.999Z</time></trkpt><trkpt lat="37.23016970383174" lon="-3.0824115962365934"><ele>1091.0</ele><time>2026-04-21T14:41:03.999Z</time></trkpt><trkpt lat="37.22989269196542" lon="-3.082394117511256"><ele>1091.0</ele><time>2026-04-21T14:41:04.999Z</time></trkpt><trkpt lat="37.22960980064528" lon="-3.082355598157659"><ele>1091.0</ele><time>2026-04-21T14:41:05.999Z</time></trkpt><trkpt lat="37.229326716185405" lon="-3.0823088601130553"><ele>1091.0</ele><time>2026-04-21T14:41:06.999Z</time></trkpt><trkpt lat="37.229049592441235" lon="-3.0822602313686756"><ele>1091.5</ele><time>2026-04-21T14:41:07.999Z</time></trkpt><trkpt lat="37.228774580951644" lon="-3.082203854948177"><ele>1092.0</ele><time>2026-04-21T14:41:08.999Z</time></trkpt><trkpt lat="37.2284936424376" lon="-3.082140524573926"><ele>1092.0</ele><time>2026-04-21T14:41:09.999Z</time></trkpt><trkpt lat="37.22821304406186" lon="-3.0820594490140008"><ele>1092.0</ele><time>2026-04-21T14:41:10.999Z</time></trkpt><trkpt lat="37.227920396885274" lon="-3.0819751140654166"><ele>1091.5</ele><time>2026-04-21T14:41:11.999Z</time></trkpt><trkpt lat="37.2276319179521" lon="-3.081877704211105"><ele>1091.0</ele><time>2026-04-21T14:41:12.999Z</time></trkpt><trkpt lat="37.227347325180155" lon="-3.0817632744027654"><ele>1090.5</ele><time>2026-04-21T14:41:13.999Z</time></trkpt><trkpt lat="37.227064511482894" lon="-3.0816424645377456"><ele>1090.0</ele><time>2026-04-21T14:41:14.999Z</time></trkpt><trkpt lat="37.226777889571636" lon="-3.0815146013191987"><ele>1090.0</ele><time>2026-04-21T14:41:15.999Z</time></trkpt><trkpt lat="37.22648407805656" lon="-3.0813747042542077"><ele>1090.0</ele><time>2026-04-21T14:41:16.999Z</time></trkpt><trkpt lat="37.22625805284893" lon="-3.0812356738186093"><ele>1090.0</ele><time>2026-04-21T14:41:17.999Z</time></trkpt><trkpt lat="37.22599188894104" lon="-3.0810577293813717"><ele>1090.0</ele><time>2026-04-21T14:41:18.999Z</time></trkpt><trkpt lat="37.225723662194824" lon="-3.080875192528936"><ele>1092.0</ele><time>2026-04-21T14:41:19.999Z</time></trkpt><trkpt lat="37.225456284918124" lon="-3.0806876164465127"><ele>1094.0</ele><time>2026-04-21T14:41:20.999Z</time></trkpt><trkpt lat="37.22519324119505" lon="-3.080494038913299"><ele>1094.0</ele><time>2026-04-21T14:41:21.999Z</time></trkpt><trkpt lat="37.2249411769689" lon="-3.0802925863485746"><ele>1094.0</ele><time>2026-04-21T14:41:22.999Z</time></trkpt><trkpt lat="37.22468961866817" lon="-3.08008381175526"><ele>1092.5</ele><time>2026-04-21T14:41:24Z</time></trkpt><trkpt lat="37.22444378346791" lon="-3.079879381920222"><ele>1091.0</ele><time>2026-04-21T14:41:25Z</time></trkpt><trkpt lat="37.22419544609373" lon="-3.079676081955141"><ele>1093.0</ele><time>2026-04-21T14:41:26Z</time></trkpt><trkpt lat="37.2239526301813" lon="-3.0794728221681313"><ele>1095.0</ele><time>2026-04-21T14:41:27Z</time></trkpt><trkpt lat="37.22371076665692" lon="-3.0792746865795673"><ele>1095.5</ele><time>2026-04-21T14:41:28Z</time></trkpt><trkpt lat="37.22345999225996" lon="-3.0790754608714184"><ele>1096.0</ele><time>2026-04-21T14:41:29Z</time></trkpt><trkpt lat="37.22321699122224" lon="-3.078870548034854"><ele>1096.0</ele><time>2026-04-21T14:41:30Z</time></trkpt><trkpt lat="37.22297619735278" lon="-3.078672184560956"><ele>1096.0</ele><time>2026-04-21T14:41:31Z</time></trkpt><trkpt lat="37.22273310422137" lon="-3.0784779875313744"><ele>1096.0</ele><time>2026-04-21T14:41:32Z</time></trkpt><trkpt lat="37.22249556802287" lon="-3.078283426421209"><ele>1096.0</ele><time>2026-04-21T14:41:33Z</time></trkpt><trkpt lat="37.222257999130804" lon="-3.0780855619662324"><ele>1096.0</ele><time>2026-04-21T14:41:34Z</time></trkpt><trkpt lat="37.2220214592045" lon="-3.077889390431228"><ele>1096.0</ele><time>2026-04-21T14:41:35Z</time></trkpt><trkpt lat="37.22178054348554" lon="-3.0776961075997944"><ele>1096.0</ele><time>2026-04-21T14:41:36Z</time></trkpt><trkpt lat="37.221541508395305" lon="-3.0775005353013056"><ele>1096.0</ele><time>2026-04-21T14:41:37Z</time></trkpt><trkpt lat="37.22129680313179" lon="-3.077307761216842"><ele>1097.5</ele><time>2026-04-21T14:41:38Z</time></trkpt><trkpt lat="37.221059396715056" lon="-3.0771102650715005"><ele>1099.0</ele><time>2026-04-21T14:41:39Z</time></trkpt><trkpt lat="37.22081608114334" lon="-3.076904343329826"><ele>1099.5</ele><time>2026-04-21T14:41:40Z</time></trkpt><trkpt lat="37.22057135894529" lon="-3.076697725409058"><ele>1100.0</ele><time>2026-04-21T14:41:41Z</time></trkpt><trkpt lat="37.22032472851625" lon="-3.0764992682991306"><ele>1099.0</ele><time>2026-04-21T14:41:42Z</time></trkpt><trkpt lat="37.22007601027712" lon="-3.0763027473980586"><ele>1098.0</ele><time>2026-04-21T14:41:43Z</time></trkpt><trkpt lat="37.21982967495421" lon="-3.076096426018671"><ele>1099.0</ele><time>2026-04-21T14:41:44Z</time></trkpt><trkpt lat="37.21958175736104" lon="-3.075895429242262"><ele>1100.0</ele><time>2026-04-21T14:41:45Z</time></trkpt><trkpt lat="37.21933726288425" lon="-3.0756960276615937"><ele>1100.0</ele><time>2026-04-21T14:41:46Z</time></trkpt><trkpt lat="37.219094258544025" lon="-3.075501702621668"><ele>1100.0</ele><time>2026-04-21T14:41:47Z</time></trkpt><trkpt lat="37.21884983271479" lon="-3.075309296270129"><ele>1100.0</ele><time>2026-04-21T14:41:48Z</time></trkpt><trkpt lat="37.218608908927806" lon="-3.07511849999726"><ele>1100.0</ele><time>2026-04-21T14:41:49Z</time></trkpt><trkpt lat="37.21836987758901" lon="-3.074922159523119"><ele>1101.5</ele><time>2026-04-21T14:41:50Z</time></trkpt><trkpt lat="37.21813315769432" lon="-3.0747299944788953"><ele>1103.0</ele><time>2026-04-21T14:41:51Z</time></trkpt><trkpt lat="37.21789750116981" lon="-3.0745382594631416"><ele>1103.0</ele><time>2026-04-21T14:41:52Z</time></trkpt><trkpt lat="37.21766452377661" lon="-3.0743441685345503"><ele>1103.0</ele><time>2026-04-21T14:41:53Z</time></trkpt><trkpt lat="37.20880457367132" lon="-3.0575285619797166"><ele>1108.5</ele><time>2026-04-21T14:42:53.999Z</time></trkpt><trkpt lat="37.20873986056129" lon="-3.057198557910265"><ele>1114.0</ele><time>2026-04-21T14:42:54.999Z</time></trkpt><trkpt lat="37.20867687472867" lon="-3.0568773554383677"><ele>1114.5</ele><time>2026-04-21T14:42:55.999Z</time></trkpt><trkpt lat="37.20861368122906" lon="-3.0565645040469804"><ele>1115.0</ele><time>2026-04-21T14:42:56.999Z</time></trkpt><trkpt lat="37.20854152549429" lon="-3.05625558538988"><ele>1115.0</ele><time>2026-04-21T14:42:57.999Z</time></trkpt><trkpt lat="37.208484474258796" lon="-3.0559506078343928"><ele>1115.0</ele><time>2026-04-21T14:42:58.999Z</time></trkpt><trkpt lat="37.20841715936634" lon="-3.0556500458425524"><ele>1115.0</ele><time>2026-04-21T14:42:59.999Z</time></trkpt><trkpt lat="37.2083516244348" lon="-3.0553481912768454"><ele>1115.0</ele><time>2026-04-21T14:43:00.999Z</time></trkpt><trkpt lat="37.20828908159876" lon="-3.0550392550173484"><ele>1115.5</ele><time>2026-04-21T14:43:01.999Z</time></trkpt><trkpt lat="37.20822573587648" lon="-3.0547253091119195"><ele>1116.0</ele><time>2026-04-21T14:43:02.999Z</time></trkpt><trkpt lat="37.20816113353685" lon="-3.0544094540456594"><ele>1117.0</ele><time>2026-04-21T14:43:03.999Z</time></trkpt><trkpt lat="37.20809852398922" lon="-3.0540947540718824"><ele>1118.0</ele><time>2026-04-21T14:43:04.999Z</time></trkpt><trkpt lat="37.20803506038235" lon="-3.0537743011112934"><ele>1118.0</ele><time>2026-04-21T14:43:05.999Z</time></trkpt><trkpt lat="37.20797018483439" lon="-3.0534554604972373"><ele>1118.0</ele><time>2026-04-21T14:43:06.999Z</time></trkpt><trkpt lat="37.20790410924827" lon="-3.053135635623934"><ele>1118.0</ele><time>2026-04-21T14:43:07.999Z</time></trkpt><trkpt lat="37.20783631760825" lon="-3.0528122306958108"><ele>1118.0</ele><time>2026-04-21T14:43:08.999Z</time></trkpt><trkpt lat="37.20776776795949" lon="-3.0524802076005013"><ele>1117.5</ele><time>2026-04-21T14:43:09.999Z</time></trkpt><trkpt lat="37.20769584262296" lon="-3.0521446766867495"><ele>1117.0</ele><time>2026-04-21T14:43:10.999Z</time></trkpt><trkpt lat="37.20762765571924" lon="-3.0518111044919807"><ele>1118.0</ele><time>2026-04-21T14:43:11.999Z</time></trkpt><trkpt lat="37.20755973026606" lon="-3.051473975439885"><ele>1119.0</ele><time>2026-04-21T14:43:12.999Z</time></trkpt><trkpt lat="37.20749178263935" lon="-3.051142244114907"><ele>1119.0</ele><time>2026-04-21T14:43:13.999Z</time></trkpt><trkpt lat="37.20742676565313" lon="-3.050807940674564"><ele>1119.0</ele><time>2026-04-21T14:43:14.999Z</time></trkpt><trkpt lat="37.207360387121405" lon="-3.0504764612422854"><ele>1121.0</ele><time>2026-04-21T14:43:15.999Z</time></trkpt><trkpt lat="37.20729202193756" lon="-3.05014644956901"><ele>1123.0</ele><time>2026-04-21T14:43:16.999Z</time></trkpt><trkpt lat="37.20722251052873" lon="-3.0498149804649626"><ele>1123.5</ele><time>2026-04-21T14:43:17.999Z</time></trkpt><trkpt lat="37.20714317140574" lon="-3.049481069031554"><ele>1124.0</ele><time>2026-04-21T14:43:18.999Z</time></trkpt><trkpt lat="37.20708225830941" lon="-3.049152714471976"><ele>1123.0</ele><time>2026-04-21T14:43:19.999Z</time></trkpt><trkpt lat="37.207012795341875" lon="-3.0488226200124107"><ele>1122.0</ele><time>2026-04-21T14:43:20.999Z</time></trkpt><trkpt lat="37.20694810904046" lon="-3.0484905074469455"><ele>1122.5</ele><time>2026-04-21T14:43:21.999Z</time></trkpt><trkpt lat="37.206882391353425" lon="-3.048163386461676"><ele>1123.0</ele><time>2026-04-21T14:43:22.999Z</time></trkpt><trkpt lat="37.20681699459017" lon="-3.0478393988686343"><ele>1123.0</ele><time>2026-04-21T14:43:23.999Z</time></trkpt><trkpt lat="37.20674926675056" lon="-3.047515963088832"><ele>1123.0</ele><time>2026-04-21T14:43:24.999Z</time></trkpt><trkpt lat="37.20668303216381" lon="-3.0471917130544472"><ele>1123.0</ele><time>2026-04-21T14:43:25.999Z</time></trkpt><trkpt lat="37.20660679349824" lon="-3.0468693744941637"><ele>1123.0</ele><time>2026-04-21T14:43:26.999Z</time></trkpt><trkpt lat="37.206546048093465" lon="-3.046539675791167"><ele>1124.0</ele><time>2026-04-21T14:43:27.999Z</time></trkpt><trkpt lat="37.20647987257345" lon="-3.046207760757443"><ele>1125.0</ele><time>2026-04-21T14:43:28.999Z</time></trkpt><trkpt lat="37.20641147901499" lon="-3.0458777533100214"><ele>1126.0</ele><time>2026-04-21T14:43:30Z</time></trkpt><trkpt lat="37.206341111755954" lon="-3.045547196345255"><ele>1127.0</ele><time>2026-04-21T14:43:31Z</time></trkpt><trkpt lat="37.20627028651142" lon="-3.0452165598902394"><ele>1128.0</ele><time>2026-04-21T14:43:32Z</time></trkpt><trkpt lat="37.20620027330023" lon="-3.044885118758692"><ele>1129.0</ele><time>2026-04-21T14:43:33Z</time></trkpt><trkpt lat="37.206132837376266" lon="-3.044552923410756"><ele>1129.0</ele><time>2026-04-21T14:43:34Z</time></trkpt><trkpt lat="37.206066922010315" lon="-3.0442210979190136"><ele>1129.0</ele><time>2026-04-21T14:43:35Z</time></trkpt><trkpt lat="37.20600011713714" lon="-3.04389106770539"><ele>1129.0</ele><time>2026-04-21T14:43:36Z</time></trkpt><trkpt lat="37.20593442941926" lon="-3.043561302263809"><ele>1129.0</ele><time>2026-04-21T14:43:37Z</time></trkpt><trkpt lat="37.2058669857452" lon="-3.043233128788818"><ele>1129.0</ele><time>2026-04-21T14:43:38Z</time></trkpt><trkpt lat="37.20580140691284" lon="-3.042906036027258"><ele>1129.0</ele><time>2026-04-21T14:43:39Z</time></trkpt><trkpt lat="37.20573166968699" lon="-3.0425787660049433"><ele>1129.5</ele><time>2026-04-21T14:43:40Z</time></trkpt><trkpt lat="37.20566350214957" lon="-3.042256668103238"><ele>1130.0</ele><time>2026-04-21T14:43:41Z</time></trkpt><trkpt lat="37.205602828962085" lon="-3.0419296634605577"><ele>1131.0</ele><time>2026-04-21T14:43:42Z</time></trkpt><trkpt lat="37.20553578738177" lon="-3.0416004908861853"><ele>1132.0</ele><time>2026-04-21T14:43:43Z</time></trkpt><trkpt lat="37.20546607876811" lon="-3.0412678605991808"><ele>1132.0</ele><time>2026-04-21T14:43:44Z</time></trkpt><trkpt lat="37.20539798989384" lon="-3.0409372282162472"><ele>1132.0</ele><time>2026-04-21T14:43:45Z</time></trkpt><trkpt lat="37.20532831236358" lon="-3.0406044821556977"><ele>1131.5</ele><time>2026-04-21T14:43:46Z</time></trkpt><trkpt lat="37.20525657284768" lon="-3.0402719827560323"><ele>1131.0</ele><time>2026-04-21T14:43:47Z</time></trkpt><trkpt lat="37.20518948018533" lon="-3.039942368967994"><ele>1132.0</ele><time>2026-04-21T14:43:48Z</time></trkpt><trkpt lat="37.20512032550607" lon="-3.039604864952368"><ele>1133.0</ele><time>2026-04-21T14:43:49Z</time></trkpt><trkpt lat="37.20505815101157" lon="-3.039272673203844"><ele>1133.0</ele><time>2026-04-21T14:43:50Z</time></trkpt><trkpt lat="37.204988700021886" lon="-3.038947672851479"><ele>1133.0</ele><time>2026-04-21T14:43:51Z</time></trkpt><trkpt lat="37.204917858314936" lon="-3.0386199554390805"><ele>1132.0</ele><time>2026-04-21T14:43:52Z</time></trkpt><trkpt lat="37.20485083400975" lon="-3.038292418648852"><ele>1131.0</ele><time>2026-04-21T14:43:53Z</time></trkpt><trkpt lat="37.200578048552764" lon="-3.017506383630101"><ele>1132.0</ele><time>2026-04-21T14:44:53.999Z</time></trkpt><trkpt lat="37.20050919360765" lon="-3.0171539172050834"><ele>1133.0</ele><time>2026-04-21T14:44:54.999Z</time></trkpt><trkpt lat="37.20044063418534" lon="-3.016801599169863"><ele>1132.0</ele><time>2026-04-21T14:44:55.999Z</time></trkpt><trkpt lat="37.20037093368103" lon="-3.0164506740707564"><ele>1131.0</ele><time>2026-04-21T14:44:56.999Z</time></trkpt><trkpt lat="37.20029742102445" lon="-3.0160976863343087"><ele>1131.5</ele><time>2026-04-21T14:44:57.999Z</time></trkpt><trkpt lat="37.200225544264754" lon="-3.0157476878655904"><ele>1132.0</ele><time>2026-04-21T14:44:58.999Z</time></trkpt><trkpt lat="37.20015350671181" lon="-3.0153926327029192"><ele>1132.0</ele><time>2026-04-21T14:44:59.999Z</time></trkpt><trkpt lat="37.20008221464512" lon="-3.015035193297931"><ele>1132.0</ele><time>2026-04-21T14:45:00.999Z</time></trkpt><trkpt lat="37.200010144305296" lon="-3.014673009020254"><ele>1132.0</ele><time>2026-04-21T14:45:01.999Z</time></trkpt><trkpt lat="37.19993644254513" lon="-3.0143092637646722"><ele>1132.0</ele><time>2026-04-21T14:45:02.999Z</time></trkpt><trkpt lat="37.19985971873907" lon="-3.0139451207245895"><ele>1133.0</ele><time>2026-04-21T14:45:03.999Z</time></trkpt><trkpt lat="37.19978532634634" lon="-3.013577791869702"><ele>1134.0</ele><time>2026-04-21T14:45:04.999Z</time></trkpt><trkpt lat="37.199709784173685" lon="-3.013207162462363"><ele>1134.5</ele><time>2026-04-21T14:45:05.999Z</time></trkpt><trkpt lat="37.19963459231872" lon="-3.012832520393971"><ele>1135.0</ele><time>2026-04-21T14:45:06.999Z</time></trkpt><trkpt lat="37.19955316963758" lon="-3.012458298261672"><ele>1135.0</ele><time>2026-04-21T14:45:07.999Z</time></trkpt><trkpt lat="37.19947766850892" lon="-3.012079263617174"><ele>1135.0</ele><time>2026-04-21T14:45:08.999Z</time></trkpt><trkpt lat="37.19940677886128" lon="-3.0116963527605036"><ele>1135.0</ele><time>2026-04-21T14:45:09.999Z</time></trkpt><trkpt lat="37.19933147980547" lon="-3.011310916738652"><ele>1135.0</ele><time>2026-04-21T14:45:10.999Z</time></trkpt><trkpt lat="37.19925334701331" lon="-3.0109236574284646"><ele>1135.5</ele><time>2026-04-21T14:45:11.999Z</time></trkpt><trkpt lat="37.19917484603468" lon="-3.0105404486850955"><ele>1136.0</ele><time>2026-04-21T14:45:12.999Z</time></trkpt><trkpt lat="37.199097168631326" lon="-3.0101573036532097"><ele>1136.0</ele><time>2026-04-21T14:45:13.999Z</time></trkpt><trkpt lat="37.199017717920725" lon="-3.0097789981027585"><ele>1136.0</ele><time>2026-04-21T14:45:14.999Z</time></trkpt><trkpt lat="37.19893978289502" lon="-3.0093956911042192"><ele>1137.0</ele><time>2026-04-21T14:45:15.999Z</time></trkpt><trkpt lat="37.19886097780685" lon="-3.0090232722976222"><ele>1138.0</ele><time>2026-04-21T14:45:16.999Z</time></trkpt><trkpt lat="37.19878125492511" lon="-3.008652529762333"><ele>1138.0</ele><time>2026-04-21T14:45:17.999Z</time></trkpt><trkpt lat="37.198703513234285" lon="-3.0082855255189003"><ele>1138.0</ele><time>2026-04-21T14:45:18.999Z</time></trkpt><trkpt lat="37.198630970881084" lon="-3.007917072960767"><ele>1138.0</ele><time>2026-04-21T14:45:19.999Z</time></trkpt><trkpt lat="37.198561788948254" lon="-3.007548913386929"><ele>1138.0</ele><time>2026-04-21T14:45:20.999Z</time></trkpt><trkpt lat="37.19849103727467" lon="-3.007189076452839"><ele>1138.0</ele><time>2026-04-21T14:45:21.999Z</time></trkpt><trkpt lat="37.19841871897161" lon="-3.0068270908357224"><ele>1138.0</ele><time>2026-04-21T14:45:22.999Z</time></trkpt><trkpt lat="37.19834307502265" lon="-3.006472707019909"><ele>1137.0</ele><time>2026-04-21T14:45:23.999Z</time></trkpt><trkpt lat="37.19826514674737" lon="-3.006119229791762"><ele>1136.0</ele><time>2026-04-21T14:45:24.999Z</time></trkpt><trkpt lat="37.19818670034711" lon="-3.0057642627713452"><ele>1138.0</ele><time>2026-04-21T14:45:25.999Z</time></trkpt><trkpt lat="37.198113766268094" lon="-3.0054084500952296"><ele>1140.0</ele><time>2026-04-21T14:45:26.999Z</time></trkpt><trkpt lat="37.19804665967204" lon="-3.0050563956053664"><ele>1140.5</ele><time>2026-04-21T14:45:27.999Z</time></trkpt><trkpt lat="37.19797806144189" lon="-3.004702308234373"><ele>1141.0</ele><time>2026-04-21T14:45:28.999Z</time></trkpt><trkpt lat="37.19790834962933" lon="-3.0043476911045164"><ele>1141.0</ele><time>2026-04-21T14:45:29.999Z</time></trkpt><trkpt lat="37.197839242317286" lon="-3.0039941909829"><ele>1141.0</ele><time>2026-04-21T14:45:30.999Z</time></trkpt><trkpt lat="37.19776327420726" lon="-3.0036422923674895"><ele>1141.5</ele><time>2026-04-21T14:45:31.999Z</time></trkpt><trkpt lat="37.197690829792215" lon="-3.0032921271221316"><ele>1142.0</ele><time>2026-04-21T14:45:32.999Z</time></trkpt><trkpt lat="37.197618644978114" lon="-3.002944685578933"><ele>1142.0</ele><time>2026-04-21T14:45:33.999Z</time></trkpt><trkpt lat="37.197545365716984" lon="-3.0025980509502674"><ele>1142.0</ele><time>2026-04-21T14:45:34.999Z</time></trkpt><trkpt lat="37.197477055746354" lon="-3.0022545920489194"><ele>1142.0</ele><time>2026-04-21T14:45:36Z</time></trkpt><trkpt lat="37.197411267490644" lon="-3.001912364002886"><ele>1142.0</ele><time>2026-04-21T14:45:37Z</time></trkpt><trkpt lat="37.19734159650344" lon="-3.0015701012389324"><ele>1143.0</ele><time>2026-04-21T14:45:38Z</time></trkpt><trkpt lat="37.19727255284764" lon="-3.0012331990939853"><ele>1144.0</ele><time>2026-04-21T14:45:39Z</time></trkpt><trkpt lat="37.19720122412162" lon="-3.0008919149073594"><ele>1143.5</ele><time>2026-04-21T14:45:40Z</time></trkpt><trkpt lat="37.19712984669982" lon="-3.000549900452091"><ele>1143.0</ele><time>2026-04-21T14:45:41Z</time></trkpt><trkpt lat="37.19706017489381" lon="-3.000210565902138"><ele>1143.0</ele><time>2026-04-21T14:45:42Z</time></trkpt><trkpt lat="37.19698917040971" lon="-2.999868426695994"><ele>1143.0</ele><time>2026-04-21T14:45:43Z</time></trkpt><trkpt lat="37.19692038465931" lon="-2.9995253136316964"><ele>1143.0</ele><time>2026-04-21T14:45:44Z</time></trkpt><trkpt lat="37.19685127931967" lon="-2.9991788287180223"><ele>1143.0</ele><time>2026-04-21T14:45:45Z</time></trkpt><trkpt lat="37.19678323494037" lon="-2.998837123088013"><ele>1143.5</ele><time>2026-04-21T14:45:46Z</time></trkpt><trkpt lat="37.19671347736736" lon="-2.9984915343211473"><ele>1144.0</ele><time>2026-04-21T14:45:47Z</time></trkpt><trkpt lat="37.196640011490544" lon="-2.9981469698466934"><ele>1144.0</ele><time>2026-04-21T14:45:48Z</time></trkpt><trkpt lat="37.19656589331079" lon="-2.9978003700733273"><ele>1144.0</ele><time>2026-04-21T14:45:49Z</time></trkpt><trkpt lat="37.19649305866312" lon="-2.9974522316088343"><ele>1144.0</ele><time>2026-04-21T14:45:50Z</time></trkpt><trkpt lat="37.196422782676244" lon="-2.997103951489736"><ele>1144.0</ele><time>2026-04-21T14:45:51Z</time></trkpt><trkpt lat="37.19635647631968" lon="-2.996751768706351"><ele>1144.0</ele><time>2026-04-21T14:45:52Z</time></trkpt><trkpt lat="37.19628786966045" lon="-2.996405413112401"><ele>1144.0</ele><time>2026-04-21T14:45:53Z</time></trkpt><trkpt lat="37.19210566955492" lon="-2.9757167081256224"><ele>1143.5</ele><time>2026-04-21T14:46:53.999Z</time></trkpt><trkpt lat="37.19203648628" lon="-2.9753718812140764"><ele>1143.0</ele><time>2026-04-21T14:46:54.999Z</time></trkpt><trkpt lat="37.191968555529186" lon="-2.975029820531677"><ele>1143.0</ele><time>2026-04-21T14:46:55.999Z</time></trkpt><trkpt lat="37.19189668463704" lon="-2.9746910249191223"><ele>1143.0</ele><time>2026-04-21T14:46:56.999Z</time></trkpt><trkpt lat="37.19182595047958" lon="-2.974351984027641"><ele>1142.5</ele><time>2026-04-21T14:46:57.999Z</time></trkpt><trkpt lat="37.19175146832476" lon="-2.974015321693894"><ele>1142.0</ele><time>2026-04-21T14:46:58.999Z</time></trkpt><trkpt lat="37.19167541362566" lon="-2.9736820776691735"><ele>1142.5</ele><time>2026-04-21T14:46:59.999Z</time></trkpt><trkpt lat="37.191599977056505" lon="-2.9733518916747426"><ele>1143.0</ele><time>2026-04-21T14:47:00.999Z</time></trkpt><trkpt lat="37.1915275442832" lon="-2.973024227793978"><ele>1145.0</ele><time>2026-04-21T14:47:01.999Z</time></trkpt><trkpt lat="37.19146070011589" lon="-2.972695709063953"><ele>1147.0</ele><time>2026-04-21T14:47:02.999Z</time></trkpt><trkpt lat="37.19139415234374" lon="-2.9723706229729037"><ele>1147.5</ele><time>2026-04-21T14:47:03.999Z</time></trkpt><trkpt lat="37.19132563004093" lon="-2.972042523807665"><ele>1148.0</ele><time>2026-04-21T14:47:04.999Z</time></trkpt><trkpt lat="37.19125787036327" lon="-2.971718422507422"><ele>1148.5</ele><time>2026-04-21T14:47:05.999Z</time></trkpt><trkpt lat="37.19119016470323" lon="-2.9713954872639747"><ele>1149.0</ele><time>2026-04-21T14:47:06.999Z</time></trkpt><trkpt lat="37.19112391626022" lon="-2.9710711923915754"><ele>1149.5</ele><time>2026-04-21T14:47:07.999Z</time></trkpt><trkpt lat="37.19105733124953" lon="-2.970750095955759"><ele>1150.0</ele><time>2026-04-21T14:47:08.999Z</time></trkpt><trkpt lat="37.19099014887678" lon="-2.970428356252594"><ele>1150.0</ele><time>2026-04-21T14:47:09.999Z</time></trkpt><trkpt lat="37.19092426624069" lon="-2.9701031021126085"><ele>1150.0</ele><time>2026-04-21T14:47:10.999Z</time></trkpt><trkpt lat="37.190860099304324" lon="-2.969775190162101"><ele>1150.0</ele><time>2026-04-21T14:47:11.999Z</time></trkpt><trkpt lat="37.19079327384503" lon="-2.9694427864251356"><ele>1150.0</ele><time>2026-04-21T14:47:12.999Z</time></trkpt><trkpt lat="37.19072264092729" lon="-2.969106767213558"><ele>1151.5</ele><time>2026-04-21T14:47:13.999Z</time></trkpt><trkpt lat="37.19065155922317" lon="-2.9687712046330677"><ele>1153.0</ele><time>2026-04-21T14:47:14.999Z</time></trkpt><trkpt lat="37.190580252975" lon="-2.968434832437881"><ele>1154.0</ele><time>2026-04-21T14:47:15.999Z</time></trkpt><trkpt lat="37.190508853005014" lon="-2.9680978718133453"><ele>1155.0</ele><time>2026-04-21T14:47:16.999Z</time></trkpt><trkpt lat="37.19043962304306" lon="-2.967758987631443"><ele>1155.5</ele><time>2026-04-21T14:47:17.999Z</time></trkpt><trkpt lat="37.190369844946126" lon="-2.9674172812579775"><ele>1156.0</ele><time>2026-04-21T14:47:18.999Z</time></trkpt><trkpt lat="37.19030012139431" lon="-2.9670750020153482"><ele>1156.0</ele><time>2026-04-21T14:47:19.999Z</time></trkpt><trkpt lat="37.19023125012261" lon="-2.9667293290536767"><ele>1156.0</ele><time>2026-04-21T14:47:20.999Z</time></trkpt><trkpt lat="37.19016290656325" lon="-2.966385759504516"><ele>1156.0</ele><time>2026-04-21T14:47:21.999Z</time></trkpt><trkpt lat="37.19009204479629" lon="-2.966038187824009"><ele>1156.0</ele><time>2026-04-21T14:47:22.999Z</time></trkpt><trkpt lat="37.190020131222134" lon="-2.965692244019858"><ele>1156.0</ele><time>2026-04-21T14:47:23.999Z</time></trkpt><trkpt lat="37.18994864558087" lon="-2.9653438895172077"><ele>1156.0</ele><time>2026-04-21T14:47:24.999Z</time></trkpt><trkpt lat="37.189875206171074" lon="-2.9649969399998284"><ele>1159.0</ele><time>2026-04-21T14:47:25.999Z</time></trkpt><trkpt lat="37.189799196530565" lon="-2.9646486411606987"><ele>1162.0</ele><time>2026-04-21T14:47:26.999Z</time></trkpt><trkpt lat="37.189718826189086" lon="-2.964296759985835"><ele>1161.5</ele><time>2026-04-21T14:47:27.999Z</time></trkpt><trkpt lat="37.189638708197634" lon="-2.963946046915717"><ele>1161.0</ele><time>2026-04-21T14:47:28.999Z</time></trkpt><trkpt lat="37.189555797584845" lon="-2.9635962670310385"><ele>1162.5</ele><time>2026-04-21T14:47:29.999Z</time></trkpt><trkpt lat="37.18946501901513" lon="-2.9632520574628836"><ele>1164.0</ele><time>2026-04-21T14:47:30.999Z</time></trkpt><trkpt lat="37.18936928416275" lon="-2.9629200010731083"><ele>1164.0</ele><time>2026-04-21T14:47:31.999Z</time></trkpt><trkpt lat="37.18927075500171" lon="-2.9625926739323227"><ele>1164.0</ele><time>2026-04-21T14:47:32.999Z</time></trkpt><trkpt lat="37.18917254496093" lon="-2.9622707802061505"><ele>1163.0</ele><time>2026-04-21T14:47:33.999Z</time></trkpt><trkpt lat="37.18907319501583" lon="-2.9619544858939997"><ele>1162.0</ele><time>2026-04-21T14:47:34.999Z</time></trkpt><trkpt lat="37.18897239242085" lon="-2.961643988081087"><ele>1165.5</ele><time>2026-04-21T14:47:35.999Z</time></trkpt><trkpt lat="37.1888664165392" lon="-2.9613400490841633"><ele>1169.0</ele><time>2026-04-21T14:47:36.999Z</time></trkpt><trkpt lat="37.18875263819678" lon="-2.961048635085819"><ele>1168.5</ele><time>2026-04-21T14:47:37.999Z</time></trkpt><trkpt lat="37.18862936768258" lon="-2.960763246484189"><ele>1168.0</ele><time>2026-04-21T14:47:38.999Z</time></trkpt><trkpt lat="37.18850717422653" lon="-2.9604797597136394"><ele>1168.0</ele><time>2026-04-21T14:47:39.999Z</time></trkpt><trkpt lat="37.188385296568086" lon="-2.960190815017637"><ele>1168.0</ele><time>2026-04-21T14:47:40.999Z</time></trkpt><trkpt lat="37.18826222004917" lon="-2.959907580396285"><ele>1172.0</ele><time>2026-04-21T14:47:42Z</time></trkpt><trkpt lat="37.1881381287128" lon="-2.9596245857147743"><ele>1176.0</ele><time>2026-04-21T14:47:43Z</time></trkpt><trkpt lat="37.18801189037069" lon="-2.959342826777349"><ele>1173.0</ele><time>2026-04-21T14:47:44Z</time></trkpt><trkpt lat="37.18788531263502" lon="-2.9590620020493428"><ele>1170.0</ele><time>2026-04-21T14:47:45Z</time></trkpt><trkpt lat="37.187764657429454" lon="-2.9587838216677675"><ele>1170.0</ele><time>2026-04-21T14:47:46Z</time></trkpt><trkpt lat="37.187645470497266" lon="-2.9585009621445715"><ele>1170.0</ele><time>2026-04-21T14:47:47Z</time></trkpt><trkpt lat="37.18753022798449" lon="-2.9582199562118423"><ele>1169.5</ele><time>2026-04-21T14:47:48Z</time></trkpt><trkpt lat="37.187412995649844" lon="-2.957930899493412"><ele>1169.0</ele><time>2026-04-21T14:47:49Z</time></trkpt><trkpt lat="37.18730435657177" lon="-2.957635510159059"><ele>1171.5</ele><time>2026-04-21T14:47:50Z</time></trkpt><trkpt lat="37.187195763432356" lon="-2.9573317745484666"><ele>1174.0</ele><time>2026-04-21T14:47:51Z</time></trkpt><trkpt lat="37.18709520809933" lon="-2.9570240224355118"><ele>1174.0</ele><time>2026-04-21T14:47:52Z</time></trkpt><trkpt lat="37.186998457782394" lon="-2.956707757705284"><ele>1174.0</ele><time>2026-04-21T14:47:53Z</time></trkpt><trkpt lat="37.17986289386129" lon="-2.9397572452635994"><ele>1155.0</ele><time>2026-04-21T14:48:53.999Z</time></trkpt><trkpt lat="37.179615315489954" lon="-2.939680549352046"><ele>1136.0</ele><time>2026-04-21T14:48:54.999Z</time></trkpt><trkpt lat="37.1793614979355" lon="-2.939603388752126"><ele>1136.0</ele><time>2026-04-21T14:48:55.999Z</time></trkpt><trkpt lat="37.17910465955897" lon="-2.9395285084487797"><ele>1136.0</ele><time>2026-04-21T14:48:56.999Z</time></trkpt><trkpt lat="37.17884665348238" lon="-2.9394600686187564"><ele>1142.0</ele><time>2026-04-21T14:48:57.999Z</time></trkpt><trkpt lat="37.17859404189682" lon="-2.9393906908996708"><ele>1148.0</ele><time>2026-04-21T14:48:58.999Z</time></trkpt><trkpt lat="37.178341222278746" lon="-2.939323385566771"><ele>1147.0</ele><time>2026-04-21T14:48:59.999Z</time></trkpt><trkpt lat="37.17808667769192" lon="-2.9392417631904615"><ele>1146.0</ele><time>2026-04-21T14:49:00.999Z</time></trkpt><trkpt lat="37.177840421799175" lon="-2.9391534710784017"><ele>1146.0</ele><time>2026-04-21T14:49:01.999Z</time></trkpt><trkpt lat="37.17759481574634" lon="-2.939057601472059"><ele>1146.0</ele><time>2026-04-21T14:49:02.999Z</time></trkpt><trkpt lat="37.17735669175258" lon="-2.9389508852328707"><ele>1149.5</ele><time>2026-04-21T14:49:03.999Z</time></trkpt><trkpt lat="37.17710353361129" lon="-2.93881654933454"><ele>1153.0</ele><time>2026-04-21T14:49:04.999Z</time></trkpt><trkpt lat="37.176869680531965" lon="-2.938661524429965"><ele>1153.0</ele><time>2026-04-21T14:49:05.999Z</time></trkpt><trkpt lat="37.17664868111682" lon="-2.9384797324041982"><ele>1153.0</ele><time>2026-04-21T14:49:06.999Z</time></trkpt><trkpt lat="37.17643409982159" lon="-2.9382816110511003"><ele>1149.0</ele><time>2026-04-21T14:49:07.999Z</time></trkpt><trkpt lat="37.17622138803121" lon="-2.938066858901869"><ele>1145.0</ele><time>2026-04-21T14:49:08.999Z</time></trkpt><trkpt lat="37.17601384064506" lon="-2.9378477459563874"><ele>1145.0</ele><time>2026-04-21T14:49:09.999Z</time></trkpt><trkpt lat="37.17581692161229" lon="-2.9376164051151674"><ele>1145.0</ele><time>2026-04-21T14:49:10.999Z</time></trkpt><trkpt lat="37.17565246731083" lon="-2.937389642468368"><ele>1147.0</ele><time>2026-04-21T14:49:11.999Z</time></trkpt><trkpt lat="37.17546337764192" lon="-2.9371134869478843"><ele>1149.0</ele><time>2026-04-21T14:49:12.999Z</time></trkpt><trkpt lat="37.17530754286132" lon="-2.9368385518076456"><ele>1147.0</ele><time>2026-04-21T14:49:13.999Z</time></trkpt><trkpt lat="37.175164978666906" lon="-2.936550837425424"><ele>1145.0</ele><time>2026-04-21T14:49:14.999Z</time></trkpt><trkpt lat="37.175035348872996" lon="-2.9362547665122767"><ele>1145.0</ele><time>2026-04-21T14:49:15.999Z</time></trkpt><trkpt lat="37.174917574937815" lon="-2.935943013819732"><ele>1145.0</ele><time>2026-04-21T14:49:16.999Z</time></trkpt><trkpt lat="37.174811440716084" lon="-2.935627825161387"><ele>1147.5</ele><time>2026-04-21T14:49:17.999Z</time></trkpt><trkpt lat="37.174717931759574" lon="-2.9353033475405805"><ele>1150.0</ele><time>2026-04-21T14:49:18.999Z</time></trkpt><trkpt lat="37.174652234343725" lon="-2.934969393500286"><ele>1150.0</ele><time>2026-04-21T14:49:19.999Z</time></trkpt><trkpt lat="37.174595396515905" lon="-2.9346296268841456"><ele>1150.0</ele><time>2026-04-21T14:49:20.999Z</time></trkpt><trkpt lat="37.17454598041274" lon="-2.9342793039664543"><ele>1148.5</ele><time>2026-04-21T14:49:21.999Z</time></trkpt><trkpt lat="37.17453002616984" lon="-2.933934199169802"><ele>1147.0</ele><time>2026-04-21T14:49:22.999Z</time></trkpt><trkpt lat="37.17452478764843" lon="-2.9335852664874853"><ele>1144.5</ele><time>2026-04-21T14:49:23.999Z</time></trkpt><trkpt lat="37.17453525587167" lon="-2.9332359905724754"><ele>1142.0</ele><time>2026-04-21T14:49:24.999Z</time></trkpt><trkpt lat="37.174550521380056" lon="-2.9328790621829244"><ele>1143.0</ele><time>2026-04-21T14:49:25.999Z</time></trkpt><trkpt lat="37.17456299246994" lon="-2.9325201291562855"><ele>1144.0</ele><time>2026-04-21T14:49:26.999Z</time></trkpt><trkpt lat="37.17456716986921" lon="-2.9321581223715945"><ele>1144.0</ele><time>2026-04-21T14:49:27.999Z</time></trkpt><trkpt lat="37.17456394230673" lon="-2.931801996955775"><ele>1144.0</ele><time>2026-04-21T14:49:28.999Z</time></trkpt><trkpt lat="37.17454500772255" lon="-2.9314448359603236"><ele>1147.5</ele><time>2026-04-21T14:49:29.999Z</time></trkpt><trkpt lat="37.17451042469328" lon="-2.931092292263948"><ele>1151.0</ele><time>2026-04-21T14:49:30.999Z</time></trkpt><trkpt lat="37.17445549804164" lon="-2.9307476800528356"><ele>1152.0</ele><time>2026-04-21T14:49:31.999Z</time></trkpt><trkpt lat="37.17438192210776" lon="-2.9304075298444388"><ele>1153.0</ele><time>2026-04-21T14:49:32.999Z</time></trkpt><trkpt lat="37.17429285380099" lon="-2.930070273479744"><ele>1149.5</ele><time>2026-04-21T14:49:33.999Z</time></trkpt><trkpt lat="37.174191219681894" lon="-2.9297406831569974"><ele>1146.0</ele><time>2026-04-21T14:49:34.999Z</time></trkpt><trkpt lat="37.17407261644757" lon="-2.929419294282502"><ele>1148.5</ele><time>2026-04-21T14:49:35.999Z</time></trkpt><trkpt lat="37.17394115477384" lon="-2.929107036404529"><ele>1151.0</ele><time>2026-04-21T14:49:36.999Z</time></trkpt><trkpt lat="37.17379041109338" lon="-2.928809334958989"><ele>1151.0</ele><time>2026-04-21T14:49:37.999Z</time></trkpt><trkpt lat="37.173621227356506" lon="-2.928524895931297"><ele>1151.0</ele><time>2026-04-21T14:49:38.999Z</time></trkpt><trkpt lat="37.17344732764819" lon="-2.928250545825533"><ele>1150.5</ele><time>2026-04-21T14:49:39.999Z</time></trkpt><trkpt lat="37.173268011408105" lon="-2.9279796177397985"><ele>1150.0</ele><time>2026-04-21T14:49:40.999Z</time></trkpt><trkpt lat="37.17309168192662" lon="-2.9277076072145656"><ele>1152.0</ele><time>2026-04-21T14:49:41.999Z</time></trkpt><trkpt lat="37.17291693704476" lon="-2.9274317938066003"><ele>1154.0</ele><time>2026-04-21T14:49:42.999Z</time></trkpt><trkpt lat="37.17273623344717" lon="-2.927159247011896"><ele>1154.0</ele><time>2026-04-21T14:49:43.999Z</time></trkpt><trkpt lat="37.17254983231229" lon="-2.926890144328823"><ele>1154.0</ele><time>2026-04-21T14:49:44.999Z</time></trkpt><trkpt lat="37.17236642067593" lon="-2.926615298382863"><ele>1157.0</ele><time>2026-04-21T14:49:45.999Z</time></trkpt><trkpt lat="37.17218077025803" lon="-2.9263433718150713"><ele>1160.0</ele><time>2026-04-21T14:49:46.999Z</time></trkpt><trkpt lat="37.17199572638274" lon="-2.92606799384956"><ele>1157.5</ele><time>2026-04-21T14:49:48Z</time></trkpt><trkpt lat="37.17181476012048" lon="-2.9257881162513963"><ele>1155.0</ele><time>2026-04-21T14:49:49Z</time></trkpt><trkpt lat="37.17162958085749" lon="-2.9255197684050094"><ele>1155.0</ele><time>2026-04-21T14:49:50Z</time></trkpt><trkpt lat="37.17144768412144" lon="-2.925245373755095"><ele>1155.0</ele><time>2026-04-21T14:49:51Z</time></trkpt><trkpt lat="37.171264452701536" lon="-2.9249699190386034"><ele>1155.0</ele><time>2026-04-21T14:49:52Z</time></trkpt><trkpt lat="37.17108023587562" lon="-2.9246941400578064"><ele>1155.0</ele><time>2026-04-21T14:49:53Z</time></trkpt><trkpt lat="37.168545580184094" lon="-2.9050222856824117"><ele>1146.0</ele><time>2026-04-21T14:50:53.999Z</time></trkpt><trkpt lat="37.168476626808946" lon="-2.9046742835069588"><ele>1137.0</ele><time>2026-04-21T14:50:54.999Z</time></trkpt><trkpt lat="37.168399966128014" lon="-2.9043263715855474"><ele>1135.5</ele><time>2026-04-21T14:50:55.999Z</time></trkpt><trkpt lat="37.16831688461027" lon="-2.9039731974011405"><ele>1134.0</ele><time>2026-04-21T14:50:56.999Z</time></trkpt><trkpt lat="37.168232891812146" lon="-2.9036243397296304"><ele>1137.0</ele><time>2026-04-21T14:50:57.999Z</time></trkpt><trkpt lat="37.16814832922404" lon="-2.903273664053304"><ele>1140.0</ele><time>2026-04-21T14:50:58.999Z</time></trkpt><trkpt lat="37.168065636218486" lon="-2.9029235981434116"><ele>1139.5</ele><time>2026-04-21T14:50:59.999Z</time></trkpt><trkpt lat="37.16798607317215" lon="-2.9025788705952307"><ele>1139.0</ele><time>2026-04-21T14:51:00.999Z</time></trkpt><trkpt lat="37.16791530468125" lon="-2.902223336895965"><ele>1139.0</ele><time>2026-04-21T14:51:01.999Z</time></trkpt><trkpt lat="37.16784328842486" lon="-2.9018767226116693"><ele>1139.0</ele><time>2026-04-21T14:51:02.999Z</time></trkpt><trkpt lat="37.1677752047518" lon="-2.9015256658459267"><ele>1138.5</ele><time>2026-04-21T14:51:03.999Z</time></trkpt><trkpt lat="37.167713072819964" lon="-2.901177484427982"><ele>1138.0</ele><time>2026-04-21T14:51:04.999Z</time></trkpt><trkpt lat="37.16765758938114" lon="-2.900826746431619"><ele>1135.0</ele><time>2026-04-21T14:51:05.999Z</time></trkpt><trkpt lat="37.167609532221036" lon="-2.9004785628860557"><ele>1132.0</ele><time>2026-04-21T14:51:06.999Z</time></trkpt><trkpt lat="37.16757540955327" lon="-2.900125686477501"><ele>1129.0</ele><time>2026-04-21T14:51:07.999Z</time></trkpt><trkpt lat="37.16753529959147" lon="-2.899769239173213"><ele>1126.0</ele><time>2026-04-21T14:51:08.999Z</time></trkpt><trkpt lat="37.16749776254719" lon="-2.8994125205455403"><ele>1127.0</ele><time>2026-04-21T14:51:09.999Z</time></trkpt><trkpt lat="37.167461827585704" lon="-2.8990529698716547"><ele>1128.0</ele><time>2026-04-21T14:51:10.999Z</time></trkpt><trkpt lat="37.167424598172104" lon="-2.8987004536240883"><ele>1126.5</ele><time>2026-04-21T14:51:11.999Z</time></trkpt><trkpt lat="37.16738857535493" lon="-2.8983520271248233"><ele>1125.0</ele><time>2026-04-21T14:51:12.999Z</time></trkpt><trkpt lat="37.16735121621015" lon="-2.89800321876646"><ele>1124.0</ele><time>2026-04-21T14:51:13.999Z</time></trkpt><trkpt lat="37.16731093763153" lon="-2.8976510912115687"><ele>1123.0</ele><time>2026-04-21T14:51:14.999Z</time></trkpt><trkpt lat="37.16726781940447" lon="-2.897300356588108"><ele>1123.0</ele><time>2026-04-21T14:51:15.999Z</time></trkpt><trkpt lat="37.16723294418363" lon="-2.896943455301755"><ele>1123.0</ele><time>2026-04-21T14:51:16.999Z</time></trkpt><trkpt lat="37.16719691781549" lon="-2.8965864611107603"><ele>1122.5</ele><time>2026-04-21T14:51:17.999Z</time></trkpt><trkpt lat="37.16715585038206" lon="-2.896235626508839"><ele>1122.0</ele><time>2026-04-21T14:51:18.999Z</time></trkpt><trkpt lat="37.16712206350729" lon="-2.8958914307709565"><ele>1126.5</ele><time>2026-04-21T14:51:19.999Z</time></trkpt><trkpt lat="37.16709386866201" lon="-2.8955445085827907"><ele>1131.0</ele><time>2026-04-21T14:51:20.999Z</time></trkpt><trkpt lat="37.16707334937775" lon="-2.895195562917371"><ele>1129.5</ele><time>2026-04-21T14:51:21.999Z</time></trkpt><trkpt lat="37.167070342287595" lon="-2.894845941777629"><ele>1128.0</ele><time>2026-04-21T14:51:22.999Z</time></trkpt><trkpt lat="37.167068229138394" lon="-2.894498154528938"><ele>1123.0</ele><time>2026-04-21T14:51:23.999Z</time></trkpt><trkpt lat="37.16710182731734" lon="-2.8941558498691826"><ele>1118.0</ele><time>2026-04-21T14:51:24.999Z</time></trkpt><trkpt lat="37.167135631691096" lon="-2.8938085325137135"><ele>1118.0</ele><time>2026-04-21T14:51:25.999Z</time></trkpt><trkpt lat="37.167185925684336" lon="-2.8934631432468256"><ele>1118.0</ele><time>2026-04-21T14:51:26.999Z</time></trkpt><trkpt lat="37.16724265637016" lon="-2.893115149949248"><ele>1115.0</ele><time>2026-04-21T14:51:27.999Z</time></trkpt><trkpt lat="37.167311031070305" lon="-2.8927700625730948"><ele>1112.0</ele><time>2026-04-21T14:51:28.999Z</time></trkpt><trkpt lat="37.16739266875248" lon="-2.8924301887810207"><ele>1112.0</ele><time>2026-04-21T14:51:29.999Z</time></trkpt><trkpt lat="37.167487015022694" lon="-2.8920949139310683"><ele>1112.0</ele><time>2026-04-21T14:51:30.999Z</time></trkpt><trkpt lat="37.16759026932635" lon="-2.8917623984192593"><ele>1112.0</ele><time>2026-04-21T14:51:31.999Z</time></trkpt><trkpt lat="37.16769909782824" lon="-2.8914382144935327"><ele>1112.0</ele><time>2026-04-21T14:51:32.999Z</time></trkpt><trkpt lat="37.16780905636611" lon="-2.891115470228028"><ele>1111.5</ele><time>2026-04-21T14:51:33.999Z</time></trkpt><trkpt lat="37.167914974892426" lon="-2.8907912877800337"><ele>1111.0</ele><time>2026-04-21T14:51:34.999Z</time></trkpt><trkpt lat="37.16801744095958" lon="-2.8904712825670646"><ele>1111.0</ele><time>2026-04-21T14:51:35.999Z</time></trkpt><trkpt lat="37.16811324151613" lon="-2.890148124930354"><ele>1111.0</ele><time>2026-04-21T14:51:36.999Z</time></trkpt><trkpt lat="37.1682037378444" lon="-2.889827422353755"><ele>1110.0</ele><time>2026-04-21T14:51:37.999Z</time></trkpt><trkpt lat="37.16829059224463" lon="-2.889505072429471"><ele>1109.0</ele><time>2026-04-21T14:51:38.999Z</time></trkpt><trkpt lat="37.16836126948764" lon="-2.8891809469034646"><ele>1098.5</ele><time>2026-04-21T14:51:39.999Z</time></trkpt><trkpt lat="37.16843105670644" lon="-2.8888518068874482"><ele>1088.0</ele><time>2026-04-21T14:51:40.999Z</time></trkpt><trkpt lat="37.16850501769256" lon="-2.8885243417088686"><ele>1081.5</ele><time>2026-04-21T14:51:41.999Z</time></trkpt><trkpt lat="37.168568872048255" lon="-2.8881880089763468"><ele>1075.0</ele><time>2026-04-21T14:51:42.999Z</time></trkpt><trkpt lat="37.16862518847381" lon="-2.8878491322307034"><ele>1069.0</ele><time>2026-04-21T14:51:43.999Z</time></trkpt><trkpt lat="37.16867569690436" lon="-2.887508158995638"><ele>1063.0</ele><time>2026-04-21T14:51:44.999Z</time></trkpt><trkpt lat="37.168723157611126" lon="-2.8871620505888203"><ele>1063.0</ele><time>2026-04-21T14:51:45.999Z</time></trkpt><trkpt lat="37.1687598184067" lon="-2.8868121185441593"><ele>1063.0</ele><time>2026-04-21T14:51:46.999Z</time></trkpt><trkpt lat="37.16879295829449" lon="-2.886460650010938"><ele>1060.0</ele><time>2026-04-21T14:51:47.999Z</time></trkpt><trkpt lat="37.16882009454906" lon="-2.8861080818576226"><ele>1057.0</ele><time>2026-04-21T14:51:48.999Z</time></trkpt><trkpt lat="37.16884150477507" lon="-2.885752435747051"><ele>1054.0</ele><time>2026-04-21T14:51:49.999Z</time></trkpt><trkpt lat="37.16885646371678" lon="-2.8853996661574612"><ele>1051.0</ele><time>2026-04-21T14:51:50.999Z</time></trkpt><trkpt lat="37.16886232895746" lon="-2.8850453889215317"><ele>1049.5</ele><time>2026-04-21T14:51:51.999Z</time></trkpt><trkpt lat="37.168859047423695" lon="-2.884689911311459"><ele>1048.0</ele><time>2026-04-21T14:51:52.999Z</time></trkpt><trkpt lat="37.168935754052434" lon="-2.8639145676657005"><ele>1019.0</ele><time>2026-04-21T14:52:53.999Z</time></trkpt><trkpt lat="37.168925131534344" lon="-2.863561300057547"><ele>990.0</ele><time>2026-04-21T14:52:54.999Z</time></trkpt><trkpt lat="37.168901630431805" lon="-2.8632098591081787"><ele>987.0</ele><time>2026-04-21T14:52:55.999Z</time></trkpt><trkpt lat="37.16886496436704" lon="-2.8628586463199097"><ele>984.0</ele><time>2026-04-21T14:52:56.999Z</time></trkpt><trkpt lat="37.16881957225734" lon="-2.8625167817020847"><ele>980.0</ele><time>2026-04-21T14:52:57.999Z</time></trkpt><trkpt lat="37.16876002723499" lon="-2.862172790437613"><ele>976.0</ele><time>2026-04-21T14:52:58.999Z</time></trkpt><trkpt lat="37.16868456512148" lon="-2.8618315863323587"><ele>973.0</ele><time>2026-04-21T14:52:59.999Z</time></trkpt><trkpt lat="37.16859831201305" lon="-2.8614955392442756"><ele>970.0</ele><time>2026-04-21T14:53:00.999Z</time></trkpt><trkpt lat="37.16849424460804" lon="-2.861167774293666"><ele>967.5</ele><time>2026-04-21T14:53:01.999Z</time></trkpt><trkpt lat="37.16838521419581" lon="-2.8608398047697263"><ele>965.0</ele><time>2026-04-21T14:53:02.999Z</time></trkpt><trkpt lat="37.16826471664647" lon="-2.860521314643585"><ele>967.5</ele><time>2026-04-21T14:53:03.999Z</time></trkpt><trkpt lat="37.16813047070984" lon="-2.8602078579504115"><ele>970.0</ele><time>2026-04-21T14:53:04.999Z</time></trkpt><trkpt lat="37.167985269605616" lon="-2.859907609691206"><ele>970.5</ele><time>2026-04-21T14:53:05.999Z</time></trkpt><trkpt lat="37.16783416321129" lon="-2.8596069104278983"><ele>971.0</ele><time>2026-04-21T14:53:06.999Z</time></trkpt><trkpt lat="37.16767391138469" lon="-2.859317208721122"><ele>971.5</ele><time>2026-04-21T14:53:07.999Z</time></trkpt><trkpt lat="37.16751310248566" lon="-2.859023412562121"><ele>972.0</ele><time>2026-04-21T14:53:08.999Z</time></trkpt><trkpt lat="37.16736718095483" lon="-2.858729609318969"><ele>974.5</ele><time>2026-04-21T14:53:09.999Z</time></trkpt><trkpt lat="37.167220737181246" lon="-2.85842817519073"><ele>977.0</ele><time>2026-04-21T14:53:10.999Z</time></trkpt><trkpt lat="37.16708991018212" lon="-2.8581160197893265"><ele>977.0</ele><time>2026-04-21T14:53:11.999Z</time></trkpt><trkpt lat="37.16697180832813" lon="-2.8577963149201415"><ele>977.0</ele><time>2026-04-21T14:53:12.999Z</time></trkpt><trkpt lat="37.1668588497886" lon="-2.857473344045872"><ele>976.0</ele><time>2026-04-21T14:53:13.999Z</time></trkpt><trkpt lat="37.1667516293803" lon="-2.8571480028413965"><ele>975.0</ele><time>2026-04-21T14:53:14.999Z</time></trkpt><trkpt lat="37.16665889161219" lon="-2.856813941387425"><ele>974.0</ele><time>2026-04-21T14:53:15.999Z</time></trkpt><trkpt lat="37.16658127609074" lon="-2.8564697078563466"><ele>973.0</ele><time>2026-04-21T14:53:16.999Z</time></trkpt><trkpt lat="37.16650724251378" lon="-2.8561036155923665"><ele>975.5</ele><time>2026-04-21T14:53:17.999Z</time></trkpt><trkpt lat="37.16646193566744" lon="-2.855764530727817"><ele>978.0</ele><time>2026-04-21T14:53:18.999Z</time></trkpt><trkpt lat="37.1664192016675" lon="-2.8554055306763324"><ele>972.5</ele><time>2026-04-21T14:53:19.999Z</time></trkpt><trkpt lat="37.166389380651644" lon="-2.855048231187242"><ele>967.0</ele><time>2026-04-21T14:53:20.999Z</time></trkpt><trkpt lat="37.166361039527054" lon="-2.854683261938073"><ele>967.0</ele><time>2026-04-21T14:53:21.999Z</time></trkpt><trkpt lat="37.16633397629539" lon="-2.854325403378218"><ele>967.0</ele><time>2026-04-21T14:53:22.999Z</time></trkpt><trkpt lat="37.16630277532441" lon="-2.853961951204861"><ele>965.5</ele><time>2026-04-21T14:53:23.999Z</time></trkpt><trkpt lat="37.16626628739729" lon="-2.8536037923684434"><ele>964.0</ele><time>2026-04-21T14:53:24.999Z</time></trkpt><trkpt lat="37.16622336759483" lon="-2.853243122588209"><ele>964.0</ele><time>2026-04-21T14:53:25.999Z</time></trkpt><trkpt lat="37.16616971583556" lon="-2.8528831457261155"><ele>964.0</ele><time>2026-04-21T14:53:26.999Z</time></trkpt><trkpt lat="37.16611026510483" lon="-2.852524145041255"><ele>967.5</ele><time>2026-04-21T14:53:27.999Z</time></trkpt><trkpt lat="37.16605068125133" lon="-2.852166382078881"><ele>971.0</ele><time>2026-04-21T14:53:28.999Z</time></trkpt><trkpt lat="37.16598222068501" lon="-2.851815119913845"><ele>970.5</ele><time>2026-04-21T14:53:29.999Z</time></trkpt><trkpt lat="37.16590386145496" lon="-2.851463362794535"><ele>970.0</ele><time>2026-04-21T14:53:30.999Z</time></trkpt><trkpt lat="37.16581365399514" lon="-2.8511168004191894"><ele>965.5</ele><time>2026-04-21T14:53:31.999Z</time></trkpt><trkpt lat="37.16571280146211" lon="-2.8507719438060617"><ele>961.0</ele><time>2026-04-21T14:53:32.999Z</time></trkpt><trkpt lat="37.16560599877264" lon="-2.85043059955638"><ele>957.5</ele><time>2026-04-21T14:53:33.999Z</time></trkpt><trkpt lat="37.16548976415512" lon="-2.85009200820231"><ele>954.0</ele><time>2026-04-21T14:53:34.999Z</time></trkpt><trkpt lat="37.16536290286343" lon="-2.8497582465705324"><ele>954.0</ele><time>2026-04-21T14:53:35.998Z</time></trkpt><trkpt lat="37.16523262649303" lon="-2.8494296700305175"><ele>954.0</ele><time>2026-04-21T14:53:36.998Z</time></trkpt><trkpt lat="37.16509436808743" lon="-2.849111062654994"><ele>954.5</ele><time>2026-04-21T14:53:37.998Z</time></trkpt><trkpt lat="37.1649462967276" lon="-2.8487984238984305"><ele>955.0</ele><time>2026-04-21T14:53:38.998Z</time></trkpt><trkpt lat="37.164797768906354" lon="-2.8485009006194093"><ele>954.5</ele><time>2026-04-21T14:53:39.998Z</time></trkpt><trkpt lat="37.16464789208615" lon="-2.8482102869882504"><ele>954.0</ele><time>2026-04-21T14:53:40.998Z</time></trkpt><trkpt lat="37.164488874687535" lon="-2.8479236056389268"><ele>954.0</ele><time>2026-04-21T14:53:41.998Z</time></trkpt><trkpt lat="37.16432022930168" lon="-2.8476448688620937"><ele>954.0</ele><time>2026-04-21T14:53:42.998Z</time></trkpt><trkpt lat="37.164144027954336" lon="-2.8473701887849385"><ele>955.5</ele><time>2026-04-21T14:53:43.998Z</time></trkpt><trkpt lat="37.16395950686808" lon="-2.8471080378257647"><ele>957.0</ele><time>2026-04-21T14:53:44.998Z</time></trkpt><trkpt lat="37.16377082912828" lon="-2.8468451730167588"><ele>956.0</ele><time>2026-04-21T14:53:45.998Z</time></trkpt><trkpt lat="37.16357648160116" lon="-2.8465889222219"><ele>955.0</ele><time>2026-04-21T14:53:46.998Z</time></trkpt><trkpt lat="37.16337644062991" lon="-2.8463352458811664"><ele>954.0</ele><time>2026-04-21T14:53:47.998Z</time></trkpt><trkpt lat="37.16317448604094" lon="-2.846089134151865"><ele>953.0</ele><time>2026-04-21T14:53:48.998Z</time></trkpt><trkpt lat="37.16297013892637" lon="-2.845848455839506"><ele>951.5</ele><time>2026-04-21T14:53:49.998Z</time></trkpt><trkpt lat="37.1627559083475" lon="-2.845617563230551"><ele>950.0</ele><time>2026-04-21T14:53:50.998Z</time></trkpt><trkpt lat="37.16254267841612" lon="-2.8453924434624898"><ele>954.5</ele><time>2026-04-21T14:53:51.998Z</time></trkpt><trkpt lat="37.16233386691749" lon="-2.8451686632679793"><ele>959.0</ele><time>2026-04-21T14:53:52.998Z</time></trkpt><trkpt lat="37.15547101830456" lon="-2.82673883288562"><ele>941.0</ele><time>2026-04-21T14:54:53.999Z</time></trkpt><trkpt lat="37.155361305197204" lon="-2.826407181294629"><ele>923.0</ele><time>2026-04-21T14:54:54.999Z</time></trkpt><trkpt lat="37.155249999132685" lon="-2.826075000666761"><ele>921.0</ele><time>2026-04-21T14:54:55.999Z</time></trkpt><trkpt lat="37.15514285852077" lon="-2.8257386950097994"><ele>919.0</ele><time>2026-04-21T14:54:56.999Z</time></trkpt><trkpt lat="37.155035611526976" lon="-2.8254042048838413"><ele>917.5</ele><time>2026-04-21T14:54:57.999Z</time></trkpt><trkpt lat="37.15493079558427" lon="-2.825066515644233"><ele>916.0</ele><time>2026-04-21T14:54:58.999Z</time></trkpt><trkpt lat="37.15482269138826" lon="-2.824723621418373"><ele>916.5</ele><time>2026-04-21T14:54:59.999Z</time></trkpt><trkpt lat="37.154715126363826" lon="-2.8243829385210675"><ele>917.0</ele><time>2026-04-21T14:55:00.999Z</time></trkpt><trkpt lat="37.154611756052034" lon="-2.824041622623614"><ele>917.0</ele><time>2026-04-21T14:55:01.999Z</time></trkpt><trkpt lat="37.154507837745065" lon="-2.823698030542991"><ele>917.0</ele><time>2026-04-21T14:55:02.999Z</time></trkpt><trkpt lat="37.15440786444161" lon="-2.8233587250982897"><ele>916.5</ele><time>2026-04-21T14:55:03.999Z</time></trkpt><trkpt lat="37.154305419592575" lon="-2.8230121413066076"><ele>916.0</ele><time>2026-04-21T14:55:04.999Z</time></trkpt><trkpt lat="37.15420455614524" lon="-2.82266941493974"><ele>916.5</ele><time>2026-04-21T14:55:05.999Z</time></trkpt><trkpt lat="37.154105392677764" lon="-2.822325655644376"><ele>917.0</ele><time>2026-04-21T14:55:06.999Z</time></trkpt><trkpt lat="37.154011743885654" lon="-2.8219789745490047"><ele>915.5</ele><time>2026-04-21T14:55:07.999Z</time></trkpt><trkpt lat="37.15392218182563" lon="-2.8216360490168833"><ele>914.0</ele><time>2026-04-21T14:55:08.999Z</time></trkpt><trkpt lat="37.153828148779446" lon="-2.8212884792289876"><ele>911.0</ele><time>2026-04-21T14:55:09.999Z</time></trkpt><trkpt lat="37.15373490472472" lon="-2.8209403049109767"><ele>908.0</ele><time>2026-04-21T14:55:10.999Z</time></trkpt><trkpt lat="37.15364071015181" lon="-2.8205940295863363"><ele>908.0</ele><time>2026-04-21T14:55:11.999Z</time></trkpt><trkpt lat="37.153548832415915" lon="-2.8202462411789084"><ele>908.0</ele><time>2026-04-21T14:55:12.999Z</time></trkpt><trkpt lat="37.15346025202217" lon="-2.8198974067634537"><ele>906.5</ele><time>2026-04-21T14:55:13.999Z</time></trkpt><trkpt lat="37.15337488207395" lon="-2.8195478082444994"><ele>905.0</ele><time>2026-04-21T14:55:14.999Z</time></trkpt><trkpt lat="37.153288066206564" lon="-2.8191964943614827"><ele>906.0</ele><time>2026-04-21T14:55:15.999Z</time></trkpt><trkpt lat="37.153202852714855" lon="-2.8188456694032604"><ele>907.0</ele><time>2026-04-21T14:55:16.999Z</time></trkpt><trkpt lat="37.15311513087041" lon="-2.8184924385909262"><ele>906.0</ele><time>2026-04-21T14:55:17.999Z</time></trkpt><trkpt lat="37.15302980031149" lon="-2.8181402592837577"><ele>905.0</ele><time>2026-04-21T14:55:18.999Z</time></trkpt><trkpt lat="37.152947563715955" lon="-2.8177854978574626"><ele>902.5</ele><time>2026-04-21T14:55:19.999Z</time></trkpt><trkpt lat="37.15286457739001" lon="-2.8174267286700054"><ele>900.0</ele><time>2026-04-21T14:55:20.999Z</time></trkpt><trkpt lat="37.152784184544394" lon="-2.8170656654454547"><ele>898.5</ele><time>2026-04-21T14:55:21.999Z</time></trkpt><trkpt lat="37.15270366305507" lon="-2.816702475465004"><ele>897.0</ele><time>2026-04-21T14:55:22.999Z</time></trkpt><trkpt lat="37.15262545229238" lon="-2.8163438280570463"><ele>897.0</ele><time>2026-04-21T14:55:23.999Z</time></trkpt><trkpt lat="37.15255226534364" lon="-2.8159881728145555"><ele>897.0</ele><time>2026-04-21T14:55:24.999Z</time></trkpt><trkpt lat="37.15248434883754" lon="-2.8156292661916296"><ele>896.0</ele><time>2026-04-21T14:55:25.999Z</time></trkpt><trkpt lat="37.152417764628666" lon="-2.8152754100708197"><ele>895.0</ele><time>2026-04-21T14:55:26.999Z</time></trkpt><trkpt lat="37.15235069643547" lon="-2.814920927346533"><ele>895.0</ele><time>2026-04-21T14:55:27.999Z</time></trkpt><trkpt lat="37.15228032630849" lon="-2.814571464531535"><ele>895.0</ele><time>2026-04-21T14:55:28.999Z</time></trkpt><trkpt lat="37.15220835626758" lon="-2.8142277930056068"><ele>894.0</ele><time>2026-04-21T14:55:29.999Z</time></trkpt><trkpt lat="37.15213545250496" lon="-2.8138887340575347"><ele>893.0</ele><time>2026-04-21T14:55:30.999Z</time></trkpt><trkpt lat="37.15206037605668" lon="-2.813551985269354"><ele>891.0</ele><time>2026-04-21T14:55:31.999Z</time></trkpt><trkpt lat="37.15198399198846" lon="-2.8132173174271307"><ele>889.0</ele><time>2026-04-21T14:55:32.999Z</time></trkpt><trkpt lat="37.151910099358766" lon="-2.8128817523330087"><ele>885.5</ele><time>2026-04-21T14:55:33.999Z</time></trkpt><trkpt lat="37.15182407947634" lon="-2.812563578613594"><ele>882.0</ele><time>2026-04-21T14:55:34.999Z</time></trkpt><trkpt lat="37.151748867504054" lon="-2.812241232969483"><ele>882.0</ele><time>2026-04-21T14:55:35.999Z</time></trkpt><trkpt lat="37.151669375280214" lon="-2.8119197816957344"><ele>882.0</ele><time>2026-04-21T14:55:36.999Z</time></trkpt><trkpt lat="37.15158751490199" lon="-2.811606651607233"><ele>882.0</ele><time>2026-04-21T14:55:37.999Z</time></trkpt><trkpt lat="37.15150734656484" lon="-2.8112918149998785"><ele>882.0</ele><time>2026-04-21T14:55:38.999Z</time></trkpt><trkpt lat="37.151425428101426" lon="-2.810979721233002"><ele>882.0</ele><time>2026-04-21T14:55:39.999Z</time></trkpt><trkpt lat="37.15134251177141" lon="-2.8106713604011726"><ele>882.0</ele><time>2026-04-21T14:55:40.999Z</time></trkpt><trkpt lat="37.15125761153321" lon="-2.8103652029929944"><ele>881.5</ele><time>2026-04-21T14:55:41.999Z</time></trkpt><trkpt lat="37.15116814069366" lon="-2.810060888115897"><ele>881.0</ele><time>2026-04-21T14:55:42.999Z</time></trkpt><trkpt lat="37.15107883603324" lon="-2.8097620508865035"><ele>881.0</ele><time>2026-04-21T14:55:43.999Z</time></trkpt><trkpt lat="37.15099221973968" lon="-2.809459658730345"><ele>881.0</ele><time>2026-04-21T14:55:44.999Z</time></trkpt><trkpt lat="37.150910727794596" lon="-2.809162827310306"><ele>880.0</ele><time>2026-04-21T14:55:45.999Z</time></trkpt><trkpt lat="37.1508239174455" lon="-2.808871766569563"><ele>879.0</ele><time>2026-04-21T14:55:46.998Z</time></trkpt><trkpt lat="37.150737956961045" lon="-2.808577201048829"><ele>878.0</ele><time>2026-04-21T14:55:47.998Z</time></trkpt><trkpt lat="37.150643384897094" lon="-2.8082753567713987"><ele>877.0</ele><time>2026-04-21T14:55:48.998Z</time></trkpt><trkpt lat="37.15054443415302" lon="-2.807975412524126"><ele>877.0</ele><time>2026-04-21T14:55:49.998Z</time></trkpt><trkpt lat="37.150445484222665" lon="-2.8076759822693873"><ele>877.0</ele><time>2026-04-21T14:55:50.998Z</time></trkpt><trkpt lat="37.15034711791677" lon="-2.807376201727216"><ele>875.0</ele><time>2026-04-21T14:55:51.998Z</time></trkpt><trkpt lat="37.1502459148031" lon="-2.807067891092966"><ele>873.0</ele><time>2026-04-21T14:55:52.998Z</time></trkpt><trkpt lat="37.146165044147395" lon="-2.787186663466169"><ele>856.0</ele><time>2026-04-21T14:56:53.999Z</time></trkpt><trkpt lat="37.14610746064221" lon="-2.7868456371430934"><ele>839.0</ele><time>2026-04-21T14:56:54.999Z</time></trkpt><trkpt lat="37.14605510741468" lon="-2.78649765464473"><ele>837.0</ele><time>2026-04-21T14:56:55.999Z</time></trkpt><trkpt lat="37.14600368393569" lon="-2.786155613785944"><ele>835.0</ele><time>2026-04-21T14:56:56.999Z</time></trkpt><trkpt lat="37.14594025111043" lon="-2.7858126270033203"><ele>832.5</ele><time>2026-04-21T14:56:57.999Z</time></trkpt><trkpt lat="37.14588269046465" lon="-2.7854645254171886"><ele>830.0</ele><time>2026-04-21T14:56:58.999Z</time></trkpt><trkpt lat="37.14583414982388" lon="-2.785116911906826"><ele>830.0</ele><time>2026-04-21T14:56:59.999Z</time></trkpt><trkpt lat="37.145777876314924" lon="-2.784766243904399"><ele>830.0</ele><time>2026-04-21T14:57:00.999Z</time></trkpt><trkpt lat="37.14573676000434" lon="-2.784410247209075"><ele>835.5</ele><time>2026-04-21T14:57:01.999Z</time></trkpt><trkpt lat="37.14570525591981" lon="-2.784058210522802"><ele>841.0</ele><time>2026-04-21T14:57:02.999Z</time></trkpt><trkpt lat="37.14567688616104" lon="-2.783698347494814"><ele>838.5</ele><time>2026-04-21T14:57:03.999Z</time></trkpt><trkpt lat="37.14565943902114" lon="-2.78334314415871"><ele>836.0</ele><time>2026-04-21T14:57:04.999Z</time></trkpt><trkpt lat="37.1456529746921" lon="-2.7829821855002415"><ele>833.5</ele><time>2026-04-21T14:57:05.999Z</time></trkpt><trkpt lat="37.145652196968435" lon="-2.782621374621301"><ele>831.0</ele><time>2026-04-21T14:57:06.999Z</time></trkpt><trkpt lat="37.1456615449651" lon="-2.7822555833589453"><ele>831.0</ele><time>2026-04-21T14:57:07.999Z</time></trkpt><trkpt lat="37.1456762416335" lon="-2.781892316858504"><ele>831.0</ele><time>2026-04-21T14:57:08.999Z</time></trkpt><trkpt lat="37.14569766485661" lon="-2.781527983807242"><ele>828.0</ele><time>2026-04-21T14:57:09.999Z</time></trkpt><trkpt lat="37.14571577896563" lon="-2.781166278386497"><ele>825.0</ele><time>2026-04-21T14:57:10.999Z</time></trkpt><trkpt lat="37.14573086861179" lon="-2.7808078460182477"><ele>825.0</ele><time>2026-04-21T14:57:11.999Z</time></trkpt><trkpt lat="37.145749446182066" lon="-2.780454487140885"><ele>825.0</ele><time>2026-04-21T14:57:12.999Z</time></trkpt><trkpt lat="37.14576449974958" lon="-2.7800984994290943"><ele>826.0</ele><time>2026-04-21T14:57:13.999Z</time></trkpt><trkpt lat="37.14577904714682" lon="-2.7797465497816103"><ele>827.0</ele><time>2026-04-21T14:57:14.999Z</time></trkpt><trkpt lat="37.14579726613531" lon="-2.779397095040363"><ele>826.0</ele><time>2026-04-21T14:57:15.999Z</time></trkpt><trkpt lat="37.14581389188722" lon="-2.7790498723837476"><ele>825.0</ele><time>2026-04-21T14:57:16.999Z</time></trkpt><trkpt lat="37.14583926043846" lon="-2.7787068990916652"><ele>824.0</ele><time>2026-04-21T14:57:17.999Z</time></trkpt><trkpt lat="37.14585960011824" lon="-2.7783618213840944"><ele>823.0</ele><time>2026-04-21T14:57:18.999Z</time></trkpt><trkpt lat="37.145878000528405" lon="-2.7780154697293495"><ele>821.0</ele><time>2026-04-21T14:57:19.999Z</time></trkpt><trkpt lat="37.14589695943607" lon="-2.777671824534451"><ele>819.0</ele><time>2026-04-21T14:57:20.999Z</time></trkpt><trkpt lat="37.14591369111558" lon="-2.7773255387202926"><ele>819.0</ele><time>2026-04-21T14:57:21.999Z</time></trkpt><trkpt lat="37.14592921232372" lon="-2.776980546737137"><ele>819.0</ele><time>2026-04-21T14:57:22.999Z</time></trkpt><trkpt lat="37.14591805004131" lon="-2.7766590631161328"><ele>818.5</ele><time>2026-04-21T14:57:23.999Z</time></trkpt><trkpt lat="37.14595479107987" lon="-2.7762964634158456"><ele>818.0</ele><time>2026-04-21T14:57:24.999Z</time></trkpt><trkpt lat="37.145975119482095" lon="-2.775954556417053"><ele>819.0</ele><time>2026-04-21T14:57:25.999Z</time></trkpt><trkpt lat="37.14599253079936" lon="-2.7756112265979014"><ele>820.0</ele><time>2026-04-21T14:57:26.999Z</time></trkpt><trkpt lat="37.146012406628685" lon="-2.77526655721829"><ele>822.5</ele><time>2026-04-21T14:57:27.999Z</time></trkpt><trkpt lat="37.14603224840137" lon="-2.7749217277336284"><ele>825.0</ele><time>2026-04-21T14:57:28.999Z</time></trkpt><trkpt lat="37.14604505945069" lon="-2.774575733873956"><ele>825.0</ele><time>2026-04-21T14:57:29.999Z</time></trkpt><trkpt lat="37.146065220214886" lon="-2.7742342716535204"><ele>825.0</ele><time>2026-04-21T14:57:30.999Z</time></trkpt><trkpt lat="37.146099089784364" lon="-2.773894120245369"><ele>825.0</ele><time>2026-04-21T14:57:31.999Z</time></trkpt><trkpt lat="37.14614281615151" lon="-2.7735581394162656"><ele>825.0</ele><time>2026-04-21T14:57:32.999Z</time></trkpt><trkpt lat="37.14619337249753" lon="-2.7732189429974317"><ele>824.5</ele><time>2026-04-21T14:57:33.999Z</time></trkpt><trkpt lat="37.146258910946614" lon="-2.77288680786999"><ele>824.0</ele><time>2026-04-21T14:57:34.999Z</time></trkpt><trkpt lat="37.14633184924356" lon="-2.772556041178631"><ele>829.0</ele><time>2026-04-21T14:57:35.999Z</time></trkpt><trkpt lat="37.14641266743379" lon="-2.77222883473434"><ele>834.0</ele><time>2026-04-21T14:57:36.999Z</time></trkpt><trkpt lat="37.14650540189899" lon="-2.771903385872336"><ele>826.0</ele><time>2026-04-21T14:57:37.999Z</time></trkpt><trkpt lat="37.146613107086964" lon="-2.771580544556939"><ele>818.0</ele><time>2026-04-21T14:57:38.999Z</time></trkpt><trkpt lat="37.146733447841974" lon="-2.771262003632027"><ele>817.5</ele><time>2026-04-21T14:57:39.999Z</time></trkpt><trkpt lat="37.14686783466096" lon="-2.770950340089455"><ele>817.0</ele><time>2026-04-21T14:57:40.999Z</time></trkpt><trkpt lat="37.14701083901566" lon="-2.770649089407163"><ele>817.0</ele><time>2026-04-21T14:57:41.999Z</time></trkpt><trkpt lat="37.14716435096352" lon="-2.7703538059294437"><ele>817.0</ele><time>2026-04-21T14:57:42.999Z</time></trkpt><trkpt lat="37.1473279831244" lon="-2.770064992595663"><ele>814.0</ele><time>2026-04-21T14:57:43.999Z</time></trkpt><trkpt lat="37.14750511032964" lon="-2.7697884779708564"><ele>811.0</ele><time>2026-04-21T14:57:44.999Z</time></trkpt><trkpt lat="37.14769429634558" lon="-2.7695187510552066"><ele>814.0</ele><time>2026-04-21T14:57:45.999Z</time></trkpt><trkpt lat="37.14788966641998" lon="-2.769255675495799"><ele>817.0</ele><time>2026-04-21T14:57:46.999Z</time></trkpt><trkpt lat="37.14810139382693" lon="-2.7690049449828154"><ele>813.0</ele><time>2026-04-21T14:57:47.999Z</time></trkpt><trkpt lat="37.148313714983026" lon="-2.7687635243092745"><ele>809.0</ele><time>2026-04-21T14:57:48.999Z</time></trkpt><trkpt lat="37.14853542556166" lon="-2.7685372699886592"><ele>814.5</ele><time>2026-04-21T14:57:49.999Z</time></trkpt><trkpt lat="37.14876334374318" lon="-2.768320261713359"><ele>820.0</ele><time>2026-04-21T14:57:50.999Z</time></trkpt><trkpt lat="37.1489992940154" lon="-2.76811904902266"><ele>812.5</ele><time>2026-04-21T14:57:51.999Z</time></trkpt><trkpt lat="37.14923054080819" lon="-2.767931116734785"><ele>805.0</ele><time>2026-04-21T14:57:52.999Z</time></trkpt><trkpt lat="37.145966345161185" lon="-2.7521466288191543"><ele>786.0</ele><time>2026-04-21T14:58:53.999Z</time></trkpt><trkpt lat="37.145720905358445" lon="-2.751934537289011"><ele>767.0</ele><time>2026-04-21T14:58:54.999Z</time></trkpt><trkpt lat="37.14547907285977" lon="-2.7517112119807914"><ele>762.0</ele><time>2026-04-21T14:58:55.999Z</time></trkpt><trkpt lat="37.14523462549755" lon="-2.751480072593208"><ele>757.0</ele><time>2026-04-21T14:58:56.999Z</time></trkpt><trkpt lat="37.14500000170836" lon="-2.7512434883590817"><ele>754.5</ele><time>2026-04-21T14:58:57.999Z</time></trkpt><trkpt lat="37.14477842573093" lon="-2.750983803437757"><ele>752.0</ele><time>2026-04-21T14:58:58.999Z</time></trkpt><trkpt lat="37.14457800985637" lon="-2.7507006018021074"><ele>752.0</ele><time>2026-04-21T14:58:59.999Z</time></trkpt><trkpt lat="37.14439120979259" lon="-2.75040621768229"><ele>752.0</ele><time>2026-04-21T14:59:00.999Z</time></trkpt><trkpt lat="37.1442067265568" lon="-2.750111026026768"><ele>750.0</ele><time>2026-04-21T14:59:01.999Z</time></trkpt><trkpt lat="37.14402026782799" lon="-2.7498167774503353"><ele>748.0</ele><time>2026-04-21T14:59:02.999Z</time></trkpt><trkpt lat="37.143855852068356" lon="-2.7495064157858096"><ele>747.0</ele><time>2026-04-21T14:59:03.999Z</time></trkpt><trkpt lat="37.14370892162399" lon="-2.749181290524576"><ele>746.0</ele><time>2026-04-21T14:59:04.999Z</time></trkpt><trkpt lat="37.143566570888254" lon="-2.74884848207327"><ele>748.5</ele><time>2026-04-21T14:59:05.999Z</time></trkpt><trkpt lat="37.14342028847518" lon="-2.7485166807050665"><ele>751.0</ele><time>2026-04-21T14:59:06.999Z</time></trkpt><trkpt lat="37.143252081622755" lon="-2.748200384859101"><ele>749.5</ele><time>2026-04-21T14:59:07.999Z</time></trkpt><trkpt lat="37.14307789129737" lon="-2.7478900034186"><ele>748.0</ele><time>2026-04-21T14:59:08.999Z</time></trkpt><trkpt lat="37.14290079220113" lon="-2.747603576240366"><ele>746.0</ele><time>2026-04-21T14:59:09.999Z</time></trkpt><trkpt lat="37.142710821062835" lon="-2.7473292237572813"><ele>744.0</ele><time>2026-04-21T14:59:10.999Z</time></trkpt><trkpt lat="37.14252117713312" lon="-2.747067318091064"><ele>744.0</ele><time>2026-04-21T14:59:11.999Z</time></trkpt><trkpt lat="37.142347558789716" lon="-2.7468230349945597"><ele>744.0</ele><time>2026-04-21T14:59:12.999Z</time></trkpt><trkpt lat="37.14218181318066" lon="-2.746614433502494"><ele>744.0</ele><time>2026-04-21T14:59:13.999Z</time></trkpt><trkpt lat="37.141992463398" lon="-2.746381374454504"><ele>744.0</ele><time>2026-04-21T14:59:14.999Z</time></trkpt><trkpt lat="37.14181771833913" lon="-2.7462018062390032"><ele>744.3333333333334</ele><time>2026-04-21T14:59:15.999Z</time></trkpt><trkpt lat="37.141651292170785" lon="-2.7460393267281744"><ele>744.6666666666667</ele><time>2026-04-21T14:59:16.999Z</time></trkpt><trkpt lat="37.141478795281024" lon="-2.745889098495131"><ele>745.0</ele><time>2026-04-21T14:59:17.999Z</time></trkpt><trkpt lat="37.14129723220793" lon="-2.745748401029105"><ele>743.3333333333334</ele><time>2026-04-21T14:59:18.999Z</time></trkpt><trkpt lat="37.14111249867163" lon="-2.745613861420287"><ele>741.6666666666666</ele><time>2026-04-21T14:59:19.999Z</time></trkpt><trkpt lat="37.14092146080169" lon="-2.745471095877389"><ele>740.0</ele><time>2026-04-21T14:59:20.999Z</time></trkpt><trkpt lat="37.140727912471775" lon="-2.745328639570039"><ele>740.3333333333333</ele><time>2026-04-21T14:59:21.999Z</time></trkpt><trkpt lat="37.14053836807947" lon="-2.74518601028973"><ele>740.6666666666666</ele><time>2026-04-21T14:59:22.999Z</time></trkpt><trkpt lat="37.14035739880517" lon="-2.7450486588580723"><ele>741.0</ele><time>2026-04-21T14:59:23.999Z</time></trkpt><trkpt lat="37.14018288154634" lon="-2.7449153050074555"><ele>741.0</ele><time>2026-04-21T14:59:24.999Z</time></trkpt><trkpt lat="37.14001878223156" lon="-2.7447655060474525"><ele>741.0</ele><time>2026-04-21T14:59:25.999Z</time></trkpt><trkpt lat="37.139857654643784" lon="-2.7446018494362643"><ele>741.0</ele><time>2026-04-21T14:59:26.999Z</time></trkpt><trkpt lat="37.13970341381271" lon="-2.744446419780456"><ele>742.3333333333334</ele><time>2026-04-21T14:59:27.999Z</time></trkpt><trkpt lat="37.13954790499288" lon="-2.7442835493966475"><ele>743.6666666666667</ele><time>2026-04-21T14:59:28.999Z</time></trkpt><trkpt lat="37.13938861844457" lon="-2.7441110265803204"><ele>745.0</ele><time>2026-04-21T14:59:29.999Z</time></trkpt><trkpt lat="37.13923498064731" lon="-2.7439223281444414"><ele>745.0</ele><time>2026-04-21T14:59:30.999Z</time></trkpt><trkpt lat="37.139085078842186" lon="-2.743722024222625"><ele>745.0</ele><time>2026-04-21T14:59:31.999Z</time></trkpt><trkpt lat="37.138939712845065" lon="-2.7435134073301177"><ele>745.0</ele><time>2026-04-21T14:59:32.999Z</time></trkpt><trkpt lat="37.13880430179367" lon="-2.7433031730507182"><ele>745.6666666666667</ele><time>2026-04-21T14:59:33.999Z</time></trkpt><trkpt lat="37.13867705596324" lon="-2.7430835472784363"><ele>746.3333333333334</ele><time>2026-04-21T14:59:34.999Z</time></trkpt><trkpt lat="37.138553294394676" lon="-2.7428578349057746"><ele>747.0</ele><time>2026-04-21T14:59:35.999Z</time></trkpt><trkpt lat="37.138437358945666" lon="-2.7426273340928327"><ele>747.0</ele><time>2026-04-21T14:59:36.999Z</time></trkpt><trkpt lat="37.13833142377302" lon="-2.742381211753883"><ele>747.0</ele><time>2026-04-21T14:59:37.999Z</time></trkpt><trkpt lat="37.13822599409845" lon="-2.742137750205552"><ele>747.0</ele><time>2026-04-21T14:59:38.999Z</time></trkpt><trkpt lat="37.13812826451488" lon="-2.7418885861404214"><ele>739.5</ele><time>2026-04-21T14:59:39.999Z</time></trkpt><trkpt lat="37.138041828598354" lon="-2.74163153078846"><ele>732.0</ele><time>2026-04-21T14:59:40.999Z</time></trkpt><trkpt lat="37.137957581453605" lon="-2.7413666610391743"><ele>732.0</ele><time>2026-04-21T14:59:41.999Z</time></trkpt><trkpt lat="37.13788267109209" lon="-2.7410934528219397"><ele>732.0</ele><time>2026-04-21T14:59:42.999Z</time></trkpt><trkpt lat="37.137813108575116" lon="-2.740814963426455"><ele>732.0</ele><time>2026-04-21T14:59:43.999Z</time></trkpt><trkpt lat="37.13774476753405" lon="-2.740529231044885"><ele>732.0</ele><time>2026-04-21T14:59:44.999Z</time></trkpt><trkpt lat="37.137686021045056" lon="-2.740242445054384"><ele>731.0</ele><time>2026-04-21T14:59:45.999Z</time></trkpt><trkpt lat="37.137637384017" lon="-2.7399476724593077"><ele>730.0</ele><time>2026-04-21T14:59:46.999Z</time></trkpt><trkpt lat="37.13759013398716" lon="-2.739646750415655"><ele>732.5</ele><time>2026-04-21T14:59:47.999Z</time></trkpt><trkpt lat="37.13753998415294" lon="-2.7393423735063975"><ele>735.0</ele><time>2026-04-21T14:59:48.999Z</time></trkpt><trkpt lat="37.137489973899974" lon="-2.739041347684384"><ele>735.0</ele><time>2026-04-21T14:59:49.999Z</time></trkpt><trkpt lat="37.13744160565886" lon="-2.7387338271954893"><ele>735.0</ele><time>2026-04-21T14:59:50.999Z</time></trkpt><trkpt lat="37.13739414635482" lon="-2.7384267031688956"><ele>733.5</ele><time>2026-04-21T14:59:51.999Z</time></trkpt><trkpt lat="37.13734015213652" lon="-2.7381228273104474"><ele>732.0</ele><time>2026-04-21T14:59:52.999Z</time></trkpt><trkpt lat="37.13963526990771" lon="-2.721384701053948"><ele>731.0</ele><time>2026-04-21T15:00:53.999Z</time></trkpt><trkpt lat="37.13974124353718" lon="-2.7211151452910487"><ele>730.0</ele><time>2026-04-21T15:00:54.999Z</time></trkpt><trkpt lat="37.139839603201914" lon="-2.7208411672019435"><ele>737.5</ele><time>2026-04-21T15:00:55.999Z</time></trkpt><trkpt lat="37.13993311883376" lon="-2.720568482950883"><ele>745.0</ele><time>2026-04-21T15:00:56.999Z</time></trkpt><trkpt lat="37.14002495055365" lon="-2.7202904763064875"><ele>751.5</ele><time>2026-04-21T15:00:57.999Z</time></trkpt><trkpt lat="37.140115495891955" lon="-2.720014465369678"><ele>758.0</ele><time>2026-04-21T15:00:59Z</time></trkpt><trkpt lat="37.14020700851337" lon="-2.7197390439031635"><ele>758.0</ele><time>2026-04-21T15:01:00Z</time></trkpt><trkpt lat="37.14029482651481" lon="-2.7194624537792644"><ele>758.0</ele><time>2026-04-21T15:01:01Z</time></trkpt><trkpt lat="37.14038235080454" lon="-2.7191890430614998"><ele>759.0</ele><time>2026-04-21T15:01:02Z</time></trkpt><trkpt lat="37.14046475826615" lon="-2.718908322791042"><ele>760.0</ele><time>2026-04-21T15:01:03Z</time></trkpt><trkpt lat="37.140539993719564" lon="-2.718625995651865"><ele>754.5</ele><time>2026-04-21T15:01:04Z</time></trkpt><trkpt lat="37.14061147163894" lon="-2.7183411373446593"><ele>749.0</ele><time>2026-04-21T15:01:05Z</time></trkpt><trkpt lat="37.140679765380284" lon="-2.7180527022402954"><ele>745.0</ele><time>2026-04-21T15:01:06Z</time></trkpt><trkpt lat="37.140751135786175" lon="-2.7177695291098884"><ele>741.0</ele><time>2026-04-21T15:01:07Z</time></trkpt><trkpt lat="37.140816506827775" lon="-2.7174833739806297"><ele>734.0</ele><time>2026-04-21T15:01:08Z</time></trkpt><trkpt lat="37.14087872141568" lon="-2.7171984081192107"><ele>727.0</ele><time>2026-04-21T15:01:09Z</time></trkpt><trkpt lat="37.140939316584436" lon="-2.7169187828407546"><ele>724.0</ele><time>2026-04-21T15:01:10Z</time></trkpt><trkpt lat="37.1409947464708" lon="-2.7166342370528995"><ele>721.0</ele><time>2026-04-21T15:01:11Z</time></trkpt><trkpt lat="37.14104232134962" lon="-2.7163440097522895"><ele>720.0</ele><time>2026-04-21T15:01:12Z</time></trkpt><trkpt lat="37.14109058498128" lon="-2.7160575938187925"><ele>719.0</ele><time>2026-04-21T15:01:13Z</time></trkpt><trkpt lat="37.14113558925142" lon="-2.715772744681095"><ele>719.0</ele><time>2026-04-21T15:01:14Z</time></trkpt><trkpt lat="37.14117674192656" lon="-2.715486643120935"><ele>719.0</ele><time>2026-04-21T15:01:15Z</time></trkpt><trkpt lat="37.141216434171554" lon="-2.715197146172436"><ele>718.0</ele><time>2026-04-21T15:01:16Z</time></trkpt><trkpt lat="37.14125628787027" lon="-2.7149142783752325"><ele>717.0</ele><time>2026-04-21T15:01:17Z</time></trkpt><trkpt lat="37.14129161533006" lon="-2.7146256421084543"><ele>716.5</ele><time>2026-04-21T15:01:18Z</time></trkpt><trkpt lat="37.14132448717794" lon="-2.7143416222233814"><ele>716.0</ele><time>2026-04-21T15:01:19Z</time></trkpt><trkpt lat="37.141355780264085" lon="-2.7140513657943997"><ele>716.0</ele><time>2026-04-21T15:01:20Z</time></trkpt><trkpt lat="37.14138139290919" lon="-2.7137682115020696"><ele>716.0</ele><time>2026-04-21T15:01:21Z</time></trkpt><trkpt lat="37.14140136500784" lon="-2.713484394585613"><ele>715.6666666666666</ele><time>2026-04-21T15:01:22Z</time></trkpt><trkpt lat="37.14141785652613" lon="-2.7132045618337797"><ele>715.3333333333334</ele><time>2026-04-21T15:01:23Z</time></trkpt><trkpt lat="37.14143368271124" lon="-2.7129224646497563"><ele>715.0</ele><time>2026-04-21T15:01:24Z</time></trkpt><trkpt lat="37.141446556927406" lon="-2.7126388971647692"><ele>715.0</ele><time>2026-04-21T15:01:25Z</time></trkpt><trkpt lat="37.14145646130979" lon="-2.7123609931798245"><ele>715.0</ele><time>2026-04-21T15:01:26Z</time></trkpt><trkpt lat="37.141462562142195" lon="-2.712085267541678"><ele>715.0</ele><time>2026-04-21T15:01:27Z</time></trkpt><trkpt lat="37.1414644932406" lon="-2.7118080074366104"><ele>715.0</ele><time>2026-04-21T15:01:28Z</time></trkpt><trkpt lat="37.14146668598231" lon="-2.7115318215501345"><ele>715.0</ele><time>2026-04-21T15:01:29Z</time></trkpt><trkpt lat="37.14146696629906" lon="-2.711259233245962"><ele>715.0</ele><time>2026-04-21T15:01:30Z</time></trkpt><trkpt lat="37.14146400941331" lon="-2.7109911808595624"><ele>714.0</ele><time>2026-04-21T15:01:31Z</time></trkpt><trkpt lat="37.14145922609084" lon="-2.7107177999504115"><ele>713.0</ele><time>2026-04-21T15:01:32Z</time></trkpt><trkpt lat="37.14145278771074" lon="-2.7104514950929217"><ele>712.0</ele><time>2026-04-21T15:01:33Z</time></trkpt><trkpt lat="37.14144386511931" lon="-2.7101949616920082"><ele>711.3333333333334</ele><time>2026-04-21T15:01:34Z</time></trkpt><trkpt lat="37.14142867491126" lon="-2.7099380665137534"><ele>710.6666666666666</ele><time>2026-04-21T15:01:35Z</time></trkpt><trkpt lat="37.1414087423572" lon="-2.709675518003807"><ele>710.0</ele><time>2026-04-21T15:01:36Z</time></trkpt><trkpt lat="37.141388263904155" lon="-2.7094151048557964"><ele>709.6666666666666</ele><time>2026-04-21T15:01:37Z</time></trkpt><trkpt lat="37.141369218651036" lon="-2.7091502744228353"><ele>709.3333333333334</ele><time>2026-04-21T15:01:38Z</time></trkpt><trkpt lat="37.14134705385039" lon="-2.7088848215002184"><ele>709.0</ele><time>2026-04-21T15:01:39Z</time></trkpt><trkpt lat="37.14131769970901" lon="-2.7086170112507926"><ele>709.0</ele><time>2026-04-21T15:01:40Z</time></trkpt><trkpt lat="37.14128676339426" lon="-2.70835022820003"><ele>709.0</ele><time>2026-04-21T15:01:41Z</time></trkpt><trkpt lat="37.141252543519606" lon="-2.7080803784655827"><ele>709.0</ele><time>2026-04-21T15:01:42Z</time></trkpt><trkpt lat="37.141218614900865" lon="-2.707816840561069"><ele>709.0</ele><time>2026-04-21T15:01:43Z</time></trkpt><trkpt lat="37.14118500777354" lon="-2.7075544525660367"><ele>709.0</ele><time>2026-04-21T15:01:44Z</time></trkpt><trkpt lat="37.14114765638015" lon="-2.707299113014106"><ele>709.0</ele><time>2026-04-21T15:01:45Z</time></trkpt><trkpt lat="37.141106711353416" lon="-2.7070494405599894"><ele>709.0</ele><time>2026-04-21T15:01:46Z</time></trkpt><trkpt lat="37.14106584794063" lon="-2.7067949044648087"><ele>709.0</ele><time>2026-04-21T15:01:47Z</time></trkpt><trkpt lat="37.14102316026451" lon="-2.706542419282154"><ele>709.0</ele><time>2026-04-21T15:01:48Z</time></trkpt><trkpt lat="37.14098058205889" lon="-2.7062924207979413"><ele>709.3333333333334</ele><time>2026-04-21T15:01:49Z</time></trkpt><trkpt lat="37.14093609954824" lon="-2.706037370845922"><ele>709.6666666666666</ele><time>2026-04-21T15:01:50Z</time></trkpt><trkpt lat="37.140889610075256" lon="-2.7057845905456395"><ele>710.0</ele><time>2026-04-21T15:01:51Z</time></trkpt><trkpt lat="37.14084298081339" lon="-2.70553382262461"><ele>710.0</ele><time>2026-04-21T15:01:52Z</time></trkpt><trkpt lat="37.1407934494164" lon="-2.705280462981537"><ele>710.0</ele><time>2026-04-21T15:01:53Z</time></trkpt><trkpt lat="37.13807059343744" lon="-2.686506163316609"><ele>721.6666666666666</ele><time>2026-04-21T15:02:54Z</time></trkpt><trkpt lat="37.138076729308615" lon="-2.686229811062754"><ele>733.3333333333334</ele><time>2026-04-21T15:02:55Z</time></trkpt><trkpt lat="37.13808559520872" lon="-2.6859487192887617"><ele>745.0</ele><time>2026-04-21T15:02:56Z</time></trkpt><trkpt lat="37.13809203291651" lon="-2.6856707594175675"><ele>745.0</ele><time>2026-04-21T15:02:57Z</time></trkpt><trkpt lat="37.13809977666387" lon="-2.685387902149945"><ele>745.0</ele><time>2026-04-21T15:02:58Z</time></trkpt><trkpt lat="37.13810760120471" lon="-2.685106744957777"><ele>743.5</ele><time>2026-04-21T15:02:59Z</time></trkpt><trkpt lat="37.13811671172841" lon="-2.6848229096818486"><ele>742.0</ele><time>2026-04-21T15:03:00Z</time></trkpt><trkpt lat="37.138123779257356" lon="-2.6845383943674044"><ele>740.5</ele><time>2026-04-21T15:03:01Z</time></trkpt><trkpt lat="37.13812753622992" lon="-2.684250370561079"><ele>739.0</ele><time>2026-04-21T15:03:02Z</time></trkpt><trkpt lat="37.13813024298776" lon="-2.683961812684839"><ele>739.0</ele><time>2026-04-21T15:03:03Z</time></trkpt><trkpt lat="37.138135390050074" lon="-2.6836639457974987"><ele>739.0</ele><time>2026-04-21T15:03:04Z</time></trkpt><trkpt lat="37.138147133393936" lon="-2.6833654127625377"><ele>736.5</ele><time>2026-04-21T15:03:05Z</time></trkpt><trkpt lat="37.13815875777665" lon="-2.6830644500683527"><ele>734.0</ele><time>2026-04-21T15:03:06Z</time></trkpt><trkpt lat="37.13816745030701" lon="-2.6827655264280685"><ele>732.5</ele><time>2026-04-21T15:03:07Z</time></trkpt><trkpt lat="37.138177749063146" lon="-2.682460972993471"><ele>731.0</ele><time>2026-04-21T15:03:08Z</time></trkpt><trkpt lat="37.138187566034226" lon="-2.682156207544201"><ele>731.5</ele><time>2026-04-21T15:03:09Z</time></trkpt><trkpt lat="37.138194868564185" lon="-2.681851209246007"><ele>732.0</ele><time>2026-04-21T15:03:10Z</time></trkpt><trkpt lat="37.138199412704346" lon="-2.6815434300860397"><ele>732.0</ele><time>2026-04-21T15:03:11Z</time></trkpt><trkpt lat="37.1382042556581" lon="-2.6812363681017173"><ele>732.0</ele><time>2026-04-21T15:03:12Z</time></trkpt><trkpt lat="37.13821028079039" lon="-2.6809259527179967"><ele>732.0</ele><time>2026-04-21T15:03:13Z</time></trkpt><trkpt lat="37.13821615291381" lon="-2.6806153284192407"><ele>732.0</ele><time>2026-04-21T15:03:14Z</time></trkpt><trkpt lat="37.138226219011756" lon="-2.6802988370224874"><ele>734.0</ele><time>2026-04-21T15:03:15Z</time></trkpt><trkpt lat="37.1382359754409" lon="-2.679986936931014"><ele>736.0</ele><time>2026-04-21T15:03:16Z</time></trkpt><trkpt lat="37.13824667788817" lon="-2.6796704968662945"><ele>736.5</ele><time>2026-04-21T15:03:17Z</time></trkpt><trkpt lat="37.13825586795519" lon="-2.679358025033592"><ele>737.0</ele><time>2026-04-21T15:03:18Z</time></trkpt><trkpt lat="37.13826390378671" lon="-2.6790401309430014"><ele>737.0</ele><time>2026-04-21T15:03:19Z</time></trkpt><trkpt lat="37.13827448236768" lon="-2.678723521737735"><ele>737.0</ele><time>2026-04-21T15:03:20Z</time></trkpt><trkpt lat="37.138285095954586" lon="-2.678408666468154"><ele>740.0</ele><time>2026-04-21T15:03:21Z</time></trkpt><trkpt lat="37.138296268864146" lon="-2.678091419773673"><ele>743.0</ele><time>2026-04-21T15:03:22Z</time></trkpt><trkpt lat="37.13830355458578" lon="-2.6777821811558655"><ele>743.5</ele><time>2026-04-21T15:03:23Z</time></trkpt><trkpt lat="37.13831304110121" lon="-2.6774647808285654"><ele>744.0</ele><time>2026-04-21T15:03:24Z</time></trkpt><trkpt lat="37.13831816438869" lon="-2.6771526761413416"><ele>742.0</ele><time>2026-04-21T15:03:25Z</time></trkpt><trkpt lat="37.13832439537649" lon="-2.6768322053054376"><ele>740.0</ele><time>2026-04-21T15:03:26Z</time></trkpt><trkpt lat="37.138334621492504" lon="-2.676505923780091"><ele>740.0</ele><time>2026-04-21T15:03:27Z</time></trkpt><trkpt lat="37.138344964616756" lon="-2.6761729230288833"><ele>740.0</ele><time>2026-04-21T15:03:28Z</time></trkpt><trkpt lat="37.13835389291853" lon="-2.6758380392087293"><ele>740.5</ele><time>2026-04-21T15:03:29Z</time></trkpt><trkpt lat="37.13836146885694" lon="-2.6755044957268797"><ele>741.0</ele><time>2026-04-21T15:03:30Z</time></trkpt><trkpt lat="37.13836869999039" lon="-2.6751660601673497"><ele>741.5</ele><time>2026-04-21T15:03:31Z</time></trkpt><trkpt lat="37.138373553481244" lon="-2.674825142525214"><ele>742.0</ele><time>2026-04-21T15:03:32Z</time></trkpt><trkpt lat="37.138381879123365" lon="-2.6744816810915246"><ele>742.5</ele><time>2026-04-21T15:03:33Z</time></trkpt><trkpt lat="37.138395142477016" lon="-2.6741368391919633"><ele>743.0</ele><time>2026-04-21T15:03:34Z</time></trkpt><trkpt lat="37.138409557756454" lon="-2.673792309028439"><ele>743.5</ele><time>2026-04-21T15:03:35Z</time></trkpt><trkpt lat="37.138423498879824" lon="-2.6734468607214814"><ele>744.0</ele><time>2026-04-21T15:03:36Z</time></trkpt><trkpt lat="37.138432364867" lon="-2.6731044519363087"><ele>744.0</ele><time>2026-04-21T15:03:37Z</time></trkpt><trkpt lat="37.13843818248572" lon="-2.672762577822757"><ele>744.0</ele><time>2026-04-21T15:03:38Z</time></trkpt><trkpt lat="37.13844287004219" lon="-2.672422861430828"><ele>744.0</ele><time>2026-04-21T15:03:39Z</time></trkpt><trkpt lat="37.138449552705936" lon="-2.672085817892998"><ele>744.0</ele><time>2026-04-21T15:03:40Z</time></trkpt><trkpt lat="37.13845701780658" lon="-2.6717475588902984"><ele>744.0</ele><time>2026-04-21T15:03:41Z</time></trkpt><trkpt lat="37.138467220135475" lon="-2.6714071545778286"><ele>744.0</ele><time>2026-04-21T15:03:42Z</time></trkpt><trkpt lat="37.13847551783258" lon="-2.671067649670437"><ele>744.0</ele><time>2026-04-21T15:03:43Z</time></trkpt><trkpt lat="37.1384855262853" lon="-2.6707318376324296"><ele>744.0</ele><time>2026-04-21T15:03:44Z</time></trkpt><trkpt lat="37.13849788095643" lon="-2.6703955441777416"><ele>745.0</ele><time>2026-04-21T15:03:45Z</time></trkpt><trkpt lat="37.13850642714208" lon="-2.6700678643801834"><ele>746.0</ele><time>2026-04-21T15:03:46Z</time></trkpt><trkpt lat="37.13851725214776" lon="-2.6697385643545033"><ele>745.5</ele><time>2026-04-21T15:03:47Z</time></trkpt><trkpt lat="37.13852300571388" lon="-2.6694085062263704"><ele>745.0</ele><time>2026-04-21T15:03:48Z</time></trkpt><trkpt lat="37.13852787426975" lon="-2.669080110999229"><ele>745.0</ele><time>2026-04-21T15:03:49Z</time></trkpt><trkpt lat="37.13853355293076" lon="-2.6687501357516963"><ele>745.0</ele><time>2026-04-21T15:03:50Z</time></trkpt><trkpt lat="37.13853641954934" lon="-2.668422559622963"><ele>745.5</ele><time>2026-04-21T15:03:51Z</time></trkpt><trkpt lat="37.13853941002457" lon="-2.6680950779600474"><ele>746.0</ele><time>2026-04-21T15:03:52Z</time></trkpt><trkpt lat="37.13853514226352" lon="-2.667767828189582"><ele>788.0</ele><time>2026-04-21T15:03:53Z</time></trkpt><trkpt lat="37.13647901767394" lon="-2.6504773413536658"><ele>793.5</ele><time>2026-04-21T15:04:54Z</time></trkpt><trkpt lat="37.136524832718834" lon="-2.650174023828292"><ele>799.0</ele><time>2026-04-21T15:04:55Z</time></trkpt><trkpt lat="37.13656231579859" lon="-2.649868095530379"><ele>786.5</ele><time>2026-04-21T15:04:56Z</time></trkpt><trkpt lat="37.1365945211799" lon="-2.649560612840158"><ele>774.0</ele><time>2026-04-21T15:04:57Z</time></trkpt><trkpt lat="37.136618243495526" lon="-2.6492495236268305"><ele>773.0</ele><time>2026-04-21T15:04:58Z</time></trkpt><trkpt lat="37.136630589503994" lon="-2.6489366469114954"><ele>772.0</ele><time>2026-04-21T15:04:59Z</time></trkpt><trkpt lat="37.13662839930754" lon="-2.6486241121082"><ele>770.0</ele><time>2026-04-21T15:05:00Z</time></trkpt><trkpt lat="37.13661410945486" lon="-2.648310208929279"><ele>768.0</ele><time>2026-04-21T15:05:01Z</time></trkpt><trkpt lat="37.136593052923466" lon="-2.647999017013809"><ele>768.0</ele><time>2026-04-21T15:05:02Z</time></trkpt><trkpt lat="37.136564983839484" lon="-2.647684876278144"><ele>768.0</ele><time>2026-04-21T15:05:03Z</time></trkpt><trkpt lat="37.136529690383405" lon="-2.647372548956196"><ele>768.0</ele><time>2026-04-21T15:05:04Z</time></trkpt><trkpt lat="37.13647982505135" lon="-2.64706060775919"><ele>768.0</ele><time>2026-04-21T15:05:05Z</time></trkpt><trkpt lat="37.13641411218174" lon="-2.646758185908875"><ele>763.0</ele><time>2026-04-21T15:05:06Z</time></trkpt><trkpt lat="37.13633692461266" lon="-2.646452108658835"><ele>758.0</ele><time>2026-04-21T15:05:07Z</time></trkpt><trkpt lat="37.136257772412876" lon="-2.646148870151578"><ele>758.0</ele><time>2026-04-21T15:05:08Z</time></trkpt><trkpt lat="37.13616968109778" lon="-2.6458459167185957"><ele>758.0</ele><time>2026-04-21T15:05:09Z</time></trkpt><trkpt lat="37.136070824799" lon="-2.645551698150419"><ele>759.5</ele><time>2026-04-21T15:05:10Z</time></trkpt><trkpt lat="37.13596163210871" lon="-2.6452656004592696"><ele>761.0</ele><time>2026-04-21T15:05:11Z</time></trkpt><trkpt lat="37.13584728020894" lon="-2.644979422035428"><ele>761.0</ele><time>2026-04-21T15:05:12Z</time></trkpt><trkpt lat="37.135721223981584" lon="-2.644707799546419"><ele>761.0</ele><time>2026-04-21T15:05:13Z</time></trkpt><trkpt lat="37.13558642775299" lon="-2.644439564975272"><ele>758.0</ele><time>2026-04-21T15:05:14Z</time></trkpt><trkpt lat="37.135441521210026" lon="-2.644185416330538"><ele>755.0</ele><time>2026-04-21T15:05:15Z</time></trkpt><trkpt lat="37.13528847175241" lon="-2.6439375070992677"><ele>755.0</ele><time>2026-04-21T15:05:16Z</time></trkpt><trkpt lat="37.13512958982865" lon="-2.643709507516072"><ele>755.0</ele><time>2026-04-21T15:05:17Z</time></trkpt><trkpt lat="37.1349688592625" lon="-2.643487093020887"><ele>754.0</ele><time>2026-04-21T15:05:18Z</time></trkpt><trkpt lat="37.134805193268264" lon="-2.643272545126053"><ele>753.0</ele><time>2026-04-21T15:05:19Z</time></trkpt><trkpt lat="37.1346386409291" lon="-2.643069393051019"><ele>753.0</ele><time>2026-04-21T15:05:20Z</time></trkpt><trkpt lat="37.13446707021917" lon="-2.642880246068128"><ele>753.0</ele><time>2026-04-21T15:05:21Z</time></trkpt><trkpt lat="37.13428325805098" lon="-2.6426973160399"><ele>753.5</ele><time>2026-04-21T15:05:22Z</time></trkpt><trkpt lat="37.13409305174424" lon="-2.642519293766512"><ele>754.0</ele><time>2026-04-21T15:05:23Z</time></trkpt><trkpt lat="37.133896090022205" lon="-2.642343824312771"><ele>751.5</ele><time>2026-04-21T15:05:24Z</time></trkpt><trkpt lat="37.133693046942156" lon="-2.6421763255611967"><ele>749.0</ele><time>2026-04-21T15:05:25Z</time></trkpt><trkpt lat="37.13348146079557" lon="-2.642017471289338"><ele>749.5</ele><time>2026-04-21T15:05:26Z</time></trkpt><trkpt lat="37.133269376980834" lon="-2.6418656295632323"><ele>750.0</ele><time>2026-04-21T15:05:27Z</time></trkpt><trkpt lat="37.13305639148729" lon="-2.641713408290152"><ele>747.5</ele><time>2026-04-21T15:05:28Z</time></trkpt><trkpt lat="37.13284044792108" lon="-2.6415581450913637"><ele>745.0</ele><time>2026-04-21T15:05:29Z</time></trkpt><trkpt lat="37.13262256209719" lon="-2.6414017723056498"><ele>745.0</ele><time>2026-04-21T15:05:30Z</time></trkpt><trkpt lat="37.13240457208543" lon="-2.641247952295942"><ele>745.0</ele><time>2026-04-21T15:05:31Z</time></trkpt><trkpt lat="37.13218284490614" lon="-2.641091649136807"><ele>743.5</ele><time>2026-04-21T15:05:32Z</time></trkpt><trkpt lat="37.13196374538668" lon="-2.640932068848074"><ele>742.0</ele><time>2026-04-21T15:05:33Z</time></trkpt><trkpt lat="37.13174446637869" lon="-2.640773679263464"><ele>739.5</ele><time>2026-04-21T15:05:34Z</time></trkpt><trkpt lat="37.13152435047071" lon="-2.6406185962656568"><ele>737.0</ele><time>2026-04-21T15:05:35.001Z</time></trkpt><trkpt lat="37.13130456443281" lon="-2.6404656824171253"><ele>737.0</ele><time>2026-04-21T15:05:36.001Z</time></trkpt><trkpt lat="37.13109235958626" lon="-2.640310909592036"><ele>737.0</ele><time>2026-04-21T15:05:37.001Z</time></trkpt><trkpt lat="37.13088956614238" lon="-2.640157986053668"><ele>735.5</ele><time>2026-04-21T15:05:38.001Z</time></trkpt><trkpt lat="37.130691246950676" lon="-2.64000995891729"><ele>734.0</ele><time>2026-04-21T15:05:39.001Z</time></trkpt><trkpt lat="37.13049989517034" lon="-2.639870951497407"><ele>734.0</ele><time>2026-04-21T15:05:40.001Z</time></trkpt><trkpt lat="37.13030793246356" lon="-2.639726499169541"><ele>734.0</ele><time>2026-04-21T15:05:41.001Z</time></trkpt><trkpt lat="37.1301261592306" lon="-2.6395831882432654"><ele>734.0</ele><time>2026-04-21T15:05:42.001Z</time></trkpt><trkpt lat="37.129952462116776" lon="-2.639436935227078"><ele>735.0</ele><time>2026-04-21T15:05:43.001Z</time></trkpt><trkpt lat="37.129778922140694" lon="-2.6392873917929833"><ele>736.0</ele><time>2026-04-21T15:05:44.001Z</time></trkpt><trkpt lat="37.12960378487519" lon="-2.639134282775622"><ele>737.0</ele><time>2026-04-21T15:05:45.001Z</time></trkpt><trkpt lat="37.129427038846195" lon="-2.6389768145870893"><ele>737.0</ele><time>2026-04-21T15:05:46.001Z</time></trkpt><trkpt lat="37.1292569546732" lon="-2.638821630337065"><ele>737.0</ele><time>2026-04-21T15:05:47.001Z</time></trkpt><trkpt lat="37.12908968747688" lon="-2.638660472098419"><ele>737.0</ele><time>2026-04-21T15:05:48.001Z</time></trkpt><trkpt lat="37.1289234159911" lon="-2.6384973614532905"><ele>737.3333333333333</ele><time>2026-04-21T15:05:49.001Z</time></trkpt><trkpt lat="37.12876238309131" lon="-2.6383366748473187"><ele>737.6666666666666</ele><time>2026-04-21T15:05:50.001Z</time></trkpt><trkpt lat="37.12860448583543" lon="-2.6381743315152812"><ele>738.0</ele><time>2026-04-21T15:05:51.001Z</time></trkpt><trkpt lat="37.12844912285129" lon="-2.6380085838429546"><ele>738.0</ele><time>2026-04-21T15:05:52.001Z</time></trkpt><trkpt lat="37.12829078094595" lon="-2.6378350186666113"><ele>738.0</ele><time>2026-04-21T15:05:53.001Z</time></trkpt><trkpt lat="37.12062868744634" lon="-2.623057101271285"><ele>739.0</ele><time>2026-04-21T15:06:54Z</time></trkpt><trkpt lat="37.120548396279816" lon="-2.622769788907771"><ele>740.0</ele><time>2026-04-21T15:06:55Z</time></trkpt><trkpt lat="37.12047330750548" lon="-2.6224782640606286"><ele>740.0</ele><time>2026-04-21T15:06:56Z</time></trkpt><trkpt lat="37.12040678270322" lon="-2.6221849996182316"><ele>740.0</ele><time>2026-04-21T15:06:57Z</time></trkpt><trkpt lat="37.120345772015575" lon="-2.6218844986111565"><ele>735.0</ele><time>2026-04-21T15:06:58Z</time></trkpt><trkpt lat="37.120287583462954" lon="-2.6215819674558194"><ele>730.0</ele><time>2026-04-21T15:06:59Z</time></trkpt><trkpt lat="37.12023552509518" lon="-2.6212792188599003"><ele>728.0</ele><time>2026-04-21T15:07:00Z</time></trkpt><trkpt lat="37.12018808284981" lon="-2.6209664935903345"><ele>726.0</ele><time>2026-04-21T15:07:01Z</time></trkpt><trkpt lat="37.12014677641357" lon="-2.62065131573171"><ele>726.0</ele><time>2026-04-21T15:07:02Z</time></trkpt><trkpt lat="37.120113076328025" lon="-2.6203343694785777"><ele>726.0</ele><time>2026-04-21T15:07:03Z</time></trkpt><trkpt lat="37.12008379333176" lon="-2.6200147626283274"><ele>734.0</ele><time>2026-04-21T15:07:04Z</time></trkpt><trkpt lat="37.120058435216464" lon="-2.6196948840747494"><ele>742.0</ele><time>2026-04-21T15:07:05Z</time></trkpt><trkpt lat="37.1200366675104" lon="-2.61937659792722"><ele>746.5</ele><time>2026-04-21T15:07:06Z</time></trkpt><trkpt lat="37.120021871000475" lon="-2.6190547632805896"><ele>751.0</ele><time>2026-04-21T15:07:07Z</time></trkpt><trkpt lat="37.12001441107302" lon="-2.6187389665505383"><ele>751.5</ele><time>2026-04-21T15:07:08Z</time></trkpt><trkpt lat="37.1200121931092" lon="-2.6184333802561457"><ele>752.0</ele><time>2026-04-21T15:07:09Z</time></trkpt><trkpt lat="37.12001099231139" lon="-2.618133720337521"><ele>752.0</ele><time>2026-04-21T15:07:10Z</time></trkpt><trkpt lat="37.12001313303505" lon="-2.6178279001406803"><ele>752.0</ele><time>2026-04-21T15:07:11Z</time></trkpt><trkpt lat="37.12001453231649" lon="-2.6175266835225424"><ele>752.0</ele><time>2026-04-21T15:07:12Z</time></trkpt><trkpt lat="37.12001140505153" lon="-2.617232230995418"><ele>752.0</ele><time>2026-04-21T15:07:13Z</time></trkpt><trkpt lat="37.12000797139769" lon="-2.6169379444762746"><ele>751.5</ele><time>2026-04-21T15:07:14Z</time></trkpt><trkpt lat="37.12000498722027" lon="-2.6166460919929637"><ele>751.0</ele><time>2026-04-21T15:07:15Z</time></trkpt><trkpt lat="37.12000345405366" lon="-2.616363003220505"><ele>752.0</ele><time>2026-04-21T15:07:16Z</time></trkpt><trkpt lat="37.120000378234465" lon="-2.616072746956497"><ele>753.0</ele><time>2026-04-21T15:07:17Z</time></trkpt><trkpt lat="37.11999893621756" lon="-2.61578644922506"><ele>753.0</ele><time>2026-04-21T15:07:18Z</time></trkpt><trkpt lat="37.11999585527135" lon="-2.615500001756882"><ele>753.0</ele><time>2026-04-21T15:07:19Z</time></trkpt><trkpt lat="37.119993904681856" lon="-2.6152082579611906"><ele>752.5</ele><time>2026-04-21T15:07:20Z</time></trkpt><trkpt lat="37.1199942500628" lon="-2.614917389116128"><ele>752.0</ele><time>2026-04-21T15:07:21Z</time></trkpt><trkpt lat="37.119996281513316" lon="-2.6146251293658724"><ele>752.0</ele><time>2026-04-21T15:07:22Z</time></trkpt><trkpt lat="37.11999670538964" lon="-2.6143295492500007"><ele>752.0</ele><time>2026-04-21T15:07:23Z</time></trkpt><trkpt lat="37.11999666182748" lon="-2.6140264515224487"><ele>752.0</ele><time>2026-04-21T15:07:24Z</time></trkpt><trkpt lat="37.119996252385235" lon="-2.613724275202399"><ele>752.0</ele><time>2026-04-21T15:07:25Z</time></trkpt><trkpt lat="37.119993476129075" lon="-2.6134162436572694"><ele>752.0</ele><time>2026-04-21T15:07:26Z</time></trkpt><trkpt lat="37.119993903472384" lon="-2.6131100760360937"><ele>752.0</ele><time>2026-04-21T15:07:27Z</time></trkpt><trkpt lat="37.11999329921758" lon="-2.6127983071198133"><ele>752.0</ele><time>2026-04-21T15:07:28Z</time></trkpt><trkpt lat="37.11998961199113" lon="-2.612490273257268"><ele>752.0</ele><time>2026-04-21T15:07:29Z</time></trkpt><trkpt lat="37.119982006652876" lon="-2.612182674930299"><ele>751.5</ele><time>2026-04-21T15:07:30Z</time></trkpt><trkpt lat="37.11997037262489" lon="-2.6118797327148804"><ele>751.0</ele><time>2026-04-21T15:07:31Z</time></trkpt><trkpt lat="37.11995461660639" lon="-2.611575394296677"><ele>751.0</ele><time>2026-04-21T15:07:32Z</time></trkpt><trkpt lat="37.11993695087546" lon="-2.6112762511365855"><ele>751.0</ele><time>2026-04-21T15:07:33Z</time></trkpt><trkpt lat="37.11991598605154" lon="-2.6109719572229886"><ele>750.0</ele><time>2026-04-21T15:07:34Z</time></trkpt><trkpt lat="37.119890429645224" lon="-2.610670220736472"><ele>749.0</ele><time>2026-04-21T15:07:35Z</time></trkpt><trkpt lat="37.11986039977621" lon="-2.610366424479904"><ele>750.0</ele><time>2026-04-21T15:07:36Z</time></trkpt><trkpt lat="37.119826197680986" lon="-2.610065932894601"><ele>751.0</ele><time>2026-04-21T15:07:37Z</time></trkpt><trkpt lat="37.1197846962193" lon="-2.609763616630523"><ele>752.0</ele><time>2026-04-21T15:07:38Z</time></trkpt><trkpt lat="37.11973958422963" lon="-2.60946210511216"><ele>753.0</ele><time>2026-04-21T15:07:39Z</time></trkpt><trkpt lat="37.11969439117554" lon="-2.6091765043022126"><ele>753.0</ele><time>2026-04-21T15:07:40.001Z</time></trkpt><trkpt lat="37.11964118873071" lon="-2.6088853303276913"><ele>753.0</ele><time>2026-04-21T15:07:41.001Z</time></trkpt><trkpt lat="37.11958810079027" lon="-2.608603433308899"><ele>753.5</ele><time>2026-04-21T15:07:42.001Z</time></trkpt><trkpt lat="37.11952860483757" lon="-2.6083257703504006"><ele>754.0</ele><time>2026-04-21T15:07:43.001Z</time></trkpt><trkpt lat="37.11946631151167" lon="-2.608046174667336"><ele>753.5</ele><time>2026-04-21T15:07:44.001Z</time></trkpt><trkpt lat="37.11940228342919" lon="-2.607768657545313"><ele>753.0</ele><time>2026-04-21T15:07:45.001Z</time></trkpt><trkpt lat="37.1193349447171" lon="-2.6074916325838986"><ele>753.0</ele><time>2026-04-21T15:07:46.001Z</time></trkpt><trkpt lat="37.11926678298548" lon="-2.607219582219346"><ele>753.0</ele><time>2026-04-21T15:07:47.001Z</time></trkpt><trkpt lat="37.1192036462512" lon="-2.606952722966696"><ele>753.0</ele><time>2026-04-21T15:07:48.001Z</time></trkpt><trkpt lat="37.119139318973055" lon="-2.6066879534738243"><ele>752.3333333333334</ele><time>2026-04-21T15:07:49.001Z</time></trkpt><trkpt lat="37.11907101691894" lon="-2.606423375255354"><ele>751.6666666666667</ele><time>2026-04-21T15:07:50.001Z</time></trkpt><trkpt lat="37.11900374429812" lon="-2.6061564553372727"><ele>751.0</ele><time>2026-04-21T15:07:51.001Z</time></trkpt><trkpt lat="37.1189359800758" lon="-2.60588484193327"><ele>752.5</ele><time>2026-04-21T15:07:52.001Z</time></trkpt><trkpt lat="37.11886905080568" lon="-2.605609744939254"><ele>754.0</ele><time>2026-04-21T15:07:53.001Z</time></trkpt><trkpt lat="37.11782177640672" lon="-2.5882476921058646"><ele>754.0</ele><time>2026-04-21T15:08:54Z</time></trkpt><trkpt lat="37.11791969190183" lon="-2.587967579482489"><ele>754.0</ele><time>2026-04-21T15:08:55Z</time></trkpt><trkpt lat="37.118025856342996" lon="-2.5876858641175247"><ele>754.0</ele><time>2026-04-21T15:08:56Z</time></trkpt><trkpt lat="37.11813889895484" lon="-2.5874028817664736"><ele>754.0</ele><time>2026-04-21T15:08:57Z</time></trkpt><trkpt lat="37.1182613526432" lon="-2.587120027911221"><ele>755.5</ele><time>2026-04-21T15:08:58Z</time></trkpt><trkpt lat="37.11839297114932" lon="-2.5868394091259233"><ele>757.0</ele><time>2026-04-21T15:08:59Z</time></trkpt><trkpt lat="37.11852428716917" lon="-2.5865525573046058"><ele>757.0</ele><time>2026-04-21T15:09:00Z</time></trkpt><trkpt lat="37.118654773572985" lon="-2.586254869912315"><ele>757.0</ele><time>2026-04-21T15:09:01Z</time></trkpt><trkpt lat="37.11877541843234" lon="-2.585954325305536"><ele>756.5</ele><time>2026-04-21T15:09:02Z</time></trkpt><trkpt lat="37.11888912665323" lon="-2.585642757596291"><ele>756.0</ele><time>2026-04-21T15:09:03Z</time></trkpt><trkpt lat="37.11899580479947" lon="-2.585326210192104"><ele>758.5</ele><time>2026-04-21T15:09:04Z</time></trkpt><trkpt lat="37.119093487559695" lon="-2.585002517410573"><ele>761.0</ele><time>2026-04-21T15:09:05Z</time></trkpt><trkpt lat="37.1191820771298" lon="-2.5846714680214706"><ele>761.5</ele><time>2026-04-21T15:09:06Z</time></trkpt><trkpt lat="37.119262831124246" lon="-2.584334430042168"><ele>762.0</ele><time>2026-04-21T15:09:07Z</time></trkpt><trkpt lat="37.11933676549138" lon="-2.5839968595759712"><ele>764.5</ele><time>2026-04-21T15:09:08Z</time></trkpt><trkpt lat="37.1193969602225" lon="-2.5836510093242273"><ele>767.0</ele><time>2026-04-21T15:09:09Z</time></trkpt><trkpt lat="37.11944756868179" lon="-2.583302434570537"><ele>767.0</ele><time>2026-04-21T15:09:10Z</time></trkpt><trkpt lat="37.1194869126135" lon="-2.582947697041184"><ele>767.0</ele><time>2026-04-21T15:09:11Z</time></trkpt><trkpt lat="37.119512594684" lon="-2.582591362631273"><ele>767.0</ele><time>2026-04-21T15:09:12Z</time></trkpt><trkpt lat="37.11952858008006" lon="-2.582231343490202"><ele>767.0</ele><time>2026-04-21T15:09:13Z</time></trkpt><trkpt lat="37.1195359370467" lon="-2.581873718967502"><ele>767.5</ele><time>2026-04-21T15:09:14Z</time></trkpt><trkpt lat="37.11953169463127" lon="-2.581513789043088"><ele>768.0</ele><time>2026-04-21T15:09:15Z</time></trkpt><trkpt lat="37.119516989655395" lon="-2.581155156311993"><ele>768.0</ele><time>2026-04-21T15:09:16Z</time></trkpt><trkpt lat="37.1194814158195" lon="-2.5807975393873432"><ele>768.0</ele><time>2026-04-21T15:09:17Z</time></trkpt><trkpt lat="37.119429866475144" lon="-2.5804402812386886"><ele>768.0</ele><time>2026-04-21T15:09:18Z</time></trkpt><trkpt lat="37.11937103331848" lon="-2.5800841193725574"><ele>768.0</ele><time>2026-04-21T15:09:19Z</time></trkpt><trkpt lat="37.119307986162404" lon="-2.579730268375084"><ele>767.0</ele><time>2026-04-21T15:09:20Z</time></trkpt><trkpt lat="37.1192319004951" lon="-2.5793835172277153"><ele>766.0</ele><time>2026-04-21T15:09:21Z</time></trkpt><trkpt lat="37.11914562392245" lon="-2.579037214496602"><ele>766.0</ele><time>2026-04-21T15:09:22Z</time></trkpt><trkpt lat="37.119052364254514" lon="-2.578691107504812"><ele>766.0</ele><time>2026-04-21T15:09:23Z</time></trkpt><trkpt lat="37.118961966562786" lon="-2.5783469359435274"><ele>766.0</ele><time>2026-04-21T15:09:24Z</time></trkpt><trkpt lat="37.11887335084801" lon="-2.5780116753455404"><ele>766.0</ele><time>2026-04-21T15:09:25Z</time></trkpt><trkpt lat="37.11878180943812" lon="-2.5776791369274625"><ele>765.0</ele><time>2026-04-21T15:09:26Z</time></trkpt><trkpt lat="37.11869114212883" lon="-2.577348118505546"><ele>764.0</ele><time>2026-04-21T15:09:27Z</time></trkpt><trkpt lat="37.118603263208136" lon="-2.5770213183676223"><ele>764.0</ele><time>2026-04-21T15:09:28Z</time></trkpt><trkpt lat="37.11851573415602" lon="-2.5766930665972034"><ele>764.0</ele><time>2026-04-21T15:09:29Z</time></trkpt><trkpt lat="37.11842655320648" lon="-2.576367578430376"><ele>764.0</ele><time>2026-04-21T15:09:30Z</time></trkpt><trkpt lat="37.11833805678138" lon="-2.5760433318405727"><ele>764.0</ele><time>2026-04-21T15:09:31Z</time></trkpt><trkpt lat="37.11825115474221" lon="-2.5757168344280847"><ele>762.5</ele><time>2026-04-21T15:09:32Z</time></trkpt><trkpt lat="37.118165963768774" lon="-2.5753889955315303"><ele>761.0</ele><time>2026-04-21T15:09:33Z</time></trkpt><trkpt lat="37.118085866699225" lon="-2.5750586649338914"><ele>761.0</ele><time>2026-04-21T15:09:34Z</time></trkpt><trkpt lat="37.118009953154726" lon="-2.5747303361261977"><ele>761.0</ele><time>2026-04-21T15:09:35Z</time></trkpt><trkpt lat="37.11793794691166" lon="-2.574399552199171"><ele>760.5</ele><time>2026-04-21T15:09:36Z</time></trkpt><trkpt lat="37.11786575205189" lon="-2.574072287105676"><ele>760.0</ele><time>2026-04-21T15:09:37Z</time></trkpt><trkpt lat="37.11779855952933" lon="-2.5737398739434325"><ele>760.0</ele><time>2026-04-21T15:09:38Z</time></trkpt><trkpt lat="37.11774351907759" lon="-2.5734052778817413"><ele>760.0</ele><time>2026-04-21T15:09:39Z</time></trkpt><trkpt lat="37.11769214537173" lon="-2.573067478102403"><ele>759.5</ele><time>2026-04-21T15:09:40Z</time></trkpt><trkpt lat="37.11764507841452" lon="-2.572730562940608"><ele>759.0</ele><time>2026-04-21T15:09:41Z</time></trkpt><trkpt lat="37.11760130581701" lon="-2.5723886564401237"><ele>759.0</ele><time>2026-04-21T15:09:42Z</time></trkpt><trkpt lat="37.11756112020402" lon="-2.5720445944584918"><ele>759.0</ele><time>2026-04-21T15:09:43Z</time></trkpt><trkpt lat="37.11752500818968" lon="-2.5717015037298454"><ele>759.5</ele><time>2026-04-21T15:09:44Z</time></trkpt><trkpt lat="37.11749938717195" lon="-2.571355296621187"><ele>760.0</ele><time>2026-04-21T15:09:45Z</time></trkpt><trkpt lat="37.11748874305659" lon="-2.57100911604277"><ele>760.0</ele><time>2026-04-21T15:09:46Z</time></trkpt><trkpt lat="37.11748559988703" lon="-2.5706644306652393"><ele>760.0</ele><time>2026-04-21T15:09:47Z</time></trkpt><trkpt lat="37.11748335994575" lon="-2.570322473924178"><ele>758.5</ele><time>2026-04-21T15:09:48Z</time></trkpt><trkpt lat="37.11747961697182" lon="-2.5699806583392677"><ele>757.0</ele><time>2026-04-21T15:09:49Z</time></trkpt><trkpt lat="37.11747342970407" lon="-2.5696385472339798"><ele>756.5</ele><time>2026-04-21T15:09:50Z</time></trkpt><trkpt lat="37.1174637447143" lon="-2.569297740383386"><ele>756.0</ele><time>2026-04-21T15:09:51Z</time></trkpt><trkpt lat="37.117459861311914" lon="-2.5689768748121575"><ele>755.5</ele><time>2026-04-21T15:09:52Z</time></trkpt><trkpt lat="37.117454768174376" lon="-2.5686765466628545"><ele>755.0</ele><time>2026-04-21T15:09:53Z</time></trkpt><trkpt lat="37.11619477228324" lon="-2.549918022496777"><ele>739.5</ele><time>2026-04-21T15:10:54Z</time></trkpt><trkpt lat="37.11611485680284" lon="-2.5496260651435776"><ele>724.0</ele><time>2026-04-21T15:10:55Z</time></trkpt><trkpt lat="37.11603034962304" lon="-2.549332526563908"><ele>723.0</ele><time>2026-04-21T15:10:56Z</time></trkpt><trkpt lat="37.115843266022786" lon="-2.5490580168298647"><ele>722.0</ele><time>2026-04-21T15:10:57Z</time></trkpt><trkpt lat="37.11580613261409" lon="-2.548768858468919"><ele>721.5</ele><time>2026-04-21T15:10:58Z</time></trkpt><trkpt lat="37.11576936629885" lon="-2.5484825585997513"><ele>721.0</ele><time>2026-04-21T15:10:59Z</time></trkpt><trkpt lat="37.1157319912972" lon="-2.548191518864912"><ele>718.0</ele><time>2026-04-21T15:11:00Z</time></trkpt><trkpt lat="37.115698243212115" lon="-2.5479058835432"><ele>715.0</ele><time>2026-04-21T15:11:01Z</time></trkpt><trkpt lat="37.115729426019875" lon="-2.547611001715812"><ele>715.0</ele><time>2026-04-21T15:11:02Z</time></trkpt><trkpt lat="37.115708361812004" lon="-2.547320789965092"><ele>715.0</ele><time>2026-04-21T15:11:03Z</time></trkpt><trkpt lat="37.11569861673429" lon="-2.5470260655854586"><ele>717.0</ele><time>2026-04-21T15:11:04Z</time></trkpt><trkpt lat="37.115691709671" lon="-2.5467164701431892"><ele>719.0</ele><time>2026-04-21T15:11:05Z</time></trkpt><trkpt lat="37.115693426442995" lon="-2.5464001318864264"><ele>720.5</ele><time>2026-04-21T15:11:06Z</time></trkpt><trkpt lat="37.115700772829626" lon="-2.5460791627256074"><ele>722.0</ele><time>2026-04-21T15:11:07Z</time></trkpt><trkpt lat="37.11571576292475" lon="-2.545756016952841"><ele>724.5</ele><time>2026-04-21T15:11:08Z</time></trkpt><trkpt lat="37.11574178009543" lon="-2.5454301371770196"><ele>727.0</ele><time>2026-04-21T15:11:09Z</time></trkpt><trkpt lat="37.115774430252365" lon="-2.5451024554180273"><ele>727.0</ele><time>2026-04-21T15:11:10Z</time></trkpt><trkpt lat="37.115821241150805" lon="-2.5447805596532453"><ele>727.0</ele><time>2026-04-21T15:11:11Z</time></trkpt><trkpt lat="37.115878092147746" lon="-2.5444574736718226"><ele>725.5</ele><time>2026-04-21T15:11:12Z</time></trkpt><trkpt lat="37.115942024714094" lon="-2.544135343624559"><ele>724.0</ele><time>2026-04-21T15:11:13Z</time></trkpt><trkpt lat="37.1160064496203" lon="-2.543807010608107"><ele>722.0</ele><time>2026-04-21T15:11:14Z</time></trkpt><trkpt lat="37.11607153202226" lon="-2.543477632237179"><ele>720.0</ele><time>2026-04-21T15:11:15Z</time></trkpt><trkpt lat="37.116135960806446" lon="-2.54314333427499"><ele>720.0</ele><time>2026-04-21T15:11:16Z</time></trkpt><trkpt lat="37.1161969903937" lon="-2.5428084669961457"><ele>720.0</ele><time>2026-04-21T15:11:17Z</time></trkpt><trkpt lat="37.11625107252131" lon="-2.5424725517021987"><ele>720.0</ele><time>2026-04-21T15:11:18Z</time></trkpt><trkpt lat="37.11629383902266" lon="-2.542131544092928"><ele>720.0</ele><time>2026-04-21T15:11:19Z</time></trkpt><trkpt lat="37.11631945047829" lon="-2.5417945016034698"><ele>719.5</ele><time>2026-04-21T15:11:20Z</time></trkpt><trkpt lat="37.11633246211069" lon="-2.5414499279724443"><ele>719.0</ele><time>2026-04-21T15:11:21Z</time></trkpt><trkpt lat="37.116334513213474" lon="-2.541110226665862"><ele>718.5</ele><time>2026-04-21T15:11:22Z</time></trkpt><trkpt lat="37.116329064841345" lon="-2.5407687396071723"><ele>718.0</ele><time>2026-04-21T15:11:23Z</time></trkpt><trkpt lat="37.116314862500325" lon="-2.5404192504184353"><ele>717.5</ele><time>2026-04-21T15:11:24Z</time></trkpt><trkpt lat="37.116291140757774" lon="-2.5400618933546104"><ele>717.0</ele><time>2026-04-21T15:11:25Z</time></trkpt><trkpt lat="37.116247102251656" lon="-2.539694666753439"><ele>714.0</ele><time>2026-04-21T15:11:26Z</time></trkpt><trkpt lat="37.11619859794888" lon="-2.5393334867075517"><ele>711.0</ele><time>2026-04-21T15:11:27Z</time></trkpt><trkpt lat="37.11613656892093" lon="-2.5389728369651987"><ele>709.5</ele><time>2026-04-21T15:11:28Z</time></trkpt><trkpt lat="37.116059579831166" lon="-2.538616001926862"><ele>708.0</ele><time>2026-04-21T15:11:29Z</time></trkpt><trkpt lat="37.115968548184306" lon="-2.5382633581247496"><ele>708.0</ele><time>2026-04-21T15:11:30Z</time></trkpt><trkpt lat="37.11586440058323" lon="-2.5379172774381082"><ele>708.0</ele><time>2026-04-21T15:11:31Z</time></trkpt><trkpt lat="37.11575056528114" lon="-2.5375750256689784"><ele>711.0</ele><time>2026-04-21T15:11:32Z</time></trkpt><trkpt lat="37.11562379801169" lon="-2.537238554738201"><ele>714.0</ele><time>2026-04-21T15:11:33Z</time></trkpt><trkpt lat="37.11549045204281" lon="-2.536909820172787"><ele>718.5</ele><time>2026-04-21T15:11:34Z</time></trkpt><trkpt lat="37.11534760810984" lon="-2.5365865769475517"><ele>723.0</ele><time>2026-04-21T15:11:35Z</time></trkpt><trkpt lat="37.11519777366573" lon="-2.536272601303803"><ele>722.5</ele><time>2026-04-21T15:11:36Z</time></trkpt><trkpt lat="37.1150440774929" lon="-2.535963085096773"><ele>722.0</ele><time>2026-04-21T15:11:37Z</time></trkpt><trkpt lat="37.11489011744699" lon="-2.5356609511438895"><ele>725.0</ele><time>2026-04-21T15:11:38Z</time></trkpt><trkpt lat="37.114738606862744" lon="-2.535360486944592"><ele>728.0</ele><time>2026-04-21T15:11:39Z</time></trkpt><trkpt lat="37.11458933477571" lon="-2.5350609813982175"><ele>728.0</ele><time>2026-04-21T15:11:40Z</time></trkpt><trkpt lat="37.11444411049175" lon="-2.534769845943843"><ele>728.0</ele><time>2026-04-21T15:11:41Z</time></trkpt><trkpt lat="37.11430024561139" lon="-2.534484412874074"><ele>728.5</ele><time>2026-04-21T15:11:42Z</time></trkpt><trkpt lat="37.1141624806277" lon="-2.5342134746877263"><ele>729.0</ele><time>2026-04-21T15:11:43Z</time></trkpt><trkpt lat="37.11402699967729" lon="-2.5339430048397102"><ele>730.5</ele><time>2026-04-21T15:11:44Z</time></trkpt><trkpt lat="37.11388675562361" lon="-2.5336690218597573"><ele>732.0</ele><time>2026-04-21T15:11:45Z</time></trkpt><trkpt lat="37.11374959913624" lon="-2.5334029935619813"><ele>732.0</ele><time>2026-04-21T15:11:46Z</time></trkpt><trkpt lat="37.11361684727198" lon="-2.5331362909073394"><ele>732.0</ele><time>2026-04-21T15:11:47Z</time></trkpt><trkpt lat="37.11348476122524" lon="-2.5328746331262764"><ele>732.5</ele><time>2026-04-21T15:11:48Z</time></trkpt><trkpt lat="37.1133514854282" lon="-2.532617026295463"><ele>733.0</ele><time>2026-04-21T15:11:49Z</time></trkpt><trkpt lat="37.11322400650052" lon="-2.532357227421332"><ele>729.0</ele><time>2026-04-21T15:11:50Z</time></trkpt><trkpt lat="37.11309236885699" lon="-2.5320954695259004"><ele>725.0</ele><time>2026-04-21T15:11:51Z</time></trkpt><trkpt lat="37.11295875417893" lon="-2.5318317146210907"><ele>724.5</ele><time>2026-04-21T15:11:52Z</time></trkpt><trkpt lat="37.11281541690964" lon="-2.5315688062041946"><ele>724.0</ele><time>2026-04-21T15:11:53Z</time></trkpt><trkpt lat="37.09842751044941" lon="-2.529657029274439"><ele>735.6666666666667</ele><time>2026-04-21T15:12:53.999Z</time></trkpt><trkpt lat="37.098221676944" lon="-2.5296537132441737"><ele>747.3333333333334</ele><time>2026-04-21T15:12:54.999Z</time></trkpt><trkpt lat="37.0980126480145" lon="-2.529642703022881"><ele>759.0</ele><time>2026-04-21T15:12:55.999Z</time></trkpt><trkpt lat="37.09781631822906" lon="-2.5296298586983004"><ele>759.0</ele><time>2026-04-21T15:12:56.999Z</time></trkpt><trkpt lat="37.09762553557631" lon="-2.5296058533957413"><ele>759.0</ele><time>2026-04-21T15:12:57.999Z</time></trkpt><trkpt lat="37.09743909988907" lon="-2.529568129397118"><ele>759.0</ele><time>2026-04-21T15:12:58.999Z</time></trkpt><trkpt lat="37.0972524843839" lon="-2.5295247605249447"><ele>757.6666666666666</ele><time>2026-04-21T15:12:59.999Z</time></trkpt><trkpt lat="37.09706719460582" lon="-2.5294752421017694"><ele>756.3333333333333</ele><time>2026-04-21T15:13:00.999Z</time></trkpt><trkpt lat="37.09687959371381" lon="-2.5294279404960864"><ele>755.0</ele><time>2026-04-21T15:13:01.999Z</time></trkpt><trkpt lat="37.09669719099744" lon="-2.5293690527434376"><ele>752.0</ele><time>2026-04-21T15:13:02.999Z</time></trkpt><trkpt lat="37.096518643506066" lon="-2.529304444715913"><ele>749.0</ele><time>2026-04-21T15:13:03.999Z</time></trkpt><trkpt lat="37.0963403650727" lon="-2.5292294363713848"><ele>746.0</ele><time>2026-04-21T15:13:04.999Z</time></trkpt><trkpt lat="37.096163300567284" lon="-2.5291482095509927"><ele>746.0</ele><time>2026-04-21T15:13:05.999Z</time></trkpt><trkpt lat="37.09598192761477" lon="-2.529066776899781"><ele>746.0</ele><time>2026-04-21T15:13:06.999Z</time></trkpt><trkpt lat="37.09579861560725" lon="-2.5289746629387"><ele>746.0</ele><time>2026-04-21T15:13:07.999Z</time></trkpt><trkpt lat="37.095607733577026" lon="-2.528888197605804"><ele>746.6666666666666</ele><time>2026-04-21T15:13:08.999Z</time></trkpt><trkpt lat="37.09545813204191" lon="-2.528747751977666"><ele>747.3333333333334</ele><time>2026-04-21T15:13:09.999Z</time></trkpt><trkpt lat="37.09529024184966" lon="-2.5286367816931103"><ele>748.0</ele><time>2026-04-21T15:13:10.999Z</time></trkpt><trkpt lat="37.095123314253854" lon="-2.5285165810748413"><ele>753.3333333333334</ele><time>2026-04-21T15:13:11.999Z</time></trkpt><trkpt lat="37.09496089208854" lon="-2.5283857647986454"><ele>758.6666666666666</ele><time>2026-04-21T15:13:13Z</time></trkpt><trkpt lat="37.094797874863055" lon="-2.5282463344629496"><ele>764.0</ele><time>2026-04-21T15:13:14Z</time></trkpt><trkpt lat="37.0946421386143" lon="-2.528107148796423"><ele>764.0</ele><time>2026-04-21T15:13:15Z</time></trkpt><trkpt lat="37.09448365671952" lon="-2.5279616372710794"><ele>764.0</ele><time>2026-04-21T15:13:16Z</time></trkpt><trkpt lat="37.094329997895485" lon="-2.527813027880993"><ele>764.0</ele><time>2026-04-21T15:13:17Z</time></trkpt><trkpt lat="37.09418811174147" lon="-2.527647533469644"><ele>762.0</ele><time>2026-04-21T15:13:18Z</time></trkpt><trkpt lat="37.09404869049641" lon="-2.527484547191069"><ele>760.0</ele><time>2026-04-21T15:13:19Z</time></trkpt><trkpt lat="37.093903510441756" lon="-2.527320411066242"><ele>758.0</ele><time>2026-04-21T15:13:20Z</time></trkpt><trkpt lat="37.09377027898959" lon="-2.5271512493644726"><ele>757.6666666666666</ele><time>2026-04-21T15:13:21Z</time></trkpt><trkpt lat="37.093642289512985" lon="-2.526981037142188"><ele>757.3333333333334</ele><time>2026-04-21T15:13:22Z</time></trkpt><trkpt lat="37.09351670432416" lon="-2.5268028718746227"><ele>757.0</ele><time>2026-04-21T15:13:23Z</time></trkpt><trkpt lat="37.09340098559884" lon="-2.5266167463816855"><ele>757.0</ele><time>2026-04-21T15:13:24Z</time></trkpt><trkpt lat="37.09329040988946" lon="-2.526419083330097"><ele>757.0</ele><time>2026-04-21T15:13:25Z</time></trkpt><trkpt lat="37.09318157132104" lon="-2.52622978567952"><ele>757.0</ele><time>2026-04-21T15:13:26Z</time></trkpt><trkpt lat="37.09307407153728" lon="-2.5260412460608803"><ele>753.6666666666667</ele><time>2026-04-21T15:13:27Z</time></trkpt><trkpt lat="37.09296570874071" lon="-2.5258525813295387"><ele>750.3333333333334</ele><time>2026-04-21T15:13:28Z</time></trkpt><trkpt lat="37.092851983215766" lon="-2.5256580861545923"><ele>747.0</ele><time>2026-04-21T15:13:29Z</time></trkpt><trkpt lat="37.092740426423184" lon="-2.5254608837798083"><ele>745.0</ele><time>2026-04-21T15:13:30Z</time></trkpt><trkpt lat="37.09262876398101" lon="-2.5252706930238022"><ele>743.0</ele><time>2026-04-21T15:13:31Z</time></trkpt><trkpt lat="37.09251700596362" lon="-2.5250913868802765"><ele>741.0</ele><time>2026-04-21T15:13:32Z</time></trkpt><trkpt lat="37.09239497348347" lon="-2.524914294725662"><ele>739.3333333333334</ele><time>2026-04-21T15:13:33Z</time></trkpt><trkpt lat="37.092266272643485" lon="-2.5247390364273072"><ele>737.6666666666667</ele><time>2026-04-21T15:13:34Z</time></trkpt><trkpt lat="37.09213395759233" lon="-2.5245682792746504"><ele>736.0</ele><time>2026-04-21T15:13:35Z</time></trkpt><trkpt lat="37.09199585095804" lon="-2.524396792977255"><ele>734.6666666666667</ele><time>2026-04-21T15:13:36Z</time></trkpt><trkpt lat="37.09186087839464" lon="-2.524237723875957"><ele>733.3333333333334</ele><time>2026-04-21T15:13:37Z</time></trkpt><trkpt lat="37.091717332251946" lon="-2.524081741812539"><ele>732.0</ele><time>2026-04-21T15:13:38Z</time></trkpt><trkpt lat="37.09156402913708" lon="-2.5239286691893383"><ele>730.0</ele><time>2026-04-21T15:13:39Z</time></trkpt><trkpt lat="37.09141143401383" lon="-2.52377824214578"><ele>728.0</ele><time>2026-04-21T15:13:40Z</time></trkpt><trkpt lat="37.091256877718465" lon="-2.5236358549570976"><ele>726.0</ele><time>2026-04-21T15:13:41Z</time></trkpt><trkpt lat="37.09109450912293" lon="-2.5235026603211845"><ele>726.0</ele><time>2026-04-21T15:13:42Z</time></trkpt><trkpt lat="37.090935465433176" lon="-2.5233704026180197"><ele>726.0</ele><time>2026-04-21T15:13:43Z</time></trkpt><trkpt lat="37.09077088718191" lon="-2.523239553594629"><ele>726.0</ele><time>2026-04-21T15:13:44Z</time></trkpt><trkpt lat="37.0906014985377" lon="-2.5231235403015186"><ele>726.0</ele><time>2026-04-21T15:13:45Z</time></trkpt><trkpt lat="37.09043126964908" lon="-2.5230163514440576"><ele>726.0</ele><time>2026-04-21T15:13:46Z</time></trkpt><trkpt lat="37.090264758912234" lon="-2.5229152590205297"><ele>726.0</ele><time>2026-04-21T15:13:47Z</time></trkpt><trkpt lat="37.09009737403815" lon="-2.522816757246514"><ele>724.0</ele><time>2026-04-21T15:13:48Z</time></trkpt><trkpt lat="37.08993058983388" lon="-2.5227197082612327"><ele>722.0</ele><time>2026-04-21T15:13:49Z</time></trkpt><trkpt lat="37.089763991054774" lon="-2.522621960990647"><ele>720.0</ele><time>2026-04-21T15:13:50Z</time></trkpt><trkpt lat="37.08959878991635" lon="-2.522522633423176"><ele>719.0</ele><time>2026-04-21T15:13:51Z</time></trkpt><trkpt lat="37.08943418115799" lon="-2.5224216408728695"><ele>718.0</ele><time>2026-04-21T15:13:52Z</time></trkpt><trkpt lat="37.08927404746689" lon="-2.522320309308567"><ele>717.0</ele><time>2026-04-21T15:13:53Z</time></trkpt><trkpt lat="37.082844109976385" lon="-2.510141587373038"><ele>681.5</ele><time>2026-04-21T15:14:54.001Z</time></trkpt><trkpt lat="37.082756971080215" lon="-2.5098788328464936"><ele>646.0</ele><time>2026-04-21T15:14:55.001Z</time></trkpt><trkpt lat="37.08267073586973" lon="-2.5096217055489762"><ele>643.6666666666667</ele><time>2026-04-21T15:14:56.001Z</time></trkpt><trkpt lat="37.08258257399017" lon="-2.5093679774547093"><ele>641.3333333333334</ele><time>2026-04-21T15:14:57.001Z</time></trkpt><trkpt lat="37.08249219124829" lon="-2.5091212765010344"><ele>639.0</ele><time>2026-04-21T15:14:58.001Z</time></trkpt><trkpt lat="37.082397495348225" lon="-2.5088755202071966"><ele>637.3333333333334</ele><time>2026-04-21T15:14:59.001Z</time></trkpt><trkpt lat="37.082300219620166" lon="-2.508634276311418"><ele>635.6666666666667</ele><time>2026-04-21T15:15:00Z</time></trkpt><trkpt lat="37.08219658999696" lon="-2.508391593600351"><ele>634.0</ele><time>2026-04-21T15:15:01Z</time></trkpt><trkpt lat="37.082090055568756" lon="-2.508164121255972"><ele>634.0</ele><time>2026-04-21T15:15:02Z</time></trkpt><trkpt lat="37.08198695294014" lon="-2.5079433304472825"><ele>634.0</ele><time>2026-04-21T15:15:03Z</time></trkpt><trkpt lat="37.08188498613893" lon="-2.5077324073153915"><ele>634.0</ele><time>2026-04-21T15:15:04Z</time></trkpt><trkpt lat="37.08178099702543" lon="-2.5075304020322977"><ele>631.6666666666667</ele><time>2026-04-21T15:15:05Z</time></trkpt><trkpt lat="37.08167458186165" lon="-2.507328570625648"><ele>629.3333333333334</ele><time>2026-04-21T15:15:06Z</time></trkpt><trkpt lat="37.0815674071168" lon="-2.5071318683505073"><ele>627.0</ele><time>2026-04-21T15:15:07Z</time></trkpt><trkpt lat="37.08145444750955" lon="-2.506932294881302"><ele>623.0</ele><time>2026-04-21T15:15:08Z</time></trkpt><trkpt lat="37.08133879496151" lon="-2.506740513811549"><ele>619.0</ele><time>2026-04-21T15:15:09Z</time></trkpt><trkpt lat="37.08122003108721" lon="-2.506549463494986"><ele>615.0</ele><time>2026-04-21T15:15:10Z</time></trkpt><trkpt lat="37.0810973482546" lon="-2.5063621597007573"><ele>615.3333333333334</ele><time>2026-04-21T15:15:11Z</time></trkpt><trkpt lat="37.080970812934446" lon="-2.5061794026398605"><ele>615.6666666666667</ele><time>2026-04-21T15:15:12Z</time></trkpt><trkpt lat="37.08084403260951" lon="-2.505997101217547"><ele>616.0</ele><time>2026-04-21T15:15:13Z</time></trkpt><trkpt lat="37.080711308730365" lon="-2.505810021941503"><ele>616.0</ele><time>2026-04-21T15:15:14Z</time></trkpt><trkpt lat="37.080578233946426" lon="-2.505631168089803"><ele>616.0</ele><time>2026-04-21T15:15:15Z</time></trkpt><trkpt lat="37.080439352340946" lon="-2.5054518531476364"><ele>616.0</ele><time>2026-04-21T15:15:16Z</time></trkpt><trkpt lat="37.080302378372515" lon="-2.505275642105648"><ele>617.6666666666667</ele><time>2026-04-21T15:15:17Z</time></trkpt><trkpt lat="37.08015790890629" lon="-2.5051038548157685"><ele>619.3333333333334</ele><time>2026-04-21T15:15:18Z</time></trkpt><trkpt lat="37.080013605744014" lon="-2.5049373442100062"><ele>621.0</ele><time>2026-04-21T15:15:19Z</time></trkpt><trkpt lat="37.079861399973176" lon="-2.5047729993278334"><ele>618.3333333333334</ele><time>2026-04-21T15:15:20Z</time></trkpt><trkpt lat="37.07970438980137" lon="-2.5046080987859343"><ele>615.6666666666667</ele><time>2026-04-21T15:15:21Z</time></trkpt><trkpt lat="37.079549448506654" lon="-2.504448982145163"><ele>613.0</ele><time>2026-04-21T15:15:22Z</time></trkpt><trkpt lat="37.079386480524214" lon="-2.5042977657038508"><ele>613.0</ele><time>2026-04-21T15:15:23Z</time></trkpt><trkpt lat="37.07922176798135" lon="-2.5041496383200497"><ele>613.0</ele><time>2026-04-21T15:15:24Z</time></trkpt><trkpt lat="37.079064928322154" lon="-2.5039994666966767"><ele>613.0</ele><time>2026-04-21T15:15:25Z</time></trkpt><trkpt lat="37.0789069042171" lon="-2.5038580628094618"><ele>612.6666666666667</ele><time>2026-04-21T15:15:26Z</time></trkpt><trkpt lat="37.07874641640999" lon="-2.5037187647712487"><ele>612.3333333333334</ele><time>2026-04-21T15:15:27Z</time></trkpt><trkpt lat="37.07859182567207" lon="-2.5035808921411546"><ele>612.0</ele><time>2026-04-21T15:15:28Z</time></trkpt><trkpt lat="37.0784314226119" lon="-2.5034534463039657"><ele>612.0</ele><time>2026-04-21T15:15:29Z</time></trkpt><trkpt lat="37.07827311431043" lon="-2.503327305602543"><ele>612.0</ele><time>2026-04-21T15:15:30Z</time></trkpt><trkpt lat="37.07811477339119" lon="-2.503196696243708"><ele>612.0</ele><time>2026-04-21T15:15:31Z</time></trkpt><trkpt lat="37.07795684215154" lon="-2.5030606476146415"><ele>610.3333333333334</ele><time>2026-04-21T15:15:32Z</time></trkpt><trkpt lat="37.077797665092724" lon="-2.502918831087302"><ele>608.6666666666667</ele><time>2026-04-21T15:15:33Z</time></trkpt><trkpt lat="37.07763631181257" lon="-2.5027797812159"><ele>607.0</ele><time>2026-04-21T15:15:34Z</time></trkpt><trkpt lat="37.07746506980081" lon="-2.5026442277170053"><ele>606.0</ele><time>2026-04-21T15:15:35Z</time></trkpt><trkpt lat="37.07729379171655" lon="-2.5025061126936197"><ele>605.0</ele><time>2026-04-21T15:15:36Z</time></trkpt><trkpt lat="37.07712788675104" lon="-2.502367670947295"><ele>604.0</ele><time>2026-04-21T15:15:37Z</time></trkpt><trkpt lat="37.076961009591116" lon="-2.502232943989635"><ele>604.0</ele><time>2026-04-21T15:15:38Z</time></trkpt><trkpt lat="37.07679911677111" lon="-2.5020996625902514"><ele>604.0</ele><time>2026-04-21T15:15:39Z</time></trkpt><trkpt lat="37.076635650325024" lon="-2.5019673896334385"><ele>604.0</ele><time>2026-04-21T15:15:40Z</time></trkpt><trkpt lat="37.07647075866381" lon="-2.5018352128437273"><ele>601.3333333333334</ele><time>2026-04-21T15:15:41Z</time></trkpt><trkpt lat="37.076304380013404" lon="-2.5016989965193783"><ele>598.6666666666666</ele><time>2026-04-21T15:15:42Z</time></trkpt><trkpt lat="37.0761420100283" lon="-2.501567851478084"><ele>596.0</ele><time>2026-04-21T15:15:43Z</time></trkpt><trkpt lat="37.075977484991" lon="-2.501436343696898"><ele>596.0</ele><time>2026-04-21T15:15:44Z</time></trkpt><trkpt lat="37.07581826626269" lon="-2.501305067581591"><ele>596.0</ele><time>2026-04-21T15:15:45Z</time></trkpt><trkpt lat="37.075654647593744" lon="-2.5011739100369597"><ele>596.0</ele><time>2026-04-21T15:15:46Z</time></trkpt><trkpt lat="37.075501319712586" lon="-2.5010446519957052"><ele>594.3333333333333</ele><time>2026-04-21T15:15:47Z</time></trkpt><trkpt lat="37.07533674485103" lon="-2.5009120833309146"><ele>592.6666666666666</ele><time>2026-04-21T15:15:48Z</time></trkpt><trkpt lat="37.075178721916146" lon="-2.500782974969806"><ele>591.0</ele><time>2026-04-21T15:15:49Z</time></trkpt><trkpt lat="37.07501852160607" lon="-2.5006562417730396"><ele>589.6666666666666</ele><time>2026-04-21T15:15:50Z</time></trkpt><trkpt lat="37.0748616546205" lon="-2.5005254567633317"><ele>588.3333333333333</ele><time>2026-04-21T15:15:51Z</time></trkpt><trkpt lat="37.07470329912064" lon="-2.5003907911781984"><ele>587.0</ele><time>2026-04-21T15:15:52Z</time></trkpt><trkpt lat="37.074543478017745" lon="-2.50025475180801"><ele>528.0</ele><time>2026-04-21T15:15:53Z</time></trkpt><trkpt lat="37.06545434467003" lon="-2.4897683058967828"><ele>528.0</ele><time>2026-04-21T15:16:54.001Z</time></trkpt><trkpt lat="37.065232201549094" lon="-2.48961489074549"><ele>528.0</ele><time>2026-04-21T15:16:55.001Z</time></trkpt><trkpt lat="37.06501057688524" lon="-2.4894629812658313"><ele>524.5</ele><time>2026-04-21T15:16:56.001Z</time></trkpt><trkpt lat="37.06478705531181" lon="-2.4893108734167786"><ele>521.0</ele><time>2026-04-21T15:16:57.001Z</time></trkpt><trkpt lat="37.06456146980179" lon="-2.4891559182011886"><ele>521.0</ele><time>2026-04-21T15:16:58.001Z</time></trkpt><trkpt lat="37.06433745667334" lon="-2.488999405267163"><ele>521.0</ele><time>2026-04-21T15:16:59.001Z</time></trkpt><trkpt lat="37.06412016384663" lon="-2.4888383674296652"><ele>523.5</ele><time>2026-04-21T15:17:00.001Z</time></trkpt><trkpt lat="37.063904515417256" lon="-2.4886736591508805"><ele>526.0</ele><time>2026-04-21T15:17:01.001Z</time></trkpt><trkpt lat="37.06368862789312" lon="-2.4885063876549065"><ele>526.0</ele><time>2026-04-21T15:17:02.001Z</time></trkpt><trkpt lat="37.06347465974191" lon="-2.4883374594526715"><ele>526.0</ele><time>2026-04-21T15:17:03.001Z</time></trkpt><trkpt lat="37.063263328806784" lon="-2.4881653113386877"><ele>525.0</ele><time>2026-04-21T15:17:04.001Z</time></trkpt><trkpt lat="37.063057980759545" lon="-2.4879892355533637"><ele>524.0</ele><time>2026-04-21T15:17:05.001Z</time></trkpt><trkpt lat="37.062853956997834" lon="-2.487809198709528"><ele>524.0</ele><time>2026-04-21T15:17:06.002Z</time></trkpt><trkpt lat="37.0626507850462" lon="-2.4876250230967574"><ele>524.0</ele><time>2026-04-21T15:17:07.002Z</time></trkpt><trkpt lat="37.06245042345114" lon="-2.4874346770516556"><ele>521.0</ele><time>2026-04-21T15:17:08.002Z</time></trkpt><trkpt lat="37.0622546929909" lon="-2.4872392417913503"><ele>518.0</ele><time>2026-04-21T15:17:09.002Z</time></trkpt><trkpt lat="37.06205895840361" lon="-2.4870383783132644"><ele>518.0</ele><time>2026-04-21T15:17:10.002Z</time></trkpt><trkpt lat="37.0618691741657" lon="-2.4868321972656795"><ele>518.0</ele><time>2026-04-21T15:17:11.002Z</time></trkpt><trkpt lat="37.06167580594451" lon="-2.486622523034615"><ele>516.5</ele><time>2026-04-21T15:17:12.002Z</time></trkpt><trkpt lat="37.06149046717035" lon="-2.4864056844740157"><ele>515.0</ele><time>2026-04-21T15:17:13.001Z</time></trkpt><trkpt lat="37.06130303431469" lon="-2.486184386039191"><ele>515.0</ele><time>2026-04-21T15:17:14.001Z</time></trkpt><trkpt lat="37.061120035216355" lon="-2.4859610858405006"><ele>515.0</ele><time>2026-04-21T15:17:15.001Z</time></trkpt><trkpt lat="37.06094457250427" lon="-2.4857318888754567"><ele>512.5</ele><time>2026-04-21T15:17:16.001Z</time></trkpt><trkpt lat="37.06076903934425" lon="-2.4854957686793218"><ele>510.0</ele><time>2026-04-21T15:17:17.001Z</time></trkpt><trkpt lat="37.06059255304679" lon="-2.485255663021497"><ele>510.0</ele><time>2026-04-21T15:17:18.001Z</time></trkpt><trkpt lat="37.060417624615745" lon="-2.484998362232359"><ele>510.0</ele><time>2026-04-21T15:17:19.001Z</time></trkpt><trkpt lat="37.06024831918191" lon="-2.48473216179535"><ele>509.0</ele><time>2026-04-21T15:17:20.001Z</time></trkpt><trkpt lat="37.06007845512715" lon="-2.4844601150569527"><ele>508.0</ele><time>2026-04-21T15:17:21.001Z</time></trkpt><trkpt lat="37.059906945096884" lon="-2.484182757608201"><ele>506.5</ele><time>2026-04-21T15:17:22.001Z</time></trkpt><trkpt lat="37.05974185672043" lon="-2.4839023834202973"><ele>505.0</ele><time>2026-04-21T15:17:23.001Z</time></trkpt><trkpt lat="37.05958257529568" lon="-2.4836200075475103"><ele>504.0</ele><time>2026-04-21T15:17:24.001Z</time></trkpt><trkpt lat="37.05942433219045" lon="-2.4833376010074844"><ele>503.0</ele><time>2026-04-21T15:17:25.001Z</time></trkpt><trkpt lat="37.05927046822157" lon="-2.483053844641948"><ele>501.0</ele><time>2026-04-21T15:17:26.001Z</time></trkpt><trkpt lat="37.0591174821081" lon="-2.4827688629736704"><ele>499.0</ele><time>2026-04-21T15:17:27.001Z</time></trkpt><trkpt lat="37.05896607855889" lon="-2.482482618410567"><ele>499.0</ele><time>2026-04-21T15:17:28.001Z</time></trkpt><trkpt lat="37.05881378256035" lon="-2.482198986286836"><ele>499.0</ele><time>2026-04-21T15:17:29.001Z</time></trkpt><trkpt lat="37.05865775713745" lon="-2.481915091343336"><ele>498.0</ele><time>2026-04-21T15:17:30.001Z</time></trkpt><trkpt lat="37.05849676429451" lon="-2.481637004025835"><ele>497.0</ele><time>2026-04-21T15:17:31.001Z</time></trkpt><trkpt lat="37.05833227933052" lon="-2.481363305198939"><ele>495.5</ele><time>2026-04-21T15:17:32.001Z</time></trkpt><trkpt lat="37.05816512415373" lon="-2.4810914737826786"><ele>494.0</ele><time>2026-04-21T15:17:33.001Z</time></trkpt><trkpt lat="37.05799451904196" lon="-2.480821652855593"><ele>494.0</ele><time>2026-04-21T15:17:34.001Z</time></trkpt><trkpt lat="37.05782374436356" lon="-2.480553364910459"><ele>494.0</ele><time>2026-04-21T15:17:35.001Z</time></trkpt><trkpt lat="37.05764903521828" lon="-2.480294913304067"><ele>494.0</ele><time>2026-04-21T15:17:36.001Z</time></trkpt><trkpt lat="37.057470238609916" lon="-2.480038912286844"><ele>494.0</ele><time>2026-04-21T15:17:37.001Z</time></trkpt><trkpt lat="37.05728678293759" lon="-2.4797909702737595"><ele>489.5</ele><time>2026-04-21T15:17:38.001Z</time></trkpt><trkpt lat="37.05709994293321" lon="-2.479548494053384"><ele>485.0</ele><time>2026-04-21T15:17:39.001Z</time></trkpt><trkpt lat="37.05691217178028" lon="-2.479311732735873"><ele>485.0</ele><time>2026-04-21T15:17:40.001Z</time></trkpt><trkpt lat="37.0567190450904" lon="-2.479083822938346"><ele>485.0</ele><time>2026-04-21T15:17:41.001Z</time></trkpt><trkpt lat="37.05652739547394" lon="-2.478867291225137"><ele>484.5</ele><time>2026-04-21T15:17:42.001Z</time></trkpt><trkpt lat="37.05633037504234" lon="-2.4786510509267967"><ele>484.0</ele><time>2026-04-21T15:17:43.001Z</time></trkpt><trkpt lat="37.05613075818135" lon="-2.4784371718822613"><ele>484.0</ele><time>2026-04-21T15:17:44.001Z</time></trkpt><trkpt lat="37.0559288099093" lon="-2.478231438443867"><ele>484.0</ele><time>2026-04-21T15:17:45.001Z</time></trkpt><trkpt lat="37.055722600225565" lon="-2.4780285811504648"><ele>483.0</ele><time>2026-04-21T15:17:46.001Z</time></trkpt><trkpt lat="37.05551444710971" lon="-2.4778363596849866"><ele>482.0</ele><time>2026-04-21T15:17:47.001Z</time></trkpt><trkpt lat="37.05530039631114" lon="-2.4776459788820087"><ele>482.0</ele><time>2026-04-21T15:17:48.001Z</time></trkpt><trkpt lat="37.05508386565486" lon="-2.4774634895002343"><ele>482.0</ele><time>2026-04-21T15:17:49.001Z</time></trkpt><trkpt lat="37.054860754630376" lon="-2.4772813881646836"><ele>481.0</ele><time>2026-04-21T15:17:50.001Z</time></trkpt><trkpt lat="37.05463959183264" lon="-2.477105358938771"><ele>480.0</ele><time>2026-04-21T15:17:51.001Z</time></trkpt><trkpt lat="37.054413338785984" lon="-2.476925414920818"><ele>480.0</ele><time>2026-04-21T15:17:52.001Z</time></trkpt><trkpt lat="37.05419305375822" lon="-2.4767568793217314"><ele>480.0</ele><time>2026-04-21T15:17:53.001Z</time></trkpt><trkpt lat="37.041018206532925" lon="-2.468529744756051"><ele>458.0</ele><time>2026-04-21T15:18:54.001Z</time></trkpt><trkpt lat="37.04082371752252" lon="-2.4683789640513782"><ele>436.0</ele><time>2026-04-21T15:18:55.001Z</time></trkpt><trkpt lat="37.04063116538534" lon="-2.4682267464886327"><ele>435.5</ele><time>2026-04-21T15:18:56.001Z</time></trkpt><trkpt lat="37.04043943858776" lon="-2.4680690478884997"><ele>435.0</ele><time>2026-04-21T15:18:57.001Z</time></trkpt><trkpt lat="37.04024778553721" lon="-2.4679043006578425"><ele>435.0</ele><time>2026-04-21T15:18:58.001Z</time></trkpt><trkpt lat="37.04005536927911" lon="-2.4677365544970082"><ele>435.0</ele><time>2026-04-21T15:18:59.001Z</time></trkpt><trkpt lat="37.039866342847816" lon="-2.4675616252032655"><ele>433.0</ele><time>2026-04-21T15:19:00.001Z</time></trkpt><trkpt lat="37.03967795564755" lon="-2.4673850676810556"><ele>431.0</ele><time>2026-04-21T15:19:01.001Z</time></trkpt><trkpt lat="37.03948593196025" lon="-2.4672028164198863"><ele>431.5</ele><time>2026-04-21T15:19:02.001Z</time></trkpt><trkpt lat="37.03929599334225" lon="-2.4670191212780765"><ele>432.0</ele><time>2026-04-21T15:19:03.001Z</time></trkpt><trkpt lat="37.03910829019265" lon="-2.4668302601069807"><ele>432.0</ele><time>2026-04-21T15:19:04.001Z</time></trkpt><trkpt lat="37.03892085477738" lon="-2.4666357984124216"><ele>432.0</ele><time>2026-04-21T15:19:05.001Z</time></trkpt><trkpt lat="37.038738023147026" lon="-2.4664426134882587"><ele>430.5</ele><time>2026-04-21T15:19:06.001Z</time></trkpt><trkpt lat="37.03855779013285" lon="-2.4662450067719575"><ele>429.0</ele><time>2026-04-21T15:19:07.001Z</time></trkpt><trkpt lat="37.038381182450394" lon="-2.4660467891027404"><ele>427.5</ele><time>2026-04-21T15:19:08.001Z</time></trkpt><trkpt lat="37.03820698571893" lon="-2.465848144260474"><ele>426.0</ele><time>2026-04-21T15:19:09.001Z</time></trkpt><trkpt lat="37.03803180996242" lon="-2.465645582761834"><ele>426.0</ele><time>2026-04-21T15:19:10.001Z</time></trkpt><trkpt lat="37.037860590155596" lon="-2.4654396333347877"><ele>426.0</ele><time>2026-04-21T15:19:11.001Z</time></trkpt><trkpt lat="37.03768983773145" lon="-2.4652316629526823"><ele>426.0</ele><time>2026-04-21T15:19:12.002Z</time></trkpt><trkpt lat="37.03752190695671" lon="-2.4650164897566964"><ele>426.0</ele><time>2026-04-21T15:19:13.002Z</time></trkpt><trkpt lat="37.03736229795129" lon="-2.4648010758264554"><ele>423.0</ele><time>2026-04-21T15:19:14.002Z</time></trkpt><trkpt lat="37.03720139486416" lon="-2.4645824177240385"><ele>420.0</ele><time>2026-04-21T15:19:15.002Z</time></trkpt><trkpt lat="37.03704077191244" lon="-2.4643612933000405"><ele>420.0</ele><time>2026-04-21T15:19:16.002Z</time></trkpt><trkpt lat="37.0368796610816" lon="-2.464144257533223"><ele>420.0</ele><time>2026-04-21T15:19:17.002Z</time></trkpt><trkpt lat="37.03672327759433" lon="-2.463922196404818"><ele>411.0</ele><time>2026-04-21T15:19:18.002Z</time></trkpt><trkpt lat="37.03657153546574" lon="-2.4636962469304695"><ele>402.0</ele><time>2026-04-21T15:19:19.002Z</time></trkpt><trkpt lat="37.03642344742695" lon="-2.4634701138463555"><ele>402.0</ele><time>2026-04-21T15:19:20.002Z</time></trkpt><trkpt lat="37.03627342877826" lon="-2.4632405963917114"><ele>402.0</ele><time>2026-04-21T15:19:21.002Z</time></trkpt><trkpt lat="37.03612160447242" lon="-2.4630102946220904"><ele>407.5</ele><time>2026-04-21T15:19:22.002Z</time></trkpt><trkpt lat="37.0359756348745" lon="-2.4627746706117475"><ele>413.0</ele><time>2026-04-21T15:19:23.002Z</time></trkpt><trkpt lat="37.03583228098609" lon="-2.4625383075696456"><ele>410.0</ele><time>2026-04-21T15:19:24.002Z</time></trkpt><trkpt lat="37.03569366131861" lon="-2.462297575967594"><ele>407.0</ele><time>2026-04-21T15:19:25.002Z</time></trkpt><trkpt lat="37.03555810254881" lon="-2.462052394743229"><ele>407.0</ele><time>2026-04-21T15:19:26.002Z</time></trkpt><trkpt lat="37.03542839438812" lon="-2.461810738564229"><ele>407.0</ele><time>2026-04-21T15:19:27.002Z</time></trkpt><trkpt lat="37.03529387684246" lon="-2.46155976341056"><ele>407.0</ele><time>2026-04-21T15:19:28.002Z</time></trkpt><trkpt lat="37.03516602752393" lon="-2.4613140992700644"><ele>407.0</ele><time>2026-04-21T15:19:29.002Z</time></trkpt><trkpt lat="37.03503537399573" lon="-2.4610646351419723"><ele>410.0</ele><time>2026-04-21T15:19:30.002Z</time></trkpt><trkpt lat="37.034908385188096" lon="-2.4608180225719134"><ele>413.0</ele><time>2026-04-21T15:19:31.001Z</time></trkpt><trkpt lat="37.034785942525325" lon="-2.460565612158108"><ele>410.5</ele><time>2026-04-21T15:19:32.001Z</time></trkpt><trkpt lat="37.03466937439108" lon="-2.460312061860184"><ele>408.0</ele><time>2026-04-21T15:19:33.001Z</time></trkpt><trkpt lat="37.03455331634222" lon="-2.4600506007048044"><ele>408.0</ele><time>2026-04-21T15:19:34.001Z</time></trkpt><trkpt lat="37.03443886095223" lon="-2.459794480414524"><ele>408.0</ele><time>2026-04-21T15:19:35.001Z</time></trkpt><trkpt lat="37.034324725467314" lon="-2.459537547256281"><ele>407.5</ele><time>2026-04-21T15:19:36.001Z</time></trkpt><trkpt lat="37.03421233767654" lon="-2.459275257134633"><ele>407.0</ele><time>2026-04-21T15:19:37.001Z</time></trkpt><trkpt lat="37.0341022537992" lon="-2.4590133684861186"><ele>403.5</ele><time>2026-04-21T15:19:38.001Z</time></trkpt><trkpt lat="37.03399450919592" lon="-2.4587515732394913"><ele>400.0</ele><time>2026-04-21T15:19:39.001Z</time></trkpt><trkpt lat="37.033889194168076" lon="-2.458484210622424"><ele>400.0</ele><time>2026-04-21T15:19:40.001Z</time></trkpt><trkpt lat="37.03378091521982" lon="-2.4582191847315737"><ele>400.0</ele><time>2026-04-21T15:19:41.001Z</time></trkpt><trkpt lat="37.03367327500125" lon="-2.4579602380576993"><ele>397.5</ele><time>2026-04-21T15:19:42.001Z</time></trkpt><trkpt lat="37.033566524990135" lon="-2.457696350609704"><ele>395.0</ele><time>2026-04-21T15:19:43.001Z</time></trkpt><trkpt lat="37.03346137452228" lon="-2.457431983544609"><ele>395.0</ele><time>2026-04-21T15:19:44.001Z</time></trkpt><trkpt lat="37.03335472182759" lon="-2.4571679528292085"><ele>395.0</ele><time>2026-04-21T15:19:45.001Z</time></trkpt><trkpt lat="37.03324832994539" lon="-2.4569036737915626"><ele>396.0</ele><time>2026-04-21T15:19:46.001Z</time></trkpt><trkpt lat="37.03313996230443" lon="-2.456644735076089"><ele>397.0</ele><time>2026-04-21T15:19:47.001Z</time></trkpt><trkpt lat="37.03302531462399" lon="-2.456386311639006"><ele>393.0</ele><time>2026-04-21T15:19:48.001Z</time></trkpt><trkpt lat="37.03290813146051" lon="-2.4561316326612395"><ele>389.0</ele><time>2026-04-21T15:19:49.001Z</time></trkpt><trkpt lat="37.032788417416015" lon="-2.4558777307620363"><ele>389.0</ele><time>2026-04-21T15:19:50.001Z</time></trkpt><trkpt lat="37.03266662046451" lon="-2.4556240614890803"><ele>389.0</ele><time>2026-04-21T15:19:51.001Z</time></trkpt><trkpt lat="37.03254597351991" lon="-2.455373776164963"><ele>383.5</ele><time>2026-04-21T15:19:52.001Z</time></trkpt><trkpt lat="37.03241760578267" lon="-2.4551252211122194"><ele>378.0</ele><time>2026-04-21T15:19:53.001Z</time></trkpt><trkpt lat="37.02151609213015" lon="-2.4438802119652094"><ele>342.3333333333333</ele><time>2026-04-21T15:20:54.001Z</time></trkpt><trkpt lat="37.02128342941035" lon="-2.4439079874547516"><ele>306.66666666666663</ele><time>2026-04-21T15:20:55.001Z</time></trkpt><trkpt lat="37.02107166955261" lon="-2.443950937486097"><ele>271.0</ele><time>2026-04-21T15:20:56.001Z</time></trkpt><trkpt lat="37.02086824303243" lon="-2.4440124995335286"><ele>273.0</ele><time>2026-04-21T15:20:57.001Z</time></trkpt><trkpt lat="37.020664823662806" lon="-2.444089673953858"><ele>275.0</ele><time>2026-04-21T15:20:58.001Z</time></trkpt><trkpt lat="37.02046215030358" lon="-2.444183408514113"><ele>277.0</ele><time>2026-04-21T15:20:59.001Z</time></trkpt><trkpt lat="37.020266566226994" lon="-2.4442911714436972"><ele>277.0</ele><time>2026-04-21T15:21:00.001Z</time></trkpt><trkpt lat="37.020074368391654" lon="-2.4444144568339974"><ele>277.0</ele><time>2026-04-21T15:21:01.001Z</time></trkpt><trkpt lat="37.01988397243101" lon="-2.444547039707892"><ele>277.0</ele><time>2026-04-21T15:21:02.001Z</time></trkpt><trkpt lat="37.01970132486214" lon="-2.444690324319183"><ele>278.3333333333333</ele><time>2026-04-21T15:21:03.001Z</time></trkpt><trkpt lat="37.019536705533206" lon="-2.444822606622067"><ele>279.6666666666667</ele><time>2026-04-21T15:21:04.001Z</time></trkpt><trkpt lat="37.01938284158316" lon="-2.444942137005798"><ele>281.0</ele><time>2026-04-21T15:21:05.001Z</time></trkpt><trkpt lat="37.01924338098014" lon="-2.4450507581379806"><ele>279.40000000000003</ele><time>2026-04-21T15:21:06.001Z</time></trkpt><trkpt lat="37.01912342114151" lon="-2.4451408749297907"><ele>277.8</ele><time>2026-04-21T15:21:07.001Z</time></trkpt><trkpt lat="37.01903720099477" lon="-2.4452113137293257"><ele>276.20000000000005</ele><time>2026-04-21T15:21:08.001Z</time></trkpt><trkpt lat="37.01898346134281" lon="-2.4452570638401356"><ele>274.6</ele><time>2026-04-21T15:21:09.001Z</time></trkpt><trkpt lat="37.01894560777866" lon="-2.4453319915575853"><ele>273.0</ele><time>2026-04-21T15:21:11.001Z</time></trkpt><trkpt lat="37.01891555160981" lon="-2.445460843688698"><ele>273.0</ele><time>2026-04-21T15:21:14.001Z</time></trkpt><trkpt lat="37.01887413334818" lon="-2.445526011104912"><ele>273.0</ele><time>2026-04-21T15:21:15.001Z</time></trkpt><trkpt lat="37.018769071216546" lon="-2.445593785465642"><ele>273.0</ele><time>2026-04-21T15:21:17.001Z</time></trkpt><trkpt lat="37.018701274310395" lon="-2.445587985359801"><ele>273.0</ele><time>2026-04-21T15:21:18.002Z</time></trkpt><trkpt lat="37.01863629877865" lon="-2.445555618167073"><ele>273.0</ele><time>2026-04-21T15:21:19.002Z</time></trkpt><trkpt lat="37.018590756782906" lon="-2.4454905675687146"><ele>273.0</ele><time>2026-04-21T15:21:20.002Z</time></trkpt><trkpt lat="37.01856436053904" lon="-2.445339780616494"><ele>273.0</ele><time>2026-04-21T15:21:22.002Z</time></trkpt><trkpt lat="37.01860305314259" lon="-2.445224952984472"><ele>273.0</ele><time>2026-04-21T15:21:23.002Z</time></trkpt><trkpt lat="37.01865477555975" lon="-2.4451035218148762"><ele>273.0</ele><time>2026-04-21T15:21:24.002Z</time></trkpt><trkpt lat="37.01869513877531" lon="-2.44495475975482"><ele>273.0</ele><time>2026-04-21T15:21:25.002Z</time></trkpt><trkpt lat="37.01870980632674" lon="-2.4447793765463413"><ele>271.75</ele><time>2026-04-21T15:21:26.002Z</time></trkpt><trkpt lat="37.018694670153344" lon="-2.444605313384765"><ele>270.5</ele><time>2026-04-21T15:21:27.002Z</time></trkpt><trkpt lat="37.01866692786595" lon="-2.4444248041134116"><ele>269.25</ele><time>2026-04-21T15:21:28.002Z</time></trkpt><trkpt lat="37.01861687087356" lon="-2.444279289526881"><ele>268.0</ele><time>2026-04-21T15:21:29.002Z</time></trkpt><trkpt lat="37.018552399556775" lon="-2.4441634447951195"><ele>268.0</ele><time>2026-04-21T15:21:30.002Z</time></trkpt><trkpt lat="37.01851338150631" lon="-2.4440702159911045"><ele>268.0</ele><time>2026-04-21T15:21:31.002Z</time></trkpt><trkpt lat="37.01851071067335" lon="-2.4439659117457704"><ele>268.0</ele><time>2026-04-21T15:21:32.001Z</time></trkpt><trkpt lat="37.01854449301876" lon="-2.443861112080806"><ele>268.0</ele><time>2026-04-21T15:21:33.001Z</time></trkpt><trkpt lat="37.01860898896139" lon="-2.44374097161957"><ele>268.0</ele><time>2026-04-21T15:21:34.001Z</time></trkpt><trkpt lat="37.01865368331587" lon="-2.4435959655172432"><ele>265.25</ele><time>2026-04-21T15:21:35.001Z</time></trkpt><trkpt lat="37.01864930676235" lon="-2.443423634458133"><ele>262.5</ele><time>2026-04-21T15:21:36.001Z</time></trkpt><trkpt lat="37.018627507106466" lon="-2.4432432035533442"><ele>259.75</ele><time>2026-04-21T15:21:37.001Z</time></trkpt><trkpt lat="37.018612201480146" lon="-2.443056700359531"><ele>257.0</ele><time>2026-04-21T15:21:38.001Z</time></trkpt><trkpt lat="37.01860146392799" lon="-2.4428594553273038"><ele>257.0</ele><time>2026-04-21T15:21:39.001Z</time></trkpt><trkpt lat="37.01859044564781" lon="-2.442679616813854"><ele>257.0</ele><time>2026-04-21T15:21:40.001Z</time></trkpt><trkpt lat="37.01857960259949" lon="-2.442493849940527"><ele>257.0</ele><time>2026-04-21T15:21:41.001Z</time></trkpt><trkpt lat="37.01857033995655" lon="-2.4423164721155883"><ele>257.0</ele><time>2026-04-21T15:21:42.001Z</time></trkpt><trkpt lat="37.01857910020139" lon="-2.4421399576509537"><ele>259.0</ele><time>2026-04-21T15:21:43.001Z</time></trkpt><trkpt lat="37.0186484852158" lon="-2.4419815059774996"><ele>261.0</ele><time>2026-04-21T15:21:44.001Z</time></trkpt><trkpt lat="37.01874548618351" lon="-2.441835991097374"><ele>263.0</ele><time>2026-04-21T15:21:45.001Z</time></trkpt><trkpt lat="37.01887200906207" lon="-2.441706589627215"><ele>263.0</ele><time>2026-04-21T15:21:46.001Z</time></trkpt><trkpt lat="37.01902378995418" lon="-2.4415775805970816"><ele>263.0</ele><time>2026-04-21T15:21:47.001Z</time></trkpt><trkpt lat="37.01918826174622" lon="-2.4414383694322033"><ele>263.0</ele><time>2026-04-21T15:21:48.001Z</time></trkpt><trkpt lat="37.01935144020864" lon="-2.4412804717545193"><ele>266.0</ele><time>2026-04-21T15:21:49.001Z</time></trkpt><trkpt lat="37.01950006071236" lon="-2.441101195965306"><ele>269.0</ele><time>2026-04-21T15:21:50.001Z</time></trkpt><trkpt lat="37.019636890104024" lon="-2.440896222629311"><ele>272.0</ele><time>2026-04-21T15:21:51.001Z</time></trkpt><trkpt lat="37.01975419675936" lon="-2.4406650197457402"><ele>275.0</ele><time>2026-04-21T15:21:52.001Z</time></trkpt><trkpt lat="37.01984999511522" lon="-2.4404153476920465"><ele>278.0</ele><time>2026-04-21T15:21:53.001Z</time></trkpt><trkpt lat="37.025533796733505" lon="-2.427964477346073"><ele>292.33333333333337</ele><time>2026-04-21T15:22:54Z</time></trkpt><trkpt lat="37.025709165486546" lon="-2.4278668155375756"><ele>306.6666666666667</ele><time>2026-04-21T15:22:55Z</time></trkpt><trkpt lat="37.025888463492784" lon="-2.427813586668367"><ele>321.0</ele><time>2026-04-21T15:22:56Z</time></trkpt><trkpt lat="37.02607641573101" lon="-2.4277853280855197"><ele>321.0</ele><time>2026-04-21T15:22:57Z</time></trkpt><trkpt lat="37.026263533024185" lon="-2.4277835685430365"><ele>321.0</ele><time>2026-04-21T15:22:58Z</time></trkpt><trkpt lat="37.02644525066582" lon="-2.4278067933452783"><ele>321.0</ele><time>2026-04-21T15:22:59Z</time></trkpt><trkpt lat="37.02662920916415" lon="-2.427832165403578"><ele>321.6666666666667</ele><time>2026-04-21T15:23:00Z</time></trkpt><trkpt lat="37.02681212450833" lon="-2.4278485735276853"><ele>322.33333333333337</ele><time>2026-04-21T15:23:01Z</time></trkpt><trkpt lat="37.02700084393232" lon="-2.4278618530241065"><ele>323.0</ele><time>2026-04-21T15:23:02Z</time></trkpt><trkpt lat="37.027192104652386" lon="-2.42787681249342"><ele>323.0</ele><time>2026-04-21T15:23:03Z</time></trkpt><trkpt lat="37.027379306860574" lon="-2.4278933400080764"><ele>323.0</ele><time>2026-04-21T15:23:04Z</time></trkpt><trkpt lat="37.02756001579236" lon="-2.4279052161481633"><ele>323.0</ele><time>2026-04-21T15:23:05Z</time></trkpt><trkpt lat="37.027738726394496" lon="-2.427906606636922"><ele>322.33333333333337</ele><time>2026-04-21T15:23:06Z</time></trkpt><trkpt lat="37.02791995952077" lon="-2.427887328463458"><ele>321.6666666666667</ele><time>2026-04-21T15:23:07Z</time></trkpt><trkpt lat="37.02810694082231" lon="-2.427847536499401"><ele>321.0</ele><time>2026-04-21T15:23:08Z</time></trkpt><trkpt lat="37.02828676327716" lon="-2.427792354607014"><ele>317.3333333333333</ele><time>2026-04-21T15:23:09Z</time></trkpt><trkpt lat="37.028455871174714" lon="-2.427723130857704"><ele>313.66666666666663</ele><time>2026-04-21T15:23:10Z</time></trkpt><trkpt lat="37.02861584313646" lon="-2.4276413185517134"><ele>310.0</ele><time>2026-04-21T15:23:11Z</time></trkpt><trkpt lat="37.028773238785014" lon="-2.427536909367618"><ele>310.0</ele><time>2026-04-21T15:23:12Z</time></trkpt><trkpt lat="37.02892439128008" lon="-2.4274175826102633"><ele>310.0</ele><time>2026-04-21T15:23:13Z</time></trkpt><trkpt lat="37.02907617085269" lon="-2.4272898550088886"><ele>310.0</ele><time>2026-04-21T15:23:14Z</time></trkpt><trkpt lat="37.029225954751546" lon="-2.427161489488075"><ele>307.0</ele><time>2026-04-21T15:23:15Z</time></trkpt><trkpt lat="37.029378717359606" lon="-2.4270246818258823"><ele>304.0</ele><time>2026-04-21T15:23:16Z</time></trkpt><trkpt lat="37.029531362423626" lon="-2.4268805645374987"><ele>301.0</ele><time>2026-04-21T15:23:17Z</time></trkpt><trkpt lat="37.0296853915189" lon="-2.42674284421621"><ele>301.0</ele><time>2026-04-21T15:23:18Z</time></trkpt><trkpt lat="37.029838420715635" lon="-2.426611515488756"><ele>301.0</ele><time>2026-04-21T15:23:19Z</time></trkpt><trkpt lat="37.02996738184127" lon="-2.426444516366448"><ele>301.0</ele><time>2026-04-21T15:23:20Z</time></trkpt><trkpt lat="37.03007879188576" lon="-2.4262673098914966"><ele>303.66666666666663</ele><time>2026-04-21T15:23:21Z</time></trkpt><trkpt lat="37.030190050473294" lon="-2.426089270908039"><ele>306.3333333333333</ele><time>2026-04-21T15:23:22Z</time></trkpt><trkpt lat="37.03026719491395" lon="-2.425891813195323"><ele>309.0</ele><time>2026-04-21T15:23:23Z</time></trkpt><trkpt lat="37.03030370016152" lon="-2.425691890465807"><ele>309.0</ele><time>2026-04-21T15:23:24.001Z</time></trkpt><trkpt lat="37.03034316473239" lon="-2.4254920997644014"><ele>309.0</ele><time>2026-04-21T15:23:25.001Z</time></trkpt><trkpt lat="37.03039520284321" lon="-2.425284592955194"><ele>309.0</ele><time>2026-04-21T15:23:26.001Z</time></trkpt><trkpt lat="37.030420409292255" lon="-2.425056375181428"><ele>313.3333333333333</ele><time>2026-04-21T15:23:27.001Z</time></trkpt><trkpt lat="37.03045349783708" lon="-2.4248317557636883"><ele>317.66666666666663</ele><time>2026-04-21T15:23:28.001Z</time></trkpt><trkpt lat="37.03048995260647" lon="-2.424600748083614"><ele>322.0</ele><time>2026-04-21T15:23:29.001Z</time></trkpt><trkpt lat="37.03053190480656" lon="-2.4243663688832067"><ele>327.0</ele><time>2026-04-21T15:23:30.001Z</time></trkpt><trkpt lat="37.03057547814632" lon="-2.424124283727833"><ele>332.0</ele><time>2026-04-21T15:23:31.001Z</time></trkpt><trkpt lat="37.0306096882949" lon="-2.4238982145552836"><ele>337.0</ele><time>2026-04-21T15:23:32.001Z</time></trkpt><trkpt lat="37.030638308121404" lon="-2.4236999279776024"><ele>335.25</ele><time>2026-04-21T15:23:33.001Z</time></trkpt><trkpt lat="37.03066455442526" lon="-2.4235272401282986"><ele>333.5</ele><time>2026-04-21T15:23:34.001Z</time></trkpt><trkpt lat="37.03070305329156" lon="-2.423371369661022"><ele>331.75</ele><time>2026-04-21T15:23:35.001Z</time></trkpt><trkpt lat="37.03076997743238" lon="-2.4232418480340803"><ele>330.0</ele><time>2026-04-21T15:23:36.001Z</time></trkpt><trkpt lat="37.03086396326825" lon="-2.423136901792237"><ele>330.0</ele><time>2026-04-21T15:23:37.001Z</time></trkpt><trkpt lat="37.03097477000436" lon="-2.423063762359607"><ele>330.0</ele><time>2026-04-21T15:23:38.001Z</time></trkpt><trkpt lat="37.0311027792991" lon="-2.423033784899054"><ele>330.0</ele><time>2026-04-21T15:23:39.001Z</time></trkpt><trkpt lat="37.03124104043046" lon="-2.4230628536289323"><ele>330.0</ele><time>2026-04-21T15:23:40.001Z</time></trkpt><trkpt lat="37.03138551792977" lon="-2.4231347317382084"><ele>330.0</ele><time>2026-04-21T15:23:41.001Z</time></trkpt><trkpt lat="37.03153229010117" lon="-2.4232316450348694"><ele>330.0</ele><time>2026-04-21T15:23:42.001Z</time></trkpt><trkpt lat="37.031697745611204" lon="-2.4233353253916974"><ele>330.0</ele><time>2026-04-21T15:23:43.001Z</time></trkpt><trkpt lat="37.03188705450109" lon="-2.4234218053988656"><ele>330.3333333333333</ele><time>2026-04-21T15:23:44.001Z</time></trkpt><trkpt lat="37.03209070891652" lon="-2.423487372276507"><ele>330.66666666666663</ele><time>2026-04-21T15:23:45.001Z</time></trkpt><trkpt lat="37.03229549323674" lon="-2.423527274016152"><ele>331.0</ele><time>2026-04-21T15:23:46.001Z</time></trkpt><trkpt lat="37.03250161597" lon="-2.423564805723281"><ele>331.0</ele><time>2026-04-21T15:23:47.001Z</time></trkpt><trkpt lat="37.03270542552096" lon="-2.423535383522079"><ele>331.0</ele><time>2026-04-21T15:23:48.001Z</time></trkpt><trkpt lat="37.03290736783562" lon="-2.4234710601810296"><ele>331.0</ele><time>2026-04-21T15:23:49.001Z</time></trkpt><trkpt lat="37.03309034098225" lon="-2.4233699894380885"><ele>331.0</ele><time>2026-04-21T15:23:50.001Z</time></trkpt><trkpt lat="37.03326740041525" lon="-2.4232283634707703"><ele>331.0</ele><time>2026-04-21T15:23:51.001Z</time></trkpt><trkpt lat="37.03342898902368" lon="-2.4230609570887838"><ele>331.0</ele><time>2026-04-21T15:23:52.001Z</time></trkpt><trkpt lat="37.033580246987526" lon="-2.4228669389307784"><ele>371.0</ele><time>2026-04-21T15:23:53Z</time></trkpt><trkpt lat="37.04200995447403" lon="-2.411692046538434"><ele>371.0</ele><time>2026-04-21T15:24:54Z</time></trkpt><trkpt lat="37.04206304288165" lon="-2.411502806169488"><ele>371.0</ele><time>2026-04-21T15:24:55Z</time></trkpt><trkpt lat="37.04211321934582" lon="-2.411324593168793"><ele>371.0</ele><time>2026-04-21T15:24:56Z</time></trkpt><trkpt lat="37.04216636558485" lon="-2.4111509743561728"><ele>371.0</ele><time>2026-04-21T15:24:57Z</time></trkpt><trkpt lat="37.04221568256571" lon="-2.410974008186506"><ele>371.0</ele><time>2026-04-21T15:24:58Z</time></trkpt><trkpt lat="37.042263670508824" lon="-2.4108025782484646"><ele>371.0</ele><time>2026-04-21T15:24:59Z</time></trkpt><trkpt lat="37.04230949601542" lon="-2.4106343582256238"><ele>371.0</ele><time>2026-04-21T15:25:00Z</time></trkpt><trkpt lat="37.042358418950165" lon="-2.4104566845781625"><ele>371.0</ele><time>2026-04-21T15:25:01Z</time></trkpt><trkpt lat="37.042414065736544" lon="-2.4102724513744764"><ele>371.0</ele><time>2026-04-21T15:25:02Z</time></trkpt><trkpt lat="37.04247148093562" lon="-2.410076920333887"><ele>371.0</ele><time>2026-04-21T15:25:03Z</time></trkpt><trkpt lat="37.04252209585218" lon="-2.4098586669654045"><ele>368.6666666666667</ele><time>2026-04-21T15:25:04Z</time></trkpt><trkpt lat="37.04255887991922" lon="-2.4096433380120645"><ele>366.3333333333333</ele><time>2026-04-21T15:25:05Z</time></trkpt><trkpt lat="37.0425954692874" lon="-2.4094003208661623"><ele>364.0</ele><time>2026-04-21T15:25:06Z</time></trkpt><trkpt lat="37.042571989404564" lon="-2.4091768073677486"><ele>364.0</ele><time>2026-04-21T15:25:07Z</time></trkpt><trkpt lat="37.042525327267136" lon="-2.408938026122257"><ele>364.0</ele><time>2026-04-21T15:25:08Z</time></trkpt><trkpt lat="37.04245811464711" lon="-2.408699713939328"><ele>364.0</ele><time>2026-04-21T15:25:09Z</time></trkpt><trkpt lat="37.04237255474612" lon="-2.40845626911034"><ele>363.3333333333333</ele><time>2026-04-21T15:25:10Z</time></trkpt><trkpt lat="37.04228481410777" lon="-2.408232806320113"><ele>362.6666666666667</ele><time>2026-04-21T15:25:11Z</time></trkpt><trkpt lat="37.04220952332713" lon="-2.4080174610398672"><ele>362.0</ele><time>2026-04-21T15:25:12Z</time></trkpt><trkpt lat="37.04214014037842" lon="-2.4078070031691943"><ele>362.0</ele><time>2026-04-21T15:25:13Z</time></trkpt><trkpt lat="37.04206777424828" lon="-2.4075972363646425"><ele>362.0</ele><time>2026-04-21T15:25:14Z</time></trkpt><trkpt lat="37.04199594189685" lon="-2.407404056650212"><ele>362.0</ele><time>2026-04-21T15:25:15Z</time></trkpt><trkpt lat="37.041936215908954" lon="-2.4072342749511857"><ele>360.0</ele><time>2026-04-21T15:25:16Z</time></trkpt><trkpt lat="37.04188064657597" lon="-2.407080537431591"><ele>358.0</ele><time>2026-04-21T15:25:17Z</time></trkpt><trkpt lat="37.0418378076284" lon="-2.4069351539940826"><ele>356.0</ele><time>2026-04-21T15:25:17.999Z</time></trkpt><trkpt lat="37.04180285435539" lon="-2.406797537972115"><ele>354.0</ele><time>2026-04-21T15:25:18.999Z</time></trkpt><trkpt lat="37.04177877971852" lon="-2.4066714196559964"><ele>354.0</ele><time>2026-04-21T15:25:19.999Z</time></trkpt><trkpt lat="37.041767257903" lon="-2.4065591068365015"><ele>354.0</ele><time>2026-04-21T15:25:20.999Z</time></trkpt><trkpt lat="37.04176649271506" lon="-2.4064590107343578"><ele>354.0</ele><time>2026-04-21T15:25:21.999Z</time></trkpt><trkpt lat="37.04176633344036" lon="-2.4063671338162083"><ele>354.0</ele><time>2026-04-21T15:25:22.999Z</time></trkpt><trkpt lat="37.041754303325135" lon="-2.406288535340175"><ele>354.0</ele><time>2026-04-21T15:25:23.999Z</time></trkpt><trkpt lat="37.041778040982535" lon="-2.40618932773096"><ele>354.0</ele><time>2026-04-21T15:25:25.999Z</time></trkpt><trkpt lat="37.04165321101353" lon="-2.4061447587560085"><ele>355.3333333333333</ele><time>2026-04-21T15:25:26.999Z</time></trkpt><trkpt lat="37.04156739390861" lon="-2.4060698408289314"><ele>356.6666666666667</ele><time>2026-04-21T15:25:28.999Z</time></trkpt><trkpt lat="37.04150351711797" lon="-2.4060294043092214"><ele>358.0</ele><time>2026-04-21T15:25:30Z</time></trkpt><trkpt lat="37.0414572158657" lon="-2.405969585199193"><ele>359.33333333333337</ele><time>2026-04-21T15:25:31Z</time></trkpt><trkpt lat="37.0414085602967" lon="-2.4059082130956626"><ele>360.6666666666667</ele><time>2026-04-21T15:25:32Z</time></trkpt><trkpt lat="37.04141948936069" lon="-2.4057952909826095"><ele>362.0</ele><time>2026-04-21T15:25:33Z</time></trkpt><trkpt lat="37.0414679063039" lon="-2.405614579216059"><ele>362.0</ele><time>2026-04-21T15:25:35Z</time></trkpt><trkpt lat="37.04151386234646" lon="-2.405505148725718"><ele>362.0</ele><time>2026-04-21T15:25:36Z</time></trkpt><trkpt lat="37.04156731135688" lon="-2.4053933846992535"><ele>362.0</ele><time>2026-04-21T15:25:37Z</time></trkpt><trkpt lat="37.04161752756563" lon="-2.405268489585061"><ele>362.0</ele><time>2026-04-21T15:25:38Z</time></trkpt><trkpt lat="37.04165604159848" lon="-2.405148591717508"><ele>362.0</ele><time>2026-04-21T15:25:39Z</time></trkpt><trkpt lat="37.041684603727006" lon="-2.405028435178553"><ele>359.0</ele><time>2026-04-21T15:25:40Z</time></trkpt><trkpt lat="37.04170082436866" lon="-2.404915025415895"><ele>356.0</ele><time>2026-04-21T15:25:41Z</time></trkpt><trkpt lat="37.0417059790121" lon="-2.4048102353114604"><ele>353.0</ele><time>2026-04-21T15:25:42Z</time></trkpt><trkpt lat="37.041709889954035" lon="-2.4047128538120712"><ele>350.0</ele><time>2026-04-21T15:25:43Z</time></trkpt><trkpt lat="37.041719524086176" lon="-2.4046295106052202"><ele>347.0</ele><time>2026-04-21T15:25:44Z</time></trkpt><trkpt lat="37.04175464154841" lon="-2.4044937660118726"><ele>344.0</ele><time>2026-04-21T15:25:46Z</time></trkpt><trkpt lat="37.0418095573464" lon="-2.404413181941862"><ele>344.0</ele><time>2026-04-21T15:25:48Z</time></trkpt><trkpt lat="37.041897028417665" lon="-2.404425315519125"><ele>344.0</ele><time>2026-04-21T15:25:50Z</time></trkpt><trkpt lat="37.041976672510486" lon="-2.404538730445658"><ele>344.0</ele><time>2026-04-21T15:25:52Z</time></trkpt><trkpt lat="37.04203465639304" lon="-2.404621342084973"><ele>344.0</ele><time>2026-04-21T15:25:53Z</time></trkpt><trkpt lat="37.0443598366921" lon="-2.4121193529233076"><ele>340.6</ele><time>2026-04-21T15:26:53.999Z</time></trkpt><trkpt lat="37.04433789897663" lon="-2.412260872172988"><ele>337.2</ele><time>2026-04-21T15:26:54.999Z</time></trkpt><trkpt lat="37.044315247725535" lon="-2.41239573876151"><ele>333.8</ele><time>2026-04-21T15:26:55.999Z</time></trkpt><trkpt lat="37.04427306860723" lon="-2.4125147647210796"><ele>330.40000000000003</ele><time>2026-04-21T15:26:56.999Z</time></trkpt><trkpt lat="37.04424693597011" lon="-2.4126288998654504"><ele>327.0</ele><time>2026-04-21T15:26:57.999Z</time></trkpt><trkpt lat="37.04421397543389" lon="-2.4127454281670464"><ele>327.0</ele><time>2026-04-21T15:26:58.999Z</time></trkpt><trkpt lat="37.04416901549212" lon="-2.412853424416949"><ele>327.0</ele><time>2026-04-21T15:26:59.999Z</time></trkpt><trkpt lat="37.04412711091152" lon="-2.412967483542538"><ele>327.0</ele><time>2026-04-21T15:27:00.999Z</time></trkpt><trkpt lat="37.044071355376225" lon="-2.4130845429296714"><ele>327.0</ele><time>2026-04-21T15:27:01.999Z</time></trkpt><trkpt lat="37.04399966942592" lon="-2.413212514163074"><ele>327.0</ele><time>2026-04-21T15:27:02.999Z</time></trkpt><trkpt lat="37.04393515457871" lon="-2.4133418436965255"><ele>329.20000000000005</ele><time>2026-04-21T15:27:03.999Z</time></trkpt><trkpt lat="37.0438841271201" lon="-2.4134599415138847"><ele>331.4</ele><time>2026-04-21T15:27:04.999Z</time></trkpt><trkpt lat="37.04384729464951" lon="-2.413576284790271"><ele>333.6</ele><time>2026-04-21T15:27:05.999Z</time></trkpt><trkpt lat="37.04382540738161" lon="-2.413686732099027"><ele>335.79999999999995</ele><time>2026-04-21T15:27:06.999Z</time></trkpt><trkpt lat="37.04382173331976" lon="-2.413802057188369"><ele>338.0</ele><time>2026-04-21T15:27:07.999Z</time></trkpt><trkpt lat="37.04383055197086" lon="-2.4139477691129705"><ele>338.59999999999997</ele><time>2026-04-21T15:27:08.999Z</time></trkpt><trkpt lat="37.04384711036803" lon="-2.4141127887539366"><ele>339.2</ele><time>2026-04-21T15:27:09.999Z</time></trkpt><trkpt lat="37.043861744137615" lon="-2.4142530523350194"><ele>339.8</ele><time>2026-04-21T15:27:10.999Z</time></trkpt><trkpt lat="37.04387198569748" lon="-2.414383546453057"><ele>340.4</ele><time>2026-04-21T15:27:11.999Z</time></trkpt><trkpt lat="37.04388197841472" lon="-2.41450713933922"><ele>341.0</ele><time>2026-04-21T15:27:12.999Z</time></trkpt><trkpt lat="37.04389373482086" lon="-2.4146421854130997"><ele>340.0</ele><time>2026-04-21T15:27:13.999Z</time></trkpt><trkpt lat="37.04391148422882" lon="-2.4147824025355575"><ele>339.0</ele><time>2026-04-21T15:27:14.999Z</time></trkpt><trkpt lat="37.04389890301884" lon="-2.4149219706962475"><ele>338.0</ele><time>2026-04-21T15:27:15.999Z</time></trkpt><trkpt lat="37.04389588946659" lon="-2.4150639894407044"><ele>337.0</ele><time>2026-04-21T15:27:16.999Z</time></trkpt><trkpt lat="37.043956462774624" lon="-2.4152149641084675"><ele>337.0</ele><time>2026-04-21T15:27:17.999Z</time></trkpt><trkpt lat="37.043990002413885" lon="-2.415356709892417"><ele>337.0</ele><time>2026-04-21T15:27:18.999Z</time></trkpt><trkpt lat="37.044004476261556" lon="-2.415490053893073"><ele>337.0</ele><time>2026-04-21T15:27:19.999Z</time></trkpt><trkpt lat="37.04400746481278" lon="-2.4156273971561486"><ele>337.0</ele><time>2026-04-21T15:27:20.999Z</time></trkpt><trkpt lat="37.043886239671046" lon="-2.4157607638536054"><ele>334.75</ele><time>2026-04-21T15:27:21.999Z</time></trkpt><trkpt lat="37.043885938692284" lon="-2.4158969186648074"><ele>332.5</ele><time>2026-04-21T15:27:22.999Z</time></trkpt><trkpt lat="37.043885405211704" lon="-2.416027404731558"><ele>330.25</ele><time>2026-04-21T15:27:23.999Z</time></trkpt><trkpt lat="37.04387412790265" lon="-2.416181035939976"><ele>328.0</ele><time>2026-04-21T15:27:24.999Z</time></trkpt><trkpt lat="37.043839129443185" lon="-2.4163700211021304"><ele>327.0</ele><time>2026-04-21T15:27:25.999Z</time></trkpt><trkpt lat="37.04376526019156" lon="-2.4165781471439565"><ele>326.0</ele><time>2026-04-21T15:27:26.999Z</time></trkpt><trkpt lat="37.04371825323171" lon="-2.4167754331004754"><ele>325.0</ele><time>2026-04-21T15:27:27.999Z</time></trkpt><trkpt lat="37.04366885046812" lon="-2.416920838000359"><ele>325.0</ele><time>2026-04-21T15:27:28.999Z</time></trkpt><trkpt lat="37.04363157705807" lon="-2.417030326781452"><ele>325.0</ele><time>2026-04-21T15:27:29.999Z</time></trkpt><trkpt lat="37.04360072239106" lon="-2.4171204884093727"><ele>325.0</ele><time>2026-04-21T15:27:30.999Z</time></trkpt><trkpt lat="37.043586264014266" lon="-2.417216601708728"><ele>325.0</ele><time>2026-04-21T15:27:32.999Z</time></trkpt><trkpt lat="37.043581694804914" lon="-2.4173535658865446"><ele>325.0</ele><time>2026-04-21T15:27:36Z</time></trkpt><trkpt lat="37.04360521743565" lon="-2.4174968399778898"><ele>324.5</ele><time>2026-04-21T15:27:38Z</time></trkpt><trkpt lat="37.04363679336937" lon="-2.4175687579730964"><ele>324.0</ele><time>2026-04-21T15:27:39Z</time></trkpt><trkpt lat="37.043673780245484" lon="-2.4176515148749487"><ele>323.5</ele><time>2026-04-21T15:27:40Z</time></trkpt><trkpt lat="37.043729587293946" lon="-2.417727044835632"><ele>323.0</ele><time>2026-04-21T15:27:41Z</time></trkpt><trkpt lat="37.043790446900864" lon="-2.417819272131566"><ele>322.5</ele><time>2026-04-21T15:27:42Z</time></trkpt><trkpt lat="37.043880493820865" lon="-2.4178891217624296"><ele>322.0</ele><time>2026-04-21T15:27:43Z</time></trkpt><trkpt lat="37.04396611206198" lon="-2.4179783319523103"><ele>322.0</ele><time>2026-04-21T15:27:44Z</time></trkpt><trkpt lat="37.04407208723566" lon="-2.4180224460258697"><ele>322.0</ele><time>2026-04-21T15:27:45Z</time></trkpt><trkpt lat="37.04418496109155" lon="-2.418019703892126"><ele>322.0</ele><time>2026-04-21T15:27:46Z</time></trkpt><trkpt lat="37.044287700062284" lon="-2.417994417246443"><ele>322.0</ele><time>2026-04-21T15:27:47Z</time></trkpt><trkpt lat="37.04441319110139" lon="-2.4179490724469974"><ele>322.75</ele><time>2026-04-21T15:27:48Z</time></trkpt><trkpt lat="37.04456050818625" lon="-2.417915490725541"><ele>323.5</ele><time>2026-04-21T15:27:49Z</time></trkpt><trkpt lat="37.04469245570727" lon="-2.4178853354717247"><ele>324.25</ele><time>2026-04-21T15:27:50Z</time></trkpt><trkpt lat="37.04480150836458" lon="-2.4178779175564085"><ele>325.0</ele><time>2026-04-21T15:27:51Z</time></trkpt><trkpt lat="37.0449026048359" lon="-2.417884073242249"><ele>329.0</ele><time>2026-04-21T15:27:52Z</time></trkpt><trkpt lat="37.04499988249437" lon="-2.417915205174572"><ele>333.0</ele><time>2026-04-21T15:27:53Z</time></trkpt><trkpt lat="37.04615893619026" lon="-2.4199393582533286"><ele>336.0</ele><time>2026-04-21T15:28:53.999Z</time></trkpt><trkpt lat="37.046241572228006" lon="-2.419959978618775"><ele>339.0</ele><time>2026-04-21T15:32:39Z</time></trkpt><trkpt lat="37.04632874697836" lon="-2.4199960034703056"><ele>342.0</ele><time>2026-04-21T15:32:41Z</time></trkpt><trkpt lat="37.04639980181499" lon="-2.420022157884221"><ele>345.0</ele><time>2026-04-21T15:32:43Z</time></trkpt><trkpt lat="37.04646793290501" lon="-2.420074997072129"><ele>348.0</ele><time>2026-04-21T15:32:45Z</time></trkpt><trkpt lat="37.046534955863216" lon="-2.4201226811466716"><ele>351.0</ele><time>2026-04-21T15:32:47Z</time></trkpt><trkpt lat="37.046606294240874" lon="-2.4201725553903106"><ele>351.3333333333333</ele><time>2026-04-21T15:32:49Z</time></trkpt><trkpt lat="37.046666556988654" lon="-2.4201485609385514"><ele>351.66666666666663</ele><time>2026-04-21T15:32:50Z</time></trkpt><trkpt lat="37.04675368589876" lon="-2.420167338931848"><ele>352.0</ele><time>2026-04-21T15:32:52Z</time></trkpt><trkpt lat="37.048171063978955" lon="-2.421221197049753"><ele>355.0</ele><time>2026-04-21T15:33:55Z</time></trkpt></trkseg></trk></gpx>